<?xml version="1.0" encoding="UTF-8" standalone="no" ?>
<gpx xmlns="http://www.topografix.com/GPX/1/1" xmlns:xsi="http://www.w3.org/2001/XMLSchema-instance" xsi:schemaLocation="http://www.topografix.com/GPX/1/1 http://www.topografix.com/GPX/1/1/gpx.xsd" version="1.1" creator="VisuGPX - https://www.visugpx.com">
  <metadata>
    <name>Rando au bord de mer.</name>
  </metadata>
  <trk>
    <name><![CDATA[Rando au bord de mer.]]></name>
    <trkseg>
      <trkpt lat="48.63382" lon="-2.27952">
        <ele>32</ele>
        <time>2021-07-27T14:19:50Z</time>
      </trkpt>
      <trkpt lat="48.63381" lon="-2.27952">
        <ele>31.9</ele>
        <time>2021-07-27T14:19:51Z</time>
      </trkpt>
      <trkpt lat="48.63381" lon="-2.27951">
        <ele>31.9</ele>
        <time>2021-07-27T14:19:53Z</time>
      </trkpt>
      <trkpt lat="48.63382" lon="-2.27951">
        <ele>31.9</ele>
        <time>2021-07-27T14:19:54Z</time>
      </trkpt>
      <trkpt lat="48.63382" lon="-2.2795">
        <ele>31.9</ele>
        <time>2021-07-27T14:19:55Z</time>
      </trkpt>
      <trkpt lat="48.63382" lon="-2.27949">
        <ele>32</ele>
        <time>2021-07-27T14:19:57Z</time>
      </trkpt>
      <trkpt lat="48.63382" lon="-2.27949">
        <ele>31.7</ele>
        <time>2021-07-27T14:19:59Z</time>
      </trkpt>
      <trkpt lat="48.63382" lon="-2.27948">
        <ele>31.7</ele>
        <time>2021-07-27T14:20:00Z</time>
      </trkpt>
      <trkpt lat="48.63382" lon="-2.27947">
        <ele>31.7</ele>
        <time>2021-07-27T14:20:01Z</time>
      </trkpt>
      <trkpt lat="48.63382" lon="-2.27947">
        <ele>31.7</ele>
        <time>2021-07-27T14:20:03Z</time>
      </trkpt>
      <trkpt lat="48.63382" lon="-2.27946">
        <ele>31.7</ele>
        <time>2021-07-27T14:20:05Z</time>
      </trkpt>
      <trkpt lat="48.63382" lon="-2.27945">
        <ele>31.7</ele>
        <time>2021-07-27T14:20:06Z</time>
      </trkpt>
      <trkpt lat="48.63382" lon="-2.27945">
        <ele>31.4</ele>
        <time>2021-07-27T14:20:08Z</time>
      </trkpt>
      <trkpt lat="48.63382" lon="-2.27944">
        <ele>31.4</ele>
        <time>2021-07-27T14:20:30Z</time>
      </trkpt>
      <trkpt lat="48.63382" lon="-2.27943">
        <ele>31.4</ele>
        <time>2021-07-27T14:20:31Z</time>
      </trkpt>
      <trkpt lat="48.63382" lon="-2.27942">
        <ele>31.4</ele>
        <time>2021-07-27T14:20:32Z</time>
      </trkpt>
      <trkpt lat="48.63379" lon="-2.27938">
        <ele>31.5</ele>
        <time>2021-07-27T14:20:34Z</time>
      </trkpt>
      <trkpt lat="48.63377" lon="-2.27937">
        <ele>31.8</ele>
        <time>2021-07-27T14:20:35Z</time>
      </trkpt>
      <trkpt lat="48.63375" lon="-2.27934">
        <ele>32.2</ele>
        <time>2021-07-27T14:20:36Z</time>
      </trkpt>
      <trkpt lat="48.63373" lon="-2.2793">
        <ele>32.6</ele>
        <time>2021-07-27T14:20:37Z</time>
      </trkpt>
      <trkpt lat="48.63372" lon="-2.27923">
        <ele>32.7</ele>
        <time>2021-07-27T14:20:39Z</time>
      </trkpt>
      <trkpt lat="48.63375" lon="-2.2791">
        <ele>32.1</ele>
        <time>2021-07-27T14:20:40Z</time>
      </trkpt>
      <trkpt lat="48.63379" lon="-2.27904">
        <ele>31.2</ele>
        <time>2021-07-27T14:20:41Z</time>
      </trkpt>
      <trkpt lat="48.63383" lon="-2.27898">
        <ele>30.8</ele>
        <time>2021-07-27T14:20:42Z</time>
      </trkpt>
      <trkpt lat="48.63387" lon="-2.27893">
        <ele>30.7</ele>
        <time>2021-07-27T14:20:43Z</time>
      </trkpt>
      <trkpt lat="48.63395" lon="-2.27884">
        <ele>29.4</ele>
        <time>2021-07-27T14:20:45Z</time>
      </trkpt>
      <trkpt lat="48.63398" lon="-2.2788">
        <ele>29.1</ele>
        <time>2021-07-27T14:20:46Z</time>
      </trkpt>
      <trkpt lat="48.63401" lon="-2.27875">
        <ele>28.6</ele>
        <time>2021-07-27T14:20:47Z</time>
      </trkpt>
      <trkpt lat="48.63405" lon="-2.2787">
        <ele>27.5</ele>
        <time>2021-07-27T14:20:49Z</time>
      </trkpt>
      <trkpt lat="48.63408" lon="-2.27864">
        <ele>26.9</ele>
        <time>2021-07-27T14:20:50Z</time>
      </trkpt>
      <trkpt lat="48.63413" lon="-2.27858">
        <ele>25.6</ele>
        <time>2021-07-27T14:20:51Z</time>
      </trkpt>
      <trkpt lat="48.63416" lon="-2.27854">
        <ele>25.2</ele>
        <time>2021-07-27T14:20:53Z</time>
      </trkpt>
      <trkpt lat="48.63419" lon="-2.27848">
        <ele>24.9</ele>
        <time>2021-07-27T14:20:54Z</time>
      </trkpt>
      <trkpt lat="48.63419" lon="-2.27843">
        <ele>25.1</ele>
        <time>2021-07-27T14:20:55Z</time>
      </trkpt>
      <trkpt lat="48.63417" lon="-2.27837">
        <ele>25.9</ele>
        <time>2021-07-27T14:20:57Z</time>
      </trkpt>
      <trkpt lat="48.63412" lon="-2.27829">
        <ele>27.1</ele>
        <time>2021-07-27T14:20:58Z</time>
      </trkpt>
      <trkpt lat="48.6341" lon="-2.27825">
        <ele>27.7</ele>
        <time>2021-07-27T14:20:59Z</time>
      </trkpt>
      <trkpt lat="48.63405" lon="-2.27817">
        <ele>28.5</ele>
        <time>2021-07-27T14:21:01Z</time>
      </trkpt>
      <trkpt lat="48.63401" lon="-2.2781">
        <ele>29.6</ele>
        <time>2021-07-27T14:21:02Z</time>
      </trkpt>
      <trkpt lat="48.63401" lon="-2.278">
        <ele>29.9</ele>
        <time>2021-07-27T14:21:04Z</time>
      </trkpt>
      <trkpt lat="48.63397" lon="-2.27792">
        <ele>30.7</ele>
        <time>2021-07-27T14:21:05Z</time>
      </trkpt>
      <trkpt lat="48.63394" lon="-2.27787">
        <ele>31.3</ele>
        <time>2021-07-27T14:21:06Z</time>
      </trkpt>
      <trkpt lat="48.63388" lon="-2.27783">
        <ele>32</ele>
        <time>2021-07-27T14:21:08Z</time>
      </trkpt>
      <trkpt lat="48.6338" lon="-2.27779">
        <ele>33.1</ele>
        <time>2021-07-27T14:21:09Z</time>
      </trkpt>
      <trkpt lat="48.63375" lon="-2.27778">
        <ele>33.8</ele>
        <time>2021-07-27T14:21:10Z</time>
      </trkpt>
      <trkpt lat="48.63371" lon="-2.27777">
        <ele>34.4</ele>
        <time>2021-07-27T14:21:11Z</time>
      </trkpt>
      <trkpt lat="48.63361" lon="-2.27776">
        <ele>35.8</ele>
        <time>2021-07-27T14:21:13Z</time>
      </trkpt>
      <trkpt lat="48.63353" lon="-2.27778">
        <ele>37</ele>
        <time>2021-07-27T14:21:15Z</time>
      </trkpt>
      <trkpt lat="48.63349" lon="-2.27781">
        <ele>37.7</ele>
        <time>2021-07-27T14:21:17Z</time>
      </trkpt>
      <trkpt lat="48.63343" lon="-2.2778">
        <ele>38.5</ele>
        <time>2021-07-27T14:21:18Z</time>
      </trkpt>
      <trkpt lat="48.63338" lon="-2.27778">
        <ele>39.2</ele>
        <time>2021-07-27T14:21:19Z</time>
      </trkpt>
      <trkpt lat="48.63333" lon="-2.27776">
        <ele>39.8</ele>
        <time>2021-07-27T14:21:20Z</time>
      </trkpt>
      <trkpt lat="48.63328" lon="-2.27773">
        <ele>40.5</ele>
        <time>2021-07-27T14:21:22Z</time>
      </trkpt>
      <trkpt lat="48.63323" lon="-2.27772">
        <ele>41.2</ele>
        <time>2021-07-27T14:21:23Z</time>
      </trkpt>
      <trkpt lat="48.63315" lon="-2.27776">
        <ele>42</ele>
        <time>2021-07-27T14:21:24Z</time>
      </trkpt>
      <trkpt lat="48.63306" lon="-2.27778">
        <ele>43</ele>
        <time>2021-07-27T14:21:26Z</time>
      </trkpt>
      <trkpt lat="48.63297" lon="-2.27777">
        <ele>43.9</ele>
        <time>2021-07-27T14:21:28Z</time>
      </trkpt>
      <trkpt lat="48.63294" lon="-2.27776">
        <ele>44.7</ele>
        <time>2021-07-27T14:21:29Z</time>
      </trkpt>
      <trkpt lat="48.63291" lon="-2.27773">
        <ele>44.7</ele>
        <time>2021-07-27T14:21:31Z</time>
      </trkpt>
      <trkpt lat="48.63292" lon="-2.27773">
        <ele>44.7</ele>
        <time>2021-07-27T14:21:33Z</time>
      </trkpt>
      <trkpt lat="48.63291" lon="-2.27773">
        <ele>44.7</ele>
        <time>2021-07-27T14:21:34Z</time>
      </trkpt>
      <trkpt lat="48.63289" lon="-2.27775">
        <ele>44.7</ele>
        <time>2021-07-27T14:21:35Z</time>
      </trkpt>
      <trkpt lat="48.63288" lon="-2.2778">
        <ele>44.8</ele>
        <time>2021-07-27T14:21:37Z</time>
      </trkpt>
      <trkpt lat="48.63284" lon="-2.27783">
        <ele>44.8</ele>
        <time>2021-07-27T14:21:38Z</time>
      </trkpt>
      <trkpt lat="48.63276" lon="-2.27781">
        <ele>44.7</ele>
        <time>2021-07-27T14:21:40Z</time>
      </trkpt>
      <trkpt lat="48.63271" lon="-2.27779">
        <ele>44.7</ele>
        <time>2021-07-27T14:21:41Z</time>
      </trkpt>
      <trkpt lat="48.63266" lon="-2.2778">
        <ele>44.7</ele>
        <time>2021-07-27T14:21:43Z</time>
      </trkpt>
      <trkpt lat="48.63259" lon="-2.27781">
        <ele>44.7</ele>
        <time>2021-07-27T14:21:44Z</time>
      </trkpt>
      <trkpt lat="48.63253" lon="-2.27782">
        <ele>44.8</ele>
        <time>2021-07-27T14:21:45Z</time>
      </trkpt>
      <trkpt lat="48.63245" lon="-2.27781">
        <ele>44.9</ele>
        <time>2021-07-27T14:21:47Z</time>
      </trkpt>
      <trkpt lat="48.6324" lon="-2.27782">
        <ele>45</ele>
        <time>2021-07-27T14:21:48Z</time>
      </trkpt>
      <trkpt lat="48.63231" lon="-2.27786">
        <ele>45.3</ele>
        <time>2021-07-27T14:21:50Z</time>
      </trkpt>
      <trkpt lat="48.63227" lon="-2.27789">
        <ele>45.5</ele>
        <time>2021-07-27T14:21:52Z</time>
      </trkpt>
      <trkpt lat="48.63223" lon="-2.27792">
        <ele>45.6</ele>
        <time>2021-07-27T14:21:53Z</time>
      </trkpt>
      <trkpt lat="48.63219" lon="-2.27797">
        <ele>45.8</ele>
        <time>2021-07-27T14:21:54Z</time>
      </trkpt>
      <trkpt lat="48.63216" lon="-2.27801">
        <ele>46</ele>
        <time>2021-07-27T14:21:55Z</time>
      </trkpt>
      <trkpt lat="48.63211" lon="-2.27807">
        <ele>46.3</ele>
        <time>2021-07-27T14:21:56Z</time>
      </trkpt>
      <trkpt lat="48.63208" lon="-2.27811">
        <ele>46.5</ele>
        <time>2021-07-27T14:21:57Z</time>
      </trkpt>
      <trkpt lat="48.63202" lon="-2.27817">
        <ele>46.8</ele>
        <time>2021-07-27T14:21:59Z</time>
      </trkpt>
      <trkpt lat="48.63198" lon="-2.27821">
        <ele>47.1</ele>
        <time>2021-07-27T14:22:00Z</time>
      </trkpt>
      <trkpt lat="48.63191" lon="-2.27826">
        <ele>47.5</ele>
        <time>2021-07-27T14:22:02Z</time>
      </trkpt>
      <trkpt lat="48.63187" lon="-2.27829">
        <ele>47.7</ele>
        <time>2021-07-27T14:22:03Z</time>
      </trkpt>
      <trkpt lat="48.63183" lon="-2.27833">
        <ele>47.9</ele>
        <time>2021-07-27T14:22:04Z</time>
      </trkpt>
      <trkpt lat="48.63176" lon="-2.27838">
        <ele>48.3</ele>
        <time>2021-07-27T14:22:06Z</time>
      </trkpt>
      <trkpt lat="48.63169" lon="-2.27841">
        <ele>48.5</ele>
        <time>2021-07-27T14:22:08Z</time>
      </trkpt>
      <trkpt lat="48.63163" lon="-2.27842">
        <ele>48.7</ele>
        <time>2021-07-27T14:22:09Z</time>
      </trkpt>
      <trkpt lat="48.63158" lon="-2.27843">
        <ele>48.9</ele>
        <time>2021-07-27T14:22:11Z</time>
      </trkpt>
      <trkpt lat="48.63153" lon="-2.27844">
        <ele>49</ele>
        <time>2021-07-27T14:22:12Z</time>
      </trkpt>
      <trkpt lat="48.63148" lon="-2.27845">
        <ele>49</ele>
        <time>2021-07-27T14:22:13Z</time>
      </trkpt>
      <trkpt lat="48.63141" lon="-2.27848">
        <ele>49.1</ele>
        <time>2021-07-27T14:22:14Z</time>
      </trkpt>
      <trkpt lat="48.63136" lon="-2.27849">
        <ele>49.1</ele>
        <time>2021-07-27T14:22:15Z</time>
      </trkpt>
      <trkpt lat="48.63127" lon="-2.27852">
        <ele>49.2</ele>
        <time>2021-07-27T14:22:17Z</time>
      </trkpt>
      <trkpt lat="48.63122" lon="-2.27853">
        <ele>49.1</ele>
        <time>2021-07-27T14:22:18Z</time>
      </trkpt>
      <trkpt lat="48.63112" lon="-2.27855">
        <ele>49.1</ele>
        <time>2021-07-27T14:22:20Z</time>
      </trkpt>
      <trkpt lat="48.63107" lon="-2.27856">
        <ele>49</ele>
        <time>2021-07-27T14:22:21Z</time>
      </trkpt>
      <trkpt lat="48.63098" lon="-2.27859">
        <ele>48.9</ele>
        <time>2021-07-27T14:22:23Z</time>
      </trkpt>
      <trkpt lat="48.63093" lon="-2.27861">
        <ele>48.8</ele>
        <time>2021-07-27T14:22:24Z</time>
      </trkpt>
      <trkpt lat="48.63082" lon="-2.27863">
        <ele>48.6</ele>
        <time>2021-07-27T14:22:26Z</time>
      </trkpt>
      <trkpt lat="48.63077" lon="-2.27864">
        <ele>48.5</ele>
        <time>2021-07-27T14:22:27Z</time>
      </trkpt>
      <trkpt lat="48.63072" lon="-2.27865">
        <ele>48.4</ele>
        <time>2021-07-27T14:22:28Z</time>
      </trkpt>
      <trkpt lat="48.63062" lon="-2.27868">
        <ele>48.1</ele>
        <time>2021-07-27T14:22:30Z</time>
      </trkpt>
      <trkpt lat="48.63057" lon="-2.27869">
        <ele>48</ele>
        <time>2021-07-27T14:22:31Z</time>
      </trkpt>
      <trkpt lat="48.63051" lon="-2.27871">
        <ele>47.8</ele>
        <time>2021-07-27T14:22:32Z</time>
      </trkpt>
      <trkpt lat="48.6304" lon="-2.27874">
        <ele>47.5</ele>
        <time>2021-07-27T14:22:34Z</time>
      </trkpt>
      <trkpt lat="48.63029" lon="-2.27876">
        <ele>47.2</ele>
        <time>2021-07-27T14:22:36Z</time>
      </trkpt>
      <trkpt lat="48.63023" lon="-2.27878">
        <ele>46.9</ele>
        <time>2021-07-27T14:22:37Z</time>
      </trkpt>
      <trkpt lat="48.6301" lon="-2.27882">
        <ele>46.5</ele>
        <time>2021-07-27T14:22:39Z</time>
      </trkpt>
      <trkpt lat="48.63003" lon="-2.27884">
        <ele>46.3</ele>
        <time>2021-07-27T14:22:40Z</time>
      </trkpt>
      <trkpt lat="48.62989" lon="-2.27889">
        <ele>45.8</ele>
        <time>2021-07-27T14:22:42Z</time>
      </trkpt>
      <trkpt lat="48.62975" lon="-2.27893">
        <ele>45.2</ele>
        <time>2021-07-27T14:22:44Z</time>
      </trkpt>
      <trkpt lat="48.62961" lon="-2.279">
        <ele>44.7</ele>
        <time>2021-07-27T14:22:46Z</time>
      </trkpt>
      <trkpt lat="48.62954" lon="-2.27904">
        <ele>44.5</ele>
        <time>2021-07-27T14:22:47Z</time>
      </trkpt>
      <trkpt lat="48.62939" lon="-2.27912">
        <ele>44.2</ele>
        <time>2021-07-27T14:22:49Z</time>
      </trkpt>
      <trkpt lat="48.62926" lon="-2.27921">
        <ele>43.9</ele>
        <time>2021-07-27T14:22:51Z</time>
      </trkpt>
      <trkpt lat="48.62919" lon="-2.27925">
        <ele>43.8</ele>
        <time>2021-07-27T14:22:52Z</time>
      </trkpt>
      <trkpt lat="48.62906" lon="-2.27932">
        <ele>43.6</ele>
        <time>2021-07-27T14:22:54Z</time>
      </trkpt>
      <trkpt lat="48.62893" lon="-2.2794">
        <ele>43.6</ele>
        <time>2021-07-27T14:22:56Z</time>
      </trkpt>
      <trkpt lat="48.62887" lon="-2.27944">
        <ele>43.6</ele>
        <time>2021-07-27T14:22:57Z</time>
      </trkpt>
      <trkpt lat="48.62875" lon="-2.27951">
        <ele>43.7</ele>
        <time>2021-07-27T14:22:59Z</time>
      </trkpt>
      <trkpt lat="48.62869" lon="-2.27963">
        <ele>43.8</ele>
        <time>2021-07-27T14:23:01Z</time>
      </trkpt>
      <trkpt lat="48.62869" lon="-2.27971">
        <ele>43.9</ele>
        <time>2021-07-27T14:23:02Z</time>
      </trkpt>
      <trkpt lat="48.62873" lon="-2.27988">
        <ele>44</ele>
        <time>2021-07-27T14:23:04Z</time>
      </trkpt>
      <trkpt lat="48.62878" lon="-2.28004">
        <ele>44</ele>
        <time>2021-07-27T14:23:06Z</time>
      </trkpt>
      <trkpt lat="48.6288" lon="-2.28021">
        <ele>44.1</ele>
        <time>2021-07-27T14:23:08Z</time>
      </trkpt>
      <trkpt lat="48.6288" lon="-2.2804">
        <ele>44.2</ele>
        <time>2021-07-27T14:23:10Z</time>
      </trkpt>
      <trkpt lat="48.62879" lon="-2.28049">
        <ele>44.2</ele>
        <time>2021-07-27T14:23:11Z</time>
      </trkpt>
      <trkpt lat="48.62872" lon="-2.28064">
        <ele>44.4</ele>
        <time>2021-07-27T14:23:13Z</time>
      </trkpt>
      <trkpt lat="48.62868" lon="-2.28071">
        <ele>44.5</ele>
        <time>2021-07-27T14:23:14Z</time>
      </trkpt>
      <trkpt lat="48.62858" lon="-2.28082">
        <ele>44.7</ele>
        <time>2021-07-27T14:23:16Z</time>
      </trkpt>
      <trkpt lat="48.62853" lon="-2.28087">
        <ele>44.7</ele>
        <time>2021-07-27T14:23:17Z</time>
      </trkpt>
      <trkpt lat="48.62844" lon="-2.28098">
        <ele>44.6</ele>
        <time>2021-07-27T14:23:20Z</time>
      </trkpt>
      <trkpt lat="48.62834" lon="-2.28109">
        <ele>44.3</ele>
        <time>2021-07-27T14:23:21Z</time>
      </trkpt>
      <trkpt lat="48.62829" lon="-2.28114">
        <ele>44.2</ele>
        <time>2021-07-27T14:23:23Z</time>
      </trkpt>
      <trkpt lat="48.62819" lon="-2.28127">
        <ele>43.7</ele>
        <time>2021-07-27T14:23:24Z</time>
      </trkpt>
      <trkpt lat="48.62807" lon="-2.28141">
        <ele>43.2</ele>
        <time>2021-07-27T14:23:26Z</time>
      </trkpt>
      <trkpt lat="48.62795" lon="-2.28156">
        <ele>42.8</ele>
        <time>2021-07-27T14:23:28Z</time>
      </trkpt>
      <trkpt lat="48.6279" lon="-2.28165">
        <ele>42.7</ele>
        <time>2021-07-27T14:23:29Z</time>
      </trkpt>
      <trkpt lat="48.62784" lon="-2.28188">
        <ele>42.7</ele>
        <time>2021-07-27T14:23:31Z</time>
      </trkpt>
      <trkpt lat="48.62784" lon="-2.282">
        <ele>42.8</ele>
        <time>2021-07-27T14:23:32Z</time>
      </trkpt>
      <trkpt lat="48.62786" lon="-2.28211">
        <ele>43</ele>
        <time>2021-07-27T14:23:33Z</time>
      </trkpt>
      <trkpt lat="48.62792" lon="-2.28229">
        <ele>43.3</ele>
        <time>2021-07-27T14:23:35Z</time>
      </trkpt>
      <trkpt lat="48.62795" lon="-2.28237">
        <ele>43.5</ele>
        <time>2021-07-27T14:23:36Z</time>
      </trkpt>
      <trkpt lat="48.62799" lon="-2.28246">
        <ele>43.7</ele>
        <time>2021-07-27T14:23:37Z</time>
      </trkpt>
      <trkpt lat="48.62806" lon="-2.28261">
        <ele>44.2</ele>
        <time>2021-07-27T14:23:39Z</time>
      </trkpt>
      <trkpt lat="48.62813" lon="-2.28275">
        <ele>44.9</ele>
        <time>2021-07-27T14:23:41Z</time>
      </trkpt>
      <trkpt lat="48.62816" lon="-2.28281">
        <ele>45.2</ele>
        <time>2021-07-27T14:23:42Z</time>
      </trkpt>
      <trkpt lat="48.62821" lon="-2.28295">
        <ele>45.8</ele>
        <time>2021-07-27T14:23:44Z</time>
      </trkpt>
      <trkpt lat="48.62823" lon="-2.28301">
        <ele>46.1</ele>
        <time>2021-07-27T14:23:45Z</time>
      </trkpt>
      <trkpt lat="48.62824" lon="-2.28305">
        <ele>46.2</ele>
        <time>2021-07-27T14:23:46Z</time>
      </trkpt>
      <trkpt lat="48.62826" lon="-2.28316">
        <ele>46.4</ele>
        <time>2021-07-27T14:23:48Z</time>
      </trkpt>
      <trkpt lat="48.62827" lon="-2.28321">
        <ele>46.5</ele>
        <time>2021-07-27T14:23:49Z</time>
      </trkpt>
      <trkpt lat="48.62828" lon="-2.28326">
        <ele>46.6</ele>
        <time>2021-07-27T14:23:50Z</time>
      </trkpt>
      <trkpt lat="48.6283" lon="-2.28331">
        <ele>46.5</ele>
        <time>2021-07-27T14:23:52Z</time>
      </trkpt>
      <trkpt lat="48.62833" lon="-2.28332">
        <ele>46.5</ele>
        <time>2021-07-27T14:23:54Z</time>
      </trkpt>
      <trkpt lat="48.62834" lon="-2.28336">
        <ele>46.5</ele>
        <time>2021-07-27T14:23:55Z</time>
      </trkpt>
      <trkpt lat="48.62839" lon="-2.28359">
        <ele>46.1</ele>
        <time>2021-07-27T14:23:56Z</time>
      </trkpt>
      <trkpt lat="48.62843" lon="-2.28367">
        <ele>45.9</ele>
        <time>2021-07-27T14:23:57Z</time>
      </trkpt>
      <trkpt lat="48.62845" lon="-2.28374">
        <ele>45.8</ele>
        <time>2021-07-27T14:23:58Z</time>
      </trkpt>
      <trkpt lat="48.62848" lon="-2.28379">
        <ele>45.6</ele>
        <time>2021-07-27T14:23:59Z</time>
      </trkpt>
      <trkpt lat="48.6285" lon="-2.28386">
        <ele>45.4</ele>
        <time>2021-07-27T14:24:00Z</time>
      </trkpt>
      <trkpt lat="48.62854" lon="-2.28399">
        <ele>45</ele>
        <time>2021-07-27T14:24:02Z</time>
      </trkpt>
      <trkpt lat="48.62858" lon="-2.28413">
        <ele>44.6</ele>
        <time>2021-07-27T14:24:04Z</time>
      </trkpt>
      <trkpt lat="48.62859" lon="-2.28421">
        <ele>44.3</ele>
        <time>2021-07-27T14:24:05Z</time>
      </trkpt>
      <trkpt lat="48.62862" lon="-2.28439">
        <ele>43.7</ele>
        <time>2021-07-27T14:24:07Z</time>
      </trkpt>
      <trkpt lat="48.62864" lon="-2.28449">
        <ele>43.4</ele>
        <time>2021-07-27T14:24:08Z</time>
      </trkpt>
      <trkpt lat="48.62866" lon="-2.28469">
        <ele>42.8</ele>
        <time>2021-07-27T14:24:10Z</time>
      </trkpt>
      <trkpt lat="48.62867" lon="-2.28479">
        <ele>42.6</ele>
        <time>2021-07-27T14:24:11Z</time>
      </trkpt>
      <trkpt lat="48.62869" lon="-2.2849">
        <ele>42.3</ele>
        <time>2021-07-27T14:24:12Z</time>
      </trkpt>
      <trkpt lat="48.62872" lon="-2.28511">
        <ele>42</ele>
        <time>2021-07-27T14:24:14Z</time>
      </trkpt>
      <trkpt lat="48.62876" lon="-2.28531">
        <ele>41.6</ele>
        <time>2021-07-27T14:24:16Z</time>
      </trkpt>
      <trkpt lat="48.62879" lon="-2.28551">
        <ele>41</ele>
        <time>2021-07-27T14:24:18Z</time>
      </trkpt>
      <trkpt lat="48.62881" lon="-2.2856">
        <ele>40.7</ele>
        <time>2021-07-27T14:24:19Z</time>
      </trkpt>
      <trkpt lat="48.62882" lon="-2.2857">
        <ele>40.3</ele>
        <time>2021-07-27T14:24:20Z</time>
      </trkpt>
      <trkpt lat="48.62886" lon="-2.28591">
        <ele>39.5</ele>
        <time>2021-07-27T14:24:22Z</time>
      </trkpt>
      <trkpt lat="48.62886" lon="-2.28602">
        <ele>39.1</ele>
        <time>2021-07-27T14:24:23Z</time>
      </trkpt>
      <trkpt lat="48.62886" lon="-2.28611">
        <ele>38.8</ele>
        <time>2021-07-27T14:24:24Z</time>
      </trkpt>
      <trkpt lat="48.62886" lon="-2.28619">
        <ele>38.5</ele>
        <time>2021-07-27T14:24:25Z</time>
      </trkpt>
      <trkpt lat="48.62883" lon="-2.28635">
        <ele>37.9</ele>
        <time>2021-07-27T14:24:27Z</time>
      </trkpt>
      <trkpt lat="48.62877" lon="-2.28647">
        <ele>37.4</ele>
        <time>2021-07-27T14:24:29Z</time>
      </trkpt>
      <trkpt lat="48.62875" lon="-2.2865">
        <ele>37.2</ele>
        <time>2021-07-27T14:24:30Z</time>
      </trkpt>
      <trkpt lat="48.62868" lon="-2.28657">
        <ele>36.8</ele>
        <time>2021-07-27T14:24:32Z</time>
      </trkpt>
      <trkpt lat="48.62862" lon="-2.28659">
        <ele>36.4</ele>
        <time>2021-07-27T14:24:34Z</time>
      </trkpt>
      <trkpt lat="48.62858" lon="-2.2866">
        <ele>36.1</ele>
        <time>2021-07-27T14:24:35Z</time>
      </trkpt>
      <trkpt lat="48.62853" lon="-2.28665">
        <ele>35.6</ele>
        <time>2021-07-27T14:24:36Z</time>
      </trkpt>
      <trkpt lat="48.62853" lon="-2.2867">
        <ele>35.4</ele>
        <time>2021-07-27T14:24:37Z</time>
      </trkpt>
      <trkpt lat="48.62841" lon="-2.28673">
        <ele>34.3</ele>
        <time>2021-07-27T14:24:39Z</time>
      </trkpt>
      <trkpt lat="48.6283" lon="-2.28676">
        <ele>33</ele>
        <time>2021-07-27T14:24:41Z</time>
      </trkpt>
      <trkpt lat="48.6282" lon="-2.28678">
        <ele>31.2</ele>
        <time>2021-07-27T14:24:43Z</time>
      </trkpt>
      <trkpt lat="48.62809" lon="-2.28678">
        <ele>28.9</ele>
        <time>2021-07-27T14:24:45Z</time>
      </trkpt>
      <trkpt lat="48.62802" lon="-2.28681">
        <ele>27.3</ele>
        <time>2021-07-27T14:24:47Z</time>
      </trkpt>
      <trkpt lat="48.62799" lon="-2.28684">
        <ele>26.4</ele>
        <time>2021-07-27T14:24:48Z</time>
      </trkpt>
      <trkpt lat="48.62795" lon="-2.28684">
        <ele>25.5</ele>
        <time>2021-07-27T14:24:49Z</time>
      </trkpt>
      <trkpt lat="48.62792" lon="-2.28684">
        <ele>24.7</ele>
        <time>2021-07-27T14:24:51Z</time>
      </trkpt>
      <trkpt lat="48.62789" lon="-2.28688">
        <ele>23.9</ele>
        <time>2021-07-27T14:24:52Z</time>
      </trkpt>
      <trkpt lat="48.62788" lon="-2.28692">
        <ele>23.3</ele>
        <time>2021-07-27T14:24:53Z</time>
      </trkpt>
      <trkpt lat="48.62788" lon="-2.28697">
        <ele>23</ele>
        <time>2021-07-27T14:24:54Z</time>
      </trkpt>
      <trkpt lat="48.62788" lon="-2.28701">
        <ele>22.8</ele>
        <time>2021-07-27T14:24:55Z</time>
      </trkpt>
      <trkpt lat="48.62788" lon="-2.28706">
        <ele>22.5</ele>
        <time>2021-07-27T14:24:56Z</time>
      </trkpt>
      <trkpt lat="48.62787" lon="-2.28714">
        <ele>21.9</ele>
        <time>2021-07-27T14:24:58Z</time>
      </trkpt>
      <trkpt lat="48.62784" lon="-2.28723">
        <ele>21</ele>
        <time>2021-07-27T14:24:59Z</time>
      </trkpt>
      <trkpt lat="48.62782" lon="-2.2873">
        <ele>20.4</ele>
        <time>2021-07-27T14:25:00Z</time>
      </trkpt>
      <trkpt lat="48.6278" lon="-2.28736">
        <ele>19.7</ele>
        <time>2021-07-27T14:25:01Z</time>
      </trkpt>
      <trkpt lat="48.62778" lon="-2.28742">
        <ele>19.5</ele>
        <time>2021-07-27T14:25:02Z</time>
      </trkpt>
      <trkpt lat="48.62775" lon="-2.2875">
        <ele>18.4</ele>
        <time>2021-07-27T14:25:03Z</time>
      </trkpt>
      <trkpt lat="48.6277" lon="-2.28764">
        <ele>17.3</ele>
        <time>2021-07-27T14:25:05Z</time>
      </trkpt>
      <trkpt lat="48.62767" lon="-2.28772">
        <ele>16.5</ele>
        <time>2021-07-27T14:25:07Z</time>
      </trkpt>
      <trkpt lat="48.62764" lon="-2.28776">
        <ele>15.9</ele>
        <time>2021-07-27T14:25:08Z</time>
      </trkpt>
      <trkpt lat="48.62758" lon="-2.28776">
        <ele>15.2</ele>
        <time>2021-07-27T14:25:09Z</time>
      </trkpt>
      <trkpt lat="48.62754" lon="-2.28775">
        <ele>14.6</ele>
        <time>2021-07-27T14:25:10Z</time>
      </trkpt>
      <trkpt lat="48.62748" lon="-2.28773">
        <ele>14.6</ele>
        <time>2021-07-27T14:25:11Z</time>
      </trkpt>
      <trkpt lat="48.62743" lon="-2.28772">
        <ele>14.3</ele>
        <time>2021-07-27T14:25:12Z</time>
      </trkpt>
      <trkpt lat="48.62737" lon="-2.28773">
        <ele>13.9</ele>
        <time>2021-07-27T14:25:14Z</time>
      </trkpt>
      <trkpt lat="48.62734" lon="-2.28771">
        <ele>14.3</ele>
        <time>2021-07-27T14:25:15Z</time>
      </trkpt>
      <trkpt lat="48.62732" lon="-2.28768">
        <ele>14.5</ele>
        <time>2021-07-27T14:25:16Z</time>
      </trkpt>
      <trkpt lat="48.62729" lon="-2.28763">
        <ele>14.7</ele>
        <time>2021-07-27T14:25:18Z</time>
      </trkpt>
      <trkpt lat="48.62726" lon="-2.28757">
        <ele>14.8</ele>
        <time>2021-07-27T14:25:19Z</time>
      </trkpt>
      <trkpt lat="48.62722" lon="-2.28751">
        <ele>15</ele>
        <time>2021-07-27T14:25:20Z</time>
      </trkpt>
      <trkpt lat="48.62719" lon="-2.28748">
        <ele>14.9</ele>
        <time>2021-07-27T14:25:21Z</time>
      </trkpt>
      <trkpt lat="48.62716" lon="-2.28746">
        <ele>15</ele>
        <time>2021-07-27T14:25:22Z</time>
      </trkpt>
      <trkpt lat="48.62712" lon="-2.28742">
        <ele>15.1</ele>
        <time>2021-07-27T14:25:24Z</time>
      </trkpt>
      <trkpt lat="48.6271" lon="-2.28736">
        <ele>15.2</ele>
        <time>2021-07-27T14:25:25Z</time>
      </trkpt>
      <trkpt lat="48.62708" lon="-2.28727">
        <ele>15.6</ele>
        <time>2021-07-27T14:25:27Z</time>
      </trkpt>
      <trkpt lat="48.62706" lon="-2.28721">
        <ele>15.9</ele>
        <time>2021-07-27T14:25:28Z</time>
      </trkpt>
      <trkpt lat="48.62703" lon="-2.28715">
        <ele>16.1</ele>
        <time>2021-07-27T14:25:29Z</time>
      </trkpt>
      <trkpt lat="48.627" lon="-2.28706">
        <ele>16.5</ele>
        <time>2021-07-27T14:25:31Z</time>
      </trkpt>
      <trkpt lat="48.62699" lon="-2.28699">
        <ele>16.9</ele>
        <time>2021-07-27T14:25:32Z</time>
      </trkpt>
      <trkpt lat="48.62697" lon="-2.28693">
        <ele>17.2</ele>
        <time>2021-07-27T14:25:33Z</time>
      </trkpt>
      <trkpt lat="48.62696" lon="-2.28687">
        <ele>17.6</ele>
        <time>2021-07-27T14:25:34Z</time>
      </trkpt>
      <trkpt lat="48.62695" lon="-2.28681">
        <ele>17.9</ele>
        <time>2021-07-27T14:25:36Z</time>
      </trkpt>
      <trkpt lat="48.62693" lon="-2.28675">
        <ele>18.1</ele>
        <time>2021-07-27T14:25:38Z</time>
      </trkpt>
      <trkpt lat="48.6269" lon="-2.28671">
        <ele>18.3</ele>
        <time>2021-07-27T14:25:39Z</time>
      </trkpt>
      <trkpt lat="48.62687" lon="-2.28666">
        <ele>18.5</ele>
        <time>2021-07-27T14:25:41Z</time>
      </trkpt>
      <trkpt lat="48.62684" lon="-2.28661">
        <ele>18.8</ele>
        <time>2021-07-27T14:25:43Z</time>
      </trkpt>
      <trkpt lat="48.62684" lon="-2.28659">
        <ele>18.8</ele>
        <time>2021-07-27T14:25:44Z</time>
      </trkpt>
      <trkpt lat="48.62684" lon="-2.28658">
        <ele>18.8</ele>
        <time>2021-07-27T14:25:45Z</time>
      </trkpt>
      <trkpt lat="48.62684" lon="-2.28656">
        <ele>18.9</ele>
        <time>2021-07-27T14:25:47Z</time>
      </trkpt>
      <trkpt lat="48.62684" lon="-2.28655">
        <ele>18.9</ele>
        <time>2021-07-27T14:25:48Z</time>
      </trkpt>
      <trkpt lat="48.62684" lon="-2.28653">
        <ele>18.9</ele>
        <time>2021-07-27T14:25:50Z</time>
      </trkpt>
      <trkpt lat="48.62684" lon="-2.28652">
        <ele>19</ele>
        <time>2021-07-27T14:25:51Z</time>
      </trkpt>
      <trkpt lat="48.62684" lon="-2.2865">
        <ele>19</ele>
        <time>2021-07-27T14:25:52Z</time>
      </trkpt>
      <trkpt lat="48.62684" lon="-2.28649">
        <ele>19</ele>
        <time>2021-07-27T14:25:55Z</time>
      </trkpt>
      <trkpt lat="48.62684" lon="-2.28647">
        <ele>19.1</ele>
        <time>2021-07-27T14:25:56Z</time>
      </trkpt>
      <trkpt lat="48.62683" lon="-2.28646">
        <ele>19.1</ele>
        <time>2021-07-27T14:25:57Z</time>
      </trkpt>
      <trkpt lat="48.62682" lon="-2.28639">
        <ele>19.4</ele>
        <time>2021-07-27T14:25:59Z</time>
      </trkpt>
      <trkpt lat="48.62681" lon="-2.28633">
        <ele>19.6</ele>
        <time>2021-07-27T14:26:00Z</time>
      </trkpt>
      <trkpt lat="48.62678" lon="-2.28628">
        <ele>19.7</ele>
        <time>2021-07-27T14:26:02Z</time>
      </trkpt>
      <trkpt lat="48.62674" lon="-2.28623">
        <ele>19.8</ele>
        <time>2021-07-27T14:26:03Z</time>
      </trkpt>
      <trkpt lat="48.62671" lon="-2.28619">
        <ele>20.1</ele>
        <time>2021-07-27T14:26:04Z</time>
      </trkpt>
      <trkpt lat="48.62668" lon="-2.28615">
        <ele>20.1</ele>
        <time>2021-07-27T14:26:05Z</time>
      </trkpt>
      <trkpt lat="48.62664" lon="-2.28609">
        <ele>20.3</ele>
        <time>2021-07-27T14:26:07Z</time>
      </trkpt>
      <trkpt lat="48.62661" lon="-2.28605">
        <ele>20.5</ele>
        <time>2021-07-27T14:26:08Z</time>
      </trkpt>
      <trkpt lat="48.62657" lon="-2.28599">
        <ele>20.6</ele>
        <time>2021-07-27T14:26:10Z</time>
      </trkpt>
      <trkpt lat="48.62653" lon="-2.28593">
        <ele>20.8</ele>
        <time>2021-07-27T14:26:11Z</time>
      </trkpt>
      <trkpt lat="48.62651" lon="-2.28588">
        <ele>21.2</ele>
        <time>2021-07-27T14:26:12Z</time>
      </trkpt>
      <trkpt lat="48.62648" lon="-2.28584">
        <ele>21.4</ele>
        <time>2021-07-27T14:26:13Z</time>
      </trkpt>
      <trkpt lat="48.62644" lon="-2.28578">
        <ele>21.6</ele>
        <time>2021-07-27T14:26:15Z</time>
      </trkpt>
      <trkpt lat="48.62641" lon="-2.28573">
        <ele>21.8</ele>
        <time>2021-07-27T14:26:16Z</time>
      </trkpt>
      <trkpt lat="48.62637" lon="-2.28568">
        <ele>22</ele>
        <time>2021-07-27T14:26:17Z</time>
      </trkpt>
      <trkpt lat="48.62634" lon="-2.28564">
        <ele>22.2</ele>
        <time>2021-07-27T14:26:18Z</time>
      </trkpt>
      <trkpt lat="48.6263" lon="-2.28558">
        <ele>22.8</ele>
        <time>2021-07-27T14:26:20Z</time>
      </trkpt>
      <trkpt lat="48.62626" lon="-2.28551">
        <ele>23.1</ele>
        <time>2021-07-27T14:26:22Z</time>
      </trkpt>
      <trkpt lat="48.62621" lon="-2.28546">
        <ele>23.4</ele>
        <time>2021-07-27T14:26:23Z</time>
      </trkpt>
      <trkpt lat="48.62616" lon="-2.2854">
        <ele>24</ele>
        <time>2021-07-27T14:26:25Z</time>
      </trkpt>
      <trkpt lat="48.62611" lon="-2.28533">
        <ele>24.4</ele>
        <time>2021-07-27T14:26:27Z</time>
      </trkpt>
      <trkpt lat="48.62606" lon="-2.28526">
        <ele>24.6</ele>
        <time>2021-07-27T14:26:29Z</time>
      </trkpt>
      <trkpt lat="48.62603" lon="-2.2852">
        <ele>25.2</ele>
        <time>2021-07-27T14:26:30Z</time>
      </trkpt>
      <trkpt lat="48.62601" lon="-2.28515">
        <ele>25.7</ele>
        <time>2021-07-27T14:26:31Z</time>
      </trkpt>
      <trkpt lat="48.62597" lon="-2.28509">
        <ele>26.1</ele>
        <time>2021-07-27T14:26:33Z</time>
      </trkpt>
      <trkpt lat="48.62594" lon="-2.28505">
        <ele>26.5</ele>
        <time>2021-07-27T14:26:34Z</time>
      </trkpt>
      <trkpt lat="48.62592" lon="-2.285">
        <ele>26.9</ele>
        <time>2021-07-27T14:26:35Z</time>
      </trkpt>
      <trkpt lat="48.62591" lon="-2.28495">
        <ele>27.3</ele>
        <time>2021-07-27T14:26:37Z</time>
      </trkpt>
      <trkpt lat="48.62591" lon="-2.2849">
        <ele>28</ele>
        <time>2021-07-27T14:26:38Z</time>
      </trkpt>
      <trkpt lat="48.6259" lon="-2.28487">
        <ele>28</ele>
        <time>2021-07-27T14:26:39Z</time>
      </trkpt>
      <trkpt lat="48.62591" lon="-2.28481">
        <ele>28.5</ele>
        <time>2021-07-27T14:26:41Z</time>
      </trkpt>
      <trkpt lat="48.62591" lon="-2.28474">
        <ele>28.8</ele>
        <time>2021-07-27T14:26:43Z</time>
      </trkpt>
      <trkpt lat="48.62592" lon="-2.28469">
        <ele>29</ele>
        <time>2021-07-27T14:26:45Z</time>
      </trkpt>
      <trkpt lat="48.62593" lon="-2.28464">
        <ele>29.5</ele>
        <time>2021-07-27T14:26:46Z</time>
      </trkpt>
      <trkpt lat="48.62595" lon="-2.28458">
        <ele>29.8</ele>
        <time>2021-07-27T14:26:48Z</time>
      </trkpt>
      <trkpt lat="48.62596" lon="-2.28453">
        <ele>30.2</ele>
        <time>2021-07-27T14:26:49Z</time>
      </trkpt>
      <trkpt lat="48.62599" lon="-2.28446">
        <ele>30.9</ele>
        <time>2021-07-27T14:26:51Z</time>
      </trkpt>
      <trkpt lat="48.62602" lon="-2.28442">
        <ele>31.1</ele>
        <time>2021-07-27T14:26:52Z</time>
      </trkpt>
      <trkpt lat="48.62604" lon="-2.28438">
        <ele>31.7</ele>
        <time>2021-07-27T14:26:53Z</time>
      </trkpt>
      <trkpt lat="48.62605" lon="-2.28436">
        <ele>32</ele>
        <time>2021-07-27T14:26:54Z</time>
      </trkpt>
      <trkpt lat="48.62607" lon="-2.28431">
        <ele>32.6</ele>
        <time>2021-07-27T14:26:56Z</time>
      </trkpt>
      <trkpt lat="48.6261" lon="-2.28426">
        <ele>32.9</ele>
        <time>2021-07-27T14:26:57Z</time>
      </trkpt>
      <trkpt lat="48.62614" lon="-2.28419">
        <ele>34</ele>
        <time>2021-07-27T14:26:59Z</time>
      </trkpt>
      <trkpt lat="48.62616" lon="-2.28415">
        <ele>34.6</ele>
        <time>2021-07-27T14:27:00Z</time>
      </trkpt>
      <trkpt lat="48.62618" lon="-2.28409">
        <ele>34.7</ele>
        <time>2021-07-27T14:27:01Z</time>
      </trkpt>
      <trkpt lat="48.62619" lon="-2.28405">
        <ele>35.1</ele>
        <time>2021-07-27T14:27:03Z</time>
      </trkpt>
      <trkpt lat="48.62621" lon="-2.284">
        <ele>35</ele>
        <time>2021-07-27T14:27:04Z</time>
      </trkpt>
      <trkpt lat="48.62623" lon="-2.28396">
        <ele>35.3</ele>
        <time>2021-07-27T14:27:05Z</time>
      </trkpt>
      <trkpt lat="48.62624" lon="-2.2839">
        <ele>35</ele>
        <time>2021-07-27T14:27:06Z</time>
      </trkpt>
      <trkpt lat="48.62626" lon="-2.28386">
        <ele>35.2</ele>
        <time>2021-07-27T14:27:07Z</time>
      </trkpt>
      <trkpt lat="48.62628" lon="-2.28381">
        <ele>35.3</ele>
        <time>2021-07-27T14:27:08Z</time>
      </trkpt>
      <trkpt lat="48.62629" lon="-2.28376">
        <ele>35.2</ele>
        <time>2021-07-27T14:27:10Z</time>
      </trkpt>
      <trkpt lat="48.6263" lon="-2.2837">
        <ele>35.3</ele>
        <time>2021-07-27T14:27:11Z</time>
      </trkpt>
      <trkpt lat="48.62632" lon="-2.28364">
        <ele>35.2</ele>
        <time>2021-07-27T14:27:12Z</time>
      </trkpt>
      <trkpt lat="48.62634" lon="-2.28356">
        <ele>35.3</ele>
        <time>2021-07-27T14:27:14Z</time>
      </trkpt>
      <trkpt lat="48.62636" lon="-2.28351">
        <ele>35.5</ele>
        <time>2021-07-27T14:27:15Z</time>
      </trkpt>
      <trkpt lat="48.62638" lon="-2.28346">
        <ele>35.4</ele>
        <time>2021-07-27T14:27:16Z</time>
      </trkpt>
      <trkpt lat="48.6264" lon="-2.28339">
        <ele>35.4</ele>
        <time>2021-07-27T14:27:18Z</time>
      </trkpt>
      <trkpt lat="48.62643" lon="-2.28332">
        <ele>35.5</ele>
        <time>2021-07-27T14:27:19Z</time>
      </trkpt>
      <trkpt lat="48.62646" lon="-2.28327">
        <ele>35.5</ele>
        <time>2021-07-27T14:27:20Z</time>
      </trkpt>
      <trkpt lat="48.62648" lon="-2.2832">
        <ele>35.6</ele>
        <time>2021-07-27T14:27:22Z</time>
      </trkpt>
      <trkpt lat="48.62651" lon="-2.28315">
        <ele>35.7</ele>
        <time>2021-07-27T14:27:23Z</time>
      </trkpt>
      <trkpt lat="48.62654" lon="-2.28307">
        <ele>35.5</ele>
        <time>2021-07-27T14:27:24Z</time>
      </trkpt>
      <trkpt lat="48.62655" lon="-2.28301">
        <ele>35.2</ele>
        <time>2021-07-27T14:27:25Z</time>
      </trkpt>
      <trkpt lat="48.62657" lon="-2.28291">
        <ele>35.1</ele>
        <time>2021-07-27T14:27:27Z</time>
      </trkpt>
      <trkpt lat="48.62658" lon="-2.28284">
        <ele>35.2</ele>
        <time>2021-07-27T14:27:28Z</time>
      </trkpt>
      <trkpt lat="48.6266" lon="-2.28275">
        <ele>34.7</ele>
        <time>2021-07-27T14:27:30Z</time>
      </trkpt>
      <trkpt lat="48.6266" lon="-2.28269">
        <ele>34.5</ele>
        <time>2021-07-27T14:27:31Z</time>
      </trkpt>
      <trkpt lat="48.62661" lon="-2.28263">
        <ele>34.3</ele>
        <time>2021-07-27T14:27:32Z</time>
      </trkpt>
      <trkpt lat="48.62661" lon="-2.28257">
        <ele>34.4</ele>
        <time>2021-07-27T14:27:33Z</time>
      </trkpt>
      <trkpt lat="48.62662" lon="-2.2825">
        <ele>34.3</ele>
        <time>2021-07-27T14:27:34Z</time>
      </trkpt>
      <trkpt lat="48.62662" lon="-2.28243">
        <ele>34.1</ele>
        <time>2021-07-27T14:27:36Z</time>
      </trkpt>
      <trkpt lat="48.62661" lon="-2.28237">
        <ele>33.6</ele>
        <time>2021-07-27T14:27:37Z</time>
      </trkpt>
      <trkpt lat="48.6266" lon="-2.2823">
        <ele>33.5</ele>
        <time>2021-07-27T14:27:38Z</time>
      </trkpt>
      <trkpt lat="48.62659" lon="-2.28222">
        <ele>33.2</ele>
        <time>2021-07-27T14:27:40Z</time>
      </trkpt>
      <trkpt lat="48.62659" lon="-2.28218">
        <ele>33.1</ele>
        <time>2021-07-27T14:27:41Z</time>
      </trkpt>
      <trkpt lat="48.62658" lon="-2.28212">
        <ele>32.7</ele>
        <time>2021-07-27T14:27:42Z</time>
      </trkpt>
      <trkpt lat="48.62657" lon="-2.28206">
        <ele>32.6</ele>
        <time>2021-07-27T14:27:43Z</time>
      </trkpt>
      <trkpt lat="48.62657" lon="-2.282">
        <ele>32.5</ele>
        <time>2021-07-27T14:27:44Z</time>
      </trkpt>
      <trkpt lat="48.62656" lon="-2.28196">
        <ele>32.5</ele>
        <time>2021-07-27T14:27:45Z</time>
      </trkpt>
      <trkpt lat="48.62655" lon="-2.28189">
        <ele>32.3</ele>
        <time>2021-07-27T14:27:47Z</time>
      </trkpt>
      <trkpt lat="48.62653" lon="-2.28184">
        <ele>32.3</ele>
        <time>2021-07-27T14:27:48Z</time>
      </trkpt>
      <trkpt lat="48.62653" lon="-2.2818">
        <ele>32.2</ele>
        <time>2021-07-27T14:27:49Z</time>
      </trkpt>
      <trkpt lat="48.62652" lon="-2.28174">
        <ele>32.2</ele>
        <time>2021-07-27T14:27:51Z</time>
      </trkpt>
      <trkpt lat="48.62651" lon="-2.28169">
        <ele>32.1</ele>
        <time>2021-07-27T14:27:52Z</time>
      </trkpt>
      <trkpt lat="48.62651" lon="-2.28162">
        <ele>32</ele>
        <time>2021-07-27T14:27:54Z</time>
      </trkpt>
      <trkpt lat="48.62652" lon="-2.28157">
        <ele>32</ele>
        <time>2021-07-27T14:27:55Z</time>
      </trkpt>
      <trkpt lat="48.62652" lon="-2.28155">
        <ele>32</ele>
        <time>2021-07-27T14:27:56Z</time>
      </trkpt>
      <trkpt lat="48.62652" lon="-2.28148">
        <ele>32</ele>
        <time>2021-07-27T14:27:58Z</time>
      </trkpt>
      <trkpt lat="48.62652" lon="-2.28146">
        <ele>31.9</ele>
        <time>2021-07-27T14:27:59Z</time>
      </trkpt>
      <trkpt lat="48.62652" lon="-2.28144">
        <ele>31.9</ele>
        <time>2021-07-27T14:28:00Z</time>
      </trkpt>
      <trkpt lat="48.62653" lon="-2.28137">
        <ele>31.9</ele>
        <time>2021-07-27T14:28:02Z</time>
      </trkpt>
      <trkpt lat="48.62653" lon="-2.28135">
        <ele>31.9</ele>
        <time>2021-07-27T14:28:03Z</time>
      </trkpt>
      <trkpt lat="48.62653" lon="-2.28133">
        <ele>31.9</ele>
        <time>2021-07-27T14:28:04Z</time>
      </trkpt>
      <trkpt lat="48.6265" lon="-2.28132">
        <ele>31.8</ele>
        <time>2021-07-27T14:28:06Z</time>
      </trkpt>
      <trkpt lat="48.62649" lon="-2.28133">
        <ele>31.8</ele>
        <time>2021-07-27T14:28:07Z</time>
      </trkpt>
      <trkpt lat="48.62646" lon="-2.28133">
        <ele>31.8</ele>
        <time>2021-07-27T14:28:08Z</time>
      </trkpt>
      <trkpt lat="48.62642" lon="-2.28132">
        <ele>31.9</ele>
        <time>2021-07-27T14:28:09Z</time>
      </trkpt>
      <trkpt lat="48.62638" lon="-2.28129">
        <ele>32</ele>
        <time>2021-07-27T14:28:11Z</time>
      </trkpt>
      <trkpt lat="48.62635" lon="-2.28127">
        <ele>32.1</ele>
        <time>2021-07-27T14:28:12Z</time>
      </trkpt>
      <trkpt lat="48.62634" lon="-2.28126">
        <ele>32.1</ele>
        <time>2021-07-27T14:28:13Z</time>
      </trkpt>
      <trkpt lat="48.62631" lon="-2.28124">
        <ele>32.2</ele>
        <time>2021-07-27T14:28:14Z</time>
      </trkpt>
      <trkpt lat="48.62628" lon="-2.28121">
        <ele>32.2</ele>
        <time>2021-07-27T14:28:16Z</time>
      </trkpt>
      <trkpt lat="48.62625" lon="-2.28118">
        <ele>32.4</ele>
        <time>2021-07-27T14:28:17Z</time>
      </trkpt>
      <trkpt lat="48.62625" lon="-2.28117">
        <ele>32.4</ele>
        <time>2021-07-27T14:28:18Z</time>
      </trkpt>
      <trkpt lat="48.62622" lon="-2.28112">
        <ele>32.4</ele>
        <time>2021-07-27T14:28:20Z</time>
      </trkpt>
      <trkpt lat="48.6262" lon="-2.28109">
        <ele>32.5</ele>
        <time>2021-07-27T14:28:21Z</time>
      </trkpt>
      <trkpt lat="48.62618" lon="-2.28104">
        <ele>32.6</ele>
        <time>2021-07-27T14:28:23Z</time>
      </trkpt>
      <trkpt lat="48.62617" lon="-2.28099">
        <ele>32.5</ele>
        <time>2021-07-27T14:28:24Z</time>
      </trkpt>
      <trkpt lat="48.62617" lon="-2.28095">
        <ele>32.4</ele>
        <time>2021-07-27T14:28:25Z</time>
      </trkpt>
      <trkpt lat="48.62617" lon="-2.28089">
        <ele>32.3</ele>
        <time>2021-07-27T14:28:27Z</time>
      </trkpt>
      <trkpt lat="48.62617" lon="-2.28086">
        <ele>32.3</ele>
        <time>2021-07-27T14:28:28Z</time>
      </trkpt>
      <trkpt lat="48.62617" lon="-2.28083">
        <ele>32.3</ele>
        <time>2021-07-27T14:28:30Z</time>
      </trkpt>
      <trkpt lat="48.62617" lon="-2.28082">
        <ele>32.2</ele>
        <time>2021-07-27T14:28:31Z</time>
      </trkpt>
      <trkpt lat="48.62617" lon="-2.28081">
        <ele>32.2</ele>
        <time>2021-07-27T14:28:33Z</time>
      </trkpt>
      <trkpt lat="48.62617" lon="-2.2808">
        <ele>32.2</ele>
        <time>2021-07-27T14:28:35Z</time>
      </trkpt>
      <trkpt lat="48.62617" lon="-2.28078">
        <ele>32.2</ele>
        <time>2021-07-27T14:28:36Z</time>
      </trkpt>
      <trkpt lat="48.62616" lon="-2.28078">
        <ele>32.1</ele>
        <time>2021-07-27T14:28:37Z</time>
      </trkpt>
      <trkpt lat="48.62616" lon="-2.28077">
        <ele>32.1</ele>
        <time>2021-07-27T14:28:39Z</time>
      </trkpt>
      <trkpt lat="48.62615" lon="-2.28076">
        <ele>32.2</ele>
        <time>2021-07-27T14:28:40Z</time>
      </trkpt>
      <trkpt lat="48.62616" lon="-2.28074">
        <ele>32.2</ele>
        <time>2021-07-27T14:28:42Z</time>
      </trkpt>
      <trkpt lat="48.62615" lon="-2.28069">
        <ele>32.1</ele>
        <time>2021-07-27T14:28:43Z</time>
      </trkpt>
      <trkpt lat="48.62614" lon="-2.28066">
        <ele>32.1</ele>
        <time>2021-07-27T14:28:44Z</time>
      </trkpt>
      <trkpt lat="48.62613" lon="-2.2806">
        <ele>32</ele>
        <time>2021-07-27T14:28:46Z</time>
      </trkpt>
      <trkpt lat="48.62612" lon="-2.28054">
        <ele>32.1</ele>
        <time>2021-07-27T14:28:47Z</time>
      </trkpt>
      <trkpt lat="48.62611" lon="-2.28052">
        <ele>32</ele>
        <time>2021-07-27T14:28:48Z</time>
      </trkpt>
      <trkpt lat="48.6261" lon="-2.28048">
        <ele>32</ele>
        <time>2021-07-27T14:28:49Z</time>
      </trkpt>
      <trkpt lat="48.62609" lon="-2.2804">
        <ele>31.9</ele>
        <time>2021-07-27T14:28:51Z</time>
      </trkpt>
      <trkpt lat="48.62608" lon="-2.28034">
        <ele>31.8</ele>
        <time>2021-07-27T14:28:52Z</time>
      </trkpt>
      <trkpt lat="48.62607" lon="-2.28029">
        <ele>31.8</ele>
        <time>2021-07-27T14:28:54Z</time>
      </trkpt>
      <trkpt lat="48.62606" lon="-2.28024">
        <ele>31.7</ele>
        <time>2021-07-27T14:28:55Z</time>
      </trkpt>
      <trkpt lat="48.62605" lon="-2.28019">
        <ele>31.6</ele>
        <time>2021-07-27T14:28:56Z</time>
      </trkpt>
      <trkpt lat="48.62605" lon="-2.28015">
        <ele>31.6</ele>
        <time>2021-07-27T14:28:57Z</time>
      </trkpt>
      <trkpt lat="48.62604" lon="-2.28009">
        <ele>31.5</ele>
        <time>2021-07-27T14:28:59Z</time>
      </trkpt>
      <trkpt lat="48.62603" lon="-2.28002">
        <ele>31.4</ele>
        <time>2021-07-27T14:29:00Z</time>
      </trkpt>
      <trkpt lat="48.62602" lon="-2.27996">
        <ele>31.3</ele>
        <time>2021-07-27T14:29:02Z</time>
      </trkpt>
      <trkpt lat="48.62599" lon="-2.27987">
        <ele>31.3</ele>
        <time>2021-07-27T14:29:04Z</time>
      </trkpt>
      <trkpt lat="48.62598" lon="-2.27984">
        <ele>31.2</ele>
        <time>2021-07-27T14:29:05Z</time>
      </trkpt>
      <trkpt lat="48.62596" lon="-2.27979">
        <ele>31.2</ele>
        <time>2021-07-27T14:29:07Z</time>
      </trkpt>
      <trkpt lat="48.62594" lon="-2.27975">
        <ele>31.2</ele>
        <time>2021-07-27T14:29:08Z</time>
      </trkpt>
      <trkpt lat="48.62592" lon="-2.27972">
        <ele>31.2</ele>
        <time>2021-07-27T14:29:09Z</time>
      </trkpt>
      <trkpt lat="48.6259" lon="-2.27969">
        <ele>31.2</ele>
        <time>2021-07-27T14:29:10Z</time>
      </trkpt>
      <trkpt lat="48.62588" lon="-2.27965">
        <ele>31.2</ele>
        <time>2021-07-27T14:29:12Z</time>
      </trkpt>
      <trkpt lat="48.62585" lon="-2.2796">
        <ele>31.2</ele>
        <time>2021-07-27T14:29:13Z</time>
      </trkpt>
      <trkpt lat="48.62583" lon="-2.27955">
        <ele>31.2</ele>
        <time>2021-07-27T14:29:15Z</time>
      </trkpt>
      <trkpt lat="48.6258" lon="-2.27951">
        <ele>31.2</ele>
        <time>2021-07-27T14:29:16Z</time>
      </trkpt>
      <trkpt lat="48.62577" lon="-2.27947">
        <ele>31.2</ele>
        <time>2021-07-27T14:29:17Z</time>
      </trkpt>
      <trkpt lat="48.62574" lon="-2.27942">
        <ele>31.2</ele>
        <time>2021-07-27T14:29:19Z</time>
      </trkpt>
      <trkpt lat="48.6257" lon="-2.27933">
        <ele>31.3</ele>
        <time>2021-07-27T14:29:20Z</time>
      </trkpt>
      <trkpt lat="48.62567" lon="-2.27928">
        <ele>31.3</ele>
        <time>2021-07-27T14:29:21Z</time>
      </trkpt>
      <trkpt lat="48.62563" lon="-2.27922">
        <ele>31.4</ele>
        <time>2021-07-27T14:29:23Z</time>
      </trkpt>
      <trkpt lat="48.6256" lon="-2.27918">
        <ele>31.5</ele>
        <time>2021-07-27T14:29:24Z</time>
      </trkpt>
      <trkpt lat="48.62555" lon="-2.27911">
        <ele>31.5</ele>
        <time>2021-07-27T14:29:25Z</time>
      </trkpt>
      <trkpt lat="48.6255" lon="-2.27906">
        <ele>31.6</ele>
        <time>2021-07-27T14:29:27Z</time>
      </trkpt>
      <trkpt lat="48.62547" lon="-2.27903">
        <ele>31.6</ele>
        <time>2021-07-27T14:29:28Z</time>
      </trkpt>
      <trkpt lat="48.62541" lon="-2.27898">
        <ele>31.7</ele>
        <time>2021-07-27T14:29:30Z</time>
      </trkpt>
      <trkpt lat="48.62537" lon="-2.27894">
        <ele>31.8</ele>
        <time>2021-07-27T14:29:31Z</time>
      </trkpt>
      <trkpt lat="48.62534" lon="-2.2789">
        <ele>31.8</ele>
        <time>2021-07-27T14:29:32Z</time>
      </trkpt>
      <trkpt lat="48.62531" lon="-2.27887">
        <ele>31.9</ele>
        <time>2021-07-27T14:29:33Z</time>
      </trkpt>
      <trkpt lat="48.62528" lon="-2.27882">
        <ele>32</ele>
        <time>2021-07-27T14:29:34Z</time>
      </trkpt>
      <trkpt lat="48.62525" lon="-2.27878">
        <ele>32</ele>
        <time>2021-07-27T14:29:36Z</time>
      </trkpt>
      <trkpt lat="48.62522" lon="-2.27874">
        <ele>32.1</ele>
        <time>2021-07-27T14:29:37Z</time>
      </trkpt>
      <trkpt lat="48.62521" lon="-2.27873">
        <ele>32.1</ele>
        <time>2021-07-27T14:29:38Z</time>
      </trkpt>
      <trkpt lat="48.62518" lon="-2.2787">
        <ele>32.1</ele>
        <time>2021-07-27T14:29:39Z</time>
      </trkpt>
      <trkpt lat="48.62514" lon="-2.27866">
        <ele>32.1</ele>
        <time>2021-07-27T14:29:41Z</time>
      </trkpt>
      <trkpt lat="48.62511" lon="-2.27864">
        <ele>32.1</ele>
        <time>2021-07-27T14:29:42Z</time>
      </trkpt>
      <trkpt lat="48.62507" lon="-2.27861">
        <ele>32.2</ele>
        <time>2021-07-27T14:29:43Z</time>
      </trkpt>
      <trkpt lat="48.62502" lon="-2.27857">
        <ele>32.2</ele>
        <time>2021-07-27T14:29:45Z</time>
      </trkpt>
      <trkpt lat="48.62499" lon="-2.27855">
        <ele>32.2</ele>
        <time>2021-07-27T14:29:46Z</time>
      </trkpt>
      <trkpt lat="48.62495" lon="-2.27852">
        <ele>32.2</ele>
        <time>2021-07-27T14:29:47Z</time>
      </trkpt>
      <trkpt lat="48.62491" lon="-2.27849">
        <ele>32.2</ele>
        <time>2021-07-27T14:29:48Z</time>
      </trkpt>
      <trkpt lat="48.62488" lon="-2.27842">
        <ele>32.2</ele>
        <time>2021-07-27T14:29:50Z</time>
      </trkpt>
      <trkpt lat="48.62487" lon="-2.27839">
        <ele>32.2</ele>
        <time>2021-07-27T14:29:51Z</time>
      </trkpt>
      <trkpt lat="48.62485" lon="-2.27834">
        <ele>32.2</ele>
        <time>2021-07-27T14:29:53Z</time>
      </trkpt>
      <trkpt lat="48.62482" lon="-2.27828">
        <ele>32.2</ele>
        <time>2021-07-27T14:29:55Z</time>
      </trkpt>
      <trkpt lat="48.6248" lon="-2.27826">
        <ele>32.2</ele>
        <time>2021-07-27T14:29:56Z</time>
      </trkpt>
      <trkpt lat="48.62477" lon="-2.27823">
        <ele>32.3</ele>
        <time>2021-07-27T14:29:58Z</time>
      </trkpt>
      <trkpt lat="48.62475" lon="-2.2782">
        <ele>32.3</ele>
        <time>2021-07-27T14:29:59Z</time>
      </trkpt>
      <trkpt lat="48.62473" lon="-2.27817">
        <ele>32.3</ele>
        <time>2021-07-27T14:30:01Z</time>
      </trkpt>
      <trkpt lat="48.62469" lon="-2.27814">
        <ele>32.3</ele>
        <time>2021-07-27T14:30:02Z</time>
      </trkpt>
      <trkpt lat="48.62465" lon="-2.27813">
        <ele>32.3</ele>
        <time>2021-07-27T14:30:04Z</time>
      </trkpt>
      <trkpt lat="48.62461" lon="-2.27813">
        <ele>32.3</ele>
        <time>2021-07-27T14:30:05Z</time>
      </trkpt>
      <trkpt lat="48.6246" lon="-2.27813">
        <ele>32.3</ele>
        <time>2021-07-27T14:30:06Z</time>
      </trkpt>
      <trkpt lat="48.62456" lon="-2.27813">
        <ele>32.3</ele>
        <time>2021-07-27T14:30:07Z</time>
      </trkpt>
      <trkpt lat="48.62452" lon="-2.27812">
        <ele>32.3</ele>
        <time>2021-07-27T14:30:09Z</time>
      </trkpt>
      <trkpt lat="48.62447" lon="-2.2781">
        <ele>32.4</ele>
        <time>2021-07-27T14:30:10Z</time>
      </trkpt>
      <trkpt lat="48.62443" lon="-2.27808">
        <ele>32.4</ele>
        <time>2021-07-27T14:30:12Z</time>
      </trkpt>
      <trkpt lat="48.6244" lon="-2.27805">
        <ele>32.4</ele>
        <time>2021-07-27T14:30:13Z</time>
      </trkpt>
      <trkpt lat="48.62435" lon="-2.27802">
        <ele>32.4</ele>
        <time>2021-07-27T14:30:14Z</time>
      </trkpt>
      <trkpt lat="48.62431" lon="-2.278">
        <ele>32.4</ele>
        <time>2021-07-27T14:30:15Z</time>
      </trkpt>
      <trkpt lat="48.62427" lon="-2.27798">
        <ele>32.5</ele>
        <time>2021-07-27T14:30:16Z</time>
      </trkpt>
      <trkpt lat="48.6242" lon="-2.27796">
        <ele>32.5</ele>
        <time>2021-07-27T14:30:18Z</time>
      </trkpt>
      <trkpt lat="48.62415" lon="-2.27795">
        <ele>32.5</ele>
        <time>2021-07-27T14:30:20Z</time>
      </trkpt>
      <trkpt lat="48.62411" lon="-2.27796">
        <ele>32.4</ele>
        <time>2021-07-27T14:30:21Z</time>
      </trkpt>
      <trkpt lat="48.62405" lon="-2.27797">
        <ele>32.4</ele>
        <time>2021-07-27T14:30:22Z</time>
      </trkpt>
      <trkpt lat="48.62401" lon="-2.27797">
        <ele>32.4</ele>
        <time>2021-07-27T14:30:24Z</time>
      </trkpt>
      <trkpt lat="48.62397" lon="-2.27798">
        <ele>32.3</ele>
        <time>2021-07-27T14:30:25Z</time>
      </trkpt>
      <trkpt lat="48.62392" lon="-2.27801">
        <ele>32.2</ele>
        <time>2021-07-27T14:30:26Z</time>
      </trkpt>
      <trkpt lat="48.62382" lon="-2.27803">
        <ele>32.1</ele>
        <time>2021-07-27T14:30:28Z</time>
      </trkpt>
      <trkpt lat="48.62376" lon="-2.278">
        <ele>32</ele>
        <time>2021-07-27T14:30:29Z</time>
      </trkpt>
      <trkpt lat="48.62364" lon="-2.27806">
        <ele>31.6</ele>
        <time>2021-07-27T14:30:30Z</time>
      </trkpt>
      <trkpt lat="48.62358" lon="-2.2781">
        <ele>31.4</ele>
        <time>2021-07-27T14:30:31Z</time>
      </trkpt>
      <trkpt lat="48.62351" lon="-2.27813">
        <ele>31.2</ele>
        <time>2021-07-27T14:30:33Z</time>
      </trkpt>
      <trkpt lat="48.62348" lon="-2.27814">
        <ele>31.1</ele>
        <time>2021-07-27T14:30:34Z</time>
      </trkpt>
      <trkpt lat="48.62343" lon="-2.27816">
        <ele>30.9</ele>
        <time>2021-07-27T14:30:36Z</time>
      </trkpt>
      <trkpt lat="48.62339" lon="-2.2782">
        <ele>30.9</ele>
        <time>2021-07-27T14:30:37Z</time>
      </trkpt>
      <trkpt lat="48.62337" lon="-2.27824">
        <ele>30.7</ele>
        <time>2021-07-27T14:30:38Z</time>
      </trkpt>
      <trkpt lat="48.62333" lon="-2.27827">
        <ele>30.6</ele>
        <time>2021-07-27T14:30:40Z</time>
      </trkpt>
      <trkpt lat="48.62328" lon="-2.27828">
        <ele>30.5</ele>
        <time>2021-07-27T14:30:41Z</time>
      </trkpt>
      <trkpt lat="48.62325" lon="-2.27827">
        <ele>30.5</ele>
        <time>2021-07-27T14:30:42Z</time>
      </trkpt>
      <trkpt lat="48.6232" lon="-2.27826">
        <ele>30.4</ele>
        <time>2021-07-27T14:30:43Z</time>
      </trkpt>
      <trkpt lat="48.62316" lon="-2.27827">
        <ele>30.4</ele>
        <time>2021-07-27T14:30:44Z</time>
      </trkpt>
      <trkpt lat="48.62311" lon="-2.27827">
        <ele>30.4</ele>
        <time>2021-07-27T14:30:45Z</time>
      </trkpt>
      <trkpt lat="48.62307" lon="-2.27828">
        <ele>30.4</ele>
        <time>2021-07-27T14:30:47Z</time>
      </trkpt>
      <trkpt lat="48.62303" lon="-2.27828">
        <ele>30.3</ele>
        <time>2021-07-27T14:30:48Z</time>
      </trkpt>
      <trkpt lat="48.62299" lon="-2.27828">
        <ele>30.3</ele>
        <time>2021-07-27T14:30:49Z</time>
      </trkpt>
      <trkpt lat="48.62297" lon="-2.27831">
        <ele>30.3</ele>
        <time>2021-07-27T14:30:50Z</time>
      </trkpt>
      <trkpt lat="48.62294" lon="-2.27835">
        <ele>30.2</ele>
        <time>2021-07-27T14:30:51Z</time>
      </trkpt>
      <trkpt lat="48.62292" lon="-2.27838">
        <ele>30.2</ele>
        <time>2021-07-27T14:30:52Z</time>
      </trkpt>
      <trkpt lat="48.62289" lon="-2.27843">
        <ele>30.1</ele>
        <time>2021-07-27T14:30:53Z</time>
      </trkpt>
      <trkpt lat="48.62287" lon="-2.27845">
        <ele>30.1</ele>
        <time>2021-07-27T14:30:54Z</time>
      </trkpt>
      <trkpt lat="48.62284" lon="-2.27848">
        <ele>30.1</ele>
        <time>2021-07-27T14:30:56Z</time>
      </trkpt>
      <trkpt lat="48.62282" lon="-2.27849">
        <ele>30</ele>
        <time>2021-07-27T14:30:58Z</time>
      </trkpt>
      <trkpt lat="48.62282" lon="-2.2785">
        <ele>30</ele>
        <time>2021-07-27T14:30:59Z</time>
      </trkpt>
      <trkpt lat="48.6228" lon="-2.27851">
        <ele>30</ele>
        <time>2021-07-27T14:31:01Z</time>
      </trkpt>
      <trkpt lat="48.62279" lon="-2.27851">
        <ele>30</ele>
        <time>2021-07-27T14:31:03Z</time>
      </trkpt>
      <trkpt lat="48.62278" lon="-2.27852">
        <ele>30</ele>
        <time>2021-07-27T14:31:05Z</time>
      </trkpt>
      <trkpt lat="48.62276" lon="-2.27852">
        <ele>30</ele>
        <time>2021-07-27T14:31:20Z</time>
      </trkpt>
      <trkpt lat="48.62275" lon="-2.27853">
        <ele>30</ele>
        <time>2021-07-27T14:31:21Z</time>
      </trkpt>
      <trkpt lat="48.62274" lon="-2.27853">
        <ele>29.9</ele>
        <time>2021-07-27T14:31:22Z</time>
      </trkpt>
      <trkpt lat="48.62273" lon="-2.27854">
        <ele>29.9</ele>
        <time>2021-07-27T14:31:24Z</time>
      </trkpt>
      <trkpt lat="48.62272" lon="-2.27854">
        <ele>29.9</ele>
        <time>2021-07-27T14:31:25Z</time>
      </trkpt>
      <trkpt lat="48.62268" lon="-2.27855">
        <ele>29.9</ele>
        <time>2021-07-27T14:31:26Z</time>
      </trkpt>
      <trkpt lat="48.62263" lon="-2.27856">
        <ele>29.9</ele>
        <time>2021-07-27T14:31:28Z</time>
      </trkpt>
      <trkpt lat="48.62259" lon="-2.27857">
        <ele>29.9</ele>
        <time>2021-07-27T14:31:29Z</time>
      </trkpt>
      <trkpt lat="48.62255" lon="-2.27858">
        <ele>29.9</ele>
        <time>2021-07-27T14:31:30Z</time>
      </trkpt>
      <trkpt lat="48.62251" lon="-2.27859">
        <ele>29.8</ele>
        <time>2021-07-27T14:31:31Z</time>
      </trkpt>
      <trkpt lat="48.62247" lon="-2.27859">
        <ele>29.8</ele>
        <time>2021-07-27T14:31:32Z</time>
      </trkpt>
      <trkpt lat="48.62243" lon="-2.27859">
        <ele>29.8</ele>
        <time>2021-07-27T14:31:33Z</time>
      </trkpt>
      <trkpt lat="48.62239" lon="-2.27859">
        <ele>29.9</ele>
        <time>2021-07-27T14:31:34Z</time>
      </trkpt>
      <trkpt lat="48.62234" lon="-2.2786">
        <ele>29.9</ele>
        <time>2021-07-27T14:31:35Z</time>
      </trkpt>
      <trkpt lat="48.62228" lon="-2.27862">
        <ele>30</ele>
        <time>2021-07-27T14:31:37Z</time>
      </trkpt>
      <trkpt lat="48.62223" lon="-2.27868">
        <ele>29.9</ele>
        <time>2021-07-27T14:31:38Z</time>
      </trkpt>
      <trkpt lat="48.6222" lon="-2.27874">
        <ele>29.9</ele>
        <time>2021-07-27T14:31:39Z</time>
      </trkpt>
      <trkpt lat="48.62214" lon="-2.27881">
        <ele>29.8</ele>
        <time>2021-07-27T14:31:40Z</time>
      </trkpt>
      <trkpt lat="48.62209" lon="-2.27888">
        <ele>29.8</ele>
        <time>2021-07-27T14:31:41Z</time>
      </trkpt>
      <trkpt lat="48.622" lon="-2.27899">
        <ele>29.9</ele>
        <time>2021-07-27T14:31:43Z</time>
      </trkpt>
      <trkpt lat="48.62197" lon="-2.27905">
        <ele>29.9</ele>
        <time>2021-07-27T14:31:45Z</time>
      </trkpt>
      <trkpt lat="48.62194" lon="-2.27908">
        <ele>30</ele>
        <time>2021-07-27T14:31:46Z</time>
      </trkpt>
      <trkpt lat="48.62191" lon="-2.2791">
        <ele>30.1</ele>
        <time>2021-07-27T14:31:47Z</time>
      </trkpt>
      <trkpt lat="48.62188" lon="-2.27911">
        <ele>30.2</ele>
        <time>2021-07-27T14:31:48Z</time>
      </trkpt>
      <trkpt lat="48.62186" lon="-2.27913">
        <ele>30.3</ele>
        <time>2021-07-27T14:31:49Z</time>
      </trkpt>
      <trkpt lat="48.62182" lon="-2.27915">
        <ele>30.4</ele>
        <time>2021-07-27T14:31:51Z</time>
      </trkpt>
      <trkpt lat="48.62179" lon="-2.27916">
        <ele>30.5</ele>
        <time>2021-07-27T14:31:52Z</time>
      </trkpt>
      <trkpt lat="48.62173" lon="-2.27915">
        <ele>30.7</ele>
        <time>2021-07-27T14:31:54Z</time>
      </trkpt>
      <trkpt lat="48.62169" lon="-2.27915">
        <ele>30.8</ele>
        <time>2021-07-27T14:31:55Z</time>
      </trkpt>
      <trkpt lat="48.62163" lon="-2.27913">
        <ele>30.9</ele>
        <time>2021-07-27T14:31:57Z</time>
      </trkpt>
      <trkpt lat="48.62159" lon="-2.27912">
        <ele>31.1</ele>
        <time>2021-07-27T14:31:58Z</time>
      </trkpt>
      <trkpt lat="48.62155" lon="-2.27911">
        <ele>31.1</ele>
        <time>2021-07-27T14:31:59Z</time>
      </trkpt>
      <trkpt lat="48.62151" lon="-2.2791">
        <ele>31.1</ele>
        <time>2021-07-27T14:32:00Z</time>
      </trkpt>
      <trkpt lat="48.62143" lon="-2.27908">
        <ele>31.3</ele>
        <time>2021-07-27T14:32:02Z</time>
      </trkpt>
      <trkpt lat="48.62139" lon="-2.27906">
        <ele>31.5</ele>
        <time>2021-07-27T14:32:03Z</time>
      </trkpt>
      <trkpt lat="48.62133" lon="-2.27903">
        <ele>31.6</ele>
        <time>2021-07-27T14:32:05Z</time>
      </trkpt>
      <trkpt lat="48.62129" lon="-2.27902">
        <ele>31.6</ele>
        <time>2021-07-27T14:32:06Z</time>
      </trkpt>
      <trkpt lat="48.62124" lon="-2.27901">
        <ele>31.8</ele>
        <time>2021-07-27T14:32:07Z</time>
      </trkpt>
      <trkpt lat="48.62117" lon="-2.27898">
        <ele>31.9</ele>
        <time>2021-07-27T14:32:09Z</time>
      </trkpt>
      <trkpt lat="48.62112" lon="-2.27897">
        <ele>32.1</ele>
        <time>2021-07-27T14:32:10Z</time>
      </trkpt>
      <trkpt lat="48.62108" lon="-2.27895">
        <ele>32.3</ele>
        <time>2021-07-27T14:32:11Z</time>
      </trkpt>
      <trkpt lat="48.621" lon="-2.27892">
        <ele>32.4</ele>
        <time>2021-07-27T14:32:13Z</time>
      </trkpt>
      <trkpt lat="48.62095" lon="-2.2789">
        <ele>32.6</ele>
        <time>2021-07-27T14:32:14Z</time>
      </trkpt>
      <trkpt lat="48.62089" lon="-2.27889">
        <ele>32.8</ele>
        <time>2021-07-27T14:32:16Z</time>
      </trkpt>
      <trkpt lat="48.62083" lon="-2.27887">
        <ele>32.9</ele>
        <time>2021-07-27T14:32:17Z</time>
      </trkpt>
      <trkpt lat="48.62078" lon="-2.27885">
        <ele>33.1</ele>
        <time>2021-07-27T14:32:19Z</time>
      </trkpt>
      <trkpt lat="48.62074" lon="-2.27883">
        <ele>33.3</ele>
        <time>2021-07-27T14:32:20Z</time>
      </trkpt>
      <trkpt lat="48.6207" lon="-2.27881">
        <ele>33.3</ele>
        <time>2021-07-27T14:32:21Z</time>
      </trkpt>
      <trkpt lat="48.62065" lon="-2.27879">
        <ele>33.5</ele>
        <time>2021-07-27T14:32:22Z</time>
      </trkpt>
      <trkpt lat="48.62061" lon="-2.27878">
        <ele>33.5</ele>
        <time>2021-07-27T14:32:23Z</time>
      </trkpt>
      <trkpt lat="48.62056" lon="-2.27877">
        <ele>33.6</ele>
        <time>2021-07-27T14:32:25Z</time>
      </trkpt>
      <trkpt lat="48.6205" lon="-2.27875">
        <ele>33.8</ele>
        <time>2021-07-27T14:32:26Z</time>
      </trkpt>
      <trkpt lat="48.62046" lon="-2.27873">
        <ele>33.8</ele>
        <time>2021-07-27T14:32:27Z</time>
      </trkpt>
      <trkpt lat="48.62043" lon="-2.27873">
        <ele>33.9</ele>
        <time>2021-07-27T14:32:28Z</time>
      </trkpt>
      <trkpt lat="48.62039" lon="-2.27874">
        <ele>33.9</ele>
        <time>2021-07-27T14:32:29Z</time>
      </trkpt>
      <trkpt lat="48.62035" lon="-2.27876">
        <ele>33.9</ele>
        <time>2021-07-27T14:32:31Z</time>
      </trkpt>
      <trkpt lat="48.62032" lon="-2.27881">
        <ele>33.8</ele>
        <time>2021-07-27T14:32:32Z</time>
      </trkpt>
      <trkpt lat="48.62032" lon="-2.27886">
        <ele>33.7</ele>
        <time>2021-07-27T14:32:33Z</time>
      </trkpt>
      <trkpt lat="48.62032" lon="-2.27893">
        <ele>33.6</ele>
        <time>2021-07-27T14:32:35Z</time>
      </trkpt>
      <trkpt lat="48.62031" lon="-2.279">
        <ele>33.5</ele>
        <time>2021-07-27T14:32:36Z</time>
      </trkpt>
      <trkpt lat="48.62031" lon="-2.27909">
        <ele>33.4</ele>
        <time>2021-07-27T14:32:38Z</time>
      </trkpt>
      <trkpt lat="48.62031" lon="-2.27917">
        <ele>33.3</ele>
        <time>2021-07-27T14:32:39Z</time>
      </trkpt>
      <trkpt lat="48.6203" lon="-2.27933">
        <ele>33.1</ele>
        <time>2021-07-27T14:32:41Z</time>
      </trkpt>
      <trkpt lat="48.6203" lon="-2.27943">
        <ele>33</ele>
        <time>2021-07-27T14:32:42Z</time>
      </trkpt>
      <trkpt lat="48.62031" lon="-2.27963">
        <ele>33</ele>
        <time>2021-07-27T14:32:44Z</time>
      </trkpt>
      <trkpt lat="48.62035" lon="-2.2798">
        <ele>33</ele>
        <time>2021-07-27T14:32:46Z</time>
      </trkpt>
      <trkpt lat="48.6204" lon="-2.27996">
        <ele>33.2</ele>
        <time>2021-07-27T14:32:48Z</time>
      </trkpt>
      <trkpt lat="48.62044" lon="-2.2801">
        <ele>33.4</ele>
        <time>2021-07-27T14:32:50Z</time>
      </trkpt>
      <trkpt lat="48.62048" lon="-2.28023">
        <ele>33.7</ele>
        <time>2021-07-27T14:32:52Z</time>
      </trkpt>
      <trkpt lat="48.6205" lon="-2.28029">
        <ele>33.9</ele>
        <time>2021-07-27T14:32:53Z</time>
      </trkpt>
      <trkpt lat="48.62054" lon="-2.28042">
        <ele>34.2</ele>
        <time>2021-07-27T14:32:55Z</time>
      </trkpt>
      <trkpt lat="48.62057" lon="-2.28052">
        <ele>34.6</ele>
        <time>2021-07-27T14:32:57Z</time>
      </trkpt>
      <trkpt lat="48.6206" lon="-2.28059">
        <ele>34.8</ele>
        <time>2021-07-27T14:32:58Z</time>
      </trkpt>
      <trkpt lat="48.62065" lon="-2.2807">
        <ele>35.3</ele>
        <time>2021-07-27T14:33:00Z</time>
      </trkpt>
      <trkpt lat="48.62066" lon="-2.28074">
        <ele>35.5</ele>
        <time>2021-07-27T14:33:01Z</time>
      </trkpt>
      <trkpt lat="48.62071" lon="-2.28081">
        <ele>35.9</ele>
        <time>2021-07-27T14:33:03Z</time>
      </trkpt>
      <trkpt lat="48.6207" lon="-2.28091">
        <ele>36.3</ele>
        <time>2021-07-27T14:33:05Z</time>
      </trkpt>
      <trkpt lat="48.62069" lon="-2.28099">
        <ele>36.7</ele>
        <time>2021-07-27T14:33:06Z</time>
      </trkpt>
      <trkpt lat="48.62068" lon="-2.28107">
        <ele>37</ele>
        <time>2021-07-27T14:33:08Z</time>
      </trkpt>
      <trkpt lat="48.62068" lon="-2.28112">
        <ele>37.2</ele>
        <time>2021-07-27T14:33:09Z</time>
      </trkpt>
      <trkpt lat="48.62069" lon="-2.28122">
        <ele>37.4</ele>
        <time>2021-07-27T14:33:11Z</time>
      </trkpt>
      <trkpt lat="48.62071" lon="-2.28132">
        <ele>37.7</ele>
        <time>2021-07-27T14:33:13Z</time>
      </trkpt>
      <trkpt lat="48.62072" lon="-2.28144">
        <ele>37.9</ele>
        <time>2021-07-27T14:33:15Z</time>
      </trkpt>
      <trkpt lat="48.62074" lon="-2.28155">
        <ele>38.1</ele>
        <time>2021-07-27T14:33:17Z</time>
      </trkpt>
      <trkpt lat="48.62075" lon="-2.28161">
        <ele>38.3</ele>
        <time>2021-07-27T14:33:18Z</time>
      </trkpt>
      <trkpt lat="48.62077" lon="-2.28172">
        <ele>38.6</ele>
        <time>2021-07-27T14:33:20Z</time>
      </trkpt>
      <trkpt lat="48.6208" lon="-2.28185">
        <ele>38.9</ele>
        <time>2021-07-27T14:33:22Z</time>
      </trkpt>
      <trkpt lat="48.6208" lon="-2.28192">
        <ele>39.1</ele>
        <time>2021-07-27T14:33:23Z</time>
      </trkpt>
      <trkpt lat="48.6208" lon="-2.28198">
        <ele>39.3</ele>
        <time>2021-07-27T14:33:24Z</time>
      </trkpt>
      <trkpt lat="48.6208" lon="-2.28207">
        <ele>39.6</ele>
        <time>2021-07-27T14:33:26Z</time>
      </trkpt>
      <trkpt lat="48.62081" lon="-2.28216">
        <ele>40</ele>
        <time>2021-07-27T14:33:27Z</time>
      </trkpt>
      <trkpt lat="48.62081" lon="-2.28222">
        <ele>40.2</ele>
        <time>2021-07-27T14:33:28Z</time>
      </trkpt>
      <trkpt lat="48.62081" lon="-2.28234">
        <ele>40.7</ele>
        <time>2021-07-27T14:33:30Z</time>
      </trkpt>
      <trkpt lat="48.62082" lon="-2.2824">
        <ele>40.9</ele>
        <time>2021-07-27T14:33:31Z</time>
      </trkpt>
      <trkpt lat="48.62082" lon="-2.28251">
        <ele>41.4</ele>
        <time>2021-07-27T14:33:33Z</time>
      </trkpt>
      <trkpt lat="48.62083" lon="-2.28257">
        <ele>41.7</ele>
        <time>2021-07-27T14:33:34Z</time>
      </trkpt>
      <trkpt lat="48.62083" lon="-2.28263">
        <ele>42</ele>
        <time>2021-07-27T14:33:35Z</time>
      </trkpt>
      <trkpt lat="48.62084" lon="-2.2827">
        <ele>42.3</ele>
        <time>2021-07-27T14:33:37Z</time>
      </trkpt>
      <trkpt lat="48.62085" lon="-2.28279">
        <ele>42.7</ele>
        <time>2021-07-27T14:33:39Z</time>
      </trkpt>
      <trkpt lat="48.62086" lon="-2.28289">
        <ele>43.1</ele>
        <time>2021-07-27T14:33:40Z</time>
      </trkpt>
      <trkpt lat="48.62086" lon="-2.28293">
        <ele>43.4</ele>
        <time>2021-07-27T14:33:41Z</time>
      </trkpt>
      <trkpt lat="48.62087" lon="-2.28303">
        <ele>43.7</ele>
        <time>2021-07-27T14:33:43Z</time>
      </trkpt>
      <trkpt lat="48.62087" lon="-2.28312">
        <ele>44.1</ele>
        <time>2021-07-27T14:33:45Z</time>
      </trkpt>
      <trkpt lat="48.62087" lon="-2.28317">
        <ele>44.3</ele>
        <time>2021-07-27T14:33:46Z</time>
      </trkpt>
      <trkpt lat="48.62087" lon="-2.28322">
        <ele>44.5</ele>
        <time>2021-07-27T14:33:48Z</time>
      </trkpt>
      <trkpt lat="48.62087" lon="-2.28333">
        <ele>44.8</ele>
        <time>2021-07-27T14:33:50Z</time>
      </trkpt>
      <trkpt lat="48.62086" lon="-2.28343">
        <ele>45.1</ele>
        <time>2021-07-27T14:33:51Z</time>
      </trkpt>
      <trkpt lat="48.62086" lon="-2.28348">
        <ele>45.2</ele>
        <time>2021-07-27T14:33:52Z</time>
      </trkpt>
      <trkpt lat="48.62086" lon="-2.28354">
        <ele>45.4</ele>
        <time>2021-07-27T14:33:53Z</time>
      </trkpt>
      <trkpt lat="48.62085" lon="-2.2836">
        <ele>45.6</ele>
        <time>2021-07-27T14:33:55Z</time>
      </trkpt>
      <trkpt lat="48.62085" lon="-2.28368">
        <ele>45.8</ele>
        <time>2021-07-27T14:33:56Z</time>
      </trkpt>
      <trkpt lat="48.62084" lon="-2.28375">
        <ele>45.9</ele>
        <time>2021-07-27T14:33:57Z</time>
      </trkpt>
      <trkpt lat="48.62083" lon="-2.28385">
        <ele>46.2</ele>
        <time>2021-07-27T14:33:59Z</time>
      </trkpt>
      <trkpt lat="48.62082" lon="-2.28391">
        <ele>46.4</ele>
        <time>2021-07-27T14:34:00Z</time>
      </trkpt>
      <trkpt lat="48.62081" lon="-2.28396">
        <ele>46.5</ele>
        <time>2021-07-27T14:34:01Z</time>
      </trkpt>
      <trkpt lat="48.62081" lon="-2.28401">
        <ele>46.6</ele>
        <time>2021-07-27T14:34:02Z</time>
      </trkpt>
      <trkpt lat="48.6208" lon="-2.28406">
        <ele>46.8</ele>
        <time>2021-07-27T14:34:03Z</time>
      </trkpt>
      <trkpt lat="48.62079" lon="-2.28416">
        <ele>47.1</ele>
        <time>2021-07-27T14:34:05Z</time>
      </trkpt>
      <trkpt lat="48.62077" lon="-2.28425">
        <ele>47.3</ele>
        <time>2021-07-27T14:34:07Z</time>
      </trkpt>
      <trkpt lat="48.62075" lon="-2.28434">
        <ele>47.6</ele>
        <time>2021-07-27T14:34:09Z</time>
      </trkpt>
      <trkpt lat="48.62075" lon="-2.28439">
        <ele>47.8</ele>
        <time>2021-07-27T14:34:10Z</time>
      </trkpt>
      <trkpt lat="48.62074" lon="-2.28444">
        <ele>47.9</ele>
        <time>2021-07-27T14:34:11Z</time>
      </trkpt>
      <trkpt lat="48.62072" lon="-2.28453">
        <ele>48.1</ele>
        <time>2021-07-27T14:34:13Z</time>
      </trkpt>
      <trkpt lat="48.62071" lon="-2.2846">
        <ele>48.3</ele>
        <time>2021-07-27T14:34:14Z</time>
      </trkpt>
      <trkpt lat="48.6207" lon="-2.28471">
        <ele>48.6</ele>
        <time>2021-07-27T14:34:16Z</time>
      </trkpt>
      <trkpt lat="48.62068" lon="-2.28481">
        <ele>48.8</ele>
        <time>2021-07-27T14:34:18Z</time>
      </trkpt>
      <trkpt lat="48.62067" lon="-2.28487">
        <ele>49</ele>
        <time>2021-07-27T14:34:19Z</time>
      </trkpt>
      <trkpt lat="48.62065" lon="-2.28496">
        <ele>49.1</ele>
        <time>2021-07-27T14:34:21Z</time>
      </trkpt>
      <trkpt lat="48.62064" lon="-2.28502">
        <ele>49.2</ele>
        <time>2021-07-27T14:34:22Z</time>
      </trkpt>
      <trkpt lat="48.62062" lon="-2.28507">
        <ele>49.3</ele>
        <time>2021-07-27T14:34:23Z</time>
      </trkpt>
      <trkpt lat="48.6206" lon="-2.28511">
        <ele>49.3</ele>
        <time>2021-07-27T14:34:24Z</time>
      </trkpt>
      <trkpt lat="48.62056" lon="-2.2852">
        <ele>49.5</ele>
        <time>2021-07-27T14:34:26Z</time>
      </trkpt>
      <trkpt lat="48.62053" lon="-2.28525">
        <ele>49.6</ele>
        <time>2021-07-27T14:34:27Z</time>
      </trkpt>
      <trkpt lat="48.62051" lon="-2.28531">
        <ele>49.7</ele>
        <time>2021-07-27T14:34:28Z</time>
      </trkpt>
      <trkpt lat="48.62046" lon="-2.28541">
        <ele>49.9</ele>
        <time>2021-07-27T14:34:30Z</time>
      </trkpt>
      <trkpt lat="48.62044" lon="-2.28546">
        <ele>50</ele>
        <time>2021-07-27T14:34:31Z</time>
      </trkpt>
      <trkpt lat="48.62038" lon="-2.28555">
        <ele>50.1</ele>
        <time>2021-07-27T14:34:33Z</time>
      </trkpt>
      <trkpt lat="48.62036" lon="-2.28559">
        <ele>50.2</ele>
        <time>2021-07-27T14:34:34Z</time>
      </trkpt>
      <trkpt lat="48.6203" lon="-2.28567">
        <ele>50.3</ele>
        <time>2021-07-27T14:34:36Z</time>
      </trkpt>
      <trkpt lat="48.62026" lon="-2.2857">
        <ele>50.3</ele>
        <time>2021-07-27T14:34:37Z</time>
      </trkpt>
      <trkpt lat="48.62023" lon="-2.28573">
        <ele>50.3</ele>
        <time>2021-07-27T14:34:38Z</time>
      </trkpt>
      <trkpt lat="48.62019" lon="-2.28576">
        <ele>50.4</ele>
        <time>2021-07-27T14:34:39Z</time>
      </trkpt>
      <trkpt lat="48.62011" lon="-2.28579">
        <ele>50.4</ele>
        <time>2021-07-27T14:34:41Z</time>
      </trkpt>
      <trkpt lat="48.62006" lon="-2.28581">
        <ele>50.4</ele>
        <time>2021-07-27T14:34:42Z</time>
      </trkpt>
      <trkpt lat="48.61996" lon="-2.28583">
        <ele>50.4</ele>
        <time>2021-07-27T14:34:44Z</time>
      </trkpt>
      <trkpt lat="48.61987" lon="-2.28587">
        <ele>50.3</ele>
        <time>2021-07-27T14:34:46Z</time>
      </trkpt>
      <trkpt lat="48.61977" lon="-2.2859">
        <ele>50.3</ele>
        <time>2021-07-27T14:34:48Z</time>
      </trkpt>
      <trkpt lat="48.61968" lon="-2.28594">
        <ele>50.3</ele>
        <time>2021-07-27T14:34:50Z</time>
      </trkpt>
      <trkpt lat="48.61963" lon="-2.28597">
        <ele>50.3</ele>
        <time>2021-07-27T14:34:51Z</time>
      </trkpt>
      <trkpt lat="48.61958" lon="-2.28599">
        <ele>50.3</ele>
        <time>2021-07-27T14:34:52Z</time>
      </trkpt>
      <trkpt lat="48.61953" lon="-2.28602">
        <ele>50.3</ele>
        <time>2021-07-27T14:34:53Z</time>
      </trkpt>
      <trkpt lat="48.61944" lon="-2.28607">
        <ele>50.4</ele>
        <time>2021-07-27T14:34:55Z</time>
      </trkpt>
      <trkpt lat="48.61934" lon="-2.28615">
        <ele>50.4</ele>
        <time>2021-07-27T14:34:57Z</time>
      </trkpt>
      <trkpt lat="48.61925" lon="-2.28623">
        <ele>50.5</ele>
        <time>2021-07-27T14:34:59Z</time>
      </trkpt>
      <trkpt lat="48.61921" lon="-2.28626">
        <ele>50.6</ele>
        <time>2021-07-27T14:35:00Z</time>
      </trkpt>
      <trkpt lat="48.61916" lon="-2.2863">
        <ele>50.6</ele>
        <time>2021-07-27T14:35:01Z</time>
      </trkpt>
      <trkpt lat="48.61912" lon="-2.28634">
        <ele>50.7</ele>
        <time>2021-07-27T14:35:02Z</time>
      </trkpt>
      <trkpt lat="48.61903" lon="-2.28641">
        <ele>50.8</ele>
        <time>2021-07-27T14:35:04Z</time>
      </trkpt>
      <trkpt lat="48.61898" lon="-2.28644">
        <ele>50.9</ele>
        <time>2021-07-27T14:35:05Z</time>
      </trkpt>
      <trkpt lat="48.61894" lon="-2.28648">
        <ele>50.9</ele>
        <time>2021-07-27T14:35:06Z</time>
      </trkpt>
      <trkpt lat="48.61885" lon="-2.28655">
        <ele>51.1</ele>
        <time>2021-07-27T14:35:08Z</time>
      </trkpt>
      <trkpt lat="48.61881" lon="-2.28658">
        <ele>51.1</ele>
        <time>2021-07-27T14:35:09Z</time>
      </trkpt>
      <trkpt lat="48.61872" lon="-2.28664">
        <ele>51.2</ele>
        <time>2021-07-27T14:35:11Z</time>
      </trkpt>
      <trkpt lat="48.61867" lon="-2.28668">
        <ele>51.3</ele>
        <time>2021-07-27T14:35:12Z</time>
      </trkpt>
      <trkpt lat="48.61859" lon="-2.28674">
        <ele>51.4</ele>
        <time>2021-07-27T14:35:14Z</time>
      </trkpt>
      <trkpt lat="48.61854" lon="-2.28678">
        <ele>51.4</ele>
        <time>2021-07-27T14:35:15Z</time>
      </trkpt>
      <trkpt lat="48.61845" lon="-2.28686">
        <ele>51.3</ele>
        <time>2021-07-27T14:35:17Z</time>
      </trkpt>
      <trkpt lat="48.61841" lon="-2.2869">
        <ele>51.3</ele>
        <time>2021-07-27T14:35:18Z</time>
      </trkpt>
      <trkpt lat="48.61832" lon="-2.28701">
        <ele>51.1</ele>
        <time>2021-07-27T14:35:20Z</time>
      </trkpt>
      <trkpt lat="48.61824" lon="-2.28714">
        <ele>50.7</ele>
        <time>2021-07-27T14:35:22Z</time>
      </trkpt>
      <trkpt lat="48.61823" lon="-2.28722">
        <ele>50.6</ele>
        <time>2021-07-27T14:35:23Z</time>
      </trkpt>
      <trkpt lat="48.61823" lon="-2.28738">
        <ele>50.2</ele>
        <time>2021-07-27T14:35:25Z</time>
      </trkpt>
      <trkpt lat="48.61823" lon="-2.28746">
        <ele>50.1</ele>
        <time>2021-07-27T14:35:26Z</time>
      </trkpt>
      <trkpt lat="48.61824" lon="-2.2876">
        <ele>49.8</ele>
        <time>2021-07-27T14:35:28Z</time>
      </trkpt>
      <trkpt lat="48.61824" lon="-2.28773">
        <ele>49.5</ele>
        <time>2021-07-27T14:35:30Z</time>
      </trkpt>
      <trkpt lat="48.61824" lon="-2.28781">
        <ele>49.4</ele>
        <time>2021-07-27T14:35:31Z</time>
      </trkpt>
      <trkpt lat="48.61824" lon="-2.28785">
        <ele>49.3</ele>
        <time>2021-07-27T14:35:32Z</time>
      </trkpt>
      <trkpt lat="48.61825" lon="-2.288">
        <ele>49</ele>
        <time>2021-07-27T14:35:35Z</time>
      </trkpt>
      <trkpt lat="48.61826" lon="-2.28809">
        <ele>48.8</ele>
        <time>2021-07-27T14:35:36Z</time>
      </trkpt>
      <trkpt lat="48.61827" lon="-2.2882">
        <ele>48.6</ele>
        <time>2021-07-27T14:35:37Z</time>
      </trkpt>
      <trkpt lat="48.61827" lon="-2.28832">
        <ele>48.3</ele>
        <time>2021-07-27T14:35:39Z</time>
      </trkpt>
      <trkpt lat="48.61827" lon="-2.28845">
        <ele>48.1</ele>
        <time>2021-07-27T14:35:41Z</time>
      </trkpt>
      <trkpt lat="48.61828" lon="-2.28857">
        <ele>47.8</ele>
        <time>2021-07-27T14:35:43Z</time>
      </trkpt>
      <trkpt lat="48.61829" lon="-2.28867">
        <ele>47.6</ele>
        <time>2021-07-27T14:35:45Z</time>
      </trkpt>
      <trkpt lat="48.61829" lon="-2.28876">
        <ele>47.4</ele>
        <time>2021-07-27T14:35:46Z</time>
      </trkpt>
      <trkpt lat="48.61828" lon="-2.28883">
        <ele>47.3</ele>
        <time>2021-07-27T14:35:47Z</time>
      </trkpt>
      <trkpt lat="48.61827" lon="-2.2889">
        <ele>47.1</ele>
        <time>2021-07-27T14:35:48Z</time>
      </trkpt>
      <trkpt lat="48.61826" lon="-2.28898">
        <ele>47</ele>
        <time>2021-07-27T14:35:50Z</time>
      </trkpt>
      <trkpt lat="48.61827" lon="-2.28912">
        <ele>46.7</ele>
        <time>2021-07-27T14:35:51Z</time>
      </trkpt>
      <trkpt lat="48.61831" lon="-2.28919">
        <ele>46.5</ele>
        <time>2021-07-27T14:35:53Z</time>
      </trkpt>
      <trkpt lat="48.61833" lon="-2.28924">
        <ele>46.4</ele>
        <time>2021-07-27T14:35:55Z</time>
      </trkpt>
      <trkpt lat="48.61836" lon="-2.28928">
        <ele>46.2</ele>
        <time>2021-07-27T14:35:56Z</time>
      </trkpt>
      <trkpt lat="48.61843" lon="-2.28934">
        <ele>46</ele>
        <time>2021-07-27T14:35:58Z</time>
      </trkpt>
      <trkpt lat="48.61846" lon="-2.28936">
        <ele>45.9</ele>
        <time>2021-07-27T14:35:59Z</time>
      </trkpt>
      <trkpt lat="48.61849" lon="-2.28938">
        <ele>45.8</ele>
        <time>2021-07-27T14:36:00Z</time>
      </trkpt>
      <trkpt lat="48.61852" lon="-2.28942">
        <ele>45.7</ele>
        <time>2021-07-27T14:36:02Z</time>
      </trkpt>
      <trkpt lat="48.61854" lon="-2.28944">
        <ele>45.6</ele>
        <time>2021-07-27T14:36:03Z</time>
      </trkpt>
      <trkpt lat="48.61857" lon="-2.28946">
        <ele>45.5</ele>
        <time>2021-07-27T14:36:05Z</time>
      </trkpt>
      <trkpt lat="48.61862" lon="-2.28947">
        <ele>45.3</ele>
        <time>2021-07-27T14:36:07Z</time>
      </trkpt>
      <trkpt lat="48.61866" lon="-2.2895">
        <ele>45.2</ele>
        <time>2021-07-27T14:36:09Z</time>
      </trkpt>
      <trkpt lat="48.6187" lon="-2.28954">
        <ele>45.1</ele>
        <time>2021-07-27T14:36:11Z</time>
      </trkpt>
      <trkpt lat="48.61872" lon="-2.28956">
        <ele>45</ele>
        <time>2021-07-27T14:36:12Z</time>
      </trkpt>
      <trkpt lat="48.61876" lon="-2.28959">
        <ele>44.8</ele>
        <time>2021-07-27T14:36:14Z</time>
      </trkpt>
      <trkpt lat="48.61879" lon="-2.28961">
        <ele>44.7</ele>
        <time>2021-07-27T14:36:15Z</time>
      </trkpt>
      <trkpt lat="48.61881" lon="-2.28963">
        <ele>44.7</ele>
        <time>2021-07-27T14:36:16Z</time>
      </trkpt>
      <trkpt lat="48.61885" lon="-2.28968">
        <ele>44.5</ele>
        <time>2021-07-27T14:36:18Z</time>
      </trkpt>
      <trkpt lat="48.61888" lon="-2.28971">
        <ele>44.4</ele>
        <time>2021-07-27T14:36:19Z</time>
      </trkpt>
      <trkpt lat="48.61894" lon="-2.28975">
        <ele>44.2</ele>
        <time>2021-07-27T14:36:20Z</time>
      </trkpt>
      <trkpt lat="48.619" lon="-2.28979">
        <ele>44</ele>
        <time>2021-07-27T14:36:21Z</time>
      </trkpt>
      <trkpt lat="48.61907" lon="-2.28982">
        <ele>43.8</ele>
        <time>2021-07-27T14:36:23Z</time>
      </trkpt>
      <trkpt lat="48.61911" lon="-2.28981">
        <ele>43.6</ele>
        <time>2021-07-27T14:36:24Z</time>
      </trkpt>
      <trkpt lat="48.61917" lon="-2.28983">
        <ele>43.4</ele>
        <time>2021-07-27T14:36:26Z</time>
      </trkpt>
      <trkpt lat="48.61921" lon="-2.28986">
        <ele>43.3</ele>
        <time>2021-07-27T14:36:27Z</time>
      </trkpt>
      <trkpt lat="48.61921" lon="-2.28991">
        <ele>43.3</ele>
        <time>2021-07-27T14:36:28Z</time>
      </trkpt>
      <trkpt lat="48.61919" lon="-2.28996">
        <ele>43.4</ele>
        <time>2021-07-27T14:36:29Z</time>
      </trkpt>
      <trkpt lat="48.61917" lon="-2.28997">
        <ele>43.5</ele>
        <time>2021-07-27T14:36:30Z</time>
      </trkpt>
      <trkpt lat="48.61913" lon="-2.28995">
        <ele>43.6</ele>
        <time>2021-07-27T14:36:32Z</time>
      </trkpt>
      <trkpt lat="48.61911" lon="-2.2899">
        <ele>43.7</ele>
        <time>2021-07-27T14:36:33Z</time>
      </trkpt>
      <trkpt lat="48.6191" lon="-2.28984">
        <ele>43.8</ele>
        <time>2021-07-27T14:36:34Z</time>
      </trkpt>
      <trkpt lat="48.61908" lon="-2.28979">
        <ele>44</ele>
        <time>2021-07-27T14:36:36Z</time>
      </trkpt>
      <trkpt lat="48.61905" lon="-2.28977">
        <ele>44.1</ele>
        <time>2021-07-27T14:36:37Z</time>
      </trkpt>
      <trkpt lat="48.61902" lon="-2.28975">
        <ele>44.2</ele>
        <time>2021-07-27T14:36:39Z</time>
      </trkpt>
      <trkpt lat="48.61897" lon="-2.28972">
        <ele>44.3</ele>
        <time>2021-07-27T14:36:40Z</time>
      </trkpt>
      <trkpt lat="48.61893" lon="-2.28969">
        <ele>44.4</ele>
        <time>2021-07-27T14:36:41Z</time>
      </trkpt>
      <trkpt lat="48.6189" lon="-2.28967">
        <ele>44.5</ele>
        <time>2021-07-27T14:36:42Z</time>
      </trkpt>
      <trkpt lat="48.61888" lon="-2.28966">
        <ele>44.6</ele>
        <time>2021-07-27T14:36:43Z</time>
      </trkpt>
      <trkpt lat="48.61885" lon="-2.28964">
        <ele>44.7</ele>
        <time>2021-07-27T14:36:44Z</time>
      </trkpt>
      <trkpt lat="48.61879" lon="-2.28959">
        <ele>44.9</ele>
        <time>2021-07-27T14:36:46Z</time>
      </trkpt>
      <trkpt lat="48.61876" lon="-2.28956">
        <ele>45</ele>
        <time>2021-07-27T14:36:48Z</time>
      </trkpt>
      <trkpt lat="48.61872" lon="-2.28953">
        <ele>45.2</ele>
        <time>2021-07-27T14:36:49Z</time>
      </trkpt>
      <trkpt lat="48.61866" lon="-2.28949">
        <ele>45.4</ele>
        <time>2021-07-27T14:36:51Z</time>
      </trkpt>
      <trkpt lat="48.61863" lon="-2.28946">
        <ele>45.5</ele>
        <time>2021-07-27T14:36:52Z</time>
      </trkpt>
      <trkpt lat="48.61858" lon="-2.28943">
        <ele>45.6</ele>
        <time>2021-07-27T14:36:54Z</time>
      </trkpt>
      <trkpt lat="48.61855" lon="-2.2894">
        <ele>45.8</ele>
        <time>2021-07-27T14:36:55Z</time>
      </trkpt>
      <trkpt lat="48.61849" lon="-2.28936">
        <ele>46</ele>
        <time>2021-07-27T14:36:57Z</time>
      </trkpt>
      <trkpt lat="48.61844" lon="-2.28932">
        <ele>46.1</ele>
        <time>2021-07-27T14:36:59Z</time>
      </trkpt>
      <trkpt lat="48.61841" lon="-2.2893">
        <ele>46.2</ele>
        <time>2021-07-27T14:37:00Z</time>
      </trkpt>
      <trkpt lat="48.61835" lon="-2.28924">
        <ele>46.4</ele>
        <time>2021-07-27T14:37:02Z</time>
      </trkpt>
      <trkpt lat="48.61832" lon="-2.28922">
        <ele>46.5</ele>
        <time>2021-07-27T14:37:03Z</time>
      </trkpt>
      <trkpt lat="48.6183" lon="-2.28918">
        <ele>46.6</ele>
        <time>2021-07-27T14:37:04Z</time>
      </trkpt>
      <trkpt lat="48.61827" lon="-2.28914">
        <ele>46.7</ele>
        <time>2021-07-27T14:37:05Z</time>
      </trkpt>
      <trkpt lat="48.61824" lon="-2.28906">
        <ele>46.9</ele>
        <time>2021-07-27T14:37:07Z</time>
      </trkpt>
      <trkpt lat="48.61823" lon="-2.28894">
        <ele>47.2</ele>
        <time>2021-07-27T14:37:09Z</time>
      </trkpt>
      <trkpt lat="48.61825" lon="-2.28885">
        <ele>47.4</ele>
        <time>2021-07-27T14:37:10Z</time>
      </trkpt>
      <trkpt lat="48.61826" lon="-2.28878">
        <ele>47.5</ele>
        <time>2021-07-27T14:37:11Z</time>
      </trkpt>
      <trkpt lat="48.61828" lon="-2.28865">
        <ele>47.8</ele>
        <time>2021-07-27T14:37:13Z</time>
      </trkpt>
      <trkpt lat="48.61828" lon="-2.28854">
        <ele>48</ele>
        <time>2021-07-27T14:37:15Z</time>
      </trkpt>
      <trkpt lat="48.61827" lon="-2.28843">
        <ele>48.2</ele>
        <time>2021-07-27T14:37:16Z</time>
      </trkpt>
      <trkpt lat="48.61827" lon="-2.28835">
        <ele>48.4</ele>
        <time>2021-07-27T14:37:17Z</time>
      </trkpt>
      <trkpt lat="48.61827" lon="-2.28819">
        <ele>48.7</ele>
        <time>2021-07-27T14:37:19Z</time>
      </trkpt>
      <trkpt lat="48.61826" lon="-2.28812">
        <ele>48.8</ele>
        <time>2021-07-27T14:37:20Z</time>
      </trkpt>
      <trkpt lat="48.61825" lon="-2.28795">
        <ele>49.2</ele>
        <time>2021-07-27T14:37:22Z</time>
      </trkpt>
      <trkpt lat="48.61824" lon="-2.28778">
        <ele>49.5</ele>
        <time>2021-07-27T14:37:24Z</time>
      </trkpt>
      <trkpt lat="48.61825" lon="-2.28759">
        <ele>49.9</ele>
        <time>2021-07-27T14:37:26Z</time>
      </trkpt>
      <trkpt lat="48.61825" lon="-2.2875">
        <ele>50.1</ele>
        <time>2021-07-27T14:37:27Z</time>
      </trkpt>
      <trkpt lat="48.61824" lon="-2.2874">
        <ele>50.3</ele>
        <time>2021-07-27T14:37:28Z</time>
      </trkpt>
      <trkpt lat="48.61822" lon="-2.2873">
        <ele>50.5</ele>
        <time>2021-07-27T14:37:29Z</time>
      </trkpt>
      <trkpt lat="48.61821" lon="-2.28718">
        <ele>50.7</ele>
        <time>2021-07-27T14:37:31Z</time>
      </trkpt>
      <trkpt lat="48.61817" lon="-2.28715">
        <ele>50.8</ele>
        <time>2021-07-27T14:37:33Z</time>
      </trkpt>
      <trkpt lat="48.61806" lon="-2.28715">
        <ele>50.7</ele>
        <time>2021-07-27T14:37:34Z</time>
      </trkpt>
      <trkpt lat="48.61797" lon="-2.2872">
        <ele>50.7</ele>
        <time>2021-07-27T14:37:36Z</time>
      </trkpt>
      <trkpt lat="48.61787" lon="-2.28726">
        <ele>50.6</ele>
        <time>2021-07-27T14:37:38Z</time>
      </trkpt>
      <trkpt lat="48.61777" lon="-2.28729">
        <ele>50.5</ele>
        <time>2021-07-27T14:37:40Z</time>
      </trkpt>
      <trkpt lat="48.61771" lon="-2.28731">
        <ele>50.4</ele>
        <time>2021-07-27T14:37:41Z</time>
      </trkpt>
      <trkpt lat="48.61765" lon="-2.28733">
        <ele>50.4</ele>
        <time>2021-07-27T14:37:42Z</time>
      </trkpt>
      <trkpt lat="48.61754" lon="-2.28737">
        <ele>50.3</ele>
        <time>2021-07-27T14:37:44Z</time>
      </trkpt>
      <trkpt lat="48.61742" lon="-2.28741">
        <ele>50.2</ele>
        <time>2021-07-27T14:37:46Z</time>
      </trkpt>
      <trkpt lat="48.61736" lon="-2.28744">
        <ele>50.1</ele>
        <time>2021-07-27T14:37:47Z</time>
      </trkpt>
      <trkpt lat="48.6173" lon="-2.28747">
        <ele>50</ele>
        <time>2021-07-27T14:37:49Z</time>
      </trkpt>
      <trkpt lat="48.61725" lon="-2.2875">
        <ele>50</ele>
        <time>2021-07-27T14:37:50Z</time>
      </trkpt>
      <trkpt lat="48.61718" lon="-2.28753">
        <ele>49.9</ele>
        <time>2021-07-27T14:37:51Z</time>
      </trkpt>
      <trkpt lat="48.61707" lon="-2.28757">
        <ele>49.7</ele>
        <time>2021-07-27T14:37:52Z</time>
      </trkpt>
      <trkpt lat="48.61701" lon="-2.28759">
        <ele>49.6</ele>
        <time>2021-07-27T14:37:53Z</time>
      </trkpt>
      <trkpt lat="48.61695" lon="-2.28761">
        <ele>49.5</ele>
        <time>2021-07-27T14:37:54Z</time>
      </trkpt>
      <trkpt lat="48.61689" lon="-2.28763">
        <ele>49.3</ele>
        <time>2021-07-27T14:37:55Z</time>
      </trkpt>
      <trkpt lat="48.61683" lon="-2.28765">
        <ele>49.2</ele>
        <time>2021-07-27T14:37:56Z</time>
      </trkpt>
      <trkpt lat="48.6167" lon="-2.28769">
        <ele>48.9</ele>
        <time>2021-07-27T14:37:58Z</time>
      </trkpt>
      <trkpt lat="48.61659" lon="-2.28778">
        <ele>48.5</ele>
        <time>2021-07-27T14:38:00Z</time>
      </trkpt>
      <trkpt lat="48.61648" lon="-2.2879">
        <ele>48.2</ele>
        <time>2021-07-27T14:38:02Z</time>
      </trkpt>
      <trkpt lat="48.61638" lon="-2.28804">
        <ele>47.7</ele>
        <time>2021-07-27T14:38:04Z</time>
      </trkpt>
      <trkpt lat="48.61632" lon="-2.28822">
        <ele>47.1</ele>
        <time>2021-07-27T14:38:06Z</time>
      </trkpt>
      <trkpt lat="48.6163" lon="-2.28832">
        <ele>46.7</ele>
        <time>2021-07-27T14:38:07Z</time>
      </trkpt>
      <trkpt lat="48.61628" lon="-2.28842">
        <ele>46.4</ele>
        <time>2021-07-27T14:38:08Z</time>
      </trkpt>
      <trkpt lat="48.61624" lon="-2.28863">
        <ele>45.8</ele>
        <time>2021-07-27T14:38:10Z</time>
      </trkpt>
      <trkpt lat="48.6162" lon="-2.28885">
        <ele>45.3</ele>
        <time>2021-07-27T14:38:12Z</time>
      </trkpt>
      <trkpt lat="48.61617" lon="-2.28905">
        <ele>44.8</ele>
        <time>2021-07-27T14:38:14Z</time>
      </trkpt>
      <trkpt lat="48.61616" lon="-2.28915">
        <ele>44.6</ele>
        <time>2021-07-27T14:38:15Z</time>
      </trkpt>
      <trkpt lat="48.61613" lon="-2.28936">
        <ele>44.1</ele>
        <time>2021-07-27T14:38:17Z</time>
      </trkpt>
      <trkpt lat="48.6161" lon="-2.28956">
        <ele>43.4</ele>
        <time>2021-07-27T14:38:19Z</time>
      </trkpt>
      <trkpt lat="48.61609" lon="-2.28967">
        <ele>42.8</ele>
        <time>2021-07-27T14:38:20Z</time>
      </trkpt>
      <trkpt lat="48.61607" lon="-2.28979">
        <ele>42.2</ele>
        <time>2021-07-27T14:38:21Z</time>
      </trkpt>
      <trkpt lat="48.61603" lon="-2.29002">
        <ele>40.9</ele>
        <time>2021-07-27T14:38:23Z</time>
      </trkpt>
      <trkpt lat="48.61599" lon="-2.29028">
        <ele>39.3</ele>
        <time>2021-07-27T14:38:25Z</time>
      </trkpt>
      <trkpt lat="48.61597" lon="-2.29041">
        <ele>38.4</ele>
        <time>2021-07-27T14:38:26Z</time>
      </trkpt>
      <trkpt lat="48.61592" lon="-2.29069">
        <ele>36.3</ele>
        <time>2021-07-27T14:38:28Z</time>
      </trkpt>
      <trkpt lat="48.61587" lon="-2.29098">
        <ele>34.1</ele>
        <time>2021-07-27T14:38:30Z</time>
      </trkpt>
      <trkpt lat="48.61586" lon="-2.29114">
        <ele>32.9</ele>
        <time>2021-07-27T14:38:31Z</time>
      </trkpt>
      <trkpt lat="48.61586" lon="-2.2915">
        <ele>30.4</ele>
        <time>2021-07-27T14:38:33Z</time>
      </trkpt>
      <trkpt lat="48.61587" lon="-2.29168">
        <ele>29.1</ele>
        <time>2021-07-27T14:38:34Z</time>
      </trkpt>
      <trkpt lat="48.61589" lon="-2.29186">
        <ele>27.9</ele>
        <time>2021-07-27T14:38:35Z</time>
      </trkpt>
      <trkpt lat="48.61592" lon="-2.29222">
        <ele>25.8</ele>
        <time>2021-07-27T14:38:37Z</time>
      </trkpt>
      <trkpt lat="48.61591" lon="-2.29257">
        <ele>23.5</ele>
        <time>2021-07-27T14:38:39Z</time>
      </trkpt>
      <trkpt lat="48.61589" lon="-2.29274">
        <ele>22.5</ele>
        <time>2021-07-27T14:38:40Z</time>
      </trkpt>
      <trkpt lat="48.61584" lon="-2.29306">
        <ele>20.5</ele>
        <time>2021-07-27T14:38:42Z</time>
      </trkpt>
      <trkpt lat="48.61582" lon="-2.29321">
        <ele>19.7</ele>
        <time>2021-07-27T14:38:43Z</time>
      </trkpt>
      <trkpt lat="48.61578" lon="-2.29346">
        <ele>18.3</ele>
        <time>2021-07-27T14:38:45Z</time>
      </trkpt>
      <trkpt lat="48.61577" lon="-2.29367">
        <ele>17.4</ele>
        <time>2021-07-27T14:38:47Z</time>
      </trkpt>
      <trkpt lat="48.61579" lon="-2.29376">
        <ele>16.7</ele>
        <time>2021-07-27T14:38:48Z</time>
      </trkpt>
      <trkpt lat="48.6159" lon="-2.29385">
        <ele>15.6</ele>
        <time>2021-07-27T14:38:50Z</time>
      </trkpt>
      <trkpt lat="48.61598" lon="-2.29385">
        <ele>15</ele>
        <time>2021-07-27T14:38:51Z</time>
      </trkpt>
      <trkpt lat="48.61606" lon="-2.29385">
        <ele>14.5</ele>
        <time>2021-07-27T14:38:52Z</time>
      </trkpt>
      <trkpt lat="48.6162" lon="-2.29382">
        <ele>13.9</ele>
        <time>2021-07-27T14:38:54Z</time>
      </trkpt>
      <trkpt lat="48.61626" lon="-2.29381">
        <ele>13.7</ele>
        <time>2021-07-27T14:38:55Z</time>
      </trkpt>
      <trkpt lat="48.61636" lon="-2.29381">
        <ele>13.5</ele>
        <time>2021-07-27T14:38:57Z</time>
      </trkpt>
      <trkpt lat="48.61645" lon="-2.29382">
        <ele>13.4</ele>
        <time>2021-07-27T14:38:59Z</time>
      </trkpt>
      <trkpt lat="48.61656" lon="-2.29387">
        <ele>13.4</ele>
        <time>2021-07-27T14:39:01Z</time>
      </trkpt>
      <trkpt lat="48.61662" lon="-2.29397">
        <ele>13.4</ele>
        <time>2021-07-27T14:39:03Z</time>
      </trkpt>
      <trkpt lat="48.61668" lon="-2.29405">
        <ele>13.5</ele>
        <time>2021-07-27T14:39:04Z</time>
      </trkpt>
      <trkpt lat="48.61671" lon="-2.29404">
        <ele>13.6</ele>
        <time>2021-07-27T14:39:06Z</time>
      </trkpt>
      <trkpt lat="48.61673" lon="-2.29409">
        <ele>13.7</ele>
        <time>2021-07-27T14:39:07Z</time>
      </trkpt>
      <trkpt lat="48.61676" lon="-2.29418">
        <ele>13.9</ele>
        <time>2021-07-27T14:39:08Z</time>
      </trkpt>
      <trkpt lat="48.61676" lon="-2.29426">
        <ele>14.2</ele>
        <time>2021-07-27T14:39:09Z</time>
      </trkpt>
      <trkpt lat="48.61675" lon="-2.29434">
        <ele>14.4</ele>
        <time>2021-07-27T14:39:10Z</time>
      </trkpt>
      <trkpt lat="48.61674" lon="-2.2944">
        <ele>14.8</ele>
        <time>2021-07-27T14:39:12Z</time>
      </trkpt>
      <trkpt lat="48.61669" lon="-2.29448">
        <ele>15.4</ele>
        <time>2021-07-27T14:39:13Z</time>
      </trkpt>
      <trkpt lat="48.61666" lon="-2.29451">
        <ele>15.8</ele>
        <time>2021-07-27T14:39:14Z</time>
      </trkpt>
      <trkpt lat="48.61664" lon="-2.29452">
        <ele>16.2</ele>
        <time>2021-07-27T14:39:15Z</time>
      </trkpt>
      <trkpt lat="48.61659" lon="-2.29453">
        <ele>16.8</ele>
        <time>2021-07-27T14:39:17Z</time>
      </trkpt>
      <trkpt lat="48.61657" lon="-2.29453">
        <ele>17.1</ele>
        <time>2021-07-27T14:39:18Z</time>
      </trkpt>
      <trkpt lat="48.61652" lon="-2.29452">
        <ele>17.9</ele>
        <time>2021-07-27T14:39:20Z</time>
      </trkpt>
      <trkpt lat="48.6165" lon="-2.29452">
        <ele>18.2</ele>
        <time>2021-07-27T14:39:21Z</time>
      </trkpt>
      <trkpt lat="48.61645" lon="-2.29452">
        <ele>18.9</ele>
        <time>2021-07-27T14:39:23Z</time>
      </trkpt>
      <trkpt lat="48.6164" lon="-2.29453">
        <ele>19.9</ele>
        <time>2021-07-27T14:39:25Z</time>
      </trkpt>
      <trkpt lat="48.61638" lon="-2.29454">
        <ele>20.2</ele>
        <time>2021-07-27T14:39:26Z</time>
      </trkpt>
      <trkpt lat="48.61636" lon="-2.29455">
        <ele>20.6</ele>
        <time>2021-07-27T14:39:28Z</time>
      </trkpt>
      <trkpt lat="48.61632" lon="-2.29455">
        <ele>21.3</ele>
        <time>2021-07-27T14:39:29Z</time>
      </trkpt>
      <trkpt lat="48.61628" lon="-2.29455">
        <ele>22</ele>
        <time>2021-07-27T14:39:30Z</time>
      </trkpt>
      <trkpt lat="48.61624" lon="-2.29456">
        <ele>22.6</ele>
        <time>2021-07-27T14:39:33Z</time>
      </trkpt>
      <trkpt lat="48.61619" lon="-2.29457">
        <ele>23.3</ele>
        <time>2021-07-27T14:39:35Z</time>
      </trkpt>
      <trkpt lat="48.61615" lon="-2.29458">
        <ele>23.8</ele>
        <time>2021-07-27T14:39:36Z</time>
      </trkpt>
      <trkpt lat="48.61612" lon="-2.29459">
        <ele>24.3</ele>
        <time>2021-07-27T14:39:37Z</time>
      </trkpt>
      <trkpt lat="48.61611" lon="-2.29459">
        <ele>24.5</ele>
        <time>2021-07-27T14:39:38Z</time>
      </trkpt>
      <trkpt lat="48.61606" lon="-2.29462">
        <ele>25.1</ele>
        <time>2021-07-27T14:39:40Z</time>
      </trkpt>
      <trkpt lat="48.61603" lon="-2.29464">
        <ele>25.6</ele>
        <time>2021-07-27T14:39:42Z</time>
      </trkpt>
      <trkpt lat="48.61601" lon="-2.29466">
        <ele>25.9</ele>
        <time>2021-07-27T14:39:43Z</time>
      </trkpt>
      <trkpt lat="48.61598" lon="-2.29469">
        <ele>26.3</ele>
        <time>2021-07-27T14:39:45Z</time>
      </trkpt>
      <trkpt lat="48.61593" lon="-2.29472">
        <ele>26.9</ele>
        <time>2021-07-27T14:39:47Z</time>
      </trkpt>
      <trkpt lat="48.61591" lon="-2.29474">
        <ele>27.2</ele>
        <time>2021-07-27T14:39:48Z</time>
      </trkpt>
      <trkpt lat="48.61586" lon="-2.29477">
        <ele>27.8</ele>
        <time>2021-07-27T14:39:50Z</time>
      </trkpt>
      <trkpt lat="48.61583" lon="-2.2948">
        <ele>28.2</ele>
        <time>2021-07-27T14:39:51Z</time>
      </trkpt>
      <trkpt lat="48.61579" lon="-2.29485">
        <ele>28.7</ele>
        <time>2021-07-27T14:39:53Z</time>
      </trkpt>
      <trkpt lat="48.61575" lon="-2.29492">
        <ele>29.3</ele>
        <time>2021-07-27T14:39:55Z</time>
      </trkpt>
      <trkpt lat="48.61573" lon="-2.29497">
        <ele>29.7</ele>
        <time>2021-07-27T14:39:56Z</time>
      </trkpt>
      <trkpt lat="48.61572" lon="-2.29499">
        <ele>29.8</ele>
        <time>2021-07-27T14:39:57Z</time>
      </trkpt>
      <trkpt lat="48.61571" lon="-2.29502">
        <ele>30</ele>
        <time>2021-07-27T14:39:58Z</time>
      </trkpt>
      <trkpt lat="48.61569" lon="-2.29509">
        <ele>30.4</ele>
        <time>2021-07-27T14:40:00Z</time>
      </trkpt>
      <trkpt lat="48.61569" lon="-2.29514">
        <ele>30.6</ele>
        <time>2021-07-27T14:40:01Z</time>
      </trkpt>
      <trkpt lat="48.61569" lon="-2.29519">
        <ele>30.8</ele>
        <time>2021-07-27T14:40:02Z</time>
      </trkpt>
      <trkpt lat="48.6157" lon="-2.29527">
        <ele>31.2</ele>
        <time>2021-07-27T14:40:04Z</time>
      </trkpt>
      <trkpt lat="48.6157" lon="-2.29536">
        <ele>31.7</ele>
        <time>2021-07-27T14:40:06Z</time>
      </trkpt>
      <trkpt lat="48.61569" lon="-2.2954">
        <ele>31.9</ele>
        <time>2021-07-27T14:40:07Z</time>
      </trkpt>
      <trkpt lat="48.61569" lon="-2.29549">
        <ele>32.3</ele>
        <time>2021-07-27T14:40:09Z</time>
      </trkpt>
      <trkpt lat="48.61569" lon="-2.29554">
        <ele>32.5</ele>
        <time>2021-07-27T14:40:10Z</time>
      </trkpt>
      <trkpt lat="48.61568" lon="-2.29562">
        <ele>32.8</ele>
        <time>2021-07-27T14:40:12Z</time>
      </trkpt>
      <trkpt lat="48.61568" lon="-2.29567">
        <ele>33.1</ele>
        <time>2021-07-27T14:40:13Z</time>
      </trkpt>
      <trkpt lat="48.61568" lon="-2.2957">
        <ele>33.3</ele>
        <time>2021-07-27T14:40:14Z</time>
      </trkpt>
      <trkpt lat="48.61567" lon="-2.29579">
        <ele>33.7</ele>
        <time>2021-07-27T14:40:16Z</time>
      </trkpt>
      <trkpt lat="48.61567" lon="-2.29583">
        <ele>33.9</ele>
        <time>2021-07-27T14:40:17Z</time>
      </trkpt>
      <trkpt lat="48.61567" lon="-2.29589">
        <ele>34.3</ele>
        <time>2021-07-27T14:40:19Z</time>
      </trkpt>
      <trkpt lat="48.61568" lon="-2.29595">
        <ele>34.6</ele>
        <time>2021-07-27T14:40:20Z</time>
      </trkpt>
      <trkpt lat="48.61568" lon="-2.29597">
        <ele>34.8</ele>
        <time>2021-07-27T14:40:21Z</time>
      </trkpt>
      <trkpt lat="48.61569" lon="-2.29606">
        <ele>35.2</ele>
        <time>2021-07-27T14:40:23Z</time>
      </trkpt>
      <trkpt lat="48.6157" lon="-2.29611">
        <ele>35.6</ele>
        <time>2021-07-27T14:40:24Z</time>
      </trkpt>
      <trkpt lat="48.6157" lon="-2.29613">
        <ele>35.7</ele>
        <time>2021-07-27T14:40:25Z</time>
      </trkpt>
      <trkpt lat="48.6157" lon="-2.29621">
        <ele>36.1</ele>
        <time>2021-07-27T14:40:27Z</time>
      </trkpt>
      <trkpt lat="48.6157" lon="-2.29625">
        <ele>36.4</ele>
        <time>2021-07-27T14:40:28Z</time>
      </trkpt>
      <trkpt lat="48.6157" lon="-2.29632">
        <ele>36.8</ele>
        <time>2021-07-27T14:40:30Z</time>
      </trkpt>
      <trkpt lat="48.61571" lon="-2.29636">
        <ele>37</ele>
        <time>2021-07-27T14:40:31Z</time>
      </trkpt>
      <trkpt lat="48.61571" lon="-2.2964">
        <ele>37.2</ele>
        <time>2021-07-27T14:40:32Z</time>
      </trkpt>
      <trkpt lat="48.61571" lon="-2.29648">
        <ele>37.6</ele>
        <time>2021-07-27T14:40:34Z</time>
      </trkpt>
      <trkpt lat="48.61571" lon="-2.29655">
        <ele>38</ele>
        <time>2021-07-27T14:40:36Z</time>
      </trkpt>
      <trkpt lat="48.61572" lon="-2.29658">
        <ele>38.1</ele>
        <time>2021-07-27T14:40:37Z</time>
      </trkpt>
      <trkpt lat="48.61571" lon="-2.29666">
        <ele>38.5</ele>
        <time>2021-07-27T14:40:39Z</time>
      </trkpt>
      <trkpt lat="48.61571" lon="-2.29669">
        <ele>38.6</ele>
        <time>2021-07-27T14:40:40Z</time>
      </trkpt>
      <trkpt lat="48.6157" lon="-2.29675">
        <ele>38.9</ele>
        <time>2021-07-27T14:40:42Z</time>
      </trkpt>
      <trkpt lat="48.61569" lon="-2.29679">
        <ele>39.3</ele>
        <time>2021-07-27T14:40:44Z</time>
      </trkpt>
      <trkpt lat="48.61568" lon="-2.29683">
        <ele>39.4</ele>
        <time>2021-07-27T14:40:45Z</time>
      </trkpt>
      <trkpt lat="48.61568" lon="-2.29687">
        <ele>39.5</ele>
        <time>2021-07-27T14:40:46Z</time>
      </trkpt>
      <trkpt lat="48.6157" lon="-2.29691">
        <ele>39.7</ele>
        <time>2021-07-27T14:40:48Z</time>
      </trkpt>
      <trkpt lat="48.61572" lon="-2.29698">
        <ele>39.9</ele>
        <time>2021-07-27T14:40:50Z</time>
      </trkpt>
      <trkpt lat="48.61572" lon="-2.297">
        <ele>40</ele>
        <time>2021-07-27T14:40:51Z</time>
      </trkpt>
      <trkpt lat="48.61573" lon="-2.29703">
        <ele>40.1</ele>
        <time>2021-07-27T14:40:52Z</time>
      </trkpt>
      <trkpt lat="48.61574" lon="-2.29708">
        <ele>40.3</ele>
        <time>2021-07-27T14:40:53Z</time>
      </trkpt>
      <trkpt lat="48.61575" lon="-2.29709">
        <ele>40.4</ele>
        <time>2021-07-27T14:40:54Z</time>
      </trkpt>
      <trkpt lat="48.61575" lon="-2.29712">
        <ele>40.5</ele>
        <time>2021-07-27T14:40:55Z</time>
      </trkpt>
      <trkpt lat="48.61575" lon="-2.29717">
        <ele>40.6</ele>
        <time>2021-07-27T14:40:57Z</time>
      </trkpt>
      <trkpt lat="48.61576" lon="-2.2972">
        <ele>40.7</ele>
        <time>2021-07-27T14:40:58Z</time>
      </trkpt>
      <trkpt lat="48.61576" lon="-2.29725">
        <ele>40.9</ele>
        <time>2021-07-27T14:41:00Z</time>
      </trkpt>
      <trkpt lat="48.61577" lon="-2.29729">
        <ele>41</ele>
        <time>2021-07-27T14:41:01Z</time>
      </trkpt>
      <trkpt lat="48.61578" lon="-2.29733">
        <ele>41.2</ele>
        <time>2021-07-27T14:41:02Z</time>
      </trkpt>
      <trkpt lat="48.61578" lon="-2.29739">
        <ele>41.3</ele>
        <time>2021-07-27T14:41:03Z</time>
      </trkpt>
      <trkpt lat="48.61579" lon="-2.2974">
        <ele>41.4</ele>
        <time>2021-07-27T14:41:04Z</time>
      </trkpt>
      <trkpt lat="48.61579" lon="-2.29748">
        <ele>41.6</ele>
        <time>2021-07-27T14:41:06Z</time>
      </trkpt>
      <trkpt lat="48.61579" lon="-2.29754">
        <ele>41.8</ele>
        <time>2021-07-27T14:41:07Z</time>
      </trkpt>
      <trkpt lat="48.6158" lon="-2.29759">
        <ele>42</ele>
        <time>2021-07-27T14:41:08Z</time>
      </trkpt>
      <trkpt lat="48.6158" lon="-2.29764">
        <ele>42.2</ele>
        <time>2021-07-27T14:41:10Z</time>
      </trkpt>
      <trkpt lat="48.61581" lon="-2.29769">
        <ele>42.4</ele>
        <time>2021-07-27T14:41:11Z</time>
      </trkpt>
      <trkpt lat="48.6158" lon="-2.29773">
        <ele>42.6</ele>
        <time>2021-07-27T14:41:12Z</time>
      </trkpt>
      <trkpt lat="48.6158" lon="-2.29779">
        <ele>42.8</ele>
        <time>2021-07-27T14:41:13Z</time>
      </trkpt>
      <trkpt lat="48.6158" lon="-2.29781">
        <ele>42.8</ele>
        <time>2021-07-27T14:41:14Z</time>
      </trkpt>
      <trkpt lat="48.61581" lon="-2.29786">
        <ele>43</ele>
        <time>2021-07-27T14:41:16Z</time>
      </trkpt>
      <trkpt lat="48.61583" lon="-2.2979">
        <ele>43.1</ele>
        <time>2021-07-27T14:41:17Z</time>
      </trkpt>
      <trkpt lat="48.61584" lon="-2.29795">
        <ele>43.3</ele>
        <time>2021-07-27T14:41:18Z</time>
      </trkpt>
      <trkpt lat="48.61586" lon="-2.29804">
        <ele>43.5</ele>
        <time>2021-07-27T14:41:20Z</time>
      </trkpt>
      <trkpt lat="48.61587" lon="-2.29811">
        <ele>43.6</ele>
        <time>2021-07-27T14:41:21Z</time>
      </trkpt>
      <trkpt lat="48.61588" lon="-2.29817">
        <ele>43.8</ele>
        <time>2021-07-27T14:41:23Z</time>
      </trkpt>
      <trkpt lat="48.61589" lon="-2.29825">
        <ele>44</ele>
        <time>2021-07-27T14:41:25Z</time>
      </trkpt>
      <trkpt lat="48.6159" lon="-2.29831">
        <ele>44.2</ele>
        <time>2021-07-27T14:41:26Z</time>
      </trkpt>
      <trkpt lat="48.61591" lon="-2.29836">
        <ele>44.4</ele>
        <time>2021-07-27T14:41:27Z</time>
      </trkpt>
      <trkpt lat="48.61592" lon="-2.29844">
        <ele>44.6</ele>
        <time>2021-07-27T14:41:29Z</time>
      </trkpt>
      <trkpt lat="48.61593" lon="-2.29847">
        <ele>44.7</ele>
        <time>2021-07-27T14:41:30Z</time>
      </trkpt>
      <trkpt lat="48.61593" lon="-2.2985">
        <ele>44.8</ele>
        <time>2021-07-27T14:41:31Z</time>
      </trkpt>
      <trkpt lat="48.61594" lon="-2.29854">
        <ele>44.9</ele>
        <time>2021-07-27T14:41:33Z</time>
      </trkpt>
      <trkpt lat="48.61595" lon="-2.29858">
        <ele>45.1</ele>
        <time>2021-07-27T14:41:34Z</time>
      </trkpt>
      <trkpt lat="48.61595" lon="-2.29862">
        <ele>45.2</ele>
        <time>2021-07-27T14:41:35Z</time>
      </trkpt>
      <trkpt lat="48.61597" lon="-2.29867">
        <ele>45.4</ele>
        <time>2021-07-27T14:41:37Z</time>
      </trkpt>
      <trkpt lat="48.61597" lon="-2.29872">
        <ele>45.6</ele>
        <time>2021-07-27T14:41:38Z</time>
      </trkpt>
      <trkpt lat="48.61598" lon="-2.29879">
        <ele>45.8</ele>
        <time>2021-07-27T14:41:40Z</time>
      </trkpt>
      <trkpt lat="48.61599" lon="-2.29883">
        <ele>46</ele>
        <time>2021-07-27T14:41:41Z</time>
      </trkpt>
      <trkpt lat="48.61599" lon="-2.29888">
        <ele>46.2</ele>
        <time>2021-07-27T14:41:42Z</time>
      </trkpt>
      <trkpt lat="48.61601" lon="-2.29896">
        <ele>46.5</ele>
        <time>2021-07-27T14:41:44Z</time>
      </trkpt>
      <trkpt lat="48.61601" lon="-2.29901">
        <ele>46.6</ele>
        <time>2021-07-27T14:41:45Z</time>
      </trkpt>
      <trkpt lat="48.61603" lon="-2.29906">
        <ele>46.8</ele>
        <time>2021-07-27T14:41:47Z</time>
      </trkpt>
      <trkpt lat="48.61605" lon="-2.29911">
        <ele>47</ele>
        <time>2021-07-27T14:41:48Z</time>
      </trkpt>
      <trkpt lat="48.61605" lon="-2.29918">
        <ele>47.2</ele>
        <time>2021-07-27T14:41:49Z</time>
      </trkpt>
      <trkpt lat="48.61606" lon="-2.29926">
        <ele>47.4</ele>
        <time>2021-07-27T14:41:51Z</time>
      </trkpt>
      <trkpt lat="48.61606" lon="-2.29933">
        <ele>47.7</ele>
        <time>2021-07-27T14:41:52Z</time>
      </trkpt>
      <trkpt lat="48.61606" lon="-2.2994">
        <ele>48</ele>
        <time>2021-07-27T14:41:54Z</time>
      </trkpt>
      <trkpt lat="48.61606" lon="-2.29945">
        <ele>48.3</ele>
        <time>2021-07-27T14:41:55Z</time>
      </trkpt>
      <trkpt lat="48.61606" lon="-2.2995">
        <ele>48.5</ele>
        <time>2021-07-27T14:41:56Z</time>
      </trkpt>
      <trkpt lat="48.61606" lon="-2.29956">
        <ele>48.8</ele>
        <time>2021-07-27T14:41:58Z</time>
      </trkpt>
      <trkpt lat="48.61605" lon="-2.2996">
        <ele>49</ele>
        <time>2021-07-27T14:41:59Z</time>
      </trkpt>
      <trkpt lat="48.61604" lon="-2.29968">
        <ele>49.4</ele>
        <time>2021-07-27T14:42:01Z</time>
      </trkpt>
      <trkpt lat="48.61603" lon="-2.29974">
        <ele>49.7</ele>
        <time>2021-07-27T14:42:02Z</time>
      </trkpt>
      <trkpt lat="48.61603" lon="-2.29978">
        <ele>49.8</ele>
        <time>2021-07-27T14:42:03Z</time>
      </trkpt>
      <trkpt lat="48.61603" lon="-2.29982">
        <ele>50.1</ele>
        <time>2021-07-27T14:42:05Z</time>
      </trkpt>
      <trkpt lat="48.61603" lon="-2.29986">
        <ele>50.3</ele>
        <time>2021-07-27T14:42:06Z</time>
      </trkpt>
      <trkpt lat="48.61604" lon="-2.29991">
        <ele>50.4</ele>
        <time>2021-07-27T14:42:07Z</time>
      </trkpt>
      <trkpt lat="48.61606" lon="-2.29994">
        <ele>50.3</ele>
        <time>2021-07-27T14:42:08Z</time>
      </trkpt>
      <trkpt lat="48.61608" lon="-2.29996">
        <ele>50.2</ele>
        <time>2021-07-27T14:42:09Z</time>
      </trkpt>
      <trkpt lat="48.61612" lon="-2.29996">
        <ele>50.1</ele>
        <time>2021-07-27T14:42:10Z</time>
      </trkpt>
      <trkpt lat="48.61613" lon="-2.29996">
        <ele>50</ele>
        <time>2021-07-27T14:42:11Z</time>
      </trkpt>
      <trkpt lat="48.61618" lon="-2.29996">
        <ele>49.9</ele>
        <time>2021-07-27T14:42:13Z</time>
      </trkpt>
      <trkpt lat="48.61622" lon="-2.29997">
        <ele>49.7</ele>
        <time>2021-07-27T14:42:14Z</time>
      </trkpt>
      <trkpt lat="48.61626" lon="-2.29998">
        <ele>49.5</ele>
        <time>2021-07-27T14:42:15Z</time>
      </trkpt>
      <trkpt lat="48.61632" lon="-2.29999">
        <ele>49.3</ele>
        <time>2021-07-27T14:42:17Z</time>
      </trkpt>
      <trkpt lat="48.61638" lon="-2.3">
        <ele>49</ele>
        <time>2021-07-27T14:42:18Z</time>
      </trkpt>
      <trkpt lat="48.61645" lon="-2.3">
        <ele>48.8</ele>
        <time>2021-07-27T14:42:20Z</time>
      </trkpt>
      <trkpt lat="48.61649" lon="-2.30001">
        <ele>48.6</ele>
        <time>2021-07-27T14:42:21Z</time>
      </trkpt>
      <trkpt lat="48.61653" lon="-2.30001">
        <ele>48.5</ele>
        <time>2021-07-27T14:42:22Z</time>
      </trkpt>
      <trkpt lat="48.61655" lon="-2.30002">
        <ele>48.4</ele>
        <time>2021-07-27T14:42:23Z</time>
      </trkpt>
      <trkpt lat="48.61656" lon="-2.30002">
        <ele>48.4</ele>
        <time>2021-07-27T14:42:24Z</time>
      </trkpt>
      <trkpt lat="48.6166" lon="-2.30003">
        <ele>48.3</ele>
        <time>2021-07-27T14:42:26Z</time>
      </trkpt>
      <trkpt lat="48.61661" lon="-2.30003">
        <ele>48.2</ele>
        <time>2021-07-27T14:42:27Z</time>
      </trkpt>
      <trkpt lat="48.61663" lon="-2.30003">
        <ele>48.2</ele>
        <time>2021-07-27T14:42:28Z</time>
      </trkpt>
      <trkpt lat="48.61667" lon="-2.30004">
        <ele>48.1</ele>
        <time>2021-07-27T14:42:30Z</time>
      </trkpt>
      <trkpt lat="48.61667" lon="-2.30004">
        <ele>48.1</ele>
        <time>2021-07-27T14:42:31Z</time>
      </trkpt>
      <trkpt lat="48.61672" lon="-2.30006">
        <ele>48</ele>
        <time>2021-07-27T14:42:33Z</time>
      </trkpt>
      <trkpt lat="48.61675" lon="-2.30006">
        <ele>47.9</ele>
        <time>2021-07-27T14:42:34Z</time>
      </trkpt>
      <trkpt lat="48.6168" lon="-2.30007">
        <ele>47.8</ele>
        <time>2021-07-27T14:42:36Z</time>
      </trkpt>
      <trkpt lat="48.61685" lon="-2.30008">
        <ele>47.6</ele>
        <time>2021-07-27T14:42:37Z</time>
      </trkpt>
      <trkpt lat="48.61689" lon="-2.30008">
        <ele>47.5</ele>
        <time>2021-07-27T14:42:38Z</time>
      </trkpt>
      <trkpt lat="48.61695" lon="-2.30009">
        <ele>47.4</ele>
        <time>2021-07-27T14:42:40Z</time>
      </trkpt>
      <trkpt lat="48.61701" lon="-2.30009">
        <ele>47.3</ele>
        <time>2021-07-27T14:42:41Z</time>
      </trkpt>
      <trkpt lat="48.61705" lon="-2.30009">
        <ele>47.2</ele>
        <time>2021-07-27T14:42:42Z</time>
      </trkpt>
      <trkpt lat="48.6171" lon="-2.30009">
        <ele>47.2</ele>
        <time>2021-07-27T14:42:44Z</time>
      </trkpt>
      <trkpt lat="48.61716" lon="-2.30009">
        <ele>47.1</ele>
        <time>2021-07-27T14:42:45Z</time>
      </trkpt>
      <trkpt lat="48.61723" lon="-2.30009">
        <ele>47</ele>
        <time>2021-07-27T14:42:47Z</time>
      </trkpt>
      <trkpt lat="48.61727" lon="-2.30009">
        <ele>47</ele>
        <time>2021-07-27T14:42:48Z</time>
      </trkpt>
      <trkpt lat="48.61731" lon="-2.30009">
        <ele>47</ele>
        <time>2021-07-27T14:42:50Z</time>
      </trkpt>
      <trkpt lat="48.61737" lon="-2.30009">
        <ele>47</ele>
        <time>2021-07-27T14:42:51Z</time>
      </trkpt>
      <trkpt lat="48.61743" lon="-2.30008">
        <ele>47</ele>
        <time>2021-07-27T14:42:52Z</time>
      </trkpt>
      <trkpt lat="48.61748" lon="-2.30007">
        <ele>47.1</ele>
        <time>2021-07-27T14:42:54Z</time>
      </trkpt>
      <trkpt lat="48.61752" lon="-2.30006">
        <ele>47.1</ele>
        <time>2021-07-27T14:42:55Z</time>
      </trkpt>
      <trkpt lat="48.61758" lon="-2.30006">
        <ele>47.2</ele>
        <time>2021-07-27T14:42:56Z</time>
      </trkpt>
      <trkpt lat="48.61762" lon="-2.30006">
        <ele>47.3</ele>
        <time>2021-07-27T14:42:57Z</time>
      </trkpt>
      <trkpt lat="48.61767" lon="-2.30006">
        <ele>47.4</ele>
        <time>2021-07-27T14:42:59Z</time>
      </trkpt>
      <trkpt lat="48.6177" lon="-2.30006">
        <ele>47.5</ele>
        <time>2021-07-27T14:43:00Z</time>
      </trkpt>
      <trkpt lat="48.61775" lon="-2.30007">
        <ele>47.6</ele>
        <time>2021-07-27T14:43:01Z</time>
      </trkpt>
      <trkpt lat="48.61777" lon="-2.30008">
        <ele>47.7</ele>
        <time>2021-07-27T14:43:03Z</time>
      </trkpt>
      <trkpt lat="48.61781" lon="-2.30008">
        <ele>47.8</ele>
        <time>2021-07-27T14:43:04Z</time>
      </trkpt>
      <trkpt lat="48.61785" lon="-2.30008">
        <ele>47.9</ele>
        <time>2021-07-27T14:43:06Z</time>
      </trkpt>
      <trkpt lat="48.61786" lon="-2.30008">
        <ele>47.9</ele>
        <time>2021-07-27T14:43:07Z</time>
      </trkpt>
      <trkpt lat="48.6179" lon="-2.30008">
        <ele>48</ele>
        <time>2021-07-27T14:43:08Z</time>
      </trkpt>
      <trkpt lat="48.61792" lon="-2.30008">
        <ele>48</ele>
        <time>2021-07-27T14:43:09Z</time>
      </trkpt>
      <trkpt lat="48.61797" lon="-2.30008">
        <ele>48.1</ele>
        <time>2021-07-27T14:43:11Z</time>
      </trkpt>
      <trkpt lat="48.61802" lon="-2.30009">
        <ele>48.2</ele>
        <time>2021-07-27T14:43:12Z</time>
      </trkpt>
      <trkpt lat="48.61808" lon="-2.30011">
        <ele>48.4</ele>
        <time>2021-07-27T14:43:14Z</time>
      </trkpt>
      <trkpt lat="48.61815" lon="-2.30014">
        <ele>48.5</ele>
        <time>2021-07-27T14:43:16Z</time>
      </trkpt>
      <trkpt lat="48.61817" lon="-2.30015">
        <ele>48.6</ele>
        <time>2021-07-27T14:43:17Z</time>
      </trkpt>
      <trkpt lat="48.6182" lon="-2.30018">
        <ele>48.6</ele>
        <time>2021-07-27T14:43:18Z</time>
      </trkpt>
      <trkpt lat="48.61823" lon="-2.3002">
        <ele>48.5</ele>
        <time>2021-07-27T14:43:19Z</time>
      </trkpt>
      <trkpt lat="48.61825" lon="-2.30023">
        <ele>48.5</ele>
        <time>2021-07-27T14:43:20Z</time>
      </trkpt>
      <trkpt lat="48.61828" lon="-2.30025">
        <ele>48.5</ele>
        <time>2021-07-27T14:43:21Z</time>
      </trkpt>
      <trkpt lat="48.61835" lon="-2.3003">
        <ele>48.3</ele>
        <time>2021-07-27T14:43:23Z</time>
      </trkpt>
      <trkpt lat="48.61838" lon="-2.30033">
        <ele>48.2</ele>
        <time>2021-07-27T14:43:24Z</time>
      </trkpt>
      <trkpt lat="48.61839" lon="-2.30036">
        <ele>47.9</ele>
        <time>2021-07-27T14:43:26Z</time>
      </trkpt>
      <trkpt lat="48.61839" lon="-2.30045">
        <ele>47.7</ele>
        <time>2021-07-27T14:43:27Z</time>
      </trkpt>
      <trkpt lat="48.61837" lon="-2.30057">
        <ele>47.5</ele>
        <time>2021-07-27T14:43:29Z</time>
      </trkpt>
      <trkpt lat="48.61834" lon="-2.30074">
        <ele>47.2</ele>
        <time>2021-07-27T14:43:31Z</time>
      </trkpt>
      <trkpt lat="48.61833" lon="-2.30082">
        <ele>46.9</ele>
        <time>2021-07-27T14:43:32Z</time>
      </trkpt>
      <trkpt lat="48.61833" lon="-2.301">
        <ele>46.4</ele>
        <time>2021-07-27T14:43:34Z</time>
      </trkpt>
      <trkpt lat="48.61833" lon="-2.30117">
        <ele>46</ele>
        <time>2021-07-27T14:43:37Z</time>
      </trkpt>
      <trkpt lat="48.61835" lon="-2.30135">
        <ele>45.5</ele>
        <time>2021-07-27T14:43:38Z</time>
      </trkpt>
      <trkpt lat="48.61836" lon="-2.30153">
        <ele>45</ele>
        <time>2021-07-27T14:43:40Z</time>
      </trkpt>
      <trkpt lat="48.61837" lon="-2.30161">
        <ele>44.8</ele>
        <time>2021-07-27T14:43:42Z</time>
      </trkpt>
      <trkpt lat="48.6184" lon="-2.30181">
        <ele>44.3</ele>
        <time>2021-07-27T14:43:44Z</time>
      </trkpt>
      <trkpt lat="48.61843" lon="-2.30201">
        <ele>44</ele>
        <time>2021-07-27T14:43:45Z</time>
      </trkpt>
      <trkpt lat="48.61843" lon="-2.30222">
        <ele>43.9</ele>
        <time>2021-07-27T14:43:47Z</time>
      </trkpt>
      <trkpt lat="48.61841" lon="-2.30232">
        <ele>43.8</ele>
        <time>2021-07-27T14:43:48Z</time>
      </trkpt>
      <trkpt lat="48.61838" lon="-2.30241">
        <ele>43.8</ele>
        <time>2021-07-27T14:43:49Z</time>
      </trkpt>
      <trkpt lat="48.61834" lon="-2.30248">
        <ele>43.8</ele>
        <time>2021-07-27T14:43:50Z</time>
      </trkpt>
      <trkpt lat="48.61829" lon="-2.30255">
        <ele>43.9</ele>
        <time>2021-07-27T14:43:52Z</time>
      </trkpt>
      <trkpt lat="48.6182" lon="-2.30265">
        <ele>43.9</ele>
        <time>2021-07-27T14:43:53Z</time>
      </trkpt>
      <trkpt lat="48.61811" lon="-2.30273">
        <ele>44</ele>
        <time>2021-07-27T14:43:55Z</time>
      </trkpt>
      <trkpt lat="48.61802" lon="-2.30283">
        <ele>44.2</ele>
        <time>2021-07-27T14:43:57Z</time>
      </trkpt>
      <trkpt lat="48.618" lon="-2.30289">
        <ele>43.5</ele>
        <time>2021-07-27T14:43:58Z</time>
      </trkpt>
      <trkpt lat="48.61799" lon="-2.30298">
        <ele>42.8</ele>
        <time>2021-07-27T14:43:59Z</time>
      </trkpt>
      <trkpt lat="48.61799" lon="-2.30306">
        <ele>41.9</ele>
        <time>2021-07-27T14:44:00Z</time>
      </trkpt>
      <trkpt lat="48.61799" lon="-2.30314">
        <ele>41.1</ele>
        <time>2021-07-27T14:44:01Z</time>
      </trkpt>
      <trkpt lat="48.61798" lon="-2.30322">
        <ele>40.5</ele>
        <time>2021-07-27T14:44:02Z</time>
      </trkpt>
      <trkpt lat="48.61796" lon="-2.30336">
        <ele>39.2</ele>
        <time>2021-07-27T14:44:04Z</time>
      </trkpt>
      <trkpt lat="48.61796" lon="-2.30349">
        <ele>37.9</ele>
        <time>2021-07-27T14:44:06Z</time>
      </trkpt>
      <trkpt lat="48.61802" lon="-2.30354">
        <ele>37</ele>
        <time>2021-07-27T14:44:08Z</time>
      </trkpt>
      <trkpt lat="48.6181" lon="-2.30355">
        <ele>37</ele>
        <time>2021-07-27T14:44:10Z</time>
      </trkpt>
      <trkpt lat="48.61815" lon="-2.30354">
        <ele>37</ele>
        <time>2021-07-27T14:44:11Z</time>
      </trkpt>
      <trkpt lat="48.61825" lon="-2.30353">
        <ele>36.9</ele>
        <time>2021-07-27T14:44:13Z</time>
      </trkpt>
      <trkpt lat="48.61836" lon="-2.30352">
        <ele>37</ele>
        <time>2021-07-27T14:44:15Z</time>
      </trkpt>
      <trkpt lat="48.61841" lon="-2.30352">
        <ele>37.1</ele>
        <time>2021-07-27T14:44:16Z</time>
      </trkpt>
      <trkpt lat="48.61846" lon="-2.30352">
        <ele>37.1</ele>
        <time>2021-07-27T14:44:17Z</time>
      </trkpt>
      <trkpt lat="48.61856" lon="-2.30352">
        <ele>37.2</ele>
        <time>2021-07-27T14:44:19Z</time>
      </trkpt>
      <trkpt lat="48.61862" lon="-2.30353">
        <ele>37.2</ele>
        <time>2021-07-27T14:44:20Z</time>
      </trkpt>
      <trkpt lat="48.61872" lon="-2.30354">
        <ele>36.9</ele>
        <time>2021-07-27T14:44:22Z</time>
      </trkpt>
      <trkpt lat="48.61875" lon="-2.30357">
        <ele>36.8</ele>
        <time>2021-07-27T14:44:23Z</time>
      </trkpt>
      <trkpt lat="48.61876" lon="-2.30362">
        <ele>36.7</ele>
        <time>2021-07-27T14:44:24Z</time>
      </trkpt>
      <trkpt lat="48.61881" lon="-2.30377">
        <ele>36.2</ele>
        <time>2021-07-27T14:44:26Z</time>
      </trkpt>
      <trkpt lat="48.61885" lon="-2.30389">
        <ele>35.7</ele>
        <time>2021-07-27T14:44:28Z</time>
      </trkpt>
      <trkpt lat="48.6189" lon="-2.30397">
        <ele>35.5</ele>
        <time>2021-07-27T14:44:30Z</time>
      </trkpt>
      <trkpt lat="48.61892" lon="-2.30403">
        <ele>35.3</ele>
        <time>2021-07-27T14:44:31Z</time>
      </trkpt>
      <trkpt lat="48.61895" lon="-2.30411">
        <ele>35.2</ele>
        <time>2021-07-27T14:44:33Z</time>
      </trkpt>
      <trkpt lat="48.61896" lon="-2.30413">
        <ele>35.2</ele>
        <time>2021-07-27T14:44:34Z</time>
      </trkpt>
      <trkpt lat="48.61897" lon="-2.30416">
        <ele>35.1</ele>
        <time>2021-07-27T14:44:36Z</time>
      </trkpt>
      <trkpt lat="48.61896" lon="-2.30418">
        <ele>35.3</ele>
        <time>2021-07-27T14:44:37Z</time>
      </trkpt>
      <trkpt lat="48.61893" lon="-2.30423">
        <ele>35.5</ele>
        <time>2021-07-27T14:44:39Z</time>
      </trkpt>
      <trkpt lat="48.6189" lon="-2.30433">
        <ele>35.8</ele>
        <time>2021-07-27T14:44:41Z</time>
      </trkpt>
      <trkpt lat="48.61889" lon="-2.30439">
        <ele>36</ele>
        <time>2021-07-27T14:44:42Z</time>
      </trkpt>
      <trkpt lat="48.61887" lon="-2.30448">
        <ele>36.5</ele>
        <time>2021-07-27T14:44:44Z</time>
      </trkpt>
      <trkpt lat="48.61885" lon="-2.30453">
        <ele>36.7</ele>
        <time>2021-07-27T14:44:45Z</time>
      </trkpt>
      <trkpt lat="48.61883" lon="-2.30457">
        <ele>36.9</ele>
        <time>2021-07-27T14:44:46Z</time>
      </trkpt>
      <trkpt lat="48.61881" lon="-2.30461">
        <ele>37.1</ele>
        <time>2021-07-27T14:44:48Z</time>
      </trkpt>
      <trkpt lat="48.61878" lon="-2.30465">
        <ele>37.3</ele>
        <time>2021-07-27T14:44:49Z</time>
      </trkpt>
      <trkpt lat="48.61874" lon="-2.30471">
        <ele>37.6</ele>
        <time>2021-07-27T14:44:50Z</time>
      </trkpt>
      <trkpt lat="48.6187" lon="-2.30474">
        <ele>37.8</ele>
        <time>2021-07-27T14:44:52Z</time>
      </trkpt>
      <trkpt lat="48.61866" lon="-2.30477">
        <ele>37.9</ele>
        <time>2021-07-27T14:44:53Z</time>
      </trkpt>
      <trkpt lat="48.61862" lon="-2.3048">
        <ele>38</ele>
        <time>2021-07-27T14:44:54Z</time>
      </trkpt>
      <trkpt lat="48.61858" lon="-2.30483">
        <ele>38</ele>
        <time>2021-07-27T14:44:55Z</time>
      </trkpt>
      <trkpt lat="48.61855" lon="-2.30486">
        <ele>38</ele>
        <time>2021-07-27T14:44:57Z</time>
      </trkpt>
      <trkpt lat="48.6185" lon="-2.30491">
        <ele>38</ele>
        <time>2021-07-27T14:44:58Z</time>
      </trkpt>
      <trkpt lat="48.61846" lon="-2.30495">
        <ele>38</ele>
        <time>2021-07-27T14:44:59Z</time>
      </trkpt>
      <trkpt lat="48.61842" lon="-2.30499">
        <ele>38</ele>
        <time>2021-07-27T14:45:00Z</time>
      </trkpt>
      <trkpt lat="48.61837" lon="-2.30505">
        <ele>38</ele>
        <time>2021-07-27T14:45:02Z</time>
      </trkpt>
      <trkpt lat="48.61833" lon="-2.30511">
        <ele>37.9</ele>
        <time>2021-07-27T14:45:03Z</time>
      </trkpt>
      <trkpt lat="48.6183" lon="-2.30516">
        <ele>37.8</ele>
        <time>2021-07-27T14:45:04Z</time>
      </trkpt>
      <trkpt lat="48.61825" lon="-2.30521">
        <ele>37.7</ele>
        <time>2021-07-27T14:45:06Z</time>
      </trkpt>
      <trkpt lat="48.61819" lon="-2.30528">
        <ele>37.4</ele>
        <time>2021-07-27T14:45:07Z</time>
      </trkpt>
      <trkpt lat="48.61815" lon="-2.30533">
        <ele>37.2</ele>
        <time>2021-07-27T14:45:08Z</time>
      </trkpt>
      <trkpt lat="48.6181" lon="-2.30538">
        <ele>36.9</ele>
        <time>2021-07-27T14:45:09Z</time>
      </trkpt>
      <trkpt lat="48.61801" lon="-2.30548">
        <ele>36.2</ele>
        <time>2021-07-27T14:45:11Z</time>
      </trkpt>
      <trkpt lat="48.61792" lon="-2.3056">
        <ele>35.6</ele>
        <time>2021-07-27T14:45:13Z</time>
      </trkpt>
      <trkpt lat="48.61788" lon="-2.30567">
        <ele>35.3</ele>
        <time>2021-07-27T14:45:14Z</time>
      </trkpt>
      <trkpt lat="48.61783" lon="-2.30572">
        <ele>35.1</ele>
        <time>2021-07-27T14:45:15Z</time>
      </trkpt>
      <trkpt lat="48.61779" lon="-2.30578">
        <ele>35</ele>
        <time>2021-07-27T14:45:16Z</time>
      </trkpt>
      <trkpt lat="48.61774" lon="-2.30581">
        <ele>35</ele>
        <time>2021-07-27T14:45:18Z</time>
      </trkpt>
      <trkpt lat="48.61769" lon="-2.30582">
        <ele>35.1</ele>
        <time>2021-07-27T14:45:20Z</time>
      </trkpt>
      <trkpt lat="48.61765" lon="-2.30581">
        <ele>35.3</ele>
        <time>2021-07-27T14:45:21Z</time>
      </trkpt>
      <trkpt lat="48.61763" lon="-2.30576">
        <ele>35.5</ele>
        <time>2021-07-27T14:45:22Z</time>
      </trkpt>
      <trkpt lat="48.61762" lon="-2.30572">
        <ele>35.8</ele>
        <time>2021-07-27T14:45:23Z</time>
      </trkpt>
      <trkpt lat="48.61759" lon="-2.30568">
        <ele>36.1</ele>
        <time>2021-07-27T14:45:25Z</time>
      </trkpt>
      <trkpt lat="48.61756" lon="-2.30567">
        <ele>36.3</ele>
        <time>2021-07-27T14:45:26Z</time>
      </trkpt>
      <trkpt lat="48.61756" lon="-2.30566">
        <ele>36.4</ele>
        <time>2021-07-27T14:45:27Z</time>
      </trkpt>
      <trkpt lat="48.61752" lon="-2.30567">
        <ele>36.7</ele>
        <time>2021-07-27T14:45:28Z</time>
      </trkpt>
      <trkpt lat="48.61751" lon="-2.30567">
        <ele>36.7</ele>
        <time>2021-07-27T14:45:29Z</time>
      </trkpt>
      <trkpt lat="48.61747" lon="-2.30568">
        <ele>37</ele>
        <time>2021-07-27T14:45:31Z</time>
      </trkpt>
      <trkpt lat="48.61745" lon="-2.30569">
        <ele>37.1</ele>
        <time>2021-07-27T14:45:32Z</time>
      </trkpt>
      <trkpt lat="48.61741" lon="-2.30571">
        <ele>37.2</ele>
        <time>2021-07-27T14:45:34Z</time>
      </trkpt>
      <trkpt lat="48.61738" lon="-2.30574">
        <ele>37.3</ele>
        <time>2021-07-27T14:45:35Z</time>
      </trkpt>
      <trkpt lat="48.61733" lon="-2.30579">
        <ele>37.5</ele>
        <time>2021-07-27T14:45:37Z</time>
      </trkpt>
      <trkpt lat="48.61729" lon="-2.30583">
        <ele>37.8</ele>
        <time>2021-07-27T14:45:38Z</time>
      </trkpt>
      <trkpt lat="48.61725" lon="-2.30587">
        <ele>38.1</ele>
        <time>2021-07-27T14:45:40Z</time>
      </trkpt>
      <trkpt lat="48.61721" lon="-2.30591">
        <ele>38.4</ele>
        <time>2021-07-27T14:45:41Z</time>
      </trkpt>
      <trkpt lat="48.61717" lon="-2.30593">
        <ele>38.7</ele>
        <time>2021-07-27T14:45:43Z</time>
      </trkpt>
      <trkpt lat="48.61711" lon="-2.30597">
        <ele>39.3</ele>
        <time>2021-07-27T14:45:44Z</time>
      </trkpt>
      <trkpt lat="48.61708" lon="-2.30598">
        <ele>39.6</ele>
        <time>2021-07-27T14:45:45Z</time>
      </trkpt>
      <trkpt lat="48.61704" lon="-2.30599">
        <ele>40</ele>
        <time>2021-07-27T14:45:47Z</time>
      </trkpt>
      <trkpt lat="48.61699" lon="-2.306">
        <ele>40.6</ele>
        <time>2021-07-27T14:45:48Z</time>
      </trkpt>
      <trkpt lat="48.61695" lon="-2.30601">
        <ele>41</ele>
        <time>2021-07-27T14:45:49Z</time>
      </trkpt>
      <trkpt lat="48.61693" lon="-2.30602">
        <ele>41.3</ele>
        <time>2021-07-27T14:45:50Z</time>
      </trkpt>
      <trkpt lat="48.61691" lon="-2.30603">
        <ele>41.6</ele>
        <time>2021-07-27T14:45:52Z</time>
      </trkpt>
      <trkpt lat="48.61689" lon="-2.30604">
        <ele>41.8</ele>
        <time>2021-07-27T14:45:53Z</time>
      </trkpt>
      <trkpt lat="48.61687" lon="-2.30605">
        <ele>42</ele>
        <time>2021-07-27T14:45:54Z</time>
      </trkpt>
      <trkpt lat="48.61686" lon="-2.30606">
        <ele>42.1</ele>
        <time>2021-07-27T14:45:55Z</time>
      </trkpt>
      <trkpt lat="48.61684" lon="-2.30608">
        <ele>42.3</ele>
        <time>2021-07-27T14:45:57Z</time>
      </trkpt>
      <trkpt lat="48.61682" lon="-2.30612">
        <ele>42.6</ele>
        <time>2021-07-27T14:45:58Z</time>
      </trkpt>
      <trkpt lat="48.61679" lon="-2.30616">
        <ele>42.8</ele>
        <time>2021-07-27T14:46:00Z</time>
      </trkpt>
      <trkpt lat="48.61676" lon="-2.3062">
        <ele>43</ele>
        <time>2021-07-27T14:46:02Z</time>
      </trkpt>
      <trkpt lat="48.61673" lon="-2.30623">
        <ele>43.2</ele>
        <time>2021-07-27T14:46:03Z</time>
      </trkpt>
      <trkpt lat="48.6167" lon="-2.30627">
        <ele>43.3</ele>
        <time>2021-07-27T14:46:04Z</time>
      </trkpt>
      <trkpt lat="48.61668" lon="-2.3063">
        <ele>43.4</ele>
        <time>2021-07-27T14:46:06Z</time>
      </trkpt>
      <trkpt lat="48.61665" lon="-2.30634">
        <ele>43.6</ele>
        <time>2021-07-27T14:46:07Z</time>
      </trkpt>
      <trkpt lat="48.61663" lon="-2.30638">
        <ele>43.7</ele>
        <time>2021-07-27T14:46:08Z</time>
      </trkpt>
      <trkpt lat="48.6166" lon="-2.30641">
        <ele>43.8</ele>
        <time>2021-07-27T14:46:09Z</time>
      </trkpt>
      <trkpt lat="48.61658" lon="-2.30645">
        <ele>43.9</ele>
        <time>2021-07-27T14:46:10Z</time>
      </trkpt>
      <trkpt lat="48.61656" lon="-2.30648">
        <ele>43.9</ele>
        <time>2021-07-27T14:46:11Z</time>
      </trkpt>
      <trkpt lat="48.61654" lon="-2.30654">
        <ele>44</ele>
        <time>2021-07-27T14:46:13Z</time>
      </trkpt>
      <trkpt lat="48.61652" lon="-2.30658">
        <ele>44.1</ele>
        <time>2021-07-27T14:46:14Z</time>
      </trkpt>
      <trkpt lat="48.6165" lon="-2.30662">
        <ele>44.1</ele>
        <time>2021-07-27T14:46:15Z</time>
      </trkpt>
      <trkpt lat="48.61648" lon="-2.30667">
        <ele>44.2</ele>
        <time>2021-07-27T14:46:17Z</time>
      </trkpt>
      <trkpt lat="48.61646" lon="-2.30673">
        <ele>44.2</ele>
        <time>2021-07-27T14:46:18Z</time>
      </trkpt>
      <trkpt lat="48.61644" lon="-2.30677">
        <ele>44.2</ele>
        <time>2021-07-27T14:46:19Z</time>
      </trkpt>
      <trkpt lat="48.61642" lon="-2.30684">
        <ele>44.2</ele>
        <time>2021-07-27T14:46:21Z</time>
      </trkpt>
      <trkpt lat="48.61637" lon="-2.3069">
        <ele>44.2</ele>
        <time>2021-07-27T14:46:22Z</time>
      </trkpt>
      <trkpt lat="48.61632" lon="-2.30694">
        <ele>44.2</ele>
        <time>2021-07-27T14:46:24Z</time>
      </trkpt>
      <trkpt lat="48.61627" lon="-2.30698">
        <ele>44.2</ele>
        <time>2021-07-27T14:46:25Z</time>
      </trkpt>
      <trkpt lat="48.61623" lon="-2.30702">
        <ele>44.1</ele>
        <time>2021-07-27T14:46:26Z</time>
      </trkpt>
      <trkpt lat="48.6162" lon="-2.30706">
        <ele>44.1</ele>
        <time>2021-07-27T14:46:28Z</time>
      </trkpt>
      <trkpt lat="48.61615" lon="-2.30714">
        <ele>44</ele>
        <time>2021-07-27T14:46:29Z</time>
      </trkpt>
      <trkpt lat="48.61611" lon="-2.30718">
        <ele>44</ele>
        <time>2021-07-27T14:46:30Z</time>
      </trkpt>
      <trkpt lat="48.61606" lon="-2.30722">
        <ele>43.9</ele>
        <time>2021-07-27T14:46:32Z</time>
      </trkpt>
      <trkpt lat="48.61602" lon="-2.30726">
        <ele>43.8</ele>
        <time>2021-07-27T14:46:33Z</time>
      </trkpt>
      <trkpt lat="48.61599" lon="-2.30728">
        <ele>43.7</ele>
        <time>2021-07-27T14:46:34Z</time>
      </trkpt>
      <trkpt lat="48.61595" lon="-2.3073">
        <ele>43.6</ele>
        <time>2021-07-27T14:46:35Z</time>
      </trkpt>
      <trkpt lat="48.61589" lon="-2.30733">
        <ele>43.5</ele>
        <time>2021-07-27T14:46:37Z</time>
      </trkpt>
      <trkpt lat="48.61585" lon="-2.30735">
        <ele>43.3</ele>
        <time>2021-07-27T14:46:38Z</time>
      </trkpt>
      <trkpt lat="48.61581" lon="-2.30741">
        <ele>43</ele>
        <time>2021-07-27T14:46:40Z</time>
      </trkpt>
      <trkpt lat="48.61578" lon="-2.30748">
        <ele>42.7</ele>
        <time>2021-07-27T14:46:41Z</time>
      </trkpt>
      <trkpt lat="48.61576" lon="-2.30758">
        <ele>42.2</ele>
        <time>2021-07-27T14:46:42Z</time>
      </trkpt>
      <trkpt lat="48.61574" lon="-2.30767">
        <ele>41.8</ele>
        <time>2021-07-27T14:46:43Z</time>
      </trkpt>
      <trkpt lat="48.61573" lon="-2.30776">
        <ele>41.4</ele>
        <time>2021-07-27T14:46:44Z</time>
      </trkpt>
      <trkpt lat="48.61566" lon="-2.30793">
        <ele>40.7</ele>
        <time>2021-07-27T14:46:46Z</time>
      </trkpt>
      <trkpt lat="48.61557" lon="-2.30809">
        <ele>40.4</ele>
        <time>2021-07-27T14:46:48Z</time>
      </trkpt>
      <trkpt lat="48.61552" lon="-2.30817">
        <ele>40.4</ele>
        <time>2021-07-27T14:46:49Z</time>
      </trkpt>
      <trkpt lat="48.61547" lon="-2.30824">
        <ele>40.5</ele>
        <time>2021-07-27T14:46:50Z</time>
      </trkpt>
      <trkpt lat="48.61537" lon="-2.30828">
        <ele>40.8</ele>
        <time>2021-07-27T14:46:52Z</time>
      </trkpt>
      <trkpt lat="48.61533" lon="-2.3083">
        <ele>40.9</ele>
        <time>2021-07-27T14:46:53Z</time>
      </trkpt>
      <trkpt lat="48.61526" lon="-2.30835">
        <ele>40.9</ele>
        <time>2021-07-27T14:46:55Z</time>
      </trkpt>
      <trkpt lat="48.61522" lon="-2.30839">
        <ele>40.8</ele>
        <time>2021-07-27T14:46:56Z</time>
      </trkpt>
      <trkpt lat="48.61519" lon="-2.30841">
        <ele>40.8</ele>
        <time>2021-07-27T14:46:57Z</time>
      </trkpt>
      <trkpt lat="48.61515" lon="-2.30845">
        <ele>40.7</ele>
        <time>2021-07-27T14:46:58Z</time>
      </trkpt>
      <trkpt lat="48.61507" lon="-2.30853">
        <ele>40.4</ele>
        <time>2021-07-27T14:47:00Z</time>
      </trkpt>
      <trkpt lat="48.61499" lon="-2.30859">
        <ele>40.1</ele>
        <time>2021-07-27T14:47:02Z</time>
      </trkpt>
      <trkpt lat="48.61495" lon="-2.30862">
        <ele>40</ele>
        <time>2021-07-27T14:47:04Z</time>
      </trkpt>
      <trkpt lat="48.61492" lon="-2.30867">
        <ele>40</ele>
        <time>2021-07-27T14:47:05Z</time>
      </trkpt>
      <trkpt lat="48.61488" lon="-2.30871">
        <ele>39.9</ele>
        <time>2021-07-27T14:47:06Z</time>
      </trkpt>
      <trkpt lat="48.61485" lon="-2.30872">
        <ele>39.9</ele>
        <time>2021-07-27T14:47:07Z</time>
      </trkpt>
      <trkpt lat="48.61481" lon="-2.30869">
        <ele>39.9</ele>
        <time>2021-07-27T14:47:08Z</time>
      </trkpt>
      <trkpt lat="48.61477" lon="-2.30862">
        <ele>39.8</ele>
        <time>2021-07-27T14:47:10Z</time>
      </trkpt>
      <trkpt lat="48.61475" lon="-2.30858">
        <ele>39.8</ele>
        <time>2021-07-27T14:47:11Z</time>
      </trkpt>
      <trkpt lat="48.61471" lon="-2.30854">
        <ele>39.6</ele>
        <time>2021-07-27T14:47:12Z</time>
      </trkpt>
      <trkpt lat="48.61468" lon="-2.3085">
        <ele>39.4</ele>
        <time>2021-07-27T14:47:13Z</time>
      </trkpt>
      <trkpt lat="48.61463" lon="-2.30844">
        <ele>38.9</ele>
        <time>2021-07-27T14:47:15Z</time>
      </trkpt>
      <trkpt lat="48.61459" lon="-2.3084">
        <ele>38.3</ele>
        <time>2021-07-27T14:47:16Z</time>
      </trkpt>
      <trkpt lat="48.61455" lon="-2.30837">
        <ele>37.7</ele>
        <time>2021-07-27T14:47:17Z</time>
      </trkpt>
      <trkpt lat="48.6145" lon="-2.30837">
        <ele>37</ele>
        <time>2021-07-27T14:47:19Z</time>
      </trkpt>
      <trkpt lat="48.61446" lon="-2.30841">
        <ele>36.3</ele>
        <time>2021-07-27T14:47:20Z</time>
      </trkpt>
      <trkpt lat="48.61445" lon="-2.30848">
        <ele>35.7</ele>
        <time>2021-07-27T14:47:21Z</time>
      </trkpt>
      <trkpt lat="48.61444" lon="-2.30855">
        <ele>34.9</ele>
        <time>2021-07-27T14:47:22Z</time>
      </trkpt>
      <trkpt lat="48.61442" lon="-2.30867">
        <ele>33.6</ele>
        <time>2021-07-27T14:47:24Z</time>
      </trkpt>
      <trkpt lat="48.61441" lon="-2.30873">
        <ele>33</ele>
        <time>2021-07-27T14:47:25Z</time>
      </trkpt>
      <trkpt lat="48.61441" lon="-2.30882">
        <ele>32</ele>
        <time>2021-07-27T14:47:27Z</time>
      </trkpt>
      <trkpt lat="48.6144" lon="-2.30886">
        <ele>31.5</ele>
        <time>2021-07-27T14:47:28Z</time>
      </trkpt>
      <trkpt lat="48.6144" lon="-2.30891">
        <ele>30.8</ele>
        <time>2021-07-27T14:47:29Z</time>
      </trkpt>
      <trkpt lat="48.6144" lon="-2.30893">
        <ele>30.6</ele>
        <time>2021-07-27T14:47:30Z</time>
      </trkpt>
      <trkpt lat="48.61439" lon="-2.30899">
        <ele>29.9</ele>
        <time>2021-07-27T14:47:32Z</time>
      </trkpt>
      <trkpt lat="48.61439" lon="-2.30901">
        <ele>29.6</ele>
        <time>2021-07-27T14:47:33Z</time>
      </trkpt>
      <trkpt lat="48.61437" lon="-2.30906">
        <ele>28.9</ele>
        <time>2021-07-27T14:47:34Z</time>
      </trkpt>
      <trkpt lat="48.61437" lon="-2.30908">
        <ele>28.6</ele>
        <time>2021-07-27T14:47:35Z</time>
      </trkpt>
      <trkpt lat="48.61435" lon="-2.30916">
        <ele>27.7</ele>
        <time>2021-07-27T14:47:37Z</time>
      </trkpt>
      <trkpt lat="48.61435" lon="-2.30918">
        <ele>27.4</ele>
        <time>2021-07-27T14:47:38Z</time>
      </trkpt>
      <trkpt lat="48.61435" lon="-2.30921">
        <ele>27</ele>
        <time>2021-07-27T14:47:39Z</time>
      </trkpt>
      <trkpt lat="48.61437" lon="-2.30927">
        <ele>26.3</ele>
        <time>2021-07-27T14:47:40Z</time>
      </trkpt>
      <trkpt lat="48.61438" lon="-2.30932">
        <ele>25.8</ele>
        <time>2021-07-27T14:47:41Z</time>
      </trkpt>
      <trkpt lat="48.61438" lon="-2.30939">
        <ele>25.2</ele>
        <time>2021-07-27T14:47:43Z</time>
      </trkpt>
      <trkpt lat="48.61437" lon="-2.30943">
        <ele>24.9</ele>
        <time>2021-07-27T14:47:44Z</time>
      </trkpt>
      <trkpt lat="48.61436" lon="-2.3095">
        <ele>24.6</ele>
        <time>2021-07-27T14:47:46Z</time>
      </trkpt>
      <trkpt lat="48.61435" lon="-2.30954">
        <ele>24.6</ele>
        <time>2021-07-27T14:47:47Z</time>
      </trkpt>
      <trkpt lat="48.61432" lon="-2.30957">
        <ele>24.7</ele>
        <time>2021-07-27T14:47:49Z</time>
      </trkpt>
      <trkpt lat="48.61431" lon="-2.30958">
        <ele>24.7</ele>
        <time>2021-07-27T14:47:50Z</time>
      </trkpt>
      <trkpt lat="48.61429" lon="-2.30963">
        <ele>25</ele>
        <time>2021-07-27T14:47:51Z</time>
      </trkpt>
      <trkpt lat="48.61428" lon="-2.30964">
        <ele>25.1</ele>
        <time>2021-07-27T14:47:52Z</time>
      </trkpt>
      <trkpt lat="48.61427" lon="-2.30967">
        <ele>25.3</ele>
        <time>2021-07-27T14:47:54Z</time>
      </trkpt>
      <trkpt lat="48.61426" lon="-2.30969">
        <ele>25.5</ele>
        <time>2021-07-27T14:47:55Z</time>
      </trkpt>
      <trkpt lat="48.61425" lon="-2.30971">
        <ele>25.8</ele>
        <time>2021-07-27T14:47:56Z</time>
      </trkpt>
      <trkpt lat="48.61424" lon="-2.30973">
        <ele>26</ele>
        <time>2021-07-27T14:47:57Z</time>
      </trkpt>
      <trkpt lat="48.61422" lon="-2.30977">
        <ele>26.5</ele>
        <time>2021-07-27T14:47:59Z</time>
      </trkpt>
      <trkpt lat="48.61422" lon="-2.30978">
        <ele>26.6</ele>
        <time>2021-07-27T14:48:00Z</time>
      </trkpt>
      <trkpt lat="48.61421" lon="-2.3098">
        <ele>26.8</ele>
        <time>2021-07-27T14:48:01Z</time>
      </trkpt>
      <trkpt lat="48.61421" lon="-2.30981">
        <ele>26.9</ele>
        <time>2021-07-27T14:48:02Z</time>
      </trkpt>
      <trkpt lat="48.6142" lon="-2.30982">
        <ele>27</ele>
        <time>2021-07-27T14:48:04Z</time>
      </trkpt>
      <trkpt lat="48.6142" lon="-2.30982">
        <ele>27.1</ele>
        <time>2021-07-27T14:48:06Z</time>
      </trkpt>
      <trkpt lat="48.6142" lon="-2.30982">
        <ele>27.1</ele>
        <time>2021-07-27T14:48:07Z</time>
      </trkpt>
      <trkpt lat="48.6142" lon="-2.30983">
        <ele>27.1</ele>
        <time>2021-07-27T14:48:08Z</time>
      </trkpt>
      <trkpt lat="48.6142" lon="-2.30983">
        <ele>27.2</ele>
        <time>2021-07-27T14:48:10Z</time>
      </trkpt>
      <trkpt lat="48.6142" lon="-2.30984">
        <ele>27.2</ele>
        <time>2021-07-27T14:48:11Z</time>
      </trkpt>
      <trkpt lat="48.61418" lon="-2.30987">
        <ele>27.6</ele>
        <time>2021-07-27T14:48:15Z</time>
      </trkpt>
      <trkpt lat="48.61418" lon="-2.30988">
        <ele>27.7</ele>
        <time>2021-07-27T14:48:16Z</time>
      </trkpt>
      <trkpt lat="48.61418" lon="-2.30989">
        <ele>27.8</ele>
        <time>2021-07-27T14:48:17Z</time>
      </trkpt>
      <trkpt lat="48.61417" lon="-2.3099">
        <ele>27.9</ele>
        <time>2021-07-27T14:48:19Z</time>
      </trkpt>
      <trkpt lat="48.61416" lon="-2.30993">
        <ele>28.2</ele>
        <time>2021-07-27T14:48:21Z</time>
      </trkpt>
      <trkpt lat="48.61414" lon="-2.30999">
        <ele>28.6</ele>
        <time>2021-07-27T14:48:23Z</time>
      </trkpt>
      <trkpt lat="48.61413" lon="-2.31002">
        <ele>28.8</ele>
        <time>2021-07-27T14:48:24Z</time>
      </trkpt>
      <trkpt lat="48.61409" lon="-2.31006">
        <ele>29.1</ele>
        <time>2021-07-27T14:48:26Z</time>
      </trkpt>
      <trkpt lat="48.61407" lon="-2.3101">
        <ele>29.3</ele>
        <time>2021-07-27T14:48:27Z</time>
      </trkpt>
      <trkpt lat="48.61404" lon="-2.31015">
        <ele>29.5</ele>
        <time>2021-07-27T14:48:29Z</time>
      </trkpt>
      <trkpt lat="48.61401" lon="-2.3102">
        <ele>29.7</ele>
        <time>2021-07-27T14:48:30Z</time>
      </trkpt>
      <trkpt lat="48.61399" lon="-2.31022">
        <ele>29.7</ele>
        <time>2021-07-27T14:48:31Z</time>
      </trkpt>
      <trkpt lat="48.61396" lon="-2.31026">
        <ele>29.9</ele>
        <time>2021-07-27T14:48:33Z</time>
      </trkpt>
      <trkpt lat="48.61393" lon="-2.31028">
        <ele>30</ele>
        <time>2021-07-27T14:48:34Z</time>
      </trkpt>
      <trkpt lat="48.61389" lon="-2.31031">
        <ele>30.1</ele>
        <time>2021-07-27T14:48:35Z</time>
      </trkpt>
      <trkpt lat="48.61386" lon="-2.31032">
        <ele>30.1</ele>
        <time>2021-07-27T14:48:36Z</time>
      </trkpt>
      <trkpt lat="48.61383" lon="-2.31034">
        <ele>30.2</ele>
        <time>2021-07-27T14:48:38Z</time>
      </trkpt>
      <trkpt lat="48.6138" lon="-2.31036">
        <ele>30.2</ele>
        <time>2021-07-27T14:48:39Z</time>
      </trkpt>
      <trkpt lat="48.61377" lon="-2.31041">
        <ele>30.1</ele>
        <time>2021-07-27T14:48:41Z</time>
      </trkpt>
      <trkpt lat="48.61374" lon="-2.31046">
        <ele>30</ele>
        <time>2021-07-27T14:48:42Z</time>
      </trkpt>
      <trkpt lat="48.61366" lon="-2.31054">
        <ele>29.5</ele>
        <time>2021-07-27T14:48:43Z</time>
      </trkpt>
      <trkpt lat="48.6136" lon="-2.31058">
        <ele>29.2</ele>
        <time>2021-07-27T14:48:44Z</time>
      </trkpt>
      <trkpt lat="48.61356" lon="-2.3106">
        <ele>29</ele>
        <time>2021-07-27T14:48:45Z</time>
      </trkpt>
      <trkpt lat="48.61351" lon="-2.31064">
        <ele>28.9</ele>
        <time>2021-07-27T14:48:47Z</time>
      </trkpt>
      <trkpt lat="48.61344" lon="-2.31068">
        <ele>28.9</ele>
        <time>2021-07-27T14:48:48Z</time>
      </trkpt>
      <trkpt lat="48.61338" lon="-2.31073">
        <ele>28.8</ele>
        <time>2021-07-27T14:48:50Z</time>
      </trkpt>
      <trkpt lat="48.61331" lon="-2.31077">
        <ele>28.6</ele>
        <time>2021-07-27T14:48:51Z</time>
      </trkpt>
      <trkpt lat="48.61328" lon="-2.31078">
        <ele>28.5</ele>
        <time>2021-07-27T14:48:52Z</time>
      </trkpt>
      <trkpt lat="48.61324" lon="-2.31077">
        <ele>28.2</ele>
        <time>2021-07-27T14:48:54Z</time>
      </trkpt>
      <trkpt lat="48.61321" lon="-2.31078">
        <ele>27.9</ele>
        <time>2021-07-27T14:48:55Z</time>
      </trkpt>
      <trkpt lat="48.61318" lon="-2.3108">
        <ele>27.5</ele>
        <time>2021-07-27T14:48:56Z</time>
      </trkpt>
      <trkpt lat="48.61315" lon="-2.31082">
        <ele>27.1</ele>
        <time>2021-07-27T14:48:57Z</time>
      </trkpt>
      <trkpt lat="48.61312" lon="-2.31085">
        <ele>26.6</ele>
        <time>2021-07-27T14:48:58Z</time>
      </trkpt>
      <trkpt lat="48.61309" lon="-2.31089">
        <ele>26</ele>
        <time>2021-07-27T14:48:59Z</time>
      </trkpt>
      <trkpt lat="48.61302" lon="-2.31097">
        <ele>24.7</ele>
        <time>2021-07-27T14:49:00Z</time>
      </trkpt>
      <trkpt lat="48.61297" lon="-2.31101">
        <ele>23.8</ele>
        <time>2021-07-27T14:49:01Z</time>
      </trkpt>
      <trkpt lat="48.61285" lon="-2.31105">
        <ele>22.4</ele>
        <time>2021-07-27T14:49:03Z</time>
      </trkpt>
      <trkpt lat="48.6128" lon="-2.31106">
        <ele>21.9</ele>
        <time>2021-07-27T14:49:04Z</time>
      </trkpt>
      <trkpt lat="48.61277" lon="-2.31105">
        <ele>21.6</ele>
        <time>2021-07-27T14:49:06Z</time>
      </trkpt>
      <trkpt lat="48.61274" lon="-2.31105">
        <ele>21.3</ele>
        <time>2021-07-27T14:49:07Z</time>
      </trkpt>
      <trkpt lat="48.61269" lon="-2.31104">
        <ele>20.8</ele>
        <time>2021-07-27T14:49:08Z</time>
      </trkpt>
      <trkpt lat="48.61266" lon="-2.31103">
        <ele>20.6</ele>
        <time>2021-07-27T14:49:09Z</time>
      </trkpt>
      <trkpt lat="48.6126" lon="-2.31102">
        <ele>20.1</ele>
        <time>2021-07-27T14:49:11Z</time>
      </trkpt>
      <trkpt lat="48.61257" lon="-2.31102">
        <ele>19.9</ele>
        <time>2021-07-27T14:49:12Z</time>
      </trkpt>
      <trkpt lat="48.61251" lon="-2.31103">
        <ele>19.4</ele>
        <time>2021-07-27T14:49:14Z</time>
      </trkpt>
      <trkpt lat="48.61246" lon="-2.31104">
        <ele>19</ele>
        <time>2021-07-27T14:49:15Z</time>
      </trkpt>
      <trkpt lat="48.61241" lon="-2.31105">
        <ele>18.7</ele>
        <time>2021-07-27T14:49:16Z</time>
      </trkpt>
      <trkpt lat="48.61237" lon="-2.31107">
        <ele>18.6</ele>
        <time>2021-07-27T14:49:18Z</time>
      </trkpt>
      <trkpt lat="48.61235" lon="-2.31107">
        <ele>18.6</ele>
        <time>2021-07-27T14:49:19Z</time>
      </trkpt>
      <trkpt lat="48.61234" lon="-2.31108">
        <ele>18.5</ele>
        <time>2021-07-27T14:49:20Z</time>
      </trkpt>
      <trkpt lat="48.61232" lon="-2.31111">
        <ele>18.4</ele>
        <time>2021-07-27T14:49:22Z</time>
      </trkpt>
      <trkpt lat="48.61231" lon="-2.31112">
        <ele>18.3</ele>
        <time>2021-07-27T14:49:23Z</time>
      </trkpt>
      <trkpt lat="48.61229" lon="-2.31117">
        <ele>18.2</ele>
        <time>2021-07-27T14:49:24Z</time>
      </trkpt>
      <trkpt lat="48.61226" lon="-2.31121">
        <ele>18</ele>
        <time>2021-07-27T14:49:25Z</time>
      </trkpt>
      <trkpt lat="48.61221" lon="-2.31124">
        <ele>17.8</ele>
        <time>2021-07-27T14:49:27Z</time>
      </trkpt>
      <trkpt lat="48.61216" lon="-2.31125">
        <ele>17.7</ele>
        <time>2021-07-27T14:49:28Z</time>
      </trkpt>
      <trkpt lat="48.61211" lon="-2.31124">
        <ele>17.8</ele>
        <time>2021-07-27T14:49:29Z</time>
      </trkpt>
      <trkpt lat="48.61206" lon="-2.31123">
        <ele>17.9</ele>
        <time>2021-07-27T14:49:30Z</time>
      </trkpt>
      <trkpt lat="48.61201" lon="-2.31122">
        <ele>18</ele>
        <time>2021-07-27T14:49:31Z</time>
      </trkpt>
      <trkpt lat="48.61197" lon="-2.31123">
        <ele>18.1</ele>
        <time>2021-07-27T14:49:33Z</time>
      </trkpt>
      <trkpt lat="48.61192" lon="-2.31125">
        <ele>18</ele>
        <time>2021-07-27T14:49:34Z</time>
      </trkpt>
      <trkpt lat="48.61188" lon="-2.31126">
        <ele>17.9</ele>
        <time>2021-07-27T14:49:35Z</time>
      </trkpt>
      <trkpt lat="48.61185" lon="-2.31128">
        <ele>17.7</ele>
        <time>2021-07-27T14:49:36Z</time>
      </trkpt>
      <trkpt lat="48.61182" lon="-2.31131">
        <ele>17.4</ele>
        <time>2021-07-27T14:49:38Z</time>
      </trkpt>
      <trkpt lat="48.6118" lon="-2.31134">
        <ele>17.1</ele>
        <time>2021-07-27T14:49:39Z</time>
      </trkpt>
      <trkpt lat="48.61173" lon="-2.31144">
        <ele>16.4</ele>
        <time>2021-07-27T14:49:40Z</time>
      </trkpt>
      <trkpt lat="48.61168" lon="-2.31151">
        <ele>16.2</ele>
        <time>2021-07-27T14:49:41Z</time>
      </trkpt>
      <trkpt lat="48.61163" lon="-2.31158">
        <ele>16.3</ele>
        <time>2021-07-27T14:49:43Z</time>
      </trkpt>
      <trkpt lat="48.61156" lon="-2.31164">
        <ele>16.9</ele>
        <time>2021-07-27T14:49:45Z</time>
      </trkpt>
      <trkpt lat="48.6115" lon="-2.31163">
        <ele>17.5</ele>
        <time>2021-07-27T14:49:46Z</time>
      </trkpt>
      <trkpt lat="48.61145" lon="-2.31161">
        <ele>18.3</ele>
        <time>2021-07-27T14:49:48Z</time>
      </trkpt>
      <trkpt lat="48.61143" lon="-2.31156">
        <ele>18.8</ele>
        <time>2021-07-27T14:49:49Z</time>
      </trkpt>
      <trkpt lat="48.61142" lon="-2.31151">
        <ele>19.2</ele>
        <time>2021-07-27T14:49:51Z</time>
      </trkpt>
      <trkpt lat="48.6114" lon="-2.31146">
        <ele>19.6</ele>
        <time>2021-07-27T14:49:52Z</time>
      </trkpt>
      <trkpt lat="48.61139" lon="-2.31141">
        <ele>20</ele>
        <time>2021-07-27T14:49:54Z</time>
      </trkpt>
      <trkpt lat="48.61139" lon="-2.31137">
        <ele>20.3</ele>
        <time>2021-07-27T14:49:56Z</time>
      </trkpt>
      <trkpt lat="48.61139" lon="-2.31131">
        <ele>20.6</ele>
        <time>2021-07-27T14:49:57Z</time>
      </trkpt>
      <trkpt lat="48.61139" lon="-2.31126">
        <ele>20.9</ele>
        <time>2021-07-27T14:49:58Z</time>
      </trkpt>
      <trkpt lat="48.61138" lon="-2.31116">
        <ele>21.5</ele>
        <time>2021-07-27T14:50:00Z</time>
      </trkpt>
      <trkpt lat="48.61137" lon="-2.3111">
        <ele>21.9</ele>
        <time>2021-07-27T14:50:01Z</time>
      </trkpt>
      <trkpt lat="48.61137" lon="-2.31104">
        <ele>22.3</ele>
        <time>2021-07-27T14:50:02Z</time>
      </trkpt>
      <trkpt lat="48.61137" lon="-2.31097">
        <ele>22.8</ele>
        <time>2021-07-27T14:50:04Z</time>
      </trkpt>
      <trkpt lat="48.61136" lon="-2.3109">
        <ele>23.3</ele>
        <time>2021-07-27T14:50:06Z</time>
      </trkpt>
      <trkpt lat="48.61136" lon="-2.31084">
        <ele>23.7</ele>
        <time>2021-07-27T14:50:07Z</time>
      </trkpt>
      <trkpt lat="48.61137" lon="-2.31077">
        <ele>24.3</ele>
        <time>2021-07-27T14:50:08Z</time>
      </trkpt>
      <trkpt lat="48.61137" lon="-2.31072">
        <ele>24.7</ele>
        <time>2021-07-27T14:50:09Z</time>
      </trkpt>
      <trkpt lat="48.61137" lon="-2.31065">
        <ele>25.2</ele>
        <time>2021-07-27T14:50:11Z</time>
      </trkpt>
      <trkpt lat="48.61136" lon="-2.3106">
        <ele>25.6</ele>
        <time>2021-07-27T14:50:12Z</time>
      </trkpt>
      <trkpt lat="48.61136" lon="-2.31056">
        <ele>25.9</ele>
        <time>2021-07-27T14:50:14Z</time>
      </trkpt>
      <trkpt lat="48.61135" lon="-2.31051">
        <ele>26.2</ele>
        <time>2021-07-27T14:50:15Z</time>
      </trkpt>
      <trkpt lat="48.61134" lon="-2.31047">
        <ele>26.6</ele>
        <time>2021-07-27T14:50:16Z</time>
      </trkpt>
      <trkpt lat="48.61133" lon="-2.31042">
        <ele>27</ele>
        <time>2021-07-27T14:50:18Z</time>
      </trkpt>
      <trkpt lat="48.61132" lon="-2.31038">
        <ele>27.4</ele>
        <time>2021-07-27T14:50:19Z</time>
      </trkpt>
      <trkpt lat="48.61129" lon="-2.31034">
        <ele>27.8</ele>
        <time>2021-07-27T14:50:20Z</time>
      </trkpt>
      <trkpt lat="48.61128" lon="-2.31033">
        <ele>27.9</ele>
        <time>2021-07-27T14:50:21Z</time>
      </trkpt>
      <trkpt lat="48.61127" lon="-2.31032">
        <ele>28.1</ele>
        <time>2021-07-27T14:50:22Z</time>
      </trkpt>
      <trkpt lat="48.61123" lon="-2.31029">
        <ele>28.6</ele>
        <time>2021-07-27T14:50:24Z</time>
      </trkpt>
      <trkpt lat="48.61121" lon="-2.31024">
        <ele>29</ele>
        <time>2021-07-27T14:50:26Z</time>
      </trkpt>
      <trkpt lat="48.61121" lon="-2.31019">
        <ele>29.3</ele>
        <time>2021-07-27T14:50:28Z</time>
      </trkpt>
      <trkpt lat="48.61121" lon="-2.31014">
        <ele>29.7</ele>
        <time>2021-07-27T14:50:29Z</time>
      </trkpt>
      <trkpt lat="48.61121" lon="-2.31008">
        <ele>30.1</ele>
        <time>2021-07-27T14:50:30Z</time>
      </trkpt>
      <trkpt lat="48.61121" lon="-2.31006">
        <ele>30.2</ele>
        <time>2021-07-27T14:50:31Z</time>
      </trkpt>
      <trkpt lat="48.61121" lon="-2.31002">
        <ele>30.5</ele>
        <time>2021-07-27T14:50:32Z</time>
      </trkpt>
      <trkpt lat="48.61121" lon="-2.30996">
        <ele>30.9</ele>
        <time>2021-07-27T14:50:34Z</time>
      </trkpt>
      <trkpt lat="48.61121" lon="-2.30992">
        <ele>31.1</ele>
        <time>2021-07-27T14:50:35Z</time>
      </trkpt>
      <trkpt lat="48.61121" lon="-2.30985">
        <ele>31.5</ele>
        <time>2021-07-27T14:50:37Z</time>
      </trkpt>
      <trkpt lat="48.61121" lon="-2.3098">
        <ele>31.9</ele>
        <time>2021-07-27T14:50:39Z</time>
      </trkpt>
      <trkpt lat="48.61121" lon="-2.30974">
        <ele>32.3</ele>
        <time>2021-07-27T14:50:40Z</time>
      </trkpt>
      <trkpt lat="48.6112" lon="-2.30972">
        <ele>32.4</ele>
        <time>2021-07-27T14:50:41Z</time>
      </trkpt>
      <trkpt lat="48.6112" lon="-2.30968">
        <ele>32.6</ele>
        <time>2021-07-27T14:50:42Z</time>
      </trkpt>
      <trkpt lat="48.6112" lon="-2.30962">
        <ele>32.9</ele>
        <time>2021-07-27T14:50:44Z</time>
      </trkpt>
      <trkpt lat="48.61119" lon="-2.30956">
        <ele>33.1</ele>
        <time>2021-07-27T14:50:45Z</time>
      </trkpt>
      <trkpt lat="48.61119" lon="-2.30954">
        <ele>33.2</ele>
        <time>2021-07-27T14:50:46Z</time>
      </trkpt>
      <trkpt lat="48.61118" lon="-2.30947">
        <ele>33.5</ele>
        <time>2021-07-27T14:50:48Z</time>
      </trkpt>
      <trkpt lat="48.61118" lon="-2.30944">
        <ele>33.6</ele>
        <time>2021-07-27T14:50:49Z</time>
      </trkpt>
      <trkpt lat="48.61118" lon="-2.30941">
        <ele>33.7</ele>
        <time>2021-07-27T14:50:50Z</time>
      </trkpt>
      <trkpt lat="48.61118" lon="-2.30936">
        <ele>33.8</ele>
        <time>2021-07-27T14:50:52Z</time>
      </trkpt>
      <trkpt lat="48.61118" lon="-2.30932">
        <ele>33.9</ele>
        <time>2021-07-27T14:50:53Z</time>
      </trkpt>
      <trkpt lat="48.61118" lon="-2.30927">
        <ele>34.1</ele>
        <time>2021-07-27T14:50:55Z</time>
      </trkpt>
      <trkpt lat="48.61119" lon="-2.30921">
        <ele>34.2</ele>
        <time>2021-07-27T14:50:56Z</time>
      </trkpt>
      <trkpt lat="48.61119" lon="-2.30917">
        <ele>34.3</ele>
        <time>2021-07-27T14:50:57Z</time>
      </trkpt>
      <trkpt lat="48.61119" lon="-2.3091">
        <ele>34.4</ele>
        <time>2021-07-27T14:50:59Z</time>
      </trkpt>
      <trkpt lat="48.61119" lon="-2.30904">
        <ele>34.8</ele>
        <time>2021-07-27T14:51:00Z</time>
      </trkpt>
      <trkpt lat="48.61116" lon="-2.30897">
        <ele>35.2</ele>
        <time>2021-07-27T14:51:02Z</time>
      </trkpt>
      <trkpt lat="48.61113" lon="-2.30897">
        <ele>35.3</ele>
        <time>2021-07-27T14:51:03Z</time>
      </trkpt>
      <trkpt lat="48.61108" lon="-2.30899">
        <ele>35.7</ele>
        <time>2021-07-27T14:51:05Z</time>
      </trkpt>
      <trkpt lat="48.61104" lon="-2.30899">
        <ele>36</ele>
        <time>2021-07-27T14:51:07Z</time>
      </trkpt>
      <trkpt lat="48.61101" lon="-2.30899">
        <ele>36.2</ele>
        <time>2021-07-27T14:51:08Z</time>
      </trkpt>
      <trkpt lat="48.61099" lon="-2.30898">
        <ele>36.3</ele>
        <time>2021-07-27T14:51:09Z</time>
      </trkpt>
      <trkpt lat="48.61095" lon="-2.30896">
        <ele>36.6</ele>
        <time>2021-07-27T14:51:11Z</time>
      </trkpt>
      <trkpt lat="48.61092" lon="-2.30894">
        <ele>36.9</ele>
        <time>2021-07-27T14:51:12Z</time>
      </trkpt>
      <trkpt lat="48.6109" lon="-2.30893">
        <ele>37</ele>
        <time>2021-07-27T14:51:13Z</time>
      </trkpt>
      <trkpt lat="48.61087" lon="-2.30892">
        <ele>37.2</ele>
        <time>2021-07-27T14:51:15Z</time>
      </trkpt>
      <trkpt lat="48.61084" lon="-2.3089">
        <ele>37.4</ele>
        <time>2021-07-27T14:51:16Z</time>
      </trkpt>
      <trkpt lat="48.61081" lon="-2.30889">
        <ele>37.7</ele>
        <time>2021-07-27T14:51:17Z</time>
      </trkpt>
      <trkpt lat="48.6108" lon="-2.30888">
        <ele>37.8</ele>
        <time>2021-07-27T14:51:18Z</time>
      </trkpt>
      <trkpt lat="48.61076" lon="-2.30886">
        <ele>38</ele>
        <time>2021-07-27T14:51:20Z</time>
      </trkpt>
      <trkpt lat="48.61073" lon="-2.30883">
        <ele>38.3</ele>
        <time>2021-07-27T14:51:21Z</time>
      </trkpt>
      <trkpt lat="48.61072" lon="-2.30882">
        <ele>38.4</ele>
        <time>2021-07-27T14:51:22Z</time>
      </trkpt>
      <trkpt lat="48.61069" lon="-2.30879">
        <ele>38.6</ele>
        <time>2021-07-27T14:51:23Z</time>
      </trkpt>
      <trkpt lat="48.61068" lon="-2.30878">
        <ele>38.7</ele>
        <time>2021-07-27T14:51:24Z</time>
      </trkpt>
      <trkpt lat="48.61065" lon="-2.30876">
        <ele>38.9</ele>
        <time>2021-07-27T14:51:26Z</time>
      </trkpt>
      <trkpt lat="48.61062" lon="-2.30873">
        <ele>39.1</ele>
        <time>2021-07-27T14:51:28Z</time>
      </trkpt>
      <trkpt lat="48.61058" lon="-2.3087">
        <ele>39.4</ele>
        <time>2021-07-27T14:51:29Z</time>
      </trkpt>
      <trkpt lat="48.61054" lon="-2.30868">
        <ele>39.7</ele>
        <time>2021-07-27T14:51:31Z</time>
      </trkpt>
      <trkpt lat="48.61052" lon="-2.30867">
        <ele>39.7</ele>
        <time>2021-07-27T14:51:32Z</time>
      </trkpt>
      <trkpt lat="48.61048" lon="-2.30868">
        <ele>39.6</ele>
        <time>2021-07-27T14:51:34Z</time>
      </trkpt>
      <trkpt lat="48.61047" lon="-2.30869">
        <ele>39.6</ele>
        <time>2021-07-27T14:51:35Z</time>
      </trkpt>
      <trkpt lat="48.61045" lon="-2.30871">
        <ele>39.6</ele>
        <time>2021-07-27T14:51:36Z</time>
      </trkpt>
      <trkpt lat="48.61042" lon="-2.30875">
        <ele>39.5</ele>
        <time>2021-07-27T14:51:37Z</time>
      </trkpt>
      <trkpt lat="48.61039" lon="-2.3088">
        <ele>39.4</ele>
        <time>2021-07-27T14:51:38Z</time>
      </trkpt>
      <trkpt lat="48.61036" lon="-2.30884">
        <ele>39.3</ele>
        <time>2021-07-27T14:51:39Z</time>
      </trkpt>
      <trkpt lat="48.61034" lon="-2.30889">
        <ele>39.2</ele>
        <time>2021-07-27T14:51:40Z</time>
      </trkpt>
      <trkpt lat="48.61031" lon="-2.30894">
        <ele>39.1</ele>
        <time>2021-07-27T14:51:41Z</time>
      </trkpt>
      <trkpt lat="48.61025" lon="-2.30903">
        <ele>38.9</ele>
        <time>2021-07-27T14:51:43Z</time>
      </trkpt>
      <trkpt lat="48.61022" lon="-2.30909">
        <ele>38.9</ele>
        <time>2021-07-27T14:51:44Z</time>
      </trkpt>
      <trkpt lat="48.61017" lon="-2.30916">
        <ele>38.7</ele>
        <time>2021-07-27T14:51:46Z</time>
      </trkpt>
      <trkpt lat="48.61013" lon="-2.30921">
        <ele>38.6</ele>
        <time>2021-07-27T14:51:47Z</time>
      </trkpt>
      <trkpt lat="48.6101" lon="-2.30927">
        <ele>38.5</ele>
        <time>2021-07-27T14:51:48Z</time>
      </trkpt>
      <trkpt lat="48.61007" lon="-2.30931">
        <ele>38.4</ele>
        <time>2021-07-27T14:51:49Z</time>
      </trkpt>
      <trkpt lat="48.61003" lon="-2.30938">
        <ele>38.3</ele>
        <time>2021-07-27T14:51:51Z</time>
      </trkpt>
      <trkpt lat="48.61" lon="-2.30944">
        <ele>38.1</ele>
        <time>2021-07-27T14:51:52Z</time>
      </trkpt>
      <trkpt lat="48.60998" lon="-2.30949">
        <ele>37.9</ele>
        <time>2021-07-27T14:51:53Z</time>
      </trkpt>
      <trkpt lat="48.60995" lon="-2.30956">
        <ele>37.7</ele>
        <time>2021-07-27T14:51:54Z</time>
      </trkpt>
      <trkpt lat="48.60989" lon="-2.30969">
        <ele>37.3</ele>
        <time>2021-07-27T14:51:56Z</time>
      </trkpt>
      <trkpt lat="48.60983" lon="-2.30983">
        <ele>36.9</ele>
        <time>2021-07-27T14:51:58Z</time>
      </trkpt>
      <trkpt lat="48.60977" lon="-2.30997">
        <ele>36.4</ele>
        <time>2021-07-27T14:52:00Z</time>
      </trkpt>
      <trkpt lat="48.60974" lon="-2.31004">
        <ele>36.2</ele>
        <time>2021-07-27T14:52:01Z</time>
      </trkpt>
      <trkpt lat="48.60971" lon="-2.31012">
        <ele>35.9</ele>
        <time>2021-07-27T14:52:02Z</time>
      </trkpt>
      <trkpt lat="48.60965" lon="-2.31028">
        <ele>35.4</ele>
        <time>2021-07-27T14:52:04Z</time>
      </trkpt>
      <trkpt lat="48.60959" lon="-2.31045">
        <ele>34.8</ele>
        <time>2021-07-27T14:52:06Z</time>
      </trkpt>
      <trkpt lat="48.60952" lon="-2.31061">
        <ele>34.2</ele>
        <time>2021-07-27T14:52:08Z</time>
      </trkpt>
      <trkpt lat="48.60949" lon="-2.3107">
        <ele>33.8</ele>
        <time>2021-07-27T14:52:09Z</time>
      </trkpt>
      <trkpt lat="48.60942" lon="-2.31088">
        <ele>33.2</ele>
        <time>2021-07-27T14:52:11Z</time>
      </trkpt>
      <trkpt lat="48.60938" lon="-2.31097">
        <ele>32.8</ele>
        <time>2021-07-27T14:52:12Z</time>
      </trkpt>
      <trkpt lat="48.60935" lon="-2.31106">
        <ele>32.5</ele>
        <time>2021-07-27T14:52:13Z</time>
      </trkpt>
      <trkpt lat="48.60931" lon="-2.31115">
        <ele>32.1</ele>
        <time>2021-07-27T14:52:14Z</time>
      </trkpt>
      <trkpt lat="48.60927" lon="-2.31123">
        <ele>31.7</ele>
        <time>2021-07-27T14:52:15Z</time>
      </trkpt>
      <trkpt lat="48.60918" lon="-2.31133">
        <ele>30.8</ele>
        <time>2021-07-27T14:52:17Z</time>
      </trkpt>
      <trkpt lat="48.60911" lon="-2.31136">
        <ele>30</ele>
        <time>2021-07-27T14:52:19Z</time>
      </trkpt>
      <trkpt lat="48.60909" lon="-2.31139">
        <ele>29.5</ele>
        <time>2021-07-27T14:52:20Z</time>
      </trkpt>
      <trkpt lat="48.60905" lon="-2.31149">
        <ele>28.7</ele>
        <time>2021-07-27T14:52:22Z</time>
      </trkpt>
      <trkpt lat="48.60905" lon="-2.31163">
        <ele>28</ele>
        <time>2021-07-27T14:52:24Z</time>
      </trkpt>
      <trkpt lat="48.60909" lon="-2.31178">
        <ele>27.3</ele>
        <time>2021-07-27T14:52:26Z</time>
      </trkpt>
      <trkpt lat="48.60914" lon="-2.31194">
        <ele>26.6</ele>
        <time>2021-07-27T14:52:28Z</time>
      </trkpt>
      <trkpt lat="48.60917" lon="-2.31211">
        <ele>25.9</ele>
        <time>2021-07-27T14:52:30Z</time>
      </trkpt>
      <trkpt lat="48.60921" lon="-2.3123">
        <ele>25</ele>
        <time>2021-07-27T14:52:32Z</time>
      </trkpt>
      <trkpt lat="48.60923" lon="-2.3124">
        <ele>24.6</ele>
        <time>2021-07-27T14:52:33Z</time>
      </trkpt>
      <trkpt lat="48.60925" lon="-2.3125">
        <ele>24.2</ele>
        <time>2021-07-27T14:52:34Z</time>
      </trkpt>
      <trkpt lat="48.60929" lon="-2.31271">
        <ele>23.3</ele>
        <time>2021-07-27T14:52:36Z</time>
      </trkpt>
      <trkpt lat="48.60933" lon="-2.3129">
        <ele>22.4</ele>
        <time>2021-07-27T14:52:38Z</time>
      </trkpt>
      <trkpt lat="48.60937" lon="-2.3131">
        <ele>21.6</ele>
        <time>2021-07-27T14:52:40Z</time>
      </trkpt>
      <trkpt lat="48.60939" lon="-2.31321">
        <ele>21.1</ele>
        <time>2021-07-27T14:52:41Z</time>
      </trkpt>
      <trkpt lat="48.60941" lon="-2.31332">
        <ele>20.6</ele>
        <time>2021-07-27T14:52:42Z</time>
      </trkpt>
      <trkpt lat="48.60945" lon="-2.31354">
        <ele>19.6</ele>
        <time>2021-07-27T14:52:44Z</time>
      </trkpt>
      <trkpt lat="48.60947" lon="-2.31366">
        <ele>19.1</ele>
        <time>2021-07-27T14:52:45Z</time>
      </trkpt>
      <trkpt lat="48.60952" lon="-2.31389">
        <ele>18</ele>
        <time>2021-07-27T14:52:47Z</time>
      </trkpt>
      <trkpt lat="48.60955" lon="-2.31401">
        <ele>17.5</ele>
        <time>2021-07-27T14:52:48Z</time>
      </trkpt>
      <trkpt lat="48.60959" lon="-2.31413">
        <ele>16.9</ele>
        <time>2021-07-27T14:52:49Z</time>
      </trkpt>
      <trkpt lat="48.60962" lon="-2.31425">
        <ele>16.4</ele>
        <time>2021-07-27T14:52:50Z</time>
      </trkpt>
      <trkpt lat="48.60965" lon="-2.31437">
        <ele>15.9</ele>
        <time>2021-07-27T14:52:51Z</time>
      </trkpt>
      <trkpt lat="48.60968" lon="-2.3146">
        <ele>15</ele>
        <time>2021-07-27T14:52:53Z</time>
      </trkpt>
      <trkpt lat="48.6097" lon="-2.3147">
        <ele>14.5</ele>
        <time>2021-07-27T14:52:54Z</time>
      </trkpt>
      <trkpt lat="48.60972" lon="-2.31481">
        <ele>14.1</ele>
        <time>2021-07-27T14:52:55Z</time>
      </trkpt>
      <trkpt lat="48.60974" lon="-2.31491">
        <ele>13.6</ele>
        <time>2021-07-27T14:52:56Z</time>
      </trkpt>
      <trkpt lat="48.60976" lon="-2.31502">
        <ele>13.2</ele>
        <time>2021-07-27T14:52:57Z</time>
      </trkpt>
      <trkpt lat="48.60978" lon="-2.31514">
        <ele>12.7</ele>
        <time>2021-07-27T14:52:58Z</time>
      </trkpt>
      <trkpt lat="48.60981" lon="-2.31536">
        <ele>11.8</ele>
        <time>2021-07-27T14:53:00Z</time>
      </trkpt>
      <trkpt lat="48.60985" lon="-2.31559">
        <ele>10.9</ele>
        <time>2021-07-27T14:53:02Z</time>
      </trkpt>
      <trkpt lat="48.60986" lon="-2.3157">
        <ele>10.5</ele>
        <time>2021-07-27T14:53:03Z</time>
      </trkpt>
      <trkpt lat="48.60988" lon="-2.31588">
        <ele>9.8</ele>
        <time>2021-07-27T14:53:05Z</time>
      </trkpt>
      <trkpt lat="48.60989" lon="-2.31595">
        <ele>9.6</ele>
        <time>2021-07-27T14:53:06Z</time>
      </trkpt>
      <trkpt lat="48.60991" lon="-2.3161">
        <ele>9.2</ele>
        <time>2021-07-27T14:53:08Z</time>
      </trkpt>
      <trkpt lat="48.60994" lon="-2.31616">
        <ele>9.1</ele>
        <time>2021-07-27T14:53:09Z</time>
      </trkpt>
      <trkpt lat="48.61001" lon="-2.31631">
        <ele>8.9</ele>
        <time>2021-07-27T14:53:11Z</time>
      </trkpt>
      <trkpt lat="48.61004" lon="-2.31639">
        <ele>8.7</ele>
        <time>2021-07-27T14:53:12Z</time>
      </trkpt>
      <trkpt lat="48.61008" lon="-2.31647">
        <ele>8.4</ele>
        <time>2021-07-27T14:53:14Z</time>
      </trkpt>
      <trkpt lat="48.61014" lon="-2.31658">
        <ele>8.1</ele>
        <time>2021-07-27T14:53:15Z</time>
      </trkpt>
      <trkpt lat="48.61014" lon="-2.31659">
        <ele>8</ele>
        <time>2021-07-27T14:53:16Z</time>
      </trkpt>
      <trkpt lat="48.61015" lon="-2.3166">
        <ele>8</ele>
        <time>2021-07-27T14:53:17Z</time>
      </trkpt>
      <trkpt lat="48.61017" lon="-2.31657">
        <ele>8</ele>
        <time>2021-07-27T14:53:19Z</time>
      </trkpt>
      <trkpt lat="48.61016" lon="-2.31655">
        <ele>7.9</ele>
        <time>2021-07-27T14:53:20Z</time>
      </trkpt>
      <trkpt lat="48.61013" lon="-2.31651">
        <ele>7.8</ele>
        <time>2021-07-27T14:53:22Z</time>
      </trkpt>
      <trkpt lat="48.61009" lon="-2.31653">
        <ele>7.7</ele>
        <time>2021-07-27T14:53:23Z</time>
      </trkpt>
      <trkpt lat="48.61008" lon="-2.31657">
        <ele>7.6</ele>
        <time>2021-07-27T14:53:24Z</time>
      </trkpt>
      <trkpt lat="48.61007" lon="-2.31658">
        <ele>7.6</ele>
        <time>2021-07-27T14:53:25Z</time>
      </trkpt>
      <trkpt lat="48.6101" lon="-2.3166">
        <ele>7.6</ele>
        <time>2021-07-27T14:53:27Z</time>
      </trkpt>
      <trkpt lat="48.61011" lon="-2.3166">
        <ele>7.5</ele>
        <time>2021-07-27T14:53:28Z</time>
      </trkpt>
      <trkpt lat="48.61012" lon="-2.31659">
        <ele>7.5</ele>
        <time>2021-07-27T14:53:30Z</time>
      </trkpt>
      <trkpt lat="48.61013" lon="-2.31658">
        <ele>7.5</ele>
        <time>2021-07-27T14:53:31Z</time>
      </trkpt>
      <trkpt lat="48.61015" lon="-2.31656">
        <ele>7.5</ele>
        <time>2021-07-27T14:53:32Z</time>
      </trkpt>
      <trkpt lat="48.61016" lon="-2.31656">
        <ele>7.4</ele>
        <time>2021-07-27T14:53:34Z</time>
      </trkpt>
      <trkpt lat="48.61017" lon="-2.31656">
        <ele>7.4</ele>
        <time>2021-07-27T14:53:35Z</time>
      </trkpt>
      <trkpt lat="48.6102" lon="-2.31658">
        <ele>7.3</ele>
        <time>2021-07-27T14:53:36Z</time>
      </trkpt>
      <trkpt lat="48.6103" lon="-2.31666">
        <ele>7.2</ele>
        <time>2021-07-27T14:53:38Z</time>
      </trkpt>
      <trkpt lat="48.61039" lon="-2.31676">
        <ele>7.1</ele>
        <time>2021-07-27T14:53:40Z</time>
      </trkpt>
      <trkpt lat="48.61043" lon="-2.31681">
        <ele>7</ele>
        <time>2021-07-27T14:53:41Z</time>
      </trkpt>
      <trkpt lat="48.61052" lon="-2.3169">
        <ele>7</ele>
        <time>2021-07-27T14:53:43Z</time>
      </trkpt>
      <trkpt lat="48.61056" lon="-2.31695">
        <ele>7</ele>
        <time>2021-07-27T14:53:44Z</time>
      </trkpt>
      <trkpt lat="48.61065" lon="-2.31704">
        <ele>6.9</ele>
        <time>2021-07-27T14:53:46Z</time>
      </trkpt>
      <trkpt lat="48.6107" lon="-2.31709">
        <ele>6.9</ele>
        <time>2021-07-27T14:53:47Z</time>
      </trkpt>
      <trkpt lat="48.61079" lon="-2.31718">
        <ele>6.9</ele>
        <time>2021-07-27T14:53:49Z</time>
      </trkpt>
      <trkpt lat="48.61083" lon="-2.31723">
        <ele>6.9</ele>
        <time>2021-07-27T14:53:50Z</time>
      </trkpt>
      <trkpt lat="48.61088" lon="-2.31727">
        <ele>6.9</ele>
        <time>2021-07-27T14:53:51Z</time>
      </trkpt>
      <trkpt lat="48.61092" lon="-2.31732">
        <ele>6.9</ele>
        <time>2021-07-27T14:53:52Z</time>
      </trkpt>
      <trkpt lat="48.61101" lon="-2.31741">
        <ele>6.9</ele>
        <time>2021-07-27T14:53:54Z</time>
      </trkpt>
      <trkpt lat="48.61106" lon="-2.31746">
        <ele>6.9</ele>
        <time>2021-07-27T14:53:55Z</time>
      </trkpt>
      <trkpt lat="48.61115" lon="-2.31755">
        <ele>7</ele>
        <time>2021-07-27T14:53:57Z</time>
      </trkpt>
      <trkpt lat="48.61119" lon="-2.3176">
        <ele>7</ele>
        <time>2021-07-27T14:53:58Z</time>
      </trkpt>
      <trkpt lat="48.61129" lon="-2.3177">
        <ele>7</ele>
        <time>2021-07-27T14:54:00Z</time>
      </trkpt>
      <trkpt lat="48.61138" lon="-2.3178">
        <ele>7</ele>
        <time>2021-07-27T14:54:02Z</time>
      </trkpt>
      <trkpt lat="48.61143" lon="-2.31785">
        <ele>7</ele>
        <time>2021-07-27T14:54:03Z</time>
      </trkpt>
      <trkpt lat="48.61147" lon="-2.3179">
        <ele>7.1</ele>
        <time>2021-07-27T14:54:04Z</time>
      </trkpt>
      <trkpt lat="48.61157" lon="-2.318">
        <ele>7.1</ele>
        <time>2021-07-27T14:54:06Z</time>
      </trkpt>
      <trkpt lat="48.61167" lon="-2.3181">
        <ele>7.2</ele>
        <time>2021-07-27T14:54:08Z</time>
      </trkpt>
      <trkpt lat="48.61172" lon="-2.31815">
        <ele>7.2</ele>
        <time>2021-07-27T14:54:09Z</time>
      </trkpt>
      <trkpt lat="48.61177" lon="-2.3182">
        <ele>7.2</ele>
        <time>2021-07-27T14:54:10Z</time>
      </trkpt>
      <trkpt lat="48.61186" lon="-2.31829">
        <ele>7.2</ele>
        <time>2021-07-27T14:54:12Z</time>
      </trkpt>
      <trkpt lat="48.61195" lon="-2.31839">
        <ele>7.3</ele>
        <time>2021-07-27T14:54:14Z</time>
      </trkpt>
      <trkpt lat="48.612" lon="-2.31844">
        <ele>7.3</ele>
        <time>2021-07-27T14:54:15Z</time>
      </trkpt>
      <trkpt lat="48.61209" lon="-2.31854">
        <ele>7.3</ele>
        <time>2021-07-27T14:54:17Z</time>
      </trkpt>
      <trkpt lat="48.61213" lon="-2.31859">
        <ele>7.3</ele>
        <time>2021-07-27T14:54:18Z</time>
      </trkpt>
      <trkpt lat="48.61222" lon="-2.31868">
        <ele>7.3</ele>
        <time>2021-07-27T14:54:20Z</time>
      </trkpt>
      <trkpt lat="48.61227" lon="-2.31872">
        <ele>7.3</ele>
        <time>2021-07-27T14:54:21Z</time>
      </trkpt>
      <trkpt lat="48.61236" lon="-2.31882">
        <ele>7.3</ele>
        <time>2021-07-27T14:54:23Z</time>
      </trkpt>
      <trkpt lat="48.61241" lon="-2.31887">
        <ele>7.3</ele>
        <time>2021-07-27T14:54:24Z</time>
      </trkpt>
      <trkpt lat="48.6125" lon="-2.31897">
        <ele>7.3</ele>
        <time>2021-07-27T14:54:26Z</time>
      </trkpt>
      <trkpt lat="48.61255" lon="-2.31902">
        <ele>7.3</ele>
        <time>2021-07-27T14:54:27Z</time>
      </trkpt>
      <trkpt lat="48.61264" lon="-2.31911">
        <ele>7.3</ele>
        <time>2021-07-27T14:54:29Z</time>
      </trkpt>
      <trkpt lat="48.61268" lon="-2.31916">
        <ele>7.3</ele>
        <time>2021-07-27T14:54:30Z</time>
      </trkpt>
      <trkpt lat="48.61273" lon="-2.3192">
        <ele>7.3</ele>
        <time>2021-07-27T14:54:31Z</time>
      </trkpt>
      <trkpt lat="48.61282" lon="-2.31929">
        <ele>7.4</ele>
        <time>2021-07-27T14:54:33Z</time>
      </trkpt>
      <trkpt lat="48.61287" lon="-2.31934">
        <ele>7.4</ele>
        <time>2021-07-27T14:54:34Z</time>
      </trkpt>
      <trkpt lat="48.61296" lon="-2.31944">
        <ele>7.5</ele>
        <time>2021-07-27T14:54:36Z</time>
      </trkpt>
      <trkpt lat="48.613" lon="-2.31949">
        <ele>7.5</ele>
        <time>2021-07-27T14:54:37Z</time>
      </trkpt>
      <trkpt lat="48.61309" lon="-2.31959">
        <ele>7.5</ele>
        <time>2021-07-27T14:54:39Z</time>
      </trkpt>
      <trkpt lat="48.61318" lon="-2.3197">
        <ele>7.6</ele>
        <time>2021-07-27T14:54:41Z</time>
      </trkpt>
      <trkpt lat="48.61322" lon="-2.31975">
        <ele>7.6</ele>
        <time>2021-07-27T14:54:42Z</time>
      </trkpt>
      <trkpt lat="48.61329" lon="-2.31989">
        <ele>7.6</ele>
        <time>2021-07-27T14:54:44Z</time>
      </trkpt>
      <trkpt lat="48.61335" lon="-2.32002">
        <ele>7.7</ele>
        <time>2021-07-27T14:54:46Z</time>
      </trkpt>
      <trkpt lat="48.61338" lon="-2.3201">
        <ele>7.7</ele>
        <time>2021-07-27T14:54:47Z</time>
      </trkpt>
      <trkpt lat="48.6134" lon="-2.32017">
        <ele>7.8</ele>
        <time>2021-07-27T14:54:48Z</time>
      </trkpt>
      <trkpt lat="48.61343" lon="-2.32034">
        <ele>7.8</ele>
        <time>2021-07-27T14:54:50Z</time>
      </trkpt>
      <trkpt lat="48.61345" lon="-2.32042">
        <ele>7.9</ele>
        <time>2021-07-27T14:54:51Z</time>
      </trkpt>
      <trkpt lat="48.61346" lon="-2.32059">
        <ele>7.9</ele>
        <time>2021-07-27T14:54:53Z</time>
      </trkpt>
      <trkpt lat="48.61347" lon="-2.32067">
        <ele>8</ele>
        <time>2021-07-27T14:54:54Z</time>
      </trkpt>
      <trkpt lat="48.61347" lon="-2.32075">
        <ele>8</ele>
        <time>2021-07-27T14:54:55Z</time>
      </trkpt>
      <trkpt lat="48.61346" lon="-2.32092">
        <ele>8.1</ele>
        <time>2021-07-27T14:54:57Z</time>
      </trkpt>
      <trkpt lat="48.61346" lon="-2.32109">
        <ele>8.1</ele>
        <time>2021-07-27T14:54:59Z</time>
      </trkpt>
      <trkpt lat="48.61345" lon="-2.32125">
        <ele>8.2</ele>
        <time>2021-07-27T14:55:01Z</time>
      </trkpt>
      <trkpt lat="48.61345" lon="-2.32141">
        <ele>8.4</ele>
        <time>2021-07-27T14:55:03Z</time>
      </trkpt>
      <trkpt lat="48.61345" lon="-2.32156">
        <ele>8.7</ele>
        <time>2021-07-27T14:55:05Z</time>
      </trkpt>
      <trkpt lat="48.61345" lon="-2.32163">
        <ele>8.8</ele>
        <time>2021-07-27T14:55:06Z</time>
      </trkpt>
      <trkpt lat="48.61344" lon="-2.32177">
        <ele>9</ele>
        <time>2021-07-27T14:55:08Z</time>
      </trkpt>
      <trkpt lat="48.61344" lon="-2.32184">
        <ele>9.2</ele>
        <time>2021-07-27T14:55:10Z</time>
      </trkpt>
      <trkpt lat="48.61344" lon="-2.32197">
        <ele>9.4</ele>
        <time>2021-07-27T14:55:11Z</time>
      </trkpt>
      <trkpt lat="48.61343" lon="-2.32211">
        <ele>9.7</ele>
        <time>2021-07-27T14:55:13Z</time>
      </trkpt>
      <trkpt lat="48.61343" lon="-2.32224">
        <ele>9.9</ele>
        <time>2021-07-27T14:55:15Z</time>
      </trkpt>
      <trkpt lat="48.61343" lon="-2.32238">
        <ele>10.2</ele>
        <time>2021-07-27T14:55:17Z</time>
      </trkpt>
      <trkpt lat="48.61342" lon="-2.32244">
        <ele>10.3</ele>
        <time>2021-07-27T14:55:18Z</time>
      </trkpt>
      <trkpt lat="48.61342" lon="-2.32249">
        <ele>10.3</ele>
        <time>2021-07-27T14:55:19Z</time>
      </trkpt>
      <trkpt lat="48.61342" lon="-2.32257">
        <ele>10.3</ele>
        <time>2021-07-27T14:55:21Z</time>
      </trkpt>
      <trkpt lat="48.61343" lon="-2.32262">
        <ele>10.3</ele>
        <time>2021-07-27T14:55:22Z</time>
      </trkpt>
      <trkpt lat="48.61347" lon="-2.32263">
        <ele>10.7</ele>
        <time>2021-07-27T14:55:24Z</time>
      </trkpt>
      <trkpt lat="48.61349" lon="-2.32259">
        <ele>11</ele>
        <time>2021-07-27T14:55:25Z</time>
      </trkpt>
      <trkpt lat="48.6135" lon="-2.32256">
        <ele>11.3</ele>
        <time>2021-07-27T14:55:26Z</time>
      </trkpt>
      <trkpt lat="48.61354" lon="-2.3225">
        <ele>11.8</ele>
        <time>2021-07-27T14:55:28Z</time>
      </trkpt>
      <trkpt lat="48.61358" lon="-2.32245">
        <ele>12.2</ele>
        <time>2021-07-27T14:55:30Z</time>
      </trkpt>
      <trkpt lat="48.61361" lon="-2.32242">
        <ele>12.5</ele>
        <time>2021-07-27T14:55:31Z</time>
      </trkpt>
      <trkpt lat="48.61366" lon="-2.32237">
        <ele>13</ele>
        <time>2021-07-27T14:55:33Z</time>
      </trkpt>
      <trkpt lat="48.61369" lon="-2.32234">
        <ele>13.3</ele>
        <time>2021-07-27T14:55:35Z</time>
      </trkpt>
      <trkpt lat="48.61373" lon="-2.3223">
        <ele>13.7</ele>
        <time>2021-07-27T14:55:36Z</time>
      </trkpt>
      <trkpt lat="48.61376" lon="-2.32227">
        <ele>14</ele>
        <time>2021-07-27T14:55:37Z</time>
      </trkpt>
      <trkpt lat="48.61381" lon="-2.32221">
        <ele>14.5</ele>
        <time>2021-07-27T14:55:39Z</time>
      </trkpt>
      <trkpt lat="48.61384" lon="-2.32219">
        <ele>14.8</ele>
        <time>2021-07-27T14:55:40Z</time>
      </trkpt>
      <trkpt lat="48.61387" lon="-2.32216">
        <ele>15</ele>
        <time>2021-07-27T14:55:41Z</time>
      </trkpt>
      <trkpt lat="48.61392" lon="-2.32212">
        <ele>15.5</ele>
        <time>2021-07-27T14:55:43Z</time>
      </trkpt>
      <trkpt lat="48.61395" lon="-2.32209">
        <ele>15.8</ele>
        <time>2021-07-27T14:55:44Z</time>
      </trkpt>
      <trkpt lat="48.614" lon="-2.32205">
        <ele>16.3</ele>
        <time>2021-07-27T14:55:46Z</time>
      </trkpt>
      <trkpt lat="48.61405" lon="-2.32201">
        <ele>16.8</ele>
        <time>2021-07-27T14:55:48Z</time>
      </trkpt>
      <trkpt lat="48.61408" lon="-2.32199">
        <ele>17.1</ele>
        <time>2021-07-27T14:55:49Z</time>
      </trkpt>
      <trkpt lat="48.61411" lon="-2.32197">
        <ele>17.4</ele>
        <time>2021-07-27T14:55:51Z</time>
      </trkpt>
      <trkpt lat="48.61413" lon="-2.32196">
        <ele>17.7</ele>
        <time>2021-07-27T14:55:52Z</time>
      </trkpt>
      <trkpt lat="48.61417" lon="-2.32194">
        <ele>18.1</ele>
        <time>2021-07-27T14:55:53Z</time>
      </trkpt>
      <trkpt lat="48.6142" lon="-2.32193">
        <ele>18.4</ele>
        <time>2021-07-27T14:55:54Z</time>
      </trkpt>
      <trkpt lat="48.61425" lon="-2.32191">
        <ele>19</ele>
        <time>2021-07-27T14:55:56Z</time>
      </trkpt>
      <trkpt lat="48.6143" lon="-2.32189">
        <ele>19.5</ele>
        <time>2021-07-27T14:55:58Z</time>
      </trkpt>
      <trkpt lat="48.61433" lon="-2.32187">
        <ele>19.9</ele>
        <time>2021-07-27T14:55:59Z</time>
      </trkpt>
      <trkpt lat="48.61436" lon="-2.32186">
        <ele>20.2</ele>
        <time>2021-07-27T14:56:01Z</time>
      </trkpt>
      <trkpt lat="48.61439" lon="-2.32184">
        <ele>20.6</ele>
        <time>2021-07-27T14:56:02Z</time>
      </trkpt>
      <trkpt lat="48.61442" lon="-2.32182">
        <ele>20.9</ele>
        <time>2021-07-27T14:56:03Z</time>
      </trkpt>
      <trkpt lat="48.61444" lon="-2.32181">
        <ele>21.3</ele>
        <time>2021-07-27T14:56:04Z</time>
      </trkpt>
      <trkpt lat="48.61448" lon="-2.32179">
        <ele>21.7</ele>
        <time>2021-07-27T14:56:06Z</time>
      </trkpt>
      <trkpt lat="48.61451" lon="-2.32177">
        <ele>22</ele>
        <time>2021-07-27T14:56:07Z</time>
      </trkpt>
      <trkpt lat="48.61453" lon="-2.32177">
        <ele>22.4</ele>
        <time>2021-07-27T14:56:08Z</time>
      </trkpt>
      <trkpt lat="48.61456" lon="-2.32175">
        <ele>22.7</ele>
        <time>2021-07-27T14:56:09Z</time>
      </trkpt>
      <trkpt lat="48.6146" lon="-2.32176">
        <ele>23.1</ele>
        <time>2021-07-27T14:56:11Z</time>
      </trkpt>
      <trkpt lat="48.61462" lon="-2.32176">
        <ele>23.3</ele>
        <time>2021-07-27T14:56:12Z</time>
      </trkpt>
      <trkpt lat="48.61466" lon="-2.32176">
        <ele>23.8</ele>
        <time>2021-07-27T14:56:13Z</time>
      </trkpt>
      <trkpt lat="48.61469" lon="-2.32176">
        <ele>24.1</ele>
        <time>2021-07-27T14:56:15Z</time>
      </trkpt>
      <trkpt lat="48.61472" lon="-2.32176">
        <ele>24.5</ele>
        <time>2021-07-27T14:56:16Z</time>
      </trkpt>
      <trkpt lat="48.61475" lon="-2.32177">
        <ele>24.8</ele>
        <time>2021-07-27T14:56:17Z</time>
      </trkpt>
      <trkpt lat="48.61479" lon="-2.32178">
        <ele>25.2</ele>
        <time>2021-07-27T14:56:18Z</time>
      </trkpt>
      <trkpt lat="48.61481" lon="-2.32178">
        <ele>25.4</ele>
        <time>2021-07-27T14:56:19Z</time>
      </trkpt>
      <trkpt lat="48.61484" lon="-2.32178">
        <ele>25.7</ele>
        <time>2021-07-27T14:56:21Z</time>
      </trkpt>
      <trkpt lat="48.61488" lon="-2.32179">
        <ele>26.1</ele>
        <time>2021-07-27T14:56:22Z</time>
      </trkpt>
      <trkpt lat="48.61491" lon="-2.3218">
        <ele>26.4</ele>
        <time>2021-07-27T14:56:23Z</time>
      </trkpt>
      <trkpt lat="48.61495" lon="-2.32181">
        <ele>26.8</ele>
        <time>2021-07-27T14:56:25Z</time>
      </trkpt>
      <trkpt lat="48.61498" lon="-2.32181">
        <ele>27</ele>
        <time>2021-07-27T14:56:26Z</time>
      </trkpt>
      <trkpt lat="48.61502" lon="-2.32182">
        <ele>27.3</ele>
        <time>2021-07-27T14:56:28Z</time>
      </trkpt>
      <trkpt lat="48.61506" lon="-2.32183">
        <ele>27.5</ele>
        <time>2021-07-27T14:56:29Z</time>
      </trkpt>
      <trkpt lat="48.6151" lon="-2.32184">
        <ele>27.8</ele>
        <time>2021-07-27T14:56:30Z</time>
      </trkpt>
      <trkpt lat="48.61511" lon="-2.32184">
        <ele>27.8</ele>
        <time>2021-07-27T14:56:31Z</time>
      </trkpt>
      <trkpt lat="48.61513" lon="-2.32184">
        <ele>28</ele>
        <time>2021-07-27T14:56:32Z</time>
      </trkpt>
      <trkpt lat="48.61517" lon="-2.32184">
        <ele>28.1</ele>
        <time>2021-07-27T14:56:34Z</time>
      </trkpt>
      <trkpt lat="48.61521" lon="-2.32185">
        <ele>28.3</ele>
        <time>2021-07-27T14:56:35Z</time>
      </trkpt>
      <trkpt lat="48.61524" lon="-2.32185">
        <ele>28.4</ele>
        <time>2021-07-27T14:56:36Z</time>
      </trkpt>
      <trkpt lat="48.61527" lon="-2.32186">
        <ele>28.5</ele>
        <time>2021-07-27T14:56:37Z</time>
      </trkpt>
      <trkpt lat="48.61532" lon="-2.32187">
        <ele>28.7</ele>
        <time>2021-07-27T14:56:39Z</time>
      </trkpt>
      <trkpt lat="48.61535" lon="-2.32187">
        <ele>28.8</ele>
        <time>2021-07-27T14:56:40Z</time>
      </trkpt>
      <trkpt lat="48.6154" lon="-2.32187">
        <ele>28.9</ele>
        <time>2021-07-27T14:56:42Z</time>
      </trkpt>
      <trkpt lat="48.61543" lon="-2.32187">
        <ele>29</ele>
        <time>2021-07-27T14:56:43Z</time>
      </trkpt>
      <trkpt lat="48.61548" lon="-2.32188">
        <ele>29.1</ele>
        <time>2021-07-27T14:56:45Z</time>
      </trkpt>
      <trkpt lat="48.61551" lon="-2.32188">
        <ele>29.2</ele>
        <time>2021-07-27T14:56:46Z</time>
      </trkpt>
      <trkpt lat="48.61554" lon="-2.32188">
        <ele>29.3</ele>
        <time>2021-07-27T14:56:47Z</time>
      </trkpt>
      <trkpt lat="48.61558" lon="-2.32189">
        <ele>29.4</ele>
        <time>2021-07-27T14:56:49Z</time>
      </trkpt>
      <trkpt lat="48.61562" lon="-2.32189">
        <ele>29.5</ele>
        <time>2021-07-27T14:56:50Z</time>
      </trkpt>
      <trkpt lat="48.61565" lon="-2.3219">
        <ele>29.5</ele>
        <time>2021-07-27T14:56:51Z</time>
      </trkpt>
      <trkpt lat="48.61568" lon="-2.3219">
        <ele>29.6</ele>
        <time>2021-07-27T14:56:53Z</time>
      </trkpt>
      <trkpt lat="48.61571" lon="-2.32191">
        <ele>29.7</ele>
        <time>2021-07-27T14:56:54Z</time>
      </trkpt>
      <trkpt lat="48.61575" lon="-2.32192">
        <ele>29.7</ele>
        <time>2021-07-27T14:56:55Z</time>
      </trkpt>
      <trkpt lat="48.61579" lon="-2.32193">
        <ele>29.8</ele>
        <time>2021-07-27T14:56:56Z</time>
      </trkpt>
      <trkpt lat="48.61582" lon="-2.32194">
        <ele>29.9</ele>
        <time>2021-07-27T14:56:58Z</time>
      </trkpt>
      <trkpt lat="48.61586" lon="-2.32195">
        <ele>29.9</ele>
        <time>2021-07-27T14:56:59Z</time>
      </trkpt>
      <trkpt lat="48.61589" lon="-2.32196">
        <ele>30</ele>
        <time>2021-07-27T14:57:00Z</time>
      </trkpt>
      <trkpt lat="48.61591" lon="-2.32197">
        <ele>30</ele>
        <time>2021-07-27T14:57:01Z</time>
      </trkpt>
      <trkpt lat="48.61596" lon="-2.322">
        <ele>30.1</ele>
        <time>2021-07-27T14:57:03Z</time>
      </trkpt>
      <trkpt lat="48.61599" lon="-2.32202">
        <ele>30.2</ele>
        <time>2021-07-27T14:57:05Z</time>
      </trkpt>
      <trkpt lat="48.61602" lon="-2.32204">
        <ele>30.3</ele>
        <time>2021-07-27T14:57:06Z</time>
      </trkpt>
      <trkpt lat="48.61605" lon="-2.32207">
        <ele>30.4</ele>
        <time>2021-07-27T14:57:07Z</time>
      </trkpt>
      <trkpt lat="48.61608" lon="-2.32211">
        <ele>30.6</ele>
        <time>2021-07-27T14:57:09Z</time>
      </trkpt>
      <trkpt lat="48.61611" lon="-2.32214">
        <ele>30.7</ele>
        <time>2021-07-27T14:57:10Z</time>
      </trkpt>
      <trkpt lat="48.61612" lon="-2.32216">
        <ele>30.8</ele>
        <time>2021-07-27T14:57:11Z</time>
      </trkpt>
      <trkpt lat="48.61613" lon="-2.32215">
        <ele>30.8</ele>
        <time>2021-07-27T14:57:13Z</time>
      </trkpt>
      <trkpt lat="48.61612" lon="-2.32214">
        <ele>30.8</ele>
        <time>2021-07-27T14:57:15Z</time>
      </trkpt>
      <trkpt lat="48.61612" lon="-2.32214">
        <ele>30.9</ele>
        <time>2021-07-27T14:57:16Z</time>
      </trkpt>
      <trkpt lat="48.61612" lon="-2.32213">
        <ele>30.9</ele>
        <time>2021-07-27T14:57:18Z</time>
      </trkpt>
      <trkpt lat="48.61611" lon="-2.32213">
        <ele>30.9</ele>
        <time>2021-07-27T14:57:19Z</time>
      </trkpt>
      <trkpt lat="48.61611" lon="-2.32213">
        <ele>30.9</ele>
        <time>2021-07-27T14:57:21Z</time>
      </trkpt>
      <trkpt lat="48.61614" lon="-2.32218">
        <ele>31.1</ele>
        <time>2021-07-27T14:57:52Z</time>
      </trkpt>
      <trkpt lat="48.61617" lon="-2.3222">
        <ele>31.2</ele>
        <time>2021-07-27T14:57:53Z</time>
      </trkpt>
      <trkpt lat="48.61619" lon="-2.32224">
        <ele>31.4</ele>
        <time>2021-07-27T14:57:54Z</time>
      </trkpt>
      <trkpt lat="48.61623" lon="-2.32229">
        <ele>31.6</ele>
        <time>2021-07-27T14:57:56Z</time>
      </trkpt>
      <trkpt lat="48.61625" lon="-2.32234">
        <ele>31.8</ele>
        <time>2021-07-27T14:57:57Z</time>
      </trkpt>
      <trkpt lat="48.61628" lon="-2.32238">
        <ele>32.1</ele>
        <time>2021-07-27T14:57:58Z</time>
      </trkpt>
      <trkpt lat="48.6163" lon="-2.32243">
        <ele>32.3</ele>
        <time>2021-07-27T14:57:59Z</time>
      </trkpt>
      <trkpt lat="48.61634" lon="-2.32251">
        <ele>32.7</ele>
        <time>2021-07-27T14:58:01Z</time>
      </trkpt>
      <trkpt lat="48.61637" lon="-2.32256">
        <ele>33</ele>
        <time>2021-07-27T14:58:02Z</time>
      </trkpt>
      <trkpt lat="48.61639" lon="-2.32261">
        <ele>33.2</ele>
        <time>2021-07-27T14:58:03Z</time>
      </trkpt>
      <trkpt lat="48.61642" lon="-2.32266">
        <ele>33.5</ele>
        <time>2021-07-27T14:58:05Z</time>
      </trkpt>
      <trkpt lat="48.61644" lon="-2.32271">
        <ele>33.8</ele>
        <time>2021-07-27T14:58:06Z</time>
      </trkpt>
      <trkpt lat="48.61646" lon="-2.32277">
        <ele>34.1</ele>
        <time>2021-07-27T14:58:07Z</time>
      </trkpt>
      <trkpt lat="48.61649" lon="-2.32282">
        <ele>34.3</ele>
        <time>2021-07-27T14:58:09Z</time>
      </trkpt>
      <trkpt lat="48.61651" lon="-2.32287">
        <ele>34.6</ele>
        <time>2021-07-27T14:58:10Z</time>
      </trkpt>
      <trkpt lat="48.61653" lon="-2.32293">
        <ele>34.9</ele>
        <time>2021-07-27T14:58:11Z</time>
      </trkpt>
      <trkpt lat="48.61656" lon="-2.323">
        <ele>35.2</ele>
        <time>2021-07-27T14:58:13Z</time>
      </trkpt>
      <trkpt lat="48.61658" lon="-2.32305">
        <ele>35.5</ele>
        <time>2021-07-27T14:58:14Z</time>
      </trkpt>
      <trkpt lat="48.6166" lon="-2.3231">
        <ele>35.8</ele>
        <time>2021-07-27T14:58:16Z</time>
      </trkpt>
      <trkpt lat="48.61662" lon="-2.32316">
        <ele>36.1</ele>
        <time>2021-07-27T14:58:17Z</time>
      </trkpt>
      <trkpt lat="48.61663" lon="-2.32322">
        <ele>36.4</ele>
        <time>2021-07-27T14:58:18Z</time>
      </trkpt>
      <trkpt lat="48.61664" lon="-2.32327">
        <ele>36.7</ele>
        <time>2021-07-27T14:58:19Z</time>
      </trkpt>
      <trkpt lat="48.61665" lon="-2.32331">
        <ele>37</ele>
        <time>2021-07-27T14:58:20Z</time>
      </trkpt>
      <trkpt lat="48.61665" lon="-2.32339">
        <ele>37.4</ele>
        <time>2021-07-27T14:58:22Z</time>
      </trkpt>
      <trkpt lat="48.61665" lon="-2.32346">
        <ele>37.8</ele>
        <time>2021-07-27T14:58:23Z</time>
      </trkpt>
      <trkpt lat="48.61664" lon="-2.32351">
        <ele>38</ele>
        <time>2021-07-27T14:58:24Z</time>
      </trkpt>
      <trkpt lat="48.61664" lon="-2.32356">
        <ele>38.3</ele>
        <time>2021-07-27T14:58:25Z</time>
      </trkpt>
      <trkpt lat="48.61663" lon="-2.32364">
        <ele>38.7</ele>
        <time>2021-07-27T14:58:27Z</time>
      </trkpt>
      <trkpt lat="48.61662" lon="-2.3237">
        <ele>39.1</ele>
        <time>2021-07-27T14:58:28Z</time>
      </trkpt>
      <trkpt lat="48.61662" lon="-2.32379">
        <ele>39.6</ele>
        <time>2021-07-27T14:58:30Z</time>
      </trkpt>
      <trkpt lat="48.61661" lon="-2.32388">
        <ele>40</ele>
        <time>2021-07-27T14:58:32Z</time>
      </trkpt>
      <trkpt lat="48.61661" lon="-2.32394">
        <ele>40.3</ele>
        <time>2021-07-27T14:58:33Z</time>
      </trkpt>
      <trkpt lat="48.6166" lon="-2.32401">
        <ele>40.6</ele>
        <time>2021-07-27T14:58:35Z</time>
      </trkpt>
      <trkpt lat="48.6166" lon="-2.32408">
        <ele>40.9</ele>
        <time>2021-07-27T14:58:36Z</time>
      </trkpt>
      <trkpt lat="48.61659" lon="-2.32413">
        <ele>41.1</ele>
        <time>2021-07-27T14:58:37Z</time>
      </trkpt>
      <trkpt lat="48.61659" lon="-2.3242">
        <ele>41.5</ele>
        <time>2021-07-27T14:58:39Z</time>
      </trkpt>
      <trkpt lat="48.61659" lon="-2.32425">
        <ele>41.7</ele>
        <time>2021-07-27T14:58:40Z</time>
      </trkpt>
      <trkpt lat="48.61659" lon="-2.32431">
        <ele>42</ele>
        <time>2021-07-27T14:58:41Z</time>
      </trkpt>
      <trkpt lat="48.61657" lon="-2.32438">
        <ele>42.3</ele>
        <time>2021-07-27T14:58:43Z</time>
      </trkpt>
      <trkpt lat="48.61656" lon="-2.32444">
        <ele>42.6</ele>
        <time>2021-07-27T14:58:44Z</time>
      </trkpt>
      <trkpt lat="48.61654" lon="-2.32454">
        <ele>43</ele>
        <time>2021-07-27T14:58:46Z</time>
      </trkpt>
      <trkpt lat="48.61653" lon="-2.32461">
        <ele>43.4</ele>
        <time>2021-07-27T14:58:47Z</time>
      </trkpt>
      <trkpt lat="48.6165" lon="-2.32468">
        <ele>43.8</ele>
        <time>2021-07-27T14:58:49Z</time>
      </trkpt>
      <trkpt lat="48.61648" lon="-2.32475">
        <ele>44.2</ele>
        <time>2021-07-27T14:58:51Z</time>
      </trkpt>
      <trkpt lat="48.61646" lon="-2.3248">
        <ele>44.5</ele>
        <time>2021-07-27T14:58:52Z</time>
      </trkpt>
      <trkpt lat="48.61644" lon="-2.32484">
        <ele>44.7</ele>
        <time>2021-07-27T14:58:53Z</time>
      </trkpt>
      <trkpt lat="48.61642" lon="-2.32491">
        <ele>45.1</ele>
        <time>2021-07-27T14:58:54Z</time>
      </trkpt>
      <trkpt lat="48.61641" lon="-2.32495">
        <ele>45.4</ele>
        <time>2021-07-27T14:58:55Z</time>
      </trkpt>
      <trkpt lat="48.61638" lon="-2.32502">
        <ele>45.8</ele>
        <time>2021-07-27T14:58:57Z</time>
      </trkpt>
      <trkpt lat="48.61637" lon="-2.32507">
        <ele>46.1</ele>
        <time>2021-07-27T14:58:58Z</time>
      </trkpt>
      <trkpt lat="48.61635" lon="-2.32512">
        <ele>46.3</ele>
        <time>2021-07-27T14:58:59Z</time>
      </trkpt>
      <trkpt lat="48.61633" lon="-2.3252">
        <ele>46.8</ele>
        <time>2021-07-27T14:59:01Z</time>
      </trkpt>
      <trkpt lat="48.61631" lon="-2.32524">
        <ele>47</ele>
        <time>2021-07-27T14:59:02Z</time>
      </trkpt>
      <trkpt lat="48.61629" lon="-2.32531">
        <ele>47.3</ele>
        <time>2021-07-27T14:59:04Z</time>
      </trkpt>
      <trkpt lat="48.61627" lon="-2.32536">
        <ele>47.5</ele>
        <time>2021-07-27T14:59:05Z</time>
      </trkpt>
      <trkpt lat="48.61625" lon="-2.32542">
        <ele>47.7</ele>
        <time>2021-07-27T14:59:06Z</time>
      </trkpt>
      <trkpt lat="48.61622" lon="-2.32549">
        <ele>48</ele>
        <time>2021-07-27T14:59:08Z</time>
      </trkpt>
      <trkpt lat="48.61621" lon="-2.32554">
        <ele>48.2</ele>
        <time>2021-07-27T14:59:09Z</time>
      </trkpt>
      <trkpt lat="48.6162" lon="-2.32559">
        <ele>48.3</ele>
        <time>2021-07-27T14:59:10Z</time>
      </trkpt>
      <trkpt lat="48.61617" lon="-2.32566">
        <ele>48.5</ele>
        <time>2021-07-27T14:59:12Z</time>
      </trkpt>
      <trkpt lat="48.61616" lon="-2.32573">
        <ele>48.7</ele>
        <time>2021-07-27T14:59:13Z</time>
      </trkpt>
      <trkpt lat="48.61614" lon="-2.32577">
        <ele>48.8</ele>
        <time>2021-07-27T14:59:14Z</time>
      </trkpt>
      <trkpt lat="48.61613" lon="-2.32582">
        <ele>48.9</ele>
        <time>2021-07-27T14:59:15Z</time>
      </trkpt>
      <trkpt lat="48.61611" lon="-2.32588">
        <ele>49</ele>
        <time>2021-07-27T14:59:17Z</time>
      </trkpt>
      <trkpt lat="48.61608" lon="-2.32597">
        <ele>49.2</ele>
        <time>2021-07-27T14:59:18Z</time>
      </trkpt>
      <trkpt lat="48.61606" lon="-2.32603">
        <ele>49.2</ele>
        <time>2021-07-27T14:59:19Z</time>
      </trkpt>
      <trkpt lat="48.61603" lon="-2.32611">
        <ele>49.2</ele>
        <time>2021-07-27T14:59:21Z</time>
      </trkpt>
      <trkpt lat="48.616" lon="-2.32617">
        <ele>49.1</ele>
        <time>2021-07-27T14:59:22Z</time>
      </trkpt>
      <trkpt lat="48.61596" lon="-2.32623">
        <ele>48.9</ele>
        <time>2021-07-27T14:59:23Z</time>
      </trkpt>
      <trkpt lat="48.61591" lon="-2.32636">
        <ele>48.5</ele>
        <time>2021-07-27T14:59:25Z</time>
      </trkpt>
      <trkpt lat="48.61589" lon="-2.32643">
        <ele>48.2</ele>
        <time>2021-07-27T14:59:26Z</time>
      </trkpt>
      <trkpt lat="48.61585" lon="-2.32658">
        <ele>47.5</ele>
        <time>2021-07-27T14:59:28Z</time>
      </trkpt>
      <trkpt lat="48.61582" lon="-2.32665">
        <ele>47</ele>
        <time>2021-07-27T14:59:29Z</time>
      </trkpt>
      <trkpt lat="48.61579" lon="-2.32674">
        <ele>46.6</ele>
        <time>2021-07-27T14:59:30Z</time>
      </trkpt>
      <trkpt lat="48.61573" lon="-2.32695">
        <ele>45.4</ele>
        <time>2021-07-27T14:59:32Z</time>
      </trkpt>
      <trkpt lat="48.61569" lon="-2.32719">
        <ele>44.1</ele>
        <time>2021-07-27T14:59:34Z</time>
      </trkpt>
      <trkpt lat="48.61568" lon="-2.32731">
        <ele>43.6</ele>
        <time>2021-07-27T14:59:35Z</time>
      </trkpt>
      <trkpt lat="48.61566" lon="-2.32754">
        <ele>42.7</ele>
        <time>2021-07-27T14:59:37Z</time>
      </trkpt>
      <trkpt lat="48.61564" lon="-2.32778">
        <ele>42.1</ele>
        <time>2021-07-27T14:59:39Z</time>
      </trkpt>
      <trkpt lat="48.61563" lon="-2.32789">
        <ele>41.8</ele>
        <time>2021-07-27T14:59:40Z</time>
      </trkpt>
      <trkpt lat="48.61562" lon="-2.328">
        <ele>41.6</ele>
        <time>2021-07-27T14:59:41Z</time>
      </trkpt>
      <trkpt lat="48.6156" lon="-2.32812">
        <ele>41.3</ele>
        <time>2021-07-27T14:59:42Z</time>
      </trkpt>
      <trkpt lat="48.61558" lon="-2.32833">
        <ele>40.9</ele>
        <time>2021-07-27T14:59:44Z</time>
      </trkpt>
      <trkpt lat="48.61557" lon="-2.32841">
        <ele>40.8</ele>
        <time>2021-07-27T14:59:45Z</time>
      </trkpt>
      <trkpt lat="48.61558" lon="-2.32845">
        <ele>40.8</ele>
        <time>2021-07-27T14:59:46Z</time>
      </trkpt>
      <trkpt lat="48.61563" lon="-2.32853">
        <ele>41.3</ele>
        <time>2021-07-27T14:59:48Z</time>
      </trkpt>
      <trkpt lat="48.61567" lon="-2.32854">
        <ele>41.6</ele>
        <time>2021-07-27T14:59:50Z</time>
      </trkpt>
      <trkpt lat="48.61574" lon="-2.32854">
        <ele>42.1</ele>
        <time>2021-07-27T14:59:51Z</time>
      </trkpt>
      <trkpt lat="48.61576" lon="-2.3286">
        <ele>42.4</ele>
        <time>2021-07-27T14:59:53Z</time>
      </trkpt>
      <trkpt lat="48.61583" lon="-2.32859">
        <ele>42.8</ele>
        <time>2021-07-27T14:59:54Z</time>
      </trkpt>
      <trkpt lat="48.61588" lon="-2.32855">
        <ele>43.2</ele>
        <time>2021-07-27T14:59:55Z</time>
      </trkpt>
      <trkpt lat="48.61595" lon="-2.32853">
        <ele>43.6</ele>
        <time>2021-07-27T14:59:57Z</time>
      </trkpt>
      <trkpt lat="48.616" lon="-2.32851">
        <ele>43.9</ele>
        <time>2021-07-27T14:59:58Z</time>
      </trkpt>
      <trkpt lat="48.61605" lon="-2.32848">
        <ele>44.2</ele>
        <time>2021-07-27T14:59:59Z</time>
      </trkpt>
      <trkpt lat="48.6161" lon="-2.32847">
        <ele>44.5</ele>
        <time>2021-07-27T15:00:00Z</time>
      </trkpt>
      <trkpt lat="48.61619" lon="-2.32845">
        <ele>44.8</ele>
        <time>2021-07-27T15:00:02Z</time>
      </trkpt>
      <trkpt lat="48.61625" lon="-2.32844">
        <ele>45</ele>
        <time>2021-07-27T15:00:04Z</time>
      </trkpt>
      <trkpt lat="48.61628" lon="-2.32844">
        <ele>45.1</ele>
        <time>2021-07-27T15:00:05Z</time>
      </trkpt>
      <trkpt lat="48.61633" lon="-2.32843">
        <ele>45.2</ele>
        <time>2021-07-27T15:00:06Z</time>
      </trkpt>
      <trkpt lat="48.61638" lon="-2.32842">
        <ele>45.4</ele>
        <time>2021-07-27T15:00:07Z</time>
      </trkpt>
      <trkpt lat="48.61643" lon="-2.32842">
        <ele>45.4</ele>
        <time>2021-07-27T15:00:09Z</time>
      </trkpt>
      <trkpt lat="48.61647" lon="-2.32841">
        <ele>45.5</ele>
        <time>2021-07-27T15:00:10Z</time>
      </trkpt>
      <trkpt lat="48.61652" lon="-2.3284">
        <ele>45.5</ele>
        <time>2021-07-27T15:00:11Z</time>
      </trkpt>
      <trkpt lat="48.61656" lon="-2.32838">
        <ele>45.6</ele>
        <time>2021-07-27T15:00:12Z</time>
      </trkpt>
      <trkpt lat="48.61661" lon="-2.32836">
        <ele>45.6</ele>
        <time>2021-07-27T15:00:13Z</time>
      </trkpt>
      <trkpt lat="48.61667" lon="-2.32832">
        <ele>45.6</ele>
        <time>2021-07-27T15:00:15Z</time>
      </trkpt>
      <trkpt lat="48.61671" lon="-2.3283">
        <ele>45.5</ele>
        <time>2021-07-27T15:00:17Z</time>
      </trkpt>
      <trkpt lat="48.61676" lon="-2.32827">
        <ele>45.5</ele>
        <time>2021-07-27T15:00:18Z</time>
      </trkpt>
      <trkpt lat="48.61681" lon="-2.32825">
        <ele>45.5</ele>
        <time>2021-07-27T15:00:19Z</time>
      </trkpt>
      <trkpt lat="48.61686" lon="-2.32823">
        <ele>45.4</ele>
        <time>2021-07-27T15:00:20Z</time>
      </trkpt>
      <trkpt lat="48.61692" lon="-2.3282">
        <ele>45.4</ele>
        <time>2021-07-27T15:00:22Z</time>
      </trkpt>
      <trkpt lat="48.61698" lon="-2.32818">
        <ele>45.3</ele>
        <time>2021-07-27T15:00:23Z</time>
      </trkpt>
      <trkpt lat="48.61704" lon="-2.32815">
        <ele>45.3</ele>
        <time>2021-07-27T15:00:24Z</time>
      </trkpt>
      <trkpt lat="48.61708" lon="-2.32814">
        <ele>45.2</ele>
        <time>2021-07-27T15:00:25Z</time>
      </trkpt>
      <trkpt lat="48.61712" lon="-2.32817">
        <ele>45.1</ele>
        <time>2021-07-27T15:00:27Z</time>
      </trkpt>
      <trkpt lat="48.61717" lon="-2.32815">
        <ele>45.1</ele>
        <time>2021-07-27T15:00:28Z</time>
      </trkpt>
      <trkpt lat="48.61722" lon="-2.32812">
        <ele>44.9</ele>
        <time>2021-07-27T15:00:29Z</time>
      </trkpt>
      <trkpt lat="48.61727" lon="-2.32809">
        <ele>44.8</ele>
        <time>2021-07-27T15:00:30Z</time>
      </trkpt>
      <trkpt lat="48.61732" lon="-2.32806">
        <ele>44.6</ele>
        <time>2021-07-27T15:00:31Z</time>
      </trkpt>
      <trkpt lat="48.61737" lon="-2.32802">
        <ele>44.4</ele>
        <time>2021-07-27T15:00:32Z</time>
      </trkpt>
      <trkpt lat="48.61746" lon="-2.32798">
        <ele>44</ele>
        <time>2021-07-27T15:00:34Z</time>
      </trkpt>
      <trkpt lat="48.61754" lon="-2.32794">
        <ele>43.6</ele>
        <time>2021-07-27T15:00:36Z</time>
      </trkpt>
      <trkpt lat="48.61762" lon="-2.32793">
        <ele>43.2</ele>
        <time>2021-07-27T15:00:38Z</time>
      </trkpt>
      <trkpt lat="48.61768" lon="-2.32793">
        <ele>42.9</ele>
        <time>2021-07-27T15:00:40Z</time>
      </trkpt>
      <trkpt lat="48.61771" lon="-2.32791">
        <ele>42.7</ele>
        <time>2021-07-27T15:00:42Z</time>
      </trkpt>
      <trkpt lat="48.61772" lon="-2.3279">
        <ele>42.6</ele>
        <time>2021-07-27T15:00:43Z</time>
      </trkpt>
      <trkpt lat="48.61772" lon="-2.32789">
        <ele>42.6</ele>
        <time>2021-07-27T15:00:45Z</time>
      </trkpt>
      <trkpt lat="48.61773" lon="-2.32788">
        <ele>42.5</ele>
        <time>2021-07-27T15:00:46Z</time>
      </trkpt>
      <trkpt lat="48.61774" lon="-2.32788">
        <ele>42.5</ele>
        <time>2021-07-27T15:00:47Z</time>
      </trkpt>
      <trkpt lat="48.61774" lon="-2.32787">
        <ele>42.4</ele>
        <time>2021-07-27T15:00:48Z</time>
      </trkpt>
      <trkpt lat="48.61775" lon="-2.32786">
        <ele>42.4</ele>
        <time>2021-07-27T15:00:50Z</time>
      </trkpt>
      <trkpt lat="48.61775" lon="-2.32785">
        <ele>42.4</ele>
        <time>2021-07-27T15:00:52Z</time>
      </trkpt>
      <trkpt lat="48.61776" lon="-2.32785">
        <ele>42.3</ele>
        <time>2021-07-27T15:00:54Z</time>
      </trkpt>
      <trkpt lat="48.61776" lon="-2.32784">
        <ele>42.3</ele>
        <time>2021-07-27T15:01:10Z</time>
      </trkpt>
      <trkpt lat="48.61777" lon="-2.32783">
        <ele>42.2</ele>
        <time>2021-07-27T15:01:11Z</time>
      </trkpt>
      <trkpt lat="48.61785" lon="-2.3278">
        <ele>41.7</ele>
        <time>2021-07-27T15:01:14Z</time>
      </trkpt>
      <trkpt lat="48.61791" lon="-2.32779">
        <ele>41.3</ele>
        <time>2021-07-27T15:01:15Z</time>
      </trkpt>
      <trkpt lat="48.61796" lon="-2.32778">
        <ele>40.9</ele>
        <time>2021-07-27T15:01:16Z</time>
      </trkpt>
      <trkpt lat="48.61804" lon="-2.32775">
        <ele>40.3</ele>
        <time>2021-07-27T15:01:17Z</time>
      </trkpt>
      <trkpt lat="48.61809" lon="-2.32773">
        <ele>39.9</ele>
        <time>2021-07-27T15:01:18Z</time>
      </trkpt>
      <trkpt lat="48.61814" lon="-2.32771">
        <ele>39.5</ele>
        <time>2021-07-27T15:01:19Z</time>
      </trkpt>
      <trkpt lat="48.61825" lon="-2.32767">
        <ele>38.4</ele>
        <time>2021-07-27T15:01:21Z</time>
      </trkpt>
      <trkpt lat="48.61837" lon="-2.32763">
        <ele>37.2</ele>
        <time>2021-07-27T15:01:23Z</time>
      </trkpt>
      <trkpt lat="48.61849" lon="-2.32759">
        <ele>35.9</ele>
        <time>2021-07-27T15:01:25Z</time>
      </trkpt>
      <trkpt lat="48.61856" lon="-2.32756">
        <ele>35.3</ele>
        <time>2021-07-27T15:01:26Z</time>
      </trkpt>
      <trkpt lat="48.61869" lon="-2.32751">
        <ele>34.1</ele>
        <time>2021-07-27T15:01:28Z</time>
      </trkpt>
      <trkpt lat="48.61876" lon="-2.32748">
        <ele>33.6</ele>
        <time>2021-07-27T15:01:29Z</time>
      </trkpt>
      <trkpt lat="48.61883" lon="-2.32745">
        <ele>33.1</ele>
        <time>2021-07-27T15:01:30Z</time>
      </trkpt>
      <trkpt lat="48.61896" lon="-2.3274">
        <ele>32.4</ele>
        <time>2021-07-27T15:01:32Z</time>
      </trkpt>
      <trkpt lat="48.61906" lon="-2.32736">
        <ele>32.1</ele>
        <time>2021-07-27T15:01:34Z</time>
      </trkpt>
      <trkpt lat="48.61914" lon="-2.32741">
        <ele>32.1</ele>
        <time>2021-07-27T15:01:36Z</time>
      </trkpt>
      <trkpt lat="48.61915" lon="-2.32751">
        <ele>32.2</ele>
        <time>2021-07-27T15:01:38Z</time>
      </trkpt>
      <trkpt lat="48.61915" lon="-2.32756">
        <ele>32.2</ele>
        <time>2021-07-27T15:01:39Z</time>
      </trkpt>
      <trkpt lat="48.61914" lon="-2.32762">
        <ele>32.3</ele>
        <time>2021-07-27T15:01:40Z</time>
      </trkpt>
      <trkpt lat="48.6191" lon="-2.32772">
        <ele>32.6</ele>
        <time>2021-07-27T15:01:42Z</time>
      </trkpt>
      <trkpt lat="48.61909" lon="-2.32776">
        <ele>32.7</ele>
        <time>2021-07-27T15:01:43Z</time>
      </trkpt>
      <trkpt lat="48.61908" lon="-2.32789">
        <ele>33.1</ele>
        <time>2021-07-27T15:01:45Z</time>
      </trkpt>
      <trkpt lat="48.61904" lon="-2.32793">
        <ele>33.4</ele>
        <time>2021-07-27T15:01:46Z</time>
      </trkpt>
      <trkpt lat="48.61901" lon="-2.32798">
        <ele>33.7</ele>
        <time>2021-07-27T15:01:47Z</time>
      </trkpt>
      <trkpt lat="48.61898" lon="-2.32804">
        <ele>34.1</ele>
        <time>2021-07-27T15:01:49Z</time>
      </trkpt>
      <trkpt lat="48.61895" lon="-2.32811">
        <ele>34.3</ele>
        <time>2021-07-27T15:01:50Z</time>
      </trkpt>
      <trkpt lat="48.61893" lon="-2.32816">
        <ele>34.5</ele>
        <time>2021-07-27T15:01:51Z</time>
      </trkpt>
      <trkpt lat="48.61891" lon="-2.32822">
        <ele>34.7</ele>
        <time>2021-07-27T15:01:53Z</time>
      </trkpt>
      <trkpt lat="48.61889" lon="-2.32828">
        <ele>34.8</ele>
        <time>2021-07-27T15:01:54Z</time>
      </trkpt>
      <trkpt lat="48.61888" lon="-2.32834">
        <ele>34.8</ele>
        <time>2021-07-27T15:01:55Z</time>
      </trkpt>
      <trkpt lat="48.61887" lon="-2.32842">
        <ele>34.7</ele>
        <time>2021-07-27T15:01:57Z</time>
      </trkpt>
      <trkpt lat="48.61887" lon="-2.32848">
        <ele>34.6</ele>
        <time>2021-07-27T15:01:58Z</time>
      </trkpt>
      <trkpt lat="48.61888" lon="-2.32855">
        <ele>34.4</ele>
        <time>2021-07-27T15:02:00Z</time>
      </trkpt>
      <trkpt lat="48.61889" lon="-2.32862">
        <ele>34.1</ele>
        <time>2021-07-27T15:02:01Z</time>
      </trkpt>
      <trkpt lat="48.61891" lon="-2.32868">
        <ele>33.8</ele>
        <time>2021-07-27T15:02:02Z</time>
      </trkpt>
      <trkpt lat="48.61892" lon="-2.32876">
        <ele>33.3</ele>
        <time>2021-07-27T15:02:04Z</time>
      </trkpt>
      <trkpt lat="48.61894" lon="-2.32886">
        <ele>32.7</ele>
        <time>2021-07-27T15:02:05Z</time>
      </trkpt>
      <trkpt lat="48.61896" lon="-2.32895">
        <ele>32.1</ele>
        <time>2021-07-27T15:02:06Z</time>
      </trkpt>
      <trkpt lat="48.61897" lon="-2.32903">
        <ele>31.6</ele>
        <time>2021-07-27T15:02:07Z</time>
      </trkpt>
      <trkpt lat="48.61901" lon="-2.32919">
        <ele>30.7</ele>
        <time>2021-07-27T15:02:09Z</time>
      </trkpt>
      <trkpt lat="48.61902" lon="-2.32926">
        <ele>30.3</ele>
        <time>2021-07-27T15:02:10Z</time>
      </trkpt>
      <trkpt lat="48.61903" lon="-2.32922">
        <ele>30.1</ele>
        <time>2021-07-27T15:02:12Z</time>
      </trkpt>
      <trkpt lat="48.61904" lon="-2.32934">
        <ele>29.3</ele>
        <time>2021-07-27T15:02:14Z</time>
      </trkpt>
      <trkpt lat="48.61904" lon="-2.32945">
        <ele>28.2</ele>
        <time>2021-07-27T15:02:15Z</time>
      </trkpt>
      <trkpt lat="48.61905" lon="-2.32954">
        <ele>27.1</ele>
        <time>2021-07-27T15:02:16Z</time>
      </trkpt>
      <trkpt lat="48.61906" lon="-2.32962">
        <ele>25.9</ele>
        <time>2021-07-27T15:02:17Z</time>
      </trkpt>
      <trkpt lat="48.61908" lon="-2.32968">
        <ele>24.7</ele>
        <time>2021-07-27T15:02:18Z</time>
      </trkpt>
      <trkpt lat="48.61911" lon="-2.32974">
        <ele>23.6</ele>
        <time>2021-07-27T15:02:19Z</time>
      </trkpt>
      <trkpt lat="48.61914" lon="-2.3298">
        <ele>22.3</ele>
        <time>2021-07-27T15:02:21Z</time>
      </trkpt>
      <trkpt lat="48.61917" lon="-2.32996">
        <ele>19.5</ele>
        <time>2021-07-27T15:02:22Z</time>
      </trkpt>
      <trkpt lat="48.61919" lon="-2.33013">
        <ele>16.7</ele>
        <time>2021-07-27T15:02:24Z</time>
      </trkpt>
      <trkpt lat="48.6192" lon="-2.3302">
        <ele>15.7</ele>
        <time>2021-07-27T15:02:25Z</time>
      </trkpt>
      <trkpt lat="48.61923" lon="-2.33026">
        <ele>14.8</ele>
        <time>2021-07-27T15:02:27Z</time>
      </trkpt>
      <trkpt lat="48.61923" lon="-2.33031">
        <ele>14.2</ele>
        <time>2021-07-27T15:02:28Z</time>
      </trkpt>
      <trkpt lat="48.61924" lon="-2.33046">
        <ele>12.7</ele>
        <time>2021-07-27T15:02:29Z</time>
      </trkpt>
      <trkpt lat="48.61927" lon="-2.33055">
        <ele>11.7</ele>
        <time>2021-07-27T15:02:31Z</time>
      </trkpt>
      <trkpt lat="48.6193" lon="-2.3306">
        <ele>11.2</ele>
        <time>2021-07-27T15:02:33Z</time>
      </trkpt>
      <trkpt lat="48.61933" lon="-2.33061">
        <ele>10.9</ele>
        <time>2021-07-27T15:02:34Z</time>
      </trkpt>
      <trkpt lat="48.61937" lon="-2.33058">
        <ele>10.5</ele>
        <time>2021-07-27T15:02:36Z</time>
      </trkpt>
      <trkpt lat="48.6194" lon="-2.33055">
        <ele>10.2</ele>
        <time>2021-07-27T15:02:37Z</time>
      </trkpt>
      <trkpt lat="48.61945" lon="-2.33055">
        <ele>9.7</ele>
        <time>2021-07-27T15:02:38Z</time>
      </trkpt>
      <trkpt lat="48.6195" lon="-2.3306">
        <ele>9.3</ele>
        <time>2021-07-27T15:02:39Z</time>
      </trkpt>
      <trkpt lat="48.61953" lon="-2.33066">
        <ele>9</ele>
        <time>2021-07-27T15:02:41Z</time>
      </trkpt>
      <trkpt lat="48.61957" lon="-2.33072">
        <ele>8.6</ele>
        <time>2021-07-27T15:02:42Z</time>
      </trkpt>
      <trkpt lat="48.61962" lon="-2.33079">
        <ele>8.3</ele>
        <time>2021-07-27T15:02:44Z</time>
      </trkpt>
      <trkpt lat="48.61966" lon="-2.33085">
        <ele>8.1</ele>
        <time>2021-07-27T15:02:45Z</time>
      </trkpt>
      <trkpt lat="48.61969" lon="-2.33091">
        <ele>7.9</ele>
        <time>2021-07-27T15:02:46Z</time>
      </trkpt>
      <trkpt lat="48.61973" lon="-2.33098">
        <ele>7.8</ele>
        <time>2021-07-27T15:02:48Z</time>
      </trkpt>
      <trkpt lat="48.61975" lon="-2.33104">
        <ele>7.6</ele>
        <time>2021-07-27T15:02:49Z</time>
      </trkpt>
      <trkpt lat="48.61976" lon="-2.33112">
        <ele>7.5</ele>
        <time>2021-07-27T15:02:50Z</time>
      </trkpt>
      <trkpt lat="48.61976" lon="-2.33119">
        <ele>7.4</ele>
        <time>2021-07-27T15:02:51Z</time>
      </trkpt>
      <trkpt lat="48.61976" lon="-2.33126">
        <ele>7.3</ele>
        <time>2021-07-27T15:02:52Z</time>
      </trkpt>
      <trkpt lat="48.61976" lon="-2.33133">
        <ele>7.2</ele>
        <time>2021-07-27T15:02:54Z</time>
      </trkpt>
      <trkpt lat="48.61976" lon="-2.33141">
        <ele>7.1</ele>
        <time>2021-07-27T15:02:55Z</time>
      </trkpt>
      <trkpt lat="48.61976" lon="-2.33149">
        <ele>7</ele>
        <time>2021-07-27T15:02:56Z</time>
      </trkpt>
      <trkpt lat="48.61976" lon="-2.33155">
        <ele>6.9</ele>
        <time>2021-07-27T15:02:57Z</time>
      </trkpt>
      <trkpt lat="48.61976" lon="-2.33162">
        <ele>6.9</ele>
        <time>2021-07-27T15:02:59Z</time>
      </trkpt>
      <trkpt lat="48.61976" lon="-2.3317">
        <ele>6.9</ele>
        <time>2021-07-27T15:03:00Z</time>
      </trkpt>
      <trkpt lat="48.61975" lon="-2.3318">
        <ele>6.8</ele>
        <time>2021-07-27T15:03:01Z</time>
      </trkpt>
      <trkpt lat="48.61976" lon="-2.33188">
        <ele>6.8</ele>
        <time>2021-07-27T15:03:02Z</time>
      </trkpt>
      <trkpt lat="48.61977" lon="-2.33203">
        <ele>6.9</ele>
        <time>2021-07-27T15:03:04Z</time>
      </trkpt>
      <trkpt lat="48.61977" lon="-2.3321">
        <ele>6.9</ele>
        <time>2021-07-27T15:03:05Z</time>
      </trkpt>
      <trkpt lat="48.61978" lon="-2.33218">
        <ele>6.9</ele>
        <time>2021-07-27T15:03:06Z</time>
      </trkpt>
      <trkpt lat="48.6198" lon="-2.33232">
        <ele>6.9</ele>
        <time>2021-07-27T15:03:08Z</time>
      </trkpt>
      <trkpt lat="48.61981" lon="-2.33239">
        <ele>6.8</ele>
        <time>2021-07-27T15:03:09Z</time>
      </trkpt>
      <trkpt lat="48.61981" lon="-2.33246">
        <ele>6.8</ele>
        <time>2021-07-27T15:03:10Z</time>
      </trkpt>
      <trkpt lat="48.61981" lon="-2.33253">
        <ele>6.8</ele>
        <time>2021-07-27T15:03:11Z</time>
      </trkpt>
      <trkpt lat="48.61981" lon="-2.33259">
        <ele>6.8</ele>
        <time>2021-07-27T15:03:12Z</time>
      </trkpt>
      <trkpt lat="48.6198" lon="-2.33264">
        <ele>6.8</ele>
        <time>2021-07-27T15:03:13Z</time>
      </trkpt>
      <trkpt lat="48.61979" lon="-2.33276">
        <ele>6.8</ele>
        <time>2021-07-27T15:03:15Z</time>
      </trkpt>
      <trkpt lat="48.61978" lon="-2.33285">
        <ele>6.8</ele>
        <time>2021-07-27T15:03:16Z</time>
      </trkpt>
      <trkpt lat="48.61976" lon="-2.33299">
        <ele>6.9</ele>
        <time>2021-07-27T15:03:18Z</time>
      </trkpt>
      <trkpt lat="48.61975" lon="-2.33306">
        <ele>6.9</ele>
        <time>2021-07-27T15:03:19Z</time>
      </trkpt>
      <trkpt lat="48.61973" lon="-2.3332">
        <ele>7</ele>
        <time>2021-07-27T15:03:21Z</time>
      </trkpt>
      <trkpt lat="48.6197" lon="-2.33334">
        <ele>6.9</ele>
        <time>2021-07-27T15:03:23Z</time>
      </trkpt>
      <trkpt lat="48.61965" lon="-2.33347">
        <ele>6.9</ele>
        <time>2021-07-27T15:03:25Z</time>
      </trkpt>
      <trkpt lat="48.61963" lon="-2.33353">
        <ele>6.9</ele>
        <time>2021-07-27T15:03:26Z</time>
      </trkpt>
      <trkpt lat="48.61962" lon="-2.3336">
        <ele>6.9</ele>
        <time>2021-07-27T15:03:27Z</time>
      </trkpt>
      <trkpt lat="48.61961" lon="-2.33366">
        <ele>6.9</ele>
        <time>2021-07-27T15:03:28Z</time>
      </trkpt>
      <trkpt lat="48.6196" lon="-2.3337">
        <ele>6.8</ele>
        <time>2021-07-27T15:03:29Z</time>
      </trkpt>
      <trkpt lat="48.61957" lon="-2.33381">
        <ele>6.8</ele>
        <time>2021-07-27T15:03:31Z</time>
      </trkpt>
      <trkpt lat="48.61955" lon="-2.33385">
        <ele>6.8</ele>
        <time>2021-07-27T15:03:32Z</time>
      </trkpt>
      <trkpt lat="48.61952" lon="-2.3339">
        <ele>6.8</ele>
        <time>2021-07-27T15:03:34Z</time>
      </trkpt>
      <trkpt lat="48.61955" lon="-2.33386">
        <ele>6.9</ele>
        <time>2021-07-27T15:03:36Z</time>
      </trkpt>
      <trkpt lat="48.61953" lon="-2.33391">
        <ele>6.9</ele>
        <time>2021-07-27T15:03:37Z</time>
      </trkpt>
      <trkpt lat="48.61949" lon="-2.33396">
        <ele>6.9</ele>
        <time>2021-07-27T15:03:38Z</time>
      </trkpt>
      <trkpt lat="48.61946" lon="-2.33397">
        <ele>6.9</ele>
        <time>2021-07-27T15:03:39Z</time>
      </trkpt>
      <trkpt lat="48.61943" lon="-2.33396">
        <ele>6.8</ele>
        <time>2021-07-27T15:03:40Z</time>
      </trkpt>
      <trkpt lat="48.61939" lon="-2.33394">
        <ele>6.8</ele>
        <time>2021-07-27T15:03:41Z</time>
      </trkpt>
      <trkpt lat="48.61934" lon="-2.33391">
        <ele>6.7</ele>
        <time>2021-07-27T15:03:43Z</time>
      </trkpt>
      <trkpt lat="48.61931" lon="-2.33388">
        <ele>6.6</ele>
        <time>2021-07-27T15:03:44Z</time>
      </trkpt>
      <trkpt lat="48.61925" lon="-2.33387">
        <ele>6.5</ele>
        <time>2021-07-27T15:03:46Z</time>
      </trkpt>
      <trkpt lat="48.61922" lon="-2.33389">
        <ele>6.4</ele>
        <time>2021-07-27T15:03:47Z</time>
      </trkpt>
      <trkpt lat="48.61918" lon="-2.33393">
        <ele>6.4</ele>
        <time>2021-07-27T15:03:48Z</time>
      </trkpt>
      <trkpt lat="48.61916" lon="-2.33397">
        <ele>6.4</ele>
        <time>2021-07-27T15:03:49Z</time>
      </trkpt>
      <trkpt lat="48.61912" lon="-2.33407">
        <ele>6.3</ele>
        <time>2021-07-27T15:03:51Z</time>
      </trkpt>
      <trkpt lat="48.61909" lon="-2.33413">
        <ele>6.3</ele>
        <time>2021-07-27T15:03:53Z</time>
      </trkpt>
      <trkpt lat="48.61907" lon="-2.33419">
        <ele>6.3</ele>
        <time>2021-07-27T15:03:54Z</time>
      </trkpt>
      <trkpt lat="48.61906" lon="-2.33426">
        <ele>6.3</ele>
        <time>2021-07-27T15:03:55Z</time>
      </trkpt>
      <trkpt lat="48.61903" lon="-2.33431">
        <ele>6.3</ele>
        <time>2021-07-27T15:03:56Z</time>
      </trkpt>
      <trkpt lat="48.61901" lon="-2.33435">
        <ele>6.3</ele>
        <time>2021-07-27T15:03:57Z</time>
      </trkpt>
      <trkpt lat="48.61899" lon="-2.33442">
        <ele>6.3</ele>
        <time>2021-07-27T15:03:59Z</time>
      </trkpt>
      <trkpt lat="48.61898" lon="-2.33448">
        <ele>6.3</ele>
        <time>2021-07-27T15:04:00Z</time>
      </trkpt>
      <trkpt lat="48.61897" lon="-2.33455">
        <ele>6.2</ele>
        <time>2021-07-27T15:04:02Z</time>
      </trkpt>
      <trkpt lat="48.61896" lon="-2.33463">
        <ele>6.2</ele>
        <time>2021-07-27T15:04:03Z</time>
      </trkpt>
      <trkpt lat="48.61894" lon="-2.33469">
        <ele>6.2</ele>
        <time>2021-07-27T15:04:04Z</time>
      </trkpt>
      <trkpt lat="48.61892" lon="-2.33477">
        <ele>6.2</ele>
        <time>2021-07-27T15:04:06Z</time>
      </trkpt>
      <trkpt lat="48.61891" lon="-2.33483">
        <ele>6.2</ele>
        <time>2021-07-27T15:04:07Z</time>
      </trkpt>
      <trkpt lat="48.61889" lon="-2.33489">
        <ele>6.2</ele>
        <time>2021-07-27T15:04:09Z</time>
      </trkpt>
      <trkpt lat="48.61888" lon="-2.33497">
        <ele>6.2</ele>
        <time>2021-07-27T15:04:10Z</time>
      </trkpt>
      <trkpt lat="48.61888" lon="-2.33506">
        <ele>6.2</ele>
        <time>2021-07-27T15:04:12Z</time>
      </trkpt>
      <trkpt lat="48.61886" lon="-2.33512">
        <ele>6.2</ele>
        <time>2021-07-27T15:04:13Z</time>
      </trkpt>
      <trkpt lat="48.61885" lon="-2.33521">
        <ele>6.2</ele>
        <time>2021-07-27T15:04:14Z</time>
      </trkpt>
      <trkpt lat="48.61885" lon="-2.33528">
        <ele>6.3</ele>
        <time>2021-07-27T15:04:16Z</time>
      </trkpt>
      <trkpt lat="48.61884" lon="-2.33535">
        <ele>6.3</ele>
        <time>2021-07-27T15:04:17Z</time>
      </trkpt>
      <trkpt lat="48.61885" lon="-2.33542">
        <ele>6.3</ele>
        <time>2021-07-27T15:04:19Z</time>
      </trkpt>
      <trkpt lat="48.61885" lon="-2.33547">
        <ele>6.4</ele>
        <time>2021-07-27T15:04:20Z</time>
      </trkpt>
      <trkpt lat="48.61885" lon="-2.33553">
        <ele>6.4</ele>
        <time>2021-07-27T15:04:21Z</time>
      </trkpt>
      <trkpt lat="48.61881" lon="-2.33558">
        <ele>6.5</ele>
        <time>2021-07-27T15:04:23Z</time>
      </trkpt>
      <trkpt lat="48.61877" lon="-2.3356">
        <ele>6.6</ele>
        <time>2021-07-27T15:04:24Z</time>
      </trkpt>
      <trkpt lat="48.61873" lon="-2.33562">
        <ele>6.7</ele>
        <time>2021-07-27T15:04:25Z</time>
      </trkpt>
      <trkpt lat="48.61869" lon="-2.33563">
        <ele>6.8</ele>
        <time>2021-07-27T15:04:26Z</time>
      </trkpt>
      <trkpt lat="48.61865" lon="-2.33563">
        <ele>6.9</ele>
        <time>2021-07-27T15:04:28Z</time>
      </trkpt>
      <trkpt lat="48.61862" lon="-2.33564">
        <ele>7</ele>
        <time>2021-07-27T15:04:29Z</time>
      </trkpt>
      <trkpt lat="48.61858" lon="-2.33568">
        <ele>7.1</ele>
        <time>2021-07-27T15:04:30Z</time>
      </trkpt>
      <trkpt lat="48.61855" lon="-2.33575">
        <ele>7.3</ele>
        <time>2021-07-27T15:04:32Z</time>
      </trkpt>
      <trkpt lat="48.61854" lon="-2.33583">
        <ele>7.5</ele>
        <time>2021-07-27T15:04:33Z</time>
      </trkpt>
      <trkpt lat="48.61856" lon="-2.33594">
        <ele>7.5</ele>
        <time>2021-07-27T15:04:35Z</time>
      </trkpt>
      <trkpt lat="48.61857" lon="-2.33601">
        <ele>7.5</ele>
        <time>2021-07-27T15:04:36Z</time>
      </trkpt>
      <trkpt lat="48.61859" lon="-2.33606">
        <ele>7.5</ele>
        <time>2021-07-27T15:04:37Z</time>
      </trkpt>
      <trkpt lat="48.61863" lon="-2.33615">
        <ele>7.5</ele>
        <time>2021-07-27T15:04:39Z</time>
      </trkpt>
      <trkpt lat="48.61865" lon="-2.33621">
        <ele>7.5</ele>
        <time>2021-07-27T15:04:40Z</time>
      </trkpt>
      <trkpt lat="48.61867" lon="-2.33627">
        <ele>7.6</ele>
        <time>2021-07-27T15:04:42Z</time>
      </trkpt>
      <trkpt lat="48.6187" lon="-2.33635">
        <ele>7.6</ele>
        <time>2021-07-27T15:04:43Z</time>
      </trkpt>
      <trkpt lat="48.61874" lon="-2.33641">
        <ele>7.6</ele>
        <time>2021-07-27T15:04:45Z</time>
      </trkpt>
      <trkpt lat="48.61877" lon="-2.33646">
        <ele>7.6</ele>
        <time>2021-07-27T15:04:46Z</time>
      </trkpt>
      <trkpt lat="48.61882" lon="-2.33654">
        <ele>7.7</ele>
        <time>2021-07-27T15:04:48Z</time>
      </trkpt>
      <trkpt lat="48.61886" lon="-2.33661">
        <ele>7.8</ele>
        <time>2021-07-27T15:04:50Z</time>
      </trkpt>
      <trkpt lat="48.61889" lon="-2.33664">
        <ele>7.9</ele>
        <time>2021-07-27T15:04:51Z</time>
      </trkpt>
      <trkpt lat="48.61893" lon="-2.33667">
        <ele>7.9</ele>
        <time>2021-07-27T15:04:52Z</time>
      </trkpt>
      <trkpt lat="48.61896" lon="-2.3367">
        <ele>8</ele>
        <time>2021-07-27T15:04:53Z</time>
      </trkpt>
      <trkpt lat="48.61899" lon="-2.33673">
        <ele>8</ele>
        <time>2021-07-27T15:04:54Z</time>
      </trkpt>
      <trkpt lat="48.61905" lon="-2.3368">
        <ele>8.2</ele>
        <time>2021-07-27T15:04:56Z</time>
      </trkpt>
      <trkpt lat="48.61908" lon="-2.33684">
        <ele>8.2</ele>
        <time>2021-07-27T15:04:57Z</time>
      </trkpt>
      <trkpt lat="48.61914" lon="-2.33692">
        <ele>8.4</ele>
        <time>2021-07-27T15:04:59Z</time>
      </trkpt>
      <trkpt lat="48.61917" lon="-2.33696">
        <ele>8.5</ele>
        <time>2021-07-27T15:05:00Z</time>
      </trkpt>
      <trkpt lat="48.61924" lon="-2.33704">
        <ele>8.6</ele>
        <time>2021-07-27T15:05:02Z</time>
      </trkpt>
      <trkpt lat="48.61927" lon="-2.33708">
        <ele>8.7</ele>
        <time>2021-07-27T15:05:03Z</time>
      </trkpt>
      <trkpt lat="48.61935" lon="-2.33716">
        <ele>8.8</ele>
        <time>2021-07-27T15:05:05Z</time>
      </trkpt>
      <trkpt lat="48.6194" lon="-2.33723">
        <ele>8.9</ele>
        <time>2021-07-27T15:05:07Z</time>
      </trkpt>
      <trkpt lat="48.61944" lon="-2.33727">
        <ele>9</ele>
        <time>2021-07-27T15:05:08Z</time>
      </trkpt>
      <trkpt lat="48.61947" lon="-2.33731">
        <ele>9</ele>
        <time>2021-07-27T15:05:09Z</time>
      </trkpt>
      <trkpt lat="48.61951" lon="-2.33738">
        <ele>9</ele>
        <time>2021-07-27T15:05:11Z</time>
      </trkpt>
      <trkpt lat="48.61955" lon="-2.33743">
        <ele>9.1</ele>
        <time>2021-07-27T15:05:12Z</time>
      </trkpt>
      <trkpt lat="48.61959" lon="-2.3375">
        <ele>9.1</ele>
        <time>2021-07-27T15:05:14Z</time>
      </trkpt>
      <trkpt lat="48.61963" lon="-2.33755">
        <ele>9.1</ele>
        <time>2021-07-27T15:05:15Z</time>
      </trkpt>
      <trkpt lat="48.61968" lon="-2.33764">
        <ele>9.1</ele>
        <time>2021-07-27T15:05:17Z</time>
      </trkpt>
      <trkpt lat="48.61976" lon="-2.33774">
        <ele>9.1</ele>
        <time>2021-07-27T15:05:19Z</time>
      </trkpt>
      <trkpt lat="48.61979" lon="-2.33778">
        <ele>9.1</ele>
        <time>2021-07-27T15:05:20Z</time>
      </trkpt>
      <trkpt lat="48.61987" lon="-2.33786">
        <ele>9.2</ele>
        <time>2021-07-27T15:05:22Z</time>
      </trkpt>
      <trkpt lat="48.61995" lon="-2.33795">
        <ele>9.2</ele>
        <time>2021-07-27T15:05:24Z</time>
      </trkpt>
      <trkpt lat="48.62002" lon="-2.33804">
        <ele>9.3</ele>
        <time>2021-07-27T15:05:26Z</time>
      </trkpt>
      <trkpt lat="48.62009" lon="-2.33814">
        <ele>9.4</ele>
        <time>2021-07-27T15:05:28Z</time>
      </trkpt>
      <trkpt lat="48.62011" lon="-2.33819">
        <ele>9.4</ele>
        <time>2021-07-27T15:05:30Z</time>
      </trkpt>
      <trkpt lat="48.62016" lon="-2.33826">
        <ele>9.3</ele>
        <time>2021-07-27T15:05:31Z</time>
      </trkpt>
      <trkpt lat="48.62019" lon="-2.3383">
        <ele>9.3</ele>
        <time>2021-07-27T15:05:32Z</time>
      </trkpt>
      <trkpt lat="48.62022" lon="-2.33832">
        <ele>9.2</ele>
        <time>2021-07-27T15:05:33Z</time>
      </trkpt>
      <trkpt lat="48.6203" lon="-2.33839">
        <ele>9.4</ele>
        <time>2021-07-27T15:05:35Z</time>
      </trkpt>
      <trkpt lat="48.62032" lon="-2.33843">
        <ele>9.5</ele>
        <time>2021-07-27T15:05:36Z</time>
      </trkpt>
      <trkpt lat="48.62035" lon="-2.33846">
        <ele>9.6</ele>
        <time>2021-07-27T15:05:38Z</time>
      </trkpt>
      <trkpt lat="48.62038" lon="-2.3385">
        <ele>9.8</ele>
        <time>2021-07-27T15:05:39Z</time>
      </trkpt>
      <trkpt lat="48.62042" lon="-2.33854">
        <ele>10</ele>
        <time>2021-07-27T15:05:40Z</time>
      </trkpt>
      <trkpt lat="48.62045" lon="-2.33856">
        <ele>10.1</ele>
        <time>2021-07-27T15:05:42Z</time>
      </trkpt>
      <trkpt lat="48.62047" lon="-2.33859">
        <ele>10.2</ele>
        <time>2021-07-27T15:05:43Z</time>
      </trkpt>
      <trkpt lat="48.62052" lon="-2.33864">
        <ele>10.6</ele>
        <time>2021-07-27T15:05:44Z</time>
      </trkpt>
      <trkpt lat="48.62057" lon="-2.33869">
        <ele>10.9</ele>
        <time>2021-07-27T15:05:46Z</time>
      </trkpt>
      <trkpt lat="48.62058" lon="-2.33872">
        <ele>11</ele>
        <time>2021-07-27T15:05:47Z</time>
      </trkpt>
      <trkpt lat="48.62062" lon="-2.33877">
        <ele>11.4</ele>
        <time>2021-07-27T15:05:49Z</time>
      </trkpt>
      <trkpt lat="48.62064" lon="-2.3388">
        <ele>11.5</ele>
        <time>2021-07-27T15:05:50Z</time>
      </trkpt>
      <trkpt lat="48.62065" lon="-2.33884">
        <ele>11.7</ele>
        <time>2021-07-27T15:05:51Z</time>
      </trkpt>
      <trkpt lat="48.62066" lon="-2.33893">
        <ele>12.1</ele>
        <time>2021-07-27T15:05:53Z</time>
      </trkpt>
      <trkpt lat="48.62066" lon="-2.33897">
        <ele>12.3</ele>
        <time>2021-07-27T15:05:54Z</time>
      </trkpt>
      <trkpt lat="48.62069" lon="-2.33903">
        <ele>13</ele>
        <time>2021-07-27T15:05:56Z</time>
      </trkpt>
      <trkpt lat="48.62071" lon="-2.33909">
        <ele>13.2</ele>
        <time>2021-07-27T15:05:57Z</time>
      </trkpt>
      <trkpt lat="48.62074" lon="-2.33915">
        <ele>13.5</ele>
        <time>2021-07-27T15:05:59Z</time>
      </trkpt>
      <trkpt lat="48.62078" lon="-2.3392">
        <ele>13.9</ele>
        <time>2021-07-27T15:06:00Z</time>
      </trkpt>
      <trkpt lat="48.62082" lon="-2.33923">
        <ele>14.2</ele>
        <time>2021-07-27T15:06:01Z</time>
      </trkpt>
      <trkpt lat="48.62088" lon="-2.33927">
        <ele>14.8</ele>
        <time>2021-07-27T15:06:03Z</time>
      </trkpt>
      <trkpt lat="48.62092" lon="-2.3393">
        <ele>15.2</ele>
        <time>2021-07-27T15:06:04Z</time>
      </trkpt>
      <trkpt lat="48.62097" lon="-2.33932">
        <ele>15.8</ele>
        <time>2021-07-27T15:06:06Z</time>
      </trkpt>
      <trkpt lat="48.62101" lon="-2.33934">
        <ele>16.4</ele>
        <time>2021-07-27T15:06:07Z</time>
      </trkpt>
      <trkpt lat="48.62104" lon="-2.33937">
        <ele>16.9</ele>
        <time>2021-07-27T15:06:08Z</time>
      </trkpt>
      <trkpt lat="48.62108" lon="-2.3394">
        <ele>17.5</ele>
        <time>2021-07-27T15:06:10Z</time>
      </trkpt>
      <trkpt lat="48.62109" lon="-2.33941">
        <ele>17.7</ele>
        <time>2021-07-27T15:06:11Z</time>
      </trkpt>
      <trkpt lat="48.62111" lon="-2.33942">
        <ele>18</ele>
        <time>2021-07-27T15:06:12Z</time>
      </trkpt>
      <trkpt lat="48.62114" lon="-2.33943">
        <ele>18.4</ele>
        <time>2021-07-27T15:06:14Z</time>
      </trkpt>
      <trkpt lat="48.62115" lon="-2.33944">
        <ele>18.6</ele>
        <time>2021-07-27T15:06:15Z</time>
      </trkpt>
      <trkpt lat="48.62118" lon="-2.33945">
        <ele>19</ele>
        <time>2021-07-27T15:06:16Z</time>
      </trkpt>
      <trkpt lat="48.62122" lon="-2.33947">
        <ele>19.6</ele>
        <time>2021-07-27T15:06:18Z</time>
      </trkpt>
      <trkpt lat="48.62124" lon="-2.33948">
        <ele>20.3</ele>
        <time>2021-07-27T15:06:19Z</time>
      </trkpt>
      <trkpt lat="48.62127" lon="-2.33948">
        <ele>20.7</ele>
        <time>2021-07-27T15:06:21Z</time>
      </trkpt>
      <trkpt lat="48.62131" lon="-2.33949">
        <ele>21.1</ele>
        <time>2021-07-27T15:06:22Z</time>
      </trkpt>
      <trkpt lat="48.62134" lon="-2.3395">
        <ele>21.5</ele>
        <time>2021-07-27T15:06:24Z</time>
      </trkpt>
      <trkpt lat="48.62137" lon="-2.33951">
        <ele>21.9</ele>
        <time>2021-07-27T15:06:25Z</time>
      </trkpt>
      <trkpt lat="48.62142" lon="-2.33952">
        <ele>22.6</ele>
        <time>2021-07-27T15:06:27Z</time>
      </trkpt>
      <trkpt lat="48.62144" lon="-2.33952">
        <ele>22.8</ele>
        <time>2021-07-27T15:06:28Z</time>
      </trkpt>
      <trkpt lat="48.62145" lon="-2.33952">
        <ele>23.1</ele>
        <time>2021-07-27T15:06:29Z</time>
      </trkpt>
      <trkpt lat="48.62149" lon="-2.33954">
        <ele>23.6</ele>
        <time>2021-07-27T15:06:31Z</time>
      </trkpt>
      <trkpt lat="48.62152" lon="-2.33955">
        <ele>24.1</ele>
        <time>2021-07-27T15:06:32Z</time>
      </trkpt>
      <trkpt lat="48.62153" lon="-2.33955">
        <ele>24.2</ele>
        <time>2021-07-27T15:06:33Z</time>
      </trkpt>
      <trkpt lat="48.62156" lon="-2.33955">
        <ele>24.7</ele>
        <time>2021-07-27T15:06:35Z</time>
      </trkpt>
      <trkpt lat="48.62158" lon="-2.33956">
        <ele>25</ele>
        <time>2021-07-27T15:06:36Z</time>
      </trkpt>
      <trkpt lat="48.6216" lon="-2.33957">
        <ele>25.3</ele>
        <time>2021-07-27T15:06:38Z</time>
      </trkpt>
      <trkpt lat="48.62162" lon="-2.33957">
        <ele>25.6</ele>
        <time>2021-07-27T15:06:39Z</time>
      </trkpt>
      <trkpt lat="48.62164" lon="-2.33957">
        <ele>25.9</ele>
        <time>2021-07-27T15:06:40Z</time>
      </trkpt>
      <trkpt lat="48.62166" lon="-2.33957">
        <ele>26.2</ele>
        <time>2021-07-27T15:06:41Z</time>
      </trkpt>
      <trkpt lat="48.62168" lon="-2.33959">
        <ele>26.6</ele>
        <time>2021-07-27T15:06:43Z</time>
      </trkpt>
      <trkpt lat="48.62169" lon="-2.33959">
        <ele>26.9</ele>
        <time>2021-07-27T15:06:44Z</time>
      </trkpt>
      <trkpt lat="48.62171" lon="-2.3396">
        <ele>27.2</ele>
        <time>2021-07-27T15:06:46Z</time>
      </trkpt>
      <trkpt lat="48.62172" lon="-2.3396">
        <ele>27.5</ele>
        <time>2021-07-27T15:06:47Z</time>
      </trkpt>
      <trkpt lat="48.62174" lon="-2.33959">
        <ele>27.8</ele>
        <time>2021-07-27T15:06:48Z</time>
      </trkpt>
      <trkpt lat="48.62176" lon="-2.33957">
        <ele>28.1</ele>
        <time>2021-07-27T15:06:50Z</time>
      </trkpt>
      <trkpt lat="48.62177" lon="-2.33956">
        <ele>28.4</ele>
        <time>2021-07-27T15:06:51Z</time>
      </trkpt>
      <trkpt lat="48.62179" lon="-2.33956">
        <ele>28.7</ele>
        <time>2021-07-27T15:06:52Z</time>
      </trkpt>
      <trkpt lat="48.62179" lon="-2.33956">
        <ele>28.8</ele>
        <time>2021-07-27T15:06:53Z</time>
      </trkpt>
      <trkpt lat="48.62179" lon="-2.33957">
        <ele>28.9</ele>
        <time>2021-07-27T15:06:55Z</time>
      </trkpt>
      <trkpt lat="48.62179" lon="-2.33958">
        <ele>29</ele>
        <time>2021-07-27T15:06:56Z</time>
      </trkpt>
      <trkpt lat="48.62179" lon="-2.33958">
        <ele>29</ele>
        <time>2021-07-27T15:06:57Z</time>
      </trkpt>
      <trkpt lat="48.6218" lon="-2.33959">
        <ele>29.2</ele>
        <time>2021-07-27T15:07:00Z</time>
      </trkpt>
      <trkpt lat="48.62182" lon="-2.3396">
        <ele>29.5</ele>
        <time>2021-07-27T15:07:01Z</time>
      </trkpt>
      <trkpt lat="48.62185" lon="-2.33961">
        <ele>30</ele>
        <time>2021-07-27T15:07:03Z</time>
      </trkpt>
      <trkpt lat="48.62187" lon="-2.33964">
        <ele>30.4</ele>
        <time>2021-07-27T15:07:04Z</time>
      </trkpt>
      <trkpt lat="48.62188" lon="-2.33966">
        <ele>30.7</ele>
        <time>2021-07-27T15:07:06Z</time>
      </trkpt>
      <trkpt lat="48.62188" lon="-2.33967">
        <ele>30.8</ele>
        <time>2021-07-27T15:07:07Z</time>
      </trkpt>
      <trkpt lat="48.62189" lon="-2.33967">
        <ele>30.9</ele>
        <time>2021-07-27T15:07:09Z</time>
      </trkpt>
      <trkpt lat="48.6219" lon="-2.33968">
        <ele>31.1</ele>
        <time>2021-07-27T15:07:10Z</time>
      </trkpt>
      <trkpt lat="48.62192" lon="-2.33969">
        <ele>31.5</ele>
        <time>2021-07-27T15:07:12Z</time>
      </trkpt>
      <trkpt lat="48.62193" lon="-2.33969">
        <ele>31.5</ele>
        <time>2021-07-27T15:07:13Z</time>
      </trkpt>
      <trkpt lat="48.62194" lon="-2.3397">
        <ele>31.8</ele>
        <time>2021-07-27T15:07:15Z</time>
      </trkpt>
      <trkpt lat="48.62197" lon="-2.33972">
        <ele>32.3</ele>
        <time>2021-07-27T15:07:17Z</time>
      </trkpt>
      <trkpt lat="48.62199" lon="-2.33973">
        <ele>32.7</ele>
        <time>2021-07-27T15:07:18Z</time>
      </trkpt>
      <trkpt lat="48.62202" lon="-2.33975">
        <ele>33.1</ele>
        <time>2021-07-27T15:07:20Z</time>
      </trkpt>
      <trkpt lat="48.62205" lon="-2.33976">
        <ele>33.7</ele>
        <time>2021-07-27T15:07:21Z</time>
      </trkpt>
      <trkpt lat="48.62206" lon="-2.33977">
        <ele>33.9</ele>
        <time>2021-07-27T15:07:22Z</time>
      </trkpt>
      <trkpt lat="48.62209" lon="-2.33978">
        <ele>34.5</ele>
        <time>2021-07-27T15:07:23Z</time>
      </trkpt>
      <trkpt lat="48.6221" lon="-2.33978">
        <ele>34.6</ele>
        <time>2021-07-27T15:07:24Z</time>
      </trkpt>
      <trkpt lat="48.62211" lon="-2.33978">
        <ele>34.9</ele>
        <time>2021-07-27T15:07:25Z</time>
      </trkpt>
      <trkpt lat="48.62213" lon="-2.33977">
        <ele>35.3</ele>
        <time>2021-07-27T15:07:27Z</time>
      </trkpt>
      <trkpt lat="48.62214" lon="-2.33977">
        <ele>35.5</ele>
        <time>2021-07-27T15:07:28Z</time>
      </trkpt>
      <trkpt lat="48.62214" lon="-2.33976">
        <ele>35.6</ele>
        <time>2021-07-27T15:07:29Z</time>
      </trkpt>
      <trkpt lat="48.62216" lon="-2.33975">
        <ele>36</ele>
        <time>2021-07-27T15:07:31Z</time>
      </trkpt>
      <trkpt lat="48.62218" lon="-2.33972">
        <ele>36.5</ele>
        <time>2021-07-27T15:07:32Z</time>
      </trkpt>
      <trkpt lat="48.62219" lon="-2.33971">
        <ele>36.7</ele>
        <time>2021-07-27T15:07:33Z</time>
      </trkpt>
      <trkpt lat="48.62219" lon="-2.33971">
        <ele>36.9</ele>
        <time>2021-07-27T15:07:34Z</time>
      </trkpt>
      <trkpt lat="48.6222" lon="-2.33969">
        <ele>37.2</ele>
        <time>2021-07-27T15:07:36Z</time>
      </trkpt>
      <trkpt lat="48.62222" lon="-2.33966">
        <ele>37.6</ele>
        <time>2021-07-27T15:07:38Z</time>
      </trkpt>
      <trkpt lat="48.62223" lon="-2.33964">
        <ele>37.9</ele>
        <time>2021-07-27T15:07:39Z</time>
      </trkpt>
      <trkpt lat="48.62223" lon="-2.33962">
        <ele>38.2</ele>
        <time>2021-07-27T15:07:40Z</time>
      </trkpt>
      <trkpt lat="48.62224" lon="-2.33961">
        <ele>38.3</ele>
        <time>2021-07-27T15:07:41Z</time>
      </trkpt>
      <trkpt lat="48.62224" lon="-2.3396">
        <ele>38.5</ele>
        <time>2021-07-27T15:07:42Z</time>
      </trkpt>
      <trkpt lat="48.62224" lon="-2.33956">
        <ele>38.9</ele>
        <time>2021-07-27T15:07:44Z</time>
      </trkpt>
      <trkpt lat="48.62224" lon="-2.33954">
        <ele>39.1</ele>
        <time>2021-07-27T15:07:45Z</time>
      </trkpt>
      <trkpt lat="48.62224" lon="-2.33954">
        <ele>39.2</ele>
        <time>2021-07-27T15:07:47Z</time>
      </trkpt>
      <trkpt lat="48.62223" lon="-2.33952">
        <ele>39.3</ele>
        <time>2021-07-27T15:07:48Z</time>
      </trkpt>
      <trkpt lat="48.62223" lon="-2.3395">
        <ele>39.5</ele>
        <time>2021-07-27T15:07:49Z</time>
      </trkpt>
      <trkpt lat="48.62221" lon="-2.33946">
        <ele>40</ele>
        <time>2021-07-27T15:07:51Z</time>
      </trkpt>
      <trkpt lat="48.6222" lon="-2.33945">
        <ele>40.2</ele>
        <time>2021-07-27T15:07:53Z</time>
      </trkpt>
      <trkpt lat="48.62219" lon="-2.33944">
        <ele>40.3</ele>
        <time>2021-07-27T15:07:54Z</time>
      </trkpt>
      <trkpt lat="48.62216" lon="-2.3394">
        <ele>40.9</ele>
        <time>2021-07-27T15:07:56Z</time>
      </trkpt>
      <trkpt lat="48.62214" lon="-2.33939">
        <ele>41.2</ele>
        <time>2021-07-27T15:07:57Z</time>
      </trkpt>
      <trkpt lat="48.62213" lon="-2.33938">
        <ele>41.4</ele>
        <time>2021-07-27T15:07:59Z</time>
      </trkpt>
      <trkpt lat="48.6221" lon="-2.33936">
        <ele>41.8</ele>
        <time>2021-07-27T15:08:01Z</time>
      </trkpt>
      <trkpt lat="48.62208" lon="-2.33934">
        <ele>42.1</ele>
        <time>2021-07-27T15:08:02Z</time>
      </trkpt>
      <trkpt lat="48.62207" lon="-2.33933">
        <ele>42.5</ele>
        <time>2021-07-27T15:08:04Z</time>
      </trkpt>
      <trkpt lat="48.62206" lon="-2.33932">
        <ele>42.6</ele>
        <time>2021-07-27T15:08:05Z</time>
      </trkpt>
      <trkpt lat="48.62204" lon="-2.3393">
        <ele>42.9</ele>
        <time>2021-07-27T15:08:07Z</time>
      </trkpt>
      <trkpt lat="48.62202" lon="-2.33928">
        <ele>43.4</ele>
        <time>2021-07-27T15:08:08Z</time>
      </trkpt>
      <trkpt lat="48.622" lon="-2.33925">
        <ele>43.8</ele>
        <time>2021-07-27T15:08:09Z</time>
      </trkpt>
      <trkpt lat="48.62199" lon="-2.33924">
        <ele>43.9</ele>
        <time>2021-07-27T15:08:10Z</time>
      </trkpt>
      <trkpt lat="48.62197" lon="-2.33921">
        <ele>44.5</ele>
        <time>2021-07-27T15:08:12Z</time>
      </trkpt>
      <trkpt lat="48.62196" lon="-2.33919">
        <ele>44.7</ele>
        <time>2021-07-27T15:08:14Z</time>
      </trkpt>
      <trkpt lat="48.62195" lon="-2.33918">
        <ele>44.9</ele>
        <time>2021-07-27T15:08:15Z</time>
      </trkpt>
      <trkpt lat="48.62193" lon="-2.33914">
        <ele>45.4</ele>
        <time>2021-07-27T15:08:16Z</time>
      </trkpt>
      <trkpt lat="48.62192" lon="-2.33913">
        <ele>45.6</ele>
        <time>2021-07-27T15:08:17Z</time>
      </trkpt>
      <trkpt lat="48.62191" lon="-2.33911">
        <ele>45.9</ele>
        <time>2021-07-27T15:08:18Z</time>
      </trkpt>
      <trkpt lat="48.62188" lon="-2.33904">
        <ele>46.9</ele>
        <time>2021-07-27T15:08:20Z</time>
      </trkpt>
      <trkpt lat="48.62187" lon="-2.33902">
        <ele>47.3</ele>
        <time>2021-07-27T15:08:21Z</time>
      </trkpt>
      <trkpt lat="48.62185" lon="-2.33898">
        <ele>47.9</ele>
        <time>2021-07-27T15:08:23Z</time>
      </trkpt>
      <trkpt lat="48.62183" lon="-2.33894">
        <ele>48.5</ele>
        <time>2021-07-27T15:08:24Z</time>
      </trkpt>
      <trkpt lat="48.62183" lon="-2.33889">
        <ele>49</ele>
        <time>2021-07-27T15:08:26Z</time>
      </trkpt>
      <trkpt lat="48.62184" lon="-2.33888">
        <ele>49.2</ele>
        <time>2021-07-27T15:08:27Z</time>
      </trkpt>
      <trkpt lat="48.62186" lon="-2.33887">
        <ele>49.5</ele>
        <time>2021-07-27T15:08:29Z</time>
      </trkpt>
      <trkpt lat="48.62187" lon="-2.33887">
        <ele>49.8</ele>
        <time>2021-07-27T15:08:30Z</time>
      </trkpt>
      <trkpt lat="48.62189" lon="-2.33887">
        <ele>50.1</ele>
        <time>2021-07-27T15:08:31Z</time>
      </trkpt>
      <trkpt lat="48.6219" lon="-2.33887">
        <ele>50.3</ele>
        <time>2021-07-27T15:08:33Z</time>
      </trkpt>
      <trkpt lat="48.6219" lon="-2.33886">
        <ele>50.3</ele>
        <time>2021-07-27T15:08:34Z</time>
      </trkpt>
      <trkpt lat="48.6219" lon="-2.33886">
        <ele>50.4</ele>
        <time>2021-07-27T15:08:36Z</time>
      </trkpt>
      <trkpt lat="48.62191" lon="-2.33885">
        <ele>50.5</ele>
        <time>2021-07-27T15:08:37Z</time>
      </trkpt>
      <trkpt lat="48.62194" lon="-2.33884">
        <ele>51</ele>
        <time>2021-07-27T15:08:39Z</time>
      </trkpt>
      <trkpt lat="48.62195" lon="-2.33883">
        <ele>51.2</ele>
        <time>2021-07-27T15:08:41Z</time>
      </trkpt>
      <trkpt lat="48.62197" lon="-2.33883">
        <ele>51.5</ele>
        <time>2021-07-27T15:08:42Z</time>
      </trkpt>
      <trkpt lat="48.62198" lon="-2.33882">
        <ele>51.8</ele>
        <time>2021-07-27T15:08:43Z</time>
      </trkpt>
      <trkpt lat="48.622" lon="-2.33881">
        <ele>52</ele>
        <time>2021-07-27T15:08:44Z</time>
      </trkpt>
      <trkpt lat="48.62203" lon="-2.3388">
        <ele>52.5</ele>
        <time>2021-07-27T15:08:45Z</time>
      </trkpt>
      <trkpt lat="48.62204" lon="-2.33879">
        <ele>52.7</ele>
        <time>2021-07-27T15:08:47Z</time>
      </trkpt>
      <trkpt lat="48.62205" lon="-2.33879">
        <ele>52.9</ele>
        <time>2021-07-27T15:08:48Z</time>
      </trkpt>
      <trkpt lat="48.62207" lon="-2.33879">
        <ele>53</ele>
        <time>2021-07-27T15:08:49Z</time>
      </trkpt>
      <trkpt lat="48.6221" lon="-2.33878">
        <ele>53.5</ele>
        <time>2021-07-27T15:08:51Z</time>
      </trkpt>
      <trkpt lat="48.62212" lon="-2.33877">
        <ele>53.7</ele>
        <time>2021-07-27T15:08:52Z</time>
      </trkpt>
      <trkpt lat="48.62213" lon="-2.33876">
        <ele>53.9</ele>
        <time>2021-07-27T15:08:53Z</time>
      </trkpt>
      <trkpt lat="48.62214" lon="-2.33874">
        <ele>54.1</ele>
        <time>2021-07-27T15:08:54Z</time>
      </trkpt>
      <trkpt lat="48.62215" lon="-2.33873">
        <ele>54.4</ele>
        <time>2021-07-27T15:08:56Z</time>
      </trkpt>
      <trkpt lat="48.62215" lon="-2.33872">
        <ele>54.4</ele>
        <time>2021-07-27T15:08:57Z</time>
      </trkpt>
      <trkpt lat="48.62215" lon="-2.33872">
        <ele>54.4</ele>
        <time>2021-07-27T15:08:58Z</time>
      </trkpt>
      <trkpt lat="48.62216" lon="-2.33872">
        <ele>54.6</ele>
        <time>2021-07-27T15:08:59Z</time>
      </trkpt>
      <trkpt lat="48.62218" lon="-2.33871">
        <ele>54.9</ele>
        <time>2021-07-27T15:09:01Z</time>
      </trkpt>
      <trkpt lat="48.62222" lon="-2.3387">
        <ele>55.3</ele>
        <time>2021-07-27T15:09:02Z</time>
      </trkpt>
      <trkpt lat="48.62223" lon="-2.3387">
        <ele>55.5</ele>
        <time>2021-07-27T15:09:04Z</time>
      </trkpt>
      <trkpt lat="48.62223" lon="-2.33869">
        <ele>55.6</ele>
        <time>2021-07-27T15:09:05Z</time>
      </trkpt>
      <trkpt lat="48.62227" lon="-2.33869">
        <ele>56</ele>
        <time>2021-07-27T15:09:07Z</time>
      </trkpt>
      <trkpt lat="48.6223" lon="-2.33868">
        <ele>56.4</ele>
        <time>2021-07-27T15:09:09Z</time>
      </trkpt>
      <trkpt lat="48.62231" lon="-2.33867">
        <ele>56.6</ele>
        <time>2021-07-27T15:09:10Z</time>
      </trkpt>
      <trkpt lat="48.62232" lon="-2.33867">
        <ele>56.7</ele>
        <time>2021-07-27T15:09:11Z</time>
      </trkpt>
      <trkpt lat="48.62233" lon="-2.33866">
        <ele>56.9</ele>
        <time>2021-07-27T15:09:13Z</time>
      </trkpt>
      <trkpt lat="48.62237" lon="-2.33863">
        <ele>57.5</ele>
        <time>2021-07-27T15:09:15Z</time>
      </trkpt>
      <trkpt lat="48.62241" lon="-2.33861">
        <ele>58</ele>
        <time>2021-07-27T15:09:17Z</time>
      </trkpt>
      <trkpt lat="48.62243" lon="-2.3386">
        <ele>58.4</ele>
        <time>2021-07-27T15:09:18Z</time>
      </trkpt>
      <trkpt lat="48.62248" lon="-2.33855">
        <ele>59</ele>
        <time>2021-07-27T15:09:20Z</time>
      </trkpt>
      <trkpt lat="48.6225" lon="-2.33854">
        <ele>59.2</ele>
        <time>2021-07-27T15:09:22Z</time>
      </trkpt>
      <trkpt lat="48.62252" lon="-2.33852">
        <ele>59.4</ele>
        <time>2021-07-27T15:09:24Z</time>
      </trkpt>
      <trkpt lat="48.62253" lon="-2.3385">
        <ele>59.6</ele>
        <time>2021-07-27T15:09:26Z</time>
      </trkpt>
      <trkpt lat="48.62255" lon="-2.33849">
        <ele>59.8</ele>
        <time>2021-07-27T15:09:27Z</time>
      </trkpt>
      <trkpt lat="48.62257" lon="-2.33847">
        <ele>60</ele>
        <time>2021-07-27T15:09:28Z</time>
      </trkpt>
      <trkpt lat="48.62258" lon="-2.33845">
        <ele>60.1</ele>
        <time>2021-07-27T15:09:29Z</time>
      </trkpt>
      <trkpt lat="48.6226" lon="-2.33843">
        <ele>60.3</ele>
        <time>2021-07-27T15:09:30Z</time>
      </trkpt>
      <trkpt lat="48.62262" lon="-2.3384">
        <ele>60.5</ele>
        <time>2021-07-27T15:09:32Z</time>
      </trkpt>
      <trkpt lat="48.62267" lon="-2.33835">
        <ele>60.9</ele>
        <time>2021-07-27T15:09:34Z</time>
      </trkpt>
      <trkpt lat="48.62268" lon="-2.33833">
        <ele>61</ele>
        <time>2021-07-27T15:09:36Z</time>
      </trkpt>
      <trkpt lat="48.6227" lon="-2.33832">
        <ele>61.1</ele>
        <time>2021-07-27T15:09:37Z</time>
      </trkpt>
      <trkpt lat="48.62271" lon="-2.3383">
        <ele>61.3</ele>
        <time>2021-07-27T15:09:38Z</time>
      </trkpt>
      <trkpt lat="48.62274" lon="-2.33827">
        <ele>61.5</ele>
        <time>2021-07-27T15:09:40Z</time>
      </trkpt>
      <trkpt lat="48.62276" lon="-2.33824">
        <ele>61.8</ele>
        <time>2021-07-27T15:09:42Z</time>
      </trkpt>
      <trkpt lat="48.62278" lon="-2.33822">
        <ele>61.9</ele>
        <time>2021-07-27T15:09:43Z</time>
      </trkpt>
      <trkpt lat="48.62279" lon="-2.33821">
        <ele>62.1</ele>
        <time>2021-07-27T15:09:44Z</time>
      </trkpt>
      <trkpt lat="48.6228" lon="-2.33819">
        <ele>62.2</ele>
        <time>2021-07-27T15:09:45Z</time>
      </trkpt>
      <trkpt lat="48.62282" lon="-2.33818">
        <ele>62.4</ele>
        <time>2021-07-27T15:09:46Z</time>
      </trkpt>
      <trkpt lat="48.62284" lon="-2.33817">
        <ele>62.6</ele>
        <time>2021-07-27T15:09:48Z</time>
      </trkpt>
      <trkpt lat="48.62286" lon="-2.33816">
        <ele>62.8</ele>
        <time>2021-07-27T15:09:49Z</time>
      </trkpt>
      <trkpt lat="48.62288" lon="-2.33814">
        <ele>63</ele>
        <time>2021-07-27T15:09:51Z</time>
      </trkpt>
      <trkpt lat="48.6229" lon="-2.33815">
        <ele>63.1</ele>
        <time>2021-07-27T15:09:52Z</time>
      </trkpt>
      <trkpt lat="48.62293" lon="-2.33813">
        <ele>63.3</ele>
        <time>2021-07-27T15:09:54Z</time>
      </trkpt>
      <trkpt lat="48.62295" lon="-2.33811">
        <ele>63.5</ele>
        <time>2021-07-27T15:09:56Z</time>
      </trkpt>
      <trkpt lat="48.62296" lon="-2.3381">
        <ele>63.5</ele>
        <time>2021-07-27T15:09:57Z</time>
      </trkpt>
      <trkpt lat="48.62299" lon="-2.33808">
        <ele>63.7</ele>
        <time>2021-07-27T15:09:59Z</time>
      </trkpt>
      <trkpt lat="48.62299" lon="-2.33807">
        <ele>63.7</ele>
        <time>2021-07-27T15:10:00Z</time>
      </trkpt>
      <trkpt lat="48.62301" lon="-2.33806">
        <ele>63.8</ele>
        <time>2021-07-27T15:10:02Z</time>
      </trkpt>
      <trkpt lat="48.62302" lon="-2.33804">
        <ele>63.9</ele>
        <time>2021-07-27T15:10:03Z</time>
      </trkpt>
      <trkpt lat="48.62305" lon="-2.33802">
        <ele>64</ele>
        <time>2021-07-27T15:10:04Z</time>
      </trkpt>
      <trkpt lat="48.62306" lon="-2.33801">
        <ele>64</ele>
        <time>2021-07-27T15:10:05Z</time>
      </trkpt>
      <trkpt lat="48.62309" lon="-2.338">
        <ele>64.1</ele>
        <time>2021-07-27T15:10:07Z</time>
      </trkpt>
      <trkpt lat="48.62312" lon="-2.33798">
        <ele>64.3</ele>
        <time>2021-07-27T15:10:09Z</time>
      </trkpt>
      <trkpt lat="48.62313" lon="-2.33797">
        <ele>64.3</ele>
        <time>2021-07-27T15:10:10Z</time>
      </trkpt>
      <trkpt lat="48.62315" lon="-2.33795">
        <ele>64.4</ele>
        <time>2021-07-27T15:10:11Z</time>
      </trkpt>
      <trkpt lat="48.62318" lon="-2.33791">
        <ele>64.5</ele>
        <time>2021-07-27T15:10:13Z</time>
      </trkpt>
      <trkpt lat="48.62321" lon="-2.33787">
        <ele>64.6</ele>
        <time>2021-07-27T15:10:15Z</time>
      </trkpt>
      <trkpt lat="48.62322" lon="-2.33785">
        <ele>64.6</ele>
        <time>2021-07-27T15:10:16Z</time>
      </trkpt>
      <trkpt lat="48.62323" lon="-2.33782">
        <ele>64.7</ele>
        <time>2021-07-27T15:10:18Z</time>
      </trkpt>
      <trkpt lat="48.62323" lon="-2.33781">
        <ele>64.7</ele>
        <time>2021-07-27T15:10:19Z</time>
      </trkpt>
      <trkpt lat="48.62322" lon="-2.33779">
        <ele>64.7</ele>
        <time>2021-07-27T15:10:20Z</time>
      </trkpt>
      <trkpt lat="48.62321" lon="-2.33776">
        <ele>64.7</ele>
        <time>2021-07-27T15:10:22Z</time>
      </trkpt>
      <trkpt lat="48.62323" lon="-2.3377">
        <ele>64.7</ele>
        <time>2021-07-27T15:10:23Z</time>
      </trkpt>
      <trkpt lat="48.62327" lon="-2.33765">
        <ele>64.7</ele>
        <time>2021-07-27T15:10:24Z</time>
      </trkpt>
      <trkpt lat="48.62328" lon="-2.33761">
        <ele>64.7</ele>
        <time>2021-07-27T15:10:25Z</time>
      </trkpt>
      <trkpt lat="48.6233" lon="-2.33758">
        <ele>64.8</ele>
        <time>2021-07-27T15:10:26Z</time>
      </trkpt>
      <trkpt lat="48.62331" lon="-2.33755">
        <ele>64.8</ele>
        <time>2021-07-27T15:10:28Z</time>
      </trkpt>
      <trkpt lat="48.6233" lon="-2.33749">
        <ele>64.8</ele>
        <time>2021-07-27T15:10:29Z</time>
      </trkpt>
      <trkpt lat="48.62329" lon="-2.33748">
        <ele>64.9</ele>
        <time>2021-07-27T15:10:30Z</time>
      </trkpt>
      <trkpt lat="48.62327" lon="-2.33743">
        <ele>64.9</ele>
        <time>2021-07-27T15:10:32Z</time>
      </trkpt>
      <trkpt lat="48.62324" lon="-2.33738">
        <ele>64.9</ele>
        <time>2021-07-27T15:10:33Z</time>
      </trkpt>
      <trkpt lat="48.62323" lon="-2.33736">
        <ele>65</ele>
        <time>2021-07-27T15:10:34Z</time>
      </trkpt>
      <trkpt lat="48.62322" lon="-2.33732">
        <ele>65</ele>
        <time>2021-07-27T15:10:35Z</time>
      </trkpt>
      <trkpt lat="48.62322" lon="-2.33728">
        <ele>65</ele>
        <time>2021-07-27T15:10:36Z</time>
      </trkpt>
      <trkpt lat="48.62325" lon="-2.33724">
        <ele>65</ele>
        <time>2021-07-27T15:10:38Z</time>
      </trkpt>
      <trkpt lat="48.62329" lon="-2.33723">
        <ele>65</ele>
        <time>2021-07-27T15:10:39Z</time>
      </trkpt>
      <trkpt lat="48.62333" lon="-2.33722">
        <ele>65</ele>
        <time>2021-07-27T15:10:41Z</time>
      </trkpt>
      <trkpt lat="48.62336" lon="-2.3372">
        <ele>65</ele>
        <time>2021-07-27T15:10:42Z</time>
      </trkpt>
      <trkpt lat="48.62338" lon="-2.33719">
        <ele>65</ele>
        <time>2021-07-27T15:10:43Z</time>
      </trkpt>
      <trkpt lat="48.62341" lon="-2.33717">
        <ele>65</ele>
        <time>2021-07-27T15:10:44Z</time>
      </trkpt>
      <trkpt lat="48.62344" lon="-2.33715">
        <ele>65.1</ele>
        <time>2021-07-27T15:10:46Z</time>
      </trkpt>
      <trkpt lat="48.62347" lon="-2.33713">
        <ele>65.1</ele>
        <time>2021-07-27T15:10:47Z</time>
      </trkpt>
      <trkpt lat="48.6235" lon="-2.33711">
        <ele>65.2</ele>
        <time>2021-07-27T15:10:48Z</time>
      </trkpt>
      <trkpt lat="48.62353" lon="-2.3371">
        <ele>65.2</ele>
        <time>2021-07-27T15:10:50Z</time>
      </trkpt>
      <trkpt lat="48.62356" lon="-2.33708">
        <ele>65.3</ele>
        <time>2021-07-27T15:10:51Z</time>
      </trkpt>
      <trkpt lat="48.62358" lon="-2.33707">
        <ele>65.4</ele>
        <time>2021-07-27T15:10:52Z</time>
      </trkpt>
      <trkpt lat="48.62361" lon="-2.33705">
        <ele>65.4</ele>
        <time>2021-07-27T15:10:54Z</time>
      </trkpt>
      <trkpt lat="48.62364" lon="-2.33703">
        <ele>65.5</ele>
        <time>2021-07-27T15:10:55Z</time>
      </trkpt>
      <trkpt lat="48.62367" lon="-2.33701">
        <ele>65.6</ele>
        <time>2021-07-27T15:10:56Z</time>
      </trkpt>
      <trkpt lat="48.6237" lon="-2.33698">
        <ele>65.7</ele>
        <time>2021-07-27T15:10:57Z</time>
      </trkpt>
      <trkpt lat="48.62371" lon="-2.33698">
        <ele>65.7</ele>
        <time>2021-07-27T15:10:58Z</time>
      </trkpt>
      <trkpt lat="48.62375" lon="-2.33696">
        <ele>65.8</ele>
        <time>2021-07-27T15:11:00Z</time>
      </trkpt>
      <trkpt lat="48.62377" lon="-2.33694">
        <ele>65.8</ele>
        <time>2021-07-27T15:11:01Z</time>
      </trkpt>
      <trkpt lat="48.62381" lon="-2.33693">
        <ele>65.9</ele>
        <time>2021-07-27T15:11:02Z</time>
      </trkpt>
      <trkpt lat="48.62384" lon="-2.3369">
        <ele>65.9</ele>
        <time>2021-07-27T15:11:04Z</time>
      </trkpt>
      <trkpt lat="48.62387" lon="-2.33688">
        <ele>66</ele>
        <time>2021-07-27T15:11:05Z</time>
      </trkpt>
      <trkpt lat="48.6239" lon="-2.33685">
        <ele>66</ele>
        <time>2021-07-27T15:11:06Z</time>
      </trkpt>
      <trkpt lat="48.62395" lon="-2.33682">
        <ele>66.1</ele>
        <time>2021-07-27T15:11:08Z</time>
      </trkpt>
      <trkpt lat="48.62398" lon="-2.3368">
        <ele>66.1</ele>
        <time>2021-07-27T15:11:09Z</time>
      </trkpt>
      <trkpt lat="48.62403" lon="-2.33677">
        <ele>66.1</ele>
        <time>2021-07-27T15:11:11Z</time>
      </trkpt>
      <trkpt lat="48.62405" lon="-2.33675">
        <ele>66.2</ele>
        <time>2021-07-27T15:11:12Z</time>
      </trkpt>
      <trkpt lat="48.62408" lon="-2.33673">
        <ele>66.2</ele>
        <time>2021-07-27T15:11:13Z</time>
      </trkpt>
      <trkpt lat="48.62412" lon="-2.33671">
        <ele>66.2</ele>
        <time>2021-07-27T15:11:15Z</time>
      </trkpt>
      <trkpt lat="48.62415" lon="-2.33668">
        <ele>66.3</ele>
        <time>2021-07-27T15:11:16Z</time>
      </trkpt>
      <trkpt lat="48.62418" lon="-2.33666">
        <ele>66.3</ele>
        <time>2021-07-27T15:11:17Z</time>
      </trkpt>
      <trkpt lat="48.62421" lon="-2.33665">
        <ele>66.3</ele>
        <time>2021-07-27T15:11:18Z</time>
      </trkpt>
      <trkpt lat="48.62426" lon="-2.33661">
        <ele>66.4</ele>
        <time>2021-07-27T15:11:20Z</time>
      </trkpt>
      <trkpt lat="48.6243" lon="-2.33659">
        <ele>66.4</ele>
        <time>2021-07-27T15:11:21Z</time>
      </trkpt>
      <trkpt lat="48.62433" lon="-2.33657">
        <ele>66.5</ele>
        <time>2021-07-27T15:11:22Z</time>
      </trkpt>
      <trkpt lat="48.62437" lon="-2.33653">
        <ele>66.5</ele>
        <time>2021-07-27T15:11:24Z</time>
      </trkpt>
      <trkpt lat="48.62441" lon="-2.3365">
        <ele>66.6</ele>
        <time>2021-07-27T15:11:25Z</time>
      </trkpt>
      <trkpt lat="48.62447" lon="-2.33647">
        <ele>66.6</ele>
        <time>2021-07-27T15:11:26Z</time>
      </trkpt>
      <trkpt lat="48.62451" lon="-2.33645">
        <ele>66.7</ele>
        <time>2021-07-27T15:11:27Z</time>
      </trkpt>
      <trkpt lat="48.62458" lon="-2.33641">
        <ele>66.6</ele>
        <time>2021-07-27T15:11:29Z</time>
      </trkpt>
      <trkpt lat="48.62462" lon="-2.33637">
        <ele>66.6</ele>
        <time>2021-07-27T15:11:30Z</time>
      </trkpt>
      <trkpt lat="48.62467" lon="-2.33634">
        <ele>66.5</ele>
        <time>2021-07-27T15:11:32Z</time>
      </trkpt>
      <trkpt lat="48.62472" lon="-2.33632">
        <ele>66.5</ele>
        <time>2021-07-27T15:11:33Z</time>
      </trkpt>
      <trkpt lat="48.62476" lon="-2.33631">
        <ele>66.5</ele>
        <time>2021-07-27T15:11:34Z</time>
      </trkpt>
      <trkpt lat="48.6248" lon="-2.33629">
        <ele>66.5</ele>
        <time>2021-07-27T15:11:35Z</time>
      </trkpt>
      <trkpt lat="48.62485" lon="-2.33627">
        <ele>66.5</ele>
        <time>2021-07-27T15:11:36Z</time>
      </trkpt>
      <trkpt lat="48.62489" lon="-2.33626">
        <ele>66.4</ele>
        <time>2021-07-27T15:11:37Z</time>
      </trkpt>
      <trkpt lat="48.62497" lon="-2.33622">
        <ele>66.3</ele>
        <time>2021-07-27T15:11:39Z</time>
      </trkpt>
      <trkpt lat="48.62505" lon="-2.33619">
        <ele>66.3</ele>
        <time>2021-07-27T15:11:41Z</time>
      </trkpt>
      <trkpt lat="48.6251" lon="-2.33618">
        <ele>66.2</ele>
        <time>2021-07-27T15:11:42Z</time>
      </trkpt>
      <trkpt lat="48.62516" lon="-2.33616">
        <ele>66.2</ele>
        <time>2021-07-27T15:11:44Z</time>
      </trkpt>
      <trkpt lat="48.62522" lon="-2.33615">
        <ele>66.2</ele>
        <time>2021-07-27T15:11:45Z</time>
      </trkpt>
      <trkpt lat="48.62528" lon="-2.33613">
        <ele>66.2</ele>
        <time>2021-07-27T15:11:47Z</time>
      </trkpt>
      <trkpt lat="48.62534" lon="-2.33611">
        <ele>66.2</ele>
        <time>2021-07-27T15:11:48Z</time>
      </trkpt>
      <trkpt lat="48.62538" lon="-2.3361">
        <ele>66.3</ele>
        <time>2021-07-27T15:11:50Z</time>
      </trkpt>
      <trkpt lat="48.62543" lon="-2.33609">
        <ele>66.3</ele>
        <time>2021-07-27T15:11:51Z</time>
      </trkpt>
      <trkpt lat="48.62548" lon="-2.33608">
        <ele>66.3</ele>
        <time>2021-07-27T15:11:52Z</time>
      </trkpt>
      <trkpt lat="48.62554" lon="-2.33606">
        <ele>66.4</ele>
        <time>2021-07-27T15:11:53Z</time>
      </trkpt>
      <trkpt lat="48.62559" lon="-2.33605">
        <ele>66.4</ele>
        <time>2021-07-27T15:11:55Z</time>
      </trkpt>
      <trkpt lat="48.62565" lon="-2.33603">
        <ele>66.4</ele>
        <time>2021-07-27T15:11:56Z</time>
      </trkpt>
      <trkpt lat="48.62569" lon="-2.33602">
        <ele>66.5</ele>
        <time>2021-07-27T15:11:57Z</time>
      </trkpt>
      <trkpt lat="48.62576" lon="-2.33601">
        <ele>66.5</ele>
        <time>2021-07-27T15:11:59Z</time>
      </trkpt>
      <trkpt lat="48.62581" lon="-2.336">
        <ele>66.5</ele>
        <time>2021-07-27T15:12:00Z</time>
      </trkpt>
      <trkpt lat="48.62584" lon="-2.336">
        <ele>66.5</ele>
        <time>2021-07-27T15:12:01Z</time>
      </trkpt>
      <trkpt lat="48.62588" lon="-2.336">
        <ele>66.6</ele>
        <time>2021-07-27T15:12:03Z</time>
      </trkpt>
      <trkpt lat="48.62592" lon="-2.336">
        <ele>66.6</ele>
        <time>2021-07-27T15:12:04Z</time>
      </trkpt>
      <trkpt lat="48.62595" lon="-2.33601">
        <ele>66.6</ele>
        <time>2021-07-27T15:12:05Z</time>
      </trkpt>
      <trkpt lat="48.62599" lon="-2.336">
        <ele>66.6</ele>
        <time>2021-07-27T15:12:06Z</time>
      </trkpt>
      <trkpt lat="48.62602" lon="-2.33598">
        <ele>66.8</ele>
        <time>2021-07-27T15:12:07Z</time>
      </trkpt>
      <trkpt lat="48.62603" lon="-2.33597">
        <ele>66.8</ele>
        <time>2021-07-27T15:12:08Z</time>
      </trkpt>
      <trkpt lat="48.62604" lon="-2.33597">
        <ele>66.9</ele>
        <time>2021-07-27T15:12:09Z</time>
      </trkpt>
      <trkpt lat="48.62604" lon="-2.33598">
        <ele>66.9</ele>
        <time>2021-07-27T15:12:10Z</time>
      </trkpt>
      <trkpt lat="48.62604" lon="-2.33599">
        <ele>66.9</ele>
        <time>2021-07-27T15:12:11Z</time>
      </trkpt>
      <trkpt lat="48.62604" lon="-2.33599">
        <ele>66.9</ele>
        <time>2021-07-27T15:12:12Z</time>
      </trkpt>
      <trkpt lat="48.62604" lon="-2.336">
        <ele>66.9</ele>
        <time>2021-07-27T15:12:14Z</time>
      </trkpt>
      <trkpt lat="48.62604" lon="-2.33601">
        <ele>66.9</ele>
        <time>2021-07-27T15:12:15Z</time>
      </trkpt>
      <trkpt lat="48.62603" lon="-2.33601">
        <ele>67</ele>
        <time>2021-07-27T15:12:16Z</time>
      </trkpt>
      <trkpt lat="48.62603" lon="-2.33602">
        <ele>67</ele>
        <time>2021-07-27T15:12:17Z</time>
      </trkpt>
      <trkpt lat="48.62603" lon="-2.33603">
        <ele>67</ele>
        <time>2021-07-27T15:12:19Z</time>
      </trkpt>
      <trkpt lat="48.62603" lon="-2.33603">
        <ele>67</ele>
        <time>2021-07-27T15:12:21Z</time>
      </trkpt>
      <trkpt lat="48.62603" lon="-2.33604">
        <ele>67</ele>
        <time>2021-07-27T15:12:57Z</time>
      </trkpt>
      <trkpt lat="48.62603" lon="-2.33605">
        <ele>67.1</ele>
        <time>2021-07-27T15:12:58Z</time>
      </trkpt>
      <trkpt lat="48.62603" lon="-2.33605">
        <ele>67.1</ele>
        <time>2021-07-27T15:12:59Z</time>
      </trkpt>
      <trkpt lat="48.62603" lon="-2.3361">
        <ele>67.2</ele>
        <time>2021-07-27T15:13:00Z</time>
      </trkpt>
      <trkpt lat="48.62603" lon="-2.33615">
        <ele>67.4</ele>
        <time>2021-07-27T15:13:02Z</time>
      </trkpt>
      <trkpt lat="48.62603" lon="-2.33622">
        <ele>67.6</ele>
        <time>2021-07-27T15:13:03Z</time>
      </trkpt>
      <trkpt lat="48.62603" lon="-2.3363">
        <ele>67.8</ele>
        <time>2021-07-27T15:13:05Z</time>
      </trkpt>
      <trkpt lat="48.62603" lon="-2.33634">
        <ele>67.9</ele>
        <time>2021-07-27T15:13:06Z</time>
      </trkpt>
      <trkpt lat="48.62604" lon="-2.33642">
        <ele>68.2</ele>
        <time>2021-07-27T15:13:08Z</time>
      </trkpt>
      <trkpt lat="48.62604" lon="-2.33646">
        <ele>68.3</ele>
        <time>2021-07-27T15:13:09Z</time>
      </trkpt>
      <trkpt lat="48.62604" lon="-2.33654">
        <ele>68.5</ele>
        <time>2021-07-27T15:13:11Z</time>
      </trkpt>
      <trkpt lat="48.62604" lon="-2.33659">
        <ele>68.6</ele>
        <time>2021-07-27T15:13:12Z</time>
      </trkpt>
      <trkpt lat="48.62604" lon="-2.33667">
        <ele>68.8</ele>
        <time>2021-07-27T15:13:14Z</time>
      </trkpt>
      <trkpt lat="48.62604" lon="-2.33671">
        <ele>68.9</ele>
        <time>2021-07-27T15:13:15Z</time>
      </trkpt>
      <trkpt lat="48.62604" lon="-2.33676">
        <ele>69</ele>
        <time>2021-07-27T15:13:16Z</time>
      </trkpt>
      <trkpt lat="48.62608" lon="-2.33681">
        <ele>69.2</ele>
        <time>2021-07-27T15:13:18Z</time>
      </trkpt>
      <trkpt lat="48.62611" lon="-2.33678">
        <ele>69.2</ele>
        <time>2021-07-27T15:13:19Z</time>
      </trkpt>
      <trkpt lat="48.62615" lon="-2.33669">
        <ele>69</ele>
        <time>2021-07-27T15:13:21Z</time>
      </trkpt>
      <trkpt lat="48.62618" lon="-2.33664">
        <ele>69</ele>
        <time>2021-07-27T15:13:22Z</time>
      </trkpt>
      <trkpt lat="48.62621" lon="-2.33658">
        <ele>68.9</ele>
        <time>2021-07-27T15:13:24Z</time>
      </trkpt>
      <trkpt lat="48.62627" lon="-2.33651">
        <ele>68.9</ele>
        <time>2021-07-27T15:13:25Z</time>
      </trkpt>
      <trkpt lat="48.62634" lon="-2.33644">
        <ele>68.9</ele>
        <time>2021-07-27T15:13:27Z</time>
      </trkpt>
      <trkpt lat="48.62644" lon="-2.33639">
        <ele>68.9</ele>
        <time>2021-07-27T15:13:29Z</time>
      </trkpt>
      <trkpt lat="48.62648" lon="-2.33637">
        <ele>68.8</ele>
        <time>2021-07-27T15:13:30Z</time>
      </trkpt>
      <trkpt lat="48.62659" lon="-2.33632">
        <ele>68.8</ele>
        <time>2021-07-27T15:13:32Z</time>
      </trkpt>
      <trkpt lat="48.62664" lon="-2.3363">
        <ele>68.7</ele>
        <time>2021-07-27T15:13:33Z</time>
      </trkpt>
      <trkpt lat="48.62668" lon="-2.33627">
        <ele>68.6</ele>
        <time>2021-07-27T15:13:34Z</time>
      </trkpt>
      <trkpt lat="48.62673" lon="-2.33624">
        <ele>68.5</ele>
        <time>2021-07-27T15:13:35Z</time>
      </trkpt>
      <trkpt lat="48.62682" lon="-2.33617">
        <ele>68.4</ele>
        <time>2021-07-27T15:13:37Z</time>
      </trkpt>
      <trkpt lat="48.62692" lon="-2.33609">
        <ele>68.3</ele>
        <time>2021-07-27T15:13:39Z</time>
      </trkpt>
      <trkpt lat="48.62697" lon="-2.33605">
        <ele>68.2</ele>
        <time>2021-07-27T15:13:40Z</time>
      </trkpt>
      <trkpt lat="48.62702" lon="-2.336">
        <ele>68.1</ele>
        <time>2021-07-27T15:13:41Z</time>
      </trkpt>
      <trkpt lat="48.62707" lon="-2.33595">
        <ele>68</ele>
        <time>2021-07-27T15:13:42Z</time>
      </trkpt>
      <trkpt lat="48.62712" lon="-2.3359">
        <ele>67.9</ele>
        <time>2021-07-27T15:13:43Z</time>
      </trkpt>
      <trkpt lat="48.62723" lon="-2.3358">
        <ele>67.8</ele>
        <time>2021-07-27T15:13:45Z</time>
      </trkpt>
      <trkpt lat="48.62734" lon="-2.3357">
        <ele>67.6</ele>
        <time>2021-07-27T15:13:47Z</time>
      </trkpt>
      <trkpt lat="48.62746" lon="-2.33563">
        <ele>67.5</ele>
        <time>2021-07-27T15:13:49Z</time>
      </trkpt>
      <trkpt lat="48.6276" lon="-2.33557">
        <ele>67.4</ele>
        <time>2021-07-27T15:13:51Z</time>
      </trkpt>
      <trkpt lat="48.62773" lon="-2.33553">
        <ele>67.2</ele>
        <time>2021-07-27T15:13:53Z</time>
      </trkpt>
      <trkpt lat="48.6278" lon="-2.33551">
        <ele>67.1</ele>
        <time>2021-07-27T15:13:54Z</time>
      </trkpt>
      <trkpt lat="48.62795" lon="-2.33546">
        <ele>67</ele>
        <time>2021-07-27T15:13:56Z</time>
      </trkpt>
      <trkpt lat="48.62802" lon="-2.33544">
        <ele>66.9</ele>
        <time>2021-07-27T15:13:57Z</time>
      </trkpt>
      <trkpt lat="48.62808" lon="-2.33541">
        <ele>66.9</ele>
        <time>2021-07-27T15:13:58Z</time>
      </trkpt>
      <trkpt lat="48.62815" lon="-2.33539">
        <ele>66.9</ele>
        <time>2021-07-27T15:13:59Z</time>
      </trkpt>
      <trkpt lat="48.62829" lon="-2.33536">
        <ele>66.9</ele>
        <time>2021-07-27T15:14:01Z</time>
      </trkpt>
      <trkpt lat="48.62835" lon="-2.33534">
        <ele>66.9</ele>
        <time>2021-07-27T15:14:03Z</time>
      </trkpt>
      <trkpt lat="48.62849" lon="-2.33532">
        <ele>66.9</ele>
        <time>2021-07-27T15:14:04Z</time>
      </trkpt>
      <trkpt lat="48.62855" lon="-2.3353">
        <ele>66.9</ele>
        <time>2021-07-27T15:14:06Z</time>
      </trkpt>
      <trkpt lat="48.62868" lon="-2.33527">
        <ele>67</ele>
        <time>2021-07-27T15:14:07Z</time>
      </trkpt>
      <trkpt lat="48.62881" lon="-2.33523">
        <ele>66.9</ele>
        <time>2021-07-27T15:14:09Z</time>
      </trkpt>
      <trkpt lat="48.62887" lon="-2.33521">
        <ele>66.9</ele>
        <time>2021-07-27T15:14:10Z</time>
      </trkpt>
      <trkpt lat="48.62893" lon="-2.33518">
        <ele>66.8</ele>
        <time>2021-07-27T15:14:11Z</time>
      </trkpt>
      <trkpt lat="48.62906" lon="-2.33512">
        <ele>66.7</ele>
        <time>2021-07-27T15:14:13Z</time>
      </trkpt>
      <trkpt lat="48.62913" lon="-2.33508">
        <ele>66.7</ele>
        <time>2021-07-27T15:14:14Z</time>
      </trkpt>
      <trkpt lat="48.62919" lon="-2.33504">
        <ele>66.7</ele>
        <time>2021-07-27T15:14:15Z</time>
      </trkpt>
      <trkpt lat="48.62933" lon="-2.33497">
        <ele>66.4</ele>
        <time>2021-07-27T15:14:17Z</time>
      </trkpt>
      <trkpt lat="48.62947" lon="-2.3349">
        <ele>65.9</ele>
        <time>2021-07-27T15:14:19Z</time>
      </trkpt>
      <trkpt lat="48.62955" lon="-2.33486">
        <ele>65.7</ele>
        <time>2021-07-27T15:14:21Z</time>
      </trkpt>
      <trkpt lat="48.62969" lon="-2.33479">
        <ele>65.4</ele>
        <time>2021-07-27T15:14:22Z</time>
      </trkpt>
      <trkpt lat="48.62982" lon="-2.33471">
        <ele>65.1</ele>
        <time>2021-07-27T15:14:24Z</time>
      </trkpt>
      <trkpt lat="48.6299" lon="-2.33468">
        <ele>64.9</ele>
        <time>2021-07-27T15:14:25Z</time>
      </trkpt>
      <trkpt lat="48.62997" lon="-2.33464">
        <ele>64.8</ele>
        <time>2021-07-27T15:14:26Z</time>
      </trkpt>
      <trkpt lat="48.6301" lon="-2.33454">
        <ele>64.6</ele>
        <time>2021-07-27T15:14:28Z</time>
      </trkpt>
      <trkpt lat="48.63024" lon="-2.33444">
        <ele>64.4</ele>
        <time>2021-07-27T15:14:30Z</time>
      </trkpt>
      <trkpt lat="48.63037" lon="-2.33433">
        <ele>64.3</ele>
        <time>2021-07-27T15:14:32Z</time>
      </trkpt>
      <trkpt lat="48.63044" lon="-2.33428">
        <ele>64.2</ele>
        <time>2021-07-27T15:14:33Z</time>
      </trkpt>
      <trkpt lat="48.63057" lon="-2.33418">
        <ele>64.1</ele>
        <time>2021-07-27T15:14:35Z</time>
      </trkpt>
      <trkpt lat="48.63063" lon="-2.33412">
        <ele>64</ele>
        <time>2021-07-27T15:14:36Z</time>
      </trkpt>
      <trkpt lat="48.6307" lon="-2.33407">
        <ele>64</ele>
        <time>2021-07-27T15:14:37Z</time>
      </trkpt>
      <trkpt lat="48.63082" lon="-2.33398">
        <ele>64</ele>
        <time>2021-07-27T15:14:39Z</time>
      </trkpt>
      <trkpt lat="48.63088" lon="-2.33393">
        <ele>64</ele>
        <time>2021-07-27T15:14:40Z</time>
      </trkpt>
      <trkpt lat="48.63094" lon="-2.33388">
        <ele>63.9</ele>
        <time>2021-07-27T15:14:41Z</time>
      </trkpt>
      <trkpt lat="48.63106" lon="-2.3338">
        <ele>63.8</ele>
        <time>2021-07-27T15:14:43Z</time>
      </trkpt>
      <trkpt lat="48.6312" lon="-2.33377">
        <ele>63.7</ele>
        <time>2021-07-27T15:14:45Z</time>
      </trkpt>
      <trkpt lat="48.63127" lon="-2.33379">
        <ele>63.6</ele>
        <time>2021-07-27T15:14:46Z</time>
      </trkpt>
      <trkpt lat="48.63137" lon="-2.3339">
        <ele>63.7</ele>
        <time>2021-07-27T15:14:48Z</time>
      </trkpt>
      <trkpt lat="48.63148" lon="-2.33393">
        <ele>63.9</ele>
        <time>2021-07-27T15:14:50Z</time>
      </trkpt>
      <trkpt lat="48.63156" lon="-2.33384">
        <ele>63.9</ele>
        <time>2021-07-27T15:14:52Z</time>
      </trkpt>
      <trkpt lat="48.63158" lon="-2.33368">
        <ele>63.5</ele>
        <time>2021-07-27T15:14:54Z</time>
      </trkpt>
      <trkpt lat="48.63159" lon="-2.3335">
        <ele>63.5</ele>
        <time>2021-07-27T15:14:56Z</time>
      </trkpt>
      <trkpt lat="48.63159" lon="-2.33341">
        <ele>63.5</ele>
        <time>2021-07-27T15:14:57Z</time>
      </trkpt>
      <trkpt lat="48.6316" lon="-2.33322">
        <ele>63.4</ele>
        <time>2021-07-27T15:14:59Z</time>
      </trkpt>
      <trkpt lat="48.63161" lon="-2.33303">
        <ele>63.4</ele>
        <time>2021-07-27T15:15:01Z</time>
      </trkpt>
      <trkpt lat="48.63163" lon="-2.33284">
        <ele>63.3</ele>
        <time>2021-07-27T15:15:03Z</time>
      </trkpt>
      <trkpt lat="48.63164" lon="-2.33275">
        <ele>63.3</ele>
        <time>2021-07-27T15:15:04Z</time>
      </trkpt>
      <trkpt lat="48.63168" lon="-2.33257">
        <ele>63.4</ele>
        <time>2021-07-27T15:15:06Z</time>
      </trkpt>
      <trkpt lat="48.63176" lon="-2.3324">
        <ele>63.5</ele>
        <time>2021-07-27T15:15:08Z</time>
      </trkpt>
      <trkpt lat="48.6318" lon="-2.33233">
        <ele>63.5</ele>
        <time>2021-07-27T15:15:09Z</time>
      </trkpt>
      <trkpt lat="48.63184" lon="-2.33226">
        <ele>63.6</ele>
        <time>2021-07-27T15:15:10Z</time>
      </trkpt>
      <trkpt lat="48.63191" lon="-2.33212">
        <ele>63.7</ele>
        <time>2021-07-27T15:15:12Z</time>
      </trkpt>
      <trkpt lat="48.63194" lon="-2.33206">
        <ele>63.7</ele>
        <time>2021-07-27T15:15:13Z</time>
      </trkpt>
      <trkpt lat="48.632" lon="-2.33193">
        <ele>63.9</ele>
        <time>2021-07-27T15:15:15Z</time>
      </trkpt>
      <trkpt lat="48.63204" lon="-2.33182">
        <ele>63.9</ele>
        <time>2021-07-27T15:15:17Z</time>
      </trkpt>
      <trkpt lat="48.63205" lon="-2.33176">
        <ele>64</ele>
        <time>2021-07-27T15:15:19Z</time>
      </trkpt>
      <trkpt lat="48.63205" lon="-2.33173">
        <ele>64</ele>
        <time>2021-07-27T15:15:20Z</time>
      </trkpt>
      <trkpt lat="48.63204" lon="-2.33173">
        <ele>64</ele>
        <time>2021-07-27T15:15:22Z</time>
      </trkpt>
      <trkpt lat="48.63204" lon="-2.33174">
        <ele>64</ele>
        <time>2021-07-27T15:15:24Z</time>
      </trkpt>
      <trkpt lat="48.63204" lon="-2.33174">
        <ele>64</ele>
        <time>2021-07-27T15:15:25Z</time>
      </trkpt>
      <trkpt lat="48.63205" lon="-2.33174">
        <ele>64</ele>
        <time>2021-07-27T15:15:27Z</time>
      </trkpt>
      <trkpt lat="48.63205" lon="-2.33174">
        <ele>64</ele>
        <time>2021-07-27T15:15:29Z</time>
      </trkpt>
      <trkpt lat="48.63205" lon="-2.33174">
        <ele>64</ele>
        <time>2021-07-27T15:15:30Z</time>
      </trkpt>
      <trkpt lat="48.63207" lon="-2.33185">
        <ele>64</ele>
        <time>2021-07-27T15:15:45Z</time>
      </trkpt>
      <trkpt lat="48.63209" lon="-2.33188">
        <ele>64</ele>
        <time>2021-07-27T15:15:46Z</time>
      </trkpt>
      <trkpt lat="48.63212" lon="-2.3319">
        <ele>64</ele>
        <time>2021-07-27T15:15:47Z</time>
      </trkpt>
      <trkpt lat="48.63216" lon="-2.33192">
        <ele>64.1</ele>
        <time>2021-07-27T15:15:49Z</time>
      </trkpt>
      <trkpt lat="48.63222" lon="-2.33198">
        <ele>64.1</ele>
        <time>2021-07-27T15:15:51Z</time>
      </trkpt>
      <trkpt lat="48.63224" lon="-2.33202">
        <ele>64.2</ele>
        <time>2021-07-27T15:15:52Z</time>
      </trkpt>
      <trkpt lat="48.63228" lon="-2.33205">
        <ele>64.2</ele>
        <time>2021-07-27T15:15:53Z</time>
      </trkpt>
      <trkpt lat="48.63232" lon="-2.33209">
        <ele>64.3</ele>
        <time>2021-07-27T15:15:54Z</time>
      </trkpt>
      <trkpt lat="48.63236" lon="-2.33213">
        <ele>64.4</ele>
        <time>2021-07-27T15:15:56Z</time>
      </trkpt>
      <trkpt lat="48.63241" lon="-2.33218">
        <ele>64.5</ele>
        <time>2021-07-27T15:15:57Z</time>
      </trkpt>
      <trkpt lat="48.63246" lon="-2.33222">
        <ele>64.5</ele>
        <time>2021-07-27T15:15:59Z</time>
      </trkpt>
      <trkpt lat="48.63252" lon="-2.33227">
        <ele>64.7</ele>
        <time>2021-07-27T15:16:00Z</time>
      </trkpt>
      <trkpt lat="48.63256" lon="-2.3323">
        <ele>64.7</ele>
        <time>2021-07-27T15:16:01Z</time>
      </trkpt>
      <trkpt lat="48.63261" lon="-2.33234">
        <ele>64.8</ele>
        <time>2021-07-27T15:16:03Z</time>
      </trkpt>
      <trkpt lat="48.63265" lon="-2.33238">
        <ele>64.9</ele>
        <time>2021-07-27T15:16:04Z</time>
      </trkpt>
      <trkpt lat="48.63268" lon="-2.33242">
        <ele>64.9</ele>
        <time>2021-07-27T15:16:05Z</time>
      </trkpt>
      <trkpt lat="48.63273" lon="-2.33248">
        <ele>65</ele>
        <time>2021-07-27T15:16:06Z</time>
      </trkpt>
      <trkpt lat="48.63275" lon="-2.33248">
        <ele>65</ele>
        <time>2021-07-27T15:16:08Z</time>
      </trkpt>
      <trkpt lat="48.63278" lon="-2.33252">
        <ele>65</ele>
        <time>2021-07-27T15:16:09Z</time>
      </trkpt>
      <trkpt lat="48.63283" lon="-2.33256">
        <ele>65.1</ele>
        <time>2021-07-27T15:16:10Z</time>
      </trkpt>
      <trkpt lat="48.63288" lon="-2.33258">
        <ele>65</ele>
        <time>2021-07-27T15:16:12Z</time>
      </trkpt>
      <trkpt lat="48.63287" lon="-2.33258">
        <ele>65</ele>
        <time>2021-07-27T15:16:14Z</time>
      </trkpt>
      <trkpt lat="48.63287" lon="-2.33258">
        <ele>65</ele>
        <time>2021-07-27T15:16:15Z</time>
      </trkpt>
      <trkpt lat="48.63287" lon="-2.33258">
        <ele>65</ele>
        <time>2021-07-27T15:16:17Z</time>
      </trkpt>
      <trkpt lat="48.63287" lon="-2.33258">
        <ele>65</ele>
        <time>2021-07-27T15:16:19Z</time>
      </trkpt>
      <trkpt lat="48.63286" lon="-2.33258">
        <ele>65</ele>
        <time>2021-07-27T15:16:20Z</time>
      </trkpt>
      <trkpt lat="48.63286" lon="-2.33258">
        <ele>65</ele>
        <time>2021-07-27T15:16:22Z</time>
      </trkpt>
      <trkpt lat="48.63291" lon="-2.33256">
        <ele>64.9</ele>
        <time>2021-07-27T15:16:57Z</time>
      </trkpt>
      <trkpt lat="48.63295" lon="-2.33249">
        <ele>64.9</ele>
        <time>2021-07-27T15:16:59Z</time>
      </trkpt>
      <trkpt lat="48.63297" lon="-2.33244">
        <ele>64.8</ele>
        <time>2021-07-27T15:17:00Z</time>
      </trkpt>
      <trkpt lat="48.63301" lon="-2.33239">
        <ele>64.8</ele>
        <time>2021-07-27T15:17:01Z</time>
      </trkpt>
      <trkpt lat="48.63306" lon="-2.33233">
        <ele>64.7</ele>
        <time>2021-07-27T15:17:03Z</time>
      </trkpt>
      <trkpt lat="48.63313" lon="-2.33228">
        <ele>64.7</ele>
        <time>2021-07-27T15:17:05Z</time>
      </trkpt>
      <trkpt lat="48.63317" lon="-2.33223">
        <ele>64.7</ele>
        <time>2021-07-27T15:17:06Z</time>
      </trkpt>
      <trkpt lat="48.63321" lon="-2.3322">
        <ele>64.7</ele>
        <time>2021-07-27T15:17:07Z</time>
      </trkpt>
      <trkpt lat="48.63327" lon="-2.33213">
        <ele>64.7</ele>
        <time>2021-07-27T15:17:09Z</time>
      </trkpt>
      <trkpt lat="48.63329" lon="-2.33209">
        <ele>64.7</ele>
        <time>2021-07-27T15:17:10Z</time>
      </trkpt>
      <trkpt lat="48.63332" lon="-2.33206">
        <ele>64.7</ele>
        <time>2021-07-27T15:17:11Z</time>
      </trkpt>
      <trkpt lat="48.63336" lon="-2.33201">
        <ele>64.8</ele>
        <time>2021-07-27T15:17:13Z</time>
      </trkpt>
      <trkpt lat="48.63339" lon="-2.33195">
        <ele>64.8</ele>
        <time>2021-07-27T15:17:14Z</time>
      </trkpt>
      <trkpt lat="48.63342" lon="-2.33189">
        <ele>64.9</ele>
        <time>2021-07-27T15:17:15Z</time>
      </trkpt>
      <trkpt lat="48.63344" lon="-2.33185">
        <ele>64.9</ele>
        <time>2021-07-27T15:17:16Z</time>
      </trkpt>
      <trkpt lat="48.63349" lon="-2.33176">
        <ele>64.9</ele>
        <time>2021-07-27T15:17:18Z</time>
      </trkpt>
      <trkpt lat="48.63353" lon="-2.33169">
        <ele>65</ele>
        <time>2021-07-27T15:17:20Z</time>
      </trkpt>
      <trkpt lat="48.63356" lon="-2.33164">
        <ele>65</ele>
        <time>2021-07-27T15:17:21Z</time>
      </trkpt>
      <trkpt lat="48.6336" lon="-2.33158">
        <ele>65.1</ele>
        <time>2021-07-27T15:17:22Z</time>
      </trkpt>
      <trkpt lat="48.63363" lon="-2.33153">
        <ele>65.1</ele>
        <time>2021-07-27T15:17:23Z</time>
      </trkpt>
      <trkpt lat="48.63368" lon="-2.33146">
        <ele>65.3</ele>
        <time>2021-07-27T15:17:25Z</time>
      </trkpt>
      <trkpt lat="48.63373" lon="-2.33138">
        <ele>65.4</ele>
        <time>2021-07-27T15:17:27Z</time>
      </trkpt>
      <trkpt lat="48.63376" lon="-2.33131">
        <ele>65.5</ele>
        <time>2021-07-27T15:17:28Z</time>
      </trkpt>
      <trkpt lat="48.63378" lon="-2.33127">
        <ele>65.6</ele>
        <time>2021-07-27T15:17:29Z</time>
      </trkpt>
      <trkpt lat="48.63381" lon="-2.33122">
        <ele>65.7</ele>
        <time>2021-07-27T15:17:31Z</time>
      </trkpt>
      <trkpt lat="48.63384" lon="-2.33114">
        <ele>65.9</ele>
        <time>2021-07-27T15:17:32Z</time>
      </trkpt>
      <trkpt lat="48.63387" lon="-2.33108">
        <ele>66</ele>
        <time>2021-07-27T15:17:34Z</time>
      </trkpt>
      <trkpt lat="48.6339" lon="-2.33104">
        <ele>66.1</ele>
        <time>2021-07-27T15:17:35Z</time>
      </trkpt>
      <trkpt lat="48.63392" lon="-2.331">
        <ele>66.2</ele>
        <time>2021-07-27T15:17:36Z</time>
      </trkpt>
      <trkpt lat="48.63395" lon="-2.33095">
        <ele>66.3</ele>
        <time>2021-07-27T15:17:37Z</time>
      </trkpt>
      <trkpt lat="48.63397" lon="-2.3309">
        <ele>66.5</ele>
        <time>2021-07-27T15:17:38Z</time>
      </trkpt>
      <trkpt lat="48.634" lon="-2.33085">
        <ele>66.6</ele>
        <time>2021-07-27T15:17:39Z</time>
      </trkpt>
      <trkpt lat="48.63403" lon="-2.3308">
        <ele>66.7</ele>
        <time>2021-07-27T15:17:41Z</time>
      </trkpt>
      <trkpt lat="48.63406" lon="-2.33074">
        <ele>66.9</ele>
        <time>2021-07-27T15:17:42Z</time>
      </trkpt>
      <trkpt lat="48.63408" lon="-2.3307">
        <ele>67</ele>
        <time>2021-07-27T15:17:43Z</time>
      </trkpt>
      <trkpt lat="48.63412" lon="-2.33064">
        <ele>67.2</ele>
        <time>2021-07-27T15:17:44Z</time>
      </trkpt>
      <trkpt lat="48.63415" lon="-2.3306">
        <ele>67.3</ele>
        <time>2021-07-27T15:17:45Z</time>
      </trkpt>
      <trkpt lat="48.63418" lon="-2.33057">
        <ele>67.4</ele>
        <time>2021-07-27T15:17:46Z</time>
      </trkpt>
      <trkpt lat="48.63422" lon="-2.3305">
        <ele>67.7</ele>
        <time>2021-07-27T15:17:48Z</time>
      </trkpt>
      <trkpt lat="48.63425" lon="-2.33046">
        <ele>67.8</ele>
        <time>2021-07-27T15:17:49Z</time>
      </trkpt>
      <trkpt lat="48.63428" lon="-2.33043">
        <ele>67.9</ele>
        <time>2021-07-27T15:17:50Z</time>
      </trkpt>
      <trkpt lat="48.6343" lon="-2.33039">
        <ele>68</ele>
        <time>2021-07-27T15:17:51Z</time>
      </trkpt>
      <trkpt lat="48.63434" lon="-2.33034">
        <ele>68.2</ele>
        <time>2021-07-27T15:17:53Z</time>
      </trkpt>
      <trkpt lat="48.63437" lon="-2.3303">
        <ele>68.2</ele>
        <time>2021-07-27T15:17:54Z</time>
      </trkpt>
      <trkpt lat="48.63439" lon="-2.33027">
        <ele>68.3</ele>
        <time>2021-07-27T15:17:55Z</time>
      </trkpt>
      <trkpt lat="48.63443" lon="-2.33022">
        <ele>68.3</ele>
        <time>2021-07-27T15:17:57Z</time>
      </trkpt>
      <trkpt lat="48.63447" lon="-2.33018">
        <ele>68.3</ele>
        <time>2021-07-27T15:17:58Z</time>
      </trkpt>
      <trkpt lat="48.6345" lon="-2.33015">
        <ele>68.2</ele>
        <time>2021-07-27T15:17:59Z</time>
      </trkpt>
      <trkpt lat="48.63456" lon="-2.33011">
        <ele>68.2</ele>
        <time>2021-07-27T15:18:01Z</time>
      </trkpt>
      <trkpt lat="48.6346" lon="-2.33008">
        <ele>68.1</ele>
        <time>2021-07-27T15:18:02Z</time>
      </trkpt>
      <trkpt lat="48.63465" lon="-2.33004">
        <ele>68.1</ele>
        <time>2021-07-27T15:18:04Z</time>
      </trkpt>
      <trkpt lat="48.63469" lon="-2.33">
        <ele>68.1</ele>
        <time>2021-07-27T15:18:05Z</time>
      </trkpt>
      <trkpt lat="48.63472" lon="-2.32995">
        <ele>68.1</ele>
        <time>2021-07-27T15:18:06Z</time>
      </trkpt>
      <trkpt lat="48.63473" lon="-2.32991">
        <ele>68.1</ele>
        <time>2021-07-27T15:18:07Z</time>
      </trkpt>
      <trkpt lat="48.63476" lon="-2.32984">
        <ele>68.1</ele>
        <time>2021-07-27T15:18:09Z</time>
      </trkpt>
      <trkpt lat="48.63477" lon="-2.3298">
        <ele>68.1</ele>
        <time>2021-07-27T15:18:10Z</time>
      </trkpt>
      <trkpt lat="48.63483" lon="-2.32975">
        <ele>68</ele>
        <time>2021-07-27T15:18:12Z</time>
      </trkpt>
      <trkpt lat="48.63488" lon="-2.32974">
        <ele>67.9</ele>
        <time>2021-07-27T15:18:13Z</time>
      </trkpt>
      <trkpt lat="48.63493" lon="-2.32974">
        <ele>67.8</ele>
        <time>2021-07-27T15:18:14Z</time>
      </trkpt>
      <trkpt lat="48.63498" lon="-2.32976">
        <ele>67.8</ele>
        <time>2021-07-27T15:18:15Z</time>
      </trkpt>
      <trkpt lat="48.63503" lon="-2.32979">
        <ele>67.7</ele>
        <time>2021-07-27T15:18:17Z</time>
      </trkpt>
      <trkpt lat="48.63509" lon="-2.32983">
        <ele>67.7</ele>
        <time>2021-07-27T15:18:18Z</time>
      </trkpt>
      <trkpt lat="48.63514" lon="-2.32986">
        <ele>67.6</ele>
        <time>2021-07-27T15:18:20Z</time>
      </trkpt>
      <trkpt lat="48.6352" lon="-2.32988">
        <ele>67.5</ele>
        <time>2021-07-27T15:18:21Z</time>
      </trkpt>
      <trkpt lat="48.63525" lon="-2.3299">
        <ele>67.5</ele>
        <time>2021-07-27T15:18:22Z</time>
      </trkpt>
      <trkpt lat="48.6353" lon="-2.32991">
        <ele>67.5</ele>
        <time>2021-07-27T15:18:24Z</time>
      </trkpt>
      <trkpt lat="48.63537" lon="-2.32992">
        <ele>67.4</ele>
        <time>2021-07-27T15:18:25Z</time>
      </trkpt>
      <trkpt lat="48.6354" lon="-2.32993">
        <ele>67.4</ele>
        <time>2021-07-27T15:18:26Z</time>
      </trkpt>
      <trkpt lat="48.63544" lon="-2.32994">
        <ele>67.4</ele>
        <time>2021-07-27T15:18:28Z</time>
      </trkpt>
      <trkpt lat="48.63548" lon="-2.32995">
        <ele>67.4</ele>
        <time>2021-07-27T15:18:29Z</time>
      </trkpt>
      <trkpt lat="48.63552" lon="-2.32998">
        <ele>67.5</ele>
        <time>2021-07-27T15:18:30Z</time>
      </trkpt>
      <trkpt lat="48.63555" lon="-2.33001">
        <ele>67.5</ele>
        <time>2021-07-27T15:18:31Z</time>
      </trkpt>
      <trkpt lat="48.6356" lon="-2.33004">
        <ele>67.5</ele>
        <time>2021-07-27T15:18:33Z</time>
      </trkpt>
      <trkpt lat="48.63564" lon="-2.33006">
        <ele>67.5</ele>
        <time>2021-07-27T15:18:34Z</time>
      </trkpt>
      <trkpt lat="48.63568" lon="-2.33009">
        <ele>67.6</ele>
        <time>2021-07-27T15:18:35Z</time>
      </trkpt>
      <trkpt lat="48.63572" lon="-2.33012">
        <ele>67.6</ele>
        <time>2021-07-27T15:18:36Z</time>
      </trkpt>
      <trkpt lat="48.63578" lon="-2.33017">
        <ele>67.7</ele>
        <time>2021-07-27T15:18:38Z</time>
      </trkpt>
      <trkpt lat="48.63582" lon="-2.33021">
        <ele>67.8</ele>
        <time>2021-07-27T15:18:40Z</time>
      </trkpt>
      <trkpt lat="48.63587" lon="-2.33026">
        <ele>67.8</ele>
        <time>2021-07-27T15:18:41Z</time>
      </trkpt>
      <trkpt lat="48.63592" lon="-2.33031">
        <ele>67.9</ele>
        <time>2021-07-27T15:18:42Z</time>
      </trkpt>
      <trkpt lat="48.63595" lon="-2.33034">
        <ele>67.9</ele>
        <time>2021-07-27T15:18:43Z</time>
      </trkpt>
      <trkpt lat="48.636" lon="-2.33039">
        <ele>68</ele>
        <time>2021-07-27T15:18:45Z</time>
      </trkpt>
      <trkpt lat="48.63604" lon="-2.33043">
        <ele>68</ele>
        <time>2021-07-27T15:18:46Z</time>
      </trkpt>
      <trkpt lat="48.63608" lon="-2.33046">
        <ele>68</ele>
        <time>2021-07-27T15:18:47Z</time>
      </trkpt>
      <trkpt lat="48.63615" lon="-2.33051">
        <ele>68</ele>
        <time>2021-07-27T15:18:49Z</time>
      </trkpt>
      <trkpt lat="48.63619" lon="-2.33053">
        <ele>68</ele>
        <time>2021-07-27T15:18:50Z</time>
      </trkpt>
      <trkpt lat="48.63622" lon="-2.33055">
        <ele>67.9</ele>
        <time>2021-07-27T15:18:51Z</time>
      </trkpt>
      <trkpt lat="48.63626" lon="-2.33057">
        <ele>68</ele>
        <time>2021-07-27T15:18:52Z</time>
      </trkpt>
      <trkpt lat="48.63633" lon="-2.33061">
        <ele>68.1</ele>
        <time>2021-07-27T15:18:54Z</time>
      </trkpt>
      <trkpt lat="48.63638" lon="-2.33063">
        <ele>68.2</ele>
        <time>2021-07-27T15:18:55Z</time>
      </trkpt>
      <trkpt lat="48.63642" lon="-2.33066">
        <ele>68.3</ele>
        <time>2021-07-27T15:18:56Z</time>
      </trkpt>
      <trkpt lat="48.63646" lon="-2.33069">
        <ele>68.3</ele>
        <time>2021-07-27T15:18:57Z</time>
      </trkpt>
      <trkpt lat="48.63651" lon="-2.33076">
        <ele>68.3</ele>
        <time>2021-07-27T15:18:59Z</time>
      </trkpt>
      <trkpt lat="48.63656" lon="-2.33081">
        <ele>68.2</ele>
        <time>2021-07-27T15:19:01Z</time>
      </trkpt>
      <trkpt lat="48.6366" lon="-2.33085">
        <ele>68</ele>
        <time>2021-07-27T15:19:02Z</time>
      </trkpt>
      <trkpt lat="48.63665" lon="-2.3309">
        <ele>67.9</ele>
        <time>2021-07-27T15:19:04Z</time>
      </trkpt>
      <trkpt lat="48.63669" lon="-2.33095">
        <ele>67.7</ele>
        <time>2021-07-27T15:19:05Z</time>
      </trkpt>
      <trkpt lat="48.63674" lon="-2.331">
        <ele>67.5</ele>
        <time>2021-07-27T15:19:06Z</time>
      </trkpt>
      <trkpt lat="48.63681" lon="-2.33107">
        <ele>67.3</ele>
        <time>2021-07-27T15:19:07Z</time>
      </trkpt>
      <trkpt lat="48.63685" lon="-2.33112">
        <ele>67.2</ele>
        <time>2021-07-27T15:19:09Z</time>
      </trkpt>
      <trkpt lat="48.63691" lon="-2.33117">
        <ele>67</ele>
        <time>2021-07-27T15:19:10Z</time>
      </trkpt>
      <trkpt lat="48.637" lon="-2.3312">
        <ele>66.9</ele>
        <time>2021-07-27T15:19:12Z</time>
      </trkpt>
      <trkpt lat="48.63706" lon="-2.33122">
        <ele>66.9</ele>
        <time>2021-07-27T15:19:13Z</time>
      </trkpt>
      <trkpt lat="48.63716" lon="-2.33124">
        <ele>67.2</ele>
        <time>2021-07-27T15:19:14Z</time>
      </trkpt>
      <trkpt lat="48.63727" lon="-2.33128">
        <ele>67.5</ele>
        <time>2021-07-27T15:19:16Z</time>
      </trkpt>
      <trkpt lat="48.63738" lon="-2.33133">
        <ele>67.7</ele>
        <time>2021-07-27T15:19:18Z</time>
      </trkpt>
      <trkpt lat="48.63747" lon="-2.33137">
        <ele>67.8</ele>
        <time>2021-07-27T15:19:20Z</time>
      </trkpt>
      <trkpt lat="48.63751" lon="-2.3314">
        <ele>67.9</ele>
        <time>2021-07-27T15:19:21Z</time>
      </trkpt>
      <trkpt lat="48.63756" lon="-2.33144">
        <ele>67.9</ele>
        <time>2021-07-27T15:19:23Z</time>
      </trkpt>
      <trkpt lat="48.63761" lon="-2.33146">
        <ele>67.8</ele>
        <time>2021-07-27T15:19:24Z</time>
      </trkpt>
      <trkpt lat="48.63765" lon="-2.33148">
        <ele>67.8</ele>
        <time>2021-07-27T15:19:25Z</time>
      </trkpt>
      <trkpt lat="48.63772" lon="-2.33153">
        <ele>67.6</ele>
        <time>2021-07-27T15:19:27Z</time>
      </trkpt>
      <trkpt lat="48.63777" lon="-2.33157">
        <ele>67.3</ele>
        <time>2021-07-27T15:19:28Z</time>
      </trkpt>
      <trkpt lat="48.63781" lon="-2.33161">
        <ele>67</ele>
        <time>2021-07-27T15:19:29Z</time>
      </trkpt>
      <trkpt lat="48.63789" lon="-2.33169">
        <ele>66.5</ele>
        <time>2021-07-27T15:19:31Z</time>
      </trkpt>
      <trkpt lat="48.63793" lon="-2.33174">
        <ele>66.3</ele>
        <time>2021-07-27T15:19:32Z</time>
      </trkpt>
      <trkpt lat="48.63802" lon="-2.33183">
        <ele>65.7</ele>
        <time>2021-07-27T15:19:34Z</time>
      </trkpt>
      <trkpt lat="48.6381" lon="-2.33192">
        <ele>65</ele>
        <time>2021-07-27T15:19:36Z</time>
      </trkpt>
      <trkpt lat="48.63813" lon="-2.33197">
        <ele>64.7</ele>
        <time>2021-07-27T15:19:37Z</time>
      </trkpt>
      <trkpt lat="48.63816" lon="-2.33204">
        <ele>64.4</ele>
        <time>2021-07-27T15:19:39Z</time>
      </trkpt>
      <trkpt lat="48.63819" lon="-2.33212">
        <ele>63.9</ele>
        <time>2021-07-27T15:19:40Z</time>
      </trkpt>
      <trkpt lat="48.63822" lon="-2.33216">
        <ele>63.6</ele>
        <time>2021-07-27T15:19:41Z</time>
      </trkpt>
      <trkpt lat="48.63825" lon="-2.33218">
        <ele>63.5</ele>
        <time>2021-07-27T15:19:42Z</time>
      </trkpt>
      <trkpt lat="48.6383" lon="-2.33217">
        <ele>63.4</ele>
        <time>2021-07-27T15:19:44Z</time>
      </trkpt>
      <trkpt lat="48.63835" lon="-2.33216">
        <ele>63.3</ele>
        <time>2021-07-27T15:19:45Z</time>
      </trkpt>
      <trkpt lat="48.63838" lon="-2.33214">
        <ele>63.2</ele>
        <time>2021-07-27T15:19:46Z</time>
      </trkpt>
      <trkpt lat="48.63845" lon="-2.33213">
        <ele>63.1</ele>
        <time>2021-07-27T15:19:48Z</time>
      </trkpt>
      <trkpt lat="48.63848" lon="-2.33215">
        <ele>63</ele>
        <time>2021-07-27T15:19:49Z</time>
      </trkpt>
      <trkpt lat="48.63851" lon="-2.33219">
        <ele>62.9</ele>
        <time>2021-07-27T15:19:50Z</time>
      </trkpt>
      <trkpt lat="48.63856" lon="-2.33226">
        <ele>62.6</ele>
        <time>2021-07-27T15:19:52Z</time>
      </trkpt>
      <trkpt lat="48.63859" lon="-2.33229">
        <ele>62.5</ele>
        <time>2021-07-27T15:19:53Z</time>
      </trkpt>
      <trkpt lat="48.63864" lon="-2.33232">
        <ele>62.4</ele>
        <time>2021-07-27T15:19:55Z</time>
      </trkpt>
      <trkpt lat="48.63875" lon="-2.33238">
        <ele>62.1</ele>
        <time>2021-07-27T15:19:57Z</time>
      </trkpt>
      <trkpt lat="48.63886" lon="-2.33239">
        <ele>61.9</ele>
        <time>2021-07-27T15:19:59Z</time>
      </trkpt>
      <trkpt lat="48.6389" lon="-2.33239">
        <ele>61.7</ele>
        <time>2021-07-27T15:20:00Z</time>
      </trkpt>
      <trkpt lat="48.63894" lon="-2.3324">
        <ele>61.6</ele>
        <time>2021-07-27T15:20:01Z</time>
      </trkpt>
      <trkpt lat="48.63903" lon="-2.33247">
        <ele>61</ele>
        <time>2021-07-27T15:20:03Z</time>
      </trkpt>
      <trkpt lat="48.63908" lon="-2.3326">
        <ele>60.4</ele>
        <time>2021-07-27T15:20:05Z</time>
      </trkpt>
      <trkpt lat="48.63913" lon="-2.33272">
        <ele>59.8</ele>
        <time>2021-07-27T15:20:07Z</time>
      </trkpt>
      <trkpt lat="48.63918" lon="-2.33284">
        <ele>59.2</ele>
        <time>2021-07-27T15:20:09Z</time>
      </trkpt>
      <trkpt lat="48.63923" lon="-2.33295">
        <ele>58.9</ele>
        <time>2021-07-27T15:20:11Z</time>
      </trkpt>
      <trkpt lat="48.63929" lon="-2.33305">
        <ele>58.1</ele>
        <time>2021-07-27T15:20:13Z</time>
      </trkpt>
      <trkpt lat="48.63931" lon="-2.33309">
        <ele>58.1</ele>
        <time>2021-07-27T15:20:14Z</time>
      </trkpt>
      <trkpt lat="48.63939" lon="-2.33319">
        <ele>57.3</ele>
        <time>2021-07-27T15:20:16Z</time>
      </trkpt>
      <trkpt lat="48.63941" lon="-2.33323">
        <ele>57.1</ele>
        <time>2021-07-27T15:20:17Z</time>
      </trkpt>
      <trkpt lat="48.63942" lon="-2.33329">
        <ele>56.9</ele>
        <time>2021-07-27T15:20:18Z</time>
      </trkpt>
      <trkpt lat="48.63946" lon="-2.33336">
        <ele>56.5</ele>
        <time>2021-07-27T15:20:20Z</time>
      </trkpt>
      <trkpt lat="48.63952" lon="-2.33342">
        <ele>56.2</ele>
        <time>2021-07-27T15:20:21Z</time>
      </trkpt>
      <trkpt lat="48.63958" lon="-2.33347">
        <ele>56.1</ele>
        <time>2021-07-27T15:20:22Z</time>
      </trkpt>
      <trkpt lat="48.63963" lon="-2.33349">
        <ele>55.9</ele>
        <time>2021-07-27T15:20:24Z</time>
      </trkpt>
      <trkpt lat="48.63971" lon="-2.3335">
        <ele>55.9</ele>
        <time>2021-07-27T15:20:25Z</time>
      </trkpt>
      <trkpt lat="48.63975" lon="-2.33348">
        <ele>56.1</ele>
        <time>2021-07-27T15:20:27Z</time>
      </trkpt>
      <trkpt lat="48.63977" lon="-2.33346">
        <ele>56.1</ele>
        <time>2021-07-27T15:20:28Z</time>
      </trkpt>
      <trkpt lat="48.63978" lon="-2.33345">
        <ele>56.1</ele>
        <time>2021-07-27T15:20:29Z</time>
      </trkpt>
      <trkpt lat="48.63981" lon="-2.33338">
        <ele>56.4</ele>
        <time>2021-07-27T15:20:30Z</time>
      </trkpt>
      <trkpt lat="48.63982" lon="-2.33333">
        <ele>56.5</ele>
        <time>2021-07-27T15:20:32Z</time>
      </trkpt>
      <trkpt lat="48.63985" lon="-2.33326">
        <ele>56.8</ele>
        <time>2021-07-27T15:20:33Z</time>
      </trkpt>
      <trkpt lat="48.6399" lon="-2.33323">
        <ele>56.8</ele>
        <time>2021-07-27T15:20:35Z</time>
      </trkpt>
      <trkpt lat="48.63993" lon="-2.33324">
        <ele>56.8</ele>
        <time>2021-07-27T15:20:36Z</time>
      </trkpt>
      <trkpt lat="48.63995" lon="-2.33324">
        <ele>56.8</ele>
        <time>2021-07-27T15:20:37Z</time>
      </trkpt>
      <trkpt lat="48.63999" lon="-2.33329">
        <ele>56.7</ele>
        <time>2021-07-27T15:20:39Z</time>
      </trkpt>
      <trkpt lat="48.64004" lon="-2.33334">
        <ele>56.6</ele>
        <time>2021-07-27T15:20:40Z</time>
      </trkpt>
      <trkpt lat="48.64009" lon="-2.33338">
        <ele>56.4</ele>
        <time>2021-07-27T15:20:41Z</time>
      </trkpt>
      <trkpt lat="48.64013" lon="-2.3334">
        <ele>56.3</ele>
        <time>2021-07-27T15:20:42Z</time>
      </trkpt>
      <trkpt lat="48.64019" lon="-2.33346">
        <ele>56.2</ele>
        <time>2021-07-27T15:20:44Z</time>
      </trkpt>
      <trkpt lat="48.64023" lon="-2.33352">
        <ele>56</ele>
        <time>2021-07-27T15:20:46Z</time>
      </trkpt>
      <trkpt lat="48.6403" lon="-2.33356">
        <ele>55.9</ele>
        <time>2021-07-27T15:20:47Z</time>
      </trkpt>
      <trkpt lat="48.64034" lon="-2.3336">
        <ele>55.7</ele>
        <time>2021-07-27T15:20:49Z</time>
      </trkpt>
      <trkpt lat="48.64039" lon="-2.33363">
        <ele>55.5</ele>
        <time>2021-07-27T15:20:50Z</time>
      </trkpt>
      <trkpt lat="48.64043" lon="-2.33362">
        <ele>55.4</ele>
        <time>2021-07-27T15:20:51Z</time>
      </trkpt>
      <trkpt lat="48.64047" lon="-2.33359">
        <ele>55.4</ele>
        <time>2021-07-27T15:20:53Z</time>
      </trkpt>
      <trkpt lat="48.64051" lon="-2.33355">
        <ele>55.5</ele>
        <time>2021-07-27T15:20:54Z</time>
      </trkpt>
      <trkpt lat="48.64054" lon="-2.3335">
        <ele>55.5</ele>
        <time>2021-07-27T15:20:55Z</time>
      </trkpt>
      <trkpt lat="48.64057" lon="-2.33346">
        <ele>55.6</ele>
        <time>2021-07-27T15:20:57Z</time>
      </trkpt>
      <trkpt lat="48.64059" lon="-2.33341">
        <ele>55.7</ele>
        <time>2021-07-27T15:20:58Z</time>
      </trkpt>
      <trkpt lat="48.64064" lon="-2.33334">
        <ele>55.8</ele>
        <time>2021-07-27T15:20:59Z</time>
      </trkpt>
      <trkpt lat="48.64068" lon="-2.33328">
        <ele>55.9</ele>
        <time>2021-07-27T15:21:01Z</time>
      </trkpt>
      <trkpt lat="48.64071" lon="-2.33323">
        <ele>55.9</ele>
        <time>2021-07-27T15:21:02Z</time>
      </trkpt>
      <trkpt lat="48.64074" lon="-2.33319">
        <ele>56</ele>
        <time>2021-07-27T15:21:03Z</time>
      </trkpt>
      <trkpt lat="48.64078" lon="-2.33316">
        <ele>56</ele>
        <time>2021-07-27T15:21:05Z</time>
      </trkpt>
      <trkpt lat="48.64081" lon="-2.33313">
        <ele>56.1</ele>
        <time>2021-07-27T15:21:06Z</time>
      </trkpt>
      <trkpt lat="48.64085" lon="-2.3331">
        <ele>56.1</ele>
        <time>2021-07-27T15:21:07Z</time>
      </trkpt>
      <trkpt lat="48.64091" lon="-2.33309">
        <ele>56.1</ele>
        <time>2021-07-27T15:21:09Z</time>
      </trkpt>
      <trkpt lat="48.64094" lon="-2.33311">
        <ele>56</ele>
        <time>2021-07-27T15:21:10Z</time>
      </trkpt>
      <trkpt lat="48.64097" lon="-2.33313">
        <ele>55.9</ele>
        <time>2021-07-27T15:21:11Z</time>
      </trkpt>
      <trkpt lat="48.641" lon="-2.33316">
        <ele>55.8</ele>
        <time>2021-07-27T15:21:13Z</time>
      </trkpt>
      <trkpt lat="48.64098" lon="-2.33318">
        <ele>55.8</ele>
        <time>2021-07-27T15:21:15Z</time>
      </trkpt>
      <trkpt lat="48.64097" lon="-2.33318">
        <ele>55.7</ele>
        <time>2021-07-27T15:21:16Z</time>
      </trkpt>
      <trkpt lat="48.64098" lon="-2.3332">
        <ele>55.7</ele>
        <time>2021-07-27T15:21:18Z</time>
      </trkpt>
      <trkpt lat="48.64099" lon="-2.33323">
        <ele>55.6</ele>
        <time>2021-07-27T15:21:19Z</time>
      </trkpt>
      <trkpt lat="48.641" lon="-2.33323">
        <ele>55.6</ele>
        <time>2021-07-27T15:21:21Z</time>
      </trkpt>
      <trkpt lat="48.64101" lon="-2.33324">
        <ele>55.6</ele>
        <time>2021-07-27T15:21:22Z</time>
      </trkpt>
      <trkpt lat="48.64102" lon="-2.33324">
        <ele>55.6</ele>
        <time>2021-07-27T15:21:23Z</time>
      </trkpt>
      <trkpt lat="48.64103" lon="-2.33325">
        <ele>55.5</ele>
        <time>2021-07-27T15:21:24Z</time>
      </trkpt>
      <trkpt lat="48.64103" lon="-2.33325">
        <ele>55.5</ele>
        <time>2021-07-27T15:21:26Z</time>
      </trkpt>
      <trkpt lat="48.64104" lon="-2.33324">
        <ele>55.5</ele>
        <time>2021-07-27T15:21:28Z</time>
      </trkpt>
      <trkpt lat="48.64105" lon="-2.33323">
        <ele>55.5</ele>
        <time>2021-07-27T15:21:30Z</time>
      </trkpt>
      <trkpt lat="48.64106" lon="-2.33323">
        <ele>55.4</ele>
        <time>2021-07-27T15:21:31Z</time>
      </trkpt>
      <trkpt lat="48.64106" lon="-2.33322">
        <ele>55.4</ele>
        <time>2021-07-27T15:21:32Z</time>
      </trkpt>
      <trkpt lat="48.64106" lon="-2.33322">
        <ele>55.5</ele>
        <time>2021-07-27T15:21:33Z</time>
      </trkpt>
      <trkpt lat="48.64106" lon="-2.33322">
        <ele>55.4</ele>
        <time>2021-07-27T15:21:35Z</time>
      </trkpt>
      <trkpt lat="48.64107" lon="-2.33322">
        <ele>55.4</ele>
        <time>2021-07-27T15:21:37Z</time>
      </trkpt>
      <trkpt lat="48.64107" lon="-2.33314">
        <ele>55.4</ele>
        <time>2021-07-27T15:22:46Z</time>
      </trkpt>
      <trkpt lat="48.64108" lon="-2.33315">
        <ele>55.4</ele>
        <time>2021-07-27T15:22:47Z</time>
      </trkpt>
      <trkpt lat="48.64108" lon="-2.33309">
        <ele>55.5</ele>
        <time>2021-07-27T15:22:49Z</time>
      </trkpt>
      <trkpt lat="48.64109" lon="-2.33306">
        <ele>55.6</ele>
        <time>2021-07-27T15:22:50Z</time>
      </trkpt>
      <trkpt lat="48.64109" lon="-2.33302">
        <ele>55.6</ele>
        <time>2021-07-27T15:22:52Z</time>
      </trkpt>
      <trkpt lat="48.6411" lon="-2.33297">
        <ele>55.6</ele>
        <time>2021-07-27T15:22:53Z</time>
      </trkpt>
      <trkpt lat="48.64113" lon="-2.33288">
        <ele>55.7</ele>
        <time>2021-07-27T15:22:54Z</time>
      </trkpt>
      <trkpt lat="48.64116" lon="-2.33279">
        <ele>55.7</ele>
        <time>2021-07-27T15:22:56Z</time>
      </trkpt>
      <trkpt lat="48.64117" lon="-2.33273">
        <ele>55.8</ele>
        <time>2021-07-27T15:22:57Z</time>
      </trkpt>
      <trkpt lat="48.6412" lon="-2.3326">
        <ele>55.8</ele>
        <time>2021-07-27T15:22:59Z</time>
      </trkpt>
      <trkpt lat="48.64124" lon="-2.33248">
        <ele>55.9</ele>
        <time>2021-07-27T15:23:01Z</time>
      </trkpt>
      <trkpt lat="48.64127" lon="-2.33241">
        <ele>56</ele>
        <time>2021-07-27T15:23:02Z</time>
      </trkpt>
      <trkpt lat="48.64129" lon="-2.33234">
        <ele>56</ele>
        <time>2021-07-27T15:23:03Z</time>
      </trkpt>
      <trkpt lat="48.64132" lon="-2.33221">
        <ele>56.1</ele>
        <time>2021-07-27T15:23:05Z</time>
      </trkpt>
      <trkpt lat="48.64135" lon="-2.33207">
        <ele>56.1</ele>
        <time>2021-07-27T15:23:07Z</time>
      </trkpt>
      <trkpt lat="48.64139" lon="-2.33194">
        <ele>56.2</ele>
        <time>2021-07-27T15:23:09Z</time>
      </trkpt>
      <trkpt lat="48.64141" lon="-2.33187">
        <ele>56.2</ele>
        <time>2021-07-27T15:23:10Z</time>
      </trkpt>
      <trkpt lat="48.64143" lon="-2.3318">
        <ele>56.2</ele>
        <time>2021-07-27T15:23:11Z</time>
      </trkpt>
      <trkpt lat="48.64147" lon="-2.33166">
        <ele>56.2</ele>
        <time>2021-07-27T15:23:13Z</time>
      </trkpt>
      <trkpt lat="48.64149" lon="-2.33157">
        <ele>56.2</ele>
        <time>2021-07-27T15:23:15Z</time>
      </trkpt>
      <trkpt lat="48.64151" lon="-2.33149">
        <ele>56.3</ele>
        <time>2021-07-27T15:23:16Z</time>
      </trkpt>
      <trkpt lat="48.64154" lon="-2.33139">
        <ele>56.3</ele>
        <time>2021-07-27T15:23:18Z</time>
      </trkpt>
      <trkpt lat="48.64156" lon="-2.33132">
        <ele>56.4</ele>
        <time>2021-07-27T15:23:19Z</time>
      </trkpt>
      <trkpt lat="48.64158" lon="-2.33125">
        <ele>56.4</ele>
        <time>2021-07-27T15:23:20Z</time>
      </trkpt>
      <trkpt lat="48.64161" lon="-2.33115">
        <ele>56.5</ele>
        <time>2021-07-27T15:23:22Z</time>
      </trkpt>
      <trkpt lat="48.64165" lon="-2.33112">
        <ele>56.6</ele>
        <time>2021-07-27T15:23:23Z</time>
      </trkpt>
      <trkpt lat="48.6417" lon="-2.33107">
        <ele>56.5</ele>
        <time>2021-07-27T15:23:25Z</time>
      </trkpt>
      <trkpt lat="48.64175" lon="-2.33106">
        <ele>56.5</ele>
        <time>2021-07-27T15:23:26Z</time>
      </trkpt>
      <trkpt lat="48.6418" lon="-2.33106">
        <ele>56.4</ele>
        <time>2021-07-27T15:23:27Z</time>
      </trkpt>
      <trkpt lat="48.64185" lon="-2.33107">
        <ele>56.3</ele>
        <time>2021-07-27T15:23:28Z</time>
      </trkpt>
      <trkpt lat="48.64196" lon="-2.33109">
        <ele>56.1</ele>
        <time>2021-07-27T15:23:30Z</time>
      </trkpt>
      <trkpt lat="48.64207" lon="-2.3311">
        <ele>56</ele>
        <time>2021-07-27T15:23:32Z</time>
      </trkpt>
      <trkpt lat="48.64218" lon="-2.33112">
        <ele>56</ele>
        <time>2021-07-27T15:23:34Z</time>
      </trkpt>
      <trkpt lat="48.6423" lon="-2.33115">
        <ele>55.9</ele>
        <time>2021-07-27T15:23:36Z</time>
      </trkpt>
      <trkpt lat="48.64236" lon="-2.33116">
        <ele>55.9</ele>
        <time>2021-07-27T15:23:37Z</time>
      </trkpt>
      <trkpt lat="48.64247" lon="-2.33117">
        <ele>55.8</ele>
        <time>2021-07-27T15:23:39Z</time>
      </trkpt>
      <trkpt lat="48.64254" lon="-2.33118">
        <ele>55.8</ele>
        <time>2021-07-27T15:23:40Z</time>
      </trkpt>
      <trkpt lat="48.6426" lon="-2.33118">
        <ele>55.7</ele>
        <time>2021-07-27T15:23:41Z</time>
      </trkpt>
      <trkpt lat="48.64272" lon="-2.33119">
        <ele>55.7</ele>
        <time>2021-07-27T15:23:43Z</time>
      </trkpt>
      <trkpt lat="48.64278" lon="-2.33119">
        <ele>55.6</ele>
        <time>2021-07-27T15:23:44Z</time>
      </trkpt>
      <trkpt lat="48.64289" lon="-2.3312">
        <ele>55.5</ele>
        <time>2021-07-27T15:23:46Z</time>
      </trkpt>
      <trkpt lat="48.64301" lon="-2.33121">
        <ele>55.3</ele>
        <time>2021-07-27T15:23:48Z</time>
      </trkpt>
      <trkpt lat="48.64307" lon="-2.33121">
        <ele>55.3</ele>
        <time>2021-07-27T15:23:49Z</time>
      </trkpt>
      <trkpt lat="48.64313" lon="-2.33121">
        <ele>55.2</ele>
        <time>2021-07-27T15:23:50Z</time>
      </trkpt>
      <trkpt lat="48.64319" lon="-2.33121">
        <ele>55.2</ele>
        <time>2021-07-27T15:23:51Z</time>
      </trkpt>
      <trkpt lat="48.6433" lon="-2.33118">
        <ele>55.1</ele>
        <time>2021-07-27T15:23:53Z</time>
      </trkpt>
      <trkpt lat="48.64336" lon="-2.33117">
        <ele>55</ele>
        <time>2021-07-27T15:23:54Z</time>
      </trkpt>
      <trkpt lat="48.64347" lon="-2.33116">
        <ele>55</ele>
        <time>2021-07-27T15:23:56Z</time>
      </trkpt>
      <trkpt lat="48.64356" lon="-2.33118">
        <ele>54.9</ele>
        <time>2021-07-27T15:23:58Z</time>
      </trkpt>
      <trkpt lat="48.64359" lon="-2.3312">
        <ele>54.9</ele>
        <time>2021-07-27T15:23:59Z</time>
      </trkpt>
      <trkpt lat="48.64362" lon="-2.33124">
        <ele>54.9</ele>
        <time>2021-07-27T15:24:00Z</time>
      </trkpt>
      <trkpt lat="48.64366" lon="-2.33137">
        <ele>54.8</ele>
        <time>2021-07-27T15:24:02Z</time>
      </trkpt>
      <trkpt lat="48.64367" lon="-2.33145">
        <ele>54.8</ele>
        <time>2021-07-27T15:24:03Z</time>
      </trkpt>
      <trkpt lat="48.64369" lon="-2.33156">
        <ele>54.7</ele>
        <time>2021-07-27T15:24:05Z</time>
      </trkpt>
      <trkpt lat="48.64369" lon="-2.33165">
        <ele>54.7</ele>
        <time>2021-07-27T15:24:06Z</time>
      </trkpt>
      <trkpt lat="48.64368" lon="-2.33183">
        <ele>54.6</ele>
        <time>2021-07-27T15:24:08Z</time>
      </trkpt>
      <trkpt lat="48.64368" lon="-2.33194">
        <ele>54.5</ele>
        <time>2021-07-27T15:24:09Z</time>
      </trkpt>
      <trkpt lat="48.6437" lon="-2.33208">
        <ele>54.4</ele>
        <time>2021-07-27T15:24:11Z</time>
      </trkpt>
      <trkpt lat="48.64373" lon="-2.33216">
        <ele>54.4</ele>
        <time>2021-07-27T15:24:12Z</time>
      </trkpt>
      <trkpt lat="48.64376" lon="-2.33222">
        <ele>54.3</ele>
        <time>2021-07-27T15:24:13Z</time>
      </trkpt>
      <trkpt lat="48.64384" lon="-2.33229">
        <ele>54.3</ele>
        <time>2021-07-27T15:24:15Z</time>
      </trkpt>
      <trkpt lat="48.64389" lon="-2.33233">
        <ele>54.3</ele>
        <time>2021-07-27T15:24:16Z</time>
      </trkpt>
      <trkpt lat="48.64394" lon="-2.33236">
        <ele>54.2</ele>
        <time>2021-07-27T15:24:17Z</time>
      </trkpt>
      <trkpt lat="48.64404" lon="-2.33243">
        <ele>54.1</ele>
        <time>2021-07-27T15:24:19Z</time>
      </trkpt>
      <trkpt lat="48.64413" lon="-2.3325">
        <ele>54.1</ele>
        <time>2021-07-27T15:24:21Z</time>
      </trkpt>
      <trkpt lat="48.64423" lon="-2.33256">
        <ele>54</ele>
        <time>2021-07-27T15:24:23Z</time>
      </trkpt>
      <trkpt lat="48.64428" lon="-2.33259">
        <ele>54</ele>
        <time>2021-07-27T15:24:24Z</time>
      </trkpt>
      <trkpt lat="48.64438" lon="-2.33265">
        <ele>53.9</ele>
        <time>2021-07-27T15:24:26Z</time>
      </trkpt>
      <trkpt lat="48.64443" lon="-2.33268">
        <ele>53.9</ele>
        <time>2021-07-27T15:24:27Z</time>
      </trkpt>
      <trkpt lat="48.64452" lon="-2.33273">
        <ele>53.9</ele>
        <time>2021-07-27T15:24:29Z</time>
      </trkpt>
      <trkpt lat="48.64457" lon="-2.33273">
        <ele>53.9</ele>
        <time>2021-07-27T15:24:30Z</time>
      </trkpt>
      <trkpt lat="48.64463" lon="-2.33272">
        <ele>53.9</ele>
        <time>2021-07-27T15:24:31Z</time>
      </trkpt>
      <trkpt lat="48.64468" lon="-2.33269">
        <ele>53.9</ele>
        <time>2021-07-27T15:24:32Z</time>
      </trkpt>
      <trkpt lat="48.64475" lon="-2.33265">
        <ele>54</ele>
        <time>2021-07-27T15:24:34Z</time>
      </trkpt>
      <trkpt lat="48.64486" lon="-2.33273">
        <ele>54</ele>
        <time>2021-07-27T15:24:36Z</time>
      </trkpt>
      <trkpt lat="48.64489" lon="-2.3328">
        <ele>54</ele>
        <time>2021-07-27T15:24:37Z</time>
      </trkpt>
      <trkpt lat="48.64492" lon="-2.33286">
        <ele>54</ele>
        <time>2021-07-27T15:24:38Z</time>
      </trkpt>
      <trkpt lat="48.64495" lon="-2.33293">
        <ele>54.1</ele>
        <time>2021-07-27T15:24:39Z</time>
      </trkpt>
      <trkpt lat="48.64501" lon="-2.33305">
        <ele>54.2</ele>
        <time>2021-07-27T15:24:41Z</time>
      </trkpt>
      <trkpt lat="48.64504" lon="-2.33311">
        <ele>54.2</ele>
        <time>2021-07-27T15:24:42Z</time>
      </trkpt>
      <trkpt lat="48.64511" lon="-2.33321">
        <ele>54.1</ele>
        <time>2021-07-27T15:24:44Z</time>
      </trkpt>
      <trkpt lat="48.64514" lon="-2.33327">
        <ele>54.1</ele>
        <time>2021-07-27T15:24:45Z</time>
      </trkpt>
      <trkpt lat="48.64517" lon="-2.33333">
        <ele>54</ele>
        <time>2021-07-27T15:24:46Z</time>
      </trkpt>
      <trkpt lat="48.64526" lon="-2.33344">
        <ele>53.8</ele>
        <time>2021-07-27T15:24:48Z</time>
      </trkpt>
      <trkpt lat="48.64531" lon="-2.33351">
        <ele>53.7</ele>
        <time>2021-07-27T15:24:49Z</time>
      </trkpt>
      <trkpt lat="48.64541" lon="-2.33363">
        <ele>53.5</ele>
        <time>2021-07-27T15:24:51Z</time>
      </trkpt>
      <trkpt lat="48.64546" lon="-2.33368">
        <ele>53.5</ele>
        <time>2021-07-27T15:24:52Z</time>
      </trkpt>
      <trkpt lat="48.64551" lon="-2.33374">
        <ele>53.5</ele>
        <time>2021-07-27T15:24:53Z</time>
      </trkpt>
      <trkpt lat="48.6456" lon="-2.33385">
        <ele>53.5</ele>
        <time>2021-07-27T15:24:55Z</time>
      </trkpt>
      <trkpt lat="48.64564" lon="-2.3339">
        <ele>53.5</ele>
        <time>2021-07-27T15:24:56Z</time>
      </trkpt>
      <trkpt lat="48.64569" lon="-2.33395">
        <ele>53.5</ele>
        <time>2021-07-27T15:24:57Z</time>
      </trkpt>
      <trkpt lat="48.64574" lon="-2.33399">
        <ele>53.5</ele>
        <time>2021-07-27T15:24:58Z</time>
      </trkpt>
      <trkpt lat="48.64578" lon="-2.33404">
        <ele>53.5</ele>
        <time>2021-07-27T15:24:59Z</time>
      </trkpt>
      <trkpt lat="48.64587" lon="-2.33413">
        <ele>53.5</ele>
        <time>2021-07-27T15:25:01Z</time>
      </trkpt>
      <trkpt lat="48.64596" lon="-2.33424">
        <ele>53.4</ele>
        <time>2021-07-27T15:25:03Z</time>
      </trkpt>
      <trkpt lat="48.64601" lon="-2.33429">
        <ele>53.4</ele>
        <time>2021-07-27T15:25:04Z</time>
      </trkpt>
      <trkpt lat="48.64609" lon="-2.33441">
        <ele>53.4</ele>
        <time>2021-07-27T15:25:06Z</time>
      </trkpt>
      <trkpt lat="48.64618" lon="-2.33452">
        <ele>53.4</ele>
        <time>2021-07-27T15:25:08Z</time>
      </trkpt>
      <trkpt lat="48.64626" lon="-2.33463">
        <ele>53.4</ele>
        <time>2021-07-27T15:25:10Z</time>
      </trkpt>
      <trkpt lat="48.6463" lon="-2.33468">
        <ele>53.5</ele>
        <time>2021-07-27T15:25:11Z</time>
      </trkpt>
      <trkpt lat="48.64634" lon="-2.33473">
        <ele>53.5</ele>
        <time>2021-07-27T15:25:12Z</time>
      </trkpt>
      <trkpt lat="48.64643" lon="-2.33484">
        <ele>53.5</ele>
        <time>2021-07-27T15:25:14Z</time>
      </trkpt>
      <trkpt lat="48.64651" lon="-2.33494">
        <ele>53.6</ele>
        <time>2021-07-27T15:25:16Z</time>
      </trkpt>
      <trkpt lat="48.64655" lon="-2.335">
        <ele>53.6</ele>
        <time>2021-07-27T15:25:17Z</time>
      </trkpt>
      <trkpt lat="48.64664" lon="-2.33511">
        <ele>53.6</ele>
        <time>2021-07-27T15:25:19Z</time>
      </trkpt>
      <trkpt lat="48.64674" lon="-2.33519">
        <ele>53.5</ele>
        <time>2021-07-27T15:25:21Z</time>
      </trkpt>
      <trkpt lat="48.64685" lon="-2.33526">
        <ele>53.5</ele>
        <time>2021-07-27T15:25:23Z</time>
      </trkpt>
      <trkpt lat="48.6469" lon="-2.33529">
        <ele>53.5</ele>
        <time>2021-07-27T15:25:24Z</time>
      </trkpt>
      <trkpt lat="48.64696" lon="-2.33531">
        <ele>53.4</ele>
        <time>2021-07-27T15:25:25Z</time>
      </trkpt>
      <trkpt lat="48.64706" lon="-2.33537">
        <ele>53.4</ele>
        <time>2021-07-27T15:25:27Z</time>
      </trkpt>
      <trkpt lat="48.64712" lon="-2.33539">
        <ele>53.4</ele>
        <time>2021-07-27T15:25:28Z</time>
      </trkpt>
      <trkpt lat="48.64723" lon="-2.33544">
        <ele>53.4</ele>
        <time>2021-07-27T15:25:30Z</time>
      </trkpt>
      <trkpt lat="48.64734" lon="-2.33547">
        <ele>53.3</ele>
        <time>2021-07-27T15:25:32Z</time>
      </trkpt>
      <trkpt lat="48.64746" lon="-2.3355">
        <ele>53.2</ele>
        <time>2021-07-27T15:25:34Z</time>
      </trkpt>
      <trkpt lat="48.64752" lon="-2.33551">
        <ele>53.1</ele>
        <time>2021-07-27T15:25:35Z</time>
      </trkpt>
      <trkpt lat="48.64764" lon="-2.33555">
        <ele>52.9</ele>
        <time>2021-07-27T15:25:37Z</time>
      </trkpt>
      <trkpt lat="48.64769" lon="-2.33558">
        <ele>52.8</ele>
        <time>2021-07-27T15:25:38Z</time>
      </trkpt>
      <trkpt lat="48.64775" lon="-2.3356">
        <ele>52.7</ele>
        <time>2021-07-27T15:25:39Z</time>
      </trkpt>
      <trkpt lat="48.64787" lon="-2.33568">
        <ele>52.5</ele>
        <time>2021-07-27T15:25:41Z</time>
      </trkpt>
      <trkpt lat="48.64793" lon="-2.33572">
        <ele>52.5</ele>
        <time>2021-07-27T15:25:42Z</time>
      </trkpt>
      <trkpt lat="48.64799" lon="-2.33576">
        <ele>52.4</ele>
        <time>2021-07-27T15:25:43Z</time>
      </trkpt>
      <trkpt lat="48.64804" lon="-2.3358">
        <ele>52.4</ele>
        <time>2021-07-27T15:25:44Z</time>
      </trkpt>
      <trkpt lat="48.64816" lon="-2.33588">
        <ele>52.3</ele>
        <time>2021-07-27T15:25:46Z</time>
      </trkpt>
      <trkpt lat="48.64822" lon="-2.33592">
        <ele>52.3</ele>
        <time>2021-07-27T15:25:47Z</time>
      </trkpt>
      <trkpt lat="48.64833" lon="-2.336">
        <ele>52.1</ele>
        <time>2021-07-27T15:25:49Z</time>
      </trkpt>
      <trkpt lat="48.64839" lon="-2.33604">
        <ele>52</ele>
        <time>2021-07-27T15:25:50Z</time>
      </trkpt>
      <trkpt lat="48.6485" lon="-2.33616">
        <ele>51.8</ele>
        <time>2021-07-27T15:25:52Z</time>
      </trkpt>
      <trkpt lat="48.64854" lon="-2.33623">
        <ele>51.6</ele>
        <time>2021-07-27T15:25:53Z</time>
      </trkpt>
      <trkpt lat="48.64864" lon="-2.33634">
        <ele>51.3</ele>
        <time>2021-07-27T15:25:55Z</time>
      </trkpt>
      <trkpt lat="48.64877" lon="-2.33635">
        <ele>50.8</ele>
        <time>2021-07-27T15:25:57Z</time>
      </trkpt>
      <trkpt lat="48.64884" lon="-2.33632">
        <ele>50.5</ele>
        <time>2021-07-27T15:25:58Z</time>
      </trkpt>
      <trkpt lat="48.64891" lon="-2.33629">
        <ele>50.2</ele>
        <time>2021-07-27T15:25:59Z</time>
      </trkpt>
      <trkpt lat="48.64903" lon="-2.33622">
        <ele>49.8</ele>
        <time>2021-07-27T15:26:01Z</time>
      </trkpt>
      <trkpt lat="48.64917" lon="-2.33615">
        <ele>49.4</ele>
        <time>2021-07-27T15:26:03Z</time>
      </trkpt>
      <trkpt lat="48.64929" lon="-2.33615">
        <ele>49</ele>
        <time>2021-07-27T15:26:05Z</time>
      </trkpt>
      <trkpt lat="48.64936" lon="-2.33618">
        <ele>48.9</ele>
        <time>2021-07-27T15:26:06Z</time>
      </trkpt>
      <trkpt lat="48.64946" lon="-2.33631">
        <ele>48.5</ele>
        <time>2021-07-27T15:26:08Z</time>
      </trkpt>
      <trkpt lat="48.64951" lon="-2.33638">
        <ele>48.4</ele>
        <time>2021-07-27T15:26:09Z</time>
      </trkpt>
      <trkpt lat="48.64962" lon="-2.33651">
        <ele>47.9</ele>
        <time>2021-07-27T15:26:11Z</time>
      </trkpt>
      <trkpt lat="48.64967" lon="-2.33657">
        <ele>47.7</ele>
        <time>2021-07-27T15:26:12Z</time>
      </trkpt>
      <trkpt lat="48.64972" lon="-2.33664">
        <ele>47.5</ele>
        <time>2021-07-27T15:26:13Z</time>
      </trkpt>
      <trkpt lat="48.64982" lon="-2.33678">
        <ele>47.1</ele>
        <time>2021-07-27T15:26:15Z</time>
      </trkpt>
      <trkpt lat="48.64987" lon="-2.33684">
        <ele>47</ele>
        <time>2021-07-27T15:26:16Z</time>
      </trkpt>
      <trkpt lat="48.64992" lon="-2.3369">
        <ele>46.8</ele>
        <time>2021-07-27T15:26:17Z</time>
      </trkpt>
      <trkpt lat="48.65001" lon="-2.33699">
        <ele>46.5</ele>
        <time>2021-07-27T15:26:19Z</time>
      </trkpt>
      <trkpt lat="48.65006" lon="-2.33706">
        <ele>46.4</ele>
        <time>2021-07-27T15:26:21Z</time>
      </trkpt>
      <trkpt lat="48.65009" lon="-2.33719">
        <ele>46</ele>
        <time>2021-07-27T15:26:23Z</time>
      </trkpt>
      <trkpt lat="48.6501" lon="-2.33729">
        <ele>45.9</ele>
        <time>2021-07-27T15:26:24Z</time>
      </trkpt>
      <trkpt lat="48.6501" lon="-2.33746">
        <ele>45.8</ele>
        <time>2021-07-27T15:26:26Z</time>
      </trkpt>
      <trkpt lat="48.6501" lon="-2.33762">
        <ele>45.6</ele>
        <time>2021-07-27T15:26:28Z</time>
      </trkpt>
      <trkpt lat="48.65012" lon="-2.33765">
        <ele>45.6</ele>
        <time>2021-07-27T15:26:29Z</time>
      </trkpt>
      <trkpt lat="48.65013" lon="-2.33778">
        <ele>45.5</ele>
        <time>2021-07-27T15:26:31Z</time>
      </trkpt>
      <trkpt lat="48.65011" lon="-2.33789">
        <ele>45.4</ele>
        <time>2021-07-27T15:26:32Z</time>
      </trkpt>
      <trkpt lat="48.65009" lon="-2.33795">
        <ele>45.3</ele>
        <time>2021-07-27T15:26:33Z</time>
      </trkpt>
      <trkpt lat="48.65005" lon="-2.33801">
        <ele>45.2</ele>
        <time>2021-07-27T15:26:35Z</time>
      </trkpt>
      <trkpt lat="48.65003" lon="-2.33812">
        <ele>44.9</ele>
        <time>2021-07-27T15:26:37Z</time>
      </trkpt>
      <trkpt lat="48.65" lon="-2.33823">
        <ele>44.7</ele>
        <time>2021-07-27T15:26:39Z</time>
      </trkpt>
      <trkpt lat="48.64997" lon="-2.33831">
        <ele>44.5</ele>
        <time>2021-07-27T15:26:40Z</time>
      </trkpt>
      <trkpt lat="48.64995" lon="-2.33845">
        <ele>44.2</ele>
        <time>2021-07-27T15:26:42Z</time>
      </trkpt>
      <trkpt lat="48.64993" lon="-2.33852">
        <ele>44</ele>
        <time>2021-07-27T15:26:43Z</time>
      </trkpt>
      <trkpt lat="48.6499" lon="-2.33869">
        <ele>43.6</ele>
        <time>2021-07-27T15:26:45Z</time>
      </trkpt>
      <trkpt lat="48.64986" lon="-2.33887">
        <ele>43.2</ele>
        <time>2021-07-27T15:26:47Z</time>
      </trkpt>
      <trkpt lat="48.64981" lon="-2.33905">
        <ele>42.8</ele>
        <time>2021-07-27T15:26:49Z</time>
      </trkpt>
      <trkpt lat="48.64975" lon="-2.33923">
        <ele>42.6</ele>
        <time>2021-07-27T15:26:51Z</time>
      </trkpt>
      <trkpt lat="48.64972" lon="-2.33931">
        <ele>42.5</ele>
        <time>2021-07-27T15:26:52Z</time>
      </trkpt>
      <trkpt lat="48.64962" lon="-2.33943">
        <ele>42.3</ele>
        <time>2021-07-27T15:26:54Z</time>
      </trkpt>
      <trkpt lat="48.64957" lon="-2.33949">
        <ele>42.3</ele>
        <time>2021-07-27T15:26:55Z</time>
      </trkpt>
      <trkpt lat="48.6495" lon="-2.33963">
        <ele>42.3</ele>
        <time>2021-07-27T15:26:57Z</time>
      </trkpt>
      <trkpt lat="48.6495" lon="-2.33971">
        <ele>42.2</ele>
        <time>2021-07-27T15:26:58Z</time>
      </trkpt>
      <trkpt lat="48.64952" lon="-2.33978">
        <ele>42.1</ele>
        <time>2021-07-27T15:26:59Z</time>
      </trkpt>
      <trkpt lat="48.64955" lon="-2.33985">
        <ele>42</ele>
        <time>2021-07-27T15:27:00Z</time>
      </trkpt>
      <trkpt lat="48.6496" lon="-2.3399">
        <ele>41.9</ele>
        <time>2021-07-27T15:27:01Z</time>
      </trkpt>
      <trkpt lat="48.64966" lon="-2.33995">
        <ele>41.9</ele>
        <time>2021-07-27T15:27:02Z</time>
      </trkpt>
      <trkpt lat="48.64974" lon="-2.34003">
        <ele>41.8</ele>
        <time>2021-07-27T15:27:04Z</time>
      </trkpt>
      <trkpt lat="48.64979" lon="-2.34008">
        <ele>41.7</ele>
        <time>2021-07-27T15:27:05Z</time>
      </trkpt>
      <trkpt lat="48.64984" lon="-2.34012">
        <ele>41.7</ele>
        <time>2021-07-27T15:27:06Z</time>
      </trkpt>
      <trkpt lat="48.64993" lon="-2.34022">
        <ele>41.7</ele>
        <time>2021-07-27T15:27:08Z</time>
      </trkpt>
      <trkpt lat="48.64998" lon="-2.34027">
        <ele>41.7</ele>
        <time>2021-07-27T15:27:09Z</time>
      </trkpt>
      <trkpt lat="48.65007" lon="-2.34037">
        <ele>41.7</ele>
        <time>2021-07-27T15:27:11Z</time>
      </trkpt>
      <trkpt lat="48.65016" lon="-2.34047">
        <ele>41.8</ele>
        <time>2021-07-27T15:27:13Z</time>
      </trkpt>
      <trkpt lat="48.65024" lon="-2.34056">
        <ele>41.9</ele>
        <time>2021-07-27T15:27:15Z</time>
      </trkpt>
      <trkpt lat="48.65033" lon="-2.34065">
        <ele>42</ele>
        <time>2021-07-27T15:27:17Z</time>
      </trkpt>
      <trkpt lat="48.65042" lon="-2.34076">
        <ele>42.2</ele>
        <time>2021-07-27T15:27:19Z</time>
      </trkpt>
      <trkpt lat="48.65046" lon="-2.34081">
        <ele>42.2</ele>
        <time>2021-07-27T15:27:20Z</time>
      </trkpt>
      <trkpt lat="48.6505" lon="-2.34085">
        <ele>42.2</ele>
        <time>2021-07-27T15:27:21Z</time>
      </trkpt>
      <trkpt lat="48.65054" lon="-2.34088">
        <ele>42.2</ele>
        <time>2021-07-27T15:27:22Z</time>
      </trkpt>
      <trkpt lat="48.65053" lon="-2.3409">
        <ele>42.2</ele>
        <time>2021-07-27T15:27:24Z</time>
      </trkpt>
      <trkpt lat="48.65051" lon="-2.34088">
        <ele>42.2</ele>
        <time>2021-07-27T15:27:26Z</time>
      </trkpt>
      <trkpt lat="48.6505" lon="-2.34086">
        <ele>42.2</ele>
        <time>2021-07-27T15:27:28Z</time>
      </trkpt>
      <trkpt lat="48.65049" lon="-2.34084">
        <ele>42.2</ele>
        <time>2021-07-27T15:27:29Z</time>
      </trkpt>
      <trkpt lat="48.65046" lon="-2.34084">
        <ele>42.3</ele>
        <time>2021-07-27T15:27:30Z</time>
      </trkpt>
      <trkpt lat="48.65045" lon="-2.34084">
        <ele>42.3</ele>
        <time>2021-07-27T15:27:31Z</time>
      </trkpt>
      <trkpt lat="48.6504" lon="-2.34086">
        <ele>42.3</ele>
        <time>2021-07-27T15:27:32Z</time>
      </trkpt>
      <trkpt lat="48.65038" lon="-2.34091">
        <ele>42.3</ele>
        <time>2021-07-27T15:27:34Z</time>
      </trkpt>
      <trkpt lat="48.65036" lon="-2.34096">
        <ele>42.3</ele>
        <time>2021-07-27T15:27:35Z</time>
      </trkpt>
      <trkpt lat="48.65034" lon="-2.34107">
        <ele>42.3</ele>
        <time>2021-07-27T15:27:37Z</time>
      </trkpt>
      <trkpt lat="48.65032" lon="-2.34112">
        <ele>42.3</ele>
        <time>2021-07-27T15:27:38Z</time>
      </trkpt>
      <trkpt lat="48.65029" lon="-2.34123">
        <ele>42.4</ele>
        <time>2021-07-27T15:27:40Z</time>
      </trkpt>
      <trkpt lat="48.65027" lon="-2.34135">
        <ele>42.4</ele>
        <time>2021-07-27T15:27:41Z</time>
      </trkpt>
      <trkpt lat="48.65026" lon="-2.34142">
        <ele>42.4</ele>
        <time>2021-07-27T15:27:43Z</time>
      </trkpt>
      <trkpt lat="48.65024" lon="-2.34151">
        <ele>42.5</ele>
        <time>2021-07-27T15:27:44Z</time>
      </trkpt>
      <trkpt lat="48.65022" lon="-2.34161">
        <ele>42.5</ele>
        <time>2021-07-27T15:27:46Z</time>
      </trkpt>
      <trkpt lat="48.6502" lon="-2.34169">
        <ele>42.5</ele>
        <time>2021-07-27T15:27:47Z</time>
      </trkpt>
      <trkpt lat="48.65019" lon="-2.34175">
        <ele>42.6</ele>
        <time>2021-07-27T15:27:49Z</time>
      </trkpt>
      <trkpt lat="48.65017" lon="-2.34179">
        <ele>42.6</ele>
        <time>2021-07-27T15:27:50Z</time>
      </trkpt>
      <trkpt lat="48.65014" lon="-2.34191">
        <ele>42.6</ele>
        <time>2021-07-27T15:27:52Z</time>
      </trkpt>
      <trkpt lat="48.65011" lon="-2.34202">
        <ele>42.7</ele>
        <time>2021-07-27T15:27:53Z</time>
      </trkpt>
      <trkpt lat="48.65009" lon="-2.34211">
        <ele>42.7</ele>
        <time>2021-07-27T15:27:54Z</time>
      </trkpt>
      <trkpt lat="48.65008" lon="-2.34219">
        <ele>42.7</ele>
        <time>2021-07-27T15:27:55Z</time>
      </trkpt>
      <trkpt lat="48.65004" lon="-2.34232">
        <ele>42.7</ele>
        <time>2021-07-27T15:27:57Z</time>
      </trkpt>
      <trkpt lat="48.65002" lon="-2.34238">
        <ele>42.7</ele>
        <time>2021-07-27T15:27:58Z</time>
      </trkpt>
      <trkpt lat="48.65" lon="-2.34244">
        <ele>42.7</ele>
        <time>2021-07-27T15:27:59Z</time>
      </trkpt>
      <trkpt lat="48.64996" lon="-2.34258">
        <ele>42.8</ele>
        <time>2021-07-27T15:28:01Z</time>
      </trkpt>
      <trkpt lat="48.64992" lon="-2.34272">
        <ele>42.8</ele>
        <time>2021-07-27T15:28:03Z</time>
      </trkpt>
      <trkpt lat="48.6499" lon="-2.3428">
        <ele>42.8</ele>
        <time>2021-07-27T15:28:04Z</time>
      </trkpt>
      <trkpt lat="48.64988" lon="-2.34287">
        <ele>42.8</ele>
        <time>2021-07-27T15:28:05Z</time>
      </trkpt>
      <trkpt lat="48.64986" lon="-2.34294">
        <ele>42.8</ele>
        <time>2021-07-27T15:28:06Z</time>
      </trkpt>
      <trkpt lat="48.64984" lon="-2.34301">
        <ele>42.8</ele>
        <time>2021-07-27T15:28:07Z</time>
      </trkpt>
      <trkpt lat="48.64979" lon="-2.34316">
        <ele>42.8</ele>
        <time>2021-07-27T15:28:09Z</time>
      </trkpt>
      <trkpt lat="48.64976" lon="-2.34331">
        <ele>42.8</ele>
        <time>2021-07-27T15:28:11Z</time>
      </trkpt>
      <trkpt lat="48.64974" lon="-2.34338">
        <ele>42.9</ele>
        <time>2021-07-27T15:28:12Z</time>
      </trkpt>
      <trkpt lat="48.64969" lon="-2.34353">
        <ele>42.8</ele>
        <time>2021-07-27T15:28:14Z</time>
      </trkpt>
      <trkpt lat="48.64965" lon="-2.34367">
        <ele>42.8</ele>
        <time>2021-07-27T15:28:16Z</time>
      </trkpt>
      <trkpt lat="48.64961" lon="-2.34383">
        <ele>42.7</ele>
        <time>2021-07-27T15:28:18Z</time>
      </trkpt>
      <trkpt lat="48.64959" lon="-2.3439">
        <ele>42.7</ele>
        <time>2021-07-27T15:28:19Z</time>
      </trkpt>
      <trkpt lat="48.64955" lon="-2.34406">
        <ele>42.6</ele>
        <time>2021-07-27T15:28:21Z</time>
      </trkpt>
      <trkpt lat="48.64952" lon="-2.34422">
        <ele>42.5</ele>
        <time>2021-07-27T15:28:23Z</time>
      </trkpt>
      <trkpt lat="48.6495" lon="-2.3443">
        <ele>42.5</ele>
        <time>2021-07-27T15:28:24Z</time>
      </trkpt>
      <trkpt lat="48.64948" lon="-2.34438">
        <ele>42.4</ele>
        <time>2021-07-27T15:28:25Z</time>
      </trkpt>
      <trkpt lat="48.64943" lon="-2.34454">
        <ele>42.3</ele>
        <time>2021-07-27T15:28:27Z</time>
      </trkpt>
      <trkpt lat="48.64941" lon="-2.34462">
        <ele>42.3</ele>
        <time>2021-07-27T15:28:28Z</time>
      </trkpt>
      <trkpt lat="48.64937" lon="-2.34479">
        <ele>42.1</ele>
        <time>2021-07-27T15:28:30Z</time>
      </trkpt>
      <trkpt lat="48.64934" lon="-2.34488">
        <ele>42</ele>
        <time>2021-07-27T15:28:31Z</time>
      </trkpt>
      <trkpt lat="48.64929" lon="-2.34504">
        <ele>41.8</ele>
        <time>2021-07-27T15:28:33Z</time>
      </trkpt>
      <trkpt lat="48.64927" lon="-2.34513">
        <ele>41.7</ele>
        <time>2021-07-27T15:28:34Z</time>
      </trkpt>
      <trkpt lat="48.64922" lon="-2.3453">
        <ele>41.5</ele>
        <time>2021-07-27T15:28:36Z</time>
      </trkpt>
      <trkpt lat="48.64917" lon="-2.34548">
        <ele>41.3</ele>
        <time>2021-07-27T15:28:38Z</time>
      </trkpt>
      <trkpt lat="48.64915" lon="-2.34556">
        <ele>41.1</ele>
        <time>2021-07-27T15:28:39Z</time>
      </trkpt>
      <trkpt lat="48.64912" lon="-2.34565">
        <ele>41</ele>
        <time>2021-07-27T15:28:40Z</time>
      </trkpt>
      <trkpt lat="48.64908" lon="-2.34582">
        <ele>40.7</ele>
        <time>2021-07-27T15:28:42Z</time>
      </trkpt>
      <trkpt lat="48.64903" lon="-2.34599">
        <ele>40.5</ele>
        <time>2021-07-27T15:28:44Z</time>
      </trkpt>
      <trkpt lat="48.64898" lon="-2.34614">
        <ele>40.3</ele>
        <time>2021-07-27T15:28:46Z</time>
      </trkpt>
      <trkpt lat="48.64896" lon="-2.34622">
        <ele>40.2</ele>
        <time>2021-07-27T15:28:47Z</time>
      </trkpt>
      <trkpt lat="48.64894" lon="-2.34631">
        <ele>40.1</ele>
        <time>2021-07-27T15:28:48Z</time>
      </trkpt>
      <trkpt lat="48.64889" lon="-2.3465">
        <ele>39.9</ele>
        <time>2021-07-27T15:28:50Z</time>
      </trkpt>
      <trkpt lat="48.64886" lon="-2.34659">
        <ele>39.8</ele>
        <time>2021-07-27T15:28:51Z</time>
      </trkpt>
      <trkpt lat="48.64883" lon="-2.34668">
        <ele>39.7</ele>
        <time>2021-07-27T15:28:52Z</time>
      </trkpt>
      <trkpt lat="48.6488" lon="-2.34678">
        <ele>39.6</ele>
        <time>2021-07-27T15:28:53Z</time>
      </trkpt>
      <trkpt lat="48.64875" lon="-2.34696">
        <ele>39.5</ele>
        <time>2021-07-27T15:28:55Z</time>
      </trkpt>
      <trkpt lat="48.6487" lon="-2.34713">
        <ele>39.4</ele>
        <time>2021-07-27T15:28:57Z</time>
      </trkpt>
      <trkpt lat="48.64865" lon="-2.34731">
        <ele>39.3</ele>
        <time>2021-07-27T15:28:59Z</time>
      </trkpt>
      <trkpt lat="48.6486" lon="-2.3475">
        <ele>39.2</ele>
        <time>2021-07-27T15:29:01Z</time>
      </trkpt>
      <trkpt lat="48.64854" lon="-2.34768">
        <ele>39.2</ele>
        <time>2021-07-27T15:29:03Z</time>
      </trkpt>
      <trkpt lat="48.64851" lon="-2.34777">
        <ele>39.1</ele>
        <time>2021-07-27T15:29:04Z</time>
      </trkpt>
      <trkpt lat="48.64846" lon="-2.34795">
        <ele>39</ele>
        <time>2021-07-27T15:29:06Z</time>
      </trkpt>
      <trkpt lat="48.64841" lon="-2.34812">
        <ele>38.8</ele>
        <time>2021-07-27T15:29:08Z</time>
      </trkpt>
      <trkpt lat="48.6484" lon="-2.34822">
        <ele>38.7</ele>
        <time>2021-07-27T15:29:09Z</time>
      </trkpt>
      <trkpt lat="48.64836" lon="-2.34839">
        <ele>38.5</ele>
        <time>2021-07-27T15:29:11Z</time>
      </trkpt>
      <trkpt lat="48.64833" lon="-2.34848">
        <ele>38.4</ele>
        <time>2021-07-27T15:29:12Z</time>
      </trkpt>
      <trkpt lat="48.6483" lon="-2.34857">
        <ele>38.3</ele>
        <time>2021-07-27T15:29:13Z</time>
      </trkpt>
      <trkpt lat="48.64825" lon="-2.34874">
        <ele>38</ele>
        <time>2021-07-27T15:29:15Z</time>
      </trkpt>
      <trkpt lat="48.64821" lon="-2.3489">
        <ele>37.7</ele>
        <time>2021-07-27T15:29:17Z</time>
      </trkpt>
      <trkpt lat="48.64818" lon="-2.34899">
        <ele>37.6</ele>
        <time>2021-07-27T15:29:18Z</time>
      </trkpt>
      <trkpt lat="48.64815" lon="-2.34907">
        <ele>37.4</ele>
        <time>2021-07-27T15:29:19Z</time>
      </trkpt>
      <trkpt lat="48.6481" lon="-2.3492">
        <ele>37.3</ele>
        <time>2021-07-27T15:29:21Z</time>
      </trkpt>
      <trkpt lat="48.64808" lon="-2.34923">
        <ele>37.3</ele>
        <time>2021-07-27T15:29:22Z</time>
      </trkpt>
      <trkpt lat="48.64807" lon="-2.34924">
        <ele>37.3</ele>
        <time>2021-07-27T15:29:23Z</time>
      </trkpt>
      <trkpt lat="48.64806" lon="-2.3493">
        <ele>37.4</ele>
        <time>2021-07-27T15:29:25Z</time>
      </trkpt>
      <trkpt lat="48.64808" lon="-2.34933">
        <ele>37.4</ele>
        <time>2021-07-27T15:29:27Z</time>
      </trkpt>
      <trkpt lat="48.64812" lon="-2.34935">
        <ele>37.3</ele>
        <time>2021-07-27T15:29:28Z</time>
      </trkpt>
      <trkpt lat="48.64812" lon="-2.34936">
        <ele>37.2</ele>
        <time>2021-07-27T15:29:29Z</time>
      </trkpt>
      <trkpt lat="48.64813" lon="-2.3494">
        <ele>37.2</ele>
        <time>2021-07-27T15:29:30Z</time>
      </trkpt>
      <trkpt lat="48.6482" lon="-2.34941">
        <ele>37</ele>
        <time>2021-07-27T15:29:32Z</time>
      </trkpt>
      <trkpt lat="48.64828" lon="-2.34944">
        <ele>36.9</ele>
        <time>2021-07-27T15:29:34Z</time>
      </trkpt>
      <trkpt lat="48.64841" lon="-2.34949">
        <ele>36.6</ele>
        <time>2021-07-27T15:29:36Z</time>
      </trkpt>
      <trkpt lat="48.64846" lon="-2.3495">
        <ele>36.6</ele>
        <time>2021-07-27T15:29:37Z</time>
      </trkpt>
      <trkpt lat="48.64851" lon="-2.34951">
        <ele>36.5</ele>
        <time>2021-07-27T15:29:38Z</time>
      </trkpt>
      <trkpt lat="48.64862" lon="-2.34954">
        <ele>36.4</ele>
        <time>2021-07-27T15:29:40Z</time>
      </trkpt>
      <trkpt lat="48.64867" lon="-2.34956">
        <ele>36.3</ele>
        <time>2021-07-27T15:29:41Z</time>
      </trkpt>
      <trkpt lat="48.64877" lon="-2.34963">
        <ele>36.2</ele>
        <time>2021-07-27T15:29:43Z</time>
      </trkpt>
      <trkpt lat="48.64883" lon="-2.34975">
        <ele>36.2</ele>
        <time>2021-07-27T15:29:45Z</time>
      </trkpt>
      <trkpt lat="48.64884" lon="-2.34992">
        <ele>36.2</ele>
        <time>2021-07-27T15:29:47Z</time>
      </trkpt>
      <trkpt lat="48.64883" lon="-2.35007">
        <ele>36.2</ele>
        <time>2021-07-27T15:29:49Z</time>
      </trkpt>
      <trkpt lat="48.64883" lon="-2.35022">
        <ele>36.1</ele>
        <time>2021-07-27T15:29:51Z</time>
      </trkpt>
      <trkpt lat="48.64887" lon="-2.35037">
        <ele>36</ele>
        <time>2021-07-27T15:29:53Z</time>
      </trkpt>
      <trkpt lat="48.64896" lon="-2.35049">
        <ele>35.8</ele>
        <time>2021-07-27T15:29:55Z</time>
      </trkpt>
      <trkpt lat="48.64901" lon="-2.35053">
        <ele>35.7</ele>
        <time>2021-07-27T15:29:56Z</time>
      </trkpt>
      <trkpt lat="48.6491" lon="-2.35061">
        <ele>35.4</ele>
        <time>2021-07-27T15:29:58Z</time>
      </trkpt>
      <trkpt lat="48.64921" lon="-2.35069">
        <ele>35.2</ele>
        <time>2021-07-27T15:30:00Z</time>
      </trkpt>
      <trkpt lat="48.64926" lon="-2.35071">
        <ele>35.2</ele>
        <time>2021-07-27T15:30:01Z</time>
      </trkpt>
      <trkpt lat="48.64932" lon="-2.35072">
        <ele>35.1</ele>
        <time>2021-07-27T15:30:02Z</time>
      </trkpt>
      <trkpt lat="48.64942" lon="-2.35074">
        <ele>34.9</ele>
        <time>2021-07-27T15:30:04Z</time>
      </trkpt>
      <trkpt lat="48.64953" lon="-2.35072">
        <ele>34.8</ele>
        <time>2021-07-27T15:30:06Z</time>
      </trkpt>
      <trkpt lat="48.64958" lon="-2.3507">
        <ele>34.7</ele>
        <time>2021-07-27T15:30:07Z</time>
      </trkpt>
      <trkpt lat="48.64969" lon="-2.35067">
        <ele>34.5</ele>
        <time>2021-07-27T15:30:09Z</time>
      </trkpt>
      <trkpt lat="48.64978" lon="-2.35072">
        <ele>34.4</ele>
        <time>2021-07-27T15:30:11Z</time>
      </trkpt>
      <trkpt lat="48.64981" lon="-2.35078">
        <ele>34.3</ele>
        <time>2021-07-27T15:30:12Z</time>
      </trkpt>
      <trkpt lat="48.64984" lon="-2.35095">
        <ele>34</ele>
        <time>2021-07-27T15:30:14Z</time>
      </trkpt>
      <trkpt lat="48.64987" lon="-2.35113">
        <ele>33.8</ele>
        <time>2021-07-27T15:30:16Z</time>
      </trkpt>
      <trkpt lat="48.64989" lon="-2.35122">
        <ele>33.6</ele>
        <time>2021-07-27T15:30:17Z</time>
      </trkpt>
      <trkpt lat="48.64995" lon="-2.35139">
        <ele>33.3</ele>
        <time>2021-07-27T15:30:19Z</time>
      </trkpt>
      <trkpt lat="48.65003" lon="-2.35155">
        <ele>33</ele>
        <time>2021-07-27T15:30:21Z</time>
      </trkpt>
      <trkpt lat="48.6501" lon="-2.35172">
        <ele>32.8</ele>
        <time>2021-07-27T15:30:23Z</time>
      </trkpt>
      <trkpt lat="48.65013" lon="-2.3518">
        <ele>32.8</ele>
        <time>2021-07-27T15:30:24Z</time>
      </trkpt>
      <trkpt lat="48.65019" lon="-2.35197">
        <ele>32.7</ele>
        <time>2021-07-27T15:30:26Z</time>
      </trkpt>
      <trkpt lat="48.65023" lon="-2.35212">
        <ele>32.7</ele>
        <time>2021-07-27T15:30:28Z</time>
      </trkpt>
      <trkpt lat="48.65027" lon="-2.35227">
        <ele>32.8</ele>
        <time>2021-07-27T15:30:30Z</time>
      </trkpt>
      <trkpt lat="48.65028" lon="-2.35234">
        <ele>32.8</ele>
        <time>2021-07-27T15:30:31Z</time>
      </trkpt>
      <trkpt lat="48.65029" lon="-2.35248">
        <ele>32.7</ele>
        <time>2021-07-27T15:30:33Z</time>
      </trkpt>
      <trkpt lat="48.6503" lon="-2.35255">
        <ele>32.7</ele>
        <time>2021-07-27T15:30:34Z</time>
      </trkpt>
      <trkpt lat="48.65032" lon="-2.35269">
        <ele>32.6</ele>
        <time>2021-07-27T15:30:36Z</time>
      </trkpt>
      <trkpt lat="48.65034" lon="-2.35285">
        <ele>32.4</ele>
        <time>2021-07-27T15:30:38Z</time>
      </trkpt>
      <trkpt lat="48.65038" lon="-2.35301">
        <ele>32.3</ele>
        <time>2021-07-27T15:30:40Z</time>
      </trkpt>
      <trkpt lat="48.65041" lon="-2.35317">
        <ele>32.2</ele>
        <time>2021-07-27T15:30:42Z</time>
      </trkpt>
      <trkpt lat="48.65042" lon="-2.35333">
        <ele>32.2</ele>
        <time>2021-07-27T15:30:44Z</time>
      </trkpt>
      <trkpt lat="48.65043" lon="-2.3534">
        <ele>32.2</ele>
        <time>2021-07-27T15:30:45Z</time>
      </trkpt>
      <trkpt lat="48.65045" lon="-2.35356">
        <ele>32.1</ele>
        <time>2021-07-27T15:30:47Z</time>
      </trkpt>
      <trkpt lat="48.65047" lon="-2.35364">
        <ele>32.1</ele>
        <time>2021-07-27T15:30:48Z</time>
      </trkpt>
      <trkpt lat="48.65049" lon="-2.35371">
        <ele>32.1</ele>
        <time>2021-07-27T15:30:49Z</time>
      </trkpt>
      <trkpt lat="48.65053" lon="-2.35386">
        <ele>32.1</ele>
        <time>2021-07-27T15:30:51Z</time>
      </trkpt>
      <trkpt lat="48.65055" lon="-2.35394">
        <ele>32.1</ele>
        <time>2021-07-27T15:30:52Z</time>
      </trkpt>
      <trkpt lat="48.65056" lon="-2.35403">
        <ele>32.1</ele>
        <time>2021-07-27T15:30:53Z</time>
      </trkpt>
      <trkpt lat="48.65057" lon="-2.35422">
        <ele>32.1</ele>
        <time>2021-07-27T15:30:55Z</time>
      </trkpt>
      <trkpt lat="48.65056" lon="-2.35431">
        <ele>32.2</ele>
        <time>2021-07-27T15:30:56Z</time>
      </trkpt>
      <trkpt lat="48.65052" lon="-2.35447">
        <ele>32.3</ele>
        <time>2021-07-27T15:30:58Z</time>
      </trkpt>
      <trkpt lat="48.65048" lon="-2.35453">
        <ele>32.3</ele>
        <time>2021-07-27T15:30:59Z</time>
      </trkpt>
      <trkpt lat="48.65043" lon="-2.35459">
        <ele>32.4</ele>
        <time>2021-07-27T15:31:00Z</time>
      </trkpt>
      <trkpt lat="48.65034" lon="-2.3547">
        <ele>32.5</ele>
        <time>2021-07-27T15:31:02Z</time>
      </trkpt>
      <trkpt lat="48.65029" lon="-2.35475">
        <ele>32.5</ele>
        <time>2021-07-27T15:31:03Z</time>
      </trkpt>
      <trkpt lat="48.65025" lon="-2.3548">
        <ele>32.6</ele>
        <time>2021-07-27T15:31:04Z</time>
      </trkpt>
      <trkpt lat="48.65021" lon="-2.35485">
        <ele>32.7</ele>
        <time>2021-07-27T15:31:05Z</time>
      </trkpt>
      <trkpt lat="48.65011" lon="-2.35495">
        <ele>32.8</ele>
        <time>2021-07-27T15:31:07Z</time>
      </trkpt>
      <trkpt lat="48.65007" lon="-2.35499">
        <ele>32.9</ele>
        <time>2021-07-27T15:31:08Z</time>
      </trkpt>
      <trkpt lat="48.65003" lon="-2.35504">
        <ele>33</ele>
        <time>2021-07-27T15:31:09Z</time>
      </trkpt>
      <trkpt lat="48.64994" lon="-2.35515">
        <ele>33.1</ele>
        <time>2021-07-27T15:31:11Z</time>
      </trkpt>
      <trkpt lat="48.64988" lon="-2.35528">
        <ele>33.2</ele>
        <time>2021-07-27T15:31:13Z</time>
      </trkpt>
      <trkpt lat="48.64985" lon="-2.35535">
        <ele>33.2</ele>
        <time>2021-07-27T15:31:14Z</time>
      </trkpt>
      <trkpt lat="48.64978" lon="-2.35549">
        <ele>33.2</ele>
        <time>2021-07-27T15:31:16Z</time>
      </trkpt>
      <trkpt lat="48.64975" lon="-2.35557">
        <ele>33.2</ele>
        <time>2021-07-27T15:31:17Z</time>
      </trkpt>
      <trkpt lat="48.64971" lon="-2.35572">
        <ele>33.3</ele>
        <time>2021-07-27T15:31:19Z</time>
      </trkpt>
      <trkpt lat="48.64968" lon="-2.3558">
        <ele>33.3</ele>
        <time>2021-07-27T15:31:20Z</time>
      </trkpt>
      <trkpt lat="48.64965" lon="-2.35596">
        <ele>33.4</ele>
        <time>2021-07-27T15:31:22Z</time>
      </trkpt>
      <trkpt lat="48.64962" lon="-2.35612">
        <ele>33.5</ele>
        <time>2021-07-27T15:31:24Z</time>
      </trkpt>
      <trkpt lat="48.6496" lon="-2.3562">
        <ele>33.5</ele>
        <time>2021-07-27T15:31:25Z</time>
      </trkpt>
      <trkpt lat="48.64957" lon="-2.3563">
        <ele>33.6</ele>
        <time>2021-07-27T15:31:27Z</time>
      </trkpt>
      <trkpt lat="48.64955" lon="-2.35642">
        <ele>33.7</ele>
        <time>2021-07-27T15:31:28Z</time>
      </trkpt>
      <trkpt lat="48.64953" lon="-2.35652">
        <ele>33.8</ele>
        <time>2021-07-27T15:31:29Z</time>
      </trkpt>
      <trkpt lat="48.64951" lon="-2.35661">
        <ele>34</ele>
        <time>2021-07-27T15:31:30Z</time>
      </trkpt>
      <trkpt lat="48.64946" lon="-2.35675">
        <ele>34.2</ele>
        <time>2021-07-27T15:31:32Z</time>
      </trkpt>
      <trkpt lat="48.64944" lon="-2.35682">
        <ele>34.3</ele>
        <time>2021-07-27T15:31:33Z</time>
      </trkpt>
      <trkpt lat="48.64942" lon="-2.35689">
        <ele>34.5</ele>
        <time>2021-07-27T15:31:34Z</time>
      </trkpt>
      <trkpt lat="48.64939" lon="-2.35701">
        <ele>34.7</ele>
        <time>2021-07-27T15:31:36Z</time>
      </trkpt>
      <trkpt lat="48.64939" lon="-2.35704">
        <ele>34.8</ele>
        <time>2021-07-27T15:31:37Z</time>
      </trkpt>
      <trkpt lat="48.64938" lon="-2.35708">
        <ele>34.9</ele>
        <time>2021-07-27T15:31:39Z</time>
      </trkpt>
      <trkpt lat="48.64936" lon="-2.3571">
        <ele>35</ele>
        <time>2021-07-27T15:31:40Z</time>
      </trkpt>
      <trkpt lat="48.64932" lon="-2.35714">
        <ele>35.2</ele>
        <time>2021-07-27T15:31:42Z</time>
      </trkpt>
      <trkpt lat="48.64932" lon="-2.35719">
        <ele>35.3</ele>
        <time>2021-07-27T15:31:43Z</time>
      </trkpt>
      <trkpt lat="48.64931" lon="-2.35722">
        <ele>35.4</ele>
        <time>2021-07-27T15:31:44Z</time>
      </trkpt>
      <trkpt lat="48.64931" lon="-2.35726">
        <ele>35.5</ele>
        <time>2021-07-27T15:31:45Z</time>
      </trkpt>
      <trkpt lat="48.6493" lon="-2.35732">
        <ele>35.7</ele>
        <time>2021-07-27T15:31:47Z</time>
      </trkpt>
      <trkpt lat="48.64929" lon="-2.35731">
        <ele>35.8</ele>
        <time>2021-07-27T15:31:48Z</time>
      </trkpt>
      <trkpt lat="48.64928" lon="-2.35737">
        <ele>35.9</ele>
        <time>2021-07-27T15:31:50Z</time>
      </trkpt>
      <trkpt lat="48.64928" lon="-2.35741">
        <ele>36.1</ele>
        <time>2021-07-27T15:31:51Z</time>
      </trkpt>
      <trkpt lat="48.64928" lon="-2.35745">
        <ele>36.2</ele>
        <time>2021-07-27T15:31:52Z</time>
      </trkpt>
      <trkpt lat="48.64925" lon="-2.35752">
        <ele>36.4</ele>
        <time>2021-07-27T15:31:54Z</time>
      </trkpt>
      <trkpt lat="48.64922" lon="-2.3576">
        <ele>36.7</ele>
        <time>2021-07-27T15:31:56Z</time>
      </trkpt>
      <trkpt lat="48.64921" lon="-2.35765">
        <ele>36.8</ele>
        <time>2021-07-27T15:31:57Z</time>
      </trkpt>
      <trkpt lat="48.6492" lon="-2.35774">
        <ele>37.1</ele>
        <time>2021-07-27T15:31:59Z</time>
      </trkpt>
      <trkpt lat="48.64919" lon="-2.35779">
        <ele>37.2</ele>
        <time>2021-07-27T15:32:00Z</time>
      </trkpt>
      <trkpt lat="48.64915" lon="-2.35788">
        <ele>37.5</ele>
        <time>2021-07-27T15:32:02Z</time>
      </trkpt>
      <trkpt lat="48.64912" lon="-2.35797">
        <ele>37.7</ele>
        <time>2021-07-27T15:32:04Z</time>
      </trkpt>
      <trkpt lat="48.6491" lon="-2.35806">
        <ele>38</ele>
        <time>2021-07-27T15:32:06Z</time>
      </trkpt>
      <trkpt lat="48.64909" lon="-2.35811">
        <ele>38.2</ele>
        <time>2021-07-27T15:32:07Z</time>
      </trkpt>
      <trkpt lat="48.64907" lon="-2.35821">
        <ele>38.4</ele>
        <time>2021-07-27T15:32:09Z</time>
      </trkpt>
      <trkpt lat="48.64904" lon="-2.3583">
        <ele>38.8</ele>
        <time>2021-07-27T15:32:11Z</time>
      </trkpt>
      <trkpt lat="48.64903" lon="-2.35835">
        <ele>38.9</ele>
        <time>2021-07-27T15:32:12Z</time>
      </trkpt>
      <trkpt lat="48.64902" lon="-2.3584">
        <ele>39</ele>
        <time>2021-07-27T15:32:13Z</time>
      </trkpt>
      <trkpt lat="48.649" lon="-2.3585">
        <ele>39.4</ele>
        <time>2021-07-27T15:32:15Z</time>
      </trkpt>
      <trkpt lat="48.64897" lon="-2.35858">
        <ele>39.6</ele>
        <time>2021-07-27T15:32:17Z</time>
      </trkpt>
      <trkpt lat="48.64894" lon="-2.35867">
        <ele>39.9</ele>
        <time>2021-07-27T15:32:19Z</time>
      </trkpt>
      <trkpt lat="48.64893" lon="-2.35871">
        <ele>40.1</ele>
        <time>2021-07-27T15:32:20Z</time>
      </trkpt>
      <trkpt lat="48.64891" lon="-2.35881">
        <ele>40.4</ele>
        <time>2021-07-27T15:32:22Z</time>
      </trkpt>
      <trkpt lat="48.64888" lon="-2.35889">
        <ele>40.7</ele>
        <time>2021-07-27T15:32:24Z</time>
      </trkpt>
      <trkpt lat="48.64885" lon="-2.35894">
        <ele>40.9</ele>
        <time>2021-07-27T15:32:25Z</time>
      </trkpt>
      <trkpt lat="48.6488" lon="-2.35901">
        <ele>41.2</ele>
        <time>2021-07-27T15:32:27Z</time>
      </trkpt>
      <trkpt lat="48.64878" lon="-2.35904">
        <ele>41.3</ele>
        <time>2021-07-27T15:32:28Z</time>
      </trkpt>
      <trkpt lat="48.64872" lon="-2.35909">
        <ele>41.5</ele>
        <time>2021-07-27T15:32:30Z</time>
      </trkpt>
      <trkpt lat="48.64868" lon="-2.35913">
        <ele>41.6</ele>
        <time>2021-07-27T15:32:31Z</time>
      </trkpt>
      <trkpt lat="48.64865" lon="-2.35917">
        <ele>41.7</ele>
        <time>2021-07-27T15:32:32Z</time>
      </trkpt>
      <trkpt lat="48.64862" lon="-2.3592">
        <ele>41.7</ele>
        <time>2021-07-27T15:32:33Z</time>
      </trkpt>
      <trkpt lat="48.64855" lon="-2.35928">
        <ele>41.8</ele>
        <time>2021-07-27T15:32:35Z</time>
      </trkpt>
      <trkpt lat="48.64848" lon="-2.35936">
        <ele>41.7</ele>
        <time>2021-07-27T15:32:37Z</time>
      </trkpt>
      <trkpt lat="48.64845" lon="-2.35942">
        <ele>41.7</ele>
        <time>2021-07-27T15:32:38Z</time>
      </trkpt>
      <trkpt lat="48.64842" lon="-2.35951">
        <ele>41.7</ele>
        <time>2021-07-27T15:32:39Z</time>
      </trkpt>
      <trkpt lat="48.64839" lon="-2.35959">
        <ele>41.7</ele>
        <time>2021-07-27T15:32:41Z</time>
      </trkpt>
      <trkpt lat="48.64832" lon="-2.35969">
        <ele>41.7</ele>
        <time>2021-07-27T15:32:43Z</time>
      </trkpt>
      <trkpt lat="48.64832" lon="-2.35976">
        <ele>41.8</ele>
        <time>2021-07-27T15:32:44Z</time>
      </trkpt>
      <trkpt lat="48.64832" lon="-2.35983">
        <ele>41.8</ele>
        <time>2021-07-27T15:32:45Z</time>
      </trkpt>
      <trkpt lat="48.64828" lon="-2.35994">
        <ele>41.9</ele>
        <time>2021-07-27T15:32:47Z</time>
      </trkpt>
      <trkpt lat="48.64825" lon="-2.36">
        <ele>41.9</ele>
        <time>2021-07-27T15:32:48Z</time>
      </trkpt>
      <trkpt lat="48.6482" lon="-2.36007">
        <ele>41.9</ele>
        <time>2021-07-27T15:32:49Z</time>
      </trkpt>
      <trkpt lat="48.64817" lon="-2.36012">
        <ele>41.9</ele>
        <time>2021-07-27T15:32:50Z</time>
      </trkpt>
      <trkpt lat="48.64813" lon="-2.36017">
        <ele>42</ele>
        <time>2021-07-27T15:32:51Z</time>
      </trkpt>
      <trkpt lat="48.64806" lon="-2.36026">
        <ele>42</ele>
        <time>2021-07-27T15:32:53Z</time>
      </trkpt>
      <trkpt lat="48.64801" lon="-2.36031">
        <ele>42</ele>
        <time>2021-07-27T15:32:54Z</time>
      </trkpt>
      <trkpt lat="48.64793" lon="-2.36039">
        <ele>42</ele>
        <time>2021-07-27T15:32:56Z</time>
      </trkpt>
      <trkpt lat="48.6479" lon="-2.36041">
        <ele>42</ele>
        <time>2021-07-27T15:32:57Z</time>
      </trkpt>
      <trkpt lat="48.64782" lon="-2.36047">
        <ele>42</ele>
        <time>2021-07-27T15:32:59Z</time>
      </trkpt>
      <trkpt lat="48.64778" lon="-2.3605">
        <ele>42</ele>
        <time>2021-07-27T15:33:00Z</time>
      </trkpt>
      <trkpt lat="48.64771" lon="-2.36054">
        <ele>42.1</ele>
        <time>2021-07-27T15:33:02Z</time>
      </trkpt>
      <trkpt lat="48.64767" lon="-2.36057">
        <ele>42.1</ele>
        <time>2021-07-27T15:33:03Z</time>
      </trkpt>
      <trkpt lat="48.6476" lon="-2.36063">
        <ele>42.1</ele>
        <time>2021-07-27T15:33:05Z</time>
      </trkpt>
      <trkpt lat="48.64755" lon="-2.36068">
        <ele>42.1</ele>
        <time>2021-07-27T15:33:06Z</time>
      </trkpt>
      <trkpt lat="48.64749" lon="-2.36073">
        <ele>42.2</ele>
        <time>2021-07-27T15:33:08Z</time>
      </trkpt>
      <trkpt lat="48.64744" lon="-2.36076">
        <ele>42.2</ele>
        <time>2021-07-27T15:33:09Z</time>
      </trkpt>
      <trkpt lat="48.6474" lon="-2.36079">
        <ele>42.2</ele>
        <time>2021-07-27T15:33:10Z</time>
      </trkpt>
      <trkpt lat="48.64732" lon="-2.36085">
        <ele>42.2</ele>
        <time>2021-07-27T15:33:12Z</time>
      </trkpt>
      <trkpt lat="48.64724" lon="-2.36092">
        <ele>42.2</ele>
        <time>2021-07-27T15:33:14Z</time>
      </trkpt>
      <trkpt lat="48.64715" lon="-2.36101">
        <ele>42.2</ele>
        <time>2021-07-27T15:33:16Z</time>
      </trkpt>
      <trkpt lat="48.64706" lon="-2.36111">
        <ele>42.2</ele>
        <time>2021-07-27T15:33:18Z</time>
      </trkpt>
      <trkpt lat="48.64699" lon="-2.36123">
        <ele>42.3</ele>
        <time>2021-07-27T15:33:20Z</time>
      </trkpt>
      <trkpt lat="48.64696" lon="-2.36129">
        <ele>42.3</ele>
        <time>2021-07-27T15:33:21Z</time>
      </trkpt>
      <trkpt lat="48.64693" lon="-2.36134">
        <ele>42.3</ele>
        <time>2021-07-27T15:33:22Z</time>
      </trkpt>
      <trkpt lat="48.64687" lon="-2.36148">
        <ele>42.3</ele>
        <time>2021-07-27T15:33:24Z</time>
      </trkpt>
      <trkpt lat="48.64682" lon="-2.36161">
        <ele>42.4</ele>
        <time>2021-07-27T15:33:26Z</time>
      </trkpt>
      <trkpt lat="48.6468" lon="-2.36168">
        <ele>42.4</ele>
        <time>2021-07-27T15:33:27Z</time>
      </trkpt>
      <trkpt lat="48.64675" lon="-2.36181">
        <ele>42.5</ele>
        <time>2021-07-27T15:33:29Z</time>
      </trkpt>
      <trkpt lat="48.6467" lon="-2.36195">
        <ele>42.5</ele>
        <time>2021-07-27T15:33:31Z</time>
      </trkpt>
      <trkpt lat="48.64667" lon="-2.36202">
        <ele>42.5</ele>
        <time>2021-07-27T15:33:32Z</time>
      </trkpt>
      <trkpt lat="48.64665" lon="-2.36209">
        <ele>42.5</ele>
        <time>2021-07-27T15:33:33Z</time>
      </trkpt>
      <trkpt lat="48.64663" lon="-2.36216">
        <ele>42.5</ele>
        <time>2021-07-27T15:33:34Z</time>
      </trkpt>
      <trkpt lat="48.6466" lon="-2.3623">
        <ele>42.6</ele>
        <time>2021-07-27T15:33:36Z</time>
      </trkpt>
      <trkpt lat="48.64658" lon="-2.36237">
        <ele>42.6</ele>
        <time>2021-07-27T15:33:37Z</time>
      </trkpt>
      <trkpt lat="48.64657" lon="-2.36252">
        <ele>42.6</ele>
        <time>2021-07-27T15:33:39Z</time>
      </trkpt>
      <trkpt lat="48.64655" lon="-2.36267">
        <ele>42.7</ele>
        <time>2021-07-27T15:33:41Z</time>
      </trkpt>
      <trkpt lat="48.64655" lon="-2.36281">
        <ele>42.8</ele>
        <time>2021-07-27T15:33:43Z</time>
      </trkpt>
      <trkpt lat="48.64655" lon="-2.36289">
        <ele>42.8</ele>
        <time>2021-07-27T15:33:44Z</time>
      </trkpt>
      <trkpt lat="48.64655" lon="-2.36297">
        <ele>42.9</ele>
        <time>2021-07-27T15:33:45Z</time>
      </trkpt>
      <trkpt lat="48.64657" lon="-2.36312">
        <ele>43</ele>
        <time>2021-07-27T15:33:47Z</time>
      </trkpt>
      <trkpt lat="48.64658" lon="-2.36319">
        <ele>43</ele>
        <time>2021-07-27T15:33:48Z</time>
      </trkpt>
      <trkpt lat="48.64659" lon="-2.36335">
        <ele>43.2</ele>
        <time>2021-07-27T15:33:50Z</time>
      </trkpt>
      <trkpt lat="48.6466" lon="-2.36343">
        <ele>43.2</ele>
        <time>2021-07-27T15:33:51Z</time>
      </trkpt>
      <trkpt lat="48.6466" lon="-2.36351">
        <ele>43.3</ele>
        <time>2021-07-27T15:33:52Z</time>
      </trkpt>
      <trkpt lat="48.64662" lon="-2.36366">
        <ele>43.5</ele>
        <time>2021-07-27T15:33:54Z</time>
      </trkpt>
      <trkpt lat="48.64663" lon="-2.36374">
        <ele>43.6</ele>
        <time>2021-07-27T15:33:55Z</time>
      </trkpt>
      <trkpt lat="48.64664" lon="-2.36382">
        <ele>43.7</ele>
        <time>2021-07-27T15:33:56Z</time>
      </trkpt>
      <trkpt lat="48.64664" lon="-2.36398">
        <ele>43.9</ele>
        <time>2021-07-27T15:33:58Z</time>
      </trkpt>
      <trkpt lat="48.64666" lon="-2.36414">
        <ele>44.1</ele>
        <time>2021-07-27T15:34:00Z</time>
      </trkpt>
      <trkpt lat="48.64668" lon="-2.36429">
        <ele>44.3</ele>
        <time>2021-07-27T15:34:02Z</time>
      </trkpt>
      <trkpt lat="48.6467" lon="-2.36445">
        <ele>44.5</ele>
        <time>2021-07-27T15:34:04Z</time>
      </trkpt>
      <trkpt lat="48.64671" lon="-2.3646">
        <ele>44.7</ele>
        <time>2021-07-27T15:34:06Z</time>
      </trkpt>
      <trkpt lat="48.64671" lon="-2.36475">
        <ele>44.9</ele>
        <time>2021-07-27T15:34:08Z</time>
      </trkpt>
      <trkpt lat="48.64672" lon="-2.36482">
        <ele>45.1</ele>
        <time>2021-07-27T15:34:09Z</time>
      </trkpt>
      <trkpt lat="48.6467" lon="-2.36493">
        <ele>45.3</ele>
        <time>2021-07-27T15:34:11Z</time>
      </trkpt>
      <trkpt lat="48.64668" lon="-2.36496">
        <ele>45.3</ele>
        <time>2021-07-27T15:34:12Z</time>
      </trkpt>
      <trkpt lat="48.64659" lon="-2.36501">
        <ele>45.4</ele>
        <time>2021-07-27T15:34:14Z</time>
      </trkpt>
      <trkpt lat="48.64653" lon="-2.36502">
        <ele>45.4</ele>
        <time>2021-07-27T15:34:15Z</time>
      </trkpt>
      <trkpt lat="48.64642" lon="-2.36501">
        <ele>45.4</ele>
        <time>2021-07-27T15:34:17Z</time>
      </trkpt>
      <trkpt lat="48.64637" lon="-2.36501">
        <ele>45.4</ele>
        <time>2021-07-27T15:34:18Z</time>
      </trkpt>
      <trkpt lat="48.64631" lon="-2.36501">
        <ele>45.4</ele>
        <time>2021-07-27T15:34:19Z</time>
      </trkpt>
      <trkpt lat="48.64626" lon="-2.36502">
        <ele>45.4</ele>
        <time>2021-07-27T15:34:20Z</time>
      </trkpt>
      <trkpt lat="48.6462" lon="-2.36515">
        <ele>45.4</ele>
        <time>2021-07-27T15:34:22Z</time>
      </trkpt>
      <trkpt lat="48.64619" lon="-2.36524">
        <ele>45.4</ele>
        <time>2021-07-27T15:34:23Z</time>
      </trkpt>
      <trkpt lat="48.64618" lon="-2.36532">
        <ele>45.4</ele>
        <time>2021-07-27T15:34:24Z</time>
      </trkpt>
      <trkpt lat="48.64615" lon="-2.36547">
        <ele>45.5</ele>
        <time>2021-07-27T15:34:26Z</time>
      </trkpt>
      <trkpt lat="48.64613" lon="-2.36555">
        <ele>45.5</ele>
        <time>2021-07-27T15:34:27Z</time>
      </trkpt>
      <trkpt lat="48.64608" lon="-2.36568">
        <ele>45.6</ele>
        <time>2021-07-27T15:34:29Z</time>
      </trkpt>
      <trkpt lat="48.646" lon="-2.3658">
        <ele>45.6</ele>
        <time>2021-07-27T15:34:31Z</time>
      </trkpt>
      <trkpt lat="48.64596" lon="-2.36585">
        <ele>45.6</ele>
        <time>2021-07-27T15:34:32Z</time>
      </trkpt>
      <trkpt lat="48.64592" lon="-2.36591">
        <ele>45.6</ele>
        <time>2021-07-27T15:34:33Z</time>
      </trkpt>
      <trkpt lat="48.64584" lon="-2.36602">
        <ele>45.6</ele>
        <time>2021-07-27T15:34:35Z</time>
      </trkpt>
      <trkpt lat="48.6458" lon="-2.36607">
        <ele>45.6</ele>
        <time>2021-07-27T15:34:36Z</time>
      </trkpt>
      <trkpt lat="48.64576" lon="-2.36612">
        <ele>45.6</ele>
        <time>2021-07-27T15:34:37Z</time>
      </trkpt>
      <trkpt lat="48.64567" lon="-2.36622">
        <ele>45.6</ele>
        <time>2021-07-27T15:34:39Z</time>
      </trkpt>
      <trkpt lat="48.64558" lon="-2.36632">
        <ele>45.6</ele>
        <time>2021-07-27T15:34:41Z</time>
      </trkpt>
      <trkpt lat="48.64554" lon="-2.36637">
        <ele>45.7</ele>
        <time>2021-07-27T15:34:42Z</time>
      </trkpt>
      <trkpt lat="48.64544" lon="-2.36648">
        <ele>45.7</ele>
        <time>2021-07-27T15:34:44Z</time>
      </trkpt>
      <trkpt lat="48.64536" lon="-2.36659">
        <ele>45.7</ele>
        <time>2021-07-27T15:34:46Z</time>
      </trkpt>
      <trkpt lat="48.64532" lon="-2.36664">
        <ele>45.7</ele>
        <time>2021-07-27T15:34:47Z</time>
      </trkpt>
      <trkpt lat="48.64528" lon="-2.3667">
        <ele>45.7</ele>
        <time>2021-07-27T15:34:48Z</time>
      </trkpt>
      <trkpt lat="48.6452" lon="-2.36681">
        <ele>45.7</ele>
        <time>2021-07-27T15:34:50Z</time>
      </trkpt>
      <trkpt lat="48.64516" lon="-2.36687">
        <ele>45.7</ele>
        <time>2021-07-27T15:34:51Z</time>
      </trkpt>
      <trkpt lat="48.64508" lon="-2.36698">
        <ele>45.9</ele>
        <time>2021-07-27T15:34:53Z</time>
      </trkpt>
      <trkpt lat="48.64504" lon="-2.36703">
        <ele>45.9</ele>
        <time>2021-07-27T15:34:54Z</time>
      </trkpt>
      <trkpt lat="48.645" lon="-2.36709">
        <ele>46</ele>
        <time>2021-07-27T15:34:55Z</time>
      </trkpt>
      <trkpt lat="48.64496" lon="-2.36715">
        <ele>46.1</ele>
        <time>2021-07-27T15:34:56Z</time>
      </trkpt>
      <trkpt lat="48.64488" lon="-2.36727">
        <ele>46.2</ele>
        <time>2021-07-27T15:34:58Z</time>
      </trkpt>
      <trkpt lat="48.64481" lon="-2.36739">
        <ele>46.4</ele>
        <time>2021-07-27T15:35:00Z</time>
      </trkpt>
      <trkpt lat="48.64473" lon="-2.3675">
        <ele>46.6</ele>
        <time>2021-07-27T15:35:02Z</time>
      </trkpt>
      <trkpt lat="48.64469" lon="-2.36755">
        <ele>46.8</ele>
        <time>2021-07-27T15:35:03Z</time>
      </trkpt>
      <trkpt lat="48.64461" lon="-2.36765">
        <ele>47</ele>
        <time>2021-07-27T15:35:05Z</time>
      </trkpt>
      <trkpt lat="48.64453" lon="-2.36775">
        <ele>47.3</ele>
        <time>2021-07-27T15:35:07Z</time>
      </trkpt>
      <trkpt lat="48.64446" lon="-2.36785">
        <ele>47.5</ele>
        <time>2021-07-27T15:35:09Z</time>
      </trkpt>
      <trkpt lat="48.64443" lon="-2.3679">
        <ele>47.7</ele>
        <time>2021-07-27T15:35:10Z</time>
      </trkpt>
      <trkpt lat="48.64439" lon="-2.36795">
        <ele>47.9</ele>
        <time>2021-07-27T15:35:11Z</time>
      </trkpt>
      <trkpt lat="48.6443" lon="-2.36804">
        <ele>48.2</ele>
        <time>2021-07-27T15:35:13Z</time>
      </trkpt>
      <trkpt lat="48.64422" lon="-2.36812">
        <ele>48.6</ele>
        <time>2021-07-27T15:35:15Z</time>
      </trkpt>
      <trkpt lat="48.64413" lon="-2.36821">
        <ele>49</ele>
        <time>2021-07-27T15:35:17Z</time>
      </trkpt>
      <trkpt lat="48.64409" lon="-2.36826">
        <ele>49.2</ele>
        <time>2021-07-27T15:35:18Z</time>
      </trkpt>
      <trkpt lat="48.64401" lon="-2.36834">
        <ele>49.6</ele>
        <time>2021-07-27T15:35:20Z</time>
      </trkpt>
      <trkpt lat="48.64398" lon="-2.36839">
        <ele>49.7</ele>
        <time>2021-07-27T15:35:21Z</time>
      </trkpt>
      <trkpt lat="48.64391" lon="-2.36848">
        <ele>50</ele>
        <time>2021-07-27T15:35:23Z</time>
      </trkpt>
      <trkpt lat="48.64384" lon="-2.36857">
        <ele>50</ele>
        <time>2021-07-27T15:35:25Z</time>
      </trkpt>
      <trkpt lat="48.6438" lon="-2.36863">
        <ele>50</ele>
        <time>2021-07-27T15:35:26Z</time>
      </trkpt>
      <trkpt lat="48.64377" lon="-2.36868">
        <ele>49.9</ele>
        <time>2021-07-27T15:35:27Z</time>
      </trkpt>
      <trkpt lat="48.64373" lon="-2.36874">
        <ele>49.9</ele>
        <time>2021-07-27T15:35:28Z</time>
      </trkpt>
      <trkpt lat="48.6437" lon="-2.3688">
        <ele>49.9</ele>
        <time>2021-07-27T15:35:29Z</time>
      </trkpt>
      <trkpt lat="48.64362" lon="-2.36893">
        <ele>49.8</ele>
        <time>2021-07-27T15:35:31Z</time>
      </trkpt>
      <trkpt lat="48.64353" lon="-2.36907">
        <ele>49.7</ele>
        <time>2021-07-27T15:35:33Z</time>
      </trkpt>
      <trkpt lat="48.64349" lon="-2.36914">
        <ele>49.6</ele>
        <time>2021-07-27T15:35:34Z</time>
      </trkpt>
      <trkpt lat="48.64342" lon="-2.36928">
        <ele>49.3</ele>
        <time>2021-07-27T15:35:36Z</time>
      </trkpt>
      <trkpt lat="48.64338" lon="-2.36935">
        <ele>49</ele>
        <time>2021-07-27T15:35:37Z</time>
      </trkpt>
      <trkpt lat="48.64334" lon="-2.36942">
        <ele>48.8</ele>
        <time>2021-07-27T15:35:38Z</time>
      </trkpt>
      <trkpt lat="48.64325" lon="-2.36957">
        <ele>48.1</ele>
        <time>2021-07-27T15:35:40Z</time>
      </trkpt>
      <trkpt lat="48.64314" lon="-2.36971">
        <ele>47.3</ele>
        <time>2021-07-27T15:35:42Z</time>
      </trkpt>
      <trkpt lat="48.64309" lon="-2.36978">
        <ele>46.9</ele>
        <time>2021-07-27T15:35:43Z</time>
      </trkpt>
      <trkpt lat="48.64297" lon="-2.36993">
        <ele>46.2</ele>
        <time>2021-07-27T15:35:45Z</time>
      </trkpt>
      <trkpt lat="48.64285" lon="-2.37008">
        <ele>45.7</ele>
        <time>2021-07-27T15:35:47Z</time>
      </trkpt>
      <trkpt lat="48.64279" lon="-2.37016">
        <ele>45.5</ele>
        <time>2021-07-27T15:35:48Z</time>
      </trkpt>
      <trkpt lat="48.64268" lon="-2.3703">
        <ele>45.3</ele>
        <time>2021-07-27T15:35:50Z</time>
      </trkpt>
      <trkpt lat="48.64257" lon="-2.37044">
        <ele>45.5</ele>
        <time>2021-07-27T15:35:52Z</time>
      </trkpt>
      <trkpt lat="48.64253" lon="-2.37051">
        <ele>45.6</ele>
        <time>2021-07-27T15:35:53Z</time>
      </trkpt>
      <trkpt lat="48.64243" lon="-2.37064">
        <ele>46</ele>
        <time>2021-07-27T15:35:55Z</time>
      </trkpt>
      <trkpt lat="48.64239" lon="-2.3707">
        <ele>46.2</ele>
        <time>2021-07-27T15:35:56Z</time>
      </trkpt>
      <trkpt lat="48.64234" lon="-2.37076">
        <ele>46.4</ele>
        <time>2021-07-27T15:35:57Z</time>
      </trkpt>
      <trkpt lat="48.6423" lon="-2.37082">
        <ele>46.6</ele>
        <time>2021-07-27T15:35:58Z</time>
      </trkpt>
      <trkpt lat="48.64225" lon="-2.37088">
        <ele>46.9</ele>
        <time>2021-07-27T15:35:59Z</time>
      </trkpt>
      <trkpt lat="48.64216" lon="-2.371">
        <ele>47.3</ele>
        <time>2021-07-27T15:36:01Z</time>
      </trkpt>
      <trkpt lat="48.64212" lon="-2.37106">
        <ele>47.4</ele>
        <time>2021-07-27T15:36:02Z</time>
      </trkpt>
      <trkpt lat="48.64204" lon="-2.37118">
        <ele>47.7</ele>
        <time>2021-07-27T15:36:04Z</time>
      </trkpt>
      <trkpt lat="48.64195" lon="-2.37131">
        <ele>48</ele>
        <time>2021-07-27T15:36:06Z</time>
      </trkpt>
      <trkpt lat="48.64186" lon="-2.37143">
        <ele>48.3</ele>
        <time>2021-07-27T15:36:08Z</time>
      </trkpt>
      <trkpt lat="48.64178" lon="-2.37155">
        <ele>48.5</ele>
        <time>2021-07-27T15:36:10Z</time>
      </trkpt>
      <trkpt lat="48.64169" lon="-2.37167">
        <ele>48.7</ele>
        <time>2021-07-27T15:36:12Z</time>
      </trkpt>
      <trkpt lat="48.64164" lon="-2.37173">
        <ele>48.8</ele>
        <time>2021-07-27T15:36:13Z</time>
      </trkpt>
      <trkpt lat="48.6416" lon="-2.37179">
        <ele>48.9</ele>
        <time>2021-07-27T15:36:14Z</time>
      </trkpt>
      <trkpt lat="48.64155" lon="-2.37186">
        <ele>49</ele>
        <time>2021-07-27T15:36:15Z</time>
      </trkpt>
      <trkpt lat="48.64147" lon="-2.37198">
        <ele>49.1</ele>
        <time>2021-07-27T15:36:17Z</time>
      </trkpt>
      <trkpt lat="48.64139" lon="-2.3721">
        <ele>49.3</ele>
        <time>2021-07-27T15:36:19Z</time>
      </trkpt>
      <trkpt lat="48.6413" lon="-2.37222">
        <ele>49.5</ele>
        <time>2021-07-27T15:36:21Z</time>
      </trkpt>
      <trkpt lat="48.64122" lon="-2.37234">
        <ele>49.6</ele>
        <time>2021-07-27T15:36:23Z</time>
      </trkpt>
      <trkpt lat="48.64118" lon="-2.3724">
        <ele>49.6</ele>
        <time>2021-07-27T15:36:24Z</time>
      </trkpt>
      <trkpt lat="48.64113" lon="-2.37246">
        <ele>49.6</ele>
        <time>2021-07-27T15:36:25Z</time>
      </trkpt>
      <trkpt lat="48.64104" lon="-2.3726">
        <ele>49.4</ele>
        <time>2021-07-27T15:36:27Z</time>
      </trkpt>
      <trkpt lat="48.641" lon="-2.37267">
        <ele>49.2</ele>
        <time>2021-07-27T15:36:28Z</time>
      </trkpt>
      <trkpt lat="48.64096" lon="-2.37274">
        <ele>49.1</ele>
        <time>2021-07-27T15:36:29Z</time>
      </trkpt>
      <trkpt lat="48.64088" lon="-2.37288">
        <ele>48.9</ele>
        <time>2021-07-27T15:36:31Z</time>
      </trkpt>
      <trkpt lat="48.64084" lon="-2.37296">
        <ele>48.8</ele>
        <time>2021-07-27T15:36:32Z</time>
      </trkpt>
      <trkpt lat="48.64076" lon="-2.37312">
        <ele>48.7</ele>
        <time>2021-07-27T15:36:34Z</time>
      </trkpt>
      <trkpt lat="48.64073" lon="-2.3732">
        <ele>48.6</ele>
        <time>2021-07-27T15:36:35Z</time>
      </trkpt>
      <trkpt lat="48.64069" lon="-2.37328">
        <ele>48.6</ele>
        <time>2021-07-27T15:36:36Z</time>
      </trkpt>
      <trkpt lat="48.64061" lon="-2.37344">
        <ele>48.5</ele>
        <time>2021-07-27T15:36:38Z</time>
      </trkpt>
      <trkpt lat="48.64057" lon="-2.37352">
        <ele>48.4</ele>
        <time>2021-07-27T15:36:39Z</time>
      </trkpt>
      <trkpt lat="48.64049" lon="-2.37368">
        <ele>48.4</ele>
        <time>2021-07-27T15:36:41Z</time>
      </trkpt>
      <trkpt lat="48.64041" lon="-2.37382">
        <ele>48.4</ele>
        <time>2021-07-27T15:36:43Z</time>
      </trkpt>
      <trkpt lat="48.64033" lon="-2.37397">
        <ele>48.4</ele>
        <time>2021-07-27T15:36:45Z</time>
      </trkpt>
      <trkpt lat="48.64029" lon="-2.37404">
        <ele>48.4</ele>
        <time>2021-07-27T15:36:46Z</time>
      </trkpt>
      <trkpt lat="48.6402" lon="-2.37418">
        <ele>48.5</ele>
        <time>2021-07-27T15:36:48Z</time>
      </trkpt>
      <trkpt lat="48.64011" lon="-2.37431">
        <ele>48.7</ele>
        <time>2021-07-27T15:36:50Z</time>
      </trkpt>
      <trkpt lat="48.64007" lon="-2.37438">
        <ele>48.7</ele>
        <time>2021-07-27T15:36:51Z</time>
      </trkpt>
      <trkpt lat="48.63998" lon="-2.3745">
        <ele>48.9</ele>
        <time>2021-07-27T15:36:53Z</time>
      </trkpt>
      <trkpt lat="48.63994" lon="-2.37456">
        <ele>49</ele>
        <time>2021-07-27T15:36:54Z</time>
      </trkpt>
      <trkpt lat="48.63985" lon="-2.37468">
        <ele>49.2</ele>
        <time>2021-07-27T15:36:56Z</time>
      </trkpt>
      <trkpt lat="48.63981" lon="-2.37474">
        <ele>49.4</ele>
        <time>2021-07-27T15:36:57Z</time>
      </trkpt>
      <trkpt lat="48.63973" lon="-2.37485">
        <ele>49.6</ele>
        <time>2021-07-27T15:36:59Z</time>
      </trkpt>
      <trkpt lat="48.63969" lon="-2.3749">
        <ele>49.7</ele>
        <time>2021-07-27T15:37:00Z</time>
      </trkpt>
      <trkpt lat="48.63963" lon="-2.37501">
        <ele>49.9</ele>
        <time>2021-07-27T15:37:02Z</time>
      </trkpt>
      <trkpt lat="48.6396" lon="-2.37506">
        <ele>49.9</ele>
        <time>2021-07-27T15:37:03Z</time>
      </trkpt>
      <trkpt lat="48.63954" lon="-2.37518">
        <ele>49.8</ele>
        <time>2021-07-27T15:37:05Z</time>
      </trkpt>
      <trkpt lat="48.63948" lon="-2.37532">
        <ele>49.7</ele>
        <time>2021-07-27T15:37:07Z</time>
      </trkpt>
      <trkpt lat="48.63944" lon="-2.37543">
        <ele>49.7</ele>
        <time>2021-07-27T15:37:09Z</time>
      </trkpt>
      <trkpt lat="48.63941" lon="-2.37547">
        <ele>49.7</ele>
        <time>2021-07-27T15:37:10Z</time>
      </trkpt>
      <trkpt lat="48.63937" lon="-2.37556">
        <ele>49.7</ele>
        <time>2021-07-27T15:37:12Z</time>
      </trkpt>
      <trkpt lat="48.63935" lon="-2.37561">
        <ele>49.6</ele>
        <time>2021-07-27T15:37:13Z</time>
      </trkpt>
      <trkpt lat="48.63934" lon="-2.37563">
        <ele>49.6</ele>
        <time>2021-07-27T15:37:14Z</time>
      </trkpt>
      <trkpt lat="48.63929" lon="-2.37568">
        <ele>49.6</ele>
        <time>2021-07-27T15:37:16Z</time>
      </trkpt>
      <trkpt lat="48.63926" lon="-2.37572">
        <ele>49.6</ele>
        <time>2021-07-27T15:37:17Z</time>
      </trkpt>
      <trkpt lat="48.63927" lon="-2.37578">
        <ele>49.6</ele>
        <time>2021-07-27T15:37:19Z</time>
      </trkpt>
      <trkpt lat="48.63922" lon="-2.37589">
        <ele>49.6</ele>
        <time>2021-07-27T15:37:20Z</time>
      </trkpt>
      <trkpt lat="48.63918" lon="-2.37597">
        <ele>49.6</ele>
        <time>2021-07-27T15:37:21Z</time>
      </trkpt>
      <trkpt lat="48.63912" lon="-2.37613">
        <ele>49.7</ele>
        <time>2021-07-27T15:37:23Z</time>
      </trkpt>
      <trkpt lat="48.63909" lon="-2.37621">
        <ele>49.7</ele>
        <time>2021-07-27T15:37:24Z</time>
      </trkpt>
      <trkpt lat="48.63905" lon="-2.37635">
        <ele>49.7</ele>
        <time>2021-07-27T15:37:26Z</time>
      </trkpt>
      <trkpt lat="48.639" lon="-2.37651">
        <ele>49.8</ele>
        <time>2021-07-27T15:37:28Z</time>
      </trkpt>
      <trkpt lat="48.63894" lon="-2.37666">
        <ele>49.9</ele>
        <time>2021-07-27T15:37:30Z</time>
      </trkpt>
      <trkpt lat="48.63889" lon="-2.37681">
        <ele>50</ele>
        <time>2021-07-27T15:37:32Z</time>
      </trkpt>
      <trkpt lat="48.63884" lon="-2.37694">
        <ele>50.1</ele>
        <time>2021-07-27T15:37:34Z</time>
      </trkpt>
      <trkpt lat="48.63879" lon="-2.37708">
        <ele>50.1</ele>
        <time>2021-07-27T15:37:36Z</time>
      </trkpt>
      <trkpt lat="48.63874" lon="-2.37723">
        <ele>50.2</ele>
        <time>2021-07-27T15:37:38Z</time>
      </trkpt>
      <trkpt lat="48.63868" lon="-2.37736">
        <ele>50.2</ele>
        <time>2021-07-27T15:37:40Z</time>
      </trkpt>
      <trkpt lat="48.63861" lon="-2.37749">
        <ele>50.3</ele>
        <time>2021-07-27T15:37:42Z</time>
      </trkpt>
      <trkpt lat="48.63853" lon="-2.37762">
        <ele>50.5</ele>
        <time>2021-07-27T15:37:44Z</time>
      </trkpt>
      <trkpt lat="48.63849" lon="-2.37768">
        <ele>50.6</ele>
        <time>2021-07-27T15:37:45Z</time>
      </trkpt>
      <trkpt lat="48.63845" lon="-2.37774">
        <ele>50.7</ele>
        <time>2021-07-27T15:37:46Z</time>
      </trkpt>
      <trkpt lat="48.63839" lon="-2.37786">
        <ele>50.9</ele>
        <time>2021-07-27T15:37:48Z</time>
      </trkpt>
      <trkpt lat="48.63835" lon="-2.37792">
        <ele>51</ele>
        <time>2021-07-27T15:37:49Z</time>
      </trkpt>
      <trkpt lat="48.63831" lon="-2.37797">
        <ele>51.1</ele>
        <time>2021-07-27T15:37:50Z</time>
      </trkpt>
      <trkpt lat="48.63828" lon="-2.37803">
        <ele>51.2</ele>
        <time>2021-07-27T15:37:51Z</time>
      </trkpt>
      <trkpt lat="48.63824" lon="-2.37808">
        <ele>51.3</ele>
        <time>2021-07-27T15:37:52Z</time>
      </trkpt>
      <trkpt lat="48.6382" lon="-2.37814">
        <ele>51.4</ele>
        <time>2021-07-27T15:37:53Z</time>
      </trkpt>
      <trkpt lat="48.63812" lon="-2.37824">
        <ele>51.5</ele>
        <time>2021-07-27T15:37:55Z</time>
      </trkpt>
      <trkpt lat="48.63805" lon="-2.37835">
        <ele>51.6</ele>
        <time>2021-07-27T15:37:57Z</time>
      </trkpt>
      <trkpt lat="48.63803" lon="-2.37841">
        <ele>51.6</ele>
        <time>2021-07-27T15:37:58Z</time>
      </trkpt>
      <trkpt lat="48.638" lon="-2.37847">
        <ele>51.7</ele>
        <time>2021-07-27T15:37:59Z</time>
      </trkpt>
      <trkpt lat="48.63797" lon="-2.37854">
        <ele>51.7</ele>
        <time>2021-07-27T15:38:00Z</time>
      </trkpt>
      <trkpt lat="48.63794" lon="-2.3786">
        <ele>51.7</ele>
        <time>2021-07-27T15:38:01Z</time>
      </trkpt>
      <trkpt lat="48.63788" lon="-2.37874">
        <ele>51.7</ele>
        <time>2021-07-27T15:38:03Z</time>
      </trkpt>
      <trkpt lat="48.63785" lon="-2.37881">
        <ele>51.7</ele>
        <time>2021-07-27T15:38:04Z</time>
      </trkpt>
      <trkpt lat="48.63779" lon="-2.37894">
        <ele>51.8</ele>
        <time>2021-07-27T15:38:06Z</time>
      </trkpt>
      <trkpt lat="48.63776" lon="-2.37901">
        <ele>51.9</ele>
        <time>2021-07-27T15:38:07Z</time>
      </trkpt>
      <trkpt lat="48.63769" lon="-2.37915">
        <ele>51.9</ele>
        <time>2021-07-27T15:38:09Z</time>
      </trkpt>
      <trkpt lat="48.63762" lon="-2.37929">
        <ele>52</ele>
        <time>2021-07-27T15:38:11Z</time>
      </trkpt>
      <trkpt lat="48.63755" lon="-2.37942">
        <ele>52.1</ele>
        <time>2021-07-27T15:38:13Z</time>
      </trkpt>
      <trkpt lat="48.63748" lon="-2.37956">
        <ele>52.1</ele>
        <time>2021-07-27T15:38:15Z</time>
      </trkpt>
      <trkpt lat="48.63743" lon="-2.3797">
        <ele>52.1</ele>
        <time>2021-07-27T15:38:17Z</time>
      </trkpt>
      <trkpt lat="48.6374" lon="-2.37977">
        <ele>52.2</ele>
        <time>2021-07-27T15:38:18Z</time>
      </trkpt>
      <trkpt lat="48.63736" lon="-2.37992">
        <ele>52.3</ele>
        <time>2021-07-27T15:38:20Z</time>
      </trkpt>
      <trkpt lat="48.63734" lon="-2.38">
        <ele>52.3</ele>
        <time>2021-07-27T15:38:21Z</time>
      </trkpt>
      <trkpt lat="48.63732" lon="-2.38007">
        <ele>52.4</ele>
        <time>2021-07-27T15:38:22Z</time>
      </trkpt>
      <trkpt lat="48.63731" lon="-2.38015">
        <ele>52.4</ele>
        <time>2021-07-27T15:38:23Z</time>
      </trkpt>
      <trkpt lat="48.6373" lon="-2.38032">
        <ele>52.3</ele>
        <time>2021-07-27T15:38:25Z</time>
      </trkpt>
      <trkpt lat="48.63729" lon="-2.38051">
        <ele>52.2</ele>
        <time>2021-07-27T15:38:27Z</time>
      </trkpt>
      <trkpt lat="48.63729" lon="-2.38068">
        <ele>52.1</ele>
        <time>2021-07-27T15:38:29Z</time>
      </trkpt>
      <trkpt lat="48.63728" lon="-2.38085">
        <ele>52</ele>
        <time>2021-07-27T15:38:31Z</time>
      </trkpt>
      <trkpt lat="48.63725" lon="-2.38104">
        <ele>51.9</ele>
        <time>2021-07-27T15:38:33Z</time>
      </trkpt>
      <trkpt lat="48.63724" lon="-2.38112">
        <ele>51.9</ele>
        <time>2021-07-27T15:38:34Z</time>
      </trkpt>
      <trkpt lat="48.63721" lon="-2.3813">
        <ele>51.9</ele>
        <time>2021-07-27T15:38:36Z</time>
      </trkpt>
      <trkpt lat="48.63718" lon="-2.38147">
        <ele>51.9</ele>
        <time>2021-07-27T15:38:38Z</time>
      </trkpt>
      <trkpt lat="48.63717" lon="-2.38156">
        <ele>51.9</ele>
        <time>2021-07-27T15:38:39Z</time>
      </trkpt>
      <trkpt lat="48.63716" lon="-2.38165">
        <ele>51.8</ele>
        <time>2021-07-27T15:38:40Z</time>
      </trkpt>
      <trkpt lat="48.63714" lon="-2.38183">
        <ele>51.7</ele>
        <time>2021-07-27T15:38:42Z</time>
      </trkpt>
      <trkpt lat="48.63712" lon="-2.38202">
        <ele>51.5</ele>
        <time>2021-07-27T15:38:44Z</time>
      </trkpt>
      <trkpt lat="48.63711" lon="-2.38212">
        <ele>51.4</ele>
        <time>2021-07-27T15:38:45Z</time>
      </trkpt>
      <trkpt lat="48.63708" lon="-2.38232">
        <ele>51.3</ele>
        <time>2021-07-27T15:38:47Z</time>
      </trkpt>
      <trkpt lat="48.63707" lon="-2.38241">
        <ele>51.4</ele>
        <time>2021-07-27T15:38:48Z</time>
      </trkpt>
      <trkpt lat="48.63706" lon="-2.38251">
        <ele>51.4</ele>
        <time>2021-07-27T15:38:49Z</time>
      </trkpt>
      <trkpt lat="48.63704" lon="-2.38269">
        <ele>51.6</ele>
        <time>2021-07-27T15:38:51Z</time>
      </trkpt>
      <trkpt lat="48.63701" lon="-2.38286">
        <ele>51.8</ele>
        <time>2021-07-27T15:38:53Z</time>
      </trkpt>
      <trkpt lat="48.63699" lon="-2.38303">
        <ele>52.1</ele>
        <time>2021-07-27T15:38:55Z</time>
      </trkpt>
      <trkpt lat="48.63696" lon="-2.38319">
        <ele>52.3</ele>
        <time>2021-07-27T15:38:57Z</time>
      </trkpt>
      <trkpt lat="48.63693" lon="-2.38334">
        <ele>52.4</ele>
        <time>2021-07-27T15:38:59Z</time>
      </trkpt>
      <trkpt lat="48.63691" lon="-2.38342">
        <ele>52.4</ele>
        <time>2021-07-27T15:39:00Z</time>
      </trkpt>
      <trkpt lat="48.63686" lon="-2.38358">
        <ele>52.2</ele>
        <time>2021-07-27T15:39:02Z</time>
      </trkpt>
      <trkpt lat="48.63681" lon="-2.38374">
        <ele>52</ele>
        <time>2021-07-27T15:39:04Z</time>
      </trkpt>
      <trkpt lat="48.63676" lon="-2.3839">
        <ele>51.9</ele>
        <time>2021-07-27T15:39:06Z</time>
      </trkpt>
      <trkpt lat="48.63674" lon="-2.38398">
        <ele>51.9</ele>
        <time>2021-07-27T15:39:07Z</time>
      </trkpt>
      <trkpt lat="48.63669" lon="-2.38413">
        <ele>52</ele>
        <time>2021-07-27T15:39:09Z</time>
      </trkpt>
      <trkpt lat="48.63666" lon="-2.3842">
        <ele>52</ele>
        <time>2021-07-27T15:39:10Z</time>
      </trkpt>
      <trkpt lat="48.63656" lon="-2.38426">
        <ele>52</ele>
        <time>2021-07-27T15:39:12Z</time>
      </trkpt>
      <trkpt lat="48.63646" lon="-2.38421">
        <ele>51.9</ele>
        <time>2021-07-27T15:39:14Z</time>
      </trkpt>
      <trkpt lat="48.63641" lon="-2.38417">
        <ele>51.9</ele>
        <time>2021-07-27T15:39:15Z</time>
      </trkpt>
      <trkpt lat="48.63631" lon="-2.38409">
        <ele>51.8</ele>
        <time>2021-07-27T15:39:17Z</time>
      </trkpt>
      <trkpt lat="48.6362" lon="-2.38403">
        <ele>51.7</ele>
        <time>2021-07-27T15:39:19Z</time>
      </trkpt>
      <trkpt lat="48.63615" lon="-2.384">
        <ele>51.7</ele>
        <time>2021-07-27T15:39:20Z</time>
      </trkpt>
      <trkpt lat="48.63603" lon="-2.38392">
        <ele>51.7</ele>
        <time>2021-07-27T15:39:22Z</time>
      </trkpt>
      <trkpt lat="48.63598" lon="-2.3839">
        <ele>51.7</ele>
        <time>2021-07-27T15:39:23Z</time>
      </trkpt>
      <trkpt lat="48.63587" lon="-2.38384">
        <ele>51.7</ele>
        <time>2021-07-27T15:39:25Z</time>
      </trkpt>
      <trkpt lat="48.63581" lon="-2.3838">
        <ele>51.6</ele>
        <time>2021-07-27T15:39:26Z</time>
      </trkpt>
      <trkpt lat="48.63569" lon="-2.38375">
        <ele>51.5</ele>
        <time>2021-07-27T15:39:28Z</time>
      </trkpt>
      <trkpt lat="48.63564" lon="-2.38372">
        <ele>51.5</ele>
        <time>2021-07-27T15:39:29Z</time>
      </trkpt>
      <trkpt lat="48.63552" lon="-2.38367">
        <ele>51.4</ele>
        <time>2021-07-27T15:39:31Z</time>
      </trkpt>
      <trkpt lat="48.63541" lon="-2.38363">
        <ele>51.4</ele>
        <time>2021-07-27T15:39:33Z</time>
      </trkpt>
      <trkpt lat="48.63535" lon="-2.38361">
        <ele>51.4</ele>
        <time>2021-07-27T15:39:34Z</time>
      </trkpt>
      <trkpt lat="48.63524" lon="-2.38356">
        <ele>51.4</ele>
        <time>2021-07-27T15:39:36Z</time>
      </trkpt>
      <trkpt lat="48.63519" lon="-2.38354">
        <ele>51.4</ele>
        <time>2021-07-27T15:39:37Z</time>
      </trkpt>
      <trkpt lat="48.63514" lon="-2.38351">
        <ele>51.4</ele>
        <time>2021-07-27T15:39:38Z</time>
      </trkpt>
      <trkpt lat="48.63508" lon="-2.38349">
        <ele>51.3</ele>
        <time>2021-07-27T15:39:39Z</time>
      </trkpt>
      <trkpt lat="48.63502" lon="-2.38347">
        <ele>51.3</ele>
        <time>2021-07-27T15:39:40Z</time>
      </trkpt>
      <trkpt lat="48.63491" lon="-2.38343">
        <ele>51.2</ele>
        <time>2021-07-27T15:39:42Z</time>
      </trkpt>
      <trkpt lat="48.6348" lon="-2.38339">
        <ele>51.2</ele>
        <time>2021-07-27T15:39:44Z</time>
      </trkpt>
      <trkpt lat="48.63474" lon="-2.38336">
        <ele>51.2</ele>
        <time>2021-07-27T15:39:45Z</time>
      </trkpt>
      <trkpt lat="48.63462" lon="-2.38332">
        <ele>51.2</ele>
        <time>2021-07-27T15:39:47Z</time>
      </trkpt>
      <trkpt lat="48.63457" lon="-2.3833">
        <ele>51.2</ele>
        <time>2021-07-27T15:39:48Z</time>
      </trkpt>
      <trkpt lat="48.63451" lon="-2.38327">
        <ele>51.2</ele>
        <time>2021-07-27T15:39:49Z</time>
      </trkpt>
      <trkpt lat="48.63445" lon="-2.38325">
        <ele>51.3</ele>
        <time>2021-07-27T15:39:50Z</time>
      </trkpt>
      <trkpt lat="48.63439" lon="-2.38324">
        <ele>51.4</ele>
        <time>2021-07-27T15:39:51Z</time>
      </trkpt>
      <trkpt lat="48.63428" lon="-2.3832">
        <ele>51.5</ele>
        <time>2021-07-27T15:39:53Z</time>
      </trkpt>
      <trkpt lat="48.63416" lon="-2.38317">
        <ele>51.6</ele>
        <time>2021-07-27T15:39:55Z</time>
      </trkpt>
      <trkpt lat="48.63411" lon="-2.38315">
        <ele>51.6</ele>
        <time>2021-07-27T15:39:56Z</time>
      </trkpt>
      <trkpt lat="48.63405" lon="-2.38314">
        <ele>51.6</ele>
        <time>2021-07-27T15:39:57Z</time>
      </trkpt>
      <trkpt lat="48.63394" lon="-2.3831">
        <ele>51.7</ele>
        <time>2021-07-27T15:39:59Z</time>
      </trkpt>
      <trkpt lat="48.63382" lon="-2.38304">
        <ele>51.7</ele>
        <time>2021-07-27T15:40:01Z</time>
      </trkpt>
      <trkpt lat="48.63376" lon="-2.383">
        <ele>51.8</ele>
        <time>2021-07-27T15:40:02Z</time>
      </trkpt>
      <trkpt lat="48.63367" lon="-2.38293">
        <ele>51.9</ele>
        <time>2021-07-27T15:40:04Z</time>
      </trkpt>
      <trkpt lat="48.63362" lon="-2.38288">
        <ele>52</ele>
        <time>2021-07-27T15:40:05Z</time>
      </trkpt>
      <trkpt lat="48.63354" lon="-2.3828">
        <ele>52.1</ele>
        <time>2021-07-27T15:40:07Z</time>
      </trkpt>
      <trkpt lat="48.6335" lon="-2.38275">
        <ele>52.2</ele>
        <time>2021-07-27T15:40:08Z</time>
      </trkpt>
      <trkpt lat="48.63347" lon="-2.3827">
        <ele>52.2</ele>
        <time>2021-07-27T15:40:09Z</time>
      </trkpt>
      <trkpt lat="48.63338" lon="-2.38259">
        <ele>52.5</ele>
        <time>2021-07-27T15:40:11Z</time>
      </trkpt>
      <trkpt lat="48.63334" lon="-2.38255">
        <ele>52.7</ele>
        <time>2021-07-27T15:40:12Z</time>
      </trkpt>
      <trkpt lat="48.63324" lon="-2.38246">
        <ele>52.9</ele>
        <time>2021-07-27T15:40:14Z</time>
      </trkpt>
      <trkpt lat="48.6332" lon="-2.38242">
        <ele>53</ele>
        <time>2021-07-27T15:40:15Z</time>
      </trkpt>
      <trkpt lat="48.6331" lon="-2.38236">
        <ele>53.2</ele>
        <time>2021-07-27T15:40:17Z</time>
      </trkpt>
      <trkpt lat="48.63301" lon="-2.38231">
        <ele>53.3</ele>
        <time>2021-07-27T15:40:19Z</time>
      </trkpt>
      <trkpt lat="48.63291" lon="-2.38225">
        <ele>53.4</ele>
        <time>2021-07-27T15:40:21Z</time>
      </trkpt>
      <trkpt lat="48.63281" lon="-2.38218">
        <ele>53.4</ele>
        <time>2021-07-27T15:40:23Z</time>
      </trkpt>
      <trkpt lat="48.6327" lon="-2.38211">
        <ele>53.4</ele>
        <time>2021-07-27T15:40:25Z</time>
      </trkpt>
      <trkpt lat="48.63259" lon="-2.38205">
        <ele>53.5</ele>
        <time>2021-07-27T15:40:27Z</time>
      </trkpt>
      <trkpt lat="48.63254" lon="-2.38202">
        <ele>53.5</ele>
        <time>2021-07-27T15:40:28Z</time>
      </trkpt>
      <trkpt lat="48.63249" lon="-2.38198">
        <ele>53.4</ele>
        <time>2021-07-27T15:40:29Z</time>
      </trkpt>
      <trkpt lat="48.63238" lon="-2.38192">
        <ele>53.4</ele>
        <time>2021-07-27T15:40:31Z</time>
      </trkpt>
      <trkpt lat="48.63233" lon="-2.38189">
        <ele>53.4</ele>
        <time>2021-07-27T15:40:32Z</time>
      </trkpt>
      <trkpt lat="48.63228" lon="-2.38186">
        <ele>53.4</ele>
        <time>2021-07-27T15:40:33Z</time>
      </trkpt>
      <trkpt lat="48.63218" lon="-2.3818">
        <ele>53.3</ele>
        <time>2021-07-27T15:40:35Z</time>
      </trkpt>
      <trkpt lat="48.63208" lon="-2.38174">
        <ele>53.2</ele>
        <time>2021-07-27T15:40:37Z</time>
      </trkpt>
      <trkpt lat="48.63199" lon="-2.38175">
        <ele>52.7</ele>
        <time>2021-07-27T15:40:39Z</time>
      </trkpt>
      <trkpt lat="48.63194" lon="-2.38186">
        <ele>52.4</ele>
        <time>2021-07-27T15:40:41Z</time>
      </trkpt>
      <trkpt lat="48.6319" lon="-2.38201">
        <ele>52</ele>
        <time>2021-07-27T15:40:43Z</time>
      </trkpt>
      <trkpt lat="48.63188" lon="-2.38208">
        <ele>51.9</ele>
        <time>2021-07-27T15:40:44Z</time>
      </trkpt>
      <trkpt lat="48.63184" lon="-2.38224">
        <ele>51.6</ele>
        <time>2021-07-27T15:40:46Z</time>
      </trkpt>
      <trkpt lat="48.63179" lon="-2.38238">
        <ele>51.4</ele>
        <time>2021-07-27T15:40:48Z</time>
      </trkpt>
      <trkpt lat="48.63176" lon="-2.38246">
        <ele>51.4</ele>
        <time>2021-07-27T15:40:49Z</time>
      </trkpt>
      <trkpt lat="48.63173" lon="-2.3826">
        <ele>51.3</ele>
        <time>2021-07-27T15:40:51Z</time>
      </trkpt>
      <trkpt lat="48.63169" lon="-2.38274">
        <ele>51.2</ele>
        <time>2021-07-27T15:40:53Z</time>
      </trkpt>
      <trkpt lat="48.63168" lon="-2.3828">
        <ele>51.2</ele>
        <time>2021-07-27T15:40:54Z</time>
      </trkpt>
      <trkpt lat="48.63166" lon="-2.38287">
        <ele>51.2</ele>
        <time>2021-07-27T15:40:55Z</time>
      </trkpt>
      <trkpt lat="48.63165" lon="-2.38291">
        <ele>51.3</ele>
        <time>2021-07-27T15:40:56Z</time>
      </trkpt>
      <trkpt lat="48.63163" lon="-2.38298">
        <ele>51.2</ele>
        <time>2021-07-27T15:40:58Z</time>
      </trkpt>
      <trkpt lat="48.63161" lon="-2.383">
        <ele>51.2</ele>
        <time>2021-07-27T15:40:59Z</time>
      </trkpt>
      <trkpt lat="48.6316" lon="-2.38299">
        <ele>51.2</ele>
        <time>2021-07-27T15:41:00Z</time>
      </trkpt>
      <trkpt lat="48.6316" lon="-2.38297">
        <ele>51.2</ele>
        <time>2021-07-27T15:41:01Z</time>
      </trkpt>
      <trkpt lat="48.63162" lon="-2.38295">
        <ele>51.2</ele>
        <time>2021-07-27T15:41:02Z</time>
      </trkpt>
      <trkpt lat="48.63165" lon="-2.38294">
        <ele>51.2</ele>
        <time>2021-07-27T15:41:03Z</time>
      </trkpt>
      <trkpt lat="48.63166" lon="-2.38291">
        <ele>51.3</ele>
        <time>2021-07-27T15:41:04Z</time>
      </trkpt>
      <trkpt lat="48.63168" lon="-2.38287">
        <ele>51.3</ele>
        <time>2021-07-27T15:41:06Z</time>
      </trkpt>
      <trkpt lat="48.6317" lon="-2.38281">
        <ele>51.3</ele>
        <time>2021-07-27T15:41:07Z</time>
      </trkpt>
      <trkpt lat="48.63172" lon="-2.38275">
        <ele>51.3</ele>
        <time>2021-07-27T15:41:08Z</time>
      </trkpt>
      <trkpt lat="48.63174" lon="-2.38269">
        <ele>51.3</ele>
        <time>2021-07-27T15:41:09Z</time>
      </trkpt>
      <trkpt lat="48.63176" lon="-2.38261">
        <ele>51.4</ele>
        <time>2021-07-27T15:41:10Z</time>
      </trkpt>
      <trkpt lat="48.6318" lon="-2.38251">
        <ele>51.4</ele>
        <time>2021-07-27T15:41:12Z</time>
      </trkpt>
      <trkpt lat="48.63182" lon="-2.38232">
        <ele>51.6</ele>
        <time>2021-07-27T15:41:14Z</time>
      </trkpt>
      <trkpt lat="48.63184" lon="-2.38227">
        <ele>51.7</ele>
        <time>2021-07-27T15:41:15Z</time>
      </trkpt>
      <trkpt lat="48.63186" lon="-2.38221">
        <ele>51.8</ele>
        <time>2021-07-27T15:41:16Z</time>
      </trkpt>
      <trkpt lat="48.63188" lon="-2.38209">
        <ele>52</ele>
        <time>2021-07-27T15:41:18Z</time>
      </trkpt>
      <trkpt lat="48.6319" lon="-2.38204">
        <ele>52.1</ele>
        <time>2021-07-27T15:41:19Z</time>
      </trkpt>
      <trkpt lat="48.63193" lon="-2.38194">
        <ele>52.3</ele>
        <time>2021-07-27T15:41:21Z</time>
      </trkpt>
      <trkpt lat="48.63196" lon="-2.38184">
        <ele>52.5</ele>
        <time>2021-07-27T15:41:23Z</time>
      </trkpt>
      <trkpt lat="48.63198" lon="-2.38179">
        <ele>52.6</ele>
        <time>2021-07-27T15:41:24Z</time>
      </trkpt>
      <trkpt lat="48.63198" lon="-2.38174">
        <ele>52.7</ele>
        <time>2021-07-27T15:41:25Z</time>
      </trkpt>
      <trkpt lat="48.63197" lon="-2.38168">
        <ele>52.9</ele>
        <time>2021-07-27T15:41:26Z</time>
      </trkpt>
      <trkpt lat="48.63193" lon="-2.38163">
        <ele>52.7</ele>
        <time>2021-07-27T15:41:28Z</time>
      </trkpt>
      <trkpt lat="48.6319" lon="-2.3816">
        <ele>52.6</ele>
        <time>2021-07-27T15:41:29Z</time>
      </trkpt>
      <trkpt lat="48.63185" lon="-2.38159">
        <ele>52.5</ele>
        <time>2021-07-27T15:41:30Z</time>
      </trkpt>
      <trkpt lat="48.63179" lon="-2.38159">
        <ele>52.4</ele>
        <time>2021-07-27T15:41:31Z</time>
      </trkpt>
      <trkpt lat="48.63171" lon="-2.38156">
        <ele>52.2</ele>
        <time>2021-07-27T15:41:33Z</time>
      </trkpt>
      <trkpt lat="48.63162" lon="-2.38152">
        <ele>52.1</ele>
        <time>2021-07-27T15:41:35Z</time>
      </trkpt>
      <trkpt lat="48.63158" lon="-2.38148">
        <ele>52.1</ele>
        <time>2021-07-27T15:41:36Z</time>
      </trkpt>
      <trkpt lat="48.63154" lon="-2.38145">
        <ele>52.1</ele>
        <time>2021-07-27T15:41:37Z</time>
      </trkpt>
      <trkpt lat="48.63151" lon="-2.38145">
        <ele>52.1</ele>
        <time>2021-07-27T15:41:38Z</time>
      </trkpt>
      <trkpt lat="48.63143" lon="-2.38142">
        <ele>52.1</ele>
        <time>2021-07-27T15:41:40Z</time>
      </trkpt>
      <trkpt lat="48.63136" lon="-2.38135">
        <ele>52.1</ele>
        <time>2021-07-27T15:41:42Z</time>
      </trkpt>
      <trkpt lat="48.63128" lon="-2.38126">
        <ele>52.1</ele>
        <time>2021-07-27T15:41:44Z</time>
      </trkpt>
      <trkpt lat="48.63114" lon="-2.38117">
        <ele>52.1</ele>
        <time>2021-07-27T15:41:46Z</time>
      </trkpt>
      <trkpt lat="48.63111" lon="-2.38122">
        <ele>52.2</ele>
        <time>2021-07-27T15:41:48Z</time>
      </trkpt>
      <trkpt lat="48.63108" lon="-2.38119">
        <ele>52.3</ele>
        <time>2021-07-27T15:41:49Z</time>
      </trkpt>
      <trkpt lat="48.63101" lon="-2.38111">
        <ele>52.5</ele>
        <time>2021-07-27T15:41:51Z</time>
      </trkpt>
      <trkpt lat="48.63093" lon="-2.38105">
        <ele>52.7</ele>
        <time>2021-07-27T15:41:53Z</time>
      </trkpt>
      <trkpt lat="48.63084" lon="-2.38099">
        <ele>52.8</ele>
        <time>2021-07-27T15:41:55Z</time>
      </trkpt>
      <trkpt lat="48.63082" lon="-2.38096">
        <ele>52.8</ele>
        <time>2021-07-27T15:41:56Z</time>
      </trkpt>
      <trkpt lat="48.63079" lon="-2.38094">
        <ele>52.8</ele>
        <time>2021-07-27T15:41:57Z</time>
      </trkpt>
      <trkpt lat="48.63077" lon="-2.38092">
        <ele>52.8</ele>
        <time>2021-07-27T15:41:58Z</time>
      </trkpt>
      <trkpt lat="48.63072" lon="-2.3809">
        <ele>52.9</ele>
        <time>2021-07-27T15:42:00Z</time>
      </trkpt>
      <trkpt lat="48.63069" lon="-2.38088">
        <ele>52.9</ele>
        <time>2021-07-27T15:42:01Z</time>
      </trkpt>
      <trkpt lat="48.63064" lon="-2.38082">
        <ele>52.9</ele>
        <time>2021-07-27T15:42:03Z</time>
      </trkpt>
      <trkpt lat="48.63058" lon="-2.38077">
        <ele>53</ele>
        <time>2021-07-27T15:42:05Z</time>
      </trkpt>
      <trkpt lat="48.63052" lon="-2.38073">
        <ele>53</ele>
        <time>2021-07-27T15:42:07Z</time>
      </trkpt>
      <trkpt lat="48.63049" lon="-2.38071">
        <ele>53</ele>
        <time>2021-07-27T15:42:09Z</time>
      </trkpt>
      <trkpt lat="48.63045" lon="-2.38069">
        <ele>53</ele>
        <time>2021-07-27T15:42:11Z</time>
      </trkpt>
      <trkpt lat="48.63043" lon="-2.38068">
        <ele>53</ele>
        <time>2021-07-27T15:42:13Z</time>
      </trkpt>
      <trkpt lat="48.6304" lon="-2.38068">
        <ele>53</ele>
        <time>2021-07-27T15:42:15Z</time>
      </trkpt>
      <trkpt lat="48.6304" lon="-2.38067">
        <ele>53</ele>
        <time>2021-07-27T15:42:16Z</time>
      </trkpt>
      <trkpt lat="48.63039" lon="-2.38067">
        <ele>53</ele>
        <time>2021-07-27T15:42:18Z</time>
      </trkpt>
      <trkpt lat="48.63039" lon="-2.38067">
        <ele>53</ele>
        <time>2021-07-27T15:42:19Z</time>
      </trkpt>
      <trkpt lat="48.63039" lon="-2.38067">
        <ele>53</ele>
        <time>2021-07-27T15:42:21Z</time>
      </trkpt>
      <trkpt lat="48.6304" lon="-2.38067">
        <ele>53</ele>
        <time>2021-07-27T15:42:22Z</time>
      </trkpt>
      <trkpt lat="48.6304" lon="-2.38067">
        <ele>53</ele>
        <time>2021-07-27T15:42:24Z</time>
      </trkpt>
      <trkpt lat="48.6304" lon="-2.38067">
        <ele>53</ele>
        <time>2021-07-27T15:42:25Z</time>
      </trkpt>
      <trkpt lat="48.6304" lon="-2.38067">
        <ele>53</ele>
        <time>2021-07-27T15:42:26Z</time>
      </trkpt>
      <trkpt lat="48.63039" lon="-2.38062">
        <ele>53</ele>
        <time>2021-07-27T15:42:57Z</time>
      </trkpt>
      <trkpt lat="48.63036" lon="-2.3806">
        <ele>53</ele>
        <time>2021-07-27T15:42:58Z</time>
      </trkpt>
      <trkpt lat="48.63033" lon="-2.38059">
        <ele>52.9</ele>
        <time>2021-07-27T15:42:59Z</time>
      </trkpt>
      <trkpt lat="48.63028" lon="-2.38056">
        <ele>52.9</ele>
        <time>2021-07-27T15:43:00Z</time>
      </trkpt>
      <trkpt lat="48.63024" lon="-2.38054">
        <ele>52.9</ele>
        <time>2021-07-27T15:43:01Z</time>
      </trkpt>
      <trkpt lat="48.6302" lon="-2.38051">
        <ele>52.9</ele>
        <time>2021-07-27T15:43:02Z</time>
      </trkpt>
      <trkpt lat="48.63015" lon="-2.38046">
        <ele>52.9</ele>
        <time>2021-07-27T15:43:04Z</time>
      </trkpt>
      <trkpt lat="48.63008" lon="-2.38041">
        <ele>52.9</ele>
        <time>2021-07-27T15:43:05Z</time>
      </trkpt>
      <trkpt lat="48.63004" lon="-2.38038">
        <ele>52.9</ele>
        <time>2021-07-27T15:43:06Z</time>
      </trkpt>
      <trkpt lat="48.63" lon="-2.38035">
        <ele>52.9</ele>
        <time>2021-07-27T15:43:07Z</time>
      </trkpt>
      <trkpt lat="48.62991" lon="-2.38028">
        <ele>52.9</ele>
        <time>2021-07-27T15:43:09Z</time>
      </trkpt>
      <trkpt lat="48.62987" lon="-2.38024">
        <ele>52.9</ele>
        <time>2021-07-27T15:43:10Z</time>
      </trkpt>
      <trkpt lat="48.62983" lon="-2.38021">
        <ele>52.9</ele>
        <time>2021-07-27T15:43:11Z</time>
      </trkpt>
      <trkpt lat="48.62978" lon="-2.38017">
        <ele>53</ele>
        <time>2021-07-27T15:43:12Z</time>
      </trkpt>
      <trkpt lat="48.62969" lon="-2.38011">
        <ele>53</ele>
        <time>2021-07-27T15:43:14Z</time>
      </trkpt>
      <trkpt lat="48.6296" lon="-2.38005">
        <ele>53.1</ele>
        <time>2021-07-27T15:43:16Z</time>
      </trkpt>
      <trkpt lat="48.62951" lon="-2.37998">
        <ele>53.4</ele>
        <time>2021-07-27T15:43:18Z</time>
      </trkpt>
      <trkpt lat="48.62946" lon="-2.37995">
        <ele>53.5</ele>
        <time>2021-07-27T15:43:19Z</time>
      </trkpt>
      <trkpt lat="48.62937" lon="-2.37988">
        <ele>53.7</ele>
        <time>2021-07-27T15:43:21Z</time>
      </trkpt>
      <trkpt lat="48.62929" lon="-2.37978">
        <ele>53.6</ele>
        <time>2021-07-27T15:43:23Z</time>
      </trkpt>
      <trkpt lat="48.62926" lon="-2.37971">
        <ele>53.5</ele>
        <time>2021-07-27T15:43:24Z</time>
      </trkpt>
      <trkpt lat="48.62926" lon="-2.37961">
        <ele>53.4</ele>
        <time>2021-07-27T15:43:25Z</time>
      </trkpt>
      <trkpt lat="48.62927" lon="-2.37953">
        <ele>53.4</ele>
        <time>2021-07-27T15:43:26Z</time>
      </trkpt>
      <trkpt lat="48.62928" lon="-2.37945">
        <ele>53.4</ele>
        <time>2021-07-27T15:43:27Z</time>
      </trkpt>
      <trkpt lat="48.62933" lon="-2.37931">
        <ele>53.3</ele>
        <time>2021-07-27T15:43:29Z</time>
      </trkpt>
      <trkpt lat="48.62938" lon="-2.37916">
        <ele>53.2</ele>
        <time>2021-07-27T15:43:31Z</time>
      </trkpt>
      <trkpt lat="48.62939" lon="-2.37908">
        <ele>53.1</ele>
        <time>2021-07-27T15:43:32Z</time>
      </trkpt>
      <trkpt lat="48.62942" lon="-2.37901">
        <ele>53.1</ele>
        <time>2021-07-27T15:43:33Z</time>
      </trkpt>
      <trkpt lat="48.62946" lon="-2.37886">
        <ele>53.1</ele>
        <time>2021-07-27T15:43:35Z</time>
      </trkpt>
      <trkpt lat="48.62948" lon="-2.37878">
        <ele>53.2</ele>
        <time>2021-07-27T15:43:36Z</time>
      </trkpt>
      <trkpt lat="48.62953" lon="-2.37863">
        <ele>53.3</ele>
        <time>2021-07-27T15:43:38Z</time>
      </trkpt>
      <trkpt lat="48.62955" lon="-2.37855">
        <ele>53.4</ele>
        <time>2021-07-27T15:43:39Z</time>
      </trkpt>
      <trkpt lat="48.62957" lon="-2.37847">
        <ele>53.5</ele>
        <time>2021-07-27T15:43:40Z</time>
      </trkpt>
      <trkpt lat="48.62961" lon="-2.37831">
        <ele>53.6</ele>
        <time>2021-07-27T15:43:42Z</time>
      </trkpt>
      <trkpt lat="48.62963" lon="-2.37823">
        <ele>53.6</ele>
        <time>2021-07-27T15:43:43Z</time>
      </trkpt>
      <trkpt lat="48.62968" lon="-2.37807">
        <ele>53.7</ele>
        <time>2021-07-27T15:43:45Z</time>
      </trkpt>
      <trkpt lat="48.62969" lon="-2.37799">
        <ele>53.7</ele>
        <time>2021-07-27T15:43:46Z</time>
      </trkpt>
      <trkpt lat="48.62973" lon="-2.37783">
        <ele>53.8</ele>
        <time>2021-07-27T15:43:48Z</time>
      </trkpt>
      <trkpt lat="48.62975" lon="-2.37775">
        <ele>53.8</ele>
        <time>2021-07-27T15:43:49Z</time>
      </trkpt>
      <trkpt lat="48.62979" lon="-2.37759">
        <ele>53.8</ele>
        <time>2021-07-27T15:43:51Z</time>
      </trkpt>
      <trkpt lat="48.62982" lon="-2.37743">
        <ele>53.9</ele>
        <time>2021-07-27T15:43:53Z</time>
      </trkpt>
      <trkpt lat="48.62984" lon="-2.37735">
        <ele>53.9</ele>
        <time>2021-07-27T15:43:54Z</time>
      </trkpt>
      <trkpt lat="48.62988" lon="-2.37718">
        <ele>54</ele>
        <time>2021-07-27T15:43:56Z</time>
      </trkpt>
      <trkpt lat="48.6299" lon="-2.3771">
        <ele>54</ele>
        <time>2021-07-27T15:43:57Z</time>
      </trkpt>
      <trkpt lat="48.62992" lon="-2.37702">
        <ele>54.1</ele>
        <time>2021-07-27T15:43:58Z</time>
      </trkpt>
      <trkpt lat="48.62995" lon="-2.37694">
        <ele>54.1</ele>
        <time>2021-07-27T15:43:59Z</time>
      </trkpt>
      <trkpt lat="48.63001" lon="-2.37679">
        <ele>54</ele>
        <time>2021-07-27T15:44:01Z</time>
      </trkpt>
      <trkpt lat="48.63005" lon="-2.37671">
        <ele>53.9</ele>
        <time>2021-07-27T15:44:02Z</time>
      </trkpt>
      <trkpt lat="48.63009" lon="-2.37664">
        <ele>53.9</ele>
        <time>2021-07-27T15:44:03Z</time>
      </trkpt>
      <trkpt lat="48.63017" lon="-2.3765">
        <ele>53.8</ele>
        <time>2021-07-27T15:44:05Z</time>
      </trkpt>
      <trkpt lat="48.63022" lon="-2.37644">
        <ele>53.8</ele>
        <time>2021-07-27T15:44:06Z</time>
      </trkpt>
      <trkpt lat="48.6303" lon="-2.3763">
        <ele>53.8</ele>
        <time>2021-07-27T15:44:08Z</time>
      </trkpt>
      <trkpt lat="48.63034" lon="-2.37623">
        <ele>53.8</ele>
        <time>2021-07-27T15:44:09Z</time>
      </trkpt>
      <trkpt lat="48.63038" lon="-2.37617">
        <ele>53.9</ele>
        <time>2021-07-27T15:44:10Z</time>
      </trkpt>
      <trkpt lat="48.63045" lon="-2.37604">
        <ele>54</ele>
        <time>2021-07-27T15:44:12Z</time>
      </trkpt>
      <trkpt lat="48.63047" lon="-2.37589">
        <ele>54.1</ele>
        <time>2021-07-27T15:44:14Z</time>
      </trkpt>
      <trkpt lat="48.63044" lon="-2.37581">
        <ele>54</ele>
        <time>2021-07-27T15:44:15Z</time>
      </trkpt>
      <trkpt lat="48.63035" lon="-2.37569">
        <ele>54.1</ele>
        <time>2021-07-27T15:44:17Z</time>
      </trkpt>
      <trkpt lat="48.63025" lon="-2.37556">
        <ele>54.2</ele>
        <time>2021-07-27T15:44:19Z</time>
      </trkpt>
      <trkpt lat="48.63021" lon="-2.37549">
        <ele>54.2</ele>
        <time>2021-07-27T15:44:20Z</time>
      </trkpt>
      <trkpt lat="48.63013" lon="-2.37535">
        <ele>54.2</ele>
        <time>2021-07-27T15:44:22Z</time>
      </trkpt>
      <trkpt lat="48.6301" lon="-2.37528">
        <ele>54.1</ele>
        <time>2021-07-27T15:44:23Z</time>
      </trkpt>
      <trkpt lat="48.63004" lon="-2.37514">
        <ele>54.1</ele>
        <time>2021-07-27T15:44:25Z</time>
      </trkpt>
      <trkpt lat="48.63001" lon="-2.37506">
        <ele>54.2</ele>
        <time>2021-07-27T15:44:26Z</time>
      </trkpt>
      <trkpt lat="48.62997" lon="-2.37499">
        <ele>54.3</ele>
        <time>2021-07-27T15:44:27Z</time>
      </trkpt>
      <trkpt lat="48.62989" lon="-2.37485">
        <ele>54.5</ele>
        <time>2021-07-27T15:44:29Z</time>
      </trkpt>
      <trkpt lat="48.62985" lon="-2.37479">
        <ele>54.6</ele>
        <time>2021-07-27T15:44:30Z</time>
      </trkpt>
      <trkpt lat="48.62977" lon="-2.37469">
        <ele>54.8</ele>
        <time>2021-07-27T15:44:32Z</time>
      </trkpt>
      <trkpt lat="48.62972" lon="-2.37464">
        <ele>54.9</ele>
        <time>2021-07-27T15:44:33Z</time>
      </trkpt>
      <trkpt lat="48.62964" lon="-2.37455">
        <ele>55.2</ele>
        <time>2021-07-27T15:44:35Z</time>
      </trkpt>
      <trkpt lat="48.62959" lon="-2.3745">
        <ele>55.4</ele>
        <time>2021-07-27T15:44:36Z</time>
      </trkpt>
      <trkpt lat="48.62954" lon="-2.37445">
        <ele>55.6</ele>
        <time>2021-07-27T15:44:37Z</time>
      </trkpt>
      <trkpt lat="48.6295" lon="-2.3744">
        <ele>55.7</ele>
        <time>2021-07-27T15:44:38Z</time>
      </trkpt>
      <trkpt lat="48.62945" lon="-2.37435">
        <ele>55.8</ele>
        <time>2021-07-27T15:44:39Z</time>
      </trkpt>
      <trkpt lat="48.62936" lon="-2.37425">
        <ele>55.8</ele>
        <time>2021-07-27T15:44:41Z</time>
      </trkpt>
      <trkpt lat="48.62932" lon="-2.3742">
        <ele>55.9</ele>
        <time>2021-07-27T15:44:42Z</time>
      </trkpt>
      <trkpt lat="48.62928" lon="-2.37414">
        <ele>55.9</ele>
        <time>2021-07-27T15:44:43Z</time>
      </trkpt>
      <trkpt lat="48.62923" lon="-2.37399">
        <ele>56</ele>
        <time>2021-07-27T15:44:45Z</time>
      </trkpt>
      <trkpt lat="48.62923" lon="-2.37383">
        <ele>56.5</ele>
        <time>2021-07-27T15:44:47Z</time>
      </trkpt>
      <trkpt lat="48.62926" lon="-2.37366">
        <ele>56.9</ele>
        <time>2021-07-27T15:44:49Z</time>
      </trkpt>
      <trkpt lat="48.62928" lon="-2.37358">
        <ele>57.2</ele>
        <time>2021-07-27T15:44:50Z</time>
      </trkpt>
      <trkpt lat="48.62931" lon="-2.37349">
        <ele>57.4</ele>
        <time>2021-07-27T15:44:51Z</time>
      </trkpt>
      <trkpt lat="48.62936" lon="-2.37332">
        <ele>58</ele>
        <time>2021-07-27T15:44:53Z</time>
      </trkpt>
      <trkpt lat="48.62939" lon="-2.37316">
        <ele>58.6</ele>
        <time>2021-07-27T15:44:55Z</time>
      </trkpt>
      <trkpt lat="48.62943" lon="-2.373">
        <ele>59.2</ele>
        <time>2021-07-27T15:44:57Z</time>
      </trkpt>
      <trkpt lat="48.62945" lon="-2.37293">
        <ele>59.4</ele>
        <time>2021-07-27T15:44:58Z</time>
      </trkpt>
      <trkpt lat="48.62948" lon="-2.37285">
        <ele>59.4</ele>
        <time>2021-07-27T15:44:59Z</time>
      </trkpt>
      <trkpt lat="48.62952" lon="-2.37268">
        <ele>59.1</ele>
        <time>2021-07-27T15:45:01Z</time>
      </trkpt>
      <trkpt lat="48.62955" lon="-2.3726">
        <ele>59</ele>
        <time>2021-07-27T15:45:02Z</time>
      </trkpt>
      <trkpt lat="48.62959" lon="-2.37245">
        <ele>58.9</ele>
        <time>2021-07-27T15:45:04Z</time>
      </trkpt>
      <trkpt lat="48.62961" lon="-2.37238">
        <ele>58.8</ele>
        <time>2021-07-27T15:45:05Z</time>
      </trkpt>
      <trkpt lat="48.62965" lon="-2.37222">
        <ele>58.7</ele>
        <time>2021-07-27T15:45:07Z</time>
      </trkpt>
      <trkpt lat="48.62969" lon="-2.37208">
        <ele>58.8</ele>
        <time>2021-07-27T15:45:09Z</time>
      </trkpt>
      <trkpt lat="48.62971" lon="-2.372">
        <ele>59</ele>
        <time>2021-07-27T15:45:10Z</time>
      </trkpt>
      <trkpt lat="48.62973" lon="-2.37193">
        <ele>59.3</ele>
        <time>2021-07-27T15:45:11Z</time>
      </trkpt>
      <trkpt lat="48.62978" lon="-2.3718">
        <ele>59.5</ele>
        <time>2021-07-27T15:45:13Z</time>
      </trkpt>
      <trkpt lat="48.62979" lon="-2.37175">
        <ele>59.6</ele>
        <time>2021-07-27T15:45:14Z</time>
      </trkpt>
      <trkpt lat="48.62981" lon="-2.3717">
        <ele>59.6</ele>
        <time>2021-07-27T15:45:15Z</time>
      </trkpt>
      <trkpt lat="48.62982" lon="-2.37158">
        <ele>59.6</ele>
        <time>2021-07-27T15:45:17Z</time>
      </trkpt>
      <trkpt lat="48.62981" lon="-2.37152">
        <ele>59.7</ele>
        <time>2021-07-27T15:45:18Z</time>
      </trkpt>
      <trkpt lat="48.62978" lon="-2.37145">
        <ele>59.8</ele>
        <time>2021-07-27T15:45:19Z</time>
      </trkpt>
      <trkpt lat="48.62967" lon="-2.37136">
        <ele>60</ele>
        <time>2021-07-27T15:45:21Z</time>
      </trkpt>
      <trkpt lat="48.62962" lon="-2.37133">
        <ele>60.1</ele>
        <time>2021-07-27T15:45:22Z</time>
      </trkpt>
      <trkpt lat="48.62957" lon="-2.37131">
        <ele>60.1</ele>
        <time>2021-07-27T15:45:23Z</time>
      </trkpt>
      <trkpt lat="48.62948" lon="-2.37126">
        <ele>60.2</ele>
        <time>2021-07-27T15:45:25Z</time>
      </trkpt>
      <trkpt lat="48.62943" lon="-2.37123">
        <ele>60.2</ele>
        <time>2021-07-27T15:45:26Z</time>
      </trkpt>
      <trkpt lat="48.62934" lon="-2.37118">
        <ele>60.3</ele>
        <time>2021-07-27T15:45:28Z</time>
      </trkpt>
      <trkpt lat="48.62929" lon="-2.37115">
        <ele>60.3</ele>
        <time>2021-07-27T15:45:29Z</time>
      </trkpt>
      <trkpt lat="48.6292" lon="-2.3711">
        <ele>60.5</ele>
        <time>2021-07-27T15:45:31Z</time>
      </trkpt>
      <trkpt lat="48.6291" lon="-2.37106">
        <ele>60.7</ele>
        <time>2021-07-27T15:45:33Z</time>
      </trkpt>
      <trkpt lat="48.62906" lon="-2.37104">
        <ele>60.7</ele>
        <time>2021-07-27T15:45:34Z</time>
      </trkpt>
      <trkpt lat="48.62901" lon="-2.37101">
        <ele>60.9</ele>
        <time>2021-07-27T15:45:35Z</time>
      </trkpt>
      <trkpt lat="48.62892" lon="-2.37097">
        <ele>61</ele>
        <time>2021-07-27T15:45:37Z</time>
      </trkpt>
      <trkpt lat="48.62887" lon="-2.37095">
        <ele>61.1</ele>
        <time>2021-07-27T15:45:38Z</time>
      </trkpt>
      <trkpt lat="48.62876" lon="-2.37091">
        <ele>61.3</ele>
        <time>2021-07-27T15:45:40Z</time>
      </trkpt>
      <trkpt lat="48.62871" lon="-2.37089">
        <ele>61.5</ele>
        <time>2021-07-27T15:45:41Z</time>
      </trkpt>
      <trkpt lat="48.62867" lon="-2.37087">
        <ele>61.6</ele>
        <time>2021-07-27T15:45:42Z</time>
      </trkpt>
      <trkpt lat="48.62862" lon="-2.37084">
        <ele>61.7</ele>
        <time>2021-07-27T15:45:43Z</time>
      </trkpt>
      <trkpt lat="48.62857" lon="-2.37082">
        <ele>61.8</ele>
        <time>2021-07-27T15:45:44Z</time>
      </trkpt>
      <trkpt lat="48.62847" lon="-2.37078">
        <ele>62.1</ele>
        <time>2021-07-27T15:45:46Z</time>
      </trkpt>
      <trkpt lat="48.62838" lon="-2.37073">
        <ele>62.4</ele>
        <time>2021-07-27T15:45:48Z</time>
      </trkpt>
      <trkpt lat="48.62828" lon="-2.37068">
        <ele>62.7</ele>
        <time>2021-07-27T15:45:50Z</time>
      </trkpt>
      <trkpt lat="48.62823" lon="-2.37066">
        <ele>62.9</ele>
        <time>2021-07-27T15:45:51Z</time>
      </trkpt>
      <trkpt lat="48.62815" lon="-2.3706">
        <ele>63.3</ele>
        <time>2021-07-27T15:45:53Z</time>
      </trkpt>
      <trkpt lat="48.62808" lon="-2.37055">
        <ele>63.8</ele>
        <time>2021-07-27T15:45:55Z</time>
      </trkpt>
      <trkpt lat="48.62801" lon="-2.37052">
        <ele>64.2</ele>
        <time>2021-07-27T15:45:57Z</time>
      </trkpt>
      <trkpt lat="48.62794" lon="-2.37053">
        <ele>64.6</ele>
        <time>2021-07-27T15:45:59Z</time>
      </trkpt>
      <trkpt lat="48.62791" lon="-2.37055">
        <ele>64.8</ele>
        <time>2021-07-27T15:46:00Z</time>
      </trkpt>
      <trkpt lat="48.62789" lon="-2.37058">
        <ele>65.1</ele>
        <time>2021-07-27T15:46:01Z</time>
      </trkpt>
      <trkpt lat="48.62784" lon="-2.37069">
        <ele>65.1</ele>
        <time>2021-07-27T15:46:03Z</time>
      </trkpt>
      <trkpt lat="48.62783" lon="-2.37074">
        <ele>65.1</ele>
        <time>2021-07-27T15:46:04Z</time>
      </trkpt>
      <trkpt lat="48.6278" lon="-2.37088">
        <ele>65.1</ele>
        <time>2021-07-27T15:46:06Z</time>
      </trkpt>
      <trkpt lat="48.62779" lon="-2.37095">
        <ele>65</ele>
        <time>2021-07-27T15:46:07Z</time>
      </trkpt>
      <trkpt lat="48.62775" lon="-2.37109">
        <ele>64.9</ele>
        <time>2021-07-27T15:46:09Z</time>
      </trkpt>
      <trkpt lat="48.62772" lon="-2.37117">
        <ele>64.7</ele>
        <time>2021-07-27T15:46:10Z</time>
      </trkpt>
      <trkpt lat="48.62768" lon="-2.37133">
        <ele>64.5</ele>
        <time>2021-07-27T15:46:12Z</time>
      </trkpt>
      <trkpt lat="48.62765" lon="-2.37141">
        <ele>64.4</ele>
        <time>2021-07-27T15:46:13Z</time>
      </trkpt>
      <trkpt lat="48.62761" lon="-2.37149">
        <ele>64.3</ele>
        <time>2021-07-27T15:46:14Z</time>
      </trkpt>
      <trkpt lat="48.62754" lon="-2.37167">
        <ele>63.9</ele>
        <time>2021-07-27T15:46:16Z</time>
      </trkpt>
      <trkpt lat="48.62747" lon="-2.37185">
        <ele>63.5</ele>
        <time>2021-07-27T15:46:18Z</time>
      </trkpt>
      <trkpt lat="48.62739" lon="-2.37205">
        <ele>63</ele>
        <time>2021-07-27T15:46:20Z</time>
      </trkpt>
      <trkpt lat="48.62732" lon="-2.37225">
        <ele>62.5</ele>
        <time>2021-07-27T15:46:22Z</time>
      </trkpt>
      <trkpt lat="48.62725" lon="-2.37248">
        <ele>62</ele>
        <time>2021-07-27T15:46:24Z</time>
      </trkpt>
      <trkpt lat="48.62722" lon="-2.3726">
        <ele>61.8</ele>
        <time>2021-07-27T15:46:25Z</time>
      </trkpt>
      <trkpt lat="48.62718" lon="-2.37281">
        <ele>61.4</ele>
        <time>2021-07-27T15:46:27Z</time>
      </trkpt>
      <trkpt lat="48.62714" lon="-2.37304">
        <ele>61</ele>
        <time>2021-07-27T15:46:29Z</time>
      </trkpt>
      <trkpt lat="48.62711" lon="-2.37327">
        <ele>60.7</ele>
        <time>2021-07-27T15:46:31Z</time>
      </trkpt>
      <trkpt lat="48.62708" lon="-2.37349">
        <ele>60.5</ele>
        <time>2021-07-27T15:46:33Z</time>
      </trkpt>
      <trkpt lat="48.62707" lon="-2.37359">
        <ele>60.4</ele>
        <time>2021-07-27T15:46:34Z</time>
      </trkpt>
      <trkpt lat="48.62706" lon="-2.3737">
        <ele>60.3</ele>
        <time>2021-07-27T15:46:35Z</time>
      </trkpt>
      <trkpt lat="48.62703" lon="-2.37392">
        <ele>60.2</ele>
        <time>2021-07-27T15:46:37Z</time>
      </trkpt>
      <trkpt lat="48.627" lon="-2.37413">
        <ele>60.1</ele>
        <time>2021-07-27T15:46:39Z</time>
      </trkpt>
      <trkpt lat="48.62699" lon="-2.37424">
        <ele>60</ele>
        <time>2021-07-27T15:46:40Z</time>
      </trkpt>
      <trkpt lat="48.62698" lon="-2.37434">
        <ele>60</ele>
        <time>2021-07-27T15:46:41Z</time>
      </trkpt>
      <trkpt lat="48.62696" lon="-2.37455">
        <ele>59.9</ele>
        <time>2021-07-27T15:46:43Z</time>
      </trkpt>
      <trkpt lat="48.62695" lon="-2.37465">
        <ele>59.9</ele>
        <time>2021-07-27T15:46:44Z</time>
      </trkpt>
      <trkpt lat="48.62691" lon="-2.37486">
        <ele>59.8</ele>
        <time>2021-07-27T15:46:46Z</time>
      </trkpt>
      <trkpt lat="48.62686" lon="-2.37507">
        <ele>59.7</ele>
        <time>2021-07-27T15:46:48Z</time>
      </trkpt>
      <trkpt lat="48.62682" lon="-2.37528">
        <ele>59.7</ele>
        <time>2021-07-27T15:46:50Z</time>
      </trkpt>
      <trkpt lat="48.62677" lon="-2.37549">
        <ele>59.6</ele>
        <time>2021-07-27T15:46:52Z</time>
      </trkpt>
      <trkpt lat="48.62672" lon="-2.37569">
        <ele>59.5</ele>
        <time>2021-07-27T15:46:54Z</time>
      </trkpt>
      <trkpt lat="48.6267" lon="-2.3758">
        <ele>59.5</ele>
        <time>2021-07-27T15:46:55Z</time>
      </trkpt>
      <trkpt lat="48.62665" lon="-2.376">
        <ele>59.5</ele>
        <time>2021-07-27T15:46:57Z</time>
      </trkpt>
      <trkpt lat="48.62661" lon="-2.37621">
        <ele>59.5</ele>
        <time>2021-07-27T15:46:59Z</time>
      </trkpt>
      <trkpt lat="48.62656" lon="-2.37642">
        <ele>59.4</ele>
        <time>2021-07-27T15:47:01Z</time>
      </trkpt>
      <trkpt lat="48.62653" lon="-2.37652">
        <ele>59.4</ele>
        <time>2021-07-27T15:47:02Z</time>
      </trkpt>
      <trkpt lat="48.62651" lon="-2.37662">
        <ele>59.3</ele>
        <time>2021-07-27T15:47:03Z</time>
      </trkpt>
      <trkpt lat="48.62646" lon="-2.37683">
        <ele>59.3</ele>
        <time>2021-07-27T15:47:05Z</time>
      </trkpt>
      <trkpt lat="48.62643" lon="-2.37693">
        <ele>59.2</ele>
        <time>2021-07-27T15:47:06Z</time>
      </trkpt>
      <trkpt lat="48.62638" lon="-2.37714">
        <ele>59.1</ele>
        <time>2021-07-27T15:47:08Z</time>
      </trkpt>
      <trkpt lat="48.62636" lon="-2.37724">
        <ele>59.1</ele>
        <time>2021-07-27T15:47:09Z</time>
      </trkpt>
      <trkpt lat="48.62633" lon="-2.37745">
        <ele>59</ele>
        <time>2021-07-27T15:47:11Z</time>
      </trkpt>
      <trkpt lat="48.6263" lon="-2.37766">
        <ele>59</ele>
        <time>2021-07-27T15:47:13Z</time>
      </trkpt>
      <trkpt lat="48.62627" lon="-2.37787">
        <ele>58.9</ele>
        <time>2021-07-27T15:47:15Z</time>
      </trkpt>
      <trkpt lat="48.62625" lon="-2.37808">
        <ele>58.8</ele>
        <time>2021-07-27T15:47:17Z</time>
      </trkpt>
      <trkpt lat="48.62624" lon="-2.37829">
        <ele>58.6</ele>
        <time>2021-07-27T15:47:19Z</time>
      </trkpt>
      <trkpt lat="48.62622" lon="-2.3785">
        <ele>58.5</ele>
        <time>2021-07-27T15:47:21Z</time>
      </trkpt>
      <trkpt lat="48.62621" lon="-2.37861">
        <ele>58.5</ele>
        <time>2021-07-27T15:47:22Z</time>
      </trkpt>
      <trkpt lat="48.6262" lon="-2.37871">
        <ele>58.5</ele>
        <time>2021-07-27T15:47:23Z</time>
      </trkpt>
      <trkpt lat="48.6262" lon="-2.37882">
        <ele>58.4</ele>
        <time>2021-07-27T15:47:24Z</time>
      </trkpt>
      <trkpt lat="48.62618" lon="-2.37903">
        <ele>58.4</ele>
        <time>2021-07-27T15:47:26Z</time>
      </trkpt>
      <trkpt lat="48.62617" lon="-2.37914">
        <ele>58.4</ele>
        <time>2021-07-27T15:47:27Z</time>
      </trkpt>
      <trkpt lat="48.62616" lon="-2.37925">
        <ele>58.4</ele>
        <time>2021-07-27T15:47:28Z</time>
      </trkpt>
      <trkpt lat="48.62615" lon="-2.37947">
        <ele>58.3</ele>
        <time>2021-07-27T15:47:30Z</time>
      </trkpt>
      <trkpt lat="48.62616" lon="-2.37958">
        <ele>58.3</ele>
        <time>2021-07-27T15:47:31Z</time>
      </trkpt>
      <trkpt lat="48.6262" lon="-2.37968">
        <ele>58.2</ele>
        <time>2021-07-27T15:47:32Z</time>
      </trkpt>
      <trkpt lat="48.62625" lon="-2.37977">
        <ele>58.1</ele>
        <time>2021-07-27T15:47:33Z</time>
      </trkpt>
      <trkpt lat="48.62633" lon="-2.37994">
        <ele>57.8</ele>
        <time>2021-07-27T15:47:35Z</time>
      </trkpt>
      <trkpt lat="48.62636" lon="-2.38004">
        <ele>57.6</ele>
        <time>2021-07-27T15:47:36Z</time>
      </trkpt>
      <trkpt lat="48.62638" lon="-2.38014">
        <ele>57.6</ele>
        <time>2021-07-27T15:47:37Z</time>
      </trkpt>
      <trkpt lat="48.62641" lon="-2.38035">
        <ele>57.5</ele>
        <time>2021-07-27T15:47:39Z</time>
      </trkpt>
      <trkpt lat="48.62642" lon="-2.38056">
        <ele>57.4</ele>
        <time>2021-07-27T15:47:41Z</time>
      </trkpt>
      <trkpt lat="48.62644" lon="-2.38078">
        <ele>57.4</ele>
        <time>2021-07-27T15:47:43Z</time>
      </trkpt>
      <trkpt lat="48.62644" lon="-2.38089">
        <ele>57.4</ele>
        <time>2021-07-27T15:47:44Z</time>
      </trkpt>
      <trkpt lat="48.62646" lon="-2.3811">
        <ele>57.4</ele>
        <time>2021-07-27T15:47:46Z</time>
      </trkpt>
      <trkpt lat="48.62646" lon="-2.3813">
        <ele>57.5</ele>
        <time>2021-07-27T15:47:48Z</time>
      </trkpt>
      <trkpt lat="48.62647" lon="-2.3814">
        <ele>57.5</ele>
        <time>2021-07-27T15:47:49Z</time>
      </trkpt>
      <trkpt lat="48.62648" lon="-2.3816">
        <ele>57.6</ele>
        <time>2021-07-27T15:47:51Z</time>
      </trkpt>
      <trkpt lat="48.62649" lon="-2.38179">
        <ele>57.5</ele>
        <time>2021-07-27T15:47:53Z</time>
      </trkpt>
      <trkpt lat="48.62651" lon="-2.38198">
        <ele>57.4</ele>
        <time>2021-07-27T15:47:55Z</time>
      </trkpt>
      <trkpt lat="48.62652" lon="-2.38208">
        <ele>57.4</ele>
        <time>2021-07-27T15:47:56Z</time>
      </trkpt>
      <trkpt lat="48.62653" lon="-2.38228">
        <ele>57.2</ele>
        <time>2021-07-27T15:47:58Z</time>
      </trkpt>
      <trkpt lat="48.62654" lon="-2.38238">
        <ele>57.1</ele>
        <time>2021-07-27T15:47:59Z</time>
      </trkpt>
      <trkpt lat="48.62655" lon="-2.38259">
        <ele>56.8</ele>
        <time>2021-07-27T15:48:01Z</time>
      </trkpt>
      <trkpt lat="48.62656" lon="-2.38279">
        <ele>56.5</ele>
        <time>2021-07-27T15:48:03Z</time>
      </trkpt>
      <trkpt lat="48.62658" lon="-2.3829">
        <ele>56.4</ele>
        <time>2021-07-27T15:48:04Z</time>
      </trkpt>
      <trkpt lat="48.6266" lon="-2.383">
        <ele>56.3</ele>
        <time>2021-07-27T15:48:05Z</time>
      </trkpt>
      <trkpt lat="48.62661" lon="-2.3831">
        <ele>56.2</ele>
        <time>2021-07-27T15:48:06Z</time>
      </trkpt>
      <trkpt lat="48.62664" lon="-2.38332">
        <ele>56</ele>
        <time>2021-07-27T15:48:08Z</time>
      </trkpt>
      <trkpt lat="48.62665" lon="-2.38343">
        <ele>55.9</ele>
        <time>2021-07-27T15:48:09Z</time>
      </trkpt>
      <trkpt lat="48.62666" lon="-2.38364">
        <ele>55.7</ele>
        <time>2021-07-27T15:48:11Z</time>
      </trkpt>
      <trkpt lat="48.62669" lon="-2.38386">
        <ele>55.4</ele>
        <time>2021-07-27T15:48:13Z</time>
      </trkpt>
      <trkpt lat="48.6267" lon="-2.38397">
        <ele>55.3</ele>
        <time>2021-07-27T15:48:14Z</time>
      </trkpt>
      <trkpt lat="48.62672" lon="-2.38418">
        <ele>55.1</ele>
        <time>2021-07-27T15:48:16Z</time>
      </trkpt>
      <trkpt lat="48.62672" lon="-2.38429">
        <ele>55.1</ele>
        <time>2021-07-27T15:48:17Z</time>
      </trkpt>
      <trkpt lat="48.62673" lon="-2.3844">
        <ele>55</ele>
        <time>2021-07-27T15:48:18Z</time>
      </trkpt>
      <trkpt lat="48.62673" lon="-2.38451">
        <ele>55</ele>
        <time>2021-07-27T15:48:19Z</time>
      </trkpt>
      <trkpt lat="48.62672" lon="-2.38473">
        <ele>55.1</ele>
        <time>2021-07-27T15:48:21Z</time>
      </trkpt>
      <trkpt lat="48.62671" lon="-2.38484">
        <ele>55.1</ele>
        <time>2021-07-27T15:48:22Z</time>
      </trkpt>
      <trkpt lat="48.62667" lon="-2.38505">
        <ele>55.2</ele>
        <time>2021-07-27T15:48:24Z</time>
      </trkpt>
      <trkpt lat="48.62663" lon="-2.38525">
        <ele>55.4</ele>
        <time>2021-07-27T15:48:26Z</time>
      </trkpt>
      <trkpt lat="48.62659" lon="-2.38545">
        <ele>55.6</ele>
        <time>2021-07-27T15:48:28Z</time>
      </trkpt>
      <trkpt lat="48.62655" lon="-2.38563">
        <ele>55.9</ele>
        <time>2021-07-27T15:48:30Z</time>
      </trkpt>
      <trkpt lat="48.6265" lon="-2.38582">
        <ele>56.1</ele>
        <time>2021-07-27T15:48:32Z</time>
      </trkpt>
      <trkpt lat="48.62648" lon="-2.3859">
        <ele>56.1</ele>
        <time>2021-07-27T15:48:33Z</time>
      </trkpt>
      <trkpt lat="48.62645" lon="-2.38605">
        <ele>56.2</ele>
        <time>2021-07-27T15:48:35Z</time>
      </trkpt>
      <trkpt lat="48.62639" lon="-2.38621">
        <ele>56.1</ele>
        <time>2021-07-27T15:48:37Z</time>
      </trkpt>
      <trkpt lat="48.62633" lon="-2.38635">
        <ele>56.1</ele>
        <time>2021-07-27T15:48:39Z</time>
      </trkpt>
      <trkpt lat="48.6263" lon="-2.38642">
        <ele>56</ele>
        <time>2021-07-27T15:48:40Z</time>
      </trkpt>
      <trkpt lat="48.62623" lon="-2.38654">
        <ele>56</ele>
        <time>2021-07-27T15:48:42Z</time>
      </trkpt>
      <trkpt lat="48.62619" lon="-2.38668">
        <ele>55.9</ele>
        <time>2021-07-27T15:48:44Z</time>
      </trkpt>
      <trkpt lat="48.62616" lon="-2.38674">
        <ele>55.8</ele>
        <time>2021-07-27T15:48:45Z</time>
      </trkpt>
      <trkpt lat="48.62613" lon="-2.38682">
        <ele>55.8</ele>
        <time>2021-07-27T15:48:46Z</time>
      </trkpt>
      <trkpt lat="48.62606" lon="-2.38698">
        <ele>55.6</ele>
        <time>2021-07-27T15:48:48Z</time>
      </trkpt>
      <trkpt lat="48.62603" lon="-2.38706">
        <ele>55.5</ele>
        <time>2021-07-27T15:48:49Z</time>
      </trkpt>
      <trkpt lat="48.62599" lon="-2.38713">
        <ele>55.4</ele>
        <time>2021-07-27T15:48:50Z</time>
      </trkpt>
      <trkpt lat="48.62593" lon="-2.38728">
        <ele>55.1</ele>
        <time>2021-07-27T15:48:52Z</time>
      </trkpt>
      <trkpt lat="48.6259" lon="-2.38735">
        <ele>54.9</ele>
        <time>2021-07-27T15:48:53Z</time>
      </trkpt>
      <trkpt lat="48.62587" lon="-2.38743">
        <ele>54.8</ele>
        <time>2021-07-27T15:48:54Z</time>
      </trkpt>
      <trkpt lat="48.62583" lon="-2.3875">
        <ele>54.6</ele>
        <time>2021-07-27T15:48:55Z</time>
      </trkpt>
      <trkpt lat="48.62576" lon="-2.38765">
        <ele>54.2</ele>
        <time>2021-07-27T15:48:57Z</time>
      </trkpt>
      <trkpt lat="48.62569" lon="-2.3878">
        <ele>53.9</ele>
        <time>2021-07-27T15:48:59Z</time>
      </trkpt>
      <trkpt lat="48.62565" lon="-2.38788">
        <ele>53.8</ele>
        <time>2021-07-27T15:49:00Z</time>
      </trkpt>
      <trkpt lat="48.62559" lon="-2.38805">
        <ele>53.6</ele>
        <time>2021-07-27T15:49:02Z</time>
      </trkpt>
      <trkpt lat="48.62557" lon="-2.38813">
        <ele>53.5</ele>
        <time>2021-07-27T15:49:03Z</time>
      </trkpt>
      <trkpt lat="48.62555" lon="-2.38819">
        <ele>53.4</ele>
        <time>2021-07-27T15:49:04Z</time>
      </trkpt>
      <trkpt lat="48.6255" lon="-2.38836">
        <ele>53.2</ele>
        <time>2021-07-27T15:49:06Z</time>
      </trkpt>
      <trkpt lat="48.62547" lon="-2.38844">
        <ele>53.2</ele>
        <time>2021-07-27T15:49:07Z</time>
      </trkpt>
      <trkpt lat="48.62544" lon="-2.38852">
        <ele>53.1</ele>
        <time>2021-07-27T15:49:08Z</time>
      </trkpt>
      <trkpt lat="48.62539" lon="-2.38868">
        <ele>53</ele>
        <time>2021-07-27T15:49:10Z</time>
      </trkpt>
      <trkpt lat="48.62536" lon="-2.38885">
        <ele>52.9</ele>
        <time>2021-07-27T15:49:12Z</time>
      </trkpt>
      <trkpt lat="48.62531" lon="-2.38901">
        <ele>52.8</ele>
        <time>2021-07-27T15:49:14Z</time>
      </trkpt>
      <trkpt lat="48.62527" lon="-2.38917">
        <ele>52.6</ele>
        <time>2021-07-27T15:49:16Z</time>
      </trkpt>
      <trkpt lat="48.62524" lon="-2.38934">
        <ele>52.3</ele>
        <time>2021-07-27T15:49:18Z</time>
      </trkpt>
      <trkpt lat="48.62522" lon="-2.38942">
        <ele>52.2</ele>
        <time>2021-07-27T15:49:19Z</time>
      </trkpt>
      <trkpt lat="48.6252" lon="-2.38951">
        <ele>52</ele>
        <time>2021-07-27T15:49:20Z</time>
      </trkpt>
      <trkpt lat="48.62517" lon="-2.38969">
        <ele>51.7</ele>
        <time>2021-07-27T15:49:22Z</time>
      </trkpt>
      <trkpt lat="48.62515" lon="-2.38988">
        <ele>51.3</ele>
        <time>2021-07-27T15:49:24Z</time>
      </trkpt>
      <trkpt lat="48.62515" lon="-2.38996">
        <ele>51.1</ele>
        <time>2021-07-27T15:49:25Z</time>
      </trkpt>
      <trkpt lat="48.62516" lon="-2.39005">
        <ele>51</ele>
        <time>2021-07-27T15:49:26Z</time>
      </trkpt>
      <trkpt lat="48.62516" lon="-2.39023">
        <ele>50.6</ele>
        <time>2021-07-27T15:49:28Z</time>
      </trkpt>
      <trkpt lat="48.62515" lon="-2.39041">
        <ele>50.3</ele>
        <time>2021-07-27T15:49:30Z</time>
      </trkpt>
      <trkpt lat="48.62514" lon="-2.39059">
        <ele>50.1</ele>
        <time>2021-07-27T15:49:32Z</time>
      </trkpt>
      <trkpt lat="48.62514" lon="-2.39068">
        <ele>50</ele>
        <time>2021-07-27T15:49:33Z</time>
      </trkpt>
      <trkpt lat="48.62514" lon="-2.39076">
        <ele>49.9</ele>
        <time>2021-07-27T15:49:34Z</time>
      </trkpt>
      <trkpt lat="48.62514" lon="-2.39094">
        <ele>49.7</ele>
        <time>2021-07-27T15:49:36Z</time>
      </trkpt>
      <trkpt lat="48.62513" lon="-2.39111">
        <ele>49.4</ele>
        <time>2021-07-27T15:49:38Z</time>
      </trkpt>
      <trkpt lat="48.62514" lon="-2.39119">
        <ele>49.3</ele>
        <time>2021-07-27T15:49:39Z</time>
      </trkpt>
      <trkpt lat="48.62515" lon="-2.39135">
        <ele>49.1</ele>
        <time>2021-07-27T15:49:41Z</time>
      </trkpt>
      <trkpt lat="48.62517" lon="-2.39144">
        <ele>49</ele>
        <time>2021-07-27T15:49:42Z</time>
      </trkpt>
      <trkpt lat="48.62518" lon="-2.39153">
        <ele>48.8</ele>
        <time>2021-07-27T15:49:43Z</time>
      </trkpt>
      <trkpt lat="48.62519" lon="-2.39161">
        <ele>48.7</ele>
        <time>2021-07-27T15:49:44Z</time>
      </trkpt>
      <trkpt lat="48.62521" lon="-2.3918">
        <ele>48.4</ele>
        <time>2021-07-27T15:49:46Z</time>
      </trkpt>
      <trkpt lat="48.62521" lon="-2.3919">
        <ele>48.2</ele>
        <time>2021-07-27T15:49:47Z</time>
      </trkpt>
      <trkpt lat="48.6252" lon="-2.392">
        <ele>48.1</ele>
        <time>2021-07-27T15:49:48Z</time>
      </trkpt>
      <trkpt lat="48.6252" lon="-2.39216">
        <ele>47.9</ele>
        <time>2021-07-27T15:49:50Z</time>
      </trkpt>
      <trkpt lat="48.62522" lon="-2.3922">
        <ele>48.1</ele>
        <time>2021-07-27T15:49:51Z</time>
      </trkpt>
      <trkpt lat="48.6253" lon="-2.39222">
        <ele>48.4</ele>
        <time>2021-07-27T15:49:53Z</time>
      </trkpt>
      <trkpt lat="48.62537" lon="-2.39223">
        <ele>48.7</ele>
        <time>2021-07-27T15:49:55Z</time>
      </trkpt>
      <trkpt lat="48.62541" lon="-2.39224">
        <ele>48.8</ele>
        <time>2021-07-27T15:49:56Z</time>
      </trkpt>
      <trkpt lat="48.62545" lon="-2.39224">
        <ele>48.9</ele>
        <time>2021-07-27T15:49:58Z</time>
      </trkpt>
      <trkpt lat="48.62547" lon="-2.39219">
        <ele>49.1</ele>
        <time>2021-07-27T15:49:59Z</time>
      </trkpt>
      <trkpt lat="48.62552" lon="-2.39221">
        <ele>49.3</ele>
        <time>2021-07-27T15:50:01Z</time>
      </trkpt>
      <trkpt lat="48.62559" lon="-2.39226">
        <ele>49.6</ele>
        <time>2021-07-27T15:50:03Z</time>
      </trkpt>
      <trkpt lat="48.62563" lon="-2.39228">
        <ele>49.7</ele>
        <time>2021-07-27T15:50:04Z</time>
      </trkpt>
      <trkpt lat="48.62568" lon="-2.39232">
        <ele>49.9</ele>
        <time>2021-07-27T15:50:06Z</time>
      </trkpt>
      <trkpt lat="48.62573" lon="-2.3924">
        <ele>50.2</ele>
        <time>2021-07-27T15:50:08Z</time>
      </trkpt>
      <trkpt lat="48.62576" lon="-2.39242">
        <ele>50.2</ele>
        <time>2021-07-27T15:50:09Z</time>
      </trkpt>
      <trkpt lat="48.62583" lon="-2.39247">
        <ele>50.4</ele>
        <time>2021-07-27T15:50:11Z</time>
      </trkpt>
      <trkpt lat="48.6259" lon="-2.39257">
        <ele>50.5</ele>
        <time>2021-07-27T15:50:13Z</time>
      </trkpt>
      <trkpt lat="48.62596" lon="-2.39266">
        <ele>50.5</ele>
        <time>2021-07-27T15:50:14Z</time>
      </trkpt>
      <trkpt lat="48.62604" lon="-2.39275">
        <ele>50.5</ele>
        <time>2021-07-27T15:50:16Z</time>
      </trkpt>
      <trkpt lat="48.62608" lon="-2.39279">
        <ele>50.5</ele>
        <time>2021-07-27T15:50:17Z</time>
      </trkpt>
      <trkpt lat="48.62616" lon="-2.39288">
        <ele>50.5</ele>
        <time>2021-07-27T15:50:19Z</time>
      </trkpt>
      <trkpt lat="48.6262" lon="-2.39291">
        <ele>50.5</ele>
        <time>2021-07-27T15:50:20Z</time>
      </trkpt>
      <trkpt lat="48.62627" lon="-2.39299">
        <ele>50.4</ele>
        <time>2021-07-27T15:50:22Z</time>
      </trkpt>
      <trkpt lat="48.62631" lon="-2.39303">
        <ele>50.3</ele>
        <time>2021-07-27T15:50:23Z</time>
      </trkpt>
      <trkpt lat="48.62635" lon="-2.39307">
        <ele>50.3</ele>
        <time>2021-07-27T15:50:24Z</time>
      </trkpt>
      <trkpt lat="48.62645" lon="-2.39314">
        <ele>50.2</ele>
        <time>2021-07-27T15:50:26Z</time>
      </trkpt>
      <trkpt lat="48.62651" lon="-2.39318">
        <ele>50.1</ele>
        <time>2021-07-27T15:50:27Z</time>
      </trkpt>
      <trkpt lat="48.62663" lon="-2.39326">
        <ele>50.1</ele>
        <time>2021-07-27T15:50:29Z</time>
      </trkpt>
      <trkpt lat="48.62669" lon="-2.39331">
        <ele>50.2</ele>
        <time>2021-07-27T15:50:30Z</time>
      </trkpt>
      <trkpt lat="48.62675" lon="-2.39335">
        <ele>50.2</ele>
        <time>2021-07-27T15:50:31Z</time>
      </trkpt>
      <trkpt lat="48.62686" lon="-2.39344">
        <ele>50.3</ele>
        <time>2021-07-27T15:50:33Z</time>
      </trkpt>
      <trkpt lat="48.62691" lon="-2.39349">
        <ele>50.3</ele>
        <time>2021-07-27T15:50:34Z</time>
      </trkpt>
      <trkpt lat="48.62696" lon="-2.39353">
        <ele>50.4</ele>
        <time>2021-07-27T15:50:35Z</time>
      </trkpt>
      <trkpt lat="48.62702" lon="-2.39357">
        <ele>50.4</ele>
        <time>2021-07-27T15:50:36Z</time>
      </trkpt>
      <trkpt lat="48.62707" lon="-2.39361">
        <ele>50.4</ele>
        <time>2021-07-27T15:50:37Z</time>
      </trkpt>
      <trkpt lat="48.62716" lon="-2.39368">
        <ele>50.4</ele>
        <time>2021-07-27T15:50:39Z</time>
      </trkpt>
      <trkpt lat="48.62726" lon="-2.39375">
        <ele>50.4</ele>
        <time>2021-07-27T15:50:41Z</time>
      </trkpt>
      <trkpt lat="48.62731" lon="-2.39377">
        <ele>50.4</ele>
        <time>2021-07-27T15:50:42Z</time>
      </trkpt>
      <trkpt lat="48.62742" lon="-2.39382">
        <ele>50.3</ele>
        <time>2021-07-27T15:50:44Z</time>
      </trkpt>
      <trkpt lat="48.62753" lon="-2.39388">
        <ele>50.3</ele>
        <time>2021-07-27T15:50:46Z</time>
      </trkpt>
      <trkpt lat="48.62764" lon="-2.39394">
        <ele>50.2</ele>
        <time>2021-07-27T15:50:48Z</time>
      </trkpt>
      <trkpt lat="48.62774" lon="-2.394">
        <ele>50.1</ele>
        <time>2021-07-27T15:50:50Z</time>
      </trkpt>
      <trkpt lat="48.62785" lon="-2.39409">
        <ele>49.9</ele>
        <time>2021-07-27T15:50:52Z</time>
      </trkpt>
      <trkpt lat="48.6279" lon="-2.39414">
        <ele>49.8</ele>
        <time>2021-07-27T15:50:53Z</time>
      </trkpt>
      <trkpt lat="48.62802" lon="-2.39422">
        <ele>49.6</ele>
        <time>2021-07-27T15:50:55Z</time>
      </trkpt>
      <trkpt lat="48.62813" lon="-2.39431">
        <ele>49.3</ele>
        <time>2021-07-27T15:50:57Z</time>
      </trkpt>
      <trkpt lat="48.62818" lon="-2.39436">
        <ele>49.1</ele>
        <time>2021-07-27T15:50:58Z</time>
      </trkpt>
      <trkpt lat="48.62823" lon="-2.39442">
        <ele>48.9</ele>
        <time>2021-07-27T15:50:59Z</time>
      </trkpt>
      <trkpt lat="48.62828" lon="-2.39449">
        <ele>48.7</ele>
        <time>2021-07-27T15:51:00Z</time>
      </trkpt>
      <trkpt lat="48.62833" lon="-2.39456">
        <ele>48.5</ele>
        <time>2021-07-27T15:51:01Z</time>
      </trkpt>
      <trkpt lat="48.62838" lon="-2.39464">
        <ele>48.2</ele>
        <time>2021-07-27T15:51:02Z</time>
      </trkpt>
      <trkpt lat="48.62847" lon="-2.39479">
        <ele>47.7</ele>
        <time>2021-07-27T15:51:04Z</time>
      </trkpt>
      <trkpt lat="48.62855" lon="-2.39496">
        <ele>47.2</ele>
        <time>2021-07-27T15:51:06Z</time>
      </trkpt>
      <trkpt lat="48.62858" lon="-2.39505">
        <ele>47</ele>
        <time>2021-07-27T15:51:07Z</time>
      </trkpt>
      <trkpt lat="48.62862" lon="-2.39514">
        <ele>46.7</ele>
        <time>2021-07-27T15:51:08Z</time>
      </trkpt>
      <trkpt lat="48.62866" lon="-2.39523">
        <ele>46.5</ele>
        <time>2021-07-27T15:51:09Z</time>
      </trkpt>
      <trkpt lat="48.62875" lon="-2.39539">
        <ele>46.2</ele>
        <time>2021-07-27T15:51:11Z</time>
      </trkpt>
      <trkpt lat="48.62887" lon="-2.3955">
        <ele>46.1</ele>
        <time>2021-07-27T15:51:13Z</time>
      </trkpt>
      <trkpt lat="48.629" lon="-2.39554">
        <ele>45.9</ele>
        <time>2021-07-27T15:51:15Z</time>
      </trkpt>
      <trkpt lat="48.62906" lon="-2.39554">
        <ele>45.9</ele>
        <time>2021-07-27T15:51:16Z</time>
      </trkpt>
      <trkpt lat="48.62912" lon="-2.39554">
        <ele>45.8</ele>
        <time>2021-07-27T15:51:17Z</time>
      </trkpt>
      <trkpt lat="48.62924" lon="-2.39554">
        <ele>45.6</ele>
        <time>2021-07-27T15:51:19Z</time>
      </trkpt>
      <trkpt lat="48.6293" lon="-2.39555">
        <ele>45.5</ele>
        <time>2021-07-27T15:51:20Z</time>
      </trkpt>
      <trkpt lat="48.62941" lon="-2.39556">
        <ele>45.3</ele>
        <time>2021-07-27T15:51:22Z</time>
      </trkpt>
      <trkpt lat="48.62951" lon="-2.39557">
        <ele>45.1</ele>
        <time>2021-07-27T15:51:24Z</time>
      </trkpt>
      <trkpt lat="48.62957" lon="-2.39557">
        <ele>45</ele>
        <time>2021-07-27T15:51:25Z</time>
      </trkpt>
      <trkpt lat="48.62961" lon="-2.39558">
        <ele>44.9</ele>
        <time>2021-07-27T15:51:26Z</time>
      </trkpt>
      <trkpt lat="48.62972" lon="-2.39558">
        <ele>44.8</ele>
        <time>2021-07-27T15:51:28Z</time>
      </trkpt>
      <trkpt lat="48.62984" lon="-2.39553">
        <ele>44.8</ele>
        <time>2021-07-27T15:51:30Z</time>
      </trkpt>
      <trkpt lat="48.6299" lon="-2.3955">
        <ele>44.9</ele>
        <time>2021-07-27T15:51:31Z</time>
      </trkpt>
      <trkpt lat="48.63001" lon="-2.39543">
        <ele>45</ele>
        <time>2021-07-27T15:51:33Z</time>
      </trkpt>
      <trkpt lat="48.63006" lon="-2.3954">
        <ele>45</ele>
        <time>2021-07-27T15:51:34Z</time>
      </trkpt>
      <trkpt lat="48.63016" lon="-2.39532">
        <ele>45.1</ele>
        <time>2021-07-27T15:51:36Z</time>
      </trkpt>
      <trkpt lat="48.6302" lon="-2.39527">
        <ele>45.2</ele>
        <time>2021-07-27T15:51:37Z</time>
      </trkpt>
      <trkpt lat="48.6303" lon="-2.39517">
        <ele>45.3</ele>
        <time>2021-07-27T15:51:39Z</time>
      </trkpt>
      <trkpt lat="48.6304" lon="-2.39509">
        <ele>45.4</ele>
        <time>2021-07-27T15:51:41Z</time>
      </trkpt>
      <trkpt lat="48.63045" lon="-2.39504">
        <ele>45.4</ele>
        <time>2021-07-27T15:51:42Z</time>
      </trkpt>
      <trkpt lat="48.63054" lon="-2.39497">
        <ele>45.5</ele>
        <time>2021-07-27T15:51:44Z</time>
      </trkpt>
      <trkpt lat="48.63063" lon="-2.39491">
        <ele>45.6</ele>
        <time>2021-07-27T15:51:46Z</time>
      </trkpt>
      <trkpt lat="48.63068" lon="-2.39488">
        <ele>45.6</ele>
        <time>2021-07-27T15:51:47Z</time>
      </trkpt>
      <trkpt lat="48.63078" lon="-2.39485">
        <ele>45.7</ele>
        <time>2021-07-27T15:51:49Z</time>
      </trkpt>
      <trkpt lat="48.63083" lon="-2.39486">
        <ele>45.7</ele>
        <time>2021-07-27T15:51:50Z</time>
      </trkpt>
      <trkpt lat="48.63088" lon="-2.3949">
        <ele>45.7</ele>
        <time>2021-07-27T15:51:51Z</time>
      </trkpt>
      <trkpt lat="48.63099" lon="-2.395">
        <ele>45.7</ele>
        <time>2021-07-27T15:51:53Z</time>
      </trkpt>
      <trkpt lat="48.63109" lon="-2.39509">
        <ele>45.7</ele>
        <time>2021-07-27T15:51:55Z</time>
      </trkpt>
      <trkpt lat="48.63114" lon="-2.39515">
        <ele>45.7</ele>
        <time>2021-07-27T15:51:56Z</time>
      </trkpt>
      <trkpt lat="48.63124" lon="-2.39526">
        <ele>45.6</ele>
        <time>2021-07-27T15:51:58Z</time>
      </trkpt>
      <trkpt lat="48.63133" lon="-2.39537">
        <ele>45.6</ele>
        <time>2021-07-27T15:52:00Z</time>
      </trkpt>
      <trkpt lat="48.63137" lon="-2.39543">
        <ele>45.6</ele>
        <time>2021-07-27T15:52:01Z</time>
      </trkpt>
      <trkpt lat="48.63142" lon="-2.3955">
        <ele>45.6</ele>
        <time>2021-07-27T15:52:02Z</time>
      </trkpt>
      <trkpt lat="48.63147" lon="-2.39556">
        <ele>45.6</ele>
        <time>2021-07-27T15:52:03Z</time>
      </trkpt>
      <trkpt lat="48.63151" lon="-2.39562">
        <ele>45.6</ele>
        <time>2021-07-27T15:52:04Z</time>
      </trkpt>
      <trkpt lat="48.63156" lon="-2.39567">
        <ele>45.6</ele>
        <time>2021-07-27T15:52:05Z</time>
      </trkpt>
      <trkpt lat="48.63161" lon="-2.39573">
        <ele>45.6</ele>
        <time>2021-07-27T15:52:06Z</time>
      </trkpt>
      <trkpt lat="48.63171" lon="-2.39584">
        <ele>45.6</ele>
        <time>2021-07-27T15:52:08Z</time>
      </trkpt>
      <trkpt lat="48.63176" lon="-2.39589">
        <ele>45.6</ele>
        <time>2021-07-27T15:52:09Z</time>
      </trkpt>
      <trkpt lat="48.63182" lon="-2.39593">
        <ele>45.7</ele>
        <time>2021-07-27T15:52:10Z</time>
      </trkpt>
      <trkpt lat="48.63188" lon="-2.39596">
        <ele>45.7</ele>
        <time>2021-07-27T15:52:11Z</time>
      </trkpt>
      <trkpt lat="48.63194" lon="-2.39599">
        <ele>45.8</ele>
        <time>2021-07-27T15:52:12Z</time>
      </trkpt>
      <trkpt lat="48.632" lon="-2.39601">
        <ele>45.8</ele>
        <time>2021-07-27T15:52:13Z</time>
      </trkpt>
      <trkpt lat="48.63212" lon="-2.39605">
        <ele>45.9</ele>
        <time>2021-07-27T15:52:15Z</time>
      </trkpt>
      <trkpt lat="48.63217" lon="-2.39607">
        <ele>45.9</ele>
        <time>2021-07-27T15:52:16Z</time>
      </trkpt>
      <trkpt lat="48.63228" lon="-2.3961">
        <ele>46</ele>
        <time>2021-07-27T15:52:18Z</time>
      </trkpt>
      <trkpt lat="48.63234" lon="-2.39612">
        <ele>46.1</ele>
        <time>2021-07-27T15:52:19Z</time>
      </trkpt>
      <trkpt lat="48.63239" lon="-2.39614">
        <ele>46.2</ele>
        <time>2021-07-27T15:52:20Z</time>
      </trkpt>
      <trkpt lat="48.63248" lon="-2.39617">
        <ele>46.3</ele>
        <time>2021-07-27T15:52:22Z</time>
      </trkpt>
      <trkpt lat="48.63255" lon="-2.3962">
        <ele>46.4</ele>
        <time>2021-07-27T15:52:24Z</time>
      </trkpt>
      <trkpt lat="48.63261" lon="-2.39624">
        <ele>46.4</ele>
        <time>2021-07-27T15:52:26Z</time>
      </trkpt>
      <trkpt lat="48.63264" lon="-2.39626">
        <ele>46.5</ele>
        <time>2021-07-27T15:52:27Z</time>
      </trkpt>
      <trkpt lat="48.63267" lon="-2.39628">
        <ele>46.5</ele>
        <time>2021-07-27T15:52:28Z</time>
      </trkpt>
      <trkpt lat="48.6327" lon="-2.3963">
        <ele>46.5</ele>
        <time>2021-07-27T15:52:30Z</time>
      </trkpt>
      <trkpt lat="48.63273" lon="-2.39633">
        <ele>46.4</ele>
        <time>2021-07-27T15:52:31Z</time>
      </trkpt>
      <trkpt lat="48.63277" lon="-2.39635">
        <ele>46.4</ele>
        <time>2021-07-27T15:52:33Z</time>
      </trkpt>
      <trkpt lat="48.63275" lon="-2.39637">
        <ele>46.4</ele>
        <time>2021-07-27T15:52:34Z</time>
      </trkpt>
      <trkpt lat="48.63273" lon="-2.39637">
        <ele>46.4</ele>
        <time>2021-07-27T15:52:35Z</time>
      </trkpt>
      <trkpt lat="48.63269" lon="-2.39632">
        <ele>46.4</ele>
        <time>2021-07-27T15:52:37Z</time>
      </trkpt>
      <trkpt lat="48.63262" lon="-2.39626">
        <ele>46.3</ele>
        <time>2021-07-27T15:52:39Z</time>
      </trkpt>
      <trkpt lat="48.63258" lon="-2.39623">
        <ele>46.3</ele>
        <time>2021-07-27T15:52:40Z</time>
      </trkpt>
      <trkpt lat="48.63254" lon="-2.3962">
        <ele>46.2</ele>
        <time>2021-07-27T15:52:41Z</time>
      </trkpt>
      <trkpt lat="48.63245" lon="-2.39614">
        <ele>46.2</ele>
        <time>2021-07-27T15:52:43Z</time>
      </trkpt>
      <trkpt lat="48.6324" lon="-2.39611">
        <ele>46.1</ele>
        <time>2021-07-27T15:52:44Z</time>
      </trkpt>
      <trkpt lat="48.63232" lon="-2.39608">
        <ele>46</ele>
        <time>2021-07-27T15:52:46Z</time>
      </trkpt>
      <trkpt lat="48.63228" lon="-2.39606">
        <ele>46</ele>
        <time>2021-07-27T15:52:47Z</time>
      </trkpt>
      <trkpt lat="48.63217" lon="-2.39611">
        <ele>45.6</ele>
        <time>2021-07-27T15:52:49Z</time>
      </trkpt>
      <trkpt lat="48.63209" lon="-2.39624">
        <ele>44.6</ele>
        <time>2021-07-27T15:52:51Z</time>
      </trkpt>
      <trkpt lat="48.63206" lon="-2.39633">
        <ele>44</ele>
        <time>2021-07-27T15:52:52Z</time>
      </trkpt>
      <trkpt lat="48.63202" lon="-2.39641">
        <ele>43.5</ele>
        <time>2021-07-27T15:52:53Z</time>
      </trkpt>
      <trkpt lat="48.63194" lon="-2.39659">
        <ele>42.5</ele>
        <time>2021-07-27T15:52:55Z</time>
      </trkpt>
      <trkpt lat="48.63185" lon="-2.39676">
        <ele>41.8</ele>
        <time>2021-07-27T15:52:57Z</time>
      </trkpt>
      <trkpt lat="48.63176" lon="-2.39695">
        <ele>41</ele>
        <time>2021-07-27T15:52:59Z</time>
      </trkpt>
      <trkpt lat="48.63172" lon="-2.39706">
        <ele>40.5</ele>
        <time>2021-07-27T15:53:00Z</time>
      </trkpt>
      <trkpt lat="48.63168" lon="-2.39716">
        <ele>40.1</ele>
        <time>2021-07-27T15:53:01Z</time>
      </trkpt>
      <trkpt lat="48.63161" lon="-2.39737">
        <ele>39.3</ele>
        <time>2021-07-27T15:53:03Z</time>
      </trkpt>
      <trkpt lat="48.63154" lon="-2.39759">
        <ele>38.4</ele>
        <time>2021-07-27T15:53:05Z</time>
      </trkpt>
      <trkpt lat="48.63149" lon="-2.39782">
        <ele>37.9</ele>
        <time>2021-07-27T15:53:07Z</time>
      </trkpt>
      <trkpt lat="48.63143" lon="-2.39807">
        <ele>37.3</ele>
        <time>2021-07-27T15:53:09Z</time>
      </trkpt>
      <trkpt lat="48.63138" lon="-2.39831">
        <ele>37</ele>
        <time>2021-07-27T15:53:11Z</time>
      </trkpt>
      <trkpt lat="48.63136" lon="-2.39843">
        <ele>37</ele>
        <time>2021-07-27T15:53:12Z</time>
      </trkpt>
      <trkpt lat="48.63133" lon="-2.39855">
        <ele>37</ele>
        <time>2021-07-27T15:53:13Z</time>
      </trkpt>
      <trkpt lat="48.63131" lon="-2.39866">
        <ele>37</ele>
        <time>2021-07-27T15:53:14Z</time>
      </trkpt>
      <trkpt lat="48.63129" lon="-2.39879">
        <ele>36.9</ele>
        <time>2021-07-27T15:53:15Z</time>
      </trkpt>
      <trkpt lat="48.63128" lon="-2.39904">
        <ele>36.9</ele>
        <time>2021-07-27T15:53:17Z</time>
      </trkpt>
      <trkpt lat="48.63129" lon="-2.39929">
        <ele>36.4</ele>
        <time>2021-07-27T15:53:19Z</time>
      </trkpt>
      <trkpt lat="48.63131" lon="-2.39941">
        <ele>35.8</ele>
        <time>2021-07-27T15:53:20Z</time>
      </trkpt>
      <trkpt lat="48.63134" lon="-2.39952">
        <ele>35.3</ele>
        <time>2021-07-27T15:53:21Z</time>
      </trkpt>
      <trkpt lat="48.63139" lon="-2.39973">
        <ele>34.5</ele>
        <time>2021-07-27T15:53:23Z</time>
      </trkpt>
      <trkpt lat="48.63145" lon="-2.39991">
        <ele>34.2</ele>
        <time>2021-07-27T15:53:25Z</time>
      </trkpt>
      <trkpt lat="48.63151" lon="-2.40004">
        <ele>34.1</ele>
        <time>2021-07-27T15:53:27Z</time>
      </trkpt>
      <trkpt lat="48.63154" lon="-2.40009">
        <ele>34.1</ele>
        <time>2021-07-27T15:53:28Z</time>
      </trkpt>
      <trkpt lat="48.63156" lon="-2.40012">
        <ele>34.1</ele>
        <time>2021-07-27T15:53:29Z</time>
      </trkpt>
      <trkpt lat="48.63157" lon="-2.40013">
        <ele>34.1</ele>
        <time>2021-07-27T15:53:30Z</time>
      </trkpt>
      <trkpt lat="48.63158" lon="-2.40017">
        <ele>34.1</ele>
        <time>2021-07-27T15:53:31Z</time>
      </trkpt>
      <trkpt lat="48.63159" lon="-2.40022">
        <ele>34.1</ele>
        <time>2021-07-27T15:53:32Z</time>
      </trkpt>
      <trkpt lat="48.63159" lon="-2.40024">
        <ele>34</ele>
        <time>2021-07-27T15:53:33Z</time>
      </trkpt>
      <trkpt lat="48.6316" lon="-2.40028">
        <ele>33.9</ele>
        <time>2021-07-27T15:53:34Z</time>
      </trkpt>
      <trkpt lat="48.6316" lon="-2.4003">
        <ele>33.9</ele>
        <time>2021-07-27T15:53:35Z</time>
      </trkpt>
      <trkpt lat="48.63161" lon="-2.40026">
        <ele>33.7</ele>
        <time>2021-07-27T15:53:37Z</time>
      </trkpt>
      <trkpt lat="48.63163" lon="-2.40034">
        <ele>33.3</ele>
        <time>2021-07-27T15:53:39Z</time>
      </trkpt>
      <trkpt lat="48.63166" lon="-2.4004">
        <ele>33.4</ele>
        <time>2021-07-27T15:53:40Z</time>
      </trkpt>
      <trkpt lat="48.63171" lon="-2.40046">
        <ele>33.5</ele>
        <time>2021-07-27T15:53:42Z</time>
      </trkpt>
      <trkpt lat="48.63174" lon="-2.40048">
        <ele>33.6</ele>
        <time>2021-07-27T15:53:43Z</time>
      </trkpt>
      <trkpt lat="48.63177" lon="-2.40052">
        <ele>33.8</ele>
        <time>2021-07-27T15:53:44Z</time>
      </trkpt>
      <trkpt lat="48.63181" lon="-2.40055">
        <ele>33.9</ele>
        <time>2021-07-27T15:53:46Z</time>
      </trkpt>
      <trkpt lat="48.63183" lon="-2.40056">
        <ele>34.1</ele>
        <time>2021-07-27T15:53:47Z</time>
      </trkpt>
      <trkpt lat="48.63187" lon="-2.40059">
        <ele>34.3</ele>
        <time>2021-07-27T15:53:49Z</time>
      </trkpt>
      <trkpt lat="48.6319" lon="-2.40062">
        <ele>34.5</ele>
        <time>2021-07-27T15:53:50Z</time>
      </trkpt>
      <trkpt lat="48.63191" lon="-2.40063">
        <ele>34.6</ele>
        <time>2021-07-27T15:53:51Z</time>
      </trkpt>
      <trkpt lat="48.63194" lon="-2.40066">
        <ele>34.9</ele>
        <time>2021-07-27T15:53:52Z</time>
      </trkpt>
      <trkpt lat="48.63198" lon="-2.40069">
        <ele>35.2</ele>
        <time>2021-07-27T15:53:54Z</time>
      </trkpt>
      <trkpt lat="48.63202" lon="-2.40072">
        <ele>35.6</ele>
        <time>2021-07-27T15:53:55Z</time>
      </trkpt>
      <trkpt lat="48.63206" lon="-2.40075">
        <ele>36</ele>
        <time>2021-07-27T15:53:56Z</time>
      </trkpt>
      <trkpt lat="48.63209" lon="-2.40078">
        <ele>36.3</ele>
        <time>2021-07-27T15:53:57Z</time>
      </trkpt>
      <trkpt lat="48.63215" lon="-2.40083">
        <ele>36.9</ele>
        <time>2021-07-27T15:53:59Z</time>
      </trkpt>
      <trkpt lat="48.6322" lon="-2.40086">
        <ele>37.3</ele>
        <time>2021-07-27T15:54:00Z</time>
      </trkpt>
      <trkpt lat="48.63225" lon="-2.4009">
        <ele>37.6</ele>
        <time>2021-07-27T15:54:01Z</time>
      </trkpt>
      <trkpt lat="48.6323" lon="-2.40093">
        <ele>37.8</ele>
        <time>2021-07-27T15:54:03Z</time>
      </trkpt>
      <trkpt lat="48.63233" lon="-2.40096">
        <ele>38</ele>
        <time>2021-07-27T15:54:04Z</time>
      </trkpt>
      <trkpt lat="48.63238" lon="-2.401">
        <ele>38.1</ele>
        <time>2021-07-27T15:54:05Z</time>
      </trkpt>
      <trkpt lat="48.63241" lon="-2.40103">
        <ele>38.2</ele>
        <time>2021-07-27T15:54:06Z</time>
      </trkpt>
      <trkpt lat="48.63245" lon="-2.40106">
        <ele>38.2</ele>
        <time>2021-07-27T15:54:07Z</time>
      </trkpt>
      <trkpt lat="48.63255" lon="-2.40114">
        <ele>38.4</ele>
        <time>2021-07-27T15:54:09Z</time>
      </trkpt>
      <trkpt lat="48.6326" lon="-2.40117">
        <ele>38.5</ele>
        <time>2021-07-27T15:54:10Z</time>
      </trkpt>
      <trkpt lat="48.63268" lon="-2.40124">
        <ele>38.7</ele>
        <time>2021-07-27T15:54:12Z</time>
      </trkpt>
      <trkpt lat="48.63277" lon="-2.40129">
        <ele>38.7</ele>
        <time>2021-07-27T15:54:14Z</time>
      </trkpt>
      <trkpt lat="48.63286" lon="-2.40136">
        <ele>38.8</ele>
        <time>2021-07-27T15:54:16Z</time>
      </trkpt>
      <trkpt lat="48.63296" lon="-2.40144">
        <ele>38.9</ele>
        <time>2021-07-27T15:54:18Z</time>
      </trkpt>
      <trkpt lat="48.63301" lon="-2.40147">
        <ele>39</ele>
        <time>2021-07-27T15:54:19Z</time>
      </trkpt>
      <trkpt lat="48.63306" lon="-2.4015">
        <ele>39.1</ele>
        <time>2021-07-27T15:54:20Z</time>
      </trkpt>
      <trkpt lat="48.63315" lon="-2.40157">
        <ele>39.3</ele>
        <time>2021-07-27T15:54:22Z</time>
      </trkpt>
      <trkpt lat="48.63324" lon="-2.40163">
        <ele>39.4</ele>
        <time>2021-07-27T15:54:24Z</time>
      </trkpt>
      <trkpt lat="48.63333" lon="-2.40169">
        <ele>39.5</ele>
        <time>2021-07-27T15:54:26Z</time>
      </trkpt>
      <trkpt lat="48.63338" lon="-2.40172">
        <ele>39.5</ele>
        <time>2021-07-27T15:54:27Z</time>
      </trkpt>
      <trkpt lat="48.63342" lon="-2.40175">
        <ele>39.5</ele>
        <time>2021-07-27T15:54:28Z</time>
      </trkpt>
      <trkpt lat="48.63347" lon="-2.40179">
        <ele>39.4</ele>
        <time>2021-07-27T15:54:29Z</time>
      </trkpt>
      <trkpt lat="48.63352" lon="-2.40183">
        <ele>39.3</ele>
        <time>2021-07-27T15:54:30Z</time>
      </trkpt>
      <trkpt lat="48.63361" lon="-2.4019">
        <ele>39.1</ele>
        <time>2021-07-27T15:54:32Z</time>
      </trkpt>
      <trkpt lat="48.63371" lon="-2.40198">
        <ele>38.7</ele>
        <time>2021-07-27T15:54:34Z</time>
      </trkpt>
      <trkpt lat="48.63376" lon="-2.40202">
        <ele>38.5</ele>
        <time>2021-07-27T15:54:35Z</time>
      </trkpt>
      <trkpt lat="48.63381" lon="-2.40206">
        <ele>38.3</ele>
        <time>2021-07-27T15:54:36Z</time>
      </trkpt>
      <trkpt lat="48.63391" lon="-2.40215">
        <ele>38</ele>
        <time>2021-07-27T15:54:38Z</time>
      </trkpt>
      <trkpt lat="48.63396" lon="-2.40219">
        <ele>37.8</ele>
        <time>2021-07-27T15:54:39Z</time>
      </trkpt>
      <trkpt lat="48.63402" lon="-2.40224">
        <ele>37.8</ele>
        <time>2021-07-27T15:54:40Z</time>
      </trkpt>
      <trkpt lat="48.63408" lon="-2.40228">
        <ele>37.7</ele>
        <time>2021-07-27T15:54:41Z</time>
      </trkpt>
      <trkpt lat="48.6342" lon="-2.40237">
        <ele>37.7</ele>
        <time>2021-07-27T15:54:43Z</time>
      </trkpt>
      <trkpt lat="48.63431" lon="-2.40247">
        <ele>37.7</ele>
        <time>2021-07-27T15:54:45Z</time>
      </trkpt>
      <trkpt lat="48.63437" lon="-2.40253">
        <ele>37.7</ele>
        <time>2021-07-27T15:54:46Z</time>
      </trkpt>
      <trkpt lat="48.63448" lon="-2.40262">
        <ele>37.4</ele>
        <time>2021-07-27T15:54:48Z</time>
      </trkpt>
      <trkpt lat="48.63459" lon="-2.40272">
        <ele>37.1</ele>
        <time>2021-07-27T15:54:50Z</time>
      </trkpt>
      <trkpt lat="48.63465" lon="-2.40277">
        <ele>36.9</ele>
        <time>2021-07-27T15:54:51Z</time>
      </trkpt>
      <trkpt lat="48.6347" lon="-2.40281">
        <ele>36.9</ele>
        <time>2021-07-27T15:54:52Z</time>
      </trkpt>
      <trkpt lat="48.63481" lon="-2.4029">
        <ele>36.8</ele>
        <time>2021-07-27T15:54:54Z</time>
      </trkpt>
      <trkpt lat="48.63491" lon="-2.40298">
        <ele>36.6</ele>
        <time>2021-07-27T15:54:56Z</time>
      </trkpt>
      <trkpt lat="48.63496" lon="-2.40301">
        <ele>36.5</ele>
        <time>2021-07-27T15:54:57Z</time>
      </trkpt>
      <trkpt lat="48.63505" lon="-2.40308">
        <ele>36.4</ele>
        <time>2021-07-27T15:54:59Z</time>
      </trkpt>
      <trkpt lat="48.63513" lon="-2.40314">
        <ele>36.4</ele>
        <time>2021-07-27T15:55:01Z</time>
      </trkpt>
      <trkpt lat="48.6352" lon="-2.40322">
        <ele>36.6</ele>
        <time>2021-07-27T15:55:03Z</time>
      </trkpt>
      <trkpt lat="48.63526" lon="-2.40327">
        <ele>36.8</ele>
        <time>2021-07-27T15:55:05Z</time>
      </trkpt>
      <trkpt lat="48.63533" lon="-2.40333">
        <ele>36.9</ele>
        <time>2021-07-27T15:55:07Z</time>
      </trkpt>
      <trkpt lat="48.6354" lon="-2.40338">
        <ele>37.1</ele>
        <time>2021-07-27T15:55:09Z</time>
      </trkpt>
      <trkpt lat="48.63544" lon="-2.40341">
        <ele>37.2</ele>
        <time>2021-07-27T15:55:11Z</time>
      </trkpt>
      <trkpt lat="48.63548" lon="-2.40345">
        <ele>37.3</ele>
        <time>2021-07-27T15:55:12Z</time>
      </trkpt>
      <trkpt lat="48.63554" lon="-2.4035">
        <ele>37.4</ele>
        <time>2021-07-27T15:55:14Z</time>
      </trkpt>
      <trkpt lat="48.63558" lon="-2.40354">
        <ele>37.4</ele>
        <time>2021-07-27T15:55:15Z</time>
      </trkpt>
      <trkpt lat="48.63561" lon="-2.40357">
        <ele>37.5</ele>
        <time>2021-07-27T15:55:16Z</time>
      </trkpt>
      <trkpt lat="48.63564" lon="-2.4036">
        <ele>37.5</ele>
        <time>2021-07-27T15:55:17Z</time>
      </trkpt>
      <trkpt lat="48.63568" lon="-2.40364">
        <ele>37.6</ele>
        <time>2021-07-27T15:55:18Z</time>
      </trkpt>
      <trkpt lat="48.63573" lon="-2.40371">
        <ele>37.6</ele>
        <time>2021-07-27T15:55:20Z</time>
      </trkpt>
      <trkpt lat="48.63576" lon="-2.40374">
        <ele>37.5</ele>
        <time>2021-07-27T15:55:21Z</time>
      </trkpt>
      <trkpt lat="48.63583" lon="-2.40382">
        <ele>37.5</ele>
        <time>2021-07-27T15:55:23Z</time>
      </trkpt>
      <trkpt lat="48.63591" lon="-2.40391">
        <ele>37.3</ele>
        <time>2021-07-27T15:55:25Z</time>
      </trkpt>
      <trkpt lat="48.63596" lon="-2.40396">
        <ele>37.2</ele>
        <time>2021-07-27T15:55:26Z</time>
      </trkpt>
      <trkpt lat="48.63603" lon="-2.40404">
        <ele>37</ele>
        <time>2021-07-27T15:55:28Z</time>
      </trkpt>
      <trkpt lat="48.63612" lon="-2.40414">
        <ele>36.7</ele>
        <time>2021-07-27T15:55:30Z</time>
      </trkpt>
      <trkpt lat="48.63621" lon="-2.40423">
        <ele>36.4</ele>
        <time>2021-07-27T15:55:32Z</time>
      </trkpt>
      <trkpt lat="48.6363" lon="-2.40431">
        <ele>36</ele>
        <time>2021-07-27T15:55:34Z</time>
      </trkpt>
      <trkpt lat="48.63634" lon="-2.40436">
        <ele>35.8</ele>
        <time>2021-07-27T15:55:35Z</time>
      </trkpt>
      <trkpt lat="48.63641" lon="-2.40446">
        <ele>35.4</ele>
        <time>2021-07-27T15:55:37Z</time>
      </trkpt>
      <trkpt lat="48.63644" lon="-2.40451">
        <ele>35.2</ele>
        <time>2021-07-27T15:55:38Z</time>
      </trkpt>
      <trkpt lat="48.63648" lon="-2.40456">
        <ele>35</ele>
        <time>2021-07-27T15:55:39Z</time>
      </trkpt>
      <trkpt lat="48.63653" lon="-2.40462">
        <ele>34.8</ele>
        <time>2021-07-27T15:55:40Z</time>
      </trkpt>
      <trkpt lat="48.63661" lon="-2.40471">
        <ele>34.7</ele>
        <time>2021-07-27T15:55:42Z</time>
      </trkpt>
      <trkpt lat="48.63662" lon="-2.40477">
        <ele>34.7</ele>
        <time>2021-07-27T15:55:43Z</time>
      </trkpt>
      <trkpt lat="48.6366" lon="-2.4049">
        <ele>34.9</ele>
        <time>2021-07-27T15:55:45Z</time>
      </trkpt>
      <trkpt lat="48.63659" lon="-2.40497">
        <ele>35</ele>
        <time>2021-07-27T15:55:46Z</time>
      </trkpt>
      <trkpt lat="48.63655" lon="-2.40511">
        <ele>35.4</ele>
        <time>2021-07-27T15:55:48Z</time>
      </trkpt>
      <trkpt lat="48.63651" lon="-2.40524">
        <ele>35.7</ele>
        <time>2021-07-27T15:55:50Z</time>
      </trkpt>
      <trkpt lat="48.6365" lon="-2.40528">
        <ele>35.8</ele>
        <time>2021-07-27T15:55:51Z</time>
      </trkpt>
      <trkpt lat="48.6365" lon="-2.40541">
        <ele>36</ele>
        <time>2021-07-27T15:55:53Z</time>
      </trkpt>
      <trkpt lat="48.63651" lon="-2.40554">
        <ele>36.3</ele>
        <time>2021-07-27T15:55:55Z</time>
      </trkpt>
      <trkpt lat="48.63654" lon="-2.4057">
        <ele>36.5</ele>
        <time>2021-07-27T15:55:57Z</time>
      </trkpt>
      <trkpt lat="48.63657" lon="-2.40583">
        <ele>36.6</ele>
        <time>2021-07-27T15:55:59Z</time>
      </trkpt>
      <trkpt lat="48.63659" lon="-2.40597">
        <ele>36.6</ele>
        <time>2021-07-27T15:56:01Z</time>
      </trkpt>
      <trkpt lat="48.63661" lon="-2.40611">
        <ele>36.7</ele>
        <time>2021-07-27T15:56:03Z</time>
      </trkpt>
      <trkpt lat="48.63661" lon="-2.40626">
        <ele>36.6</ele>
        <time>2021-07-27T15:56:05Z</time>
      </trkpt>
      <trkpt lat="48.63658" lon="-2.40639">
        <ele>36.5</ele>
        <time>2021-07-27T15:56:07Z</time>
      </trkpt>
      <trkpt lat="48.63655" lon="-2.40645">
        <ele>36.4</ele>
        <time>2021-07-27T15:56:08Z</time>
      </trkpt>
      <trkpt lat="48.63648" lon="-2.40654">
        <ele>36.2</ele>
        <time>2021-07-27T15:56:10Z</time>
      </trkpt>
      <trkpt lat="48.63644" lon="-2.40658">
        <ele>36.1</ele>
        <time>2021-07-27T15:56:11Z</time>
      </trkpt>
      <trkpt lat="48.63634" lon="-2.40663">
        <ele>35.9</ele>
        <time>2021-07-27T15:56:13Z</time>
      </trkpt>
      <trkpt lat="48.63629" lon="-2.40665">
        <ele>35.8</ele>
        <time>2021-07-27T15:56:14Z</time>
      </trkpt>
      <trkpt lat="48.63623" lon="-2.40667">
        <ele>35.8</ele>
        <time>2021-07-27T15:56:15Z</time>
      </trkpt>
      <trkpt lat="48.63613" lon="-2.40671">
        <ele>35.7</ele>
        <time>2021-07-27T15:56:17Z</time>
      </trkpt>
      <trkpt lat="48.63602" lon="-2.40676">
        <ele>35.6</ele>
        <time>2021-07-27T15:56:19Z</time>
      </trkpt>
      <trkpt lat="48.63591" lon="-2.4068">
        <ele>35.5</ele>
        <time>2021-07-27T15:56:21Z</time>
      </trkpt>
      <trkpt lat="48.63586" lon="-2.40682">
        <ele>35.4</ele>
        <time>2021-07-27T15:56:22Z</time>
      </trkpt>
      <trkpt lat="48.63579" lon="-2.40685">
        <ele>35.3</ele>
        <time>2021-07-27T15:56:24Z</time>
      </trkpt>
      <trkpt lat="48.63569" lon="-2.40683">
        <ele>35</ele>
        <time>2021-07-27T15:56:26Z</time>
      </trkpt>
      <trkpt lat="48.63559" lon="-2.40676">
        <ele>34.4</ele>
        <time>2021-07-27T15:56:28Z</time>
      </trkpt>
      <trkpt lat="48.6355" lon="-2.40667">
        <ele>33.6</ele>
        <time>2021-07-27T15:56:30Z</time>
      </trkpt>
      <trkpt lat="48.63543" lon="-2.4066">
        <ele>32.9</ele>
        <time>2021-07-27T15:56:31Z</time>
      </trkpt>
      <trkpt lat="48.63536" lon="-2.40654">
        <ele>32.3</ele>
        <time>2021-07-27T15:56:33Z</time>
      </trkpt>
      <trkpt lat="48.63524" lon="-2.40638">
        <ele>30.8</ele>
        <time>2021-07-27T15:56:35Z</time>
      </trkpt>
      <trkpt lat="48.63518" lon="-2.4063">
        <ele>30</ele>
        <time>2021-07-27T15:56:36Z</time>
      </trkpt>
      <trkpt lat="48.63506" lon="-2.40615">
        <ele>28.6</ele>
        <time>2021-07-27T15:56:38Z</time>
      </trkpt>
      <trkpt lat="48.635" lon="-2.40607">
        <ele>27.9</ele>
        <time>2021-07-27T15:56:39Z</time>
      </trkpt>
      <trkpt lat="48.63494" lon="-2.406">
        <ele>27.2</ele>
        <time>2021-07-27T15:56:40Z</time>
      </trkpt>
      <trkpt lat="48.63478" lon="-2.40583">
        <ele>25.6</ele>
        <time>2021-07-27T15:56:42Z</time>
      </trkpt>
      <trkpt lat="48.63469" lon="-2.40574">
        <ele>24.7</ele>
        <time>2021-07-27T15:56:43Z</time>
      </trkpt>
      <trkpt lat="48.63461" lon="-2.40566">
        <ele>23.9</ele>
        <time>2021-07-27T15:56:44Z</time>
      </trkpt>
      <trkpt lat="48.63446" lon="-2.40552">
        <ele>22.9</ele>
        <time>2021-07-27T15:56:46Z</time>
      </trkpt>
      <trkpt lat="48.63439" lon="-2.40547">
        <ele>22.5</ele>
        <time>2021-07-27T15:56:47Z</time>
      </trkpt>
      <trkpt lat="48.63432" lon="-2.40541">
        <ele>22.1</ele>
        <time>2021-07-27T15:56:48Z</time>
      </trkpt>
      <trkpt lat="48.63422" lon="-2.40535">
        <ele>21.6</ele>
        <time>2021-07-27T15:56:50Z</time>
      </trkpt>
      <trkpt lat="48.63419" lon="-2.40534">
        <ele>21.3</ele>
        <time>2021-07-27T15:56:52Z</time>
      </trkpt>
      <trkpt lat="48.63416" lon="-2.40533">
        <ele>21.1</ele>
        <time>2021-07-27T15:56:54Z</time>
      </trkpt>
      <trkpt lat="48.63416" lon="-2.40533">
        <ele>21.1</ele>
        <time>2021-07-27T15:56:55Z</time>
      </trkpt>
      <trkpt lat="48.63415" lon="-2.40535">
        <ele>21</ele>
        <time>2021-07-27T15:56:56Z</time>
      </trkpt>
      <trkpt lat="48.63414" lon="-2.40536">
        <ele>20.9</ele>
        <time>2021-07-27T15:56:58Z</time>
      </trkpt>
      <trkpt lat="48.63412" lon="-2.40538">
        <ele>20.8</ele>
        <time>2021-07-27T15:56:59Z</time>
      </trkpt>
      <trkpt lat="48.6341" lon="-2.4054">
        <ele>20.6</ele>
        <time>2021-07-27T15:57:01Z</time>
      </trkpt>
      <trkpt lat="48.63407" lon="-2.40543">
        <ele>20.5</ele>
        <time>2021-07-27T15:57:02Z</time>
      </trkpt>
      <trkpt lat="48.63405" lon="-2.40547">
        <ele>20.3</ele>
        <time>2021-07-27T15:57:03Z</time>
      </trkpt>
      <trkpt lat="48.63404" lon="-2.40551">
        <ele>20.2</ele>
        <time>2021-07-27T15:57:04Z</time>
      </trkpt>
      <trkpt lat="48.63404" lon="-2.40558">
        <ele>19.9</ele>
        <time>2021-07-27T15:57:06Z</time>
      </trkpt>
      <trkpt lat="48.63404" lon="-2.40559">
        <ele>19.9</ele>
        <time>2021-07-27T15:57:07Z</time>
      </trkpt>
      <trkpt lat="48.63402" lon="-2.4056">
        <ele>19.9</ele>
        <time>2021-07-27T15:57:08Z</time>
      </trkpt>
      <trkpt lat="48.63401" lon="-2.4056">
        <ele>19.9</ele>
        <time>2021-07-27T15:57:10Z</time>
      </trkpt>
      <trkpt lat="48.63401" lon="-2.40561">
        <ele>19.9</ele>
        <time>2021-07-27T15:57:12Z</time>
      </trkpt>
      <trkpt lat="48.63401" lon="-2.40561">
        <ele>19.9</ele>
        <time>2021-07-27T15:57:14Z</time>
      </trkpt>
      <trkpt lat="48.63401" lon="-2.40561">
        <ele>19.9</ele>
        <time>2021-07-27T15:57:16Z</time>
      </trkpt>
      <trkpt lat="48.63404" lon="-2.40566">
        <ele>19.7</ele>
        <time>2021-07-27T15:57:24Z</time>
      </trkpt>
      <trkpt lat="48.63406" lon="-2.40569">
        <ele>19.6</ele>
        <time>2021-07-27T15:57:25Z</time>
      </trkpt>
      <trkpt lat="48.63412" lon="-2.40578">
        <ele>19.4</ele>
        <time>2021-07-27T15:57:27Z</time>
      </trkpt>
      <trkpt lat="48.63415" lon="-2.40583">
        <ele>19.2</ele>
        <time>2021-07-27T15:57:28Z</time>
      </trkpt>
      <trkpt lat="48.63418" lon="-2.40588">
        <ele>19.1</ele>
        <time>2021-07-27T15:57:30Z</time>
      </trkpt>
      <trkpt lat="48.6343" lon="-2.40594">
        <ele>18.8</ele>
        <time>2021-07-27T15:57:32Z</time>
      </trkpt>
      <trkpt lat="48.63433" lon="-2.40597">
        <ele>18.7</ele>
        <time>2021-07-27T15:57:33Z</time>
      </trkpt>
      <trkpt lat="48.63438" lon="-2.40603">
        <ele>18.6</ele>
        <time>2021-07-27T15:57:35Z</time>
      </trkpt>
      <trkpt lat="48.63443" lon="-2.40612">
        <ele>18.4</ele>
        <time>2021-07-27T15:57:37Z</time>
      </trkpt>
      <trkpt lat="48.63445" lon="-2.40618">
        <ele>18.2</ele>
        <time>2021-07-27T15:57:38Z</time>
      </trkpt>
      <trkpt lat="48.63448" lon="-2.40624">
        <ele>18.1</ele>
        <time>2021-07-27T15:57:39Z</time>
      </trkpt>
      <trkpt lat="48.63453" lon="-2.40637">
        <ele>17.7</ele>
        <time>2021-07-27T15:57:40Z</time>
      </trkpt>
      <trkpt lat="48.63456" lon="-2.40643">
        <ele>17.5</ele>
        <time>2021-07-27T15:57:41Z</time>
      </trkpt>
      <trkpt lat="48.63459" lon="-2.40653">
        <ele>17</ele>
        <time>2021-07-27T15:57:43Z</time>
      </trkpt>
      <trkpt lat="48.63461" lon="-2.40661">
        <ele>16.6</ele>
        <time>2021-07-27T15:57:44Z</time>
      </trkpt>
      <trkpt lat="48.63464" lon="-2.40666">
        <ele>16.3</ele>
        <time>2021-07-27T15:57:46Z</time>
      </trkpt>
      <trkpt lat="48.63466" lon="-2.40674">
        <ele>16</ele>
        <time>2021-07-27T15:57:47Z</time>
      </trkpt>
      <trkpt lat="48.63467" lon="-2.40682">
        <ele>16</ele>
        <time>2021-07-27T15:57:49Z</time>
      </trkpt>
      <trkpt lat="48.63469" lon="-2.40693">
        <ele>15.7</ele>
        <time>2021-07-27T15:57:50Z</time>
      </trkpt>
      <trkpt lat="48.63471" lon="-2.40702">
        <ele>15.3</ele>
        <time>2021-07-27T15:57:52Z</time>
      </trkpt>
      <trkpt lat="48.63471" lon="-2.40717">
        <ele>14.8</ele>
        <time>2021-07-27T15:57:53Z</time>
      </trkpt>
      <trkpt lat="48.6347" lon="-2.40728">
        <ele>14.4</ele>
        <time>2021-07-27T15:57:54Z</time>
      </trkpt>
      <trkpt lat="48.63472" lon="-2.40745">
        <ele>13.7</ele>
        <time>2021-07-27T15:57:56Z</time>
      </trkpt>
      <trkpt lat="48.63477" lon="-2.40766">
        <ele>12.8</ele>
        <time>2021-07-27T15:57:58Z</time>
      </trkpt>
      <trkpt lat="48.63485" lon="-2.40785">
        <ele>12.3</ele>
        <time>2021-07-27T15:58:00Z</time>
      </trkpt>
      <trkpt lat="48.63493" lon="-2.40801">
        <ele>11.5</ele>
        <time>2021-07-27T15:58:02Z</time>
      </trkpt>
      <trkpt lat="48.63502" lon="-2.40812">
        <ele>10.8</ele>
        <time>2021-07-27T15:58:04Z</time>
      </trkpt>
      <trkpt lat="48.63512" lon="-2.40824">
        <ele>10</ele>
        <time>2021-07-27T15:58:06Z</time>
      </trkpt>
      <trkpt lat="48.63521" lon="-2.40839">
        <ele>9.2</ele>
        <time>2021-07-27T15:58:08Z</time>
      </trkpt>
      <trkpt lat="48.63524" lon="-2.40845">
        <ele>8.9</ele>
        <time>2021-07-27T15:58:09Z</time>
      </trkpt>
      <trkpt lat="48.63526" lon="-2.4085">
        <ele>8.8</ele>
        <time>2021-07-27T15:58:10Z</time>
      </trkpt>
      <trkpt lat="48.63529" lon="-2.40853">
        <ele>8.7</ele>
        <time>2021-07-27T15:58:11Z</time>
      </trkpt>
      <trkpt lat="48.63531" lon="-2.40857">
        <ele>8.6</ele>
        <time>2021-07-27T15:58:12Z</time>
      </trkpt>
      <trkpt lat="48.63536" lon="-2.40863">
        <ele>8.5</ele>
        <time>2021-07-27T15:58:14Z</time>
      </trkpt>
      <trkpt lat="48.63539" lon="-2.40865">
        <ele>8.4</ele>
        <time>2021-07-27T15:58:15Z</time>
      </trkpt>
      <trkpt lat="48.63542" lon="-2.40868">
        <ele>8.4</ele>
        <time>2021-07-27T15:58:16Z</time>
      </trkpt>
      <trkpt lat="48.63546" lon="-2.40866">
        <ele>8.4</ele>
        <time>2021-07-27T15:58:18Z</time>
      </trkpt>
      <trkpt lat="48.63549" lon="-2.40862">
        <ele>8.4</ele>
        <time>2021-07-27T15:58:20Z</time>
      </trkpt>
      <trkpt lat="48.63552" lon="-2.40859">
        <ele>8.4</ele>
        <time>2021-07-27T15:58:21Z</time>
      </trkpt>
      <trkpt lat="48.63555" lon="-2.40856">
        <ele>8.4</ele>
        <time>2021-07-27T15:58:22Z</time>
      </trkpt>
      <trkpt lat="48.63561" lon="-2.40854">
        <ele>8.4</ele>
        <time>2021-07-27T15:58:23Z</time>
      </trkpt>
      <trkpt lat="48.63566" lon="-2.40855">
        <ele>8.5</ele>
        <time>2021-07-27T15:58:24Z</time>
      </trkpt>
      <trkpt lat="48.63569" lon="-2.40858">
        <ele>8.5</ele>
        <time>2021-07-27T15:58:26Z</time>
      </trkpt>
      <trkpt lat="48.63572" lon="-2.4086">
        <ele>8.5</ele>
        <time>2021-07-27T15:58:27Z</time>
      </trkpt>
      <trkpt lat="48.63576" lon="-2.40862">
        <ele>8.5</ele>
        <time>2021-07-27T15:58:28Z</time>
      </trkpt>
      <trkpt lat="48.63578" lon="-2.40862">
        <ele>8.5</ele>
        <time>2021-07-27T15:58:29Z</time>
      </trkpt>
      <trkpt lat="48.63581" lon="-2.40863">
        <ele>8.5</ele>
        <time>2021-07-27T15:58:31Z</time>
      </trkpt>
      <trkpt lat="48.63585" lon="-2.40866">
        <ele>8.5</ele>
        <time>2021-07-27T15:58:33Z</time>
      </trkpt>
      <trkpt lat="48.63588" lon="-2.40865">
        <ele>8.6</ele>
        <time>2021-07-27T15:58:34Z</time>
      </trkpt>
      <trkpt lat="48.63592" lon="-2.40867">
        <ele>8.6</ele>
        <time>2021-07-27T15:58:36Z</time>
      </trkpt>
      <trkpt lat="48.63594" lon="-2.40871">
        <ele>8.7</ele>
        <time>2021-07-27T15:58:37Z</time>
      </trkpt>
      <trkpt lat="48.63594" lon="-2.40873">
        <ele>8.8</ele>
        <time>2021-07-27T15:58:38Z</time>
      </trkpt>
      <trkpt lat="48.63591" lon="-2.40876">
        <ele>8.7</ele>
        <time>2021-07-27T15:58:40Z</time>
      </trkpt>
      <trkpt lat="48.63586" lon="-2.40876">
        <ele>8.7</ele>
        <time>2021-07-27T15:58:41Z</time>
      </trkpt>
      <trkpt lat="48.63582" lon="-2.40877">
        <ele>8.7</ele>
        <time>2021-07-27T15:58:42Z</time>
      </trkpt>
      <trkpt lat="48.63575" lon="-2.40881">
        <ele>8.7</ele>
        <time>2021-07-27T15:58:44Z</time>
      </trkpt>
      <trkpt lat="48.6357" lon="-2.40886">
        <ele>8.7</ele>
        <time>2021-07-27T15:58:45Z</time>
      </trkpt>
      <trkpt lat="48.63565" lon="-2.40892">
        <ele>8.7</ele>
        <time>2021-07-27T15:58:47Z</time>
      </trkpt>
      <trkpt lat="48.63558" lon="-2.409">
        <ele>8.7</ele>
        <time>2021-07-27T15:58:49Z</time>
      </trkpt>
      <trkpt lat="48.63554" lon="-2.40905">
        <ele>8.7</ele>
        <time>2021-07-27T15:58:50Z</time>
      </trkpt>
      <trkpt lat="48.63549" lon="-2.40913">
        <ele>8.7</ele>
        <time>2021-07-27T15:58:52Z</time>
      </trkpt>
      <trkpt lat="48.63546" lon="-2.40918">
        <ele>8.7</ele>
        <time>2021-07-27T15:58:53Z</time>
      </trkpt>
      <trkpt lat="48.63543" lon="-2.40922">
        <ele>8.7</ele>
        <time>2021-07-27T15:58:54Z</time>
      </trkpt>
      <trkpt lat="48.63537" lon="-2.40933">
        <ele>8.6</ele>
        <time>2021-07-27T15:58:56Z</time>
      </trkpt>
      <trkpt lat="48.63534" lon="-2.40938">
        <ele>8.6</ele>
        <time>2021-07-27T15:58:57Z</time>
      </trkpt>
      <trkpt lat="48.6353" lon="-2.40943">
        <ele>8.6</ele>
        <time>2021-07-27T15:58:58Z</time>
      </trkpt>
      <trkpt lat="48.63526" lon="-2.40948">
        <ele>8.6</ele>
        <time>2021-07-27T15:58:59Z</time>
      </trkpt>
      <trkpt lat="48.6352" lon="-2.40957">
        <ele>8.6</ele>
        <time>2021-07-27T15:59:01Z</time>
      </trkpt>
      <trkpt lat="48.63518" lon="-2.40963">
        <ele>8.6</ele>
        <time>2021-07-27T15:59:02Z</time>
      </trkpt>
      <trkpt lat="48.63512" lon="-2.40969">
        <ele>8.6</ele>
        <time>2021-07-27T15:59:03Z</time>
      </trkpt>
      <trkpt lat="48.63508" lon="-2.40973">
        <ele>8.6</ele>
        <time>2021-07-27T15:59:05Z</time>
      </trkpt>
      <trkpt lat="48.63505" lon="-2.40978">
        <ele>8.6</ele>
        <time>2021-07-27T15:59:06Z</time>
      </trkpt>
      <trkpt lat="48.63504" lon="-2.40983">
        <ele>8.6</ele>
        <time>2021-07-27T15:59:07Z</time>
      </trkpt>
      <trkpt lat="48.63501" lon="-2.40988">
        <ele>8.6</ele>
        <time>2021-07-27T15:59:08Z</time>
      </trkpt>
      <trkpt lat="48.63497" lon="-2.40994">
        <ele>8.6</ele>
        <time>2021-07-27T15:59:10Z</time>
      </trkpt>
      <trkpt lat="48.63492" lon="-2.41004">
        <ele>8.6</ele>
        <time>2021-07-27T15:59:12Z</time>
      </trkpt>
      <trkpt lat="48.6349" lon="-2.4101">
        <ele>8.6</ele>
        <time>2021-07-27T15:59:13Z</time>
      </trkpt>
      <trkpt lat="48.63485" lon="-2.41021">
        <ele>8.6</ele>
        <time>2021-07-27T15:59:15Z</time>
      </trkpt>
      <trkpt lat="48.6348" lon="-2.41028">
        <ele>8.7</ele>
        <time>2021-07-27T15:59:16Z</time>
      </trkpt>
      <trkpt lat="48.63475" lon="-2.41035">
        <ele>8.7</ele>
        <time>2021-07-27T15:59:18Z</time>
      </trkpt>
      <trkpt lat="48.63471" lon="-2.41038">
        <ele>8.7</ele>
        <time>2021-07-27T15:59:19Z</time>
      </trkpt>
      <trkpt lat="48.63463" lon="-2.41032">
        <ele>8.8</ele>
        <time>2021-07-27T15:59:21Z</time>
      </trkpt>
      <trkpt lat="48.6346" lon="-2.41027">
        <ele>8.8</ele>
        <time>2021-07-27T15:59:22Z</time>
      </trkpt>
      <trkpt lat="48.63453" lon="-2.41019">
        <ele>8.8</ele>
        <time>2021-07-27T15:59:24Z</time>
      </trkpt>
      <trkpt lat="48.63444" lon="-2.4102">
        <ele>8.8</ele>
        <time>2021-07-27T15:59:26Z</time>
      </trkpt>
      <trkpt lat="48.63439" lon="-2.41024">
        <ele>8.8</ele>
        <time>2021-07-27T15:59:27Z</time>
      </trkpt>
      <trkpt lat="48.63436" lon="-2.41028">
        <ele>8.8</ele>
        <time>2021-07-27T15:59:28Z</time>
      </trkpt>
      <trkpt lat="48.63433" lon="-2.41032">
        <ele>8.8</ele>
        <time>2021-07-27T15:59:29Z</time>
      </trkpt>
      <trkpt lat="48.63433" lon="-2.41039">
        <ele>8.7</ele>
        <time>2021-07-27T15:59:31Z</time>
      </trkpt>
      <trkpt lat="48.63434" lon="-2.41043">
        <ele>8.6</ele>
        <time>2021-07-27T15:59:32Z</time>
      </trkpt>
      <trkpt lat="48.63438" lon="-2.41053">
        <ele>8.3</ele>
        <time>2021-07-27T15:59:34Z</time>
      </trkpt>
      <trkpt lat="48.63439" lon="-2.4106">
        <ele>8.1</ele>
        <time>2021-07-27T15:59:35Z</time>
      </trkpt>
      <trkpt lat="48.6344" lon="-2.41072">
        <ele>7.9</ele>
        <time>2021-07-27T15:59:37Z</time>
      </trkpt>
      <trkpt lat="48.63442" lon="-2.41077">
        <ele>7.8</ele>
        <time>2021-07-27T15:59:38Z</time>
      </trkpt>
      <trkpt lat="48.63445" lon="-2.41087">
        <ele>7.2</ele>
        <time>2021-07-27T15:59:40Z</time>
      </trkpt>
      <trkpt lat="48.63443" lon="-2.41093">
        <ele>7.1</ele>
        <time>2021-07-27T15:59:41Z</time>
      </trkpt>
      <trkpt lat="48.63434" lon="-2.41102">
        <ele>6.9</ele>
        <time>2021-07-27T15:59:43Z</time>
      </trkpt>
      <trkpt lat="48.6343" lon="-2.41107">
        <ele>6.8</ele>
        <time>2021-07-27T15:59:44Z</time>
      </trkpt>
      <trkpt lat="48.63423" lon="-2.41116">
        <ele>6.7</ele>
        <time>2021-07-27T15:59:46Z</time>
      </trkpt>
      <trkpt lat="48.63417" lon="-2.41124">
        <ele>6.6</ele>
        <time>2021-07-27T15:59:48Z</time>
      </trkpt>
      <trkpt lat="48.63409" lon="-2.41132">
        <ele>6.6</ele>
        <time>2021-07-27T15:59:50Z</time>
      </trkpt>
      <trkpt lat="48.63403" lon="-2.41139">
        <ele>6.6</ele>
        <time>2021-07-27T15:59:52Z</time>
      </trkpt>
      <trkpt lat="48.63397" lon="-2.41147">
        <ele>6.6</ele>
        <time>2021-07-27T15:59:54Z</time>
      </trkpt>
      <trkpt lat="48.63395" lon="-2.41151">
        <ele>6.6</ele>
        <time>2021-07-27T15:59:55Z</time>
      </trkpt>
      <trkpt lat="48.63393" lon="-2.41157">
        <ele>6.6</ele>
        <time>2021-07-27T15:59:56Z</time>
      </trkpt>
      <trkpt lat="48.6339" lon="-2.41157">
        <ele>6.6</ele>
        <time>2021-07-27T15:59:57Z</time>
      </trkpt>
      <trkpt lat="48.63388" lon="-2.41155">
        <ele>6.6</ele>
        <time>2021-07-27T15:59:58Z</time>
      </trkpt>
      <trkpt lat="48.63387" lon="-2.41151">
        <ele>6.6</ele>
        <time>2021-07-27T16:00:00Z</time>
      </trkpt>
      <trkpt lat="48.63387" lon="-2.41147">
        <ele>6.6</ele>
        <time>2021-07-27T16:00:01Z</time>
      </trkpt>
      <trkpt lat="48.63391" lon="-2.41149">
        <ele>6.7</ele>
        <time>2021-07-27T16:00:03Z</time>
      </trkpt>
      <trkpt lat="48.63395" lon="-2.41149">
        <ele>6.7</ele>
        <time>2021-07-27T16:00:04Z</time>
      </trkpt>
      <trkpt lat="48.634" lon="-2.41144">
        <ele>6.6</ele>
        <time>2021-07-27T16:00:06Z</time>
      </trkpt>
      <trkpt lat="48.63405" lon="-2.41139">
        <ele>6.6</ele>
        <time>2021-07-27T16:00:07Z</time>
      </trkpt>
      <trkpt lat="48.63411" lon="-2.41134">
        <ele>6.6</ele>
        <time>2021-07-27T16:00:09Z</time>
      </trkpt>
      <trkpt lat="48.63417" lon="-2.41126">
        <ele>6.6</ele>
        <time>2021-07-27T16:00:11Z</time>
      </trkpt>
      <trkpt lat="48.63422" lon="-2.4112">
        <ele>6.6</ele>
        <time>2021-07-27T16:00:12Z</time>
      </trkpt>
      <trkpt lat="48.63429" lon="-2.4111">
        <ele>6.7</ele>
        <time>2021-07-27T16:00:14Z</time>
      </trkpt>
      <trkpt lat="48.63433" lon="-2.41105">
        <ele>6.8</ele>
        <time>2021-07-27T16:00:15Z</time>
      </trkpt>
      <trkpt lat="48.63437" lon="-2.41101">
        <ele>6.9</ele>
        <time>2021-07-27T16:00:16Z</time>
      </trkpt>
      <trkpt lat="48.63444" lon="-2.41092">
        <ele>7.2</ele>
        <time>2021-07-27T16:00:18Z</time>
      </trkpt>
      <trkpt lat="48.63443" lon="-2.4109">
        <ele>7.3</ele>
        <time>2021-07-27T16:00:19Z</time>
      </trkpt>
      <trkpt lat="48.63444" lon="-2.41081">
        <ele>7.7</ele>
        <time>2021-07-27T16:00:21Z</time>
      </trkpt>
      <trkpt lat="48.63443" lon="-2.41075">
        <ele>7.8</ele>
        <time>2021-07-27T16:00:22Z</time>
      </trkpt>
      <trkpt lat="48.6344" lon="-2.41065">
        <ele>7.9</ele>
        <time>2021-07-27T16:00:24Z</time>
      </trkpt>
      <trkpt lat="48.63437" lon="-2.41054">
        <ele>8.1</ele>
        <time>2021-07-27T16:00:25Z</time>
      </trkpt>
      <trkpt lat="48.63439" lon="-2.41049">
        <ele>8.2</ele>
        <time>2021-07-27T16:00:26Z</time>
      </trkpt>
      <trkpt lat="48.63443" lon="-2.41049">
        <ele>8.2</ele>
        <time>2021-07-27T16:00:27Z</time>
      </trkpt>
      <trkpt lat="48.63447" lon="-2.41054">
        <ele>8.1</ele>
        <time>2021-07-27T16:00:29Z</time>
      </trkpt>
      <trkpt lat="48.63449" lon="-2.41064">
        <ele>7.9</ele>
        <time>2021-07-27T16:00:30Z</time>
      </trkpt>
      <trkpt lat="48.63451" lon="-2.41071">
        <ele>7.8</ele>
        <time>2021-07-27T16:00:31Z</time>
      </trkpt>
      <trkpt lat="48.63454" lon="-2.41083">
        <ele>7.6</ele>
        <time>2021-07-27T16:00:33Z</time>
      </trkpt>
      <trkpt lat="48.63456" lon="-2.41091">
        <ele>7.6</ele>
        <time>2021-07-27T16:00:34Z</time>
      </trkpt>
      <trkpt lat="48.63459" lon="-2.41107">
        <ele>7.3</ele>
        <time>2021-07-27T16:00:36Z</time>
      </trkpt>
      <trkpt lat="48.63463" lon="-2.41123">
        <ele>7</ele>
        <time>2021-07-27T16:00:38Z</time>
      </trkpt>
      <trkpt lat="48.63464" lon="-2.41131">
        <ele>6.9</ele>
        <time>2021-07-27T16:00:39Z</time>
      </trkpt>
      <trkpt lat="48.63468" lon="-2.41146">
        <ele>6.7</ele>
        <time>2021-07-27T16:00:41Z</time>
      </trkpt>
      <trkpt lat="48.6347" lon="-2.41154">
        <ele>6.6</ele>
        <time>2021-07-27T16:00:42Z</time>
      </trkpt>
      <trkpt lat="48.63471" lon="-2.41162">
        <ele>6.5</ele>
        <time>2021-07-27T16:00:43Z</time>
      </trkpt>
      <trkpt lat="48.63473" lon="-2.41169">
        <ele>6.5</ele>
        <time>2021-07-27T16:00:44Z</time>
      </trkpt>
      <trkpt lat="48.63477" lon="-2.41185">
        <ele>6.3</ele>
        <time>2021-07-27T16:00:46Z</time>
      </trkpt>
      <trkpt lat="48.63481" lon="-2.41202">
        <ele>6.1</ele>
        <time>2021-07-27T16:00:48Z</time>
      </trkpt>
      <trkpt lat="48.63483" lon="-2.4121">
        <ele>6</ele>
        <time>2021-07-27T16:00:49Z</time>
      </trkpt>
      <trkpt lat="48.63486" lon="-2.41225">
        <ele>5.9</ele>
        <time>2021-07-27T16:00:51Z</time>
      </trkpt>
      <trkpt lat="48.63488" lon="-2.41232">
        <ele>5.8</ele>
        <time>2021-07-27T16:00:52Z</time>
      </trkpt>
      <trkpt lat="48.6349" lon="-2.41239">
        <ele>5.7</ele>
        <time>2021-07-27T16:00:53Z</time>
      </trkpt>
      <trkpt lat="48.63492" lon="-2.41246">
        <ele>5.6</ele>
        <time>2021-07-27T16:00:54Z</time>
      </trkpt>
      <trkpt lat="48.63495" lon="-2.41259">
        <ele>5.5</ele>
        <time>2021-07-27T16:00:56Z</time>
      </trkpt>
      <trkpt lat="48.63498" lon="-2.41269">
        <ele>5.4</ele>
        <time>2021-07-27T16:00:58Z</time>
      </trkpt>
      <trkpt lat="48.63499" lon="-2.41274">
        <ele>5.3</ele>
        <time>2021-07-27T16:00:59Z</time>
      </trkpt>
      <trkpt lat="48.63501" lon="-2.41281">
        <ele>5.3</ele>
        <time>2021-07-27T16:01:00Z</time>
      </trkpt>
      <trkpt lat="48.63502" lon="-2.41286">
        <ele>5.2</ele>
        <time>2021-07-27T16:01:01Z</time>
      </trkpt>
      <trkpt lat="48.63504" lon="-2.41296">
        <ele>5.1</ele>
        <time>2021-07-27T16:01:03Z</time>
      </trkpt>
      <trkpt lat="48.63507" lon="-2.41296">
        <ele>5.1</ele>
        <time>2021-07-27T16:01:04Z</time>
      </trkpt>
      <trkpt lat="48.63507" lon="-2.413">
        <ele>5.1</ele>
        <time>2021-07-27T16:01:05Z</time>
      </trkpt>
      <trkpt lat="48.63507" lon="-2.41304">
        <ele>5</ele>
        <time>2021-07-27T16:01:06Z</time>
      </trkpt>
      <trkpt lat="48.63509" lon="-2.4131">
        <ele>5</ele>
        <time>2021-07-27T16:01:08Z</time>
      </trkpt>
      <trkpt lat="48.6351" lon="-2.41311">
        <ele>4.9</ele>
        <time>2021-07-27T16:01:09Z</time>
      </trkpt>
      <trkpt lat="48.63511" lon="-2.41313">
        <ele>4.9</ele>
        <time>2021-07-27T16:01:10Z</time>
      </trkpt>
      <trkpt lat="48.63512" lon="-2.41315">
        <ele>4.9</ele>
        <time>2021-07-27T16:01:11Z</time>
      </trkpt>
      <trkpt lat="48.63513" lon="-2.41317">
        <ele>4.9</ele>
        <time>2021-07-27T16:01:13Z</time>
      </trkpt>
      <trkpt lat="48.63514" lon="-2.41321">
        <ele>4.9</ele>
        <time>2021-07-27T16:01:14Z</time>
      </trkpt>
      <trkpt lat="48.63514" lon="-2.41323">
        <ele>4.9</ele>
        <time>2021-07-27T16:01:15Z</time>
      </trkpt>
      <trkpt lat="48.63514" lon="-2.41329">
        <ele>4.9</ele>
        <time>2021-07-27T16:01:17Z</time>
      </trkpt>
      <trkpt lat="48.63514" lon="-2.41331">
        <ele>4.8</ele>
        <time>2021-07-27T16:01:18Z</time>
      </trkpt>
      <trkpt lat="48.63515" lon="-2.41337">
        <ele>4.8</ele>
        <time>2021-07-27T16:01:20Z</time>
      </trkpt>
      <trkpt lat="48.63516" lon="-2.4134">
        <ele>4.8</ele>
        <time>2021-07-27T16:01:21Z</time>
      </trkpt>
      <trkpt lat="48.63516" lon="-2.41342">
        <ele>4.8</ele>
        <time>2021-07-27T16:01:22Z</time>
      </trkpt>
      <trkpt lat="48.63518" lon="-2.41348">
        <ele>4.8</ele>
        <time>2021-07-27T16:01:24Z</time>
      </trkpt>
      <trkpt lat="48.63518" lon="-2.41352">
        <ele>4.8</ele>
        <time>2021-07-27T16:01:25Z</time>
      </trkpt>
      <trkpt lat="48.63519" lon="-2.41358">
        <ele>4.8</ele>
        <time>2021-07-27T16:01:27Z</time>
      </trkpt>
      <trkpt lat="48.63518" lon="-2.41359">
        <ele>4.8</ele>
        <time>2021-07-27T16:01:29Z</time>
      </trkpt>
      <trkpt lat="48.63519" lon="-2.41361">
        <ele>4.8</ele>
        <time>2021-07-27T16:01:31Z</time>
      </trkpt>
      <trkpt lat="48.63519" lon="-2.41362">
        <ele>4.8</ele>
        <time>2021-07-27T16:01:33Z</time>
      </trkpt>
      <trkpt lat="48.63519" lon="-2.41363">
        <ele>4.8</ele>
        <time>2021-07-27T16:01:34Z</time>
      </trkpt>
      <trkpt lat="48.63519" lon="-2.41364">
        <ele>4.8</ele>
        <time>2021-07-27T16:01:35Z</time>
      </trkpt>
      <trkpt lat="48.6352" lon="-2.41365">
        <ele>4.8</ele>
        <time>2021-07-27T16:01:37Z</time>
      </trkpt>
      <trkpt lat="48.6352" lon="-2.41366">
        <ele>4.8</ele>
        <time>2021-07-27T16:01:38Z</time>
      </trkpt>
      <trkpt lat="48.6352" lon="-2.41367">
        <ele>4.8</ele>
        <time>2021-07-27T16:01:39Z</time>
      </trkpt>
      <trkpt lat="48.6352" lon="-2.41368">
        <ele>4.8</ele>
        <time>2021-07-27T16:01:41Z</time>
      </trkpt>
      <trkpt lat="48.63521" lon="-2.41369">
        <ele>4.8</ele>
        <time>2021-07-27T16:01:43Z</time>
      </trkpt>
      <trkpt lat="48.63521" lon="-2.41371">
        <ele>4.8</ele>
        <time>2021-07-27T16:01:44Z</time>
      </trkpt>
      <trkpt lat="48.63521" lon="-2.41372">
        <ele>4.8</ele>
        <time>2021-07-27T16:01:46Z</time>
      </trkpt>
      <trkpt lat="48.63521" lon="-2.41373">
        <ele>4.8</ele>
        <time>2021-07-27T16:01:47Z</time>
      </trkpt>
      <trkpt lat="48.63522" lon="-2.41374">
        <ele>4.8</ele>
        <time>2021-07-27T16:01:48Z</time>
      </trkpt>
      <trkpt lat="48.63522" lon="-2.41375">
        <ele>4.8</ele>
        <time>2021-07-27T16:01:50Z</time>
      </trkpt>
      <trkpt lat="48.63522" lon="-2.41376">
        <ele>4.8</ele>
        <time>2021-07-27T16:02:03Z</time>
      </trkpt>
      <trkpt lat="48.63523" lon="-2.41377">
        <ele>4.8</ele>
        <time>2021-07-27T16:02:05Z</time>
      </trkpt>
      <trkpt lat="48.63523" lon="-2.41378">
        <ele>4.8</ele>
        <time>2021-07-27T16:02:06Z</time>
      </trkpt>
      <trkpt lat="48.63523" lon="-2.41379">
        <ele>4.8</ele>
        <time>2021-07-27T16:02:07Z</time>
      </trkpt>
      <trkpt lat="48.63524" lon="-2.41384">
        <ele>4.9</ele>
        <time>2021-07-27T16:02:08Z</time>
      </trkpt>
      <trkpt lat="48.63527" lon="-2.4139">
        <ele>4.9</ele>
        <time>2021-07-27T16:02:10Z</time>
      </trkpt>
      <trkpt lat="48.63529" lon="-2.41395">
        <ele>4.9</ele>
        <time>2021-07-27T16:02:11Z</time>
      </trkpt>
      <trkpt lat="48.63531" lon="-2.414">
        <ele>5</ele>
        <time>2021-07-27T16:02:12Z</time>
      </trkpt>
      <trkpt lat="48.63534" lon="-2.41404">
        <ele>5</ele>
        <time>2021-07-27T16:02:14Z</time>
      </trkpt>
      <trkpt lat="48.63537" lon="-2.41406">
        <ele>5</ele>
        <time>2021-07-27T16:02:15Z</time>
      </trkpt>
      <trkpt lat="48.63539" lon="-2.41409">
        <ele>5</ele>
        <time>2021-07-27T16:02:16Z</time>
      </trkpt>
      <trkpt lat="48.63541" lon="-2.41413">
        <ele>5</ele>
        <time>2021-07-27T16:02:17Z</time>
      </trkpt>
      <trkpt lat="48.63542" lon="-2.4142">
        <ele>5.1</ele>
        <time>2021-07-27T16:02:19Z</time>
      </trkpt>
      <trkpt lat="48.63543" lon="-2.41425">
        <ele>5.1</ele>
        <time>2021-07-27T16:02:20Z</time>
      </trkpt>
      <trkpt lat="48.63544" lon="-2.41432">
        <ele>5.1</ele>
        <time>2021-07-27T16:02:22Z</time>
      </trkpt>
      <trkpt lat="48.63544" lon="-2.41438">
        <ele>5.2</ele>
        <time>2021-07-27T16:02:23Z</time>
      </trkpt>
      <trkpt lat="48.63545" lon="-2.41444">
        <ele>5.2</ele>
        <time>2021-07-27T16:02:24Z</time>
      </trkpt>
      <trkpt lat="48.63546" lon="-2.41449">
        <ele>5.2</ele>
        <time>2021-07-27T16:02:25Z</time>
      </trkpt>
      <trkpt lat="48.63548" lon="-2.41453">
        <ele>5.3</ele>
        <time>2021-07-27T16:02:27Z</time>
      </trkpt>
      <trkpt lat="48.6355" lon="-2.41457">
        <ele>5.3</ele>
        <time>2021-07-27T16:02:28Z</time>
      </trkpt>
      <trkpt lat="48.63552" lon="-2.41462">
        <ele>5.4</ele>
        <time>2021-07-27T16:02:29Z</time>
      </trkpt>
      <trkpt lat="48.63554" lon="-2.41468">
        <ele>5.4</ele>
        <time>2021-07-27T16:02:30Z</time>
      </trkpt>
      <trkpt lat="48.63556" lon="-2.41473">
        <ele>5.5</ele>
        <time>2021-07-27T16:02:31Z</time>
      </trkpt>
      <trkpt lat="48.63558" lon="-2.41478">
        <ele>5.5</ele>
        <time>2021-07-27T16:02:33Z</time>
      </trkpt>
      <trkpt lat="48.6356" lon="-2.41482">
        <ele>5.5</ele>
        <time>2021-07-27T16:02:34Z</time>
      </trkpt>
      <trkpt lat="48.63562" lon="-2.41486">
        <ele>5.6</ele>
        <time>2021-07-27T16:02:35Z</time>
      </trkpt>
      <trkpt lat="48.63564" lon="-2.4149">
        <ele>5.6</ele>
        <time>2021-07-27T16:02:36Z</time>
      </trkpt>
      <trkpt lat="48.63566" lon="-2.41497">
        <ele>5.6</ele>
        <time>2021-07-27T16:02:38Z</time>
      </trkpt>
      <trkpt lat="48.63567" lon="-2.41501">
        <ele>5.7</ele>
        <time>2021-07-27T16:02:39Z</time>
      </trkpt>
      <trkpt lat="48.63568" lon="-2.41506">
        <ele>5.7</ele>
        <time>2021-07-27T16:02:40Z</time>
      </trkpt>
      <trkpt lat="48.63569" lon="-2.41511">
        <ele>5.7</ele>
        <time>2021-07-27T16:02:41Z</time>
      </trkpt>
      <trkpt lat="48.63569" lon="-2.41513">
        <ele>5.8</ele>
        <time>2021-07-27T16:02:43Z</time>
      </trkpt>
      <trkpt lat="48.63569" lon="-2.4151">
        <ele>5.8</ele>
        <time>2021-07-27T16:02:45Z</time>
      </trkpt>
      <trkpt lat="48.63569" lon="-2.41509">
        <ele>5.8</ele>
        <time>2021-07-27T16:02:47Z</time>
      </trkpt>
      <trkpt lat="48.63569" lon="-2.41509">
        <ele>5.8</ele>
        <time>2021-07-27T16:02:48Z</time>
      </trkpt>
      <trkpt lat="48.63569" lon="-2.41509">
        <ele>5.8</ele>
        <time>2021-07-27T16:02:50Z</time>
      </trkpt>
      <trkpt lat="48.63569" lon="-2.41509">
        <ele>5.8</ele>
        <time>2021-07-27T16:02:51Z</time>
      </trkpt>
      <trkpt lat="48.63569" lon="-2.41509">
        <ele>5.8</ele>
        <time>2021-07-27T16:02:53Z</time>
      </trkpt>
      <trkpt lat="48.6357" lon="-2.41507">
        <ele>5.8</ele>
        <time>2021-07-27T16:03:07Z</time>
      </trkpt>
      <trkpt lat="48.63572" lon="-2.41511">
        <ele>5.9</ele>
        <time>2021-07-27T16:03:08Z</time>
      </trkpt>
      <trkpt lat="48.63572" lon="-2.41516">
        <ele>5.9</ele>
        <time>2021-07-27T16:03:09Z</time>
      </trkpt>
      <trkpt lat="48.63574" lon="-2.41522">
        <ele>6</ele>
        <time>2021-07-27T16:03:10Z</time>
      </trkpt>
      <trkpt lat="48.63576" lon="-2.41528">
        <ele>6</ele>
        <time>2021-07-27T16:03:12Z</time>
      </trkpt>
      <trkpt lat="48.63577" lon="-2.41533">
        <ele>6.1</ele>
        <time>2021-07-27T16:03:13Z</time>
      </trkpt>
      <trkpt lat="48.63578" lon="-2.41537">
        <ele>6.1</ele>
        <time>2021-07-27T16:03:14Z</time>
      </trkpt>
      <trkpt lat="48.6358" lon="-2.41543">
        <ele>6.2</ele>
        <time>2021-07-27T16:03:15Z</time>
      </trkpt>
      <trkpt lat="48.63582" lon="-2.41546">
        <ele>6.2</ele>
        <time>2021-07-27T16:03:16Z</time>
      </trkpt>
      <trkpt lat="48.63584" lon="-2.41551">
        <ele>6.3</ele>
        <time>2021-07-27T16:03:18Z</time>
      </trkpt>
      <trkpt lat="48.63586" lon="-2.41557">
        <ele>6.4</ele>
        <time>2021-07-27T16:03:19Z</time>
      </trkpt>
      <trkpt lat="48.63588" lon="-2.41562">
        <ele>6.4</ele>
        <time>2021-07-27T16:03:21Z</time>
      </trkpt>
      <trkpt lat="48.6359" lon="-2.41567">
        <ele>6.5</ele>
        <time>2021-07-27T16:03:22Z</time>
      </trkpt>
      <trkpt lat="48.63592" lon="-2.41572">
        <ele>6.6</ele>
        <time>2021-07-27T16:03:23Z</time>
      </trkpt>
      <trkpt lat="48.63593" lon="-2.41573">
        <ele>6.6</ele>
        <time>2021-07-27T16:03:24Z</time>
      </trkpt>
      <trkpt lat="48.63595" lon="-2.41581">
        <ele>6.7</ele>
        <time>2021-07-27T16:03:26Z</time>
      </trkpt>
      <trkpt lat="48.63598" lon="-2.41588">
        <ele>6.8</ele>
        <time>2021-07-27T16:03:28Z</time>
      </trkpt>
      <trkpt lat="48.636" lon="-2.41593">
        <ele>7</ele>
        <time>2021-07-27T16:03:29Z</time>
      </trkpt>
      <trkpt lat="48.63602" lon="-2.41599">
        <ele>7.1</ele>
        <time>2021-07-27T16:03:30Z</time>
      </trkpt>
      <trkpt lat="48.63603" lon="-2.41605">
        <ele>7.3</ele>
        <time>2021-07-27T16:03:32Z</time>
      </trkpt>
      <trkpt lat="48.63605" lon="-2.41609">
        <ele>7.4</ele>
        <time>2021-07-27T16:03:33Z</time>
      </trkpt>
      <trkpt lat="48.63607" lon="-2.41613">
        <ele>7.5</ele>
        <time>2021-07-27T16:03:34Z</time>
      </trkpt>
      <trkpt lat="48.63609" lon="-2.41616">
        <ele>7.7</ele>
        <time>2021-07-27T16:03:35Z</time>
      </trkpt>
      <trkpt lat="48.63611" lon="-2.4162">
        <ele>7.8</ele>
        <time>2021-07-27T16:03:36Z</time>
      </trkpt>
      <trkpt lat="48.63613" lon="-2.41623">
        <ele>8</ele>
        <time>2021-07-27T16:03:37Z</time>
      </trkpt>
      <trkpt lat="48.63616" lon="-2.4163">
        <ele>8.3</ele>
        <time>2021-07-27T16:03:39Z</time>
      </trkpt>
      <trkpt lat="48.63617" lon="-2.41634">
        <ele>8.4</ele>
        <time>2021-07-27T16:03:40Z</time>
      </trkpt>
      <trkpt lat="48.6362" lon="-2.41639">
        <ele>8.6</ele>
        <time>2021-07-27T16:03:41Z</time>
      </trkpt>
      <trkpt lat="48.63622" lon="-2.41643">
        <ele>8.8</ele>
        <time>2021-07-27T16:03:43Z</time>
      </trkpt>
      <trkpt lat="48.63625" lon="-2.41648">
        <ele>9</ele>
        <time>2021-07-27T16:03:44Z</time>
      </trkpt>
      <trkpt lat="48.63628" lon="-2.41652">
        <ele>9.2</ele>
        <time>2021-07-27T16:03:46Z</time>
      </trkpt>
      <trkpt lat="48.63629" lon="-2.41654">
        <ele>9.3</ele>
        <time>2021-07-27T16:03:47Z</time>
      </trkpt>
      <trkpt lat="48.63631" lon="-2.41657">
        <ele>9.4</ele>
        <time>2021-07-27T16:03:48Z</time>
      </trkpt>
      <trkpt lat="48.63634" lon="-2.41662">
        <ele>9.6</ele>
        <time>2021-07-27T16:03:50Z</time>
      </trkpt>
      <trkpt lat="48.63636" lon="-2.41665">
        <ele>9.8</ele>
        <time>2021-07-27T16:03:51Z</time>
      </trkpt>
      <trkpt lat="48.63639" lon="-2.41669">
        <ele>10</ele>
        <time>2021-07-27T16:03:53Z</time>
      </trkpt>
      <trkpt lat="48.63641" lon="-2.41672">
        <ele>10.1</ele>
        <time>2021-07-27T16:03:54Z</time>
      </trkpt>
      <trkpt lat="48.63643" lon="-2.41675">
        <ele>10.3</ele>
        <time>2021-07-27T16:03:55Z</time>
      </trkpt>
      <trkpt lat="48.63645" lon="-2.41678">
        <ele>10.4</ele>
        <time>2021-07-27T16:03:56Z</time>
      </trkpt>
      <trkpt lat="48.63648" lon="-2.41683">
        <ele>10.6</ele>
        <time>2021-07-27T16:03:58Z</time>
      </trkpt>
      <trkpt lat="48.6365" lon="-2.41686">
        <ele>10.9</ele>
        <time>2021-07-27T16:03:59Z</time>
      </trkpt>
      <trkpt lat="48.63651" lon="-2.41688">
        <ele>10.9</ele>
        <time>2021-07-27T16:04:00Z</time>
      </trkpt>
      <trkpt lat="48.63655" lon="-2.41693">
        <ele>11.3</ele>
        <time>2021-07-27T16:04:02Z</time>
      </trkpt>
      <trkpt lat="48.63659" lon="-2.41699">
        <ele>11.6</ele>
        <time>2021-07-27T16:04:04Z</time>
      </trkpt>
      <trkpt lat="48.63662" lon="-2.41702">
        <ele>11.8</ele>
        <time>2021-07-27T16:04:05Z</time>
      </trkpt>
      <trkpt lat="48.63666" lon="-2.41707">
        <ele>12.2</ele>
        <time>2021-07-27T16:04:07Z</time>
      </trkpt>
      <trkpt lat="48.63668" lon="-2.4171">
        <ele>12.3</ele>
        <time>2021-07-27T16:04:08Z</time>
      </trkpt>
      <trkpt lat="48.6367" lon="-2.41716">
        <ele>12.6</ele>
        <time>2021-07-27T16:04:10Z</time>
      </trkpt>
      <trkpt lat="48.63672" lon="-2.4172">
        <ele>12.9</ele>
        <time>2021-07-27T16:04:11Z</time>
      </trkpt>
      <trkpt lat="48.63675" lon="-2.41725">
        <ele>13.1</ele>
        <time>2021-07-27T16:04:13Z</time>
      </trkpt>
      <trkpt lat="48.63679" lon="-2.41731">
        <ele>13.5</ele>
        <time>2021-07-27T16:04:15Z</time>
      </trkpt>
      <trkpt lat="48.63683" lon="-2.41736">
        <ele>13.8</ele>
        <time>2021-07-27T16:04:17Z</time>
      </trkpt>
      <trkpt lat="48.63686" lon="-2.4174">
        <ele>14</ele>
        <time>2021-07-27T16:04:18Z</time>
      </trkpt>
      <trkpt lat="48.63688" lon="-2.41744">
        <ele>14.3</ele>
        <time>2021-07-27T16:04:20Z</time>
      </trkpt>
      <trkpt lat="48.6369" lon="-2.41747">
        <ele>14.4</ele>
        <time>2021-07-27T16:04:21Z</time>
      </trkpt>
      <trkpt lat="48.63694" lon="-2.41753">
        <ele>14.8</ele>
        <time>2021-07-27T16:04:23Z</time>
      </trkpt>
      <trkpt lat="48.63696" lon="-2.41756">
        <ele>14.9</ele>
        <time>2021-07-27T16:04:24Z</time>
      </trkpt>
      <trkpt lat="48.637" lon="-2.41762">
        <ele>15.3</ele>
        <time>2021-07-27T16:04:26Z</time>
      </trkpt>
      <trkpt lat="48.63704" lon="-2.41768">
        <ele>15.7</ele>
        <time>2021-07-27T16:04:28Z</time>
      </trkpt>
      <trkpt lat="48.63706" lon="-2.41771">
        <ele>15.9</ele>
        <time>2021-07-27T16:04:29Z</time>
      </trkpt>
      <trkpt lat="48.63708" lon="-2.41774">
        <ele>16.1</ele>
        <time>2021-07-27T16:04:30Z</time>
      </trkpt>
      <trkpt lat="48.6371" lon="-2.41778">
        <ele>16.3</ele>
        <time>2021-07-27T16:04:31Z</time>
      </trkpt>
      <trkpt lat="48.63713" lon="-2.41783">
        <ele>16.6</ele>
        <time>2021-07-27T16:04:33Z</time>
      </trkpt>
      <trkpt lat="48.63715" lon="-2.41788">
        <ele>16.9</ele>
        <time>2021-07-27T16:04:34Z</time>
      </trkpt>
      <trkpt lat="48.63716" lon="-2.4179">
        <ele>17</ele>
        <time>2021-07-27T16:04:35Z</time>
      </trkpt>
      <trkpt lat="48.63719" lon="-2.41796">
        <ele>17.3</ele>
        <time>2021-07-27T16:04:37Z</time>
      </trkpt>
      <trkpt lat="48.63722" lon="-2.41802">
        <ele>17.7</ele>
        <time>2021-07-27T16:04:39Z</time>
      </trkpt>
      <trkpt lat="48.63725" lon="-2.41807">
        <ele>18</ele>
        <time>2021-07-27T16:04:40Z</time>
      </trkpt>
      <trkpt lat="48.63726" lon="-2.41808">
        <ele>18.1</ele>
        <time>2021-07-27T16:04:41Z</time>
      </trkpt>
      <trkpt lat="48.63728" lon="-2.41814">
        <ele>18.5</ele>
        <time>2021-07-27T16:04:43Z</time>
      </trkpt>
      <trkpt lat="48.63731" lon="-2.41821">
        <ele>18.8</ele>
        <time>2021-07-27T16:04:45Z</time>
      </trkpt>
      <trkpt lat="48.63733" lon="-2.41826">
        <ele>19.2</ele>
        <time>2021-07-27T16:04:46Z</time>
      </trkpt>
      <trkpt lat="48.63734" lon="-2.41827">
        <ele>19.3</ele>
        <time>2021-07-27T16:04:47Z</time>
      </trkpt>
      <trkpt lat="48.63736" lon="-2.41832">
        <ele>19.6</ele>
        <time>2021-07-27T16:04:48Z</time>
      </trkpt>
      <trkpt lat="48.63737" lon="-2.41834">
        <ele>19.7</ele>
        <time>2021-07-27T16:04:49Z</time>
      </trkpt>
      <trkpt lat="48.6374" lon="-2.41839">
        <ele>20</ele>
        <time>2021-07-27T16:04:51Z</time>
      </trkpt>
      <trkpt lat="48.63743" lon="-2.41844">
        <ele>20.2</ele>
        <time>2021-07-27T16:04:53Z</time>
      </trkpt>
      <trkpt lat="48.63746" lon="-2.41849">
        <ele>20.6</ele>
        <time>2021-07-27T16:04:54Z</time>
      </trkpt>
      <trkpt lat="48.63748" lon="-2.41853">
        <ele>21</ele>
        <time>2021-07-27T16:04:56Z</time>
      </trkpt>
      <trkpt lat="48.63749" lon="-2.41855">
        <ele>21.1</ele>
        <time>2021-07-27T16:04:57Z</time>
      </trkpt>
      <trkpt lat="48.63749" lon="-2.4186">
        <ele>21.4</ele>
        <time>2021-07-27T16:04:58Z</time>
      </trkpt>
      <trkpt lat="48.63749" lon="-2.41862">
        <ele>21.5</ele>
        <time>2021-07-27T16:04:59Z</time>
      </trkpt>
      <trkpt lat="48.63748" lon="-2.41866">
        <ele>21.8</ele>
        <time>2021-07-27T16:05:00Z</time>
      </trkpt>
      <trkpt lat="48.63748" lon="-2.41868">
        <ele>21.9</ele>
        <time>2021-07-27T16:05:02Z</time>
      </trkpt>
      <trkpt lat="48.63748" lon="-2.4187">
        <ele>22.1</ele>
        <time>2021-07-27T16:05:03Z</time>
      </trkpt>
      <trkpt lat="48.63748" lon="-2.41872">
        <ele>22.2</ele>
        <time>2021-07-27T16:05:04Z</time>
      </trkpt>
      <trkpt lat="48.63748" lon="-2.41876">
        <ele>22.5</ele>
        <time>2021-07-27T16:05:05Z</time>
      </trkpt>
      <trkpt lat="48.63748" lon="-2.41878">
        <ele>22.6</ele>
        <time>2021-07-27T16:05:06Z</time>
      </trkpt>
      <trkpt lat="48.63748" lon="-2.41881">
        <ele>22.9</ele>
        <time>2021-07-27T16:05:07Z</time>
      </trkpt>
      <trkpt lat="48.63748" lon="-2.41884">
        <ele>23</ele>
        <time>2021-07-27T16:05:09Z</time>
      </trkpt>
      <trkpt lat="48.63749" lon="-2.41885">
        <ele>23.2</ele>
        <time>2021-07-27T16:05:10Z</time>
      </trkpt>
      <trkpt lat="48.63749" lon="-2.41887">
        <ele>23.3</ele>
        <time>2021-07-27T16:05:12Z</time>
      </trkpt>
      <trkpt lat="48.6375" lon="-2.41892">
        <ele>23.7</ele>
        <time>2021-07-27T16:05:14Z</time>
      </trkpt>
      <trkpt lat="48.63751" lon="-2.41895">
        <ele>23.9</ele>
        <time>2021-07-27T16:05:15Z</time>
      </trkpt>
      <trkpt lat="48.63753" lon="-2.41903">
        <ele>24.7</ele>
        <time>2021-07-27T16:05:18Z</time>
      </trkpt>
      <trkpt lat="48.63754" lon="-2.41906">
        <ele>25</ele>
        <time>2021-07-27T16:05:19Z</time>
      </trkpt>
      <trkpt lat="48.63756" lon="-2.41911">
        <ele>25.6</ele>
        <time>2021-07-27T16:05:21Z</time>
      </trkpt>
      <trkpt lat="48.63758" lon="-2.41917">
        <ele>26.2</ele>
        <time>2021-07-27T16:05:23Z</time>
      </trkpt>
      <trkpt lat="48.63759" lon="-2.4192">
        <ele>26.6</ele>
        <time>2021-07-27T16:05:24Z</time>
      </trkpt>
      <trkpt lat="48.63759" lon="-2.41921">
        <ele>26.7</ele>
        <time>2021-07-27T16:05:26Z</time>
      </trkpt>
      <trkpt lat="48.63759" lon="-2.41922">
        <ele>26.8</ele>
        <time>2021-07-27T16:05:27Z</time>
      </trkpt>
      <trkpt lat="48.6376" lon="-2.41928">
        <ele>27.3</ele>
        <time>2021-07-27T16:05:29Z</time>
      </trkpt>
      <trkpt lat="48.63761" lon="-2.41929">
        <ele>27.5</ele>
        <time>2021-07-27T16:05:30Z</time>
      </trkpt>
      <trkpt lat="48.63762" lon="-2.41934">
        <ele>28</ele>
        <time>2021-07-27T16:05:32Z</time>
      </trkpt>
      <trkpt lat="48.63762" lon="-2.41936">
        <ele>28.2</ele>
        <time>2021-07-27T16:05:33Z</time>
      </trkpt>
      <trkpt lat="48.63763" lon="-2.4194">
        <ele>28.6</ele>
        <time>2021-07-27T16:05:35Z</time>
      </trkpt>
      <trkpt lat="48.63764" lon="-2.41941">
        <ele>28.7</ele>
        <time>2021-07-27T16:05:36Z</time>
      </trkpt>
      <trkpt lat="48.63765" lon="-2.41944">
        <ele>29.1</ele>
        <time>2021-07-27T16:05:38Z</time>
      </trkpt>
      <trkpt lat="48.63765" lon="-2.41946">
        <ele>29.3</ele>
        <time>2021-07-27T16:05:39Z</time>
      </trkpt>
      <trkpt lat="48.63766" lon="-2.41947">
        <ele>29.4</ele>
        <time>2021-07-27T16:05:40Z</time>
      </trkpt>
      <trkpt lat="48.63766" lon="-2.41949">
        <ele>29.6</ele>
        <time>2021-07-27T16:05:41Z</time>
      </trkpt>
      <trkpt lat="48.63767" lon="-2.41954">
        <ele>30.1</ele>
        <time>2021-07-27T16:05:43Z</time>
      </trkpt>
      <trkpt lat="48.63768" lon="-2.41955">
        <ele>30.3</ele>
        <time>2021-07-27T16:05:44Z</time>
      </trkpt>
      <trkpt lat="48.63769" lon="-2.41958">
        <ele>30.6</ele>
        <time>2021-07-27T16:05:45Z</time>
      </trkpt>
      <trkpt lat="48.63769" lon="-2.4196">
        <ele>30.8</ele>
        <time>2021-07-27T16:05:46Z</time>
      </trkpt>
      <trkpt lat="48.63771" lon="-2.41965">
        <ele>31.3</ele>
        <time>2021-07-27T16:05:48Z</time>
      </trkpt>
      <trkpt lat="48.63772" lon="-2.41967">
        <ele>31.6</ele>
        <time>2021-07-27T16:05:49Z</time>
      </trkpt>
      <trkpt lat="48.63773" lon="-2.41969">
        <ele>31.9</ele>
        <time>2021-07-27T16:05:51Z</time>
      </trkpt>
      <trkpt lat="48.63774" lon="-2.41972">
        <ele>32.2</ele>
        <time>2021-07-27T16:05:52Z</time>
      </trkpt>
      <trkpt lat="48.63776" lon="-2.41975">
        <ele>32.6</ele>
        <time>2021-07-27T16:05:54Z</time>
      </trkpt>
      <trkpt lat="48.63778" lon="-2.41979">
        <ele>33.1</ele>
        <time>2021-07-27T16:05:56Z</time>
      </trkpt>
      <trkpt lat="48.6378" lon="-2.41984">
        <ele>33.7</ele>
        <time>2021-07-27T16:05:57Z</time>
      </trkpt>
      <trkpt lat="48.63781" lon="-2.41986">
        <ele>34</ele>
        <time>2021-07-27T16:05:58Z</time>
      </trkpt>
      <trkpt lat="48.63782" lon="-2.41988">
        <ele>34.2</ele>
        <time>2021-07-27T16:05:59Z</time>
      </trkpt>
      <trkpt lat="48.63782" lon="-2.4199">
        <ele>34.4</ele>
        <time>2021-07-27T16:06:01Z</time>
      </trkpt>
      <trkpt lat="48.63783" lon="-2.41991">
        <ele>34.5</ele>
        <time>2021-07-27T16:06:02Z</time>
      </trkpt>
      <trkpt lat="48.63783" lon="-2.41992">
        <ele>34.6</ele>
        <time>2021-07-27T16:06:03Z</time>
      </trkpt>
      <trkpt lat="48.63784" lon="-2.41994">
        <ele>34.9</ele>
        <time>2021-07-27T16:06:05Z</time>
      </trkpt>
      <trkpt lat="48.63785" lon="-2.41997">
        <ele>35.2</ele>
        <time>2021-07-27T16:06:07Z</time>
      </trkpt>
      <trkpt lat="48.63786" lon="-2.41999">
        <ele>35.5</ele>
        <time>2021-07-27T16:06:09Z</time>
      </trkpt>
      <trkpt lat="48.63786" lon="-2.42001">
        <ele>35.8</ele>
        <time>2021-07-27T16:06:10Z</time>
      </trkpt>
      <trkpt lat="48.63788" lon="-2.42004">
        <ele>36.1</ele>
        <time>2021-07-27T16:06:11Z</time>
      </trkpt>
      <trkpt lat="48.6379" lon="-2.42012">
        <ele>37.1</ele>
        <time>2021-07-27T16:06:13Z</time>
      </trkpt>
      <trkpt lat="48.6379" lon="-2.42013">
        <ele>37.2</ele>
        <time>2021-07-27T16:06:15Z</time>
      </trkpt>
      <trkpt lat="48.6379" lon="-2.42013">
        <ele>37.3</ele>
        <time>2021-07-27T16:06:16Z</time>
      </trkpt>
      <trkpt lat="48.63792" lon="-2.42021">
        <ele>38.2</ele>
        <time>2021-07-27T16:06:18Z</time>
      </trkpt>
      <trkpt lat="48.63792" lon="-2.42025">
        <ele>38.6</ele>
        <time>2021-07-27T16:06:20Z</time>
      </trkpt>
      <trkpt lat="48.63792" lon="-2.42028">
        <ele>38.9</ele>
        <time>2021-07-27T16:06:22Z</time>
      </trkpt>
      <trkpt lat="48.63792" lon="-2.4203">
        <ele>39.1</ele>
        <time>2021-07-27T16:06:23Z</time>
      </trkpt>
      <trkpt lat="48.63792" lon="-2.42032">
        <ele>39.4</ele>
        <time>2021-07-27T16:06:24Z</time>
      </trkpt>
      <trkpt lat="48.63791" lon="-2.42036">
        <ele>39.8</ele>
        <time>2021-07-27T16:06:26Z</time>
      </trkpt>
      <trkpt lat="48.63791" lon="-2.4204">
        <ele>40.1</ele>
        <time>2021-07-27T16:06:27Z</time>
      </trkpt>
      <trkpt lat="48.6379" lon="-2.42046">
        <ele>40.5</ele>
        <time>2021-07-27T16:06:29Z</time>
      </trkpt>
      <trkpt lat="48.6379" lon="-2.42051">
        <ele>40.9</ele>
        <time>2021-07-27T16:06:31Z</time>
      </trkpt>
      <trkpt lat="48.63789" lon="-2.42054">
        <ele>41.1</ele>
        <time>2021-07-27T16:06:32Z</time>
      </trkpt>
      <trkpt lat="48.63789" lon="-2.4206">
        <ele>41.5</ele>
        <time>2021-07-27T16:06:34Z</time>
      </trkpt>
      <trkpt lat="48.63788" lon="-2.42062">
        <ele>41.7</ele>
        <time>2021-07-27T16:06:35Z</time>
      </trkpt>
      <trkpt lat="48.63787" lon="-2.42065">
        <ele>41.9</ele>
        <time>2021-07-27T16:06:37Z</time>
      </trkpt>
      <trkpt lat="48.63786" lon="-2.42065">
        <ele>41.9</ele>
        <time>2021-07-27T16:06:38Z</time>
      </trkpt>
      <trkpt lat="48.63786" lon="-2.42067">
        <ele>42.1</ele>
        <time>2021-07-27T16:06:39Z</time>
      </trkpt>
      <trkpt lat="48.63786" lon="-2.42067">
        <ele>42.1</ele>
        <time>2021-07-27T16:06:41Z</time>
      </trkpt>
      <trkpt lat="48.63785" lon="-2.42069">
        <ele>42.2</ele>
        <time>2021-07-27T16:06:43Z</time>
      </trkpt>
      <trkpt lat="48.63785" lon="-2.42069">
        <ele>42.3</ele>
        <time>2021-07-27T16:06:44Z</time>
      </trkpt>
      <trkpt lat="48.63785" lon="-2.4207">
        <ele>42.3</ele>
        <time>2021-07-27T16:06:46Z</time>
      </trkpt>
      <trkpt lat="48.63784" lon="-2.42071">
        <ele>42.3</ele>
        <time>2021-07-27T16:06:47Z</time>
      </trkpt>
      <trkpt lat="48.63784" lon="-2.42072">
        <ele>42.4</ele>
        <time>2021-07-27T16:06:49Z</time>
      </trkpt>
      <trkpt lat="48.63784" lon="-2.42073">
        <ele>42.5</ele>
        <time>2021-07-27T16:06:54Z</time>
      </trkpt>
      <trkpt lat="48.63783" lon="-2.42075">
        <ele>42.6</ele>
        <time>2021-07-27T16:06:56Z</time>
      </trkpt>
      <trkpt lat="48.63782" lon="-2.42077">
        <ele>42.8</ele>
        <time>2021-07-27T16:06:57Z</time>
      </trkpt>
      <trkpt lat="48.63781" lon="-2.42079">
        <ele>42.9</ele>
        <time>2021-07-27T16:06:58Z</time>
      </trkpt>
      <trkpt lat="48.63779" lon="-2.42085">
        <ele>43.4</ele>
        <time>2021-07-27T16:07:00Z</time>
      </trkpt>
      <trkpt lat="48.63777" lon="-2.42088">
        <ele>43.6</ele>
        <time>2021-07-27T16:07:01Z</time>
      </trkpt>
      <trkpt lat="48.63776" lon="-2.42091">
        <ele>43.9</ele>
        <time>2021-07-27T16:07:03Z</time>
      </trkpt>
      <trkpt lat="48.63775" lon="-2.42095">
        <ele>44.1</ele>
        <time>2021-07-27T16:07:04Z</time>
      </trkpt>
      <trkpt lat="48.63773" lon="-2.42101">
        <ele>44.6</ele>
        <time>2021-07-27T16:07:06Z</time>
      </trkpt>
      <trkpt lat="48.63771" lon="-2.42107">
        <ele>45</ele>
        <time>2021-07-27T16:07:07Z</time>
      </trkpt>
      <trkpt lat="48.6377" lon="-2.42109">
        <ele>45.1</ele>
        <time>2021-07-27T16:07:08Z</time>
      </trkpt>
      <trkpt lat="48.6377" lon="-2.42112">
        <ele>45.3</ele>
        <time>2021-07-27T16:07:09Z</time>
      </trkpt>
      <trkpt lat="48.63768" lon="-2.42115">
        <ele>45.6</ele>
        <time>2021-07-27T16:07:11Z</time>
      </trkpt>
      <trkpt lat="48.63767" lon="-2.42119">
        <ele>45.9</ele>
        <time>2021-07-27T16:07:13Z</time>
      </trkpt>
      <trkpt lat="48.63766" lon="-2.42121">
        <ele>46.1</ele>
        <time>2021-07-27T16:07:14Z</time>
      </trkpt>
      <trkpt lat="48.63766" lon="-2.42125">
        <ele>46.4</ele>
        <time>2021-07-27T16:07:16Z</time>
      </trkpt>
      <trkpt lat="48.63764" lon="-2.42129">
        <ele>46.7</ele>
        <time>2021-07-27T16:07:17Z</time>
      </trkpt>
      <trkpt lat="48.63764" lon="-2.4213">
        <ele>46.8</ele>
        <time>2021-07-27T16:07:18Z</time>
      </trkpt>
      <trkpt lat="48.63761" lon="-2.42134">
        <ele>47.2</ele>
        <time>2021-07-27T16:07:20Z</time>
      </trkpt>
      <trkpt lat="48.6376" lon="-2.42135">
        <ele>47.4</ele>
        <time>2021-07-27T16:07:21Z</time>
      </trkpt>
      <trkpt lat="48.63757" lon="-2.42138">
        <ele>47.9</ele>
        <time>2021-07-27T16:07:22Z</time>
      </trkpt>
      <trkpt lat="48.63756" lon="-2.42139">
        <ele>48</ele>
        <time>2021-07-27T16:07:23Z</time>
      </trkpt>
      <trkpt lat="48.63754" lon="-2.4214">
        <ele>48.3</ele>
        <time>2021-07-27T16:07:25Z</time>
      </trkpt>
      <trkpt lat="48.63752" lon="-2.42143">
        <ele>48.8</ele>
        <time>2021-07-27T16:07:27Z</time>
      </trkpt>
      <trkpt lat="48.6375" lon="-2.42147">
        <ele>49.2</ele>
        <time>2021-07-27T16:07:28Z</time>
      </trkpt>
      <trkpt lat="48.63748" lon="-2.42149">
        <ele>49.6</ele>
        <time>2021-07-27T16:07:29Z</time>
      </trkpt>
      <trkpt lat="48.63746" lon="-2.42151">
        <ele>50</ele>
        <time>2021-07-27T16:07:31Z</time>
      </trkpt>
      <trkpt lat="48.63744" lon="-2.42154">
        <ele>50.4</ele>
        <time>2021-07-27T16:07:32Z</time>
      </trkpt>
      <trkpt lat="48.63743" lon="-2.42155">
        <ele>50.6</ele>
        <time>2021-07-27T16:07:33Z</time>
      </trkpt>
      <trkpt lat="48.63742" lon="-2.42157">
        <ele>51</ele>
        <time>2021-07-27T16:07:34Z</time>
      </trkpt>
      <trkpt lat="48.63741" lon="-2.42159">
        <ele>51.4</ele>
        <time>2021-07-27T16:07:36Z</time>
      </trkpt>
      <trkpt lat="48.63739" lon="-2.42162">
        <ele>51.8</ele>
        <time>2021-07-27T16:07:37Z</time>
      </trkpt>
      <trkpt lat="48.63738" lon="-2.42164">
        <ele>52.2</ele>
        <time>2021-07-27T16:07:39Z</time>
      </trkpt>
      <trkpt lat="48.63739" lon="-2.42169">
        <ele>52.9</ele>
        <time>2021-07-27T16:07:40Z</time>
      </trkpt>
      <trkpt lat="48.63739" lon="-2.42171">
        <ele>53.1</ele>
        <time>2021-07-27T16:07:41Z</time>
      </trkpt>
      <trkpt lat="48.63738" lon="-2.42173">
        <ele>53.5</ele>
        <time>2021-07-27T16:07:42Z</time>
      </trkpt>
      <trkpt lat="48.63737" lon="-2.42176">
        <ele>54.1</ele>
        <time>2021-07-27T16:07:44Z</time>
      </trkpt>
      <trkpt lat="48.63736" lon="-2.42179">
        <ele>54.6</ele>
        <time>2021-07-27T16:07:45Z</time>
      </trkpt>
      <trkpt lat="48.63736" lon="-2.42182">
        <ele>55</ele>
        <time>2021-07-27T16:07:47Z</time>
      </trkpt>
      <trkpt lat="48.63736" lon="-2.42186">
        <ele>55.6</ele>
        <time>2021-07-27T16:07:48Z</time>
      </trkpt>
      <trkpt lat="48.63735" lon="-2.42188">
        <ele>55.8</ele>
        <time>2021-07-27T16:07:49Z</time>
      </trkpt>
      <trkpt lat="48.63734" lon="-2.4219">
        <ele>56.2</ele>
        <time>2021-07-27T16:07:51Z</time>
      </trkpt>
      <trkpt lat="48.63734" lon="-2.42195">
        <ele>56.7</ele>
        <time>2021-07-27T16:07:53Z</time>
      </trkpt>
      <trkpt lat="48.63734" lon="-2.42199">
        <ele>57.1</ele>
        <time>2021-07-27T16:07:55Z</time>
      </trkpt>
      <trkpt lat="48.63735" lon="-2.42205">
        <ele>57.5</ele>
        <time>2021-07-27T16:07:57Z</time>
      </trkpt>
      <trkpt lat="48.63736" lon="-2.4221">
        <ele>57.9</ele>
        <time>2021-07-27T16:07:59Z</time>
      </trkpt>
      <trkpt lat="48.63737" lon="-2.42215">
        <ele>58.2</ele>
        <time>2021-07-27T16:08:00Z</time>
      </trkpt>
      <trkpt lat="48.63737" lon="-2.42217">
        <ele>58.2</ele>
        <time>2021-07-27T16:08:01Z</time>
      </trkpt>
      <trkpt lat="48.63739" lon="-2.42223">
        <ele>58.5</ele>
        <time>2021-07-27T16:08:03Z</time>
      </trkpt>
      <trkpt lat="48.6374" lon="-2.42228">
        <ele>58.7</ele>
        <time>2021-07-27T16:08:04Z</time>
      </trkpt>
      <trkpt lat="48.6374" lon="-2.42229">
        <ele>58.8</ele>
        <time>2021-07-27T16:08:05Z</time>
      </trkpt>
      <trkpt lat="48.6374" lon="-2.42235">
        <ele>58.9</ele>
        <time>2021-07-27T16:08:07Z</time>
      </trkpt>
      <trkpt lat="48.6374" lon="-2.42239">
        <ele>59</ele>
        <time>2021-07-27T16:08:08Z</time>
      </trkpt>
      <trkpt lat="48.6374" lon="-2.42245">
        <ele>59.2</ele>
        <time>2021-07-27T16:08:10Z</time>
      </trkpt>
      <trkpt lat="48.63741" lon="-2.42249">
        <ele>59.3</ele>
        <time>2021-07-27T16:08:11Z</time>
      </trkpt>
      <trkpt lat="48.63743" lon="-2.42253">
        <ele>59.4</ele>
        <time>2021-07-27T16:08:12Z</time>
      </trkpt>
      <trkpt lat="48.63745" lon="-2.42261">
        <ele>59.5</ele>
        <time>2021-07-27T16:08:14Z</time>
      </trkpt>
      <trkpt lat="48.63746" lon="-2.42269">
        <ele>59.5</ele>
        <time>2021-07-27T16:08:16Z</time>
      </trkpt>
      <trkpt lat="48.63747" lon="-2.42275">
        <ele>59.5</ele>
        <time>2021-07-27T16:08:17Z</time>
      </trkpt>
      <trkpt lat="48.63748" lon="-2.42285">
        <ele>59.4</ele>
        <time>2021-07-27T16:08:19Z</time>
      </trkpt>
      <trkpt lat="48.63749" lon="-2.42296">
        <ele>59.3</ele>
        <time>2021-07-27T16:08:21Z</time>
      </trkpt>
      <trkpt lat="48.63751" lon="-2.42306">
        <ele>59.2</ele>
        <time>2021-07-27T16:08:23Z</time>
      </trkpt>
      <trkpt lat="48.63751" lon="-2.42312">
        <ele>59.2</ele>
        <time>2021-07-27T16:08:24Z</time>
      </trkpt>
      <trkpt lat="48.63752" lon="-2.42319">
        <ele>59.1</ele>
        <time>2021-07-27T16:08:25Z</time>
      </trkpt>
      <trkpt lat="48.63754" lon="-2.42325">
        <ele>59</ele>
        <time>2021-07-27T16:08:26Z</time>
      </trkpt>
      <trkpt lat="48.63755" lon="-2.42337">
        <ele>58.9</ele>
        <time>2021-07-27T16:08:28Z</time>
      </trkpt>
      <trkpt lat="48.63756" lon="-2.42344">
        <ele>58.9</ele>
        <time>2021-07-27T16:08:29Z</time>
      </trkpt>
      <trkpt lat="48.63761" lon="-2.42355">
        <ele>58.8</ele>
        <time>2021-07-27T16:08:31Z</time>
      </trkpt>
      <trkpt lat="48.63761" lon="-2.42366">
        <ele>58.7</ele>
        <time>2021-07-27T16:08:33Z</time>
      </trkpt>
      <trkpt lat="48.63762" lon="-2.42374">
        <ele>58.7</ele>
        <time>2021-07-27T16:08:34Z</time>
      </trkpt>
      <trkpt lat="48.63765" lon="-2.42383">
        <ele>58.6</ele>
        <time>2021-07-27T16:08:36Z</time>
      </trkpt>
      <trkpt lat="48.63765" lon="-2.42387">
        <ele>58.6</ele>
        <time>2021-07-27T16:08:37Z</time>
      </trkpt>
      <trkpt lat="48.63768" lon="-2.42399">
        <ele>58.6</ele>
        <time>2021-07-27T16:08:39Z</time>
      </trkpt>
      <trkpt lat="48.6377" lon="-2.42411">
        <ele>58.6</ele>
        <time>2021-07-27T16:08:41Z</time>
      </trkpt>
      <trkpt lat="48.63773" lon="-2.42422">
        <ele>58.5</ele>
        <time>2021-07-27T16:08:43Z</time>
      </trkpt>
      <trkpt lat="48.63775" lon="-2.42432">
        <ele>58.4</ele>
        <time>2021-07-27T16:08:45Z</time>
      </trkpt>
      <trkpt lat="48.63777" lon="-2.42438">
        <ele>58.4</ele>
        <time>2021-07-27T16:08:46Z</time>
      </trkpt>
      <trkpt lat="48.63778" lon="-2.42445">
        <ele>58.3</ele>
        <time>2021-07-27T16:08:47Z</time>
      </trkpt>
      <trkpt lat="48.6378" lon="-2.42453">
        <ele>58.2</ele>
        <time>2021-07-27T16:08:49Z</time>
      </trkpt>
      <trkpt lat="48.63784" lon="-2.42463">
        <ele>58</ele>
        <time>2021-07-27T16:08:51Z</time>
      </trkpt>
      <trkpt lat="48.63786" lon="-2.42469">
        <ele>57.8</ele>
        <time>2021-07-27T16:08:52Z</time>
      </trkpt>
      <trkpt lat="48.63787" lon="-2.42475">
        <ele>57.7</ele>
        <time>2021-07-27T16:08:53Z</time>
      </trkpt>
      <trkpt lat="48.63791" lon="-2.42486">
        <ele>57.4</ele>
        <time>2021-07-27T16:08:55Z</time>
      </trkpt>
      <trkpt lat="48.63795" lon="-2.42499">
        <ele>57.2</ele>
        <time>2021-07-27T16:08:57Z</time>
      </trkpt>
      <trkpt lat="48.63798" lon="-2.42501">
        <ele>57.1</ele>
        <time>2021-07-27T16:08:59Z</time>
      </trkpt>
      <trkpt lat="48.63803" lon="-2.42522">
        <ele>56.7</ele>
        <time>2021-07-27T16:09:01Z</time>
      </trkpt>
      <trkpt lat="48.63805" lon="-2.4253">
        <ele>56.6</ele>
        <time>2021-07-27T16:09:02Z</time>
      </trkpt>
      <trkpt lat="48.63808" lon="-2.42543">
        <ele>56.5</ele>
        <time>2021-07-27T16:09:04Z</time>
      </trkpt>
      <trkpt lat="48.63809" lon="-2.42549">
        <ele>56.4</ele>
        <time>2021-07-27T16:09:05Z</time>
      </trkpt>
      <trkpt lat="48.63812" lon="-2.42555">
        <ele>56.4</ele>
        <time>2021-07-27T16:09:07Z</time>
      </trkpt>
      <trkpt lat="48.63813" lon="-2.4256">
        <ele>56.4</ele>
        <time>2021-07-27T16:09:08Z</time>
      </trkpt>
      <trkpt lat="48.63816" lon="-2.42577">
        <ele>56.3</ele>
        <time>2021-07-27T16:09:10Z</time>
      </trkpt>
      <trkpt lat="48.63816" lon="-2.42582">
        <ele>56.3</ele>
        <time>2021-07-27T16:09:11Z</time>
      </trkpt>
      <trkpt lat="48.63817" lon="-2.42592">
        <ele>56.3</ele>
        <time>2021-07-27T16:09:12Z</time>
      </trkpt>
      <trkpt lat="48.63818" lon="-2.42602">
        <ele>56.3</ele>
        <time>2021-07-27T16:09:14Z</time>
      </trkpt>
      <trkpt lat="48.63819" lon="-2.42607">
        <ele>56.4</ele>
        <time>2021-07-27T16:09:15Z</time>
      </trkpt>
      <trkpt lat="48.6382" lon="-2.42613">
        <ele>56.4</ele>
        <time>2021-07-27T16:09:16Z</time>
      </trkpt>
      <trkpt lat="48.63822" lon="-2.42629">
        <ele>56.4</ele>
        <time>2021-07-27T16:09:18Z</time>
      </trkpt>
      <trkpt lat="48.63823" lon="-2.42638">
        <ele>56.5</ele>
        <time>2021-07-27T16:09:19Z</time>
      </trkpt>
      <trkpt lat="48.63824" lon="-2.42645">
        <ele>56.5</ele>
        <time>2021-07-27T16:09:20Z</time>
      </trkpt>
      <trkpt lat="48.63825" lon="-2.42656">
        <ele>56.6</ele>
        <time>2021-07-27T16:09:22Z</time>
      </trkpt>
      <trkpt lat="48.63828" lon="-2.42663">
        <ele>56.7</ele>
        <time>2021-07-27T16:09:23Z</time>
      </trkpt>
      <trkpt lat="48.63832" lon="-2.42674">
        <ele>56.9</ele>
        <time>2021-07-27T16:09:25Z</time>
      </trkpt>
      <trkpt lat="48.63834" lon="-2.42686">
        <ele>57.4</ele>
        <time>2021-07-27T16:09:27Z</time>
      </trkpt>
      <trkpt lat="48.63835" lon="-2.42698">
        <ele>57.9</ele>
        <time>2021-07-27T16:09:29Z</time>
      </trkpt>
      <trkpt lat="48.63838" lon="-2.42705">
        <ele>58.2</ele>
        <time>2021-07-27T16:09:31Z</time>
      </trkpt>
      <trkpt lat="48.63839" lon="-2.42711">
        <ele>58.5</ele>
        <time>2021-07-27T16:09:33Z</time>
      </trkpt>
      <trkpt lat="48.63842" lon="-2.42716">
        <ele>58.7</ele>
        <time>2021-07-27T16:09:35Z</time>
      </trkpt>
      <trkpt lat="48.63844" lon="-2.42717">
        <ele>58.8</ele>
        <time>2021-07-27T16:09:36Z</time>
      </trkpt>
      <trkpt lat="48.63847" lon="-2.42715">
        <ele>59</ele>
        <time>2021-07-27T16:09:38Z</time>
      </trkpt>
      <trkpt lat="48.63852" lon="-2.42712">
        <ele>58.8</ele>
        <time>2021-07-27T16:09:40Z</time>
      </trkpt>
      <trkpt lat="48.63856" lon="-2.42707">
        <ele>58.6</ele>
        <time>2021-07-27T16:09:42Z</time>
      </trkpt>
      <trkpt lat="48.63858" lon="-2.42705">
        <ele>58.5</ele>
        <time>2021-07-27T16:09:43Z</time>
      </trkpt>
      <trkpt lat="48.63863" lon="-2.42699">
        <ele>58.3</ele>
        <time>2021-07-27T16:09:45Z</time>
      </trkpt>
      <trkpt lat="48.63869" lon="-2.42691">
        <ele>58.1</ele>
        <time>2021-07-27T16:09:47Z</time>
      </trkpt>
      <trkpt lat="48.63872" lon="-2.42687">
        <ele>57.9</ele>
        <time>2021-07-27T16:09:48Z</time>
      </trkpt>
      <trkpt lat="48.6388" lon="-2.42676">
        <ele>57.7</ele>
        <time>2021-07-27T16:09:50Z</time>
      </trkpt>
      <trkpt lat="48.63883" lon="-2.4267">
        <ele>57.5</ele>
        <time>2021-07-27T16:09:51Z</time>
      </trkpt>
      <trkpt lat="48.63891" lon="-2.4266">
        <ele>57.3</ele>
        <time>2021-07-27T16:09:53Z</time>
      </trkpt>
      <trkpt lat="48.63894" lon="-2.42654">
        <ele>57.2</ele>
        <time>2021-07-27T16:09:54Z</time>
      </trkpt>
      <trkpt lat="48.63896" lon="-2.42649">
        <ele>57.2</ele>
        <time>2021-07-27T16:09:55Z</time>
      </trkpt>
      <trkpt lat="48.63899" lon="-2.42641">
        <ele>57.1</ele>
        <time>2021-07-27T16:09:56Z</time>
      </trkpt>
      <trkpt lat="48.63903" lon="-2.42633">
        <ele>57.1</ele>
        <time>2021-07-27T16:09:58Z</time>
      </trkpt>
      <trkpt lat="48.63912" lon="-2.42627">
        <ele>56.9</ele>
        <time>2021-07-27T16:10:00Z</time>
      </trkpt>
      <trkpt lat="48.63916" lon="-2.42625">
        <ele>56.9</ele>
        <time>2021-07-27T16:10:01Z</time>
      </trkpt>
      <trkpt lat="48.63927" lon="-2.42623">
        <ele>56.7</ele>
        <time>2021-07-27T16:10:03Z</time>
      </trkpt>
      <trkpt lat="48.63937" lon="-2.42617">
        <ele>56.5</ele>
        <time>2021-07-27T16:10:05Z</time>
      </trkpt>
      <trkpt lat="48.63947" lon="-2.42611">
        <ele>56.2</ele>
        <time>2021-07-27T16:10:07Z</time>
      </trkpt>
      <trkpt lat="48.63952" lon="-2.42608">
        <ele>56</ele>
        <time>2021-07-27T16:10:08Z</time>
      </trkpt>
      <trkpt lat="48.63957" lon="-2.42604">
        <ele>55.8</ele>
        <time>2021-07-27T16:10:09Z</time>
      </trkpt>
      <trkpt lat="48.63966" lon="-2.42595">
        <ele>55.3</ele>
        <time>2021-07-27T16:10:11Z</time>
      </trkpt>
      <trkpt lat="48.63971" lon="-2.42591">
        <ele>55.1</ele>
        <time>2021-07-27T16:10:12Z</time>
      </trkpt>
      <trkpt lat="48.63981" lon="-2.42582">
        <ele>54.6</ele>
        <time>2021-07-27T16:10:14Z</time>
      </trkpt>
      <trkpt lat="48.63992" lon="-2.42573">
        <ele>54</ele>
        <time>2021-07-27T16:10:16Z</time>
      </trkpt>
      <trkpt lat="48.63998" lon="-2.42568">
        <ele>53.7</ele>
        <time>2021-07-27T16:10:17Z</time>
      </trkpt>
      <trkpt lat="48.64003" lon="-2.42563">
        <ele>53.4</ele>
        <time>2021-07-27T16:10:18Z</time>
      </trkpt>
      <trkpt lat="48.64016" lon="-2.42554">
        <ele>52.8</ele>
        <time>2021-07-27T16:10:20Z</time>
      </trkpt>
      <trkpt lat="48.64028" lon="-2.42543">
        <ele>52.1</ele>
        <time>2021-07-27T16:10:22Z</time>
      </trkpt>
      <trkpt lat="48.64034" lon="-2.42538">
        <ele>51.7</ele>
        <time>2021-07-27T16:10:23Z</time>
      </trkpt>
      <trkpt lat="48.6404" lon="-2.42532">
        <ele>51.3</ele>
        <time>2021-07-27T16:10:24Z</time>
      </trkpt>
      <trkpt lat="48.64052" lon="-2.4252">
        <ele>50.5</ele>
        <time>2021-07-27T16:10:26Z</time>
      </trkpt>
      <trkpt lat="48.64059" lon="-2.42515">
        <ele>50</ele>
        <time>2021-07-27T16:10:27Z</time>
      </trkpt>
      <trkpt lat="48.64072" lon="-2.42502">
        <ele>49.1</ele>
        <time>2021-07-27T16:10:29Z</time>
      </trkpt>
      <trkpt lat="48.64086" lon="-2.4249">
        <ele>48.2</ele>
        <time>2021-07-27T16:10:31Z</time>
      </trkpt>
      <trkpt lat="48.641" lon="-2.42476">
        <ele>47.3</ele>
        <time>2021-07-27T16:10:33Z</time>
      </trkpt>
      <trkpt lat="48.64106" lon="-2.42468">
        <ele>46.9</ele>
        <time>2021-07-27T16:10:34Z</time>
      </trkpt>
      <trkpt lat="48.64114" lon="-2.42462">
        <ele>46.5</ele>
        <time>2021-07-27T16:10:35Z</time>
      </trkpt>
      <trkpt lat="48.6413" lon="-2.42448">
        <ele>45.6</ele>
        <time>2021-07-27T16:10:37Z</time>
      </trkpt>
      <trkpt lat="48.64139" lon="-2.42443">
        <ele>45.1</ele>
        <time>2021-07-27T16:10:38Z</time>
      </trkpt>
      <trkpt lat="48.64148" lon="-2.42439">
        <ele>44.7</ele>
        <time>2021-07-27T16:10:39Z</time>
      </trkpt>
      <trkpt lat="48.64167" lon="-2.42432">
        <ele>43.9</ele>
        <time>2021-07-27T16:10:41Z</time>
      </trkpt>
      <trkpt lat="48.64176" lon="-2.42428">
        <ele>43.6</ele>
        <time>2021-07-27T16:10:42Z</time>
      </trkpt>
      <trkpt lat="48.64185" lon="-2.42424">
        <ele>43.4</ele>
        <time>2021-07-27T16:10:43Z</time>
      </trkpt>
      <trkpt lat="48.642" lon="-2.42412">
        <ele>43.3</ele>
        <time>2021-07-27T16:10:45Z</time>
      </trkpt>
      <trkpt lat="48.64205" lon="-2.42406">
        <ele>43.3</ele>
        <time>2021-07-27T16:10:46Z</time>
      </trkpt>
      <trkpt lat="48.6421" lon="-2.42402">
        <ele>43.3</ele>
        <time>2021-07-27T16:10:47Z</time>
      </trkpt>
      <trkpt lat="48.64215" lon="-2.424">
        <ele>43.3</ele>
        <time>2021-07-27T16:10:49Z</time>
      </trkpt>
      <trkpt lat="48.64216" lon="-2.42407">
        <ele>43.4</ele>
        <time>2021-07-27T16:10:51Z</time>
      </trkpt>
      <trkpt lat="48.64212" lon="-2.4241">
        <ele>43.4</ele>
        <time>2021-07-27T16:10:52Z</time>
      </trkpt>
      <trkpt lat="48.64206" lon="-2.42414">
        <ele>43.4</ele>
        <time>2021-07-27T16:10:54Z</time>
      </trkpt>
      <trkpt lat="48.64203" lon="-2.4242">
        <ele>43.5</ele>
        <time>2021-07-27T16:10:55Z</time>
      </trkpt>
      <trkpt lat="48.64205" lon="-2.42427">
        <ele>43.5</ele>
        <time>2021-07-27T16:10:56Z</time>
      </trkpt>
      <trkpt lat="48.64207" lon="-2.42436">
        <ele>43.6</ele>
        <time>2021-07-27T16:10:58Z</time>
      </trkpt>
      <trkpt lat="48.64212" lon="-2.42446">
        <ele>43.7</ele>
        <time>2021-07-27T16:11:00Z</time>
      </trkpt>
      <trkpt lat="48.64217" lon="-2.42454">
        <ele>43.8</ele>
        <time>2021-07-27T16:11:01Z</time>
      </trkpt>
      <trkpt lat="48.64222" lon="-2.42459">
        <ele>43.9</ele>
        <time>2021-07-27T16:11:03Z</time>
      </trkpt>
      <trkpt lat="48.64229" lon="-2.42466">
        <ele>44</ele>
        <time>2021-07-27T16:11:05Z</time>
      </trkpt>
      <trkpt lat="48.64233" lon="-2.42469">
        <ele>44.1</ele>
        <time>2021-07-27T16:11:06Z</time>
      </trkpt>
      <trkpt lat="48.64238" lon="-2.42474">
        <ele>44.3</ele>
        <time>2021-07-27T16:11:07Z</time>
      </trkpt>
      <trkpt lat="48.64242" lon="-2.42478">
        <ele>44.4</ele>
        <time>2021-07-27T16:11:09Z</time>
      </trkpt>
      <trkpt lat="48.64246" lon="-2.4248">
        <ele>44.5</ele>
        <time>2021-07-27T16:11:10Z</time>
      </trkpt>
      <trkpt lat="48.64251" lon="-2.42485">
        <ele>44.6</ele>
        <time>2021-07-27T16:11:12Z</time>
      </trkpt>
      <trkpt lat="48.64255" lon="-2.42489">
        <ele>44.7</ele>
        <time>2021-07-27T16:11:13Z</time>
      </trkpt>
      <trkpt lat="48.64257" lon="-2.42492">
        <ele>44.8</ele>
        <time>2021-07-27T16:11:14Z</time>
      </trkpt>
      <trkpt lat="48.64259" lon="-2.42496">
        <ele>44.9</ele>
        <time>2021-07-27T16:11:15Z</time>
      </trkpt>
      <trkpt lat="48.64263" lon="-2.42503">
        <ele>45</ele>
        <time>2021-07-27T16:11:17Z</time>
      </trkpt>
      <trkpt lat="48.64265" lon="-2.42507">
        <ele>45.1</ele>
        <time>2021-07-27T16:11:18Z</time>
      </trkpt>
      <trkpt lat="48.64268" lon="-2.42511">
        <ele>45.2</ele>
        <time>2021-07-27T16:11:19Z</time>
      </trkpt>
      <trkpt lat="48.64272" lon="-2.42514">
        <ele>45.2</ele>
        <time>2021-07-27T16:11:21Z</time>
      </trkpt>
      <trkpt lat="48.64273" lon="-2.42516">
        <ele>45.3</ele>
        <time>2021-07-27T16:11:22Z</time>
      </trkpt>
      <trkpt lat="48.64273" lon="-2.4252">
        <ele>45.3</ele>
        <time>2021-07-27T16:11:24Z</time>
      </trkpt>
      <trkpt lat="48.64272" lon="-2.42525">
        <ele>45.4</ele>
        <time>2021-07-27T16:11:26Z</time>
      </trkpt>
      <trkpt lat="48.64272" lon="-2.4253">
        <ele>45.4</ele>
        <time>2021-07-27T16:11:28Z</time>
      </trkpt>
      <trkpt lat="48.64273" lon="-2.42532">
        <ele>45.4</ele>
        <time>2021-07-27T16:11:29Z</time>
      </trkpt>
      <trkpt lat="48.64275" lon="-2.42534">
        <ele>45.5</ele>
        <time>2021-07-27T16:11:31Z</time>
      </trkpt>
      <trkpt lat="48.64276" lon="-2.42535">
        <ele>45.5</ele>
        <time>2021-07-27T16:11:32Z</time>
      </trkpt>
      <trkpt lat="48.64277" lon="-2.42537">
        <ele>45.5</ele>
        <time>2021-07-27T16:11:33Z</time>
      </trkpt>
      <trkpt lat="48.6428" lon="-2.42539">
        <ele>45.6</ele>
        <time>2021-07-27T16:11:35Z</time>
      </trkpt>
      <trkpt lat="48.64282" lon="-2.42541">
        <ele>45.6</ele>
        <time>2021-07-27T16:11:36Z</time>
      </trkpt>
      <trkpt lat="48.64286" lon="-2.42542">
        <ele>45.7</ele>
        <time>2021-07-27T16:11:38Z</time>
      </trkpt>
      <trkpt lat="48.64288" lon="-2.42546">
        <ele>45.7</ele>
        <time>2021-07-27T16:11:40Z</time>
      </trkpt>
      <trkpt lat="48.64289" lon="-2.42549">
        <ele>45.8</ele>
        <time>2021-07-27T16:11:41Z</time>
      </trkpt>
      <trkpt lat="48.64292" lon="-2.42554">
        <ele>45.8</ele>
        <time>2021-07-27T16:11:43Z</time>
      </trkpt>
      <trkpt lat="48.64293" lon="-2.42556">
        <ele>45.9</ele>
        <time>2021-07-27T16:11:44Z</time>
      </trkpt>
      <trkpt lat="48.64296" lon="-2.42561">
        <ele>45.9</ele>
        <time>2021-07-27T16:11:46Z</time>
      </trkpt>
      <trkpt lat="48.64298" lon="-2.42565">
        <ele>45.9</ele>
        <time>2021-07-27T16:11:48Z</time>
      </trkpt>
      <trkpt lat="48.64301" lon="-2.42566">
        <ele>46</ele>
        <time>2021-07-27T16:11:50Z</time>
      </trkpt>
      <trkpt lat="48.64303" lon="-2.42565">
        <ele>46</ele>
        <time>2021-07-27T16:11:51Z</time>
      </trkpt>
      <trkpt lat="48.64304" lon="-2.4257">
        <ele>46.1</ele>
        <time>2021-07-27T16:11:53Z</time>
      </trkpt>
      <trkpt lat="48.64301" lon="-2.42568">
        <ele>46.1</ele>
        <time>2021-07-27T16:11:54Z</time>
      </trkpt>
      <trkpt lat="48.64298" lon="-2.42564">
        <ele>46.1</ele>
        <time>2021-07-27T16:11:56Z</time>
      </trkpt>
      <trkpt lat="48.64297" lon="-2.42563">
        <ele>46.2</ele>
        <time>2021-07-27T16:11:57Z</time>
      </trkpt>
      <trkpt lat="48.64296" lon="-2.42563">
        <ele>46.2</ele>
        <time>2021-07-27T16:11:59Z</time>
      </trkpt>
      <trkpt lat="48.64295" lon="-2.42563">
        <ele>46.2</ele>
        <time>2021-07-27T16:12:00Z</time>
      </trkpt>
      <trkpt lat="48.64295" lon="-2.42563">
        <ele>46.2</ele>
        <time>2021-07-27T16:12:02Z</time>
      </trkpt>
      <trkpt lat="48.64295" lon="-2.42564">
        <ele>46.2</ele>
        <time>2021-07-27T16:12:04Z</time>
      </trkpt>
      <trkpt lat="48.64295" lon="-2.42564">
        <ele>46.2</ele>
        <time>2021-07-27T16:12:06Z</time>
      </trkpt>
      <trkpt lat="48.64424" lon="-2.42529">
        <ele>45</ele>
        <time>2021-07-27T16:29:25Z</time>
      </trkpt>
      <trkpt lat="48.64424" lon="-2.42529">
        <ele>45</ele>
        <time>2021-07-27T16:29:26Z</time>
      </trkpt>
      <trkpt lat="48.64424" lon="-2.42529">
        <ele>45</ele>
        <time>2021-07-27T16:29:28Z</time>
      </trkpt>
      <trkpt lat="48.64424" lon="-2.42529">
        <ele>45</ele>
        <time>2021-07-27T16:29:30Z</time>
      </trkpt>
      <trkpt lat="48.64424" lon="-2.42529">
        <ele>45</ele>
        <time>2021-07-27T16:29:32Z</time>
      </trkpt>
      <trkpt lat="48.64424" lon="-2.42529">
        <ele>45</ele>
        <time>2021-07-27T16:29:33Z</time>
      </trkpt>
      <trkpt lat="48.64424" lon="-2.42529">
        <ele>45</ele>
        <time>2021-07-27T16:29:34Z</time>
      </trkpt>
      <trkpt lat="48.64424" lon="-2.42529">
        <ele>45</ele>
        <time>2021-07-27T16:29:53Z</time>
      </trkpt>
      <trkpt lat="48.64424" lon="-2.42529">
        <ele>45</ele>
        <time>2021-07-27T16:29:54Z</time>
      </trkpt>
      <trkpt lat="48.64424" lon="-2.42529">
        <ele>45</ele>
        <time>2021-07-27T16:29:56Z</time>
      </trkpt>
      <trkpt lat="48.64424" lon="-2.42529">
        <ele>45</ele>
        <time>2021-07-27T16:29:57Z</time>
      </trkpt>
      <trkpt lat="48.64424" lon="-2.42529">
        <ele>45</ele>
        <time>2021-07-27T16:29:58Z</time>
      </trkpt>
      <trkpt lat="48.64424" lon="-2.42529">
        <ele>45</ele>
        <time>2021-07-27T16:29:59Z</time>
      </trkpt>
      <trkpt lat="48.64424" lon="-2.42529">
        <ele>45</ele>
        <time>2021-07-27T16:30:01Z</time>
      </trkpt>
      <trkpt lat="48.64424" lon="-2.42529">
        <ele>45</ele>
        <time>2021-07-27T16:30:02Z</time>
      </trkpt>
      <trkpt lat="48.64424" lon="-2.42529">
        <ele>45</ele>
        <time>2021-07-27T16:30:04Z</time>
      </trkpt>
      <trkpt lat="48.6442" lon="-2.4253">
        <ele>45.1</ele>
        <time>2021-07-27T16:31:14Z</time>
      </trkpt>
      <trkpt lat="48.64417" lon="-2.4253">
        <ele>45.2</ele>
        <time>2021-07-27T16:31:16Z</time>
      </trkpt>
      <trkpt lat="48.64417" lon="-2.4253">
        <ele>45.2</ele>
        <time>2021-07-27T16:31:18Z</time>
      </trkpt>
      <trkpt lat="48.64414" lon="-2.42529">
        <ele>45.4</ele>
        <time>2021-07-27T16:31:20Z</time>
      </trkpt>
      <trkpt lat="48.64413" lon="-2.42528">
        <ele>45.4</ele>
        <time>2021-07-27T16:31:21Z</time>
      </trkpt>
      <trkpt lat="48.64412" lon="-2.42527">
        <ele>45.3</ele>
        <time>2021-07-27T16:31:22Z</time>
      </trkpt>
      <trkpt lat="48.6441" lon="-2.42526">
        <ele>45.4</ele>
        <time>2021-07-27T16:31:24Z</time>
      </trkpt>
      <trkpt lat="48.64409" lon="-2.42526">
        <ele>45.4</ele>
        <time>2021-07-27T16:31:25Z</time>
      </trkpt>
      <trkpt lat="48.64407" lon="-2.42525">
        <ele>45.5</ele>
        <time>2021-07-27T16:31:26Z</time>
      </trkpt>
      <trkpt lat="48.64406" lon="-2.42528">
        <ele>45.5</ele>
        <time>2021-07-27T16:31:27Z</time>
      </trkpt>
      <trkpt lat="48.64405" lon="-2.42535">
        <ele>45.6</ele>
        <time>2021-07-27T16:31:29Z</time>
      </trkpt>
      <trkpt lat="48.64405" lon="-2.42542">
        <ele>45.8</ele>
        <time>2021-07-27T16:31:31Z</time>
      </trkpt>
      <trkpt lat="48.64405" lon="-2.42549">
        <ele>45.8</ele>
        <time>2021-07-27T16:31:32Z</time>
      </trkpt>
      <trkpt lat="48.64404" lon="-2.42551">
        <ele>45.9</ele>
        <time>2021-07-27T16:31:33Z</time>
      </trkpt>
      <trkpt lat="48.64403" lon="-2.42559">
        <ele>46.2</ele>
        <time>2021-07-27T16:31:35Z</time>
      </trkpt>
      <trkpt lat="48.64402" lon="-2.42564">
        <ele>46.3</ele>
        <time>2021-07-27T16:31:36Z</time>
      </trkpt>
      <trkpt lat="48.644" lon="-2.42569">
        <ele>46.4</ele>
        <time>2021-07-27T16:31:37Z</time>
      </trkpt>
      <trkpt lat="48.64399" lon="-2.42576">
        <ele>46.6</ele>
        <time>2021-07-27T16:31:38Z</time>
      </trkpt>
      <trkpt lat="48.64398" lon="-2.42582">
        <ele>46.7</ele>
        <time>2021-07-27T16:31:40Z</time>
      </trkpt>
      <trkpt lat="48.64396" lon="-2.4259">
        <ele>46.8</ele>
        <time>2021-07-27T16:31:41Z</time>
      </trkpt>
      <trkpt lat="48.64395" lon="-2.42595">
        <ele>46.8</ele>
        <time>2021-07-27T16:31:42Z</time>
      </trkpt>
      <trkpt lat="48.64393" lon="-2.42601">
        <ele>46.9</ele>
        <time>2021-07-27T16:31:44Z</time>
      </trkpt>
      <trkpt lat="48.64391" lon="-2.42606">
        <ele>46.9</ele>
        <time>2021-07-27T16:31:45Z</time>
      </trkpt>
      <trkpt lat="48.6439" lon="-2.42612">
        <ele>47</ele>
        <time>2021-07-27T16:31:46Z</time>
      </trkpt>
      <trkpt lat="48.64388" lon="-2.42619">
        <ele>47</ele>
        <time>2021-07-27T16:31:48Z</time>
      </trkpt>
      <trkpt lat="48.64384" lon="-2.42622">
        <ele>47</ele>
        <time>2021-07-27T16:31:49Z</time>
      </trkpt>
      <trkpt lat="48.6438" lon="-2.42622">
        <ele>46.9</ele>
        <time>2021-07-27T16:31:50Z</time>
      </trkpt>
      <trkpt lat="48.64376" lon="-2.42622">
        <ele>46.8</ele>
        <time>2021-07-27T16:31:52Z</time>
      </trkpt>
      <trkpt lat="48.6437" lon="-2.42622">
        <ele>46.8</ele>
        <time>2021-07-27T16:31:54Z</time>
      </trkpt>
      <trkpt lat="48.64367" lon="-2.42621">
        <ele>46.8</ele>
        <time>2021-07-27T16:31:55Z</time>
      </trkpt>
      <trkpt lat="48.64361" lon="-2.42618">
        <ele>46.8</ele>
        <time>2021-07-27T16:31:57Z</time>
      </trkpt>
      <trkpt lat="48.64358" lon="-2.42614">
        <ele>46.8</ele>
        <time>2021-07-27T16:31:58Z</time>
      </trkpt>
      <trkpt lat="48.64355" lon="-2.42609">
        <ele>46.8</ele>
        <time>2021-07-27T16:32:00Z</time>
      </trkpt>
      <trkpt lat="48.64352" lon="-2.42606">
        <ele>46.8</ele>
        <time>2021-07-27T16:32:01Z</time>
      </trkpt>
      <trkpt lat="48.64345" lon="-2.42601">
        <ele>46.8</ele>
        <time>2021-07-27T16:32:03Z</time>
      </trkpt>
      <trkpt lat="48.64343" lon="-2.42598">
        <ele>46.8</ele>
        <time>2021-07-27T16:32:04Z</time>
      </trkpt>
      <trkpt lat="48.64335" lon="-2.42594">
        <ele>46.7</ele>
        <time>2021-07-27T16:32:06Z</time>
      </trkpt>
      <trkpt lat="48.6433" lon="-2.42589">
        <ele>46.7</ele>
        <time>2021-07-27T16:32:07Z</time>
      </trkpt>
      <trkpt lat="48.64326" lon="-2.42586">
        <ele>46.6</ele>
        <time>2021-07-27T16:32:08Z</time>
      </trkpt>
      <trkpt lat="48.64318" lon="-2.42579">
        <ele>46.5</ele>
        <time>2021-07-27T16:32:10Z</time>
      </trkpt>
      <trkpt lat="48.64314" lon="-2.42576">
        <ele>46.5</ele>
        <time>2021-07-27T16:32:11Z</time>
      </trkpt>
      <trkpt lat="48.64307" lon="-2.42571">
        <ele>46.4</ele>
        <time>2021-07-27T16:32:13Z</time>
      </trkpt>
      <trkpt lat="48.643" lon="-2.42568">
        <ele>46.3</ele>
        <time>2021-07-27T16:32:14Z</time>
      </trkpt>
      <trkpt lat="48.64297" lon="-2.42564">
        <ele>46.2</ele>
        <time>2021-07-27T16:32:15Z</time>
      </trkpt>
      <trkpt lat="48.64294" lon="-2.42559">
        <ele>46.2</ele>
        <time>2021-07-27T16:32:17Z</time>
      </trkpt>
      <trkpt lat="48.64293" lon="-2.42558">
        <ele>46.1</ele>
        <time>2021-07-27T16:32:18Z</time>
      </trkpt>
      <trkpt lat="48.64292" lon="-2.42556">
        <ele>46.1</ele>
        <time>2021-07-27T16:32:19Z</time>
      </trkpt>
      <trkpt lat="48.64292" lon="-2.42558">
        <ele>46.1</ele>
        <time>2021-07-27T16:32:21Z</time>
      </trkpt>
      <trkpt lat="48.64291" lon="-2.42559">
        <ele>46.1</ele>
        <time>2021-07-27T16:32:23Z</time>
      </trkpt>
      <trkpt lat="48.6429" lon="-2.42558">
        <ele>46.1</ele>
        <time>2021-07-27T16:32:24Z</time>
      </trkpt>
      <trkpt lat="48.6429" lon="-2.42557">
        <ele>46.1</ele>
        <time>2021-07-27T16:32:25Z</time>
      </trkpt>
      <trkpt lat="48.64288" lon="-2.42556">
        <ele>46</ele>
        <time>2021-07-27T16:32:27Z</time>
      </trkpt>
      <trkpt lat="48.64287" lon="-2.42556">
        <ele>46</ele>
        <time>2021-07-27T16:32:29Z</time>
      </trkpt>
      <trkpt lat="48.64287" lon="-2.42556">
        <ele>46</ele>
        <time>2021-07-27T16:32:30Z</time>
      </trkpt>
      <trkpt lat="48.64285" lon="-2.42555">
        <ele>46</ele>
        <time>2021-07-27T16:32:31Z</time>
      </trkpt>
      <trkpt lat="48.64285" lon="-2.42554">
        <ele>46</ele>
        <time>2021-07-27T16:32:33Z</time>
      </trkpt>
      <trkpt lat="48.64284" lon="-2.42553">
        <ele>46</ele>
        <time>2021-07-27T16:32:34Z</time>
      </trkpt>
      <trkpt lat="48.64283" lon="-2.42552">
        <ele>46</ele>
        <time>2021-07-27T16:32:36Z</time>
      </trkpt>
      <trkpt lat="48.64283" lon="-2.42551">
        <ele>45.9</ele>
        <time>2021-07-27T16:32:38Z</time>
      </trkpt>
      <trkpt lat="48.64282" lon="-2.4255">
        <ele>45.9</ele>
        <time>2021-07-27T16:32:39Z</time>
      </trkpt>
      <trkpt lat="48.64281" lon="-2.42549">
        <ele>45.9</ele>
        <time>2021-07-27T16:32:40Z</time>
      </trkpt>
      <trkpt lat="48.64281" lon="-2.42548">
        <ele>45.9</ele>
        <time>2021-07-27T16:32:42Z</time>
      </trkpt>
      <trkpt lat="48.6428" lon="-2.42547">
        <ele>45.9</ele>
        <time>2021-07-27T16:33:10Z</time>
      </trkpt>
      <trkpt lat="48.64279" lon="-2.42546">
        <ele>45.9</ele>
        <time>2021-07-27T16:33:11Z</time>
      </trkpt>
      <trkpt lat="48.64279" lon="-2.42545">
        <ele>45.9</ele>
        <time>2021-07-27T16:33:12Z</time>
      </trkpt>
      <trkpt lat="48.6428" lon="-2.42539">
        <ele>45.8</ele>
        <time>2021-07-27T16:33:14Z</time>
      </trkpt>
      <trkpt lat="48.6428" lon="-2.42534">
        <ele>45.7</ele>
        <time>2021-07-27T16:33:15Z</time>
      </trkpt>
      <trkpt lat="48.64278" lon="-2.42525">
        <ele>45.6</ele>
        <time>2021-07-27T16:33:17Z</time>
      </trkpt>
      <trkpt lat="48.64276" lon="-2.42521">
        <ele>45.5</ele>
        <time>2021-07-27T16:33:18Z</time>
      </trkpt>
      <trkpt lat="48.64271" lon="-2.42512">
        <ele>45.4</ele>
        <time>2021-07-27T16:33:20Z</time>
      </trkpt>
      <trkpt lat="48.64268" lon="-2.42507">
        <ele>45.3</ele>
        <time>2021-07-27T16:33:21Z</time>
      </trkpt>
      <trkpt lat="48.64261" lon="-2.42499">
        <ele>45</ele>
        <time>2021-07-27T16:33:23Z</time>
      </trkpt>
      <trkpt lat="48.64258" lon="-2.42495">
        <ele>44.9</ele>
        <time>2021-07-27T16:33:24Z</time>
      </trkpt>
      <trkpt lat="48.64256" lon="-2.42491">
        <ele>44.8</ele>
        <time>2021-07-27T16:33:25Z</time>
      </trkpt>
      <trkpt lat="48.64251" lon="-2.42485">
        <ele>44.7</ele>
        <time>2021-07-27T16:33:27Z</time>
      </trkpt>
      <trkpt lat="48.64246" lon="-2.42481">
        <ele>44.5</ele>
        <time>2021-07-27T16:33:29Z</time>
      </trkpt>
      <trkpt lat="48.64239" lon="-2.42476">
        <ele>44.3</ele>
        <time>2021-07-27T16:33:31Z</time>
      </trkpt>
      <trkpt lat="48.64232" lon="-2.42471">
        <ele>44</ele>
        <time>2021-07-27T16:33:33Z</time>
      </trkpt>
      <trkpt lat="48.64226" lon="-2.42466">
        <ele>43.9</ele>
        <time>2021-07-27T16:33:34Z</time>
      </trkpt>
      <trkpt lat="48.64221" lon="-2.42459">
        <ele>43.8</ele>
        <time>2021-07-27T16:33:36Z</time>
      </trkpt>
      <trkpt lat="48.64219" lon="-2.42456">
        <ele>43.7</ele>
        <time>2021-07-27T16:33:37Z</time>
      </trkpt>
      <trkpt lat="48.64215" lon="-2.42451">
        <ele>43.6</ele>
        <time>2021-07-27T16:33:38Z</time>
      </trkpt>
      <trkpt lat="48.6421" lon="-2.42442">
        <ele>43.5</ele>
        <time>2021-07-27T16:33:40Z</time>
      </trkpt>
      <trkpt lat="48.64207" lon="-2.42431">
        <ele>43.4</ele>
        <time>2021-07-27T16:33:42Z</time>
      </trkpt>
      <trkpt lat="48.64205" lon="-2.42422">
        <ele>43.4</ele>
        <time>2021-07-27T16:33:44Z</time>
      </trkpt>
      <trkpt lat="48.64204" lon="-2.42418">
        <ele>43.3</ele>
        <time>2021-07-27T16:33:45Z</time>
      </trkpt>
      <trkpt lat="48.64203" lon="-2.42413">
        <ele>43.3</ele>
        <time>2021-07-27T16:33:46Z</time>
      </trkpt>
      <trkpt lat="48.64203" lon="-2.42412">
        <ele>43.3</ele>
        <time>2021-07-27T16:33:47Z</time>
      </trkpt>
      <trkpt lat="48.642" lon="-2.42411">
        <ele>43.3</ele>
        <time>2021-07-27T16:33:49Z</time>
      </trkpt>
      <trkpt lat="48.64196" lon="-2.42412">
        <ele>43.3</ele>
        <time>2021-07-27T16:33:50Z</time>
      </trkpt>
      <trkpt lat="48.64193" lon="-2.42414">
        <ele>43.3</ele>
        <time>2021-07-27T16:33:51Z</time>
      </trkpt>
      <trkpt lat="48.64187" lon="-2.42419">
        <ele>43.4</ele>
        <time>2021-07-27T16:33:53Z</time>
      </trkpt>
      <trkpt lat="48.64181" lon="-2.42424">
        <ele>43.5</ele>
        <time>2021-07-27T16:33:54Z</time>
      </trkpt>
      <trkpt lat="48.64177" lon="-2.42429">
        <ele>43.6</ele>
        <time>2021-07-27T16:33:56Z</time>
      </trkpt>
      <trkpt lat="48.6417" lon="-2.42434">
        <ele>43.8</ele>
        <time>2021-07-27T16:33:58Z</time>
      </trkpt>
      <trkpt lat="48.64164" lon="-2.42437">
        <ele>44</ele>
        <time>2021-07-27T16:34:00Z</time>
      </trkpt>
      <trkpt lat="48.64157" lon="-2.4244">
        <ele>44.3</ele>
        <time>2021-07-27T16:34:02Z</time>
      </trkpt>
      <trkpt lat="48.64154" lon="-2.42441">
        <ele>44.5</ele>
        <time>2021-07-27T16:34:03Z</time>
      </trkpt>
      <trkpt lat="48.64146" lon="-2.42442">
        <ele>44.7</ele>
        <time>2021-07-27T16:34:05Z</time>
      </trkpt>
      <trkpt lat="48.64143" lon="-2.42444">
        <ele>44.9</ele>
        <time>2021-07-27T16:34:06Z</time>
      </trkpt>
      <trkpt lat="48.6414" lon="-2.42446">
        <ele>45.1</ele>
        <time>2021-07-27T16:34:07Z</time>
      </trkpt>
      <trkpt lat="48.64134" lon="-2.42449">
        <ele>45.4</ele>
        <time>2021-07-27T16:34:09Z</time>
      </trkpt>
      <trkpt lat="48.64131" lon="-2.42451">
        <ele>45.6</ele>
        <time>2021-07-27T16:34:10Z</time>
      </trkpt>
      <trkpt lat="48.64127" lon="-2.42454">
        <ele>45.7</ele>
        <time>2021-07-27T16:34:11Z</time>
      </trkpt>
      <trkpt lat="48.64122" lon="-2.42459">
        <ele>46.1</ele>
        <time>2021-07-27T16:34:13Z</time>
      </trkpt>
      <trkpt lat="48.64117" lon="-2.42466">
        <ele>46.4</ele>
        <time>2021-07-27T16:34:15Z</time>
      </trkpt>
      <trkpt lat="48.64112" lon="-2.4247">
        <ele>46.7</ele>
        <time>2021-07-27T16:34:17Z</time>
      </trkpt>
      <trkpt lat="48.64108" lon="-2.42471">
        <ele>46.9</ele>
        <time>2021-07-27T16:34:18Z</time>
      </trkpt>
      <trkpt lat="48.64103" lon="-2.42472">
        <ele>47.2</ele>
        <time>2021-07-27T16:34:20Z</time>
      </trkpt>
      <trkpt lat="48.64101" lon="-2.42462">
        <ele>47.1</ele>
        <time>2021-07-27T16:34:21Z</time>
      </trkpt>
      <trkpt lat="48.64098" lon="-2.42453">
        <ele>47</ele>
        <time>2021-07-27T16:34:23Z</time>
      </trkpt>
      <trkpt lat="48.64096" lon="-2.42448">
        <ele>46.9</ele>
        <time>2021-07-27T16:34:24Z</time>
      </trkpt>
      <trkpt lat="48.64094" lon="-2.42437">
        <ele>46.7</ele>
        <time>2021-07-27T16:34:26Z</time>
      </trkpt>
      <trkpt lat="48.64092" lon="-2.42428">
        <ele>46.6</ele>
        <time>2021-07-27T16:34:27Z</time>
      </trkpt>
      <trkpt lat="48.6409" lon="-2.42418">
        <ele>46.4</ele>
        <time>2021-07-27T16:34:29Z</time>
      </trkpt>
      <trkpt lat="48.64089" lon="-2.42411">
        <ele>46.3</ele>
        <time>2021-07-27T16:34:30Z</time>
      </trkpt>
      <trkpt lat="48.64089" lon="-2.42397">
        <ele>45.9</ele>
        <time>2021-07-27T16:34:32Z</time>
      </trkpt>
      <trkpt lat="48.64089" lon="-2.42381">
        <ele>45.5</ele>
        <time>2021-07-27T16:34:34Z</time>
      </trkpt>
      <trkpt lat="48.64089" lon="-2.42373">
        <ele>45.3</ele>
        <time>2021-07-27T16:34:35Z</time>
      </trkpt>
      <trkpt lat="48.64091" lon="-2.42356">
        <ele>44.9</ele>
        <time>2021-07-27T16:34:37Z</time>
      </trkpt>
      <trkpt lat="48.64093" lon="-2.42347">
        <ele>44.6</ele>
        <time>2021-07-27T16:34:38Z</time>
      </trkpt>
      <trkpt lat="48.64094" lon="-2.42338">
        <ele>44.4</ele>
        <time>2021-07-27T16:34:39Z</time>
      </trkpt>
      <trkpt lat="48.64097" lon="-2.42319">
        <ele>44</ele>
        <time>2021-07-27T16:34:41Z</time>
      </trkpt>
      <trkpt lat="48.64098" lon="-2.42308">
        <ele>43.8</ele>
        <time>2021-07-27T16:34:42Z</time>
      </trkpt>
      <trkpt lat="48.64097" lon="-2.42298">
        <ele>43.7</ele>
        <time>2021-07-27T16:34:43Z</time>
      </trkpt>
      <trkpt lat="48.64094" lon="-2.42278">
        <ele>43.4</ele>
        <time>2021-07-27T16:34:45Z</time>
      </trkpt>
      <trkpt lat="48.64085" lon="-2.42263">
        <ele>43.3</ele>
        <time>2021-07-27T16:34:47Z</time>
      </trkpt>
      <trkpt lat="48.6408" lon="-2.42258">
        <ele>43.3</ele>
        <time>2021-07-27T16:34:48Z</time>
      </trkpt>
      <trkpt lat="48.64068" lon="-2.42249">
        <ele>43.3</ele>
        <time>2021-07-27T16:34:50Z</time>
      </trkpt>
      <trkpt lat="48.64062" lon="-2.42245">
        <ele>43.3</ele>
        <time>2021-07-27T16:34:51Z</time>
      </trkpt>
      <trkpt lat="48.64057" lon="-2.42241">
        <ele>43.4</ele>
        <time>2021-07-27T16:34:52Z</time>
      </trkpt>
      <trkpt lat="48.64045" lon="-2.42233">
        <ele>43.5</ele>
        <time>2021-07-27T16:34:54Z</time>
      </trkpt>
      <trkpt lat="48.64034" lon="-2.42226">
        <ele>43.7</ele>
        <time>2021-07-27T16:34:56Z</time>
      </trkpt>
      <trkpt lat="48.64023" lon="-2.42219">
        <ele>43.4</ele>
        <time>2021-07-27T16:34:58Z</time>
      </trkpt>
      <trkpt lat="48.64018" lon="-2.42216">
        <ele>43.2</ele>
        <time>2021-07-27T16:34:59Z</time>
      </trkpt>
      <trkpt lat="48.64005" lon="-2.42211">
        <ele>42.7</ele>
        <time>2021-07-27T16:35:01Z</time>
      </trkpt>
      <trkpt lat="48.63991" lon="-2.4221">
        <ele>42.2</ele>
        <time>2021-07-27T16:35:03Z</time>
      </trkpt>
      <trkpt lat="48.63978" lon="-2.42208">
        <ele>41.6</ele>
        <time>2021-07-27T16:35:05Z</time>
      </trkpt>
      <trkpt lat="48.63964" lon="-2.42205">
        <ele>41.1</ele>
        <time>2021-07-27T16:35:07Z</time>
      </trkpt>
      <trkpt lat="48.6395" lon="-2.422">
        <ele>40.6</ele>
        <time>2021-07-27T16:35:09Z</time>
      </trkpt>
      <trkpt lat="48.63944" lon="-2.42197">
        <ele>40.3</ele>
        <time>2021-07-27T16:35:10Z</time>
      </trkpt>
      <trkpt lat="48.63931" lon="-2.42189">
        <ele>39.7</ele>
        <time>2021-07-27T16:35:12Z</time>
      </trkpt>
      <trkpt lat="48.63925" lon="-2.42184">
        <ele>39.4</ele>
        <time>2021-07-27T16:35:13Z</time>
      </trkpt>
      <trkpt lat="48.63918" lon="-2.42177">
        <ele>39</ele>
        <time>2021-07-27T16:35:14Z</time>
      </trkpt>
      <trkpt lat="48.63908" lon="-2.42166">
        <ele>38.5</ele>
        <time>2021-07-27T16:35:16Z</time>
      </trkpt>
      <trkpt lat="48.63907" lon="-2.42162">
        <ele>38.4</ele>
        <time>2021-07-27T16:35:17Z</time>
      </trkpt>
      <trkpt lat="48.63907" lon="-2.4216">
        <ele>38.4</ele>
        <time>2021-07-27T16:35:18Z</time>
      </trkpt>
      <trkpt lat="48.63907" lon="-2.4216">
        <ele>38.3</ele>
        <time>2021-07-27T16:35:19Z</time>
      </trkpt>
      <trkpt lat="48.63907" lon="-2.4216">
        <ele>38.3</ele>
        <time>2021-07-27T16:35:21Z</time>
      </trkpt>
      <trkpt lat="48.63907" lon="-2.42161">
        <ele>38.3</ele>
        <time>2021-07-27T16:35:23Z</time>
      </trkpt>
      <trkpt lat="48.63907" lon="-2.42161">
        <ele>38.3</ele>
        <time>2021-07-27T16:35:24Z</time>
      </trkpt>
      <trkpt lat="48.63907" lon="-2.42161">
        <ele>38.3</ele>
        <time>2021-07-27T16:35:26Z</time>
      </trkpt>
      <trkpt lat="48.63907" lon="-2.42161">
        <ele>38.3</ele>
        <time>2021-07-27T16:35:27Z</time>
      </trkpt>
      <trkpt lat="48.63907" lon="-2.42161">
        <ele>38.3</ele>
        <time>2021-07-27T16:35:29Z</time>
      </trkpt>
      <trkpt lat="48.63902" lon="-2.42156">
        <ele>38</ele>
        <time>2021-07-27T16:35:51Z</time>
      </trkpt>
      <trkpt lat="48.639" lon="-2.42153">
        <ele>37.9</ele>
        <time>2021-07-27T16:35:52Z</time>
      </trkpt>
      <trkpt lat="48.63896" lon="-2.4215">
        <ele>37.7</ele>
        <time>2021-07-27T16:35:53Z</time>
      </trkpt>
      <trkpt lat="48.63886" lon="-2.42137">
        <ele>37.2</ele>
        <time>2021-07-27T16:35:55Z</time>
      </trkpt>
      <trkpt lat="48.63877" lon="-2.42126">
        <ele>36.6</ele>
        <time>2021-07-27T16:35:57Z</time>
      </trkpt>
      <trkpt lat="48.63868" lon="-2.42116">
        <ele>36.1</ele>
        <time>2021-07-27T16:35:59Z</time>
      </trkpt>
      <trkpt lat="48.63863" lon="-2.42111">
        <ele>35.8</ele>
        <time>2021-07-27T16:36:00Z</time>
      </trkpt>
      <trkpt lat="48.63853" lon="-2.421">
        <ele>35.1</ele>
        <time>2021-07-27T16:36:02Z</time>
      </trkpt>
      <trkpt lat="48.63841" lon="-2.4209">
        <ele>34.3</ele>
        <time>2021-07-27T16:36:04Z</time>
      </trkpt>
      <trkpt lat="48.63826" lon="-2.42084">
        <ele>33.4</ele>
        <time>2021-07-27T16:36:06Z</time>
      </trkpt>
      <trkpt lat="48.6382" lon="-2.42078">
        <ele>33</ele>
        <time>2021-07-27T16:36:07Z</time>
      </trkpt>
      <trkpt lat="48.63816" lon="-2.42068">
        <ele>32.5</ele>
        <time>2021-07-27T16:36:08Z</time>
      </trkpt>
      <trkpt lat="48.63813" lon="-2.42042">
        <ele>31.5</ele>
        <time>2021-07-27T16:36:10Z</time>
      </trkpt>
      <trkpt lat="48.63815" lon="-2.42017">
        <ele>30.5</ele>
        <time>2021-07-27T16:36:12Z</time>
      </trkpt>
      <trkpt lat="48.63817" lon="-2.42004">
        <ele>30</ele>
        <time>2021-07-27T16:36:13Z</time>
      </trkpt>
      <trkpt lat="48.63818" lon="-2.41992">
        <ele>29.6</ele>
        <time>2021-07-27T16:36:14Z</time>
      </trkpt>
      <trkpt lat="48.63815" lon="-2.41967">
        <ele>28.7</ele>
        <time>2021-07-27T16:36:16Z</time>
      </trkpt>
      <trkpt lat="48.63804" lon="-2.41948">
        <ele>27.6</ele>
        <time>2021-07-27T16:36:18Z</time>
      </trkpt>
      <trkpt lat="48.63797" lon="-2.41937">
        <ele>27</ele>
        <time>2021-07-27T16:36:19Z</time>
      </trkpt>
      <trkpt lat="48.63784" lon="-2.41916">
        <ele>25.6</ele>
        <time>2021-07-27T16:36:21Z</time>
      </trkpt>
      <trkpt lat="48.63777" lon="-2.41904">
        <ele>24.8</ele>
        <time>2021-07-27T16:36:22Z</time>
      </trkpt>
      <trkpt lat="48.63764" lon="-2.41882">
        <ele>23.2</ele>
        <time>2021-07-27T16:36:24Z</time>
      </trkpt>
      <trkpt lat="48.6375" lon="-2.41858">
        <ele>21.4</ele>
        <time>2021-07-27T16:36:26Z</time>
      </trkpt>
      <trkpt lat="48.63735" lon="-2.41833">
        <ele>19.5</ele>
        <time>2021-07-27T16:36:28Z</time>
      </trkpt>
      <trkpt lat="48.63728" lon="-2.41819">
        <ele>18.6</ele>
        <time>2021-07-27T16:36:29Z</time>
      </trkpt>
      <trkpt lat="48.63721" lon="-2.41806">
        <ele>17.8</ele>
        <time>2021-07-27T16:36:30Z</time>
      </trkpt>
      <trkpt lat="48.63707" lon="-2.41777">
        <ele>16.1</ele>
        <time>2021-07-27T16:36:32Z</time>
      </trkpt>
      <trkpt lat="48.63693" lon="-2.41751">
        <ele>14.7</ele>
        <time>2021-07-27T16:36:34Z</time>
      </trkpt>
      <trkpt lat="48.63686" lon="-2.41738">
        <ele>14</ele>
        <time>2021-07-27T16:36:35Z</time>
      </trkpt>
      <trkpt lat="48.63671" lon="-2.41714">
        <ele>12.6</ele>
        <time>2021-07-27T16:36:37Z</time>
      </trkpt>
      <trkpt lat="48.63664" lon="-2.41702">
        <ele>11.9</ele>
        <time>2021-07-27T16:36:38Z</time>
      </trkpt>
      <trkpt lat="48.63653" lon="-2.41684">
        <ele>10.9</ele>
        <time>2021-07-27T16:36:40Z</time>
      </trkpt>
      <trkpt lat="48.63641" lon="-2.41668">
        <ele>10</ele>
        <time>2021-07-27T16:36:42Z</time>
      </trkpt>
      <trkpt lat="48.63635" lon="-2.41659">
        <ele>9.6</ele>
        <time>2021-07-27T16:36:43Z</time>
      </trkpt>
      <trkpt lat="48.63622" lon="-2.41641">
        <ele>8.8</ele>
        <time>2021-07-27T16:36:45Z</time>
      </trkpt>
      <trkpt lat="48.63617" lon="-2.41632">
        <ele>8.3</ele>
        <time>2021-07-27T16:36:46Z</time>
      </trkpt>
      <trkpt lat="48.63607" lon="-2.41613">
        <ele>7.5</ele>
        <time>2021-07-27T16:36:48Z</time>
      </trkpt>
      <trkpt lat="48.63598" lon="-2.41594">
        <ele>6.9</ele>
        <time>2021-07-27T16:36:50Z</time>
      </trkpt>
      <trkpt lat="48.63594" lon="-2.41583">
        <ele>6.7</ele>
        <time>2021-07-27T16:36:51Z</time>
      </trkpt>
      <trkpt lat="48.63591" lon="-2.41573">
        <ele>6.6</ele>
        <time>2021-07-27T16:36:52Z</time>
      </trkpt>
      <trkpt lat="48.63587" lon="-2.41564">
        <ele>6.4</ele>
        <time>2021-07-27T16:36:53Z</time>
      </trkpt>
      <trkpt lat="48.63578" lon="-2.41547">
        <ele>6.2</ele>
        <time>2021-07-27T16:36:55Z</time>
      </trkpt>
      <trkpt lat="48.63574" lon="-2.41531">
        <ele>6</ele>
        <time>2021-07-27T16:36:57Z</time>
      </trkpt>
      <trkpt lat="48.63571" lon="-2.41517">
        <ele>5.9</ele>
        <time>2021-07-27T16:36:59Z</time>
      </trkpt>
      <trkpt lat="48.6357" lon="-2.41511">
        <ele>5.8</ele>
        <time>2021-07-27T16:37:00Z</time>
      </trkpt>
      <trkpt lat="48.63567" lon="-2.41499">
        <ele>5.7</ele>
        <time>2021-07-27T16:37:02Z</time>
      </trkpt>
      <trkpt lat="48.63564" lon="-2.41489">
        <ele>5.6</ele>
        <time>2021-07-27T16:37:04Z</time>
      </trkpt>
      <trkpt lat="48.63562" lon="-2.41483">
        <ele>5.6</ele>
        <time>2021-07-27T16:37:05Z</time>
      </trkpt>
      <trkpt lat="48.6356" lon="-2.41478">
        <ele>5.6</ele>
        <time>2021-07-27T16:37:06Z</time>
      </trkpt>
      <trkpt lat="48.63556" lon="-2.41466">
        <ele>5.5</ele>
        <time>2021-07-27T16:37:08Z</time>
      </trkpt>
      <trkpt lat="48.63552" lon="-2.4146">
        <ele>5.4</ele>
        <time>2021-07-27T16:37:10Z</time>
      </trkpt>
      <trkpt lat="48.63549" lon="-2.4146">
        <ele>5.4</ele>
        <time>2021-07-27T16:37:11Z</time>
      </trkpt>
      <trkpt lat="48.63545" lon="-2.41453">
        <ele>5.3</ele>
        <time>2021-07-27T16:37:12Z</time>
      </trkpt>
      <trkpt lat="48.63542" lon="-2.41443">
        <ele>5.2</ele>
        <time>2021-07-27T16:37:13Z</time>
      </trkpt>
      <trkpt lat="48.63542" lon="-2.41431">
        <ele>5.1</ele>
        <time>2021-07-27T16:37:15Z</time>
      </trkpt>
      <trkpt lat="48.63541" lon="-2.41421">
        <ele>5.1</ele>
        <time>2021-07-27T16:37:16Z</time>
      </trkpt>
      <trkpt lat="48.63537" lon="-2.41413">
        <ele>5</ele>
        <time>2021-07-27T16:37:18Z</time>
      </trkpt>
      <trkpt lat="48.63535" lon="-2.41408">
        <ele>5</ele>
        <time>2021-07-27T16:37:19Z</time>
      </trkpt>
      <trkpt lat="48.63532" lon="-2.41399">
        <ele>5</ele>
        <time>2021-07-27T16:37:21Z</time>
      </trkpt>
      <trkpt lat="48.6353" lon="-2.41392">
        <ele>4.9</ele>
        <time>2021-07-27T16:37:22Z</time>
      </trkpt>
      <trkpt lat="48.63529" lon="-2.41385">
        <ele>4.9</ele>
        <time>2021-07-27T16:37:24Z</time>
      </trkpt>
      <trkpt lat="48.63525" lon="-2.41374">
        <ele>4.8</ele>
        <time>2021-07-27T16:37:26Z</time>
      </trkpt>
      <trkpt lat="48.63522" lon="-2.41368">
        <ele>4.8</ele>
        <time>2021-07-27T16:37:28Z</time>
      </trkpt>
      <trkpt lat="48.6352" lon="-2.41363">
        <ele>4.8</ele>
        <time>2021-07-27T16:37:29Z</time>
      </trkpt>
      <trkpt lat="48.6352" lon="-2.41362">
        <ele>4.8</ele>
        <time>2021-07-27T16:37:30Z</time>
      </trkpt>
      <trkpt lat="48.6352" lon="-2.41358">
        <ele>4.8</ele>
        <time>2021-07-27T16:37:31Z</time>
      </trkpt>
      <trkpt lat="48.6352" lon="-2.41353">
        <ele>4.8</ele>
        <time>2021-07-27T16:37:33Z</time>
      </trkpt>
      <trkpt lat="48.63518" lon="-2.41349">
        <ele>4.8</ele>
        <time>2021-07-27T16:37:34Z</time>
      </trkpt>
      <trkpt lat="48.63518" lon="-2.41347">
        <ele>4.8</ele>
        <time>2021-07-27T16:37:35Z</time>
      </trkpt>
      <trkpt lat="48.63517" lon="-2.41342">
        <ele>4.8</ele>
        <time>2021-07-27T16:37:37Z</time>
      </trkpt>
      <trkpt lat="48.63517" lon="-2.4134">
        <ele>4.8</ele>
        <time>2021-07-27T16:37:38Z</time>
      </trkpt>
      <trkpt lat="48.63516" lon="-2.41337">
        <ele>4.8</ele>
        <time>2021-07-27T16:37:39Z</time>
      </trkpt>
      <trkpt lat="48.63515" lon="-2.41333">
        <ele>4.8</ele>
        <time>2021-07-27T16:37:41Z</time>
      </trkpt>
      <trkpt lat="48.63515" lon="-2.41331">
        <ele>4.8</ele>
        <time>2021-07-27T16:37:42Z</time>
      </trkpt>
      <trkpt lat="48.63514" lon="-2.41328">
        <ele>4.9</ele>
        <time>2021-07-27T16:37:43Z</time>
      </trkpt>
      <trkpt lat="48.63514" lon="-2.41326">
        <ele>4.9</ele>
        <time>2021-07-27T16:37:44Z</time>
      </trkpt>
      <trkpt lat="48.63513" lon="-2.41323">
        <ele>4.9</ele>
        <time>2021-07-27T16:37:45Z</time>
      </trkpt>
      <trkpt lat="48.63512" lon="-2.41319">
        <ele>4.9</ele>
        <time>2021-07-27T16:37:47Z</time>
      </trkpt>
      <trkpt lat="48.63512" lon="-2.41318">
        <ele>4.9</ele>
        <time>2021-07-27T16:37:48Z</time>
      </trkpt>
      <trkpt lat="48.63511" lon="-2.41315">
        <ele>4.9</ele>
        <time>2021-07-27T16:37:49Z</time>
      </trkpt>
      <trkpt lat="48.63511" lon="-2.41314">
        <ele>4.9</ele>
        <time>2021-07-27T16:37:51Z</time>
      </trkpt>
      <trkpt lat="48.6351" lon="-2.41312">
        <ele>4.9</ele>
        <time>2021-07-27T16:37:52Z</time>
      </trkpt>
      <trkpt lat="48.63509" lon="-2.41312">
        <ele>4.9</ele>
        <time>2021-07-27T16:37:53Z</time>
      </trkpt>
      <trkpt lat="48.63507" lon="-2.41311">
        <ele>5</ele>
        <time>2021-07-27T16:37:55Z</time>
      </trkpt>
      <trkpt lat="48.63507" lon="-2.41312">
        <ele>5</ele>
        <time>2021-07-27T16:37:56Z</time>
      </trkpt>
      <trkpt lat="48.63508" lon="-2.41312">
        <ele>5</ele>
        <time>2021-07-27T16:37:58Z</time>
      </trkpt>
      <trkpt lat="48.63508" lon="-2.41312">
        <ele>5</ele>
        <time>2021-07-27T16:37:59Z</time>
      </trkpt>
      <trkpt lat="48.63508" lon="-2.41312">
        <ele>5</ele>
        <time>2021-07-27T16:38:01Z</time>
      </trkpt>
      <trkpt lat="48.63508" lon="-2.41312">
        <ele>5</ele>
        <time>2021-07-27T16:38:02Z</time>
      </trkpt>
      <trkpt lat="48.63508" lon="-2.41311">
        <ele>5</ele>
        <time>2021-07-27T16:38:03Z</time>
      </trkpt>
      <trkpt lat="48.63508" lon="-2.41309">
        <ele>5</ele>
        <time>2021-07-27T16:38:05Z</time>
      </trkpt>
      <trkpt lat="48.63508" lon="-2.41307">
        <ele>5</ele>
        <time>2021-07-27T16:38:06Z</time>
      </trkpt>
      <trkpt lat="48.63507" lon="-2.41305">
        <ele>5.1</ele>
        <time>2021-07-27T16:38:07Z</time>
      </trkpt>
      <trkpt lat="48.63506" lon="-2.41303">
        <ele>5.1</ele>
        <time>2021-07-27T16:38:09Z</time>
      </trkpt>
      <trkpt lat="48.63505" lon="-2.41302">
        <ele>5.1</ele>
        <time>2021-07-27T16:38:10Z</time>
      </trkpt>
      <trkpt lat="48.63505" lon="-2.41301">
        <ele>5.1</ele>
        <time>2021-07-27T16:38:11Z</time>
      </trkpt>
      <trkpt lat="48.63503" lon="-2.41296">
        <ele>5.2</ele>
        <time>2021-07-27T16:38:13Z</time>
      </trkpt>
      <trkpt lat="48.63502" lon="-2.4129">
        <ele>5.2</ele>
        <time>2021-07-27T16:38:15Z</time>
      </trkpt>
      <trkpt lat="48.63501" lon="-2.41288">
        <ele>5.2</ele>
        <time>2021-07-27T16:38:16Z</time>
      </trkpt>
      <trkpt lat="48.635" lon="-2.41286">
        <ele>5.3</ele>
        <time>2021-07-27T16:38:17Z</time>
      </trkpt>
      <trkpt lat="48.63501" lon="-2.41282">
        <ele>5.3</ele>
        <time>2021-07-27T16:38:19Z</time>
      </trkpt>
      <trkpt lat="48.63501" lon="-2.4128">
        <ele>5.3</ele>
        <time>2021-07-27T16:38:20Z</time>
      </trkpt>
      <trkpt lat="48.63501" lon="-2.41275">
        <ele>5.4</ele>
        <time>2021-07-27T16:38:21Z</time>
      </trkpt>
      <trkpt lat="48.635" lon="-2.41271">
        <ele>5.4</ele>
        <time>2021-07-27T16:38:22Z</time>
      </trkpt>
      <trkpt lat="48.63498" lon="-2.41267">
        <ele>5.4</ele>
        <time>2021-07-27T16:38:24Z</time>
      </trkpt>
      <trkpt lat="48.63496" lon="-2.41264">
        <ele>5.5</ele>
        <time>2021-07-27T16:38:25Z</time>
      </trkpt>
      <trkpt lat="48.63494" lon="-2.41257">
        <ele>5.5</ele>
        <time>2021-07-27T16:38:27Z</time>
      </trkpt>
      <trkpt lat="48.63493" lon="-2.41252">
        <ele>5.6</ele>
        <time>2021-07-27T16:38:28Z</time>
      </trkpt>
      <trkpt lat="48.63492" lon="-2.41248">
        <ele>5.7</ele>
        <time>2021-07-27T16:38:29Z</time>
      </trkpt>
      <trkpt lat="48.6349" lon="-2.41243">
        <ele>5.7</ele>
        <time>2021-07-27T16:38:30Z</time>
      </trkpt>
      <trkpt lat="48.63489" lon="-2.41233">
        <ele>5.8</ele>
        <time>2021-07-27T16:38:32Z</time>
      </trkpt>
      <trkpt lat="48.63488" lon="-2.41227">
        <ele>5.9</ele>
        <time>2021-07-27T16:38:33Z</time>
      </trkpt>
      <trkpt lat="48.63486" lon="-2.41216">
        <ele>6</ele>
        <time>2021-07-27T16:38:35Z</time>
      </trkpt>
      <trkpt lat="48.63484" lon="-2.4121">
        <ele>6.1</ele>
        <time>2021-07-27T16:38:36Z</time>
      </trkpt>
      <trkpt lat="48.63482" lon="-2.41203">
        <ele>6.1</ele>
        <time>2021-07-27T16:38:37Z</time>
      </trkpt>
      <trkpt lat="48.63479" lon="-2.41195">
        <ele>6.2</ele>
        <time>2021-07-27T16:38:39Z</time>
      </trkpt>
      <trkpt lat="48.63477" lon="-2.41187">
        <ele>6.3</ele>
        <time>2021-07-27T16:38:40Z</time>
      </trkpt>
      <trkpt lat="48.63475" lon="-2.41179">
        <ele>6.4</ele>
        <time>2021-07-27T16:38:41Z</time>
      </trkpt>
      <trkpt lat="48.63473" lon="-2.41172">
        <ele>6.5</ele>
        <time>2021-07-27T16:38:43Z</time>
      </trkpt>
      <trkpt lat="48.63471" lon="-2.41165">
        <ele>6.5</ele>
        <time>2021-07-27T16:38:44Z</time>
      </trkpt>
      <trkpt lat="48.6347" lon="-2.41159">
        <ele>6.6</ele>
        <time>2021-07-27T16:38:45Z</time>
      </trkpt>
      <trkpt lat="48.63467" lon="-2.41149">
        <ele>6.7</ele>
        <time>2021-07-27T16:38:47Z</time>
      </trkpt>
      <trkpt lat="48.63466" lon="-2.41144">
        <ele>6.7</ele>
        <time>2021-07-27T16:38:48Z</time>
      </trkpt>
      <trkpt lat="48.63464" lon="-2.41138">
        <ele>6.8</ele>
        <time>2021-07-27T16:38:49Z</time>
      </trkpt>
      <trkpt lat="48.63462" lon="-2.41126">
        <ele>7</ele>
        <time>2021-07-27T16:38:51Z</time>
      </trkpt>
      <trkpt lat="48.63461" lon="-2.41119">
        <ele>7.1</ele>
        <time>2021-07-27T16:38:52Z</time>
      </trkpt>
      <trkpt lat="48.63461" lon="-2.41111">
        <ele>7.2</ele>
        <time>2021-07-27T16:38:53Z</time>
      </trkpt>
      <trkpt lat="48.63459" lon="-2.41103">
        <ele>7.4</ele>
        <time>2021-07-27T16:38:54Z</time>
      </trkpt>
      <trkpt lat="48.63457" lon="-2.41095">
        <ele>7.5</ele>
        <time>2021-07-27T16:38:56Z</time>
      </trkpt>
      <trkpt lat="48.63456" lon="-2.41089">
        <ele>7.6</ele>
        <time>2021-07-27T16:38:57Z</time>
      </trkpt>
      <trkpt lat="48.63454" lon="-2.41079">
        <ele>7.7</ele>
        <time>2021-07-27T16:38:58Z</time>
      </trkpt>
      <trkpt lat="48.63452" lon="-2.41072">
        <ele>7.8</ele>
        <time>2021-07-27T16:39:00Z</time>
      </trkpt>
      <trkpt lat="48.6345" lon="-2.41063">
        <ele>7.9</ele>
        <time>2021-07-27T16:39:01Z</time>
      </trkpt>
      <trkpt lat="48.63447" lon="-2.41055">
        <ele>8</ele>
        <time>2021-07-27T16:39:03Z</time>
      </trkpt>
      <trkpt lat="48.63446" lon="-2.4105">
        <ele>8.8</ele>
        <time>2021-07-27T16:39:04Z</time>
      </trkpt>
      <trkpt lat="48.63449" lon="-2.41045">
        <ele>8.8</ele>
        <time>2021-07-27T16:39:05Z</time>
      </trkpt>
      <trkpt lat="48.63452" lon="-2.41044">
        <ele>8.8</ele>
        <time>2021-07-27T16:39:07Z</time>
      </trkpt>
      <trkpt lat="48.63454" lon="-2.41044">
        <ele>8.8</ele>
        <time>2021-07-27T16:39:08Z</time>
      </trkpt>
      <trkpt lat="48.63457" lon="-2.41044">
        <ele>8.8</ele>
        <time>2021-07-27T16:39:10Z</time>
      </trkpt>
      <trkpt lat="48.63461" lon="-2.41042">
        <ele>8.8</ele>
        <time>2021-07-27T16:39:11Z</time>
      </trkpt>
      <trkpt lat="48.63465" lon="-2.41039">
        <ele>8.8</ele>
        <time>2021-07-27T16:39:12Z</time>
      </trkpt>
      <trkpt lat="48.63471" lon="-2.41033">
        <ele>8.8</ele>
        <time>2021-07-27T16:39:13Z</time>
      </trkpt>
      <trkpt lat="48.63476" lon="-2.41028">
        <ele>8.7</ele>
        <time>2021-07-27T16:39:15Z</time>
      </trkpt>
      <trkpt lat="48.63482" lon="-2.41021">
        <ele>8.7</ele>
        <time>2021-07-27T16:39:17Z</time>
      </trkpt>
      <trkpt lat="48.63487" lon="-2.41015">
        <ele>8.6</ele>
        <time>2021-07-27T16:39:18Z</time>
      </trkpt>
      <trkpt lat="48.63495" lon="-2.41005">
        <ele>8.6</ele>
        <time>2021-07-27T16:39:20Z</time>
      </trkpt>
      <trkpt lat="48.63498" lon="-2.40999">
        <ele>8.6</ele>
        <time>2021-07-27T16:39:21Z</time>
      </trkpt>
      <trkpt lat="48.63504" lon="-2.40987">
        <ele>8.6</ele>
        <time>2021-07-27T16:39:23Z</time>
      </trkpt>
      <trkpt lat="48.63507" lon="-2.40981">
        <ele>8.6</ele>
        <time>2021-07-27T16:39:24Z</time>
      </trkpt>
      <trkpt lat="48.63513" lon="-2.4097">
        <ele>8.6</ele>
        <time>2021-07-27T16:39:26Z</time>
      </trkpt>
      <trkpt lat="48.63516" lon="-2.40964">
        <ele>8.6</ele>
        <time>2021-07-27T16:39:27Z</time>
      </trkpt>
      <trkpt lat="48.63519" lon="-2.40959">
        <ele>8.6</ele>
        <time>2021-07-27T16:39:28Z</time>
      </trkpt>
      <trkpt lat="48.63526" lon="-2.4095">
        <ele>8.6</ele>
        <time>2021-07-27T16:39:30Z</time>
      </trkpt>
      <trkpt lat="48.63532" lon="-2.40939">
        <ele>8.6</ele>
        <time>2021-07-27T16:39:32Z</time>
      </trkpt>
      <trkpt lat="48.63536" lon="-2.40933">
        <ele>8.6</ele>
        <time>2021-07-27T16:39:33Z</time>
      </trkpt>
      <trkpt lat="48.63542" lon="-2.40925">
        <ele>8.7</ele>
        <time>2021-07-27T16:39:35Z</time>
      </trkpt>
      <trkpt lat="48.6355" lon="-2.40916">
        <ele>8.7</ele>
        <time>2021-07-27T16:39:37Z</time>
      </trkpt>
      <trkpt lat="48.63554" lon="-2.40918">
        <ele>8.7</ele>
        <time>2021-07-27T16:39:39Z</time>
      </trkpt>
      <trkpt lat="48.63563" lon="-2.409">
        <ele>8.7</ele>
        <time>2021-07-27T16:39:41Z</time>
      </trkpt>
      <trkpt lat="48.63572" lon="-2.4089">
        <ele>8.7</ele>
        <time>2021-07-27T16:39:43Z</time>
      </trkpt>
      <trkpt lat="48.63576" lon="-2.40886">
        <ele>8.7</ele>
        <time>2021-07-27T16:39:44Z</time>
      </trkpt>
      <trkpt lat="48.63583" lon="-2.40881">
        <ele>8.7</ele>
        <time>2021-07-27T16:39:46Z</time>
      </trkpt>
      <trkpt lat="48.63594" lon="-2.40875">
        <ele>8.8</ele>
        <time>2021-07-27T16:39:48Z</time>
      </trkpt>
      <trkpt lat="48.63598" lon="-2.40872">
        <ele>8.8</ele>
        <time>2021-07-27T16:39:49Z</time>
      </trkpt>
      <trkpt lat="48.63604" lon="-2.40867">
        <ele>8.8</ele>
        <time>2021-07-27T16:39:51Z</time>
      </trkpt>
      <trkpt lat="48.63606" lon="-2.40864">
        <ele>8.8</ele>
        <time>2021-07-27T16:39:52Z</time>
      </trkpt>
      <trkpt lat="48.63612" lon="-2.40856">
        <ele>8.9</ele>
        <time>2021-07-27T16:39:54Z</time>
      </trkpt>
      <trkpt lat="48.63621" lon="-2.40841">
        <ele>9</ele>
        <time>2021-07-27T16:39:56Z</time>
      </trkpt>
      <trkpt lat="48.63629" lon="-2.40833">
        <ele>9.1</ele>
        <time>2021-07-27T16:39:58Z</time>
      </trkpt>
      <trkpt lat="48.63633" lon="-2.40829">
        <ele>9.1</ele>
        <time>2021-07-27T16:39:59Z</time>
      </trkpt>
      <trkpt lat="48.63636" lon="-2.40824">
        <ele>9.1</ele>
        <time>2021-07-27T16:40:00Z</time>
      </trkpt>
      <trkpt lat="48.63639" lon="-2.4082">
        <ele>9.2</ele>
        <time>2021-07-27T16:40:01Z</time>
      </trkpt>
      <trkpt lat="48.63644" lon="-2.40817">
        <ele>9.2</ele>
        <time>2021-07-27T16:40:02Z</time>
      </trkpt>
      <trkpt lat="48.63647" lon="-2.40809">
        <ele>9.2</ele>
        <time>2021-07-27T16:40:04Z</time>
      </trkpt>
      <trkpt lat="48.63651" lon="-2.40805">
        <ele>9.3</ele>
        <time>2021-07-27T16:40:05Z</time>
      </trkpt>
      <trkpt lat="48.63654" lon="-2.408">
        <ele>9.3</ele>
        <time>2021-07-27T16:40:06Z</time>
      </trkpt>
      <trkpt lat="48.63659" lon="-2.40795">
        <ele>9.3</ele>
        <time>2021-07-27T16:40:07Z</time>
      </trkpt>
      <trkpt lat="48.63665" lon="-2.40789">
        <ele>9.4</ele>
        <time>2021-07-27T16:40:09Z</time>
      </trkpt>
      <trkpt lat="48.63668" lon="-2.40785">
        <ele>9.5</ele>
        <time>2021-07-27T16:40:10Z</time>
      </trkpt>
      <trkpt lat="48.63675" lon="-2.40778">
        <ele>9.6</ele>
        <time>2021-07-27T16:40:12Z</time>
      </trkpt>
      <trkpt lat="48.6368" lon="-2.40775">
        <ele>9.7</ele>
        <time>2021-07-27T16:40:13Z</time>
      </trkpt>
      <trkpt lat="48.63684" lon="-2.40771">
        <ele>9.8</ele>
        <time>2021-07-27T16:40:14Z</time>
      </trkpt>
      <trkpt lat="48.63691" lon="-2.40763">
        <ele>9.9</ele>
        <time>2021-07-27T16:40:16Z</time>
      </trkpt>
      <trkpt lat="48.63694" lon="-2.40759">
        <ele>10</ele>
        <time>2021-07-27T16:40:17Z</time>
      </trkpt>
      <trkpt lat="48.637" lon="-2.40749">
        <ele>10.1</ele>
        <time>2021-07-27T16:40:19Z</time>
      </trkpt>
      <trkpt lat="48.63706" lon="-2.40745">
        <ele>10.2</ele>
        <time>2021-07-27T16:40:21Z</time>
      </trkpt>
      <trkpt lat="48.63709" lon="-2.40743">
        <ele>10.3</ele>
        <time>2021-07-27T16:40:22Z</time>
      </trkpt>
      <trkpt lat="48.63711" lon="-2.4074">
        <ele>10.3</ele>
        <time>2021-07-27T16:40:23Z</time>
      </trkpt>
      <trkpt lat="48.63716" lon="-2.40736">
        <ele>10.4</ele>
        <time>2021-07-27T16:40:24Z</time>
      </trkpt>
      <trkpt lat="48.6372" lon="-2.40732">
        <ele>10.5</ele>
        <time>2021-07-27T16:40:25Z</time>
      </trkpt>
      <trkpt lat="48.63724" lon="-2.40728">
        <ele>10.5</ele>
        <time>2021-07-27T16:40:26Z</time>
      </trkpt>
      <trkpt lat="48.6373" lon="-2.4072">
        <ele>10.6</ele>
        <time>2021-07-27T16:40:28Z</time>
      </trkpt>
      <trkpt lat="48.63735" lon="-2.40715">
        <ele>10.7</ele>
        <time>2021-07-27T16:40:29Z</time>
      </trkpt>
      <trkpt lat="48.63739" lon="-2.40711">
        <ele>10.8</ele>
        <time>2021-07-27T16:40:30Z</time>
      </trkpt>
      <trkpt lat="48.63743" lon="-2.40707">
        <ele>10.9</ele>
        <time>2021-07-27T16:40:31Z</time>
      </trkpt>
      <trkpt lat="48.6375" lon="-2.40698">
        <ele>11.1</ele>
        <time>2021-07-27T16:40:33Z</time>
      </trkpt>
      <trkpt lat="48.63753" lon="-2.40692">
        <ele>11.2</ele>
        <time>2021-07-27T16:40:34Z</time>
      </trkpt>
      <trkpt lat="48.63759" lon="-2.40685">
        <ele>11.3</ele>
        <time>2021-07-27T16:40:36Z</time>
      </trkpt>
      <trkpt lat="48.63764" lon="-2.40681">
        <ele>11.5</ele>
        <time>2021-07-27T16:40:37Z</time>
      </trkpt>
      <trkpt lat="48.63769" lon="-2.40675">
        <ele>11.6</ele>
        <time>2021-07-27T16:40:39Z</time>
      </trkpt>
      <trkpt lat="48.63773" lon="-2.40669">
        <ele>11.9</ele>
        <time>2021-07-27T16:40:40Z</time>
      </trkpt>
      <trkpt lat="48.63779" lon="-2.40666">
        <ele>12</ele>
        <time>2021-07-27T16:40:41Z</time>
      </trkpt>
      <trkpt lat="48.63783" lon="-2.40663">
        <ele>12.1</ele>
        <time>2021-07-27T16:40:42Z</time>
      </trkpt>
      <trkpt lat="48.63791" lon="-2.40654">
        <ele>12.2</ele>
        <time>2021-07-27T16:40:44Z</time>
      </trkpt>
      <trkpt lat="48.63799" lon="-2.40645">
        <ele>12.3</ele>
        <time>2021-07-27T16:40:46Z</time>
      </trkpt>
      <trkpt lat="48.63803" lon="-2.4064">
        <ele>12.3</ele>
        <time>2021-07-27T16:40:47Z</time>
      </trkpt>
      <trkpt lat="48.6381" lon="-2.4063">
        <ele>12.4</ele>
        <time>2021-07-27T16:40:49Z</time>
      </trkpt>
      <trkpt lat="48.63817" lon="-2.40621">
        <ele>12.4</ele>
        <time>2021-07-27T16:40:51Z</time>
      </trkpt>
      <trkpt lat="48.63824" lon="-2.40613">
        <ele>12.4</ele>
        <time>2021-07-27T16:40:53Z</time>
      </trkpt>
      <trkpt lat="48.63829" lon="-2.40608">
        <ele>12.4</ele>
        <time>2021-07-27T16:40:54Z</time>
      </trkpt>
      <trkpt lat="48.63837" lon="-2.40601">
        <ele>12.4</ele>
        <time>2021-07-27T16:40:56Z</time>
      </trkpt>
      <trkpt lat="48.63838" lon="-2.40598">
        <ele>12.4</ele>
        <time>2021-07-27T16:40:57Z</time>
      </trkpt>
      <trkpt lat="48.63844" lon="-2.40587">
        <ele>12.5</ele>
        <time>2021-07-27T16:40:59Z</time>
      </trkpt>
      <trkpt lat="48.63847" lon="-2.40583">
        <ele>12.5</ele>
        <time>2021-07-27T16:41:00Z</time>
      </trkpt>
      <trkpt lat="48.6385" lon="-2.4058">
        <ele>12.5</ele>
        <time>2021-07-27T16:41:01Z</time>
      </trkpt>
      <trkpt lat="48.63852" lon="-2.40578">
        <ele>12.5</ele>
        <time>2021-07-27T16:41:02Z</time>
      </trkpt>
      <trkpt lat="48.63859" lon="-2.40574">
        <ele>12.5</ele>
        <time>2021-07-27T16:41:04Z</time>
      </trkpt>
      <trkpt lat="48.63864" lon="-2.40571">
        <ele>12.5</ele>
        <time>2021-07-27T16:41:05Z</time>
      </trkpt>
      <trkpt lat="48.63869" lon="-2.40565">
        <ele>12.6</ele>
        <time>2021-07-27T16:41:07Z</time>
      </trkpt>
      <trkpt lat="48.63876" lon="-2.40556">
        <ele>12.7</ele>
        <time>2021-07-27T16:41:09Z</time>
      </trkpt>
      <trkpt lat="48.63883" lon="-2.40546">
        <ele>12.8</ele>
        <time>2021-07-27T16:41:11Z</time>
      </trkpt>
      <trkpt lat="48.63887" lon="-2.40541">
        <ele>12.9</ele>
        <time>2021-07-27T16:41:12Z</time>
      </trkpt>
      <trkpt lat="48.63895" lon="-2.40532">
        <ele>13</ele>
        <time>2021-07-27T16:41:14Z</time>
      </trkpt>
      <trkpt lat="48.63899" lon="-2.40527">
        <ele>13</ele>
        <time>2021-07-27T16:41:15Z</time>
      </trkpt>
      <trkpt lat="48.63906" lon="-2.4052">
        <ele>13.1</ele>
        <time>2021-07-27T16:41:17Z</time>
      </trkpt>
      <trkpt lat="48.63909" lon="-2.40515">
        <ele>13.2</ele>
        <time>2021-07-27T16:41:18Z</time>
      </trkpt>
      <trkpt lat="48.63913" lon="-2.40512">
        <ele>13.2</ele>
        <time>2021-07-27T16:41:19Z</time>
      </trkpt>
      <trkpt lat="48.63918" lon="-2.40509">
        <ele>13.3</ele>
        <time>2021-07-27T16:41:20Z</time>
      </trkpt>
      <trkpt lat="48.63923" lon="-2.40504">
        <ele>13.4</ele>
        <time>2021-07-27T16:41:22Z</time>
      </trkpt>
      <trkpt lat="48.63928" lon="-2.40497">
        <ele>13.4</ele>
        <time>2021-07-27T16:41:23Z</time>
      </trkpt>
      <trkpt lat="48.63932" lon="-2.40493">
        <ele>13.5</ele>
        <time>2021-07-27T16:41:24Z</time>
      </trkpt>
      <trkpt lat="48.63936" lon="-2.40489">
        <ele>13.5</ele>
        <time>2021-07-27T16:41:25Z</time>
      </trkpt>
      <trkpt lat="48.63939" lon="-2.40483">
        <ele>13.3</ele>
        <time>2021-07-27T16:41:26Z</time>
      </trkpt>
      <trkpt lat="48.6394" lon="-2.40475">
        <ele>13</ele>
        <time>2021-07-27T16:41:28Z</time>
      </trkpt>
      <trkpt lat="48.63942" lon="-2.40465">
        <ele>13</ele>
        <time>2021-07-27T16:41:29Z</time>
      </trkpt>
      <trkpt lat="48.63943" lon="-2.40458">
        <ele>13</ele>
        <time>2021-07-27T16:41:31Z</time>
      </trkpt>
      <trkpt lat="48.63946" lon="-2.40451">
        <ele>13.1</ele>
        <time>2021-07-27T16:41:32Z</time>
      </trkpt>
      <trkpt lat="48.63949" lon="-2.40446">
        <ele>13.1</ele>
        <time>2021-07-27T16:41:33Z</time>
      </trkpt>
      <trkpt lat="48.63957" lon="-2.40438">
        <ele>13.1</ele>
        <time>2021-07-27T16:41:35Z</time>
      </trkpt>
      <trkpt lat="48.63961" lon="-2.40435">
        <ele>13.2</ele>
        <time>2021-07-27T16:41:36Z</time>
      </trkpt>
      <trkpt lat="48.63968" lon="-2.40427">
        <ele>13.2</ele>
        <time>2021-07-27T16:41:38Z</time>
      </trkpt>
      <trkpt lat="48.63974" lon="-2.40421">
        <ele>13.3</ele>
        <time>2021-07-27T16:41:40Z</time>
      </trkpt>
      <trkpt lat="48.63976" lon="-2.40416">
        <ele>13.3</ele>
        <time>2021-07-27T16:41:41Z</time>
      </trkpt>
      <trkpt lat="48.63977" lon="-2.40414">
        <ele>13.3</ele>
        <time>2021-07-27T16:41:42Z</time>
      </trkpt>
      <trkpt lat="48.63984" lon="-2.40409">
        <ele>13.4</ele>
        <time>2021-07-27T16:41:44Z</time>
      </trkpt>
      <trkpt lat="48.6399" lon="-2.40402">
        <ele>13.4</ele>
        <time>2021-07-27T16:41:46Z</time>
      </trkpt>
      <trkpt lat="48.63999" lon="-2.40392">
        <ele>13.5</ele>
        <time>2021-07-27T16:41:48Z</time>
      </trkpt>
      <trkpt lat="48.64007" lon="-2.40384">
        <ele>13.5</ele>
        <time>2021-07-27T16:41:50Z</time>
      </trkpt>
      <trkpt lat="48.64015" lon="-2.40376">
        <ele>13.5</ele>
        <time>2021-07-27T16:41:52Z</time>
      </trkpt>
      <trkpt lat="48.64022" lon="-2.40367">
        <ele>13.5</ele>
        <time>2021-07-27T16:41:54Z</time>
      </trkpt>
      <trkpt lat="48.64025" lon="-2.40362">
        <ele>13.5</ele>
        <time>2021-07-27T16:41:55Z</time>
      </trkpt>
      <trkpt lat="48.64029" lon="-2.40358">
        <ele>13.5</ele>
        <time>2021-07-27T16:41:56Z</time>
      </trkpt>
      <trkpt lat="48.64033" lon="-2.40353">
        <ele>13.4</ele>
        <time>2021-07-27T16:41:57Z</time>
      </trkpt>
      <trkpt lat="48.64037" lon="-2.4035">
        <ele>13.4</ele>
        <time>2021-07-27T16:41:58Z</time>
      </trkpt>
      <trkpt lat="48.64041" lon="-2.40346">
        <ele>13.4</ele>
        <time>2021-07-27T16:41:59Z</time>
      </trkpt>
      <trkpt lat="48.64045" lon="-2.40342">
        <ele>13.4</ele>
        <time>2021-07-27T16:42:00Z</time>
      </trkpt>
      <trkpt lat="48.64051" lon="-2.4033">
        <ele>13.4</ele>
        <time>2021-07-27T16:42:02Z</time>
      </trkpt>
      <trkpt lat="48.64053" lon="-2.40324">
        <ele>13.6</ele>
        <time>2021-07-27T16:42:03Z</time>
      </trkpt>
      <trkpt lat="48.64058" lon="-2.40311">
        <ele>13.8</ele>
        <time>2021-07-27T16:42:05Z</time>
      </trkpt>
      <trkpt lat="48.64061" lon="-2.40305">
        <ele>13.9</ele>
        <time>2021-07-27T16:42:06Z</time>
      </trkpt>
      <trkpt lat="48.64067" lon="-2.40293">
        <ele>13.7</ele>
        <time>2021-07-27T16:42:08Z</time>
      </trkpt>
      <trkpt lat="48.6407" lon="-2.40286">
        <ele>13.7</ele>
        <time>2021-07-27T16:42:09Z</time>
      </trkpt>
      <trkpt lat="48.64076" lon="-2.40273">
        <ele>13.6</ele>
        <time>2021-07-27T16:42:11Z</time>
      </trkpt>
      <trkpt lat="48.64079" lon="-2.40267">
        <ele>13.7</ele>
        <time>2021-07-27T16:42:12Z</time>
      </trkpt>
      <trkpt lat="48.64085" lon="-2.40255">
        <ele>13.3</ele>
        <time>2021-07-27T16:42:14Z</time>
      </trkpt>
      <trkpt lat="48.64091" lon="-2.40242">
        <ele>13.3</ele>
        <time>2021-07-27T16:42:16Z</time>
      </trkpt>
      <trkpt lat="48.64093" lon="-2.40236">
        <ele>13.4</ele>
        <time>2021-07-27T16:42:17Z</time>
      </trkpt>
      <trkpt lat="48.64096" lon="-2.4023">
        <ele>13.6</ele>
        <time>2021-07-27T16:42:18Z</time>
      </trkpt>
      <trkpt lat="48.64102" lon="-2.40216">
        <ele>13.7</ele>
        <time>2021-07-27T16:42:20Z</time>
      </trkpt>
      <trkpt lat="48.64103" lon="-2.40209">
        <ele>13.7</ele>
        <time>2021-07-27T16:42:21Z</time>
      </trkpt>
      <trkpt lat="48.64104" lon="-2.40192">
        <ele>13.8</ele>
        <time>2021-07-27T16:42:23Z</time>
      </trkpt>
      <trkpt lat="48.64107" lon="-2.40177">
        <ele>13.9</ele>
        <time>2021-07-27T16:42:25Z</time>
      </trkpt>
      <trkpt lat="48.64109" lon="-2.40171">
        <ele>14</ele>
        <time>2021-07-27T16:42:26Z</time>
      </trkpt>
      <trkpt lat="48.64112" lon="-2.40166">
        <ele>14</ele>
        <time>2021-07-27T16:42:27Z</time>
      </trkpt>
      <trkpt lat="48.64115" lon="-2.4016">
        <ele>14.1</ele>
        <time>2021-07-27T16:42:28Z</time>
      </trkpt>
      <trkpt lat="48.64115" lon="-2.40154">
        <ele>14.1</ele>
        <time>2021-07-27T16:42:29Z</time>
      </trkpt>
      <trkpt lat="48.64116" lon="-2.40147">
        <ele>14.2</ele>
        <time>2021-07-27T16:42:30Z</time>
      </trkpt>
      <trkpt lat="48.64116" lon="-2.4014">
        <ele>14.4</ele>
        <time>2021-07-27T16:42:31Z</time>
      </trkpt>
      <trkpt lat="48.64117" lon="-2.40124">
        <ele>14.7</ele>
        <time>2021-07-27T16:42:33Z</time>
      </trkpt>
      <trkpt lat="48.64118" lon="-2.40109">
        <ele>15</ele>
        <time>2021-07-27T16:42:35Z</time>
      </trkpt>
      <trkpt lat="48.64119" lon="-2.40095">
        <ele>15.3</ele>
        <time>2021-07-27T16:42:37Z</time>
      </trkpt>
      <trkpt lat="48.64119" lon="-2.40087">
        <ele>15.5</ele>
        <time>2021-07-27T16:42:38Z</time>
      </trkpt>
      <trkpt lat="48.6412" lon="-2.40073">
        <ele>15.8</ele>
        <time>2021-07-27T16:42:40Z</time>
      </trkpt>
      <trkpt lat="48.64121" lon="-2.40058">
        <ele>16.2</ele>
        <time>2021-07-27T16:42:42Z</time>
      </trkpt>
      <trkpt lat="48.64122" lon="-2.40051">
        <ele>16.4</ele>
        <time>2021-07-27T16:42:43Z</time>
      </trkpt>
      <trkpt lat="48.64122" lon="-2.40044">
        <ele>16.5</ele>
        <time>2021-07-27T16:42:44Z</time>
      </trkpt>
      <trkpt lat="48.6412" lon="-2.40029">
        <ele>16.9</ele>
        <time>2021-07-27T16:42:46Z</time>
      </trkpt>
      <trkpt lat="48.64118" lon="-2.40022">
        <ele>17.2</ele>
        <time>2021-07-27T16:42:47Z</time>
      </trkpt>
      <trkpt lat="48.64115" lon="-2.40015">
        <ele>17.2</ele>
        <time>2021-07-27T16:42:48Z</time>
      </trkpt>
      <trkpt lat="48.64111" lon="-2.40001">
        <ele>17.3</ele>
        <time>2021-07-27T16:42:50Z</time>
      </trkpt>
      <trkpt lat="48.64111" lon="-2.39993">
        <ele>17.3</ele>
        <time>2021-07-27T16:42:51Z</time>
      </trkpt>
      <trkpt lat="48.64112" lon="-2.39987">
        <ele>17.4</ele>
        <time>2021-07-27T16:42:52Z</time>
      </trkpt>
      <trkpt lat="48.64116" lon="-2.39974">
        <ele>18</ele>
        <time>2021-07-27T16:42:54Z</time>
      </trkpt>
      <trkpt lat="48.64119" lon="-2.39967">
        <ele>18.2</ele>
        <time>2021-07-27T16:42:55Z</time>
      </trkpt>
      <trkpt lat="48.64121" lon="-2.39961">
        <ele>18.4</ele>
        <time>2021-07-27T16:42:56Z</time>
      </trkpt>
      <trkpt lat="48.64123" lon="-2.39954">
        <ele>18.6</ele>
        <time>2021-07-27T16:42:57Z</time>
      </trkpt>
      <trkpt lat="48.64125" lon="-2.39939">
        <ele>18.9</ele>
        <time>2021-07-27T16:42:59Z</time>
      </trkpt>
      <trkpt lat="48.64125" lon="-2.39925">
        <ele>19.2</ele>
        <time>2021-07-27T16:43:01Z</time>
      </trkpt>
      <trkpt lat="48.64126" lon="-2.39917">
        <ele>19.4</ele>
        <time>2021-07-27T16:43:02Z</time>
      </trkpt>
      <trkpt lat="48.64126" lon="-2.39903">
        <ele>19.7</ele>
        <time>2021-07-27T16:43:04Z</time>
      </trkpt>
      <trkpt lat="48.64128" lon="-2.39888">
        <ele>20</ele>
        <time>2021-07-27T16:43:06Z</time>
      </trkpt>
      <trkpt lat="48.64129" lon="-2.39881">
        <ele>20.2</ele>
        <time>2021-07-27T16:43:07Z</time>
      </trkpt>
      <trkpt lat="48.64129" lon="-2.39875">
        <ele>20.4</ele>
        <time>2021-07-27T16:43:08Z</time>
      </trkpt>
      <trkpt lat="48.64129" lon="-2.39867">
        <ele>20.6</ele>
        <time>2021-07-27T16:43:09Z</time>
      </trkpt>
      <trkpt lat="48.6413" lon="-2.39852">
        <ele>21</ele>
        <time>2021-07-27T16:43:11Z</time>
      </trkpt>
      <trkpt lat="48.6413" lon="-2.39839">
        <ele>21.3</ele>
        <time>2021-07-27T16:43:13Z</time>
      </trkpt>
      <trkpt lat="48.64131" lon="-2.39825">
        <ele>21.7</ele>
        <time>2021-07-27T16:43:15Z</time>
      </trkpt>
      <trkpt lat="48.64131" lon="-2.39811">
        <ele>22.1</ele>
        <time>2021-07-27T16:43:17Z</time>
      </trkpt>
      <trkpt lat="48.64133" lon="-2.39798">
        <ele>22.4</ele>
        <time>2021-07-27T16:43:19Z</time>
      </trkpt>
      <trkpt lat="48.64134" lon="-2.39784">
        <ele>22.8</ele>
        <time>2021-07-27T16:43:21Z</time>
      </trkpt>
      <trkpt lat="48.64134" lon="-2.39776">
        <ele>23</ele>
        <time>2021-07-27T16:43:22Z</time>
      </trkpt>
      <trkpt lat="48.64135" lon="-2.39769">
        <ele>23.2</ele>
        <time>2021-07-27T16:43:23Z</time>
      </trkpt>
      <trkpt lat="48.64136" lon="-2.39755">
        <ele>23.6</ele>
        <time>2021-07-27T16:43:25Z</time>
      </trkpt>
      <trkpt lat="48.64137" lon="-2.39741">
        <ele>24</ele>
        <time>2021-07-27T16:43:27Z</time>
      </trkpt>
      <trkpt lat="48.64138" lon="-2.39734">
        <ele>24.1</ele>
        <time>2021-07-27T16:43:28Z</time>
      </trkpt>
      <trkpt lat="48.64138" lon="-2.39726">
        <ele>24.3</ele>
        <time>2021-07-27T16:43:29Z</time>
      </trkpt>
      <trkpt lat="48.64139" lon="-2.39712">
        <ele>24.7</ele>
        <time>2021-07-27T16:43:31Z</time>
      </trkpt>
      <trkpt lat="48.64139" lon="-2.39698">
        <ele>25</ele>
        <time>2021-07-27T16:43:33Z</time>
      </trkpt>
      <trkpt lat="48.64139" lon="-2.39692">
        <ele>25.1</ele>
        <time>2021-07-27T16:43:34Z</time>
      </trkpt>
      <trkpt lat="48.6414" lon="-2.39678">
        <ele>25.4</ele>
        <time>2021-07-27T16:43:36Z</time>
      </trkpt>
      <trkpt lat="48.6414" lon="-2.39671">
        <ele>25.6</ele>
        <time>2021-07-27T16:43:37Z</time>
      </trkpt>
      <trkpt lat="48.6414" lon="-2.39656">
        <ele>25.9</ele>
        <time>2021-07-27T16:43:39Z</time>
      </trkpt>
      <trkpt lat="48.64141" lon="-2.39649">
        <ele>26.1</ele>
        <time>2021-07-27T16:43:40Z</time>
      </trkpt>
      <trkpt lat="48.64142" lon="-2.39634">
        <ele>26.4</ele>
        <time>2021-07-27T16:43:42Z</time>
      </trkpt>
      <trkpt lat="48.64142" lon="-2.3962">
        <ele>26.7</ele>
        <time>2021-07-27T16:43:44Z</time>
      </trkpt>
      <trkpt lat="48.64143" lon="-2.39606">
        <ele>27</ele>
        <time>2021-07-27T16:43:46Z</time>
      </trkpt>
      <trkpt lat="48.64144" lon="-2.39592">
        <ele>27.3</ele>
        <time>2021-07-27T16:43:48Z</time>
      </trkpt>
      <trkpt lat="48.64144" lon="-2.39584">
        <ele>27.4</ele>
        <time>2021-07-27T16:43:49Z</time>
      </trkpt>
      <trkpt lat="48.64144" lon="-2.39569">
        <ele>27.8</ele>
        <time>2021-07-27T16:43:51Z</time>
      </trkpt>
      <trkpt lat="48.64144" lon="-2.39555">
        <ele>28.1</ele>
        <time>2021-07-27T16:43:53Z</time>
      </trkpt>
      <trkpt lat="48.64144" lon="-2.39548">
        <ele>28.2</ele>
        <time>2021-07-27T16:43:54Z</time>
      </trkpt>
      <trkpt lat="48.64144" lon="-2.39534">
        <ele>28.6</ele>
        <time>2021-07-27T16:43:56Z</time>
      </trkpt>
      <trkpt lat="48.64144" lon="-2.39518">
        <ele>28.9</ele>
        <time>2021-07-27T16:43:58Z</time>
      </trkpt>
      <trkpt lat="48.64145" lon="-2.39503">
        <ele>29.3</ele>
        <time>2021-07-27T16:44:00Z</time>
      </trkpt>
      <trkpt lat="48.64145" lon="-2.39495">
        <ele>29.5</ele>
        <time>2021-07-27T16:44:01Z</time>
      </trkpt>
      <trkpt lat="48.64145" lon="-2.39488">
        <ele>29.6</ele>
        <time>2021-07-27T16:44:02Z</time>
      </trkpt>
      <trkpt lat="48.64146" lon="-2.39474">
        <ele>29.9</ele>
        <time>2021-07-27T16:44:04Z</time>
      </trkpt>
      <trkpt lat="48.64147" lon="-2.39467">
        <ele>30.1</ele>
        <time>2021-07-27T16:44:05Z</time>
      </trkpt>
      <trkpt lat="48.64147" lon="-2.39454">
        <ele>30.4</ele>
        <time>2021-07-27T16:44:07Z</time>
      </trkpt>
      <trkpt lat="48.64148" lon="-2.39448">
        <ele>30.5</ele>
        <time>2021-07-27T16:44:08Z</time>
      </trkpt>
      <trkpt lat="48.64149" lon="-2.39435">
        <ele>30.8</ele>
        <time>2021-07-27T16:44:10Z</time>
      </trkpt>
      <trkpt lat="48.6415" lon="-2.39424">
        <ele>31.1</ele>
        <time>2021-07-27T16:44:12Z</time>
      </trkpt>
      <trkpt lat="48.64151" lon="-2.39417">
        <ele>31.3</ele>
        <time>2021-07-27T16:44:13Z</time>
      </trkpt>
      <trkpt lat="48.64152" lon="-2.39405">
        <ele>31.6</ele>
        <time>2021-07-27T16:44:15Z</time>
      </trkpt>
      <trkpt lat="48.64153" lon="-2.39396">
        <ele>31.8</ele>
        <time>2021-07-27T16:44:17Z</time>
      </trkpt>
      <trkpt lat="48.64154" lon="-2.39387">
        <ele>32.1</ele>
        <time>2021-07-27T16:44:18Z</time>
      </trkpt>
      <trkpt lat="48.64154" lon="-2.3938">
        <ele>32.3</ele>
        <time>2021-07-27T16:44:19Z</time>
      </trkpt>
      <trkpt lat="48.64154" lon="-2.39369">
        <ele>32.6</ele>
        <time>2021-07-27T16:44:21Z</time>
      </trkpt>
      <trkpt lat="48.64155" lon="-2.39363">
        <ele>32.8</ele>
        <time>2021-07-27T16:44:22Z</time>
      </trkpt>
      <trkpt lat="48.64157" lon="-2.39353">
        <ele>33.1</ele>
        <time>2021-07-27T16:44:24Z</time>
      </trkpt>
      <trkpt lat="48.64158" lon="-2.39341">
        <ele>33.5</ele>
        <time>2021-07-27T16:44:26Z</time>
      </trkpt>
      <trkpt lat="48.6416" lon="-2.3933">
        <ele>33.8</ele>
        <time>2021-07-27T16:44:28Z</time>
      </trkpt>
      <trkpt lat="48.64161" lon="-2.39325">
        <ele>34</ele>
        <time>2021-07-27T16:44:29Z</time>
      </trkpt>
      <trkpt lat="48.64164" lon="-2.39315">
        <ele>34.3</ele>
        <time>2021-07-27T16:44:31Z</time>
      </trkpt>
      <trkpt lat="48.64167" lon="-2.39304">
        <ele>34.6</ele>
        <time>2021-07-27T16:44:33Z</time>
      </trkpt>
      <trkpt lat="48.6417" lon="-2.39294">
        <ele>34.9</ele>
        <time>2021-07-27T16:44:35Z</time>
      </trkpt>
      <trkpt lat="48.64174" lon="-2.39284">
        <ele>35.2</ele>
        <time>2021-07-27T16:44:37Z</time>
      </trkpt>
      <trkpt lat="48.64175" lon="-2.39279">
        <ele>35.4</ele>
        <time>2021-07-27T16:44:38Z</time>
      </trkpt>
      <trkpt lat="48.64177" lon="-2.39274">
        <ele>35.5</ele>
        <time>2021-07-27T16:44:39Z</time>
      </trkpt>
      <trkpt lat="48.64179" lon="-2.3927">
        <ele>35.7</ele>
        <time>2021-07-27T16:44:40Z</time>
      </trkpt>
      <trkpt lat="48.64184" lon="-2.3926">
        <ele>36</ele>
        <time>2021-07-27T16:44:42Z</time>
      </trkpt>
      <trkpt lat="48.64188" lon="-2.39251">
        <ele>36.4</ele>
        <time>2021-07-27T16:44:44Z</time>
      </trkpt>
      <trkpt lat="48.64192" lon="-2.39241">
        <ele>36.7</ele>
        <time>2021-07-27T16:44:46Z</time>
      </trkpt>
      <trkpt lat="48.64194" lon="-2.39236">
        <ele>36.9</ele>
        <time>2021-07-27T16:44:47Z</time>
      </trkpt>
      <trkpt lat="48.642" lon="-2.39228">
        <ele>37.3</ele>
        <time>2021-07-27T16:44:49Z</time>
      </trkpt>
      <trkpt lat="48.64205" lon="-2.3922">
        <ele>37.6</ele>
        <time>2021-07-27T16:44:51Z</time>
      </trkpt>
      <trkpt lat="48.64208" lon="-2.39216">
        <ele>37.8</ele>
        <time>2021-07-27T16:44:52Z</time>
      </trkpt>
      <trkpt lat="48.6421" lon="-2.39212">
        <ele>37.9</ele>
        <time>2021-07-27T16:44:53Z</time>
      </trkpt>
      <trkpt lat="48.64216" lon="-2.39205">
        <ele>38.3</ele>
        <time>2021-07-27T16:44:55Z</time>
      </trkpt>
      <trkpt lat="48.64219" lon="-2.39201">
        <ele>38.4</ele>
        <time>2021-07-27T16:44:56Z</time>
      </trkpt>
      <trkpt lat="48.64222" lon="-2.39198">
        <ele>38.6</ele>
        <time>2021-07-27T16:44:57Z</time>
      </trkpt>
      <trkpt lat="48.64228" lon="-2.39191">
        <ele>38.9</ele>
        <time>2021-07-27T16:44:59Z</time>
      </trkpt>
      <trkpt lat="48.64231" lon="-2.39187">
        <ele>39.1</ele>
        <time>2021-07-27T16:45:00Z</time>
      </trkpt>
      <trkpt lat="48.64235" lon="-2.39184">
        <ele>39.3</ele>
        <time>2021-07-27T16:45:01Z</time>
      </trkpt>
      <trkpt lat="48.64241" lon="-2.39178">
        <ele>39.6</ele>
        <time>2021-07-27T16:45:03Z</time>
      </trkpt>
      <trkpt lat="48.64248" lon="-2.39172">
        <ele>40</ele>
        <time>2021-07-27T16:45:05Z</time>
      </trkpt>
      <trkpt lat="48.64255" lon="-2.39167">
        <ele>40.3</ele>
        <time>2021-07-27T16:45:07Z</time>
      </trkpt>
      <trkpt lat="48.64259" lon="-2.39165">
        <ele>40.5</ele>
        <time>2021-07-27T16:45:08Z</time>
      </trkpt>
      <trkpt lat="48.64266" lon="-2.39161">
        <ele>40.8</ele>
        <time>2021-07-27T16:45:10Z</time>
      </trkpt>
      <trkpt lat="48.64273" lon="-2.39157">
        <ele>41.2</ele>
        <time>2021-07-27T16:45:12Z</time>
      </trkpt>
      <trkpt lat="48.64277" lon="-2.39155">
        <ele>41.5</ele>
        <time>2021-07-27T16:45:13Z</time>
      </trkpt>
      <trkpt lat="48.64284" lon="-2.39152">
        <ele>41.8</ele>
        <time>2021-07-27T16:45:15Z</time>
      </trkpt>
      <trkpt lat="48.64287" lon="-2.39151">
        <ele>42.1</ele>
        <time>2021-07-27T16:45:16Z</time>
      </trkpt>
      <trkpt lat="48.6429" lon="-2.39149">
        <ele>42.3</ele>
        <time>2021-07-27T16:45:17Z</time>
      </trkpt>
      <trkpt lat="48.64294" lon="-2.39148">
        <ele>42.5</ele>
        <time>2021-07-27T16:45:18Z</time>
      </trkpt>
      <trkpt lat="48.64297" lon="-2.39146">
        <ele>42.7</ele>
        <time>2021-07-27T16:45:19Z</time>
      </trkpt>
      <trkpt lat="48.64303" lon="-2.39143">
        <ele>43.1</ele>
        <time>2021-07-27T16:45:21Z</time>
      </trkpt>
      <trkpt lat="48.64308" lon="-2.39141">
        <ele>43.4</ele>
        <time>2021-07-27T16:45:22Z</time>
      </trkpt>
      <trkpt lat="48.64312" lon="-2.39139">
        <ele>43.7</ele>
        <time>2021-07-27T16:45:24Z</time>
      </trkpt>
      <trkpt lat="48.64315" lon="-2.39138">
        <ele>43.9</ele>
        <time>2021-07-27T16:45:25Z</time>
      </trkpt>
      <trkpt lat="48.6432" lon="-2.39136">
        <ele>44.2</ele>
        <time>2021-07-27T16:45:27Z</time>
      </trkpt>
      <trkpt lat="48.64324" lon="-2.39135">
        <ele>44.5</ele>
        <time>2021-07-27T16:45:28Z</time>
      </trkpt>
      <trkpt lat="48.64328" lon="-2.39133">
        <ele>44.8</ele>
        <time>2021-07-27T16:45:30Z</time>
      </trkpt>
      <trkpt lat="48.64334" lon="-2.39131">
        <ele>45.3</ele>
        <time>2021-07-27T16:45:32Z</time>
      </trkpt>
      <trkpt lat="48.6434" lon="-2.3913">
        <ele>45.7</ele>
        <time>2021-07-27T16:45:34Z</time>
      </trkpt>
      <trkpt lat="48.64343" lon="-2.39129">
        <ele>46</ele>
        <time>2021-07-27T16:45:35Z</time>
      </trkpt>
      <trkpt lat="48.64349" lon="-2.39127">
        <ele>46.5</ele>
        <time>2021-07-27T16:45:37Z</time>
      </trkpt>
      <trkpt lat="48.64352" lon="-2.39126">
        <ele>46.7</ele>
        <time>2021-07-27T16:45:38Z</time>
      </trkpt>
      <trkpt lat="48.64357" lon="-2.39124">
        <ele>47.2</ele>
        <time>2021-07-27T16:45:40Z</time>
      </trkpt>
      <trkpt lat="48.64363" lon="-2.39123">
        <ele>47.8</ele>
        <time>2021-07-27T16:45:42Z</time>
      </trkpt>
      <trkpt lat="48.64366" lon="-2.39122">
        <ele>48.1</ele>
        <time>2021-07-27T16:45:43Z</time>
      </trkpt>
      <trkpt lat="48.64371" lon="-2.3912">
        <ele>48.6</ele>
        <time>2021-07-27T16:45:45Z</time>
      </trkpt>
      <trkpt lat="48.64376" lon="-2.39118">
        <ele>49.1</ele>
        <time>2021-07-27T16:45:47Z</time>
      </trkpt>
      <trkpt lat="48.64381" lon="-2.39116">
        <ele>49.6</ele>
        <time>2021-07-27T16:45:49Z</time>
      </trkpt>
      <trkpt lat="48.64387" lon="-2.39115">
        <ele>50.2</ele>
        <time>2021-07-27T16:45:51Z</time>
      </trkpt>
      <trkpt lat="48.64392" lon="-2.39113">
        <ele>50.7</ele>
        <time>2021-07-27T16:45:53Z</time>
      </trkpt>
      <trkpt lat="48.64397" lon="-2.39111">
        <ele>51.3</ele>
        <time>2021-07-27T16:45:55Z</time>
      </trkpt>
      <trkpt lat="48.644" lon="-2.3911">
        <ele>51.6</ele>
        <time>2021-07-27T16:45:56Z</time>
      </trkpt>
      <trkpt lat="48.64405" lon="-2.39109">
        <ele>52.1</ele>
        <time>2021-07-27T16:45:58Z</time>
      </trkpt>
      <trkpt lat="48.64407" lon="-2.39108">
        <ele>52.4</ele>
        <time>2021-07-27T16:45:59Z</time>
      </trkpt>
      <trkpt lat="48.64412" lon="-2.39107">
        <ele>52.9</ele>
        <time>2021-07-27T16:46:01Z</time>
      </trkpt>
      <trkpt lat="48.64415" lon="-2.39105">
        <ele>53.2</ele>
        <time>2021-07-27T16:46:02Z</time>
      </trkpt>
      <trkpt lat="48.64419" lon="-2.39104">
        <ele>53.6</ele>
        <time>2021-07-27T16:46:03Z</time>
      </trkpt>
      <trkpt lat="48.6442" lon="-2.39103">
        <ele>53.8</ele>
        <time>2021-07-27T16:46:04Z</time>
      </trkpt>
      <trkpt lat="48.64426" lon="-2.391">
        <ele>54.3</ele>
        <time>2021-07-27T16:46:06Z</time>
      </trkpt>
      <trkpt lat="48.64429" lon="-2.39099">
        <ele>54.7</ele>
        <time>2021-07-27T16:46:07Z</time>
      </trkpt>
      <trkpt lat="48.6443" lon="-2.39098">
        <ele>54.8</ele>
        <time>2021-07-27T16:46:08Z</time>
      </trkpt>
      <trkpt lat="48.64436" lon="-2.39097">
        <ele>55.4</ele>
        <time>2021-07-27T16:46:10Z</time>
      </trkpt>
      <trkpt lat="48.64441" lon="-2.39095">
        <ele>55.9</ele>
        <time>2021-07-27T16:46:12Z</time>
      </trkpt>
      <trkpt lat="48.64445" lon="-2.39094">
        <ele>56.4</ele>
        <time>2021-07-27T16:46:13Z</time>
      </trkpt>
      <trkpt lat="48.64449" lon="-2.39093">
        <ele>56.8</ele>
        <time>2021-07-27T16:46:15Z</time>
      </trkpt>
      <trkpt lat="48.64454" lon="-2.39092">
        <ele>57.4</ele>
        <time>2021-07-27T16:46:17Z</time>
      </trkpt>
      <trkpt lat="48.64459" lon="-2.39091">
        <ele>57.9</ele>
        <time>2021-07-27T16:46:19Z</time>
      </trkpt>
      <trkpt lat="48.64461" lon="-2.39089">
        <ele>58.2</ele>
        <time>2021-07-27T16:46:20Z</time>
      </trkpt>
      <trkpt lat="48.64466" lon="-2.39088">
        <ele>58.7</ele>
        <time>2021-07-27T16:46:22Z</time>
      </trkpt>
      <trkpt lat="48.64471" lon="-2.39086">
        <ele>59.2</ele>
        <time>2021-07-27T16:46:24Z</time>
      </trkpt>
      <trkpt lat="48.64476" lon="-2.39084">
        <ele>59.6</ele>
        <time>2021-07-27T16:46:26Z</time>
      </trkpt>
      <trkpt lat="48.6448" lon="-2.39082">
        <ele>59.9</ele>
        <time>2021-07-27T16:46:27Z</time>
      </trkpt>
      <trkpt lat="48.64484" lon="-2.39081">
        <ele>60.2</ele>
        <time>2021-07-27T16:46:28Z</time>
      </trkpt>
      <trkpt lat="48.64487" lon="-2.39079">
        <ele>60.4</ele>
        <time>2021-07-27T16:46:30Z</time>
      </trkpt>
      <trkpt lat="48.64492" lon="-2.39078">
        <ele>60.7</ele>
        <time>2021-07-27T16:46:32Z</time>
      </trkpt>
      <trkpt lat="48.64494" lon="-2.39077">
        <ele>60.8</ele>
        <time>2021-07-27T16:46:33Z</time>
      </trkpt>
      <trkpt lat="48.645" lon="-2.39075">
        <ele>61</ele>
        <time>2021-07-27T16:46:35Z</time>
      </trkpt>
      <trkpt lat="48.64504" lon="-2.39072">
        <ele>61.2</ele>
        <time>2021-07-27T16:46:37Z</time>
      </trkpt>
      <trkpt lat="48.64507" lon="-2.39071">
        <ele>61.3</ele>
        <time>2021-07-27T16:46:38Z</time>
      </trkpt>
      <trkpt lat="48.6451" lon="-2.3907">
        <ele>61.4</ele>
        <time>2021-07-27T16:46:39Z</time>
      </trkpt>
      <trkpt lat="48.64515" lon="-2.39068">
        <ele>61.5</ele>
        <time>2021-07-27T16:46:41Z</time>
      </trkpt>
      <trkpt lat="48.6452" lon="-2.39066">
        <ele>61.6</ele>
        <time>2021-07-27T16:46:43Z</time>
      </trkpt>
      <trkpt lat="48.64525" lon="-2.39065">
        <ele>61.7</ele>
        <time>2021-07-27T16:46:44Z</time>
      </trkpt>
      <trkpt lat="48.64528" lon="-2.39064">
        <ele>61.7</ele>
        <time>2021-07-27T16:46:45Z</time>
      </trkpt>
      <trkpt lat="48.64532" lon="-2.39062">
        <ele>61.7</ele>
        <time>2021-07-27T16:46:47Z</time>
      </trkpt>
      <trkpt lat="48.64537" lon="-2.3906">
        <ele>61.7</ele>
        <time>2021-07-27T16:46:48Z</time>
      </trkpt>
      <trkpt lat="48.6454" lon="-2.39058">
        <ele>61.7</ele>
        <time>2021-07-27T16:46:50Z</time>
      </trkpt>
      <trkpt lat="48.64546" lon="-2.39057">
        <ele>61.6</ele>
        <time>2021-07-27T16:46:52Z</time>
      </trkpt>
      <trkpt lat="48.6455" lon="-2.39055">
        <ele>61.6</ele>
        <time>2021-07-27T16:46:53Z</time>
      </trkpt>
      <trkpt lat="48.64555" lon="-2.39053">
        <ele>61.5</ele>
        <time>2021-07-27T16:46:54Z</time>
      </trkpt>
      <trkpt lat="48.6456" lon="-2.3905">
        <ele>61.4</ele>
        <time>2021-07-27T16:46:56Z</time>
      </trkpt>
      <trkpt lat="48.64563" lon="-2.39048">
        <ele>61.3</ele>
        <time>2021-07-27T16:46:57Z</time>
      </trkpt>
      <trkpt lat="48.6457" lon="-2.39043">
        <ele>61.1</ele>
        <time>2021-07-27T16:46:59Z</time>
      </trkpt>
      <trkpt lat="48.64574" lon="-2.3904">
        <ele>61</ele>
        <time>2021-07-27T16:47:00Z</time>
      </trkpt>
      <trkpt lat="48.64583" lon="-2.39034">
        <ele>60.8</ele>
        <time>2021-07-27T16:47:02Z</time>
      </trkpt>
      <trkpt lat="48.64587" lon="-2.39031">
        <ele>60.7</ele>
        <time>2021-07-27T16:47:03Z</time>
      </trkpt>
      <trkpt lat="48.64602" lon="-2.39018">
        <ele>60.3</ele>
        <time>2021-07-27T16:47:05Z</time>
      </trkpt>
      <trkpt lat="48.64612" lon="-2.39007">
        <ele>59.9</ele>
        <time>2021-07-27T16:47:07Z</time>
      </trkpt>
      <trkpt lat="48.6462" lon="-2.38997">
        <ele>59.6</ele>
        <time>2021-07-27T16:47:09Z</time>
      </trkpt>
      <trkpt lat="48.64629" lon="-2.38988">
        <ele>59.3</ele>
        <time>2021-07-27T16:47:11Z</time>
      </trkpt>
      <trkpt lat="48.64633" lon="-2.38983">
        <ele>59.1</ele>
        <time>2021-07-27T16:47:12Z</time>
      </trkpt>
      <trkpt lat="48.64637" lon="-2.38979">
        <ele>59</ele>
        <time>2021-07-27T16:47:13Z</time>
      </trkpt>
      <trkpt lat="48.64645" lon="-2.38969">
        <ele>58.7</ele>
        <time>2021-07-27T16:47:15Z</time>
      </trkpt>
      <trkpt lat="48.64649" lon="-2.38965">
        <ele>58.5</ele>
        <time>2021-07-27T16:47:16Z</time>
      </trkpt>
      <trkpt lat="48.64653" lon="-2.3896">
        <ele>58.4</ele>
        <time>2021-07-27T16:47:17Z</time>
      </trkpt>
      <trkpt lat="48.64661" lon="-2.38949">
        <ele>58</ele>
        <time>2021-07-27T16:47:19Z</time>
      </trkpt>
      <trkpt lat="48.6467" lon="-2.38938">
        <ele>57.6</ele>
        <time>2021-07-27T16:47:21Z</time>
      </trkpt>
      <trkpt lat="48.64679" lon="-2.38927">
        <ele>57.2</ele>
        <time>2021-07-27T16:47:23Z</time>
      </trkpt>
      <trkpt lat="48.64683" lon="-2.3892">
        <ele>57</ele>
        <time>2021-07-27T16:47:24Z</time>
      </trkpt>
      <trkpt lat="48.64687" lon="-2.38913">
        <ele>56.8</ele>
        <time>2021-07-27T16:47:25Z</time>
      </trkpt>
      <trkpt lat="48.64694" lon="-2.38899">
        <ele>56.4</ele>
        <time>2021-07-27T16:47:27Z</time>
      </trkpt>
      <trkpt lat="48.64701" lon="-2.38885">
        <ele>56</ele>
        <time>2021-07-27T16:47:29Z</time>
      </trkpt>
      <trkpt lat="48.64705" lon="-2.38877">
        <ele>55.8</ele>
        <time>2021-07-27T16:47:30Z</time>
      </trkpt>
      <trkpt lat="48.64712" lon="-2.3886">
        <ele>55.3</ele>
        <time>2021-07-27T16:47:32Z</time>
      </trkpt>
      <trkpt lat="48.64716" lon="-2.38852">
        <ele>55</ele>
        <time>2021-07-27T16:47:33Z</time>
      </trkpt>
      <trkpt lat="48.64722" lon="-2.38835">
        <ele>54.6</ele>
        <time>2021-07-27T16:47:35Z</time>
      </trkpt>
      <trkpt lat="48.64726" lon="-2.38827">
        <ele>54.4</ele>
        <time>2021-07-27T16:47:36Z</time>
      </trkpt>
      <trkpt lat="48.64731" lon="-2.38809">
        <ele>53.9</ele>
        <time>2021-07-27T16:47:38Z</time>
      </trkpt>
      <trkpt lat="48.64737" lon="-2.38791">
        <ele>53.5</ele>
        <time>2021-07-27T16:47:40Z</time>
      </trkpt>
      <trkpt lat="48.6474" lon="-2.38782">
        <ele>53.3</ele>
        <time>2021-07-27T16:47:41Z</time>
      </trkpt>
      <trkpt lat="48.64744" lon="-2.38762">
        <ele>52.9</ele>
        <time>2021-07-27T16:47:43Z</time>
      </trkpt>
      <trkpt lat="48.64746" lon="-2.38751">
        <ele>52.7</ele>
        <time>2021-07-27T16:47:44Z</time>
      </trkpt>
      <trkpt lat="48.64751" lon="-2.38732">
        <ele>52.4</ele>
        <time>2021-07-27T16:47:46Z</time>
      </trkpt>
      <trkpt lat="48.64753" lon="-2.38723">
        <ele>52.3</ele>
        <time>2021-07-27T16:47:47Z</time>
      </trkpt>
      <trkpt lat="48.64758" lon="-2.38703">
        <ele>52.1</ele>
        <time>2021-07-27T16:47:49Z</time>
      </trkpt>
      <trkpt lat="48.64762" lon="-2.38684">
        <ele>51.9</ele>
        <time>2021-07-27T16:47:51Z</time>
      </trkpt>
      <trkpt lat="48.64764" lon="-2.38675">
        <ele>51.9</ele>
        <time>2021-07-27T16:47:52Z</time>
      </trkpt>
      <trkpt lat="48.64766" lon="-2.38658">
        <ele>51.8</ele>
        <time>2021-07-27T16:47:54Z</time>
      </trkpt>
      <trkpt lat="48.64768" lon="-2.38649">
        <ele>51.8</ele>
        <time>2021-07-27T16:47:55Z</time>
      </trkpt>
      <trkpt lat="48.64771" lon="-2.38632">
        <ele>51.7</ele>
        <time>2021-07-27T16:47:57Z</time>
      </trkpt>
      <trkpt lat="48.64774" lon="-2.38616">
        <ele>51.7</ele>
        <time>2021-07-27T16:47:59Z</time>
      </trkpt>
      <trkpt lat="48.64776" lon="-2.38607">
        <ele>51.6</ele>
        <time>2021-07-27T16:48:00Z</time>
      </trkpt>
      <trkpt lat="48.64778" lon="-2.38599">
        <ele>51.6</ele>
        <time>2021-07-27T16:48:01Z</time>
      </trkpt>
      <trkpt lat="48.6478" lon="-2.3859">
        <ele>51.6</ele>
        <time>2021-07-27T16:48:02Z</time>
      </trkpt>
      <trkpt lat="48.64782" lon="-2.38582">
        <ele>51.6</ele>
        <time>2021-07-27T16:48:03Z</time>
      </trkpt>
      <trkpt lat="48.64786" lon="-2.38565">
        <ele>51.6</ele>
        <time>2021-07-27T16:48:05Z</time>
      </trkpt>
      <trkpt lat="48.64791" lon="-2.38548">
        <ele>51.6</ele>
        <time>2021-07-27T16:48:07Z</time>
      </trkpt>
      <trkpt lat="48.64793" lon="-2.38539">
        <ele>51.6</ele>
        <time>2021-07-27T16:48:08Z</time>
      </trkpt>
      <trkpt lat="48.64797" lon="-2.38522">
        <ele>51.6</ele>
        <time>2021-07-27T16:48:10Z</time>
      </trkpt>
      <trkpt lat="48.64798" lon="-2.38513">
        <ele>51.6</ele>
        <time>2021-07-27T16:48:11Z</time>
      </trkpt>
      <trkpt lat="48.64802" lon="-2.38495">
        <ele>51.6</ele>
        <time>2021-07-27T16:48:13Z</time>
      </trkpt>
      <trkpt lat="48.64806" lon="-2.38478">
        <ele>51.6</ele>
        <time>2021-07-27T16:48:15Z</time>
      </trkpt>
      <trkpt lat="48.6481" lon="-2.38459">
        <ele>51.5</ele>
        <time>2021-07-27T16:48:17Z</time>
      </trkpt>
      <trkpt lat="48.64812" lon="-2.3845">
        <ele>51.5</ele>
        <time>2021-07-27T16:48:18Z</time>
      </trkpt>
      <trkpt lat="48.64814" lon="-2.3844">
        <ele>51.5</ele>
        <time>2021-07-27T16:48:19Z</time>
      </trkpt>
      <trkpt lat="48.64816" lon="-2.38431">
        <ele>51.5</ele>
        <time>2021-07-27T16:48:20Z</time>
      </trkpt>
      <trkpt lat="48.64821" lon="-2.38413">
        <ele>51.4</ele>
        <time>2021-07-27T16:48:22Z</time>
      </trkpt>
      <trkpt lat="48.64826" lon="-2.38395">
        <ele>51.4</ele>
        <time>2021-07-27T16:48:24Z</time>
      </trkpt>
      <trkpt lat="48.64832" lon="-2.38376">
        <ele>51.3</ele>
        <time>2021-07-27T16:48:26Z</time>
      </trkpt>
      <trkpt lat="48.64837" lon="-2.38356">
        <ele>51</ele>
        <time>2021-07-27T16:48:28Z</time>
      </trkpt>
      <trkpt lat="48.64839" lon="-2.38347">
        <ele>50.9</ele>
        <time>2021-07-27T16:48:29Z</time>
      </trkpt>
      <trkpt lat="48.64843" lon="-2.38326">
        <ele>50.7</ele>
        <time>2021-07-27T16:48:31Z</time>
      </trkpt>
      <trkpt lat="48.64845" lon="-2.38317">
        <ele>50.6</ele>
        <time>2021-07-27T16:48:32Z</time>
      </trkpt>
      <trkpt lat="48.64847" lon="-2.38307">
        <ele>50.5</ele>
        <time>2021-07-27T16:48:33Z</time>
      </trkpt>
      <trkpt lat="48.64852" lon="-2.38288">
        <ele>50.3</ele>
        <time>2021-07-27T16:48:35Z</time>
      </trkpt>
      <trkpt lat="48.64857" lon="-2.38267">
        <ele>50.1</ele>
        <time>2021-07-27T16:48:37Z</time>
      </trkpt>
      <trkpt lat="48.64859" lon="-2.38257">
        <ele>50</ele>
        <time>2021-07-27T16:48:38Z</time>
      </trkpt>
      <trkpt lat="48.64864" lon="-2.38237">
        <ele>49.7</ele>
        <time>2021-07-27T16:48:40Z</time>
      </trkpt>
      <trkpt lat="48.64866" lon="-2.38226">
        <ele>49.6</ele>
        <time>2021-07-27T16:48:41Z</time>
      </trkpt>
      <trkpt lat="48.64868" lon="-2.38216">
        <ele>49.4</ele>
        <time>2021-07-27T16:48:42Z</time>
      </trkpt>
      <trkpt lat="48.64873" lon="-2.38196">
        <ele>49.2</ele>
        <time>2021-07-27T16:48:44Z</time>
      </trkpt>
      <trkpt lat="48.64877" lon="-2.38176">
        <ele>49.1</ele>
        <time>2021-07-27T16:48:46Z</time>
      </trkpt>
      <trkpt lat="48.6488" lon="-2.38156">
        <ele>48.9</ele>
        <time>2021-07-27T16:48:48Z</time>
      </trkpt>
      <trkpt lat="48.64882" lon="-2.38136">
        <ele>48.9</ele>
        <time>2021-07-27T16:48:50Z</time>
      </trkpt>
      <trkpt lat="48.64882" lon="-2.38126">
        <ele>48.9</ele>
        <time>2021-07-27T16:48:51Z</time>
      </trkpt>
      <trkpt lat="48.64883" lon="-2.38116">
        <ele>48.9</ele>
        <time>2021-07-27T16:48:52Z</time>
      </trkpt>
      <trkpt lat="48.64883" lon="-2.38095">
        <ele>49</ele>
        <time>2021-07-27T16:48:54Z</time>
      </trkpt>
      <trkpt lat="48.64883" lon="-2.38084">
        <ele>49</ele>
        <time>2021-07-27T16:48:55Z</time>
      </trkpt>
      <trkpt lat="48.64883" lon="-2.38074">
        <ele>49.1</ele>
        <time>2021-07-27T16:48:56Z</time>
      </trkpt>
      <trkpt lat="48.64882" lon="-2.38053">
        <ele>49.3</ele>
        <time>2021-07-27T16:48:58Z</time>
      </trkpt>
      <trkpt lat="48.64881" lon="-2.38042">
        <ele>49.5</ele>
        <time>2021-07-27T16:48:59Z</time>
      </trkpt>
      <trkpt lat="48.64879" lon="-2.38023">
        <ele>49.7</ele>
        <time>2021-07-27T16:49:01Z</time>
      </trkpt>
      <trkpt lat="48.64878" lon="-2.38014">
        <ele>49.8</ele>
        <time>2021-07-27T16:49:02Z</time>
      </trkpt>
      <trkpt lat="48.64876" lon="-2.38005">
        <ele>49.9</ele>
        <time>2021-07-27T16:49:03Z</time>
      </trkpt>
      <trkpt lat="48.64874" lon="-2.37987">
        <ele>50.1</ele>
        <time>2021-07-27T16:49:05Z</time>
      </trkpt>
      <trkpt lat="48.64873" lon="-2.37977">
        <ele>50.2</ele>
        <time>2021-07-27T16:49:06Z</time>
      </trkpt>
      <trkpt lat="48.64872" lon="-2.37969">
        <ele>50.3</ele>
        <time>2021-07-27T16:49:07Z</time>
      </trkpt>
      <trkpt lat="48.6487" lon="-2.37951">
        <ele>50.4</ele>
        <time>2021-07-27T16:49:09Z</time>
      </trkpt>
      <trkpt lat="48.6487" lon="-2.37941">
        <ele>50.5</ele>
        <time>2021-07-27T16:49:10Z</time>
      </trkpt>
      <trkpt lat="48.64869" lon="-2.37932">
        <ele>50.6</ele>
        <time>2021-07-27T16:49:11Z</time>
      </trkpt>
      <trkpt lat="48.64868" lon="-2.37913">
        <ele>50.7</ele>
        <time>2021-07-27T16:49:13Z</time>
      </trkpt>
      <trkpt lat="48.64868" lon="-2.37903">
        <ele>50.8</ele>
        <time>2021-07-27T16:49:14Z</time>
      </trkpt>
      <trkpt lat="48.64868" lon="-2.37885">
        <ele>50.9</ele>
        <time>2021-07-27T16:49:16Z</time>
      </trkpt>
      <trkpt lat="48.64868" lon="-2.37876">
        <ele>50.9</ele>
        <time>2021-07-27T16:49:17Z</time>
      </trkpt>
      <trkpt lat="48.64869" lon="-2.37867">
        <ele>51</ele>
        <time>2021-07-27T16:49:18Z</time>
      </trkpt>
      <trkpt lat="48.6487" lon="-2.37849">
        <ele>51</ele>
        <time>2021-07-27T16:49:20Z</time>
      </trkpt>
      <trkpt lat="48.64871" lon="-2.3784">
        <ele>51.1</ele>
        <time>2021-07-27T16:49:21Z</time>
      </trkpt>
      <trkpt lat="48.64875" lon="-2.37822">
        <ele>51.2</ele>
        <time>2021-07-27T16:49:23Z</time>
      </trkpt>
      <trkpt lat="48.6488" lon="-2.37804">
        <ele>51.2</ele>
        <time>2021-07-27T16:49:25Z</time>
      </trkpt>
      <trkpt lat="48.64883" lon="-2.37795">
        <ele>51.2</ele>
        <time>2021-07-27T16:49:26Z</time>
      </trkpt>
      <trkpt lat="48.64888" lon="-2.37778">
        <ele>51.2</ele>
        <time>2021-07-27T16:49:28Z</time>
      </trkpt>
      <trkpt lat="48.64894" lon="-2.37761">
        <ele>51.2</ele>
        <time>2021-07-27T16:49:30Z</time>
      </trkpt>
      <trkpt lat="48.64898" lon="-2.37753">
        <ele>51.2</ele>
        <time>2021-07-27T16:49:31Z</time>
      </trkpt>
      <trkpt lat="48.64901" lon="-2.37745">
        <ele>51.2</ele>
        <time>2021-07-27T16:49:32Z</time>
      </trkpt>
      <trkpt lat="48.64907" lon="-2.37728">
        <ele>51.1</ele>
        <time>2021-07-27T16:49:34Z</time>
      </trkpt>
      <trkpt lat="48.64914" lon="-2.37711">
        <ele>51</ele>
        <time>2021-07-27T16:49:36Z</time>
      </trkpt>
      <trkpt lat="48.64921" lon="-2.37694">
        <ele>50.9</ele>
        <time>2021-07-27T16:49:38Z</time>
      </trkpt>
      <trkpt lat="48.64924" lon="-2.37684">
        <ele>50.8</ele>
        <time>2021-07-27T16:49:39Z</time>
      </trkpt>
      <trkpt lat="48.6493" lon="-2.37666">
        <ele>50.6</ele>
        <time>2021-07-27T16:49:41Z</time>
      </trkpt>
      <trkpt lat="48.64936" lon="-2.37649">
        <ele>50.3</ele>
        <time>2021-07-27T16:49:43Z</time>
      </trkpt>
      <trkpt lat="48.64941" lon="-2.37632">
        <ele>50</ele>
        <time>2021-07-27T16:49:45Z</time>
      </trkpt>
      <trkpt lat="48.64947" lon="-2.37614">
        <ele>49.5</ele>
        <time>2021-07-27T16:49:47Z</time>
      </trkpt>
      <trkpt lat="48.64953" lon="-2.37598">
        <ele>49</ele>
        <time>2021-07-27T16:49:49Z</time>
      </trkpt>
      <trkpt lat="48.6496" lon="-2.37581">
        <ele>48.5</ele>
        <time>2021-07-27T16:49:51Z</time>
      </trkpt>
      <trkpt lat="48.64967" lon="-2.37561">
        <ele>47.9</ele>
        <time>2021-07-27T16:49:53Z</time>
      </trkpt>
      <trkpt lat="48.64971" lon="-2.37551">
        <ele>47.6</ele>
        <time>2021-07-27T16:49:54Z</time>
      </trkpt>
      <trkpt lat="48.64974" lon="-2.37541">
        <ele>47.2</ele>
        <time>2021-07-27T16:49:55Z</time>
      </trkpt>
      <trkpt lat="48.64981" lon="-2.37521">
        <ele>46.5</ele>
        <time>2021-07-27T16:49:57Z</time>
      </trkpt>
      <trkpt lat="48.64984" lon="-2.37511">
        <ele>46.1</ele>
        <time>2021-07-27T16:49:58Z</time>
      </trkpt>
      <trkpt lat="48.64988" lon="-2.37501">
        <ele>45.7</ele>
        <time>2021-07-27T16:49:59Z</time>
      </trkpt>
      <trkpt lat="48.64995" lon="-2.37481">
        <ele>44.6</ele>
        <time>2021-07-27T16:50:01Z</time>
      </trkpt>
      <trkpt lat="48.65003" lon="-2.37458">
        <ele>43.3</ele>
        <time>2021-07-27T16:50:03Z</time>
      </trkpt>
      <trkpt lat="48.65013" lon="-2.37434">
        <ele>41.3</ele>
        <time>2021-07-27T16:50:05Z</time>
      </trkpt>
      <trkpt lat="48.65024" lon="-2.37406">
        <ele>39.1</ele>
        <time>2021-07-27T16:50:07Z</time>
      </trkpt>
      <trkpt lat="48.65035" lon="-2.37378">
        <ele>36.7</ele>
        <time>2021-07-27T16:50:09Z</time>
      </trkpt>
      <trkpt lat="48.65042" lon="-2.37365">
        <ele>35.4</ele>
        <time>2021-07-27T16:50:10Z</time>
      </trkpt>
      <trkpt lat="48.65051" lon="-2.37353">
        <ele>34.1</ele>
        <time>2021-07-27T16:50:11Z</time>
      </trkpt>
      <trkpt lat="48.65061" lon="-2.37341">
        <ele>32.7</ele>
        <time>2021-07-27T16:50:12Z</time>
      </trkpt>
      <trkpt lat="48.65086" lon="-2.37327">
        <ele>29.7</ele>
        <time>2021-07-27T16:50:14Z</time>
      </trkpt>
      <trkpt lat="48.65113" lon="-2.37324">
        <ele>26.3</ele>
        <time>2021-07-27T16:50:16Z</time>
      </trkpt>
      <trkpt lat="48.65126" lon="-2.37326">
        <ele>24.7</ele>
        <time>2021-07-27T16:50:17Z</time>
      </trkpt>
      <trkpt lat="48.65139" lon="-2.37331">
        <ele>23</ele>
        <time>2021-07-27T16:50:18Z</time>
      </trkpt>
      <trkpt lat="48.65164" lon="-2.37346">
        <ele>19.8</ele>
        <time>2021-07-27T16:50:20Z</time>
      </trkpt>
      <trkpt lat="48.65188" lon="-2.37357">
        <ele>17.4</ele>
        <time>2021-07-27T16:50:22Z</time>
      </trkpt>
      <trkpt lat="48.65201" lon="-2.37359">
        <ele>16.3</ele>
        <time>2021-07-27T16:50:23Z</time>
      </trkpt>
      <trkpt lat="48.65226" lon="-2.37354">
        <ele>14.3</ele>
        <time>2021-07-27T16:50:25Z</time>
      </trkpt>
      <trkpt lat="48.65239" lon="-2.37346">
        <ele>13.9</ele>
        <time>2021-07-27T16:50:26Z</time>
      </trkpt>
      <trkpt lat="48.65259" lon="-2.37323">
        <ele>13.9</ele>
        <time>2021-07-27T16:50:28Z</time>
      </trkpt>
      <trkpt lat="48.65276" lon="-2.37295">
        <ele>14.8</ele>
        <time>2021-07-27T16:50:30Z</time>
      </trkpt>
      <trkpt lat="48.65288" lon="-2.37269">
        <ele>16.3</ele>
        <time>2021-07-27T16:50:32Z</time>
      </trkpt>
      <trkpt lat="48.65294" lon="-2.37258">
        <ele>16.8</ele>
        <time>2021-07-27T16:50:33Z</time>
      </trkpt>
      <trkpt lat="48.65299" lon="-2.37249">
        <ele>17</ele>
        <time>2021-07-27T16:50:34Z</time>
      </trkpt>
      <trkpt lat="48.65306" lon="-2.37234">
        <ele>18.1</ele>
        <time>2021-07-27T16:50:36Z</time>
      </trkpt>
      <trkpt lat="48.65309" lon="-2.37228">
        <ele>18.7</ele>
        <time>2021-07-27T16:50:37Z</time>
      </trkpt>
      <trkpt lat="48.65316" lon="-2.37216">
        <ele>19.9</ele>
        <time>2021-07-27T16:50:39Z</time>
      </trkpt>
      <trkpt lat="48.65318" lon="-2.37211">
        <ele>20.5</ele>
        <time>2021-07-27T16:50:40Z</time>
      </trkpt>
      <trkpt lat="48.65322" lon="-2.37202">
        <ele>21.3</ele>
        <time>2021-07-27T16:50:42Z</time>
      </trkpt>
      <trkpt lat="48.65326" lon="-2.37196">
        <ele>22.1</ele>
        <time>2021-07-27T16:50:44Z</time>
      </trkpt>
      <trkpt lat="48.65328" lon="-2.37192">
        <ele>22.5</ele>
        <time>2021-07-27T16:50:45Z</time>
      </trkpt>
      <trkpt lat="48.6533" lon="-2.37189">
        <ele>22.9</ele>
        <time>2021-07-27T16:50:46Z</time>
      </trkpt>
      <trkpt lat="48.65334" lon="-2.37183">
        <ele>23.5</ele>
        <time>2021-07-27T16:50:48Z</time>
      </trkpt>
      <trkpt lat="48.65337" lon="-2.37179">
        <ele>24.1</ele>
        <time>2021-07-27T16:50:49Z</time>
      </trkpt>
      <trkpt lat="48.65339" lon="-2.37177">
        <ele>24.4</ele>
        <time>2021-07-27T16:50:50Z</time>
      </trkpt>
      <trkpt lat="48.65343" lon="-2.37172">
        <ele>25.1</ele>
        <time>2021-07-27T16:50:52Z</time>
      </trkpt>
      <trkpt lat="48.65345" lon="-2.37169">
        <ele>25.4</ele>
        <time>2021-07-27T16:50:53Z</time>
      </trkpt>
      <trkpt lat="48.65348" lon="-2.37166">
        <ele>25.9</ele>
        <time>2021-07-27T16:50:54Z</time>
      </trkpt>
      <trkpt lat="48.65348" lon="-2.37165">
        <ele>26</ele>
        <time>2021-07-27T16:50:55Z</time>
      </trkpt>
      <trkpt lat="48.65351" lon="-2.37162">
        <ele>26.4</ele>
        <time>2021-07-27T16:50:56Z</time>
      </trkpt>
      <trkpt lat="48.65353" lon="-2.3716">
        <ele>26.7</ele>
        <time>2021-07-27T16:50:57Z</time>
      </trkpt>
      <trkpt lat="48.65357" lon="-2.37156">
        <ele>27.3</ele>
        <time>2021-07-27T16:50:59Z</time>
      </trkpt>
      <trkpt lat="48.6536" lon="-2.37154">
        <ele>27.7</ele>
        <time>2021-07-27T16:51:00Z</time>
      </trkpt>
      <trkpt lat="48.65365" lon="-2.37152">
        <ele>28.3</ele>
        <time>2021-07-27T16:51:02Z</time>
      </trkpt>
      <trkpt lat="48.65367" lon="-2.3715">
        <ele>28.6</ele>
        <time>2021-07-27T16:51:03Z</time>
      </trkpt>
      <trkpt lat="48.65372" lon="-2.37148">
        <ele>29.2</ele>
        <time>2021-07-27T16:51:05Z</time>
      </trkpt>
      <trkpt lat="48.65374" lon="-2.37147">
        <ele>29.5</ele>
        <time>2021-07-27T16:51:06Z</time>
      </trkpt>
      <trkpt lat="48.65379" lon="-2.37145">
        <ele>30</ele>
        <time>2021-07-27T16:51:08Z</time>
      </trkpt>
      <trkpt lat="48.65384" lon="-2.37144">
        <ele>30.7</ele>
        <time>2021-07-27T16:51:10Z</time>
      </trkpt>
      <trkpt lat="48.65389" lon="-2.37143">
        <ele>31.2</ele>
        <time>2021-07-27T16:51:12Z</time>
      </trkpt>
      <trkpt lat="48.65392" lon="-2.37142">
        <ele>31.5</ele>
        <time>2021-07-27T16:51:13Z</time>
      </trkpt>
      <trkpt lat="48.65397" lon="-2.37141">
        <ele>32</ele>
        <time>2021-07-27T16:51:15Z</time>
      </trkpt>
      <trkpt lat="48.65402" lon="-2.37141">
        <ele>32.5</ele>
        <time>2021-07-27T16:51:17Z</time>
      </trkpt>
      <trkpt lat="48.65404" lon="-2.37141">
        <ele>32.7</ele>
        <time>2021-07-27T16:51:18Z</time>
      </trkpt>
      <trkpt lat="48.65409" lon="-2.37141">
        <ele>33.1</ele>
        <time>2021-07-27T16:51:20Z</time>
      </trkpt>
      <trkpt lat="48.65412" lon="-2.3714">
        <ele>33.4</ele>
        <time>2021-07-27T16:51:21Z</time>
      </trkpt>
      <trkpt lat="48.65417" lon="-2.37139">
        <ele>33.8</ele>
        <time>2021-07-27T16:51:23Z</time>
      </trkpt>
      <trkpt lat="48.65423" lon="-2.37138">
        <ele>34.3</ele>
        <time>2021-07-27T16:51:25Z</time>
      </trkpt>
      <trkpt lat="48.65426" lon="-2.37138">
        <ele>34.5</ele>
        <time>2021-07-27T16:51:26Z</time>
      </trkpt>
      <trkpt lat="48.65427" lon="-2.37138">
        <ele>34.6</ele>
        <time>2021-07-27T16:51:27Z</time>
      </trkpt>
      <trkpt lat="48.65432" lon="-2.37137">
        <ele>34.9</ele>
        <time>2021-07-27T16:51:28Z</time>
      </trkpt>
      <trkpt lat="48.65434" lon="-2.37137">
        <ele>35</ele>
        <time>2021-07-27T16:51:29Z</time>
      </trkpt>
      <trkpt lat="48.65438" lon="-2.37136">
        <ele>35.2</ele>
        <time>2021-07-27T16:51:31Z</time>
      </trkpt>
      <trkpt lat="48.65441" lon="-2.37135">
        <ele>35.3</ele>
        <time>2021-07-27T16:51:32Z</time>
      </trkpt>
      <trkpt lat="48.65444" lon="-2.37134">
        <ele>35.5</ele>
        <time>2021-07-27T16:51:33Z</time>
      </trkpt>
      <trkpt lat="48.65448" lon="-2.37132">
        <ele>35.6</ele>
        <time>2021-07-27T16:51:34Z</time>
      </trkpt>
      <trkpt lat="48.65452" lon="-2.3713">
        <ele>35.7</ele>
        <time>2021-07-27T16:51:36Z</time>
      </trkpt>
      <trkpt lat="48.65456" lon="-2.37127">
        <ele>35.9</ele>
        <time>2021-07-27T16:51:37Z</time>
      </trkpt>
      <trkpt lat="48.65461" lon="-2.37124">
        <ele>36</ele>
        <time>2021-07-27T16:51:39Z</time>
      </trkpt>
      <trkpt lat="48.65466" lon="-2.3712">
        <ele>36.1</ele>
        <time>2021-07-27T16:51:41Z</time>
      </trkpt>
      <trkpt lat="48.6547" lon="-2.37117">
        <ele>36.2</ele>
        <time>2021-07-27T16:51:42Z</time>
      </trkpt>
      <trkpt lat="48.65473" lon="-2.37115">
        <ele>36.2</ele>
        <time>2021-07-27T16:51:43Z</time>
      </trkpt>
      <trkpt lat="48.65477" lon="-2.3711">
        <ele>36.3</ele>
        <time>2021-07-27T16:51:44Z</time>
      </trkpt>
      <trkpt lat="48.65481" lon="-2.37105">
        <ele>36.4</ele>
        <time>2021-07-27T16:51:46Z</time>
      </trkpt>
      <trkpt lat="48.65484" lon="-2.37101">
        <ele>36.4</ele>
        <time>2021-07-27T16:51:47Z</time>
      </trkpt>
      <trkpt lat="48.65487" lon="-2.37097">
        <ele>36.5</ele>
        <time>2021-07-27T16:51:48Z</time>
      </trkpt>
      <trkpt lat="48.6549" lon="-2.37092">
        <ele>36.5</ele>
        <time>2021-07-27T16:51:49Z</time>
      </trkpt>
      <trkpt lat="48.65494" lon="-2.37085">
        <ele>36.5</ele>
        <time>2021-07-27T16:51:51Z</time>
      </trkpt>
      <trkpt lat="48.65498" lon="-2.37079">
        <ele>36.5</ele>
        <time>2021-07-27T16:51:52Z</time>
      </trkpt>
      <trkpt lat="48.65503" lon="-2.37068">
        <ele>36.5</ele>
        <time>2021-07-27T16:51:54Z</time>
      </trkpt>
      <trkpt lat="48.65506" lon="-2.37063">
        <ele>36.4</ele>
        <time>2021-07-27T16:51:55Z</time>
      </trkpt>
      <trkpt lat="48.65509" lon="-2.37057">
        <ele>36.4</ele>
        <time>2021-07-27T16:51:56Z</time>
      </trkpt>
      <trkpt lat="48.65514" lon="-2.37045">
        <ele>36.3</ele>
        <time>2021-07-27T16:51:58Z</time>
      </trkpt>
      <trkpt lat="48.65516" lon="-2.3704">
        <ele>36.3</ele>
        <time>2021-07-27T16:51:59Z</time>
      </trkpt>
      <trkpt lat="48.65521" lon="-2.37028">
        <ele>36.1</ele>
        <time>2021-07-27T16:52:01Z</time>
      </trkpt>
      <trkpt lat="48.65523" lon="-2.37022">
        <ele>36</ele>
        <time>2021-07-27T16:52:02Z</time>
      </trkpt>
      <trkpt lat="48.65529" lon="-2.37013">
        <ele>35.8</ele>
        <time>2021-07-27T16:52:04Z</time>
      </trkpt>
      <trkpt lat="48.65527" lon="-2.37019">
        <ele>35.7</ele>
        <time>2021-07-27T16:52:06Z</time>
      </trkpt>
      <trkpt lat="48.65527" lon="-2.37024">
        <ele>35.6</ele>
        <time>2021-07-27T16:52:07Z</time>
      </trkpt>
      <trkpt lat="48.65523" lon="-2.37033">
        <ele>35.4</ele>
        <time>2021-07-27T16:52:09Z</time>
      </trkpt>
      <trkpt lat="48.65524" lon="-2.37039">
        <ele>35.4</ele>
        <time>2021-07-27T16:52:10Z</time>
      </trkpt>
      <trkpt lat="48.65527" lon="-2.37042">
        <ele>35</ele>
        <time>2021-07-27T16:52:11Z</time>
      </trkpt>
      <trkpt lat="48.6553" lon="-2.37043">
        <ele>34.5</ele>
        <time>2021-07-27T16:52:12Z</time>
      </trkpt>
      <trkpt lat="48.65535" lon="-2.37045">
        <ele>33.5</ele>
        <time>2021-07-27T16:52:14Z</time>
      </trkpt>
      <trkpt lat="48.65538" lon="-2.37047">
        <ele>33.3</ele>
        <time>2021-07-27T16:52:15Z</time>
      </trkpt>
      <trkpt lat="48.65542" lon="-2.3705">
        <ele>33.2</ele>
        <time>2021-07-27T16:52:16Z</time>
      </trkpt>
      <trkpt lat="48.65545" lon="-2.37053">
        <ele>33.1</ele>
        <time>2021-07-27T16:52:18Z</time>
      </trkpt>
      <trkpt lat="48.65547" lon="-2.37057">
        <ele>33.2</ele>
        <time>2021-07-27T16:52:19Z</time>
      </trkpt>
      <trkpt lat="48.65552" lon="-2.37063">
        <ele>33</ele>
        <time>2021-07-27T16:52:21Z</time>
      </trkpt>
      <trkpt lat="48.65558" lon="-2.37068">
        <ele>32.4</ele>
        <time>2021-07-27T16:52:22Z</time>
      </trkpt>
      <trkpt lat="48.65561" lon="-2.37072">
        <ele>31.9</ele>
        <time>2021-07-27T16:52:24Z</time>
      </trkpt>
      <trkpt lat="48.65566" lon="-2.37074">
        <ele>31.9</ele>
        <time>2021-07-27T16:52:25Z</time>
      </trkpt>
      <trkpt lat="48.65568" lon="-2.37076">
        <ele>31.9</ele>
        <time>2021-07-27T16:52:27Z</time>
      </trkpt>
      <trkpt lat="48.65568" lon="-2.37075">
        <ele>31.9</ele>
        <time>2021-07-27T16:52:29Z</time>
      </trkpt>
      <trkpt lat="48.65568" lon="-2.37074">
        <ele>31.9</ele>
        <time>2021-07-27T16:52:30Z</time>
      </trkpt>
      <trkpt lat="48.65568" lon="-2.37073">
        <ele>31.9</ele>
        <time>2021-07-27T16:52:31Z</time>
      </trkpt>
      <trkpt lat="48.65568" lon="-2.37072">
        <ele>31.9</ele>
        <time>2021-07-27T16:52:33Z</time>
      </trkpt>
      <trkpt lat="48.65568" lon="-2.37071">
        <ele>31.9</ele>
        <time>2021-07-27T16:52:34Z</time>
      </trkpt>
      <trkpt lat="48.65568" lon="-2.3707">
        <ele>31.9</ele>
        <time>2021-07-27T16:52:36Z</time>
      </trkpt>
      <trkpt lat="48.65568" lon="-2.37069">
        <ele>31.9</ele>
        <time>2021-07-27T16:52:37Z</time>
      </trkpt>
      <trkpt lat="48.65568" lon="-2.37068">
        <ele>31.9</ele>
        <time>2021-07-27T16:52:39Z</time>
      </trkpt>
      <trkpt lat="48.65568" lon="-2.37068">
        <ele>31.9</ele>
        <time>2021-07-27T16:53:02Z</time>
      </trkpt>
      <trkpt lat="48.65568" lon="-2.37067">
        <ele>31.9</ele>
        <time>2021-07-27T16:53:03Z</time>
      </trkpt>
      <trkpt lat="48.65568" lon="-2.37066">
        <ele>31.9</ele>
        <time>2021-07-27T16:53:04Z</time>
      </trkpt>
      <trkpt lat="48.65568" lon="-2.37061">
        <ele>31.9</ele>
        <time>2021-07-27T16:53:05Z</time>
      </trkpt>
      <trkpt lat="48.65567" lon="-2.37049">
        <ele>31.9</ele>
        <time>2021-07-27T16:53:07Z</time>
      </trkpt>
      <trkpt lat="48.65565" lon="-2.37041">
        <ele>31.9</ele>
        <time>2021-07-27T16:53:08Z</time>
      </trkpt>
      <trkpt lat="48.65564" lon="-2.37034">
        <ele>31.9</ele>
        <time>2021-07-27T16:53:09Z</time>
      </trkpt>
      <trkpt lat="48.65562" lon="-2.37027">
        <ele>31.9</ele>
        <time>2021-07-27T16:53:11Z</time>
      </trkpt>
      <trkpt lat="48.6556" lon="-2.3702">
        <ele>31.9</ele>
        <time>2021-07-27T16:53:12Z</time>
      </trkpt>
      <trkpt lat="48.65558" lon="-2.37013">
        <ele>31.8</ele>
        <time>2021-07-27T16:53:13Z</time>
      </trkpt>
      <trkpt lat="48.65557" lon="-2.37005">
        <ele>31.8</ele>
        <time>2021-07-27T16:53:14Z</time>
      </trkpt>
      <trkpt lat="48.65557" lon="-2.36998">
        <ele>31.7</ele>
        <time>2021-07-27T16:53:15Z</time>
      </trkpt>
      <trkpt lat="48.65559" lon="-2.36993">
        <ele>31.7</ele>
        <time>2021-07-27T16:53:17Z</time>
      </trkpt>
      <trkpt lat="48.65561" lon="-2.36988">
        <ele>31.7</ele>
        <time>2021-07-27T16:53:18Z</time>
      </trkpt>
      <trkpt lat="48.65562" lon="-2.36982">
        <ele>31.7</ele>
        <time>2021-07-27T16:53:19Z</time>
      </trkpt>
      <trkpt lat="48.65564" lon="-2.36974">
        <ele>31.8</ele>
        <time>2021-07-27T16:53:20Z</time>
      </trkpt>
      <trkpt lat="48.65566" lon="-2.36966">
        <ele>32</ele>
        <time>2021-07-27T16:53:22Z</time>
      </trkpt>
      <trkpt lat="48.65569" lon="-2.36961">
        <ele>32.2</ele>
        <time>2021-07-27T16:53:23Z</time>
      </trkpt>
      <trkpt lat="48.6557" lon="-2.36956">
        <ele>32.4</ele>
        <time>2021-07-27T16:53:24Z</time>
      </trkpt>
      <trkpt lat="48.65571" lon="-2.36952">
        <ele>32.6</ele>
        <time>2021-07-27T16:53:25Z</time>
      </trkpt>
      <trkpt lat="48.65572" lon="-2.36946">
        <ele>32.9</ele>
        <time>2021-07-27T16:53:27Z</time>
      </trkpt>
      <trkpt lat="48.65573" lon="-2.36944">
        <ele>33</ele>
        <time>2021-07-27T16:53:28Z</time>
      </trkpt>
      <trkpt lat="48.65575" lon="-2.36942">
        <ele>33.2</ele>
        <time>2021-07-27T16:53:30Z</time>
      </trkpt>
      <trkpt lat="48.65574" lon="-2.36943">
        <ele>33.2</ele>
        <time>2021-07-27T16:53:31Z</time>
      </trkpt>
      <trkpt lat="48.65575" lon="-2.36942">
        <ele>33.3</ele>
        <time>2021-07-27T16:53:33Z</time>
      </trkpt>
      <trkpt lat="48.65575" lon="-2.36939">
        <ele>33.4</ele>
        <time>2021-07-27T16:53:34Z</time>
      </trkpt>
      <trkpt lat="48.65576" lon="-2.36937">
        <ele>33.6</ele>
        <time>2021-07-27T16:53:35Z</time>
      </trkpt>
      <trkpt lat="48.65577" lon="-2.36935">
        <ele>33.7</ele>
        <time>2021-07-27T16:53:36Z</time>
      </trkpt>
      <trkpt lat="48.65578" lon="-2.36933">
        <ele>33.8</ele>
        <time>2021-07-27T16:53:38Z</time>
      </trkpt>
      <trkpt lat="48.6558" lon="-2.36933">
        <ele>34</ele>
        <time>2021-07-27T16:53:40Z</time>
      </trkpt>
      <trkpt lat="48.65581" lon="-2.36934">
        <ele>34</ele>
        <time>2021-07-27T16:53:41Z</time>
      </trkpt>
      <trkpt lat="48.65585" lon="-2.36933">
        <ele>34.2</ele>
        <time>2021-07-27T16:53:42Z</time>
      </trkpt>
      <trkpt lat="48.65586" lon="-2.36932">
        <ele>34.3</ele>
        <time>2021-07-27T16:53:43Z</time>
      </trkpt>
      <trkpt lat="48.65588" lon="-2.36932">
        <ele>34.4</ele>
        <time>2021-07-27T16:53:44Z</time>
      </trkpt>
      <trkpt lat="48.65592" lon="-2.36929">
        <ele>34.6</ele>
        <time>2021-07-27T16:53:45Z</time>
      </trkpt>
      <trkpt lat="48.65594" lon="-2.36927">
        <ele>34.8</ele>
        <time>2021-07-27T16:53:46Z</time>
      </trkpt>
      <trkpt lat="48.65598" lon="-2.36922">
        <ele>35</ele>
        <time>2021-07-27T16:53:48Z</time>
      </trkpt>
      <trkpt lat="48.65601" lon="-2.36919">
        <ele>35.1</ele>
        <time>2021-07-27T16:53:49Z</time>
      </trkpt>
      <trkpt lat="48.65604" lon="-2.36916">
        <ele>35.3</ele>
        <time>2021-07-27T16:53:51Z</time>
      </trkpt>
      <trkpt lat="48.65606" lon="-2.36913">
        <ele>35.4</ele>
        <time>2021-07-27T16:53:52Z</time>
      </trkpt>
      <trkpt lat="48.65609" lon="-2.36908">
        <ele>35.4</ele>
        <time>2021-07-27T16:53:53Z</time>
      </trkpt>
      <trkpt lat="48.65612" lon="-2.36905">
        <ele>35.4</ele>
        <time>2021-07-27T16:53:55Z</time>
      </trkpt>
      <trkpt lat="48.65614" lon="-2.36905">
        <ele>35.4</ele>
        <time>2021-07-27T16:53:56Z</time>
      </trkpt>
      <trkpt lat="48.65619" lon="-2.36906">
        <ele>35.4</ele>
        <time>2021-07-27T16:53:58Z</time>
      </trkpt>
      <trkpt lat="48.65622" lon="-2.36907">
        <ele>35.3</ele>
        <time>2021-07-27T16:53:59Z</time>
      </trkpt>
      <trkpt lat="48.65627" lon="-2.36908">
        <ele>35.2</ele>
        <time>2021-07-27T16:54:00Z</time>
      </trkpt>
      <trkpt lat="48.6563" lon="-2.36907">
        <ele>35.1</ele>
        <time>2021-07-27T16:54:02Z</time>
      </trkpt>
      <trkpt lat="48.65633" lon="-2.36907">
        <ele>35</ele>
        <time>2021-07-27T16:54:03Z</time>
      </trkpt>
      <trkpt lat="48.65636" lon="-2.36906">
        <ele>34.9</ele>
        <time>2021-07-27T16:54:04Z</time>
      </trkpt>
      <trkpt lat="48.65638" lon="-2.36905">
        <ele>34.8</ele>
        <time>2021-07-27T16:54:05Z</time>
      </trkpt>
      <trkpt lat="48.65643" lon="-2.36902">
        <ele>34.7</ele>
        <time>2021-07-27T16:54:06Z</time>
      </trkpt>
      <trkpt lat="48.65647" lon="-2.36899">
        <ele>34.6</ele>
        <time>2021-07-27T16:54:08Z</time>
      </trkpt>
      <trkpt lat="48.6565" lon="-2.36897">
        <ele>34.5</ele>
        <time>2021-07-27T16:54:09Z</time>
      </trkpt>
      <trkpt lat="48.65656" lon="-2.36894">
        <ele>34.4</ele>
        <time>2021-07-27T16:54:10Z</time>
      </trkpt>
      <trkpt lat="48.65659" lon="-2.36893">
        <ele>34.4</ele>
        <time>2021-07-27T16:54:11Z</time>
      </trkpt>
      <trkpt lat="48.65664" lon="-2.3689">
        <ele>34.4</ele>
        <time>2021-07-27T16:54:13Z</time>
      </trkpt>
      <trkpt lat="48.6567" lon="-2.36888">
        <ele>34.5</ele>
        <time>2021-07-27T16:54:15Z</time>
      </trkpt>
      <trkpt lat="48.65672" lon="-2.36885">
        <ele>34.6</ele>
        <time>2021-07-27T16:54:16Z</time>
      </trkpt>
      <trkpt lat="48.65676" lon="-2.36883">
        <ele>34.6</ele>
        <time>2021-07-27T16:54:17Z</time>
      </trkpt>
      <trkpt lat="48.65678" lon="-2.36883">
        <ele>34.7</ele>
        <time>2021-07-27T16:54:18Z</time>
      </trkpt>
      <trkpt lat="48.65682" lon="-2.36881">
        <ele>34.7</ele>
        <time>2021-07-27T16:54:20Z</time>
      </trkpt>
      <trkpt lat="48.65683" lon="-2.36879">
        <ele>34.7</ele>
        <time>2021-07-27T16:54:21Z</time>
      </trkpt>
      <trkpt lat="48.65684" lon="-2.36878">
        <ele>34.7</ele>
        <time>2021-07-27T16:54:22Z</time>
      </trkpt>
      <trkpt lat="48.65687" lon="-2.36881">
        <ele>34.7</ele>
        <time>2021-07-27T16:54:23Z</time>
      </trkpt>
      <trkpt lat="48.65688" lon="-2.36882">
        <ele>34.7</ele>
        <time>2021-07-27T16:54:24Z</time>
      </trkpt>
      <trkpt lat="48.65691" lon="-2.3688">
        <ele>34.8</ele>
        <time>2021-07-27T16:54:26Z</time>
      </trkpt>
      <trkpt lat="48.65691" lon="-2.36877">
        <ele>34.8</ele>
        <time>2021-07-27T16:54:27Z</time>
      </trkpt>
      <trkpt lat="48.65695" lon="-2.36875">
        <ele>34.8</ele>
        <time>2021-07-27T16:54:29Z</time>
      </trkpt>
      <trkpt lat="48.65699" lon="-2.36875">
        <ele>34.8</ele>
        <time>2021-07-27T16:54:31Z</time>
      </trkpt>
      <trkpt lat="48.65701" lon="-2.36874">
        <ele>34.8</ele>
        <time>2021-07-27T16:54:32Z</time>
      </trkpt>
      <trkpt lat="48.65705" lon="-2.36872">
        <ele>34.8</ele>
        <time>2021-07-27T16:54:34Z</time>
      </trkpt>
      <trkpt lat="48.65708" lon="-2.3687">
        <ele>34.8</ele>
        <time>2021-07-27T16:54:35Z</time>
      </trkpt>
      <trkpt lat="48.65709" lon="-2.3687">
        <ele>34.8</ele>
        <time>2021-07-27T16:54:37Z</time>
      </trkpt>
      <trkpt lat="48.65707" lon="-2.3687">
        <ele>34.8</ele>
        <time>2021-07-27T16:54:39Z</time>
      </trkpt>
      <trkpt lat="48.65706" lon="-2.36871">
        <ele>34.8</ele>
        <time>2021-07-27T16:54:41Z</time>
      </trkpt>
      <trkpt lat="48.65705" lon="-2.36871">
        <ele>34.8</ele>
        <time>2021-07-27T16:54:42Z</time>
      </trkpt>
      <trkpt lat="48.65704" lon="-2.36871">
        <ele>34.8</ele>
        <time>2021-07-27T16:54:43Z</time>
      </trkpt>
      <trkpt lat="48.65702" lon="-2.36872">
        <ele>34.8</ele>
        <time>2021-07-27T16:54:45Z</time>
      </trkpt>
      <trkpt lat="48.65701" lon="-2.36872">
        <ele>34.8</ele>
        <time>2021-07-27T16:54:47Z</time>
      </trkpt>
      <trkpt lat="48.657" lon="-2.36872">
        <ele>34.8</ele>
        <time>2021-07-27T16:55:18Z</time>
      </trkpt>
      <trkpt lat="48.65699" lon="-2.36873">
        <ele>34.8</ele>
        <time>2021-07-27T16:55:19Z</time>
      </trkpt>
      <trkpt lat="48.65691" lon="-2.36878">
        <ele>34.8</ele>
        <time>2021-07-27T16:55:20Z</time>
      </trkpt>
      <trkpt lat="48.65688" lon="-2.36877">
        <ele>34.8</ele>
        <time>2021-07-27T16:55:22Z</time>
      </trkpt>
      <trkpt lat="48.65686" lon="-2.36878">
        <ele>34.7</ele>
        <time>2021-07-27T16:55:24Z</time>
      </trkpt>
      <trkpt lat="48.65688" lon="-2.3688">
        <ele>34.7</ele>
        <time>2021-07-27T16:55:25Z</time>
      </trkpt>
      <trkpt lat="48.65689" lon="-2.36881">
        <ele>34.7</ele>
        <time>2021-07-27T16:55:26Z</time>
      </trkpt>
      <trkpt lat="48.65688" lon="-2.3688">
        <ele>34.7</ele>
        <time>2021-07-27T16:55:28Z</time>
      </trkpt>
      <trkpt lat="48.65686" lon="-2.3688">
        <ele>34.7</ele>
        <time>2021-07-27T16:55:30Z</time>
      </trkpt>
      <trkpt lat="48.65685" lon="-2.36879">
        <ele>34.7</ele>
        <time>2021-07-27T16:55:32Z</time>
      </trkpt>
      <trkpt lat="48.65683" lon="-2.36879">
        <ele>34.7</ele>
        <time>2021-07-27T16:55:33Z</time>
      </trkpt>
      <trkpt lat="48.65682" lon="-2.36878">
        <ele>34.7</ele>
        <time>2021-07-27T16:55:35Z</time>
      </trkpt>
      <trkpt lat="48.6568" lon="-2.36878">
        <ele>34.7</ele>
        <time>2021-07-27T16:56:00Z</time>
      </trkpt>
      <trkpt lat="48.65679" lon="-2.36877">
        <ele>34.7</ele>
        <time>2021-07-27T16:56:01Z</time>
      </trkpt>
      <trkpt lat="48.65677" lon="-2.36876">
        <ele>34.8</ele>
        <time>2021-07-27T16:56:02Z</time>
      </trkpt>
      <trkpt lat="48.65674" lon="-2.36875">
        <ele>34.8</ele>
        <time>2021-07-27T16:56:03Z</time>
      </trkpt>
      <trkpt lat="48.65669" lon="-2.36875">
        <ele>35</ele>
        <time>2021-07-27T16:56:04Z</time>
      </trkpt>
      <trkpt lat="48.65665" lon="-2.36875">
        <ele>35.1</ele>
        <time>2021-07-27T16:56:06Z</time>
      </trkpt>
      <trkpt lat="48.65657" lon="-2.36873">
        <ele>35.4</ele>
        <time>2021-07-27T16:56:07Z</time>
      </trkpt>
      <trkpt lat="48.65652" lon="-2.3687">
        <ele>35.7</ele>
        <time>2021-07-27T16:56:09Z</time>
      </trkpt>
      <trkpt lat="48.65646" lon="-2.36867">
        <ele>36</ele>
        <time>2021-07-27T16:56:11Z</time>
      </trkpt>
      <trkpt lat="48.6564" lon="-2.36863">
        <ele>36.4</ele>
        <time>2021-07-27T16:56:12Z</time>
      </trkpt>
      <trkpt lat="48.65636" lon="-2.36861">
        <ele>36.6</ele>
        <time>2021-07-27T16:56:13Z</time>
      </trkpt>
      <trkpt lat="48.65635" lon="-2.3686">
        <ele>36.7</ele>
        <time>2021-07-27T16:56:14Z</time>
      </trkpt>
      <trkpt lat="48.65631" lon="-2.36855">
        <ele>37</ele>
        <time>2021-07-27T16:56:16Z</time>
      </trkpt>
      <trkpt lat="48.65628" lon="-2.36852">
        <ele>37.2</ele>
        <time>2021-07-27T16:56:17Z</time>
      </trkpt>
      <trkpt lat="48.65624" lon="-2.3685">
        <ele>37.4</ele>
        <time>2021-07-27T16:56:18Z</time>
      </trkpt>
      <trkpt lat="48.65621" lon="-2.36846">
        <ele>37.6</ele>
        <time>2021-07-27T16:56:20Z</time>
      </trkpt>
      <trkpt lat="48.65619" lon="-2.36844">
        <ele>37.8</ele>
        <time>2021-07-27T16:56:21Z</time>
      </trkpt>
      <trkpt lat="48.65615" lon="-2.36843">
        <ele>37.9</ele>
        <time>2021-07-27T16:56:22Z</time>
      </trkpt>
      <trkpt lat="48.65607" lon="-2.36837">
        <ele>38.2</ele>
        <time>2021-07-27T16:56:24Z</time>
      </trkpt>
      <trkpt lat="48.65604" lon="-2.36835">
        <ele>38.3</ele>
        <time>2021-07-27T16:56:25Z</time>
      </trkpt>
      <trkpt lat="48.656" lon="-2.36831">
        <ele>38.4</ele>
        <time>2021-07-27T16:56:27Z</time>
      </trkpt>
      <trkpt lat="48.65599" lon="-2.36827">
        <ele>38.5</ele>
        <time>2021-07-27T16:56:28Z</time>
      </trkpt>
      <trkpt lat="48.65598" lon="-2.36821">
        <ele>38.6</ele>
        <time>2021-07-27T16:56:29Z</time>
      </trkpt>
      <trkpt lat="48.65597" lon="-2.36802">
        <ele>38.8</ele>
        <time>2021-07-27T16:56:31Z</time>
      </trkpt>
      <trkpt lat="48.65596" lon="-2.36798">
        <ele>38.9</ele>
        <time>2021-07-27T16:56:32Z</time>
      </trkpt>
      <trkpt lat="48.65593" lon="-2.36793">
        <ele>38.9</ele>
        <time>2021-07-27T16:56:34Z</time>
      </trkpt>
      <trkpt lat="48.65591" lon="-2.36789">
        <ele>39</ele>
        <time>2021-07-27T16:56:35Z</time>
      </trkpt>
      <trkpt lat="48.65588" lon="-2.36785">
        <ele>39</ele>
        <time>2021-07-27T16:56:36Z</time>
      </trkpt>
      <trkpt lat="48.65584" lon="-2.36777">
        <ele>39</ele>
        <time>2021-07-27T16:56:38Z</time>
      </trkpt>
      <trkpt lat="48.65583" lon="-2.36773">
        <ele>39</ele>
        <time>2021-07-27T16:56:39Z</time>
      </trkpt>
      <trkpt lat="48.65581" lon="-2.36766">
        <ele>39</ele>
        <time>2021-07-27T16:56:40Z</time>
      </trkpt>
      <trkpt lat="48.65581" lon="-2.36761">
        <ele>39</ele>
        <time>2021-07-27T16:56:42Z</time>
      </trkpt>
      <trkpt lat="48.6558" lon="-2.36757">
        <ele>38.9</ele>
        <time>2021-07-27T16:56:43Z</time>
      </trkpt>
      <trkpt lat="48.65579" lon="-2.36752">
        <ele>38.9</ele>
        <time>2021-07-27T16:56:44Z</time>
      </trkpt>
      <trkpt lat="48.65576" lon="-2.36745">
        <ele>38.8</ele>
        <time>2021-07-27T16:56:45Z</time>
      </trkpt>
      <trkpt lat="48.65572" lon="-2.36738">
        <ele>38.7</ele>
        <time>2021-07-27T16:56:47Z</time>
      </trkpt>
      <trkpt lat="48.65567" lon="-2.36732">
        <ele>38.6</ele>
        <time>2021-07-27T16:56:48Z</time>
      </trkpt>
      <trkpt lat="48.65566" lon="-2.36729">
        <ele>38.5</ele>
        <time>2021-07-27T16:56:49Z</time>
      </trkpt>
      <trkpt lat="48.65564" lon="-2.36726">
        <ele>38.4</ele>
        <time>2021-07-27T16:56:51Z</time>
      </trkpt>
      <trkpt lat="48.65561" lon="-2.36725">
        <ele>38.2</ele>
        <time>2021-07-27T16:56:52Z</time>
      </trkpt>
      <trkpt lat="48.65558" lon="-2.36725">
        <ele>38</ele>
        <time>2021-07-27T16:56:54Z</time>
      </trkpt>
      <trkpt lat="48.65555" lon="-2.36726">
        <ele>37.9</ele>
        <time>2021-07-27T16:56:55Z</time>
      </trkpt>
      <trkpt lat="48.65552" lon="-2.36727">
        <ele>37.6</ele>
        <time>2021-07-27T16:56:56Z</time>
      </trkpt>
      <trkpt lat="48.65548" lon="-2.36727">
        <ele>37.3</ele>
        <time>2021-07-27T16:56:57Z</time>
      </trkpt>
      <trkpt lat="48.65538" lon="-2.3673">
        <ele>36.6</ele>
        <time>2021-07-27T16:56:59Z</time>
      </trkpt>
      <trkpt lat="48.65528" lon="-2.36727">
        <ele>36.3</ele>
        <time>2021-07-27T16:57:01Z</time>
      </trkpt>
      <trkpt lat="48.65517" lon="-2.36719">
        <ele>36.1</ele>
        <time>2021-07-27T16:57:03Z</time>
      </trkpt>
      <trkpt lat="48.65506" lon="-2.36709">
        <ele>36</ele>
        <time>2021-07-27T16:57:05Z</time>
      </trkpt>
      <trkpt lat="48.655" lon="-2.36705">
        <ele>36</ele>
        <time>2021-07-27T16:57:06Z</time>
      </trkpt>
      <trkpt lat="48.65494" lon="-2.36703">
        <ele>36.1</ele>
        <time>2021-07-27T16:57:07Z</time>
      </trkpt>
      <trkpt lat="48.65481" lon="-2.36699">
        <ele>36.2</ele>
        <time>2021-07-27T16:57:09Z</time>
      </trkpt>
      <trkpt lat="48.6547" lon="-2.36697">
        <ele>36.4</ele>
        <time>2021-07-27T16:57:11Z</time>
      </trkpt>
      <trkpt lat="48.65465" lon="-2.36695">
        <ele>36.4</ele>
        <time>2021-07-27T16:57:12Z</time>
      </trkpt>
      <trkpt lat="48.65457" lon="-2.36693">
        <ele>36.6</ele>
        <time>2021-07-27T16:57:14Z</time>
      </trkpt>
      <trkpt lat="48.65452" lon="-2.36692">
        <ele>36.7</ele>
        <time>2021-07-27T16:57:15Z</time>
      </trkpt>
      <trkpt lat="48.65443" lon="-2.3669">
        <ele>37</ele>
        <time>2021-07-27T16:57:17Z</time>
      </trkpt>
      <trkpt lat="48.65438" lon="-2.36689">
        <ele>37.1</ele>
        <time>2021-07-27T16:57:18Z</time>
      </trkpt>
      <trkpt lat="48.65434" lon="-2.36688">
        <ele>37.2</ele>
        <time>2021-07-27T16:57:19Z</time>
      </trkpt>
      <trkpt lat="48.65427" lon="-2.36687">
        <ele>37.4</ele>
        <time>2021-07-27T16:57:21Z</time>
      </trkpt>
      <trkpt lat="48.65422" lon="-2.36686">
        <ele>37.6</ele>
        <time>2021-07-27T16:57:22Z</time>
      </trkpt>
      <trkpt lat="48.65419" lon="-2.36686">
        <ele>37.7</ele>
        <time>2021-07-27T16:57:23Z</time>
      </trkpt>
      <trkpt lat="48.65412" lon="-2.36685">
        <ele>37.9</ele>
        <time>2021-07-27T16:57:24Z</time>
      </trkpt>
      <trkpt lat="48.65407" lon="-2.36684">
        <ele>38</ele>
        <time>2021-07-27T16:57:25Z</time>
      </trkpt>
      <trkpt lat="48.65401" lon="-2.36685">
        <ele>38.2</ele>
        <time>2021-07-27T16:57:27Z</time>
      </trkpt>
      <trkpt lat="48.65397" lon="-2.36684">
        <ele>38.3</ele>
        <time>2021-07-27T16:57:28Z</time>
      </trkpt>
      <trkpt lat="48.6539" lon="-2.36683">
        <ele>38.5</ele>
        <time>2021-07-27T16:57:30Z</time>
      </trkpt>
      <trkpt lat="48.65387" lon="-2.36683">
        <ele>38.6</ele>
        <time>2021-07-27T16:57:31Z</time>
      </trkpt>
      <trkpt lat="48.65381" lon="-2.36681">
        <ele>38.8</ele>
        <time>2021-07-27T16:57:33Z</time>
      </trkpt>
      <trkpt lat="48.65375" lon="-2.36675">
        <ele>39.1</ele>
        <time>2021-07-27T16:57:35Z</time>
      </trkpt>
      <trkpt lat="48.65371" lon="-2.36668">
        <ele>39.5</ele>
        <time>2021-07-27T16:57:37Z</time>
      </trkpt>
      <trkpt lat="48.65367" lon="-2.36664">
        <ele>39.7</ele>
        <time>2021-07-27T16:57:38Z</time>
      </trkpt>
      <trkpt lat="48.65365" lon="-2.36658">
        <ele>39.8</ele>
        <time>2021-07-27T16:57:40Z</time>
      </trkpt>
      <trkpt lat="48.65364" lon="-2.3665">
        <ele>40</ele>
        <time>2021-07-27T16:57:41Z</time>
      </trkpt>
      <trkpt lat="48.65362" lon="-2.36644">
        <ele>40.1</ele>
        <time>2021-07-27T16:57:42Z</time>
      </trkpt>
      <trkpt lat="48.65358" lon="-2.36632">
        <ele>40.2</ele>
        <time>2021-07-27T16:57:44Z</time>
      </trkpt>
      <trkpt lat="48.65354" lon="-2.3662">
        <ele>40.2</ele>
        <time>2021-07-27T16:57:46Z</time>
      </trkpt>
      <trkpt lat="48.65352" lon="-2.36614">
        <ele>40.2</ele>
        <time>2021-07-27T16:57:47Z</time>
      </trkpt>
      <trkpt lat="48.65348" lon="-2.36605">
        <ele>40.2</ele>
        <time>2021-07-27T16:57:49Z</time>
      </trkpt>
      <trkpt lat="48.65345" lon="-2.366">
        <ele>40.2</ele>
        <time>2021-07-27T16:57:50Z</time>
      </trkpt>
      <trkpt lat="48.65341" lon="-2.36589">
        <ele>40.3</ele>
        <time>2021-07-27T16:57:52Z</time>
      </trkpt>
      <trkpt lat="48.65339" lon="-2.36582">
        <ele>40.3</ele>
        <time>2021-07-27T16:57:53Z</time>
      </trkpt>
      <trkpt lat="48.65335" lon="-2.36569">
        <ele>40.5</ele>
        <time>2021-07-27T16:57:55Z</time>
      </trkpt>
      <trkpt lat="48.65331" lon="-2.36556">
        <ele>40.6</ele>
        <time>2021-07-27T16:57:57Z</time>
      </trkpt>
      <trkpt lat="48.65329" lon="-2.36551">
        <ele>40.6</ele>
        <time>2021-07-27T16:57:58Z</time>
      </trkpt>
      <trkpt lat="48.65328" lon="-2.36549">
        <ele>40.7</ele>
        <time>2021-07-27T16:57:59Z</time>
      </trkpt>
      <trkpt lat="48.65324" lon="-2.36536">
        <ele>40.8</ele>
        <time>2021-07-27T16:58:01Z</time>
      </trkpt>
      <trkpt lat="48.65321" lon="-2.36527">
        <ele>40.9</ele>
        <time>2021-07-27T16:58:02Z</time>
      </trkpt>
      <trkpt lat="48.65318" lon="-2.36518">
        <ele>41</ele>
        <time>2021-07-27T16:58:04Z</time>
      </trkpt>
      <trkpt lat="48.65313" lon="-2.36506">
        <ele>41.2</ele>
        <time>2021-07-27T16:58:06Z</time>
      </trkpt>
      <trkpt lat="48.6531" lon="-2.36497">
        <ele>41.4</ele>
        <time>2021-07-27T16:58:07Z</time>
      </trkpt>
      <trkpt lat="48.65305" lon="-2.36484">
        <ele>41.6</ele>
        <time>2021-07-27T16:58:09Z</time>
      </trkpt>
      <trkpt lat="48.65303" lon="-2.36474">
        <ele>41.8</ele>
        <time>2021-07-27T16:58:11Z</time>
      </trkpt>
      <trkpt lat="48.65302" lon="-2.36468">
        <ele>42</ele>
        <time>2021-07-27T16:58:12Z</time>
      </trkpt>
      <trkpt lat="48.65299" lon="-2.3646">
        <ele>42.2</ele>
        <time>2021-07-27T16:58:13Z</time>
      </trkpt>
      <trkpt lat="48.65294" lon="-2.36451">
        <ele>42.4</ele>
        <time>2021-07-27T16:58:15Z</time>
      </trkpt>
      <trkpt lat="48.65291" lon="-2.36445">
        <ele>42.6</ele>
        <time>2021-07-27T16:58:16Z</time>
      </trkpt>
      <trkpt lat="48.65285" lon="-2.36435">
        <ele>42.9</ele>
        <time>2021-07-27T16:58:18Z</time>
      </trkpt>
      <trkpt lat="48.65279" lon="-2.36423">
        <ele>43.3</ele>
        <time>2021-07-27T16:58:20Z</time>
      </trkpt>
      <trkpt lat="48.65277" lon="-2.36417">
        <ele>43.5</ele>
        <time>2021-07-27T16:58:21Z</time>
      </trkpt>
      <trkpt lat="48.65272" lon="-2.36405">
        <ele>43.9</ele>
        <time>2021-07-27T16:58:23Z</time>
      </trkpt>
      <trkpt lat="48.6527" lon="-2.36399">
        <ele>44</ele>
        <time>2021-07-27T16:58:24Z</time>
      </trkpt>
      <trkpt lat="48.65265" lon="-2.36387">
        <ele>44.4</ele>
        <time>2021-07-27T16:58:26Z</time>
      </trkpt>
      <trkpt lat="48.65263" lon="-2.36382">
        <ele>44.5</ele>
        <time>2021-07-27T16:58:27Z</time>
      </trkpt>
      <trkpt lat="48.65261" lon="-2.36376">
        <ele>44.7</ele>
        <time>2021-07-27T16:58:28Z</time>
      </trkpt>
      <trkpt lat="48.65256" lon="-2.36364">
        <ele>45</ele>
        <time>2021-07-27T16:58:30Z</time>
      </trkpt>
      <trkpt lat="48.65254" lon="-2.36358">
        <ele>45.2</ele>
        <time>2021-07-27T16:58:31Z</time>
      </trkpt>
      <trkpt lat="48.65252" lon="-2.36352">
        <ele>45.4</ele>
        <time>2021-07-27T16:58:32Z</time>
      </trkpt>
      <trkpt lat="48.65248" lon="-2.3634">
        <ele>45.7</ele>
        <time>2021-07-27T16:58:34Z</time>
      </trkpt>
      <trkpt lat="48.65245" lon="-2.36328">
        <ele>46</ele>
        <time>2021-07-27T16:58:36Z</time>
      </trkpt>
      <trkpt lat="48.65244" lon="-2.36321">
        <ele>46.2</ele>
        <time>2021-07-27T16:58:37Z</time>
      </trkpt>
      <trkpt lat="48.65243" lon="-2.36314">
        <ele>46.3</ele>
        <time>2021-07-27T16:58:38Z</time>
      </trkpt>
      <trkpt lat="48.65241" lon="-2.36307">
        <ele>46.5</ele>
        <time>2021-07-27T16:58:39Z</time>
      </trkpt>
      <trkpt lat="48.6524" lon="-2.36301">
        <ele>46.6</ele>
        <time>2021-07-27T16:58:40Z</time>
      </trkpt>
      <trkpt lat="48.65236" lon="-2.36289">
        <ele>46.9</ele>
        <time>2021-07-27T16:58:42Z</time>
      </trkpt>
      <trkpt lat="48.65235" lon="-2.36285">
        <ele>47</ele>
        <time>2021-07-27T16:58:43Z</time>
      </trkpt>
      <trkpt lat="48.65231" lon="-2.36272">
        <ele>47.2</ele>
        <time>2021-07-27T16:58:45Z</time>
      </trkpt>
      <trkpt lat="48.65228" lon="-2.36261">
        <ele>47.5</ele>
        <time>2021-07-27T16:58:47Z</time>
      </trkpt>
      <trkpt lat="48.65225" lon="-2.36253">
        <ele>47.6</ele>
        <time>2021-07-27T16:58:48Z</time>
      </trkpt>
      <trkpt lat="48.65221" lon="-2.36242">
        <ele>47.8</ele>
        <time>2021-07-27T16:58:50Z</time>
      </trkpt>
      <trkpt lat="48.65219" lon="-2.36229">
        <ele>48</ele>
        <time>2021-07-27T16:58:52Z</time>
      </trkpt>
      <trkpt lat="48.65218" lon="-2.36224">
        <ele>48</ele>
        <time>2021-07-27T16:58:53Z</time>
      </trkpt>
      <trkpt lat="48.65216" lon="-2.36222">
        <ele>48.1</ele>
        <time>2021-07-27T16:58:54Z</time>
      </trkpt>
      <trkpt lat="48.65213" lon="-2.36216">
        <ele>48.2</ele>
        <time>2021-07-27T16:58:55Z</time>
      </trkpt>
      <trkpt lat="48.65209" lon="-2.36204">
        <ele>48.3</ele>
        <time>2021-07-27T16:58:57Z</time>
      </trkpt>
      <trkpt lat="48.65208" lon="-2.36197">
        <ele>48.3</ele>
        <time>2021-07-27T16:58:58Z</time>
      </trkpt>
      <trkpt lat="48.65206" lon="-2.36192">
        <ele>48.3</ele>
        <time>2021-07-27T16:58:59Z</time>
      </trkpt>
      <trkpt lat="48.65203" lon="-2.36182">
        <ele>48.4</ele>
        <time>2021-07-27T16:59:00Z</time>
      </trkpt>
      <trkpt lat="48.652" lon="-2.36172">
        <ele>48.4</ele>
        <time>2021-07-27T16:59:02Z</time>
      </trkpt>
      <trkpt lat="48.65195" lon="-2.36158">
        <ele>48.4</ele>
        <time>2021-07-27T16:59:04Z</time>
      </trkpt>
      <trkpt lat="48.65193" lon="-2.3615">
        <ele>48.4</ele>
        <time>2021-07-27T16:59:05Z</time>
      </trkpt>
      <trkpt lat="48.65191" lon="-2.36143">
        <ele>48.3</ele>
        <time>2021-07-27T16:59:06Z</time>
      </trkpt>
      <trkpt lat="48.65189" lon="-2.36137">
        <ele>48.3</ele>
        <time>2021-07-27T16:59:07Z</time>
      </trkpt>
      <trkpt lat="48.65187" lon="-2.3613">
        <ele>48.2</ele>
        <time>2021-07-27T16:59:08Z</time>
      </trkpt>
      <trkpt lat="48.65185" lon="-2.36116">
        <ele>48.1</ele>
        <time>2021-07-27T16:59:10Z</time>
      </trkpt>
      <trkpt lat="48.65183" lon="-2.36109">
        <ele>48</ele>
        <time>2021-07-27T16:59:11Z</time>
      </trkpt>
      <trkpt lat="48.65179" lon="-2.36095">
        <ele>47.8</ele>
        <time>2021-07-27T16:59:13Z</time>
      </trkpt>
      <trkpt lat="48.65176" lon="-2.36082">
        <ele>47.6</ele>
        <time>2021-07-27T16:59:15Z</time>
      </trkpt>
      <trkpt lat="48.65173" lon="-2.36066">
        <ele>47.4</ele>
        <time>2021-07-27T16:59:17Z</time>
      </trkpt>
      <trkpt lat="48.65172" lon="-2.36058">
        <ele>47.2</ele>
        <time>2021-07-27T16:59:18Z</time>
      </trkpt>
      <trkpt lat="48.65168" lon="-2.36041">
        <ele>46.8</ele>
        <time>2021-07-27T16:59:20Z</time>
      </trkpt>
      <trkpt lat="48.65165" lon="-2.36023">
        <ele>46.3</ele>
        <time>2021-07-27T16:59:22Z</time>
      </trkpt>
      <trkpt lat="48.65163" lon="-2.36013">
        <ele>46</ele>
        <time>2021-07-27T16:59:23Z</time>
      </trkpt>
      <trkpt lat="48.6516" lon="-2.35995">
        <ele>45.5</ele>
        <time>2021-07-27T16:59:25Z</time>
      </trkpt>
      <trkpt lat="48.65158" lon="-2.35974">
        <ele>44.8</ele>
        <time>2021-07-27T16:59:27Z</time>
      </trkpt>
      <trkpt lat="48.65156" lon="-2.35963">
        <ele>44.4</ele>
        <time>2021-07-27T16:59:28Z</time>
      </trkpt>
      <trkpt lat="48.65155" lon="-2.35952">
        <ele>44</ele>
        <time>2021-07-27T16:59:29Z</time>
      </trkpt>
      <trkpt lat="48.65151" lon="-2.35929">
        <ele>43.1</ele>
        <time>2021-07-27T16:59:31Z</time>
      </trkpt>
      <trkpt lat="48.6515" lon="-2.35919">
        <ele>42.7</ele>
        <time>2021-07-27T16:59:32Z</time>
      </trkpt>
      <trkpt lat="48.65148" lon="-2.35907">
        <ele>42.2</ele>
        <time>2021-07-27T16:59:33Z</time>
      </trkpt>
      <trkpt lat="48.65146" lon="-2.35883">
        <ele>41.2</ele>
        <time>2021-07-27T16:59:35Z</time>
      </trkpt>
      <trkpt lat="48.65142" lon="-2.35858">
        <ele>40.2</ele>
        <time>2021-07-27T16:59:37Z</time>
      </trkpt>
      <trkpt lat="48.6514" lon="-2.35845">
        <ele>39.8</ele>
        <time>2021-07-27T16:59:38Z</time>
      </trkpt>
      <trkpt lat="48.65136" lon="-2.35818">
        <ele>38.9</ele>
        <time>2021-07-27T16:59:40Z</time>
      </trkpt>
      <trkpt lat="48.65135" lon="-2.35805">
        <ele>38.5</ele>
        <time>2021-07-27T16:59:41Z</time>
      </trkpt>
      <trkpt lat="48.65134" lon="-2.35791">
        <ele>38.1</ele>
        <time>2021-07-27T16:59:42Z</time>
      </trkpt>
      <trkpt lat="48.65133" lon="-2.35777">
        <ele>37.7</ele>
        <time>2021-07-27T16:59:43Z</time>
      </trkpt>
      <trkpt lat="48.65132" lon="-2.35764">
        <ele>37.3</ele>
        <time>2021-07-27T16:59:44Z</time>
      </trkpt>
      <trkpt lat="48.65133" lon="-2.35735">
        <ele>36.7</ele>
        <time>2021-07-27T16:59:46Z</time>
      </trkpt>
      <trkpt lat="48.65135" lon="-2.35721">
        <ele>36.5</ele>
        <time>2021-07-27T16:59:47Z</time>
      </trkpt>
      <trkpt lat="48.65139" lon="-2.35693">
        <ele>36.1</ele>
        <time>2021-07-27T16:59:49Z</time>
      </trkpt>
      <trkpt lat="48.65145" lon="-2.35668">
        <ele>35.9</ele>
        <time>2021-07-27T16:59:51Z</time>
      </trkpt>
      <trkpt lat="48.65147" lon="-2.35657">
        <ele>35.7</ele>
        <time>2021-07-27T16:59:52Z</time>
      </trkpt>
      <trkpt lat="48.6515" lon="-2.35646">
        <ele>35.6</ele>
        <time>2021-07-27T16:59:53Z</time>
      </trkpt>
      <trkpt lat="48.65153" lon="-2.35635">
        <ele>35.4</ele>
        <time>2021-07-27T16:59:54Z</time>
      </trkpt>
      <trkpt lat="48.6516" lon="-2.35615">
        <ele>35.1</ele>
        <time>2021-07-27T16:59:56Z</time>
      </trkpt>
      <trkpt lat="48.65165" lon="-2.35605">
        <ele>35</ele>
        <time>2021-07-27T16:59:57Z</time>
      </trkpt>
      <trkpt lat="48.6517" lon="-2.35596">
        <ele>34.9</ele>
        <time>2021-07-27T16:59:58Z</time>
      </trkpt>
      <trkpt lat="48.6518" lon="-2.35578">
        <ele>34.5</ele>
        <time>2021-07-27T17:00:00Z</time>
      </trkpt>
      <trkpt lat="48.65185" lon="-2.35569">
        <ele>34.4</ele>
        <time>2021-07-27T17:00:01Z</time>
      </trkpt>
      <trkpt lat="48.6519" lon="-2.35561">
        <ele>34.2</ele>
        <time>2021-07-27T17:00:02Z</time>
      </trkpt>
      <trkpt lat="48.65196" lon="-2.35553">
        <ele>34.1</ele>
        <time>2021-07-27T17:00:03Z</time>
      </trkpt>
      <trkpt lat="48.65207" lon="-2.35539">
        <ele>33.8</ele>
        <time>2021-07-27T17:00:05Z</time>
      </trkpt>
      <trkpt lat="48.65213" lon="-2.35533">
        <ele>33.6</ele>
        <time>2021-07-27T17:00:06Z</time>
      </trkpt>
      <trkpt lat="48.65225" lon="-2.35521">
        <ele>33.3</ele>
        <time>2021-07-27T17:00:08Z</time>
      </trkpt>
      <trkpt lat="48.65232" lon="-2.35515">
        <ele>33</ele>
        <time>2021-07-27T17:00:09Z</time>
      </trkpt>
      <trkpt lat="48.65247" lon="-2.35504">
        <ele>32.4</ele>
        <time>2021-07-27T17:00:11Z</time>
      </trkpt>
      <trkpt lat="48.65255" lon="-2.35499">
        <ele>32</ele>
        <time>2021-07-27T17:00:12Z</time>
      </trkpt>
      <trkpt lat="48.65271" lon="-2.35488">
        <ele>31.4</ele>
        <time>2021-07-27T17:00:14Z</time>
      </trkpt>
      <trkpt lat="48.65287" lon="-2.35477">
        <ele>30.6</ele>
        <time>2021-07-27T17:00:16Z</time>
      </trkpt>
      <trkpt lat="48.65304" lon="-2.35463">
        <ele>29.9</ele>
        <time>2021-07-27T17:00:18Z</time>
      </trkpt>
      <trkpt lat="48.65312" lon="-2.35454">
        <ele>29.4</ele>
        <time>2021-07-27T17:00:19Z</time>
      </trkpt>
      <trkpt lat="48.6532" lon="-2.35445">
        <ele>29</ele>
        <time>2021-07-27T17:00:20Z</time>
      </trkpt>
      <trkpt lat="48.65336" lon="-2.35425">
        <ele>28.1</ele>
        <time>2021-07-27T17:00:22Z</time>
      </trkpt>
      <trkpt lat="48.65344" lon="-2.35414">
        <ele>27.6</ele>
        <time>2021-07-27T17:00:23Z</time>
      </trkpt>
      <trkpt lat="48.65351" lon="-2.35404">
        <ele>27.2</ele>
        <time>2021-07-27T17:00:24Z</time>
      </trkpt>
      <trkpt lat="48.65367" lon="-2.35383">
        <ele>26.3</ele>
        <time>2021-07-27T17:00:26Z</time>
      </trkpt>
      <trkpt lat="48.65375" lon="-2.35373">
        <ele>25.9</ele>
        <time>2021-07-27T17:00:27Z</time>
      </trkpt>
      <trkpt lat="48.6539" lon="-2.35352">
        <ele>25</ele>
        <time>2021-07-27T17:00:29Z</time>
      </trkpt>
      <trkpt lat="48.65398" lon="-2.35342">
        <ele>24.7</ele>
        <time>2021-07-27T17:00:30Z</time>
      </trkpt>
      <trkpt lat="48.65413" lon="-2.35321">
        <ele>24.2</ele>
        <time>2021-07-27T17:00:32Z</time>
      </trkpt>
      <trkpt lat="48.65429" lon="-2.353">
        <ele>23.8</ele>
        <time>2021-07-27T17:00:34Z</time>
      </trkpt>
      <trkpt lat="48.65443" lon="-2.3528">
        <ele>23.5</ele>
        <time>2021-07-27T17:00:36Z</time>
      </trkpt>
      <trkpt lat="48.65457" lon="-2.3526">
        <ele>23.4</ele>
        <time>2021-07-27T17:00:38Z</time>
      </trkpt>
      <trkpt lat="48.65464" lon="-2.35251">
        <ele>23.3</ele>
        <time>2021-07-27T17:00:39Z</time>
      </trkpt>
      <trkpt lat="48.65478" lon="-2.35234">
        <ele>23.3</ele>
        <time>2021-07-27T17:00:41Z</time>
      </trkpt>
      <trkpt lat="48.65484" lon="-2.35226">
        <ele>23.3</ele>
        <time>2021-07-27T17:00:42Z</time>
      </trkpt>
      <trkpt lat="48.6549" lon="-2.35218">
        <ele>23.3</ele>
        <time>2021-07-27T17:00:43Z</time>
      </trkpt>
      <trkpt lat="48.65502" lon="-2.35204">
        <ele>23.4</ele>
        <time>2021-07-27T17:00:45Z</time>
      </trkpt>
      <trkpt lat="48.65508" lon="-2.35196">
        <ele>23.4</ele>
        <time>2021-07-27T17:00:46Z</time>
      </trkpt>
      <trkpt lat="48.65513" lon="-2.35191">
        <ele>23.4</ele>
        <time>2021-07-27T17:00:47Z</time>
      </trkpt>
      <trkpt lat="48.65525" lon="-2.35188">
        <ele>23.2</ele>
        <time>2021-07-27T17:00:49Z</time>
      </trkpt>
      <trkpt lat="48.65531" lon="-2.35188">
        <ele>23.1</ele>
        <time>2021-07-27T17:00:50Z</time>
      </trkpt>
      <trkpt lat="48.65543" lon="-2.35184">
        <ele>22.5</ele>
        <time>2021-07-27T17:00:52Z</time>
      </trkpt>
      <trkpt lat="48.65549" lon="-2.35181">
        <ele>22.2</ele>
        <time>2021-07-27T17:00:53Z</time>
      </trkpt>
      <trkpt lat="48.65562" lon="-2.35173">
        <ele>21.6</ele>
        <time>2021-07-27T17:00:55Z</time>
      </trkpt>
      <trkpt lat="48.65576" lon="-2.35165">
        <ele>21.2</ele>
        <time>2021-07-27T17:00:57Z</time>
      </trkpt>
      <trkpt lat="48.65582" lon="-2.3516">
        <ele>21.1</ele>
        <time>2021-07-27T17:00:58Z</time>
      </trkpt>
      <trkpt lat="48.65597" lon="-2.35152">
        <ele>21</ele>
        <time>2021-07-27T17:01:00Z</time>
      </trkpt>
      <trkpt lat="48.65604" lon="-2.35149">
        <ele>21</ele>
        <time>2021-07-27T17:01:01Z</time>
      </trkpt>
      <trkpt lat="48.65618" lon="-2.35143">
        <ele>21</ele>
        <time>2021-07-27T17:01:03Z</time>
      </trkpt>
      <trkpt lat="48.65631" lon="-2.35138">
        <ele>21.2</ele>
        <time>2021-07-27T17:01:05Z</time>
      </trkpt>
      <trkpt lat="48.65643" lon="-2.35133">
        <ele>21.7</ele>
        <time>2021-07-27T17:01:07Z</time>
      </trkpt>
      <trkpt lat="48.65649" lon="-2.35128">
        <ele>22.1</ele>
        <time>2021-07-27T17:01:08Z</time>
      </trkpt>
      <trkpt lat="48.65653" lon="-2.35121">
        <ele>22.6</ele>
        <time>2021-07-27T17:01:09Z</time>
      </trkpt>
      <trkpt lat="48.65656" lon="-2.35109">
        <ele>23.3</ele>
        <time>2021-07-27T17:01:11Z</time>
      </trkpt>
      <trkpt lat="48.65656" lon="-2.35096">
        <ele>24</ele>
        <time>2021-07-27T17:01:13Z</time>
      </trkpt>
      <trkpt lat="48.65654" lon="-2.35089">
        <ele>24.4</ele>
        <time>2021-07-27T17:01:15Z</time>
      </trkpt>
      <trkpt lat="48.65654" lon="-2.35085">
        <ele>24.6</ele>
        <time>2021-07-27T17:01:16Z</time>
      </trkpt>
      <trkpt lat="48.65653" lon="-2.3508">
        <ele>24.9</ele>
        <time>2021-07-27T17:01:18Z</time>
      </trkpt>
      <trkpt lat="48.65653" lon="-2.35076">
        <ele>25</ele>
        <time>2021-07-27T17:01:19Z</time>
      </trkpt>
      <trkpt lat="48.65654" lon="-2.35069">
        <ele>25.4</ele>
        <time>2021-07-27T17:01:21Z</time>
      </trkpt>
      <trkpt lat="48.65655" lon="-2.35064">
        <ele>25.6</ele>
        <time>2021-07-27T17:01:22Z</time>
      </trkpt>
      <trkpt lat="48.65656" lon="-2.35059">
        <ele>25.8</ele>
        <time>2021-07-27T17:01:23Z</time>
      </trkpt>
      <trkpt lat="48.65657" lon="-2.35051">
        <ele>26.1</ele>
        <time>2021-07-27T17:01:25Z</time>
      </trkpt>
      <trkpt lat="48.65657" lon="-2.35047">
        <ele>26.3</ele>
        <time>2021-07-27T17:01:26Z</time>
      </trkpt>
      <trkpt lat="48.65657" lon="-2.35042">
        <ele>26.4</ele>
        <time>2021-07-27T17:01:27Z</time>
      </trkpt>
      <trkpt lat="48.65659" lon="-2.35035">
        <ele>26.6</ele>
        <time>2021-07-27T17:01:29Z</time>
      </trkpt>
      <trkpt lat="48.65661" lon="-2.35032">
        <ele>26.8</ele>
        <time>2021-07-27T17:01:30Z</time>
      </trkpt>
      <trkpt lat="48.65663" lon="-2.35029">
        <ele>27.3</ele>
        <time>2021-07-27T17:01:31Z</time>
      </trkpt>
      <trkpt lat="48.65667" lon="-2.35028">
        <ele>27.5</ele>
        <time>2021-07-27T17:01:32Z</time>
      </trkpt>
      <trkpt lat="48.6567" lon="-2.35026">
        <ele>27.6</ele>
        <time>2021-07-27T17:01:33Z</time>
      </trkpt>
      <trkpt lat="48.65672" lon="-2.35025">
        <ele>27.7</ele>
        <time>2021-07-27T17:01:34Z</time>
      </trkpt>
      <trkpt lat="48.65677" lon="-2.35023">
        <ele>27.8</ele>
        <time>2021-07-27T17:01:36Z</time>
      </trkpt>
      <trkpt lat="48.65681" lon="-2.3502">
        <ele>28</ele>
        <time>2021-07-27T17:01:37Z</time>
      </trkpt>
      <trkpt lat="48.65682" lon="-2.35018">
        <ele>28</ele>
        <time>2021-07-27T17:01:38Z</time>
      </trkpt>
      <trkpt lat="48.65687" lon="-2.3501">
        <ele>28.2</ele>
        <time>2021-07-27T17:01:40Z</time>
      </trkpt>
      <trkpt lat="48.65691" lon="-2.35004">
        <ele>28.3</ele>
        <time>2021-07-27T17:01:42Z</time>
      </trkpt>
      <trkpt lat="48.65697" lon="-2.35">
        <ele>28.4</ele>
        <time>2021-07-27T17:01:44Z</time>
      </trkpt>
      <trkpt lat="48.65702" lon="-2.34995">
        <ele>28.6</ele>
        <time>2021-07-27T17:01:46Z</time>
      </trkpt>
      <trkpt lat="48.65706" lon="-2.34992">
        <ele>28.6</ele>
        <time>2021-07-27T17:01:47Z</time>
      </trkpt>
      <trkpt lat="48.65709" lon="-2.34989">
        <ele>28.7</ele>
        <time>2021-07-27T17:01:48Z</time>
      </trkpt>
      <trkpt lat="48.65712" lon="-2.34986">
        <ele>28.8</ele>
        <time>2021-07-27T17:01:49Z</time>
      </trkpt>
      <trkpt lat="48.65714" lon="-2.34984">
        <ele>28.8</ele>
        <time>2021-07-27T17:01:50Z</time>
      </trkpt>
      <trkpt lat="48.65719" lon="-2.34979">
        <ele>28.9</ele>
        <time>2021-07-27T17:01:52Z</time>
      </trkpt>
      <trkpt lat="48.65726" lon="-2.34972">
        <ele>29</ele>
        <time>2021-07-27T17:01:54Z</time>
      </trkpt>
      <trkpt lat="48.65733" lon="-2.34962">
        <ele>29.1</ele>
        <time>2021-07-27T17:01:56Z</time>
      </trkpt>
      <trkpt lat="48.65736" lon="-2.34958">
        <ele>29.2</ele>
        <time>2021-07-27T17:01:57Z</time>
      </trkpt>
      <trkpt lat="48.65739" lon="-2.34955">
        <ele>29.2</ele>
        <time>2021-07-27T17:01:58Z</time>
      </trkpt>
      <trkpt lat="48.65744" lon="-2.34946">
        <ele>29.3</ele>
        <time>2021-07-27T17:02:00Z</time>
      </trkpt>
      <trkpt lat="48.65747" lon="-2.34941">
        <ele>29.3</ele>
        <time>2021-07-27T17:02:01Z</time>
      </trkpt>
      <trkpt lat="48.65751" lon="-2.34934">
        <ele>29.3</ele>
        <time>2021-07-27T17:02:02Z</time>
      </trkpt>
      <trkpt lat="48.65756" lon="-2.34929">
        <ele>29.3</ele>
        <time>2021-07-27T17:02:04Z</time>
      </trkpt>
      <trkpt lat="48.65763" lon="-2.34928">
        <ele>29.3</ele>
        <time>2021-07-27T17:02:06Z</time>
      </trkpt>
      <trkpt lat="48.65767" lon="-2.34933">
        <ele>29.3</ele>
        <time>2021-07-27T17:02:07Z</time>
      </trkpt>
      <trkpt lat="48.65772" lon="-2.34945">
        <ele>29.2</ele>
        <time>2021-07-27T17:02:09Z</time>
      </trkpt>
      <trkpt lat="48.65778" lon="-2.34954">
        <ele>29.2</ele>
        <time>2021-07-27T17:02:11Z</time>
      </trkpt>
      <trkpt lat="48.65783" lon="-2.3496">
        <ele>29.2</ele>
        <time>2021-07-27T17:02:12Z</time>
      </trkpt>
      <trkpt lat="48.6579" lon="-2.34971">
        <ele>29.2</ele>
        <time>2021-07-27T17:02:14Z</time>
      </trkpt>
      <trkpt lat="48.65796" lon="-2.34983">
        <ele>29.3</ele>
        <time>2021-07-27T17:02:16Z</time>
      </trkpt>
      <trkpt lat="48.658" lon="-2.34995">
        <ele>29.4</ele>
        <time>2021-07-27T17:02:18Z</time>
      </trkpt>
      <trkpt lat="48.65802" lon="-2.35001">
        <ele>29.4</ele>
        <time>2021-07-27T17:02:19Z</time>
      </trkpt>
      <trkpt lat="48.65803" lon="-2.35006">
        <ele>29.4</ele>
        <time>2021-07-27T17:02:21Z</time>
      </trkpt>
      <trkpt lat="48.65806" lon="-2.35021">
        <ele>29.4</ele>
        <time>2021-07-27T17:02:23Z</time>
      </trkpt>
      <trkpt lat="48.65807" lon="-2.35027">
        <ele>29.4</ele>
        <time>2021-07-27T17:02:24Z</time>
      </trkpt>
      <trkpt lat="48.6581" lon="-2.35039">
        <ele>29.2</ele>
        <time>2021-07-27T17:02:26Z</time>
      </trkpt>
      <trkpt lat="48.65817" lon="-2.35051">
        <ele>28.7</ele>
        <time>2021-07-27T17:02:28Z</time>
      </trkpt>
      <trkpt lat="48.65822" lon="-2.35055">
        <ele>28.4</ele>
        <time>2021-07-27T17:02:29Z</time>
      </trkpt>
      <trkpt lat="48.65827" lon="-2.35056">
        <ele>28.1</ele>
        <time>2021-07-27T17:02:30Z</time>
      </trkpt>
      <trkpt lat="48.65833" lon="-2.35055">
        <ele>27.8</ele>
        <time>2021-07-27T17:02:31Z</time>
      </trkpt>
      <trkpt lat="48.6584" lon="-2.35052">
        <ele>27.5</ele>
        <time>2021-07-27T17:02:33Z</time>
      </trkpt>
      <trkpt lat="48.65845" lon="-2.35048">
        <ele>27.2</ele>
        <time>2021-07-27T17:02:34Z</time>
      </trkpt>
      <trkpt lat="48.65848" lon="-2.35047">
        <ele>27</ele>
        <time>2021-07-27T17:02:35Z</time>
      </trkpt>
      <trkpt lat="48.65854" lon="-2.35046">
        <ele>26.7</ele>
        <time>2021-07-27T17:02:37Z</time>
      </trkpt>
      <trkpt lat="48.65859" lon="-2.3504">
        <ele>26.4</ele>
        <time>2021-07-27T17:02:38Z</time>
      </trkpt>
      <trkpt lat="48.65862" lon="-2.35034">
        <ele>26.2</ele>
        <time>2021-07-27T17:02:40Z</time>
      </trkpt>
      <trkpt lat="48.65865" lon="-2.3503">
        <ele>26.1</ele>
        <time>2021-07-27T17:02:41Z</time>
      </trkpt>
      <trkpt lat="48.65869" lon="-2.35025">
        <ele>25.9</ele>
        <time>2021-07-27T17:02:42Z</time>
      </trkpt>
      <trkpt lat="48.65873" lon="-2.3502">
        <ele>25.8</ele>
        <time>2021-07-27T17:02:43Z</time>
      </trkpt>
      <trkpt lat="48.65877" lon="-2.35016">
        <ele>25.6</ele>
        <time>2021-07-27T17:02:45Z</time>
      </trkpt>
      <trkpt lat="48.65881" lon="-2.35012">
        <ele>25.5</ele>
        <time>2021-07-27T17:02:46Z</time>
      </trkpt>
      <trkpt lat="48.65889" lon="-2.35003">
        <ele>25.4</ele>
        <time>2021-07-27T17:02:48Z</time>
      </trkpt>
      <trkpt lat="48.65898" lon="-2.34993">
        <ele>25.2</ele>
        <time>2021-07-27T17:02:50Z</time>
      </trkpt>
      <trkpt lat="48.65906" lon="-2.34983">
        <ele>25.2</ele>
        <time>2021-07-27T17:02:52Z</time>
      </trkpt>
      <trkpt lat="48.6591" lon="-2.34978">
        <ele>25.2</ele>
        <time>2021-07-27T17:02:53Z</time>
      </trkpt>
      <trkpt lat="48.65918" lon="-2.34968">
        <ele>25.3</ele>
        <time>2021-07-27T17:02:55Z</time>
      </trkpt>
      <trkpt lat="48.65925" lon="-2.34959">
        <ele>25.5</ele>
        <time>2021-07-27T17:02:57Z</time>
      </trkpt>
      <trkpt lat="48.65932" lon="-2.3495">
        <ele>25.5</ele>
        <time>2021-07-27T17:02:59Z</time>
      </trkpt>
      <trkpt lat="48.65938" lon="-2.34943">
        <ele>25.6</ele>
        <time>2021-07-27T17:03:01Z</time>
      </trkpt>
      <trkpt lat="48.65944" lon="-2.34938">
        <ele>25.6</ele>
        <time>2021-07-27T17:03:03Z</time>
      </trkpt>
      <trkpt lat="48.6595" lon="-2.34937">
        <ele>25.5</ele>
        <time>2021-07-27T17:03:05Z</time>
      </trkpt>
      <trkpt lat="48.65951" lon="-2.34933">
        <ele>25.5</ele>
        <time>2021-07-27T17:03:06Z</time>
      </trkpt>
      <trkpt lat="48.65951" lon="-2.34931">
        <ele>25.5</ele>
        <time>2021-07-27T17:03:07Z</time>
      </trkpt>
      <trkpt lat="48.65955" lon="-2.34929">
        <ele>25.3</ele>
        <time>2021-07-27T17:03:08Z</time>
      </trkpt>
      <trkpt lat="48.65965" lon="-2.34924">
        <ele>24.9</ele>
        <time>2021-07-27T17:03:10Z</time>
      </trkpt>
      <trkpt lat="48.6597" lon="-2.34919">
        <ele>24.7</ele>
        <time>2021-07-27T17:03:11Z</time>
      </trkpt>
      <trkpt lat="48.65974" lon="-2.34913">
        <ele>24.4</ele>
        <time>2021-07-27T17:03:12Z</time>
      </trkpt>
      <trkpt lat="48.65982" lon="-2.34902">
        <ele>23.9</ele>
        <time>2021-07-27T17:03:14Z</time>
      </trkpt>
      <trkpt lat="48.65986" lon="-2.34895">
        <ele>23.5</ele>
        <time>2021-07-27T17:03:15Z</time>
      </trkpt>
      <trkpt lat="48.65996" lon="-2.34882">
        <ele>22.8</ele>
        <time>2021-07-27T17:03:17Z</time>
      </trkpt>
      <trkpt lat="48.66006" lon="-2.34869">
        <ele>21.9</ele>
        <time>2021-07-27T17:03:19Z</time>
      </trkpt>
      <trkpt lat="48.66012" lon="-2.34863">
        <ele>21.5</ele>
        <time>2021-07-27T17:03:20Z</time>
      </trkpt>
      <trkpt lat="48.66021" lon="-2.3486">
        <ele>20.9</ele>
        <time>2021-07-27T17:03:22Z</time>
      </trkpt>
      <trkpt lat="48.66026" lon="-2.34871">
        <ele>20</ele>
        <time>2021-07-27T17:03:24Z</time>
      </trkpt>
      <trkpt lat="48.66033" lon="-2.34881">
        <ele>19.1</ele>
        <time>2021-07-27T17:03:26Z</time>
      </trkpt>
      <trkpt lat="48.66044" lon="-2.34875">
        <ele>18.1</ele>
        <time>2021-07-27T17:03:28Z</time>
      </trkpt>
      <trkpt lat="48.66053" lon="-2.34864">
        <ele>17.7</ele>
        <time>2021-07-27T17:03:30Z</time>
      </trkpt>
      <trkpt lat="48.66063" lon="-2.34856">
        <ele>17.1</ele>
        <time>2021-07-27T17:03:32Z</time>
      </trkpt>
      <trkpt lat="48.66074" lon="-2.3485">
        <ele>16.3</ele>
        <time>2021-07-27T17:03:34Z</time>
      </trkpt>
      <trkpt lat="48.66079" lon="-2.34846">
        <ele>16</ele>
        <time>2021-07-27T17:03:35Z</time>
      </trkpt>
      <trkpt lat="48.66092" lon="-2.34836">
        <ele>15.3</ele>
        <time>2021-07-27T17:03:37Z</time>
      </trkpt>
      <trkpt lat="48.66104" lon="-2.34824">
        <ele>14.9</ele>
        <time>2021-07-27T17:03:39Z</time>
      </trkpt>
      <trkpt lat="48.66108" lon="-2.34815">
        <ele>14.9</ele>
        <time>2021-07-27T17:03:40Z</time>
      </trkpt>
      <trkpt lat="48.66109" lon="-2.34806">
        <ele>14.8</ele>
        <time>2021-07-27T17:03:41Z</time>
      </trkpt>
      <trkpt lat="48.66109" lon="-2.34797">
        <ele>14.8</ele>
        <time>2021-07-27T17:03:42Z</time>
      </trkpt>
      <trkpt lat="48.66114" lon="-2.3479">
        <ele>14.8</ele>
        <time>2021-07-27T17:03:44Z</time>
      </trkpt>
      <trkpt lat="48.66125" lon="-2.34792">
        <ele>14.5</ele>
        <time>2021-07-27T17:03:46Z</time>
      </trkpt>
      <trkpt lat="48.6613" lon="-2.34795">
        <ele>14.5</ele>
        <time>2021-07-27T17:03:47Z</time>
      </trkpt>
      <trkpt lat="48.66136" lon="-2.34798">
        <ele>14.5</ele>
        <time>2021-07-27T17:03:48Z</time>
      </trkpt>
      <trkpt lat="48.66146" lon="-2.34804">
        <ele>14.5</ele>
        <time>2021-07-27T17:03:50Z</time>
      </trkpt>
      <trkpt lat="48.66156" lon="-2.34809">
        <ele>14.7</ele>
        <time>2021-07-27T17:03:52Z</time>
      </trkpt>
      <trkpt lat="48.66161" lon="-2.34812">
        <ele>14.8</ele>
        <time>2021-07-27T17:03:53Z</time>
      </trkpt>
      <trkpt lat="48.66166" lon="-2.34815">
        <ele>14.9</ele>
        <time>2021-07-27T17:03:54Z</time>
      </trkpt>
      <trkpt lat="48.66171" lon="-2.34817">
        <ele>15</ele>
        <time>2021-07-27T17:03:55Z</time>
      </trkpt>
      <trkpt lat="48.66176" lon="-2.3482">
        <ele>15.1</ele>
        <time>2021-07-27T17:03:56Z</time>
      </trkpt>
      <trkpt lat="48.66181" lon="-2.34821">
        <ele>15.3</ele>
        <time>2021-07-27T17:03:57Z</time>
      </trkpt>
      <trkpt lat="48.66191" lon="-2.34825">
        <ele>15.5</ele>
        <time>2021-07-27T17:03:59Z</time>
      </trkpt>
      <trkpt lat="48.66202" lon="-2.34829">
        <ele>15.8</ele>
        <time>2021-07-27T17:04:01Z</time>
      </trkpt>
      <trkpt lat="48.66207" lon="-2.3483">
        <ele>15.9</ele>
        <time>2021-07-27T17:04:02Z</time>
      </trkpt>
      <trkpt lat="48.66211" lon="-2.34832">
        <ele>16.1</ele>
        <time>2021-07-27T17:04:03Z</time>
      </trkpt>
      <trkpt lat="48.6622" lon="-2.34833">
        <ele>16.6</ele>
        <time>2021-07-27T17:04:05Z</time>
      </trkpt>
      <trkpt lat="48.66224" lon="-2.34834">
        <ele>16.8</ele>
        <time>2021-07-27T17:04:06Z</time>
      </trkpt>
      <trkpt lat="48.66228" lon="-2.34834">
        <ele>17</ele>
        <time>2021-07-27T17:04:07Z</time>
      </trkpt>
      <trkpt lat="48.66235" lon="-2.34833">
        <ele>17.4</ele>
        <time>2021-07-27T17:04:09Z</time>
      </trkpt>
      <trkpt lat="48.66243" lon="-2.34832">
        <ele>17.8</ele>
        <time>2021-07-27T17:04:11Z</time>
      </trkpt>
      <trkpt lat="48.6625" lon="-2.3483">
        <ele>18.2</ele>
        <time>2021-07-27T17:04:12Z</time>
      </trkpt>
      <trkpt lat="48.66254" lon="-2.34827">
        <ele>18.5</ele>
        <time>2021-07-27T17:04:14Z</time>
      </trkpt>
      <trkpt lat="48.66262" lon="-2.34824">
        <ele>18.9</ele>
        <time>2021-07-27T17:04:15Z</time>
      </trkpt>
      <trkpt lat="48.66267" lon="-2.34822">
        <ele>19.2</ele>
        <time>2021-07-27T17:04:17Z</time>
      </trkpt>
      <trkpt lat="48.66272" lon="-2.34819">
        <ele>19.5</ele>
        <time>2021-07-27T17:04:18Z</time>
      </trkpt>
      <trkpt lat="48.66278" lon="-2.34815">
        <ele>19.9</ele>
        <time>2021-07-27T17:04:19Z</time>
      </trkpt>
      <trkpt lat="48.66282" lon="-2.34811">
        <ele>20.2</ele>
        <time>2021-07-27T17:04:21Z</time>
      </trkpt>
      <trkpt lat="48.66289" lon="-2.34807">
        <ele>20.7</ele>
        <time>2021-07-27T17:04:23Z</time>
      </trkpt>
      <trkpt lat="48.66292" lon="-2.34803">
        <ele>20.9</ele>
        <time>2021-07-27T17:04:24Z</time>
      </trkpt>
      <trkpt lat="48.66295" lon="-2.34799">
        <ele>21.2</ele>
        <time>2021-07-27T17:04:25Z</time>
      </trkpt>
      <trkpt lat="48.66298" lon="-2.34795">
        <ele>21.4</ele>
        <time>2021-07-27T17:04:26Z</time>
      </trkpt>
      <trkpt lat="48.66301" lon="-2.34791">
        <ele>21.7</ele>
        <time>2021-07-27T17:04:27Z</time>
      </trkpt>
      <trkpt lat="48.66304" lon="-2.34787">
        <ele>22</ele>
        <time>2021-07-27T17:04:29Z</time>
      </trkpt>
      <trkpt lat="48.66307" lon="-2.34783">
        <ele>22.2</ele>
        <time>2021-07-27T17:04:30Z</time>
      </trkpt>
      <trkpt lat="48.66309" lon="-2.34779">
        <ele>22.4</ele>
        <time>2021-07-27T17:04:31Z</time>
      </trkpt>
      <trkpt lat="48.66314" lon="-2.34772">
        <ele>22.8</ele>
        <time>2021-07-27T17:04:33Z</time>
      </trkpt>
      <trkpt lat="48.66316" lon="-2.34768">
        <ele>23</ele>
        <time>2021-07-27T17:04:34Z</time>
      </trkpt>
      <trkpt lat="48.66319" lon="-2.34761">
        <ele>23.4</ele>
        <time>2021-07-27T17:04:35Z</time>
      </trkpt>
      <trkpt lat="48.66321" lon="-2.34757">
        <ele>23.6</ele>
        <time>2021-07-27T17:04:36Z</time>
      </trkpt>
      <trkpt lat="48.66323" lon="-2.34752">
        <ele>23.8</ele>
        <time>2021-07-27T17:04:38Z</time>
      </trkpt>
      <trkpt lat="48.66325" lon="-2.34746">
        <ele>24.1</ele>
        <time>2021-07-27T17:04:39Z</time>
      </trkpt>
      <trkpt lat="48.66327" lon="-2.34741">
        <ele>24.3</ele>
        <time>2021-07-27T17:04:40Z</time>
      </trkpt>
      <trkpt lat="48.66329" lon="-2.34737">
        <ele>24.6</ele>
        <time>2021-07-27T17:04:42Z</time>
      </trkpt>
      <trkpt lat="48.6633" lon="-2.34732">
        <ele>24.7</ele>
        <time>2021-07-27T17:04:43Z</time>
      </trkpt>
      <trkpt lat="48.6633" lon="-2.34728">
        <ele>24.9</ele>
        <time>2021-07-27T17:04:44Z</time>
      </trkpt>
      <trkpt lat="48.66332" lon="-2.34724">
        <ele>25.1</ele>
        <time>2021-07-27T17:04:45Z</time>
      </trkpt>
      <trkpt lat="48.66333" lon="-2.3472">
        <ele>25.3</ele>
        <time>2021-07-27T17:04:46Z</time>
      </trkpt>
      <trkpt lat="48.66336" lon="-2.34711">
        <ele>25.7</ele>
        <time>2021-07-27T17:04:48Z</time>
      </trkpt>
      <trkpt lat="48.66338" lon="-2.34703">
        <ele>26.1</ele>
        <time>2021-07-27T17:04:49Z</time>
      </trkpt>
      <trkpt lat="48.66339" lon="-2.34699">
        <ele>26.3</ele>
        <time>2021-07-27T17:04:51Z</time>
      </trkpt>
      <trkpt lat="48.66341" lon="-2.34691">
        <ele>26.6</ele>
        <time>2021-07-27T17:04:52Z</time>
      </trkpt>
      <trkpt lat="48.66342" lon="-2.34686">
        <ele>26.8</ele>
        <time>2021-07-27T17:04:54Z</time>
      </trkpt>
      <trkpt lat="48.66342" lon="-2.34681">
        <ele>27</ele>
        <time>2021-07-27T17:04:55Z</time>
      </trkpt>
      <trkpt lat="48.66343" lon="-2.34672">
        <ele>27.4</ele>
        <time>2021-07-27T17:04:57Z</time>
      </trkpt>
      <trkpt lat="48.66343" lon="-2.34667">
        <ele>27.6</ele>
        <time>2021-07-27T17:04:58Z</time>
      </trkpt>
      <trkpt lat="48.66343" lon="-2.34659">
        <ele>27.9</ele>
        <time>2021-07-27T17:05:00Z</time>
      </trkpt>
      <trkpt lat="48.66343" lon="-2.34654">
        <ele>28.1</ele>
        <time>2021-07-27T17:05:01Z</time>
      </trkpt>
      <trkpt lat="48.66342" lon="-2.34646">
        <ele>28.4</ele>
        <time>2021-07-27T17:05:03Z</time>
      </trkpt>
      <trkpt lat="48.66341" lon="-2.34636">
        <ele>28.7</ele>
        <time>2021-07-27T17:05:05Z</time>
      </trkpt>
      <trkpt lat="48.66341" lon="-2.34632">
        <ele>28.9</ele>
        <time>2021-07-27T17:05:06Z</time>
      </trkpt>
      <trkpt lat="48.6634" lon="-2.34627">
        <ele>29.2</ele>
        <time>2021-07-27T17:05:07Z</time>
      </trkpt>
      <trkpt lat="48.66339" lon="-2.34622">
        <ele>29.4</ele>
        <time>2021-07-27T17:05:08Z</time>
      </trkpt>
      <trkpt lat="48.66338" lon="-2.34616">
        <ele>29.7</ele>
        <time>2021-07-27T17:05:09Z</time>
      </trkpt>
      <trkpt lat="48.66336" lon="-2.34611">
        <ele>29.9</ele>
        <time>2021-07-27T17:05:11Z</time>
      </trkpt>
      <trkpt lat="48.66335" lon="-2.34607">
        <ele>30.2</ele>
        <time>2021-07-27T17:05:12Z</time>
      </trkpt>
      <trkpt lat="48.66335" lon="-2.34602">
        <ele>30.4</ele>
        <time>2021-07-27T17:05:13Z</time>
      </trkpt>
      <trkpt lat="48.66334" lon="-2.34595">
        <ele>30.7</ele>
        <time>2021-07-27T17:05:14Z</time>
      </trkpt>
      <trkpt lat="48.66333" lon="-2.34589">
        <ele>31.1</ele>
        <time>2021-07-27T17:05:16Z</time>
      </trkpt>
      <trkpt lat="48.66332" lon="-2.34584">
        <ele>31.3</ele>
        <time>2021-07-27T17:05:17Z</time>
      </trkpt>
      <trkpt lat="48.66331" lon="-2.3458">
        <ele>31.5</ele>
        <time>2021-07-27T17:05:18Z</time>
      </trkpt>
      <trkpt lat="48.6633" lon="-2.34576">
        <ele>31.7</ele>
        <time>2021-07-27T17:05:19Z</time>
      </trkpt>
      <trkpt lat="48.66328" lon="-2.34568">
        <ele>32.1</ele>
        <time>2021-07-27T17:05:21Z</time>
      </trkpt>
      <trkpt lat="48.66327" lon="-2.34564">
        <ele>32.3</ele>
        <time>2021-07-27T17:05:22Z</time>
      </trkpt>
      <trkpt lat="48.66326" lon="-2.34556">
        <ele>32.7</ele>
        <time>2021-07-27T17:05:23Z</time>
      </trkpt>
      <trkpt lat="48.66325" lon="-2.3455">
        <ele>33</ele>
        <time>2021-07-27T17:05:25Z</time>
      </trkpt>
      <trkpt lat="48.66323" lon="-2.34542">
        <ele>33.5</ele>
        <time>2021-07-27T17:05:27Z</time>
      </trkpt>
      <trkpt lat="48.66322" lon="-2.34537">
        <ele>33.7</ele>
        <time>2021-07-27T17:05:28Z</time>
      </trkpt>
      <trkpt lat="48.66321" lon="-2.34533">
        <ele>33.9</ele>
        <time>2021-07-27T17:05:29Z</time>
      </trkpt>
      <trkpt lat="48.66319" lon="-2.34524">
        <ele>34.4</ele>
        <time>2021-07-27T17:05:31Z</time>
      </trkpt>
      <trkpt lat="48.66318" lon="-2.34518">
        <ele>34.6</ele>
        <time>2021-07-27T17:05:32Z</time>
      </trkpt>
      <trkpt lat="48.66317" lon="-2.34514">
        <ele>34.9</ele>
        <time>2021-07-27T17:05:33Z</time>
      </trkpt>
      <trkpt lat="48.66317" lon="-2.34508">
        <ele>35.1</ele>
        <time>2021-07-27T17:05:35Z</time>
      </trkpt>
      <trkpt lat="48.66315" lon="-2.34503">
        <ele>35.4</ele>
        <time>2021-07-27T17:05:36Z</time>
      </trkpt>
      <trkpt lat="48.66314" lon="-2.34498">
        <ele>35.6</ele>
        <time>2021-07-27T17:05:37Z</time>
      </trkpt>
      <trkpt lat="48.66314" lon="-2.34492">
        <ele>35.9</ele>
        <time>2021-07-27T17:05:39Z</time>
      </trkpt>
      <trkpt lat="48.66313" lon="-2.34484">
        <ele>36.2</ele>
        <time>2021-07-27T17:05:40Z</time>
      </trkpt>
      <trkpt lat="48.66312" lon="-2.3448">
        <ele>36.4</ele>
        <time>2021-07-27T17:05:41Z</time>
      </trkpt>
      <trkpt lat="48.66311" lon="-2.34475">
        <ele>36.6</ele>
        <time>2021-07-27T17:05:43Z</time>
      </trkpt>
      <trkpt lat="48.6631" lon="-2.34471">
        <ele>36.8</ele>
        <time>2021-07-27T17:05:44Z</time>
      </trkpt>
      <trkpt lat="48.66309" lon="-2.34463">
        <ele>37.1</ele>
        <time>2021-07-27T17:05:46Z</time>
      </trkpt>
      <trkpt lat="48.66308" lon="-2.34459">
        <ele>37.3</ele>
        <time>2021-07-27T17:05:47Z</time>
      </trkpt>
      <trkpt lat="48.66307" lon="-2.34452">
        <ele>37.5</ele>
        <time>2021-07-27T17:05:48Z</time>
      </trkpt>
      <trkpt lat="48.66306" lon="-2.34449">
        <ele>37.6</ele>
        <time>2021-07-27T17:05:49Z</time>
      </trkpt>
      <trkpt lat="48.66305" lon="-2.34443">
        <ele>37.8</ele>
        <time>2021-07-27T17:05:50Z</time>
      </trkpt>
      <trkpt lat="48.66304" lon="-2.34436">
        <ele>38</ele>
        <time>2021-07-27T17:05:52Z</time>
      </trkpt>
      <trkpt lat="48.66303" lon="-2.34431">
        <ele>38.2</ele>
        <time>2021-07-27T17:05:53Z</time>
      </trkpt>
      <trkpt lat="48.66303" lon="-2.34427">
        <ele>38.3</ele>
        <time>2021-07-27T17:05:54Z</time>
      </trkpt>
      <trkpt lat="48.66303" lon="-2.34422">
        <ele>38.5</ele>
        <time>2021-07-27T17:05:55Z</time>
      </trkpt>
      <trkpt lat="48.66303" lon="-2.34417">
        <ele>38.6</ele>
        <time>2021-07-27T17:05:57Z</time>
      </trkpt>
      <trkpt lat="48.66303" lon="-2.34412">
        <ele>38.7</ele>
        <time>2021-07-27T17:05:58Z</time>
      </trkpt>
      <trkpt lat="48.66303" lon="-2.34408">
        <ele>38.8</ele>
        <time>2021-07-27T17:05:59Z</time>
      </trkpt>
      <trkpt lat="48.66303" lon="-2.34402">
        <ele>39</ele>
        <time>2021-07-27T17:06:00Z</time>
      </trkpt>
      <trkpt lat="48.66304" lon="-2.34396">
        <ele>39.1</ele>
        <time>2021-07-27T17:06:01Z</time>
      </trkpt>
      <trkpt lat="48.66304" lon="-2.34391">
        <ele>39.3</ele>
        <time>2021-07-27T17:06:02Z</time>
      </trkpt>
      <trkpt lat="48.66305" lon="-2.34387">
        <ele>39.4</ele>
        <time>2021-07-27T17:06:04Z</time>
      </trkpt>
      <trkpt lat="48.66307" lon="-2.3438">
        <ele>39.5</ele>
        <time>2021-07-27T17:06:05Z</time>
      </trkpt>
      <trkpt lat="48.66308" lon="-2.34374">
        <ele>39.6</ele>
        <time>2021-07-27T17:06:06Z</time>
      </trkpt>
      <trkpt lat="48.6631" lon="-2.34368">
        <ele>39.7</ele>
        <time>2021-07-27T17:06:08Z</time>
      </trkpt>
      <trkpt lat="48.66312" lon="-2.3436">
        <ele>39.8</ele>
        <time>2021-07-27T17:06:09Z</time>
      </trkpt>
      <trkpt lat="48.66315" lon="-2.34354">
        <ele>39.9</ele>
        <time>2021-07-27T17:06:11Z</time>
      </trkpt>
      <trkpt lat="48.66318" lon="-2.34346">
        <ele>40</ele>
        <time>2021-07-27T17:06:12Z</time>
      </trkpt>
      <trkpt lat="48.6632" lon="-2.34341">
        <ele>40</ele>
        <time>2021-07-27T17:06:13Z</time>
      </trkpt>
      <trkpt lat="48.66322" lon="-2.34336">
        <ele>40.1</ele>
        <time>2021-07-27T17:06:15Z</time>
      </trkpt>
      <trkpt lat="48.66326" lon="-2.34328">
        <ele>40.1</ele>
        <time>2021-07-27T17:06:17Z</time>
      </trkpt>
      <trkpt lat="48.66329" lon="-2.34324">
        <ele>40.1</ele>
        <time>2021-07-27T17:06:18Z</time>
      </trkpt>
      <trkpt lat="48.66333" lon="-2.34317">
        <ele>40.2</ele>
        <time>2021-07-27T17:06:19Z</time>
      </trkpt>
      <trkpt lat="48.66338" lon="-2.34312">
        <ele>40.2</ele>
        <time>2021-07-27T17:06:21Z</time>
      </trkpt>
      <trkpt lat="48.66341" lon="-2.34308">
        <ele>40.2</ele>
        <time>2021-07-27T17:06:22Z</time>
      </trkpt>
      <trkpt lat="48.66346" lon="-2.34303">
        <ele>40.2</ele>
        <time>2021-07-27T17:06:23Z</time>
      </trkpt>
      <trkpt lat="48.6635" lon="-2.343">
        <ele>40.2</ele>
        <time>2021-07-27T17:06:24Z</time>
      </trkpt>
      <trkpt lat="48.66355" lon="-2.34297">
        <ele>40.2</ele>
        <time>2021-07-27T17:06:26Z</time>
      </trkpt>
      <trkpt lat="48.66359" lon="-2.34295">
        <ele>40.2</ele>
        <time>2021-07-27T17:06:27Z</time>
      </trkpt>
      <trkpt lat="48.66366" lon="-2.34293">
        <ele>40.2</ele>
        <time>2021-07-27T17:06:28Z</time>
      </trkpt>
      <trkpt lat="48.6637" lon="-2.34291">
        <ele>40.1</ele>
        <time>2021-07-27T17:06:29Z</time>
      </trkpt>
      <trkpt lat="48.66375" lon="-2.3429">
        <ele>40.1</ele>
        <time>2021-07-27T17:06:31Z</time>
      </trkpt>
      <trkpt lat="48.6638" lon="-2.34289">
        <ele>40.1</ele>
        <time>2021-07-27T17:06:32Z</time>
      </trkpt>
      <trkpt lat="48.66384" lon="-2.34288">
        <ele>40.1</ele>
        <time>2021-07-27T17:06:33Z</time>
      </trkpt>
      <trkpt lat="48.6639" lon="-2.34286">
        <ele>40.1</ele>
        <time>2021-07-27T17:06:34Z</time>
      </trkpt>
      <trkpt lat="48.66395" lon="-2.34285">
        <ele>40</ele>
        <time>2021-07-27T17:06:35Z</time>
      </trkpt>
      <trkpt lat="48.66401" lon="-2.34283">
        <ele>40</ele>
        <time>2021-07-27T17:06:37Z</time>
      </trkpt>
      <trkpt lat="48.66404" lon="-2.34283">
        <ele>40</ele>
        <time>2021-07-27T17:06:38Z</time>
      </trkpt>
      <trkpt lat="48.66412" lon="-2.34283">
        <ele>39.9</ele>
        <time>2021-07-27T17:06:39Z</time>
      </trkpt>
      <trkpt lat="48.6642" lon="-2.34282">
        <ele>39.9</ele>
        <time>2021-07-27T17:06:41Z</time>
      </trkpt>
      <trkpt lat="48.66426" lon="-2.34281">
        <ele>39.9</ele>
        <time>2021-07-27T17:06:42Z</time>
      </trkpt>
      <trkpt lat="48.66433" lon="-2.34281">
        <ele>39.8</ele>
        <time>2021-07-27T17:06:43Z</time>
      </trkpt>
      <trkpt lat="48.66438" lon="-2.3428">
        <ele>39.8</ele>
        <time>2021-07-27T17:06:45Z</time>
      </trkpt>
      <trkpt lat="48.66443" lon="-2.34279">
        <ele>39.7</ele>
        <time>2021-07-27T17:06:46Z</time>
      </trkpt>
      <trkpt lat="48.66447" lon="-2.34278">
        <ele>39.7</ele>
        <time>2021-07-27T17:06:47Z</time>
      </trkpt>
      <trkpt lat="48.66454" lon="-2.34278">
        <ele>39.7</ele>
        <time>2021-07-27T17:06:48Z</time>
      </trkpt>
      <trkpt lat="48.6646" lon="-2.34278">
        <ele>39.6</ele>
        <time>2021-07-27T17:06:50Z</time>
      </trkpt>
      <trkpt lat="48.66465" lon="-2.34277">
        <ele>39.6</ele>
        <time>2021-07-27T17:06:51Z</time>
      </trkpt>
      <trkpt lat="48.66475" lon="-2.34275">
        <ele>39.6</ele>
        <time>2021-07-27T17:06:53Z</time>
      </trkpt>
      <trkpt lat="48.66485" lon="-2.34272">
        <ele>39.6</ele>
        <time>2021-07-27T17:06:55Z</time>
      </trkpt>
      <trkpt lat="48.6649" lon="-2.3427">
        <ele>39.6</ele>
        <time>2021-07-27T17:06:56Z</time>
      </trkpt>
      <trkpt lat="48.66499" lon="-2.34266">
        <ele>39.6</ele>
        <time>2021-07-27T17:06:58Z</time>
      </trkpt>
      <trkpt lat="48.66504" lon="-2.34264">
        <ele>39.5</ele>
        <time>2021-07-27T17:06:59Z</time>
      </trkpt>
      <trkpt lat="48.66514" lon="-2.34258">
        <ele>39.5</ele>
        <time>2021-07-27T17:07:01Z</time>
      </trkpt>
      <trkpt lat="48.66519" lon="-2.34255">
        <ele>39.5</ele>
        <time>2021-07-27T17:07:02Z</time>
      </trkpt>
      <trkpt lat="48.66524" lon="-2.34252">
        <ele>39.4</ele>
        <time>2021-07-27T17:07:03Z</time>
      </trkpt>
      <trkpt lat="48.66533" lon="-2.34247">
        <ele>39.4</ele>
        <time>2021-07-27T17:07:05Z</time>
      </trkpt>
      <trkpt lat="48.66542" lon="-2.3424">
        <ele>39.3</ele>
        <time>2021-07-27T17:07:07Z</time>
      </trkpt>
      <trkpt lat="48.66552" lon="-2.34235">
        <ele>39.3</ele>
        <time>2021-07-27T17:07:09Z</time>
      </trkpt>
      <trkpt lat="48.66561" lon="-2.34229">
        <ele>39.5</ele>
        <time>2021-07-27T17:07:11Z</time>
      </trkpt>
      <trkpt lat="48.66566" lon="-2.34227">
        <ele>39.6</ele>
        <time>2021-07-27T17:07:12Z</time>
      </trkpt>
      <trkpt lat="48.6657" lon="-2.34223">
        <ele>39.8</ele>
        <time>2021-07-27T17:07:13Z</time>
      </trkpt>
      <trkpt lat="48.66574" lon="-2.3422">
        <ele>39.9</ele>
        <time>2021-07-27T17:07:14Z</time>
      </trkpt>
      <trkpt lat="48.66583" lon="-2.34215">
        <ele>40.2</ele>
        <time>2021-07-27T17:07:16Z</time>
      </trkpt>
      <trkpt lat="48.66591" lon="-2.3421">
        <ele>40.6</ele>
        <time>2021-07-27T17:07:18Z</time>
      </trkpt>
      <trkpt lat="48.66598" lon="-2.34205">
        <ele>40.9</ele>
        <time>2021-07-27T17:07:20Z</time>
      </trkpt>
      <trkpt lat="48.66602" lon="-2.34202">
        <ele>41</ele>
        <time>2021-07-27T17:07:21Z</time>
      </trkpt>
      <trkpt lat="48.66612" lon="-2.34196">
        <ele>41.4</ele>
        <time>2021-07-27T17:07:23Z</time>
      </trkpt>
      <trkpt lat="48.66616" lon="-2.34193">
        <ele>41.5</ele>
        <time>2021-07-27T17:07:24Z</time>
      </trkpt>
      <trkpt lat="48.66615" lon="-2.34192">
        <ele>41.6</ele>
        <time>2021-07-27T17:07:25Z</time>
      </trkpt>
      <trkpt lat="48.66625" lon="-2.34186">
        <ele>41.9</ele>
        <time>2021-07-27T17:07:27Z</time>
      </trkpt>
      <trkpt lat="48.6663" lon="-2.3418">
        <ele>42</ele>
        <time>2021-07-27T17:07:28Z</time>
      </trkpt>
      <trkpt lat="48.66639" lon="-2.3417">
        <ele>42</ele>
        <time>2021-07-27T17:07:30Z</time>
      </trkpt>
      <trkpt lat="48.66643" lon="-2.34166">
        <ele>42</ele>
        <time>2021-07-27T17:07:31Z</time>
      </trkpt>
      <trkpt lat="48.66646" lon="-2.34161">
        <ele>42</ele>
        <time>2021-07-27T17:07:32Z</time>
      </trkpt>
      <trkpt lat="48.66653" lon="-2.34151">
        <ele>42</ele>
        <time>2021-07-27T17:07:34Z</time>
      </trkpt>
      <trkpt lat="48.66656" lon="-2.34146">
        <ele>42</ele>
        <time>2021-07-27T17:07:35Z</time>
      </trkpt>
      <trkpt lat="48.66662" lon="-2.34135">
        <ele>42</ele>
        <time>2021-07-27T17:07:37Z</time>
      </trkpt>
      <trkpt lat="48.66666" lon="-2.34122">
        <ele>42</ele>
        <time>2021-07-27T17:07:39Z</time>
      </trkpt>
      <trkpt lat="48.6667" lon="-2.34109">
        <ele>41.9</ele>
        <time>2021-07-27T17:07:41Z</time>
      </trkpt>
      <trkpt lat="48.66672" lon="-2.34094">
        <ele>41.8</ele>
        <time>2021-07-27T17:07:43Z</time>
      </trkpt>
      <trkpt lat="48.66673" lon="-2.34086">
        <ele>41.8</ele>
        <time>2021-07-27T17:07:44Z</time>
      </trkpt>
      <trkpt lat="48.66675" lon="-2.34071">
        <ele>41.6</ele>
        <time>2021-07-27T17:07:46Z</time>
      </trkpt>
      <trkpt lat="48.66675" lon="-2.34063">
        <ele>41.4</ele>
        <time>2021-07-27T17:07:47Z</time>
      </trkpt>
      <trkpt lat="48.66677" lon="-2.34044">
        <ele>41.1</ele>
        <time>2021-07-27T17:07:49Z</time>
      </trkpt>
      <trkpt lat="48.66678" lon="-2.34027">
        <ele>40.8</ele>
        <time>2021-07-27T17:07:51Z</time>
      </trkpt>
      <trkpt lat="48.66678" lon="-2.34018">
        <ele>40.6</ele>
        <time>2021-07-27T17:07:52Z</time>
      </trkpt>
      <trkpt lat="48.6668" lon="-2.33999">
        <ele>40.2</ele>
        <time>2021-07-27T17:07:54Z</time>
      </trkpt>
      <trkpt lat="48.66681" lon="-2.3398">
        <ele>39.8</ele>
        <time>2021-07-27T17:07:56Z</time>
      </trkpt>
      <trkpt lat="48.66682" lon="-2.3397">
        <ele>39.5</ele>
        <time>2021-07-27T17:07:57Z</time>
      </trkpt>
      <trkpt lat="48.66683" lon="-2.33951">
        <ele>39.1</ele>
        <time>2021-07-27T17:07:59Z</time>
      </trkpt>
      <trkpt lat="48.66685" lon="-2.33931">
        <ele>38.8</ele>
        <time>2021-07-27T17:08:01Z</time>
      </trkpt>
      <trkpt lat="48.66687" lon="-2.33911">
        <ele>38.5</ele>
        <time>2021-07-27T17:08:03Z</time>
      </trkpt>
      <trkpt lat="48.66691" lon="-2.33892">
        <ele>38.2</ele>
        <time>2021-07-27T17:08:05Z</time>
      </trkpt>
      <trkpt lat="48.66693" lon="-2.33883">
        <ele>38</ele>
        <time>2021-07-27T17:08:06Z</time>
      </trkpt>
      <trkpt lat="48.66697" lon="-2.33864">
        <ele>37.8</ele>
        <time>2021-07-27T17:08:08Z</time>
      </trkpt>
      <trkpt lat="48.66702" lon="-2.33847">
        <ele>37.7</ele>
        <time>2021-07-27T17:08:10Z</time>
      </trkpt>
      <trkpt lat="48.66707" lon="-2.3383">
        <ele>37.7</ele>
        <time>2021-07-27T17:08:12Z</time>
      </trkpt>
      <trkpt lat="48.66712" lon="-2.33814">
        <ele>37.7</ele>
        <time>2021-07-27T17:08:14Z</time>
      </trkpt>
      <trkpt lat="48.66715" lon="-2.338">
        <ele>37.8</ele>
        <time>2021-07-27T17:08:16Z</time>
      </trkpt>
      <trkpt lat="48.66719" lon="-2.33785">
        <ele>37.8</ele>
        <time>2021-07-27T17:08:18Z</time>
      </trkpt>
      <trkpt lat="48.66721" lon="-2.33777">
        <ele>37.9</ele>
        <time>2021-07-27T17:08:19Z</time>
      </trkpt>
      <trkpt lat="48.66726" lon="-2.33761">
        <ele>38</ele>
        <time>2021-07-27T17:08:21Z</time>
      </trkpt>
      <trkpt lat="48.66732" lon="-2.33746">
        <ele>38.2</ele>
        <time>2021-07-27T17:08:23Z</time>
      </trkpt>
      <trkpt lat="48.66735" lon="-2.33738">
        <ele>38.3</ele>
        <time>2021-07-27T17:08:24Z</time>
      </trkpt>
      <trkpt lat="48.66738" lon="-2.33731">
        <ele>38.4</ele>
        <time>2021-07-27T17:08:25Z</time>
      </trkpt>
      <trkpt lat="48.66745" lon="-2.33716">
        <ele>38.6</ele>
        <time>2021-07-27T17:08:27Z</time>
      </trkpt>
      <trkpt lat="48.66751" lon="-2.33703">
        <ele>38.9</ele>
        <time>2021-07-27T17:08:29Z</time>
      </trkpt>
      <trkpt lat="48.66755" lon="-2.33696">
        <ele>39</ele>
        <time>2021-07-27T17:08:30Z</time>
      </trkpt>
      <trkpt lat="48.66758" lon="-2.33689">
        <ele>39.2</ele>
        <time>2021-07-27T17:08:31Z</time>
      </trkpt>
      <trkpt lat="48.66766" lon="-2.33675">
        <ele>39.6</ele>
        <time>2021-07-27T17:08:33Z</time>
      </trkpt>
      <trkpt lat="48.6677" lon="-2.33668">
        <ele>39.8</ele>
        <time>2021-07-27T17:08:34Z</time>
      </trkpt>
      <trkpt lat="48.66774" lon="-2.33661">
        <ele>39.9</ele>
        <time>2021-07-27T17:08:35Z</time>
      </trkpt>
      <trkpt lat="48.66782" lon="-2.33649">
        <ele>40.3</ele>
        <time>2021-07-27T17:08:37Z</time>
      </trkpt>
      <trkpt lat="48.66791" lon="-2.33637">
        <ele>40.6</ele>
        <time>2021-07-27T17:08:39Z</time>
      </trkpt>
      <trkpt lat="48.66799" lon="-2.33625">
        <ele>41</ele>
        <time>2021-07-27T17:08:41Z</time>
      </trkpt>
      <trkpt lat="48.66803" lon="-2.33619">
        <ele>41.1</ele>
        <time>2021-07-27T17:08:42Z</time>
      </trkpt>
      <trkpt lat="48.66807" lon="-2.33614">
        <ele>41.3</ele>
        <time>2021-07-27T17:08:43Z</time>
      </trkpt>
      <trkpt lat="48.66816" lon="-2.33602">
        <ele>41.7</ele>
        <time>2021-07-27T17:08:45Z</time>
      </trkpt>
      <trkpt lat="48.66821" lon="-2.33596">
        <ele>41.8</ele>
        <time>2021-07-27T17:08:46Z</time>
      </trkpt>
      <trkpt lat="48.66825" lon="-2.33591">
        <ele>42</ele>
        <time>2021-07-27T17:08:47Z</time>
      </trkpt>
      <trkpt lat="48.66833" lon="-2.3358">
        <ele>42.2</ele>
        <time>2021-07-27T17:08:49Z</time>
      </trkpt>
      <trkpt lat="48.66843" lon="-2.33571">
        <ele>42.4</ele>
        <time>2021-07-27T17:08:51Z</time>
      </trkpt>
      <trkpt lat="48.66847" lon="-2.33567">
        <ele>42.6</ele>
        <time>2021-07-27T17:08:52Z</time>
      </trkpt>
      <trkpt lat="48.66857" lon="-2.33559">
        <ele>42.8</ele>
        <time>2021-07-27T17:08:54Z</time>
      </trkpt>
      <trkpt lat="48.66862" lon="-2.33556">
        <ele>43</ele>
        <time>2021-07-27T17:08:55Z</time>
      </trkpt>
      <trkpt lat="48.66871" lon="-2.33547">
        <ele>43.3</ele>
        <time>2021-07-27T17:08:57Z</time>
      </trkpt>
      <trkpt lat="48.66875" lon="-2.33542">
        <ele>43.5</ele>
        <time>2021-07-27T17:08:58Z</time>
      </trkpt>
      <trkpt lat="48.66884" lon="-2.33535">
        <ele>43.7</ele>
        <time>2021-07-27T17:09:00Z</time>
      </trkpt>
      <trkpt lat="48.66888" lon="-2.33531">
        <ele>43.9</ele>
        <time>2021-07-27T17:09:01Z</time>
      </trkpt>
      <trkpt lat="48.66893" lon="-2.33528">
        <ele>44</ele>
        <time>2021-07-27T17:09:02Z</time>
      </trkpt>
      <trkpt lat="48.66901" lon="-2.3352">
        <ele>44.3</ele>
        <time>2021-07-27T17:09:04Z</time>
      </trkpt>
      <trkpt lat="48.66909" lon="-2.33512">
        <ele>44.5</ele>
        <time>2021-07-27T17:09:06Z</time>
      </trkpt>
      <trkpt lat="48.66917" lon="-2.33504">
        <ele>44.8</ele>
        <time>2021-07-27T17:09:08Z</time>
      </trkpt>
      <trkpt lat="48.66924" lon="-2.33497">
        <ele>45.1</ele>
        <time>2021-07-27T17:09:10Z</time>
      </trkpt>
      <trkpt lat="48.66928" lon="-2.33494">
        <ele>45.2</ele>
        <time>2021-07-27T17:09:11Z</time>
      </trkpt>
      <trkpt lat="48.66936" lon="-2.33487">
        <ele>45.4</ele>
        <time>2021-07-27T17:09:13Z</time>
      </trkpt>
      <trkpt lat="48.66944" lon="-2.33479">
        <ele>45.7</ele>
        <time>2021-07-27T17:09:15Z</time>
      </trkpt>
      <trkpt lat="48.66947" lon="-2.33476">
        <ele>45.7</ele>
        <time>2021-07-27T17:09:16Z</time>
      </trkpt>
      <trkpt lat="48.6695" lon="-2.33473">
        <ele>45.8</ele>
        <time>2021-07-27T17:09:17Z</time>
      </trkpt>
      <trkpt lat="48.66954" lon="-2.33467">
        <ele>45.9</ele>
        <time>2021-07-27T17:09:18Z</time>
      </trkpt>
      <trkpt lat="48.66958" lon="-2.33462">
        <ele>46.1</ele>
        <time>2021-07-27T17:09:19Z</time>
      </trkpt>
      <trkpt lat="48.66962" lon="-2.3345">
        <ele>46.3</ele>
        <time>2021-07-27T17:09:21Z</time>
      </trkpt>
      <trkpt lat="48.66965" lon="-2.33444">
        <ele>46.4</ele>
        <time>2021-07-27T17:09:22Z</time>
      </trkpt>
      <trkpt lat="48.66969" lon="-2.33431">
        <ele>46.6</ele>
        <time>2021-07-27T17:09:24Z</time>
      </trkpt>
      <trkpt lat="48.66971" lon="-2.33424">
        <ele>46.7</ele>
        <time>2021-07-27T17:09:25Z</time>
      </trkpt>
      <trkpt lat="48.66974" lon="-2.33411">
        <ele>46.8</ele>
        <time>2021-07-27T17:09:27Z</time>
      </trkpt>
      <trkpt lat="48.66975" lon="-2.33404">
        <ele>46.9</ele>
        <time>2021-07-27T17:09:28Z</time>
      </trkpt>
      <trkpt lat="48.66976" lon="-2.33391">
        <ele>47.1</ele>
        <time>2021-07-27T17:09:30Z</time>
      </trkpt>
      <trkpt lat="48.66977" lon="-2.33384">
        <ele>47.2</ele>
        <time>2021-07-27T17:09:31Z</time>
      </trkpt>
      <trkpt lat="48.66977" lon="-2.33376">
        <ele>47.3</ele>
        <time>2021-07-27T17:09:32Z</time>
      </trkpt>
      <trkpt lat="48.66976" lon="-2.33362">
        <ele>47.5</ele>
        <time>2021-07-27T17:09:34Z</time>
      </trkpt>
      <trkpt lat="48.66974" lon="-2.33348">
        <ele>47.7</ele>
        <time>2021-07-27T17:09:36Z</time>
      </trkpt>
      <trkpt lat="48.66973" lon="-2.33334">
        <ele>48</ele>
        <time>2021-07-27T17:09:38Z</time>
      </trkpt>
      <trkpt lat="48.66973" lon="-2.3332">
        <ele>48.3</ele>
        <time>2021-07-27T17:09:40Z</time>
      </trkpt>
      <trkpt lat="48.66972" lon="-2.33313">
        <ele>48.4</ele>
        <time>2021-07-27T17:09:41Z</time>
      </trkpt>
      <trkpt lat="48.66972" lon="-2.33307">
        <ele>48.6</ele>
        <time>2021-07-27T17:09:42Z</time>
      </trkpt>
      <trkpt lat="48.66972" lon="-2.33292">
        <ele>48.9</ele>
        <time>2021-07-27T17:09:44Z</time>
      </trkpt>
      <trkpt lat="48.66971" lon="-2.33285">
        <ele>49.1</ele>
        <time>2021-07-27T17:09:45Z</time>
      </trkpt>
      <trkpt lat="48.66971" lon="-2.33272">
        <ele>49.4</ele>
        <time>2021-07-27T17:09:47Z</time>
      </trkpt>
      <trkpt lat="48.66971" lon="-2.33265">
        <ele>49.6</ele>
        <time>2021-07-27T17:09:48Z</time>
      </trkpt>
      <trkpt lat="48.66971" lon="-2.33254">
        <ele>49.9</ele>
        <time>2021-07-27T17:09:50Z</time>
      </trkpt>
      <trkpt lat="48.66971" lon="-2.33241">
        <ele>50.3</ele>
        <time>2021-07-27T17:09:52Z</time>
      </trkpt>
      <trkpt lat="48.66971" lon="-2.33227">
        <ele>50.6</ele>
        <time>2021-07-27T17:09:54Z</time>
      </trkpt>
      <trkpt lat="48.66971" lon="-2.33223">
        <ele>50.7</ele>
        <time>2021-07-27T17:09:55Z</time>
      </trkpt>
      <trkpt lat="48.6697" lon="-2.33219">
        <ele>50.8</ele>
        <time>2021-07-27T17:09:56Z</time>
      </trkpt>
      <trkpt lat="48.6697" lon="-2.33213">
        <ele>50.9</ele>
        <time>2021-07-27T17:09:57Z</time>
      </trkpt>
      <trkpt lat="48.66972" lon="-2.33203">
        <ele>51</ele>
        <time>2021-07-27T17:09:58Z</time>
      </trkpt>
      <trkpt lat="48.66973" lon="-2.33194">
        <ele>51.2</ele>
        <time>2021-07-27T17:10:00Z</time>
      </trkpt>
      <trkpt lat="48.66975" lon="-2.33187">
        <ele>51.3</ele>
        <time>2021-07-27T17:10:01Z</time>
      </trkpt>
      <trkpt lat="48.66978" lon="-2.33174">
        <ele>51.6</ele>
        <time>2021-07-27T17:10:03Z</time>
      </trkpt>
      <trkpt lat="48.66979" lon="-2.33166">
        <ele>51.7</ele>
        <time>2021-07-27T17:10:04Z</time>
      </trkpt>
      <trkpt lat="48.66982" lon="-2.33157">
        <ele>51.9</ele>
        <time>2021-07-27T17:10:05Z</time>
      </trkpt>
      <trkpt lat="48.66983" lon="-2.3315">
        <ele>52</ele>
        <time>2021-07-27T17:10:07Z</time>
      </trkpt>
      <trkpt lat="48.66985" lon="-2.33144">
        <ele>52.1</ele>
        <time>2021-07-27T17:10:08Z</time>
      </trkpt>
      <trkpt lat="48.66987" lon="-2.33134">
        <ele>52.3</ele>
        <time>2021-07-27T17:10:09Z</time>
      </trkpt>
      <trkpt lat="48.66989" lon="-2.33128">
        <ele>52.5</ele>
        <time>2021-07-27T17:10:10Z</time>
      </trkpt>
      <trkpt lat="48.66991" lon="-2.33122">
        <ele>52.6</ele>
        <time>2021-07-27T17:10:11Z</time>
      </trkpt>
      <trkpt lat="48.66994" lon="-2.33115">
        <ele>52.8</ele>
        <time>2021-07-27T17:10:13Z</time>
      </trkpt>
      <trkpt lat="48.66998" lon="-2.33107">
        <ele>52.8</ele>
        <time>2021-07-27T17:10:14Z</time>
      </trkpt>
      <trkpt lat="48.67001" lon="-2.33102">
        <ele>52.9</ele>
        <time>2021-07-27T17:10:15Z</time>
      </trkpt>
      <trkpt lat="48.67005" lon="-2.33096">
        <ele>53</ele>
        <time>2021-07-27T17:10:17Z</time>
      </trkpt>
      <trkpt lat="48.67008" lon="-2.3309">
        <ele>53.1</ele>
        <time>2021-07-27T17:10:18Z</time>
      </trkpt>
      <trkpt lat="48.67013" lon="-2.33081">
        <ele>53.2</ele>
        <time>2021-07-27T17:10:20Z</time>
      </trkpt>
      <trkpt lat="48.67018" lon="-2.33074">
        <ele>53.4</ele>
        <time>2021-07-27T17:10:21Z</time>
      </trkpt>
      <trkpt lat="48.67022" lon="-2.33066">
        <ele>53.6</ele>
        <time>2021-07-27T17:10:23Z</time>
      </trkpt>
      <trkpt lat="48.67027" lon="-2.3306">
        <ele>53.7</ele>
        <time>2021-07-27T17:10:24Z</time>
      </trkpt>
      <trkpt lat="48.67032" lon="-2.33053">
        <ele>53.8</ele>
        <time>2021-07-27T17:10:26Z</time>
      </trkpt>
      <trkpt lat="48.67037" lon="-2.33046">
        <ele>53.9</ele>
        <time>2021-07-27T17:10:27Z</time>
      </trkpt>
      <trkpt lat="48.67042" lon="-2.33039">
        <ele>54</ele>
        <time>2021-07-27T17:10:29Z</time>
      </trkpt>
      <trkpt lat="48.67045" lon="-2.33034">
        <ele>54.1</ele>
        <time>2021-07-27T17:10:30Z</time>
      </trkpt>
      <trkpt lat="48.67051" lon="-2.33025">
        <ele>54.2</ele>
        <time>2021-07-27T17:10:31Z</time>
      </trkpt>
      <trkpt lat="48.67055" lon="-2.3302">
        <ele>54.3</ele>
        <time>2021-07-27T17:10:33Z</time>
      </trkpt>
      <trkpt lat="48.67058" lon="-2.33015">
        <ele>54.3</ele>
        <time>2021-07-27T17:10:34Z</time>
      </trkpt>
      <trkpt lat="48.67063" lon="-2.33009">
        <ele>54.4</ele>
        <time>2021-07-27T17:10:35Z</time>
      </trkpt>
      <trkpt lat="48.67068" lon="-2.33002">
        <ele>54.5</ele>
        <time>2021-07-27T17:10:37Z</time>
      </trkpt>
      <trkpt lat="48.67073" lon="-2.32996">
        <ele>54.5</ele>
        <time>2021-07-27T17:10:38Z</time>
      </trkpt>
      <trkpt lat="48.67076" lon="-2.32991">
        <ele>54.6</ele>
        <time>2021-07-27T17:10:39Z</time>
      </trkpt>
      <trkpt lat="48.6708" lon="-2.32985">
        <ele>54.6</ele>
        <time>2021-07-27T17:10:40Z</time>
      </trkpt>
      <trkpt lat="48.67084" lon="-2.32978">
        <ele>54.6</ele>
        <time>2021-07-27T17:10:42Z</time>
      </trkpt>
      <trkpt lat="48.67087" lon="-2.32974">
        <ele>54.6</ele>
        <time>2021-07-27T17:10:43Z</time>
      </trkpt>
      <trkpt lat="48.67093" lon="-2.32964">
        <ele>54.6</ele>
        <time>2021-07-27T17:10:45Z</time>
      </trkpt>
      <trkpt lat="48.67097" lon="-2.3296">
        <ele>54.6</ele>
        <time>2021-07-27T17:10:46Z</time>
      </trkpt>
      <trkpt lat="48.67104" lon="-2.3295">
        <ele>54.6</ele>
        <time>2021-07-27T17:10:48Z</time>
      </trkpt>
      <trkpt lat="48.67107" lon="-2.32945">
        <ele>54.6</ele>
        <time>2021-07-27T17:10:49Z</time>
      </trkpt>
      <trkpt lat="48.67114" lon="-2.32936">
        <ele>54.5</ele>
        <time>2021-07-27T17:10:51Z</time>
      </trkpt>
      <trkpt lat="48.67121" lon="-2.32926">
        <ele>54.4</ele>
        <time>2021-07-27T17:10:53Z</time>
      </trkpt>
      <trkpt lat="48.67125" lon="-2.32921">
        <ele>54.3</ele>
        <time>2021-07-27T17:10:54Z</time>
      </trkpt>
      <trkpt lat="48.67129" lon="-2.32915">
        <ele>54.3</ele>
        <time>2021-07-27T17:10:55Z</time>
      </trkpt>
      <trkpt lat="48.67133" lon="-2.3291">
        <ele>54.2</ele>
        <time>2021-07-27T17:10:56Z</time>
      </trkpt>
      <trkpt lat="48.67141" lon="-2.32899">
        <ele>54</ele>
        <time>2021-07-27T17:10:58Z</time>
      </trkpt>
      <trkpt lat="48.67145" lon="-2.32893">
        <ele>53.9</ele>
        <time>2021-07-27T17:10:59Z</time>
      </trkpt>
      <trkpt lat="48.67153" lon="-2.32883">
        <ele>53.8</ele>
        <time>2021-07-27T17:11:01Z</time>
      </trkpt>
      <trkpt lat="48.67161" lon="-2.32872">
        <ele>53.6</ele>
        <time>2021-07-27T17:11:03Z</time>
      </trkpt>
      <trkpt lat="48.67169" lon="-2.32862">
        <ele>53.4</ele>
        <time>2021-07-27T17:11:05Z</time>
      </trkpt>
      <trkpt lat="48.67173" lon="-2.32856">
        <ele>53.3</ele>
        <time>2021-07-27T17:11:06Z</time>
      </trkpt>
      <trkpt lat="48.67177" lon="-2.32851">
        <ele>53.2</ele>
        <time>2021-07-27T17:11:07Z</time>
      </trkpt>
      <trkpt lat="48.67181" lon="-2.32846">
        <ele>53.1</ele>
        <time>2021-07-27T17:11:08Z</time>
      </trkpt>
      <trkpt lat="48.67188" lon="-2.32836">
        <ele>53</ele>
        <time>2021-07-27T17:11:10Z</time>
      </trkpt>
      <trkpt lat="48.67195" lon="-2.32826">
        <ele>52.9</ele>
        <time>2021-07-27T17:11:12Z</time>
      </trkpt>
      <trkpt lat="48.67202" lon="-2.32816">
        <ele>52.9</ele>
        <time>2021-07-27T17:11:14Z</time>
      </trkpt>
      <trkpt lat="48.6721" lon="-2.32805">
        <ele>52.9</ele>
        <time>2021-07-27T17:11:16Z</time>
      </trkpt>
      <trkpt lat="48.67213" lon="-2.328">
        <ele>53</ele>
        <time>2021-07-27T17:11:17Z</time>
      </trkpt>
      <trkpt lat="48.67217" lon="-2.32794">
        <ele>53</ele>
        <time>2021-07-27T17:11:18Z</time>
      </trkpt>
      <trkpt lat="48.67224" lon="-2.32783">
        <ele>53.1</ele>
        <time>2021-07-27T17:11:20Z</time>
      </trkpt>
      <trkpt lat="48.67232" lon="-2.32774">
        <ele>53.3</ele>
        <time>2021-07-27T17:11:22Z</time>
      </trkpt>
      <trkpt lat="48.6724" lon="-2.32765">
        <ele>53.6</ele>
        <time>2021-07-27T17:11:24Z</time>
      </trkpt>
      <trkpt lat="48.67248" lon="-2.32755">
        <ele>53.8</ele>
        <time>2021-07-27T17:11:26Z</time>
      </trkpt>
      <trkpt lat="48.67255" lon="-2.32745">
        <ele>54.2</ele>
        <time>2021-07-27T17:11:28Z</time>
      </trkpt>
      <trkpt lat="48.67262" lon="-2.32735">
        <ele>54.6</ele>
        <time>2021-07-27T17:11:30Z</time>
      </trkpt>
      <trkpt lat="48.67268" lon="-2.32727">
        <ele>54.9</ele>
        <time>2021-07-27T17:11:32Z</time>
      </trkpt>
      <trkpt lat="48.67274" lon="-2.32719">
        <ele>55.2</ele>
        <time>2021-07-27T17:11:34Z</time>
      </trkpt>
      <trkpt lat="48.67282" lon="-2.3271">
        <ele>55.6</ele>
        <time>2021-07-27T17:11:36Z</time>
      </trkpt>
      <trkpt lat="48.67285" lon="-2.32706">
        <ele>55.8</ele>
        <time>2021-07-27T17:11:37Z</time>
      </trkpt>
      <trkpt lat="48.67289" lon="-2.32698">
        <ele>56.1</ele>
        <time>2021-07-27T17:11:38Z</time>
      </trkpt>
      <trkpt lat="48.67291" lon="-2.32693">
        <ele>56.3</ele>
        <time>2021-07-27T17:11:40Z</time>
      </trkpt>
      <trkpt lat="48.673" lon="-2.32687">
        <ele>56.7</ele>
        <time>2021-07-27T17:11:42Z</time>
      </trkpt>
      <trkpt lat="48.67304" lon="-2.32682">
        <ele>57</ele>
        <time>2021-07-27T17:11:43Z</time>
      </trkpt>
      <trkpt lat="48.67309" lon="-2.32678">
        <ele>57.3</ele>
        <time>2021-07-27T17:11:44Z</time>
      </trkpt>
      <trkpt lat="48.67313" lon="-2.32675">
        <ele>57.5</ele>
        <time>2021-07-27T17:11:45Z</time>
      </trkpt>
      <trkpt lat="48.67317" lon="-2.32671">
        <ele>57.7</ele>
        <time>2021-07-27T17:11:47Z</time>
      </trkpt>
      <trkpt lat="48.6732" lon="-2.32669">
        <ele>57.9</ele>
        <time>2021-07-27T17:11:48Z</time>
      </trkpt>
      <trkpt lat="48.67324" lon="-2.32666">
        <ele>58.1</ele>
        <time>2021-07-27T17:11:49Z</time>
      </trkpt>
      <trkpt lat="48.6733" lon="-2.32662">
        <ele>58.4</ele>
        <time>2021-07-27T17:11:51Z</time>
      </trkpt>
      <trkpt lat="48.67334" lon="-2.32661">
        <ele>58.6</ele>
        <time>2021-07-27T17:11:52Z</time>
      </trkpt>
      <trkpt lat="48.67337" lon="-2.32659">
        <ele>58.7</ele>
        <time>2021-07-27T17:11:53Z</time>
      </trkpt>
      <trkpt lat="48.67343" lon="-2.32655">
        <ele>59</ele>
        <time>2021-07-27T17:11:54Z</time>
      </trkpt>
      <trkpt lat="48.67346" lon="-2.32653">
        <ele>59.1</ele>
        <time>2021-07-27T17:11:56Z</time>
      </trkpt>
      <trkpt lat="48.67352" lon="-2.3265">
        <ele>59.4</ele>
        <time>2021-07-27T17:11:58Z</time>
      </trkpt>
      <trkpt lat="48.67355" lon="-2.32648">
        <ele>59.5</ele>
        <time>2021-07-27T17:11:59Z</time>
      </trkpt>
      <trkpt lat="48.67361" lon="-2.32646">
        <ele>59.8</ele>
        <time>2021-07-27T17:12:01Z</time>
      </trkpt>
      <trkpt lat="48.67369" lon="-2.32645">
        <ele>60.1</ele>
        <time>2021-07-27T17:12:03Z</time>
      </trkpt>
      <trkpt lat="48.67372" lon="-2.32644">
        <ele>60.2</ele>
        <time>2021-07-27T17:12:04Z</time>
      </trkpt>
      <trkpt lat="48.67378" lon="-2.32644">
        <ele>60.3</ele>
        <time>2021-07-27T17:12:05Z</time>
      </trkpt>
      <trkpt lat="48.67382" lon="-2.32643">
        <ele>60.4</ele>
        <time>2021-07-27T17:12:06Z</time>
      </trkpt>
      <trkpt lat="48.67386" lon="-2.32642">
        <ele>60.6</ele>
        <time>2021-07-27T17:12:08Z</time>
      </trkpt>
      <trkpt lat="48.67392" lon="-2.3264">
        <ele>60.7</ele>
        <time>2021-07-27T17:12:09Z</time>
      </trkpt>
      <trkpt lat="48.67396" lon="-2.32639">
        <ele>60.9</ele>
        <time>2021-07-27T17:12:10Z</time>
      </trkpt>
      <trkpt lat="48.67401" lon="-2.32638">
        <ele>61</ele>
        <time>2021-07-27T17:12:12Z</time>
      </trkpt>
      <trkpt lat="48.67405" lon="-2.32637">
        <ele>61.1</ele>
        <time>2021-07-27T17:12:13Z</time>
      </trkpt>
      <trkpt lat="48.6741" lon="-2.32636">
        <ele>61.2</ele>
        <time>2021-07-27T17:12:15Z</time>
      </trkpt>
      <trkpt lat="48.67416" lon="-2.32634">
        <ele>61.4</ele>
        <time>2021-07-27T17:12:16Z</time>
      </trkpt>
      <trkpt lat="48.67421" lon="-2.32633">
        <ele>61.5</ele>
        <time>2021-07-27T17:12:18Z</time>
      </trkpt>
      <trkpt lat="48.67424" lon="-2.32632">
        <ele>61.5</ele>
        <time>2021-07-27T17:12:19Z</time>
      </trkpt>
      <trkpt lat="48.6743" lon="-2.3263">
        <ele>61.6</ele>
        <time>2021-07-27T17:12:20Z</time>
      </trkpt>
      <trkpt lat="48.67434" lon="-2.32629">
        <ele>61.6</ele>
        <time>2021-07-27T17:12:22Z</time>
      </trkpt>
      <trkpt lat="48.67437" lon="-2.32627">
        <ele>61.6</ele>
        <time>2021-07-27T17:12:23Z</time>
      </trkpt>
      <trkpt lat="48.67443" lon="-2.32625">
        <ele>61.7</ele>
        <time>2021-07-27T17:12:24Z</time>
      </trkpt>
      <trkpt lat="48.67447" lon="-2.32623">
        <ele>61.7</ele>
        <time>2021-07-27T17:12:25Z</time>
      </trkpt>
      <trkpt lat="48.67451" lon="-2.32621">
        <ele>61.7</ele>
        <time>2021-07-27T17:12:27Z</time>
      </trkpt>
      <trkpt lat="48.67454" lon="-2.32619">
        <ele>61.7</ele>
        <time>2021-07-27T17:12:28Z</time>
      </trkpt>
      <trkpt lat="48.67458" lon="-2.32616">
        <ele>61.7</ele>
        <time>2021-07-27T17:12:29Z</time>
      </trkpt>
      <trkpt lat="48.67464" lon="-2.32613">
        <ele>61.6</ele>
        <time>2021-07-27T17:12:30Z</time>
      </trkpt>
      <trkpt lat="48.67468" lon="-2.3261">
        <ele>61.6</ele>
        <time>2021-07-27T17:12:31Z</time>
      </trkpt>
      <trkpt lat="48.67473" lon="-2.32605">
        <ele>61.5</ele>
        <time>2021-07-27T17:12:33Z</time>
      </trkpt>
      <trkpt lat="48.67477" lon="-2.32601">
        <ele>61.5</ele>
        <time>2021-07-27T17:12:34Z</time>
      </trkpt>
      <trkpt lat="48.67482" lon="-2.32597">
        <ele>61.4</ele>
        <time>2021-07-27T17:12:35Z</time>
      </trkpt>
      <trkpt lat="48.67485" lon="-2.32593">
        <ele>61.4</ele>
        <time>2021-07-27T17:12:36Z</time>
      </trkpt>
      <trkpt lat="48.6749" lon="-2.32588">
        <ele>61.3</ele>
        <time>2021-07-27T17:12:38Z</time>
      </trkpt>
      <trkpt lat="48.67496" lon="-2.32582">
        <ele>61.2</ele>
        <time>2021-07-27T17:12:39Z</time>
      </trkpt>
      <trkpt lat="48.67499" lon="-2.32578">
        <ele>61.1</ele>
        <time>2021-07-27T17:12:41Z</time>
      </trkpt>
      <trkpt lat="48.67504" lon="-2.32571">
        <ele>61</ele>
        <time>2021-07-27T17:12:42Z</time>
      </trkpt>
      <trkpt lat="48.67508" lon="-2.32567">
        <ele>60.9</ele>
        <time>2021-07-27T17:12:44Z</time>
      </trkpt>
      <trkpt lat="48.67512" lon="-2.32561">
        <ele>60.8</ele>
        <time>2021-07-27T17:12:45Z</time>
      </trkpt>
      <trkpt lat="48.67515" lon="-2.32557">
        <ele>60.7</ele>
        <time>2021-07-27T17:12:46Z</time>
      </trkpt>
      <trkpt lat="48.67519" lon="-2.32552">
        <ele>60.6</ele>
        <time>2021-07-27T17:12:48Z</time>
      </trkpt>
      <trkpt lat="48.67523" lon="-2.32546">
        <ele>60.5</ele>
        <time>2021-07-27T17:12:49Z</time>
      </trkpt>
      <trkpt lat="48.67527" lon="-2.32541">
        <ele>60.4</ele>
        <time>2021-07-27T17:12:50Z</time>
      </trkpt>
      <trkpt lat="48.67532" lon="-2.32534">
        <ele>60.3</ele>
        <time>2021-07-27T17:12:52Z</time>
      </trkpt>
      <trkpt lat="48.67536" lon="-2.32529">
        <ele>60.2</ele>
        <time>2021-07-27T17:12:53Z</time>
      </trkpt>
      <trkpt lat="48.6754" lon="-2.32523">
        <ele>60.1</ele>
        <time>2021-07-27T17:12:54Z</time>
      </trkpt>
      <trkpt lat="48.67543" lon="-2.32518">
        <ele>60</ele>
        <time>2021-07-27T17:12:55Z</time>
      </trkpt>
      <trkpt lat="48.67547" lon="-2.32513">
        <ele>59.9</ele>
        <time>2021-07-27T17:12:57Z</time>
      </trkpt>
      <trkpt lat="48.67551" lon="-2.32506">
        <ele>59.8</ele>
        <time>2021-07-27T17:12:58Z</time>
      </trkpt>
      <trkpt lat="48.67555" lon="-2.32501">
        <ele>59.7</ele>
        <time>2021-07-27T17:12:59Z</time>
      </trkpt>
      <trkpt lat="48.67559" lon="-2.32495">
        <ele>59.7</ele>
        <time>2021-07-27T17:13:01Z</time>
      </trkpt>
      <trkpt lat="48.67563" lon="-2.32489">
        <ele>59.6</ele>
        <time>2021-07-27T17:13:02Z</time>
      </trkpt>
      <trkpt lat="48.67569" lon="-2.3248">
        <ele>59.6</ele>
        <time>2021-07-27T17:13:04Z</time>
      </trkpt>
      <trkpt lat="48.67576" lon="-2.32471">
        <ele>59.5</ele>
        <time>2021-07-27T17:13:06Z</time>
      </trkpt>
      <trkpt lat="48.67584" lon="-2.32461">
        <ele>59.5</ele>
        <time>2021-07-27T17:13:08Z</time>
      </trkpt>
      <trkpt lat="48.67587" lon="-2.32456">
        <ele>59.5</ele>
        <time>2021-07-27T17:13:09Z</time>
      </trkpt>
      <trkpt lat="48.6759" lon="-2.3245">
        <ele>59.5</ele>
        <time>2021-07-27T17:13:10Z</time>
      </trkpt>
      <trkpt lat="48.67596" lon="-2.3244">
        <ele>59.6</ele>
        <time>2021-07-27T17:13:12Z</time>
      </trkpt>
      <trkpt lat="48.67599" lon="-2.32434">
        <ele>59.6</ele>
        <time>2021-07-27T17:13:13Z</time>
      </trkpt>
      <trkpt lat="48.67602" lon="-2.3243">
        <ele>59.7</ele>
        <time>2021-07-27T17:13:14Z</time>
      </trkpt>
      <trkpt lat="48.67606" lon="-2.32426">
        <ele>59.7</ele>
        <time>2021-07-27T17:13:15Z</time>
      </trkpt>
      <trkpt lat="48.67612" lon="-2.32417">
        <ele>59.9</ele>
        <time>2021-07-27T17:13:17Z</time>
      </trkpt>
      <trkpt lat="48.67615" lon="-2.32413">
        <ele>60</ele>
        <time>2021-07-27T17:13:18Z</time>
      </trkpt>
      <trkpt lat="48.67618" lon="-2.32407">
        <ele>60.1</ele>
        <time>2021-07-27T17:13:19Z</time>
      </trkpt>
      <trkpt lat="48.67615" lon="-2.32398">
        <ele>60.2</ele>
        <time>2021-07-27T17:13:20Z</time>
      </trkpt>
      <trkpt lat="48.67613" lon="-2.32391">
        <ele>60.3</ele>
        <time>2021-07-27T17:13:21Z</time>
      </trkpt>
      <trkpt lat="48.67623" lon="-2.32386">
        <ele>60.6</ele>
        <time>2021-07-27T17:13:23Z</time>
      </trkpt>
      <trkpt lat="48.67631" lon="-2.32381">
        <ele>60.8</ele>
        <time>2021-07-27T17:13:24Z</time>
      </trkpt>
      <trkpt lat="48.67637" lon="-2.32376">
        <ele>60.9</ele>
        <time>2021-07-27T17:13:25Z</time>
      </trkpt>
      <trkpt lat="48.67641" lon="-2.32371">
        <ele>60.9</ele>
        <time>2021-07-27T17:13:27Z</time>
      </trkpt>
      <trkpt lat="48.67646" lon="-2.32367">
        <ele>61.1</ele>
        <time>2021-07-27T17:13:28Z</time>
      </trkpt>
      <trkpt lat="48.6765" lon="-2.32361">
        <ele>61.3</ele>
        <time>2021-07-27T17:13:29Z</time>
      </trkpt>
      <trkpt lat="48.67654" lon="-2.32356">
        <ele>61.5</ele>
        <time>2021-07-27T17:13:30Z</time>
      </trkpt>
      <trkpt lat="48.67659" lon="-2.3235">
        <ele>61.7</ele>
        <time>2021-07-27T17:13:32Z</time>
      </trkpt>
      <trkpt lat="48.67665" lon="-2.32341">
        <ele>61.9</ele>
        <time>2021-07-27T17:13:33Z</time>
      </trkpt>
      <trkpt lat="48.67669" lon="-2.32336">
        <ele>62.1</ele>
        <time>2021-07-27T17:13:35Z</time>
      </trkpt>
      <trkpt lat="48.67672" lon="-2.32332">
        <ele>62.2</ele>
        <time>2021-07-27T17:13:36Z</time>
      </trkpt>
      <trkpt lat="48.67675" lon="-2.32328">
        <ele>62.4</ele>
        <time>2021-07-27T17:13:37Z</time>
      </trkpt>
      <trkpt lat="48.67678" lon="-2.32322">
        <ele>62.5</ele>
        <time>2021-07-27T17:13:38Z</time>
      </trkpt>
      <trkpt lat="48.67684" lon="-2.32313">
        <ele>62.8</ele>
        <time>2021-07-27T17:13:40Z</time>
      </trkpt>
      <trkpt lat="48.67687" lon="-2.32309">
        <ele>63</ele>
        <time>2021-07-27T17:13:41Z</time>
      </trkpt>
      <trkpt lat="48.6769" lon="-2.32305">
        <ele>63.1</ele>
        <time>2021-07-27T17:13:42Z</time>
      </trkpt>
      <trkpt lat="48.67693" lon="-2.323">
        <ele>63.3</ele>
        <time>2021-07-27T17:13:43Z</time>
      </trkpt>
      <trkpt lat="48.67699" lon="-2.32292">
        <ele>63.6</ele>
        <time>2021-07-27T17:13:45Z</time>
      </trkpt>
      <trkpt lat="48.67702" lon="-2.32288">
        <ele>63.7</ele>
        <time>2021-07-27T17:13:46Z</time>
      </trkpt>
      <trkpt lat="48.67705" lon="-2.32284">
        <ele>63.9</ele>
        <time>2021-07-27T17:13:47Z</time>
      </trkpt>
      <trkpt lat="48.67711" lon="-2.32276">
        <ele>64.3</ele>
        <time>2021-07-27T17:13:49Z</time>
      </trkpt>
      <trkpt lat="48.67714" lon="-2.32272">
        <ele>64.4</ele>
        <time>2021-07-27T17:13:50Z</time>
      </trkpt>
      <trkpt lat="48.67719" lon="-2.32265">
        <ele>64.7</ele>
        <time>2021-07-27T17:13:51Z</time>
      </trkpt>
      <trkpt lat="48.67722" lon="-2.3226">
        <ele>64.9</ele>
        <time>2021-07-27T17:13:53Z</time>
      </trkpt>
      <trkpt lat="48.67727" lon="-2.32251">
        <ele>65.2</ele>
        <time>2021-07-27T17:13:55Z</time>
      </trkpt>
      <trkpt lat="48.67732" lon="-2.32243">
        <ele>65.5</ele>
        <time>2021-07-27T17:13:57Z</time>
      </trkpt>
      <trkpt lat="48.67736" lon="-2.32237">
        <ele>65.7</ele>
        <time>2021-07-27T17:13:58Z</time>
      </trkpt>
      <trkpt lat="48.67738" lon="-2.32234">
        <ele>65.8</ele>
        <time>2021-07-27T17:14:00Z</time>
      </trkpt>
      <trkpt lat="48.67741" lon="-2.32227">
        <ele>66</ele>
        <time>2021-07-27T17:14:02Z</time>
      </trkpt>
      <trkpt lat="48.67743" lon="-2.3222">
        <ele>66.2</ele>
        <time>2021-07-27T17:14:04Z</time>
      </trkpt>
      <trkpt lat="48.67746" lon="-2.32213">
        <ele>66.4</ele>
        <time>2021-07-27T17:14:05Z</time>
      </trkpt>
      <trkpt lat="48.67747" lon="-2.32209">
        <ele>66.5</ele>
        <time>2021-07-27T17:14:06Z</time>
      </trkpt>
      <trkpt lat="48.67749" lon="-2.32204">
        <ele>66.6</ele>
        <time>2021-07-27T17:14:08Z</time>
      </trkpt>
      <trkpt lat="48.67751" lon="-2.32199">
        <ele>66.7</ele>
        <time>2021-07-27T17:14:09Z</time>
      </trkpt>
      <trkpt lat="48.67752" lon="-2.32194">
        <ele>66.8</ele>
        <time>2021-07-27T17:14:10Z</time>
      </trkpt>
      <trkpt lat="48.67754" lon="-2.32188">
        <ele>66.9</ele>
        <time>2021-07-27T17:14:11Z</time>
      </trkpt>
      <trkpt lat="48.67757" lon="-2.32182">
        <ele>67.1</ele>
        <time>2021-07-27T17:14:13Z</time>
      </trkpt>
      <trkpt lat="48.67758" lon="-2.32177">
        <ele>67.1</ele>
        <time>2021-07-27T17:14:14Z</time>
      </trkpt>
      <trkpt lat="48.6776" lon="-2.32172">
        <ele>67.2</ele>
        <time>2021-07-27T17:14:15Z</time>
      </trkpt>
      <trkpt lat="48.67762" lon="-2.32167">
        <ele>67.3</ele>
        <time>2021-07-27T17:14:16Z</time>
      </trkpt>
      <trkpt lat="48.67765" lon="-2.32158">
        <ele>67.4</ele>
        <time>2021-07-27T17:14:17Z</time>
      </trkpt>
      <trkpt lat="48.67768" lon="-2.32152">
        <ele>67.4</ele>
        <time>2021-07-27T17:14:19Z</time>
      </trkpt>
      <trkpt lat="48.6777" lon="-2.32148">
        <ele>67.4</ele>
        <time>2021-07-27T17:14:20Z</time>
      </trkpt>
      <trkpt lat="48.67772" lon="-2.32143">
        <ele>67.5</ele>
        <time>2021-07-27T17:14:21Z</time>
      </trkpt>
      <trkpt lat="48.67773" lon="-2.32138">
        <ele>67.5</ele>
        <time>2021-07-27T17:14:22Z</time>
      </trkpt>
      <trkpt lat="48.67776" lon="-2.3213">
        <ele>67.5</ele>
        <time>2021-07-27T17:14:23Z</time>
      </trkpt>
      <trkpt lat="48.67779" lon="-2.32122">
        <ele>67.6</ele>
        <time>2021-07-27T17:14:25Z</time>
      </trkpt>
      <trkpt lat="48.67783" lon="-2.3211">
        <ele>67.5</ele>
        <time>2021-07-27T17:14:27Z</time>
      </trkpt>
      <trkpt lat="48.67785" lon="-2.32104">
        <ele>67.5</ele>
        <time>2021-07-27T17:14:28Z</time>
      </trkpt>
      <trkpt lat="48.67787" lon="-2.32098">
        <ele>67.5</ele>
        <time>2021-07-27T17:14:29Z</time>
      </trkpt>
      <trkpt lat="48.67788" lon="-2.32095">
        <ele>67.5</ele>
        <time>2021-07-27T17:14:30Z</time>
      </trkpt>
      <trkpt lat="48.67792" lon="-2.32085">
        <ele>67.5</ele>
        <time>2021-07-27T17:14:32Z</time>
      </trkpt>
      <trkpt lat="48.67795" lon="-2.32073">
        <ele>67.4</ele>
        <time>2021-07-27T17:14:33Z</time>
      </trkpt>
      <trkpt lat="48.67797" lon="-2.32062">
        <ele>67.3</ele>
        <time>2021-07-27T17:14:35Z</time>
      </trkpt>
      <trkpt lat="48.67799" lon="-2.32054">
        <ele>67.2</ele>
        <time>2021-07-27T17:14:36Z</time>
      </trkpt>
      <trkpt lat="48.67801" lon="-2.32047">
        <ele>67.2</ele>
        <time>2021-07-27T17:14:37Z</time>
      </trkpt>
      <trkpt lat="48.67803" lon="-2.32039">
        <ele>67.1</ele>
        <time>2021-07-27T17:14:38Z</time>
      </trkpt>
      <trkpt lat="48.67808" lon="-2.32025">
        <ele>67</ele>
        <time>2021-07-27T17:14:40Z</time>
      </trkpt>
      <trkpt lat="48.6781" lon="-2.32018">
        <ele>66.9</ele>
        <time>2021-07-27T17:14:41Z</time>
      </trkpt>
      <trkpt lat="48.67813" lon="-2.3201">
        <ele>66.8</ele>
        <time>2021-07-27T17:14:42Z</time>
      </trkpt>
      <trkpt lat="48.67815" lon="-2.32003">
        <ele>66.8</ele>
        <time>2021-07-27T17:14:43Z</time>
      </trkpt>
      <trkpt lat="48.6782" lon="-2.31987">
        <ele>66.8</ele>
        <time>2021-07-27T17:14:45Z</time>
      </trkpt>
      <trkpt lat="48.67822" lon="-2.3198">
        <ele>66.7</ele>
        <time>2021-07-27T17:14:46Z</time>
      </trkpt>
      <trkpt lat="48.67827" lon="-2.31967">
        <ele>66.7</ele>
        <time>2021-07-27T17:14:48Z</time>
      </trkpt>
      <trkpt lat="48.67829" lon="-2.31962">
        <ele>66.6</ele>
        <time>2021-07-27T17:14:49Z</time>
      </trkpt>
      <trkpt lat="48.67831" lon="-2.31956">
        <ele>66.6</ele>
        <time>2021-07-27T17:14:50Z</time>
      </trkpt>
      <trkpt lat="48.67836" lon="-2.31943">
        <ele>66.5</ele>
        <time>2021-07-27T17:14:52Z</time>
      </trkpt>
      <trkpt lat="48.67839" lon="-2.31933">
        <ele>66.5</ele>
        <time>2021-07-27T17:14:54Z</time>
      </trkpt>
      <trkpt lat="48.67842" lon="-2.31925">
        <ele>66.4</ele>
        <time>2021-07-27T17:14:55Z</time>
      </trkpt>
      <trkpt lat="48.67844" lon="-2.31919">
        <ele>66.4</ele>
        <time>2021-07-27T17:14:56Z</time>
      </trkpt>
      <trkpt lat="48.67846" lon="-2.31914">
        <ele>66.3</ele>
        <time>2021-07-27T17:14:57Z</time>
      </trkpt>
      <trkpt lat="48.67848" lon="-2.31907">
        <ele>66.2</ele>
        <time>2021-07-27T17:14:58Z</time>
      </trkpt>
      <trkpt lat="48.67852" lon="-2.31893">
        <ele>66.1</ele>
        <time>2021-07-27T17:15:00Z</time>
      </trkpt>
      <trkpt lat="48.67854" lon="-2.31887">
        <ele>66</ele>
        <time>2021-07-27T17:15:01Z</time>
      </trkpt>
      <trkpt lat="48.67857" lon="-2.31879">
        <ele>65.9</ele>
        <time>2021-07-27T17:15:02Z</time>
      </trkpt>
      <trkpt lat="48.67862" lon="-2.31865">
        <ele>65.8</ele>
        <time>2021-07-27T17:15:04Z</time>
      </trkpt>
      <trkpt lat="48.67868" lon="-2.3185">
        <ele>65.7</ele>
        <time>2021-07-27T17:15:06Z</time>
      </trkpt>
      <trkpt lat="48.67875" lon="-2.31834">
        <ele>65.6</ele>
        <time>2021-07-27T17:15:08Z</time>
      </trkpt>
      <trkpt lat="48.67879" lon="-2.31826">
        <ele>65.5</ele>
        <time>2021-07-27T17:15:09Z</time>
      </trkpt>
      <trkpt lat="48.67888" lon="-2.31814">
        <ele>65.4</ele>
        <time>2021-07-27T17:15:11Z</time>
      </trkpt>
      <trkpt lat="48.67898" lon="-2.31807">
        <ele>65.3</ele>
        <time>2021-07-27T17:15:13Z</time>
      </trkpt>
      <trkpt lat="48.67907" lon="-2.31801">
        <ele>65.3</ele>
        <time>2021-07-27T17:15:15Z</time>
      </trkpt>
      <trkpt lat="48.67917" lon="-2.31798">
        <ele>65.3</ele>
        <time>2021-07-27T17:15:17Z</time>
      </trkpt>
      <trkpt lat="48.67922" lon="-2.31797">
        <ele>65.3</ele>
        <time>2021-07-27T17:15:18Z</time>
      </trkpt>
      <trkpt lat="48.67931" lon="-2.31795">
        <ele>65.3</ele>
        <time>2021-07-27T17:15:20Z</time>
      </trkpt>
      <trkpt lat="48.67936" lon="-2.31794">
        <ele>65.3</ele>
        <time>2021-07-27T17:15:21Z</time>
      </trkpt>
      <trkpt lat="48.67948" lon="-2.31796">
        <ele>65.3</ele>
        <time>2021-07-27T17:15:23Z</time>
      </trkpt>
      <trkpt lat="48.67959" lon="-2.31797">
        <ele>65.3</ele>
        <time>2021-07-27T17:15:25Z</time>
      </trkpt>
      <trkpt lat="48.67969" lon="-2.31798">
        <ele>65.3</ele>
        <time>2021-07-27T17:15:27Z</time>
      </trkpt>
      <trkpt lat="48.67974" lon="-2.31798">
        <ele>65.3</ele>
        <time>2021-07-27T17:15:28Z</time>
      </trkpt>
      <trkpt lat="48.6798" lon="-2.31797">
        <ele>65.3</ele>
        <time>2021-07-27T17:15:29Z</time>
      </trkpt>
      <trkpt lat="48.67991" lon="-2.31798">
        <ele>65.3</ele>
        <time>2021-07-27T17:15:31Z</time>
      </trkpt>
      <trkpt lat="48.68002" lon="-2.31798">
        <ele>65.3</ele>
        <time>2021-07-27T17:15:33Z</time>
      </trkpt>
      <trkpt lat="48.68007" lon="-2.31798">
        <ele>65.3</ele>
        <time>2021-07-27T17:15:34Z</time>
      </trkpt>
      <trkpt lat="48.68018" lon="-2.31799">
        <ele>65.3</ele>
        <time>2021-07-27T17:15:36Z</time>
      </trkpt>
      <trkpt lat="48.68029" lon="-2.31799">
        <ele>65.3</ele>
        <time>2021-07-27T17:15:38Z</time>
      </trkpt>
      <trkpt lat="48.68041" lon="-2.31799">
        <ele>65.3</ele>
        <time>2021-07-27T17:15:40Z</time>
      </trkpt>
      <trkpt lat="48.68051" lon="-2.31799">
        <ele>65.4</ele>
        <time>2021-07-27T17:15:42Z</time>
      </trkpt>
      <trkpt lat="48.68057" lon="-2.31799">
        <ele>65.5</ele>
        <time>2021-07-27T17:15:43Z</time>
      </trkpt>
      <trkpt lat="48.68062" lon="-2.31799">
        <ele>65.5</ele>
        <time>2021-07-27T17:15:44Z</time>
      </trkpt>
      <trkpt lat="48.68072" lon="-2.31797">
        <ele>65.7</ele>
        <time>2021-07-27T17:15:46Z</time>
      </trkpt>
      <trkpt lat="48.68077" lon="-2.31796">
        <ele>65.8</ele>
        <time>2021-07-27T17:15:47Z</time>
      </trkpt>
      <trkpt lat="48.68082" lon="-2.31794">
        <ele>65.9</ele>
        <time>2021-07-27T17:15:48Z</time>
      </trkpt>
      <trkpt lat="48.68089" lon="-2.31788">
        <ele>66.1</ele>
        <time>2021-07-27T17:15:50Z</time>
      </trkpt>
      <trkpt lat="48.68097" lon="-2.31781">
        <ele>66.5</ele>
        <time>2021-07-27T17:15:52Z</time>
      </trkpt>
      <trkpt lat="48.68101" lon="-2.31779">
        <ele>66.5</ele>
        <time>2021-07-27T17:15:53Z</time>
      </trkpt>
      <trkpt lat="48.68107" lon="-2.31774">
        <ele>66.5</ele>
        <time>2021-07-27T17:15:55Z</time>
      </trkpt>
      <trkpt lat="48.68111" lon="-2.31773">
        <ele>66.5</ele>
        <time>2021-07-27T17:15:56Z</time>
      </trkpt>
      <trkpt lat="48.68121" lon="-2.31774">
        <ele>66.6</ele>
        <time>2021-07-27T17:15:58Z</time>
      </trkpt>
      <trkpt lat="48.68126" lon="-2.31775">
        <ele>66.6</ele>
        <time>2021-07-27T17:15:59Z</time>
      </trkpt>
      <trkpt lat="48.68136" lon="-2.31779">
        <ele>66.7</ele>
        <time>2021-07-27T17:16:01Z</time>
      </trkpt>
      <trkpt lat="48.68147" lon="-2.31781">
        <ele>66.8</ele>
        <time>2021-07-27T17:16:03Z</time>
      </trkpt>
      <trkpt lat="48.68153" lon="-2.31781">
        <ele>66.8</ele>
        <time>2021-07-27T17:16:04Z</time>
      </trkpt>
      <trkpt lat="48.68163" lon="-2.31782">
        <ele>66.9</ele>
        <time>2021-07-27T17:16:06Z</time>
      </trkpt>
      <trkpt lat="48.68169" lon="-2.31784">
        <ele>66.9</ele>
        <time>2021-07-27T17:16:07Z</time>
      </trkpt>
      <trkpt lat="48.68174" lon="-2.31785">
        <ele>66.9</ele>
        <time>2021-07-27T17:16:08Z</time>
      </trkpt>
      <trkpt lat="48.68179" lon="-2.31786">
        <ele>66.9</ele>
        <time>2021-07-27T17:16:09Z</time>
      </trkpt>
      <trkpt lat="48.68189" lon="-2.31792">
        <ele>66.9</ele>
        <time>2021-07-27T17:16:11Z</time>
      </trkpt>
      <trkpt lat="48.68198" lon="-2.31797">
        <ele>66.9</ele>
        <time>2021-07-27T17:16:13Z</time>
      </trkpt>
      <trkpt lat="48.68208" lon="-2.318">
        <ele>66.9</ele>
        <time>2021-07-27T17:16:15Z</time>
      </trkpt>
      <trkpt lat="48.68217" lon="-2.31804">
        <ele>66.9</ele>
        <time>2021-07-27T17:16:17Z</time>
      </trkpt>
      <trkpt lat="48.68221" lon="-2.31805">
        <ele>66.9</ele>
        <time>2021-07-27T17:16:18Z</time>
      </trkpt>
      <trkpt lat="48.68227" lon="-2.31805">
        <ele>66.9</ele>
        <time>2021-07-27T17:16:20Z</time>
      </trkpt>
      <trkpt lat="48.68229" lon="-2.318">
        <ele>66.9</ele>
        <time>2021-07-27T17:16:21Z</time>
      </trkpt>
      <trkpt lat="48.68228" lon="-2.31801">
        <ele>66.9</ele>
        <time>2021-07-27T17:16:22Z</time>
      </trkpt>
      <trkpt lat="48.68225" lon="-2.31807">
        <ele>66.9</ele>
        <time>2021-07-27T17:16:24Z</time>
      </trkpt>
      <trkpt lat="48.68228" lon="-2.31787">
        <ele>66.9</ele>
        <time>2021-07-27T17:16:25Z</time>
      </trkpt>
      <trkpt lat="48.68229" lon="-2.31777">
        <ele>66.8</ele>
        <time>2021-07-27T17:16:26Z</time>
      </trkpt>
      <trkpt lat="48.68229" lon="-2.31769">
        <ele>66.7</ele>
        <time>2021-07-27T17:16:27Z</time>
      </trkpt>
      <trkpt lat="48.6823" lon="-2.31762">
        <ele>66.5</ele>
        <time>2021-07-27T17:16:29Z</time>
      </trkpt>
      <trkpt lat="48.6823" lon="-2.31756">
        <ele>66.4</ele>
        <time>2021-07-27T17:16:30Z</time>
      </trkpt>
      <trkpt lat="48.6823" lon="-2.31751">
        <ele>66.4</ele>
        <time>2021-07-27T17:16:31Z</time>
      </trkpt>
      <trkpt lat="48.68228" lon="-2.31746">
        <ele>66.4</ele>
        <time>2021-07-27T17:16:32Z</time>
      </trkpt>
      <trkpt lat="48.68227" lon="-2.31745">
        <ele>66.4</ele>
        <time>2021-07-27T17:16:33Z</time>
      </trkpt>
      <trkpt lat="48.68224" lon="-2.31743">
        <ele>66.4</ele>
        <time>2021-07-27T17:16:35Z</time>
      </trkpt>
      <trkpt lat="48.68221" lon="-2.31741">
        <ele>66.3</ele>
        <time>2021-07-27T17:16:36Z</time>
      </trkpt>
      <trkpt lat="48.68218" lon="-2.31738">
        <ele>66.3</ele>
        <time>2021-07-27T17:16:37Z</time>
      </trkpt>
      <trkpt lat="48.68215" lon="-2.31735">
        <ele>66.3</ele>
        <time>2021-07-27T17:16:39Z</time>
      </trkpt>
      <trkpt lat="48.68208" lon="-2.31735">
        <ele>66.2</ele>
        <time>2021-07-27T17:16:41Z</time>
      </trkpt>
      <trkpt lat="48.68204" lon="-2.31735">
        <ele>66.2</ele>
        <time>2021-07-27T17:16:42Z</time>
      </trkpt>
      <trkpt lat="48.68199" lon="-2.31735">
        <ele>66.1</ele>
        <time>2021-07-27T17:16:44Z</time>
      </trkpt>
      <trkpt lat="48.68196" lon="-2.31732">
        <ele>66.1</ele>
        <time>2021-07-27T17:16:45Z</time>
      </trkpt>
      <trkpt lat="48.68191" lon="-2.31728">
        <ele>66.1</ele>
        <time>2021-07-27T17:16:46Z</time>
      </trkpt>
      <trkpt lat="48.68186" lon="-2.31725">
        <ele>66.1</ele>
        <time>2021-07-27T17:16:47Z</time>
      </trkpt>
      <trkpt lat="48.68182" lon="-2.31722">
        <ele>66.1</ele>
        <time>2021-07-27T17:16:49Z</time>
      </trkpt>
      <trkpt lat="48.68175" lon="-2.31718">
        <ele>66.1</ele>
        <time>2021-07-27T17:16:51Z</time>
      </trkpt>
      <trkpt lat="48.68144" lon="-2.31709">
        <ele>66.2</ele>
        <time>2021-07-27T17:16:59Z</time>
      </trkpt>
      <trkpt lat="48.6814" lon="-2.3171">
        <ele>66.3</ele>
        <time>2021-07-27T17:17:01Z</time>
      </trkpt>
      <trkpt lat="48.68137" lon="-2.31709">
        <ele>66.3</ele>
        <time>2021-07-27T17:17:02Z</time>
      </trkpt>
      <trkpt lat="48.6813" lon="-2.31709">
        <ele>66.4</ele>
        <time>2021-07-27T17:17:04Z</time>
      </trkpt>
      <trkpt lat="48.68126" lon="-2.3171">
        <ele>66.4</ele>
        <time>2021-07-27T17:17:05Z</time>
      </trkpt>
      <trkpt lat="48.68119" lon="-2.31716">
        <ele>66.4</ele>
        <time>2021-07-27T17:17:07Z</time>
      </trkpt>
      <trkpt lat="48.68116" lon="-2.31717">
        <ele>66.4</ele>
        <time>2021-07-27T17:17:08Z</time>
      </trkpt>
      <trkpt lat="48.68116" lon="-2.3172">
        <ele>66.4</ele>
        <time>2021-07-27T17:17:09Z</time>
      </trkpt>
      <trkpt lat="48.68115" lon="-2.31731">
        <ele>66.4</ele>
        <time>2021-07-27T17:17:10Z</time>
      </trkpt>
      <trkpt lat="48.68115" lon="-2.31742">
        <ele>66.5</ele>
        <time>2021-07-27T17:17:12Z</time>
      </trkpt>
      <trkpt lat="48.68113" lon="-2.3175">
        <ele>66.5</ele>
        <time>2021-07-27T17:17:13Z</time>
      </trkpt>
      <trkpt lat="48.68111" lon="-2.31757">
        <ele>66.5</ele>
        <time>2021-07-27T17:17:14Z</time>
      </trkpt>
      <trkpt lat="48.68109" lon="-2.31769">
        <ele>66.5</ele>
        <time>2021-07-27T17:17:16Z</time>
      </trkpt>
      <trkpt lat="48.68108" lon="-2.3178">
        <ele>66.5</ele>
        <time>2021-07-27T17:17:17Z</time>
      </trkpt>
      <trkpt lat="48.68107" lon="-2.31788">
        <ele>66.5</ele>
        <time>2021-07-27T17:17:19Z</time>
      </trkpt>
      <trkpt lat="48.68107" lon="-2.31794">
        <ele>66.5</ele>
        <time>2021-07-27T17:17:20Z</time>
      </trkpt>
      <trkpt lat="48.68113" lon="-2.31802">
        <ele>66.6</ele>
        <time>2021-07-27T17:17:21Z</time>
      </trkpt>
      <trkpt lat="48.68117" lon="-2.31802">
        <ele>66.6</ele>
        <time>2021-07-27T17:17:23Z</time>
      </trkpt>
      <trkpt lat="48.68125" lon="-2.31799">
        <ele>66.6</ele>
        <time>2021-07-27T17:17:24Z</time>
      </trkpt>
      <trkpt lat="48.68132" lon="-2.31798">
        <ele>66.6</ele>
        <time>2021-07-27T17:17:26Z</time>
      </trkpt>
      <trkpt lat="48.68137" lon="-2.31799">
        <ele>66.7</ele>
        <time>2021-07-27T17:17:27Z</time>
      </trkpt>
      <trkpt lat="48.68147" lon="-2.31799">
        <ele>66.8</ele>
        <time>2021-07-27T17:17:29Z</time>
      </trkpt>
      <trkpt lat="48.68152" lon="-2.318">
        <ele>66.8</ele>
        <time>2021-07-27T17:17:30Z</time>
      </trkpt>
      <trkpt lat="48.68157" lon="-2.318">
        <ele>66.9</ele>
        <time>2021-07-27T17:17:31Z</time>
      </trkpt>
      <trkpt lat="48.68162" lon="-2.31801">
        <ele>67</ele>
        <time>2021-07-27T17:17:32Z</time>
      </trkpt>
      <trkpt lat="48.68167" lon="-2.31802">
        <ele>67.1</ele>
        <time>2021-07-27T17:17:33Z</time>
      </trkpt>
      <trkpt lat="48.68176" lon="-2.31804">
        <ele>67.3</ele>
        <time>2021-07-27T17:17:35Z</time>
      </trkpt>
      <trkpt lat="48.68186" lon="-2.31807">
        <ele>67.5</ele>
        <time>2021-07-27T17:17:37Z</time>
      </trkpt>
      <trkpt lat="48.6819" lon="-2.31809">
        <ele>67.5</ele>
        <time>2021-07-27T17:17:38Z</time>
      </trkpt>
      <trkpt lat="48.68195" lon="-2.31811">
        <ele>67.6</ele>
        <time>2021-07-27T17:17:39Z</time>
      </trkpt>
      <trkpt lat="48.68205" lon="-2.31817">
        <ele>67.9</ele>
        <time>2021-07-27T17:17:41Z</time>
      </trkpt>
      <trkpt lat="48.6821" lon="-2.3182">
        <ele>68</ele>
        <time>2021-07-27T17:17:42Z</time>
      </trkpt>
      <trkpt lat="48.68218" lon="-2.31826">
        <ele>68.1</ele>
        <time>2021-07-27T17:17:44Z</time>
      </trkpt>
      <trkpt lat="48.68227" lon="-2.31832">
        <ele>68.3</ele>
        <time>2021-07-27T17:17:46Z</time>
      </trkpt>
      <trkpt lat="48.68231" lon="-2.31835">
        <ele>68.4</ele>
        <time>2021-07-27T17:17:47Z</time>
      </trkpt>
      <trkpt lat="48.68235" lon="-2.31838">
        <ele>68.4</ele>
        <time>2021-07-27T17:17:48Z</time>
      </trkpt>
      <trkpt lat="48.68243" lon="-2.31843">
        <ele>68.5</ele>
        <time>2021-07-27T17:17:50Z</time>
      </trkpt>
      <trkpt lat="48.68252" lon="-2.31848">
        <ele>68.6</ele>
        <time>2021-07-27T17:17:52Z</time>
      </trkpt>
      <trkpt lat="48.6826" lon="-2.31852">
        <ele>68.6</ele>
        <time>2021-07-27T17:17:54Z</time>
      </trkpt>
      <trkpt lat="48.68269" lon="-2.31856">
        <ele>68.7</ele>
        <time>2021-07-27T17:17:56Z</time>
      </trkpt>
      <trkpt lat="48.68275" lon="-2.31857">
        <ele>68.7</ele>
        <time>2021-07-27T17:17:58Z</time>
      </trkpt>
      <trkpt lat="48.68279" lon="-2.31859">
        <ele>68.7</ele>
        <time>2021-07-27T17:18:00Z</time>
      </trkpt>
      <trkpt lat="48.68279" lon="-2.3186">
        <ele>68.7</ele>
        <time>2021-07-27T17:18:01Z</time>
      </trkpt>
      <trkpt lat="48.68279" lon="-2.3186">
        <ele>68.7</ele>
        <time>2021-07-27T17:18:03Z</time>
      </trkpt>
      <trkpt lat="48.6828" lon="-2.31859">
        <ele>68.7</ele>
        <time>2021-07-27T17:18:04Z</time>
      </trkpt>
      <trkpt lat="48.68281" lon="-2.31859">
        <ele>68.7</ele>
        <time>2021-07-27T17:18:05Z</time>
      </trkpt>
      <trkpt lat="48.68281" lon="-2.31859">
        <ele>68.7</ele>
        <time>2021-07-27T17:18:07Z</time>
      </trkpt>
      <trkpt lat="48.68281" lon="-2.31859">
        <ele>68.7</ele>
        <time>2021-07-27T17:18:08Z</time>
      </trkpt>
      <trkpt lat="48.68281" lon="-2.3186">
        <ele>68.7</ele>
        <time>2021-07-27T17:18:09Z</time>
      </trkpt>
      <trkpt lat="48.68281" lon="-2.3186">
        <ele>68.7</ele>
        <time>2021-07-27T17:18:10Z</time>
      </trkpt>
      <trkpt lat="48.68282" lon="-2.3186">
        <ele>68.7</ele>
        <time>2021-07-27T17:18:12Z</time>
      </trkpt>
      <trkpt lat="48.68285" lon="-2.31861">
        <ele>68.7</ele>
        <time>2021-07-27T17:18:16Z</time>
      </trkpt>
      <trkpt lat="48.68289" lon="-2.31859">
        <ele>68.7</ele>
        <time>2021-07-27T17:18:18Z</time>
      </trkpt>
      <trkpt lat="48.6829" lon="-2.31858">
        <ele>68.8</ele>
        <time>2021-07-27T17:18:19Z</time>
      </trkpt>
      <trkpt lat="48.68292" lon="-2.31859">
        <ele>68.8</ele>
        <time>2021-07-27T17:18:20Z</time>
      </trkpt>
      <trkpt lat="48.68294" lon="-2.31861">
        <ele>68.8</ele>
        <time>2021-07-27T17:18:21Z</time>
      </trkpt>
      <trkpt lat="48.68298" lon="-2.31861">
        <ele>68.8</ele>
        <time>2021-07-27T17:18:23Z</time>
      </trkpt>
      <trkpt lat="48.68302" lon="-2.31861">
        <ele>68.8</ele>
        <time>2021-07-27T17:18:24Z</time>
      </trkpt>
      <trkpt lat="48.68306" lon="-2.31863">
        <ele>68.8</ele>
        <time>2021-07-27T17:18:25Z</time>
      </trkpt>
      <trkpt lat="48.68309" lon="-2.31865">
        <ele>68.9</ele>
        <time>2021-07-27T17:18:26Z</time>
      </trkpt>
      <trkpt lat="48.68312" lon="-2.31866">
        <ele>68.9</ele>
        <time>2021-07-27T17:18:27Z</time>
      </trkpt>
      <trkpt lat="48.68316" lon="-2.31866">
        <ele>68.9</ele>
        <time>2021-07-27T17:18:28Z</time>
      </trkpt>
      <trkpt lat="48.68319" lon="-2.31866">
        <ele>68.9</ele>
        <time>2021-07-27T17:18:30Z</time>
      </trkpt>
      <trkpt lat="48.68322" lon="-2.31866">
        <ele>69</ele>
        <time>2021-07-27T17:18:31Z</time>
      </trkpt>
      <trkpt lat="48.68324" lon="-2.31866">
        <ele>69</ele>
        <time>2021-07-27T17:18:32Z</time>
      </trkpt>
      <trkpt lat="48.68328" lon="-2.31866">
        <ele>69</ele>
        <time>2021-07-27T17:18:33Z</time>
      </trkpt>
      <trkpt lat="48.6833" lon="-2.31866">
        <ele>69</ele>
        <time>2021-07-27T17:18:34Z</time>
      </trkpt>
      <trkpt lat="48.68332" lon="-2.31866">
        <ele>69</ele>
        <time>2021-07-27T17:18:36Z</time>
      </trkpt>
      <trkpt lat="48.68332" lon="-2.31867">
        <ele>69</ele>
        <time>2021-07-27T17:18:38Z</time>
      </trkpt>
      <trkpt lat="48.68332" lon="-2.31866">
        <ele>69</ele>
        <time>2021-07-27T17:18:39Z</time>
      </trkpt>
      <trkpt lat="48.68332" lon="-2.31866">
        <ele>69</ele>
        <time>2021-07-27T17:18:40Z</time>
      </trkpt>
      <trkpt lat="48.68331" lon="-2.31866">
        <ele>69</ele>
        <time>2021-07-27T17:18:42Z</time>
      </trkpt>
      <trkpt lat="48.68331" lon="-2.31866">
        <ele>69</ele>
        <time>2021-07-27T17:18:43Z</time>
      </trkpt>
      <trkpt lat="48.68331" lon="-2.31866">
        <ele>69</ele>
        <time>2021-07-27T17:18:45Z</time>
      </trkpt>
      <trkpt lat="48.68331" lon="-2.31866">
        <ele>69</ele>
        <time>2021-07-27T17:18:46Z</time>
      </trkpt>
      <trkpt lat="48.68332" lon="-2.31867">
        <ele>69</ele>
        <time>2021-07-27T17:19:30Z</time>
      </trkpt>
      <trkpt lat="48.68334" lon="-2.31866">
        <ele>69</ele>
        <time>2021-07-27T17:19:31Z</time>
      </trkpt>
      <trkpt lat="48.68334" lon="-2.31864">
        <ele>68.9</ele>
        <time>2021-07-27T17:19:32Z</time>
      </trkpt>
      <trkpt lat="48.68331" lon="-2.31866">
        <ele>68.9</ele>
        <time>2021-07-27T17:19:34Z</time>
      </trkpt>
      <trkpt lat="48.68326" lon="-2.31867">
        <ele>68.9</ele>
        <time>2021-07-27T17:19:35Z</time>
      </trkpt>
      <trkpt lat="48.68321" lon="-2.31867">
        <ele>68.9</ele>
        <time>2021-07-27T17:19:37Z</time>
      </trkpt>
      <trkpt lat="48.68316" lon="-2.31866">
        <ele>68.8</ele>
        <time>2021-07-27T17:19:38Z</time>
      </trkpt>
      <trkpt lat="48.68308" lon="-2.31864">
        <ele>68.8</ele>
        <time>2021-07-27T17:19:39Z</time>
      </trkpt>
      <trkpt lat="48.68302" lon="-2.31862">
        <ele>68.8</ele>
        <time>2021-07-27T17:19:40Z</time>
      </trkpt>
      <trkpt lat="48.68297" lon="-2.31861">
        <ele>68.7</ele>
        <time>2021-07-27T17:19:42Z</time>
      </trkpt>
      <trkpt lat="48.68292" lon="-2.31861">
        <ele>68.7</ele>
        <time>2021-07-27T17:19:43Z</time>
      </trkpt>
      <trkpt lat="48.68286" lon="-2.3186">
        <ele>68.7</ele>
        <time>2021-07-27T17:19:44Z</time>
      </trkpt>
      <trkpt lat="48.68279" lon="-2.31857">
        <ele>68.7</ele>
        <time>2021-07-27T17:19:46Z</time>
      </trkpt>
      <trkpt lat="48.68274" lon="-2.31856">
        <ele>68.6</ele>
        <time>2021-07-27T17:19:47Z</time>
      </trkpt>
      <trkpt lat="48.68271" lon="-2.31854">
        <ele>68.6</ele>
        <time>2021-07-27T17:19:48Z</time>
      </trkpt>
      <trkpt lat="48.68265" lon="-2.31852">
        <ele>68.6</ele>
        <time>2021-07-27T17:19:49Z</time>
      </trkpt>
      <trkpt lat="48.6826" lon="-2.3185">
        <ele>68.6</ele>
        <time>2021-07-27T17:19:50Z</time>
      </trkpt>
      <trkpt lat="48.68254" lon="-2.31846">
        <ele>68.5</ele>
        <time>2021-07-27T17:19:52Z</time>
      </trkpt>
      <trkpt lat="48.68249" lon="-2.31845">
        <ele>68.5</ele>
        <time>2021-07-27T17:19:53Z</time>
      </trkpt>
      <trkpt lat="48.68241" lon="-2.3184">
        <ele>68.4</ele>
        <time>2021-07-27T17:19:55Z</time>
      </trkpt>
      <trkpt lat="48.68237" lon="-2.31838">
        <ele>68.4</ele>
        <time>2021-07-27T17:19:56Z</time>
      </trkpt>
      <trkpt lat="48.68228" lon="-2.31832">
        <ele>68.2</ele>
        <time>2021-07-27T17:19:58Z</time>
      </trkpt>
      <trkpt lat="48.68223" lon="-2.31829">
        <ele>68.1</ele>
        <time>2021-07-27T17:19:59Z</time>
      </trkpt>
      <trkpt lat="48.68215" lon="-2.31823">
        <ele>68</ele>
        <time>2021-07-27T17:20:01Z</time>
      </trkpt>
      <trkpt lat="48.6821" lon="-2.31819">
        <ele>67.9</ele>
        <time>2021-07-27T17:20:02Z</time>
      </trkpt>
      <trkpt lat="48.68201" lon="-2.31815">
        <ele>67.7</ele>
        <time>2021-07-27T17:20:04Z</time>
      </trkpt>
      <trkpt lat="48.68196" lon="-2.31813">
        <ele>67.6</ele>
        <time>2021-07-27T17:20:05Z</time>
      </trkpt>
      <trkpt lat="48.68185" lon="-2.31809">
        <ele>67.4</ele>
        <time>2021-07-27T17:20:07Z</time>
      </trkpt>
      <trkpt lat="48.68173" lon="-2.31805">
        <ele>67.1</ele>
        <time>2021-07-27T17:20:09Z</time>
      </trkpt>
      <trkpt lat="48.68168" lon="-2.31803">
        <ele>67</ele>
        <time>2021-07-27T17:20:10Z</time>
      </trkpt>
      <trkpt lat="48.68163" lon="-2.31801">
        <ele>67</ele>
        <time>2021-07-27T17:20:11Z</time>
      </trkpt>
      <trkpt lat="48.68157" lon="-2.31799">
        <ele>66.9</ele>
        <time>2021-07-27T17:20:12Z</time>
      </trkpt>
      <trkpt lat="48.68146" lon="-2.31797">
        <ele>66.7</ele>
        <time>2021-07-27T17:20:14Z</time>
      </trkpt>
      <trkpt lat="48.6814" lon="-2.31797">
        <ele>66.7</ele>
        <time>2021-07-27T17:20:15Z</time>
      </trkpt>
      <trkpt lat="48.68128" lon="-2.31795">
        <ele>66.6</ele>
        <time>2021-07-27T17:20:17Z</time>
      </trkpt>
      <trkpt lat="48.68116" lon="-2.31794">
        <ele>66.6</ele>
        <time>2021-07-27T17:20:19Z</time>
      </trkpt>
      <trkpt lat="48.68107" lon="-2.31791">
        <ele>66.6</ele>
        <time>2021-07-27T17:20:21Z</time>
      </trkpt>
      <trkpt lat="48.68106" lon="-2.31786">
        <ele>66.5</ele>
        <time>2021-07-27T17:20:22Z</time>
      </trkpt>
      <trkpt lat="48.68106" lon="-2.31784">
        <ele>66.5</ele>
        <time>2021-07-27T17:20:23Z</time>
      </trkpt>
      <trkpt lat="48.68107" lon="-2.31776">
        <ele>66.5</ele>
        <time>2021-07-27T17:20:25Z</time>
      </trkpt>
      <trkpt lat="48.68105" lon="-2.31776">
        <ele>66.5</ele>
        <time>2021-07-27T17:20:26Z</time>
      </trkpt>
      <trkpt lat="48.68096" lon="-2.31783">
        <ele>66.2</ele>
        <time>2021-07-27T17:20:28Z</time>
      </trkpt>
      <trkpt lat="48.68092" lon="-2.31787">
        <ele>66.1</ele>
        <time>2021-07-27T17:20:29Z</time>
      </trkpt>
      <trkpt lat="48.68082" lon="-2.31792">
        <ele>65.9</ele>
        <time>2021-07-27T17:20:31Z</time>
      </trkpt>
      <trkpt lat="48.68077" lon="-2.31793">
        <ele>65.8</ele>
        <time>2021-07-27T17:20:32Z</time>
      </trkpt>
      <trkpt lat="48.68066" lon="-2.31793">
        <ele>65.6</ele>
        <time>2021-07-27T17:20:34Z</time>
      </trkpt>
      <trkpt lat="48.6806" lon="-2.31793">
        <ele>65.5</ele>
        <time>2021-07-27T17:20:35Z</time>
      </trkpt>
      <trkpt lat="48.68047" lon="-2.31793">
        <ele>65.4</ele>
        <time>2021-07-27T17:20:37Z</time>
      </trkpt>
      <trkpt lat="48.68041" lon="-2.31794">
        <ele>65.3</ele>
        <time>2021-07-27T17:20:38Z</time>
      </trkpt>
      <trkpt lat="48.68034" lon="-2.31794">
        <ele>65.3</ele>
        <time>2021-07-27T17:20:39Z</time>
      </trkpt>
      <trkpt lat="48.68028" lon="-2.31794">
        <ele>65.3</ele>
        <time>2021-07-27T17:20:40Z</time>
      </trkpt>
      <trkpt lat="48.68014" lon="-2.31795">
        <ele>65.3</ele>
        <time>2021-07-27T17:20:42Z</time>
      </trkpt>
      <trkpt lat="48.68007" lon="-2.31795">
        <ele>65.3</ele>
        <time>2021-07-27T17:20:43Z</time>
      </trkpt>
      <trkpt lat="48.67994" lon="-2.31794">
        <ele>65.3</ele>
        <time>2021-07-27T17:20:45Z</time>
      </trkpt>
      <trkpt lat="48.67984" lon="-2.31792">
        <ele>65.3</ele>
        <time>2021-07-27T17:20:47Z</time>
      </trkpt>
      <trkpt lat="48.67975" lon="-2.31792">
        <ele>65.3</ele>
        <time>2021-07-27T17:20:48Z</time>
      </trkpt>
      <trkpt lat="48.67969" lon="-2.31792">
        <ele>65.3</ele>
        <time>2021-07-27T17:20:49Z</time>
      </trkpt>
      <trkpt lat="48.67962" lon="-2.31791">
        <ele>65.3</ele>
        <time>2021-07-27T17:20:50Z</time>
      </trkpt>
      <trkpt lat="48.67956" lon="-2.3179">
        <ele>65.3</ele>
        <time>2021-07-27T17:20:51Z</time>
      </trkpt>
      <trkpt lat="48.67943" lon="-2.31789">
        <ele>65.3</ele>
        <time>2021-07-27T17:20:53Z</time>
      </trkpt>
      <trkpt lat="48.6793" lon="-2.31788">
        <ele>65.3</ele>
        <time>2021-07-27T17:20:55Z</time>
      </trkpt>
      <trkpt lat="48.67917" lon="-2.31787">
        <ele>65.3</ele>
        <time>2021-07-27T17:20:57Z</time>
      </trkpt>
      <trkpt lat="48.67905" lon="-2.31787">
        <ele>65.3</ele>
        <time>2021-07-27T17:20:59Z</time>
      </trkpt>
      <trkpt lat="48.67899" lon="-2.31788">
        <ele>65.3</ele>
        <time>2021-07-27T17:21:00Z</time>
      </trkpt>
      <trkpt lat="48.67894" lon="-2.31789">
        <ele>65.3</ele>
        <time>2021-07-27T17:21:01Z</time>
      </trkpt>
      <trkpt lat="48.67883" lon="-2.31792">
        <ele>65.3</ele>
        <time>2021-07-27T17:21:03Z</time>
      </trkpt>
      <trkpt lat="48.67874" lon="-2.31796">
        <ele>65.4</ele>
        <time>2021-07-27T17:21:05Z</time>
      </trkpt>
      <trkpt lat="48.67864" lon="-2.31798">
        <ele>65.5</ele>
        <time>2021-07-27T17:21:07Z</time>
      </trkpt>
      <trkpt lat="48.67859" lon="-2.31798">
        <ele>65.5</ele>
        <time>2021-07-27T17:21:08Z</time>
      </trkpt>
      <trkpt lat="48.67848" lon="-2.31798">
        <ele>65.5</ele>
        <time>2021-07-27T17:21:10Z</time>
      </trkpt>
      <trkpt lat="48.67836" lon="-2.31795">
        <ele>65.3</ele>
        <time>2021-07-27T17:21:12Z</time>
      </trkpt>
      <trkpt lat="48.67824" lon="-2.31791">
        <ele>65.1</ele>
        <time>2021-07-27T17:21:14Z</time>
      </trkpt>
      <trkpt lat="48.6781" lon="-2.31788">
        <ele>65</ele>
        <time>2021-07-27T17:21:16Z</time>
      </trkpt>
      <trkpt lat="48.67797" lon="-2.31786">
        <ele>64.8</ele>
        <time>2021-07-27T17:21:18Z</time>
      </trkpt>
      <trkpt lat="48.6779" lon="-2.31785">
        <ele>64.8</ele>
        <time>2021-07-27T17:21:19Z</time>
      </trkpt>
      <trkpt lat="48.67784" lon="-2.31785">
        <ele>64.8</ele>
        <time>2021-07-27T17:21:20Z</time>
      </trkpt>
      <trkpt lat="48.6777" lon="-2.31783">
        <ele>64.7</ele>
        <time>2021-07-27T17:21:22Z</time>
      </trkpt>
      <trkpt lat="48.67763" lon="-2.31783">
        <ele>64.7</ele>
        <time>2021-07-27T17:21:23Z</time>
      </trkpt>
      <trkpt lat="48.67757" lon="-2.31783">
        <ele>64.6</ele>
        <time>2021-07-27T17:21:24Z</time>
      </trkpt>
      <trkpt lat="48.67744" lon="-2.31785">
        <ele>64.6</ele>
        <time>2021-07-27T17:21:26Z</time>
      </trkpt>
      <trkpt lat="48.67737" lon="-2.31786">
        <ele>64.6</ele>
        <time>2021-07-27T17:21:27Z</time>
      </trkpt>
      <trkpt lat="48.67724" lon="-2.31787">
        <ele>64.5</ele>
        <time>2021-07-27T17:21:29Z</time>
      </trkpt>
      <trkpt lat="48.67717" lon="-2.31787">
        <ele>64.5</ele>
        <time>2021-07-27T17:21:30Z</time>
      </trkpt>
      <trkpt lat="48.67704" lon="-2.31789">
        <ele>64.4</ele>
        <time>2021-07-27T17:21:32Z</time>
      </trkpt>
      <trkpt lat="48.6769" lon="-2.31791">
        <ele>64.3</ele>
        <time>2021-07-27T17:21:34Z</time>
      </trkpt>
      <trkpt lat="48.67683" lon="-2.31793">
        <ele>64.2</ele>
        <time>2021-07-27T17:21:35Z</time>
      </trkpt>
      <trkpt lat="48.6767" lon="-2.31795">
        <ele>64</ele>
        <time>2021-07-27T17:21:37Z</time>
      </trkpt>
      <trkpt lat="48.67656" lon="-2.31797">
        <ele>63.9</ele>
        <time>2021-07-27T17:21:39Z</time>
      </trkpt>
      <trkpt lat="48.67648" lon="-2.31798">
        <ele>63.9</ele>
        <time>2021-07-27T17:21:40Z</time>
      </trkpt>
      <trkpt lat="48.6764" lon="-2.318">
        <ele>63.9</ele>
        <time>2021-07-27T17:21:41Z</time>
      </trkpt>
      <trkpt lat="48.67626" lon="-2.31804">
        <ele>63.8</ele>
        <time>2021-07-27T17:21:43Z</time>
      </trkpt>
      <trkpt lat="48.6762" lon="-2.31805">
        <ele>63.7</ele>
        <time>2021-07-27T17:21:44Z</time>
      </trkpt>
      <trkpt lat="48.67606" lon="-2.31807">
        <ele>63.6</ele>
        <time>2021-07-27T17:21:46Z</time>
      </trkpt>
      <trkpt lat="48.67594" lon="-2.31809">
        <ele>63.5</ele>
        <time>2021-07-27T17:21:48Z</time>
      </trkpt>
      <trkpt lat="48.67582" lon="-2.31814">
        <ele>63.4</ele>
        <time>2021-07-27T17:21:50Z</time>
      </trkpt>
      <trkpt lat="48.67575" lon="-2.31817">
        <ele>63.3</ele>
        <time>2021-07-27T17:21:51Z</time>
      </trkpt>
      <trkpt lat="48.67564" lon="-2.31818">
        <ele>63.2</ele>
        <time>2021-07-27T17:21:53Z</time>
      </trkpt>
      <trkpt lat="48.67558" lon="-2.31819">
        <ele>63.1</ele>
        <time>2021-07-27T17:21:54Z</time>
      </trkpt>
      <trkpt lat="48.67547" lon="-2.31823">
        <ele>63</ele>
        <time>2021-07-27T17:21:56Z</time>
      </trkpt>
      <trkpt lat="48.67541" lon="-2.31825">
        <ele>63</ele>
        <time>2021-07-27T17:21:57Z</time>
      </trkpt>
      <trkpt lat="48.67536" lon="-2.31826">
        <ele>62.9</ele>
        <time>2021-07-27T17:21:58Z</time>
      </trkpt>
      <trkpt lat="48.67526" lon="-2.3183">
        <ele>62.9</ele>
        <time>2021-07-27T17:22:00Z</time>
      </trkpt>
      <trkpt lat="48.67516" lon="-2.31834">
        <ele>62.8</ele>
        <time>2021-07-27T17:22:02Z</time>
      </trkpt>
      <trkpt lat="48.67507" lon="-2.31834">
        <ele>62.8</ele>
        <time>2021-07-27T17:22:04Z</time>
      </trkpt>
      <trkpt lat="48.67503" lon="-2.3183">
        <ele>62.8</ele>
        <time>2021-07-27T17:22:06Z</time>
      </trkpt>
      <trkpt lat="48.67501" lon="-2.31831">
        <ele>62.8</ele>
        <time>2021-07-27T17:22:08Z</time>
      </trkpt>
      <trkpt lat="48.675" lon="-2.31832">
        <ele>62.8</ele>
        <time>2021-07-27T17:22:09Z</time>
      </trkpt>
      <trkpt lat="48.67499" lon="-2.31834">
        <ele>62.8</ele>
        <time>2021-07-27T17:22:11Z</time>
      </trkpt>
      <trkpt lat="48.67499" lon="-2.31836">
        <ele>62.8</ele>
        <time>2021-07-27T17:22:13Z</time>
      </trkpt>
      <trkpt lat="48.67498" lon="-2.31838">
        <ele>62.7</ele>
        <time>2021-07-27T17:22:14Z</time>
      </trkpt>
      <trkpt lat="48.6749" lon="-2.31843">
        <ele>62.7</ele>
        <time>2021-07-27T17:22:16Z</time>
      </trkpt>
      <trkpt lat="48.67486" lon="-2.31842">
        <ele>62.7</ele>
        <time>2021-07-27T17:22:17Z</time>
      </trkpt>
      <trkpt lat="48.67483" lon="-2.31841">
        <ele>62.7</ele>
        <time>2021-07-27T17:22:18Z</time>
      </trkpt>
      <trkpt lat="48.67474" lon="-2.31842">
        <ele>62.7</ele>
        <time>2021-07-27T17:22:20Z</time>
      </trkpt>
      <trkpt lat="48.67469" lon="-2.31843">
        <ele>62.7</ele>
        <time>2021-07-27T17:22:21Z</time>
      </trkpt>
      <trkpt lat="48.67458" lon="-2.31847">
        <ele>62.7</ele>
        <time>2021-07-27T17:22:23Z</time>
      </trkpt>
      <trkpt lat="48.67448" lon="-2.3185">
        <ele>62.7</ele>
        <time>2021-07-27T17:22:25Z</time>
      </trkpt>
      <trkpt lat="48.67438" lon="-2.31853">
        <ele>62.8</ele>
        <time>2021-07-27T17:22:27Z</time>
      </trkpt>
      <trkpt lat="48.67427" lon="-2.31856">
        <ele>62.8</ele>
        <time>2021-07-27T17:22:29Z</time>
      </trkpt>
      <trkpt lat="48.67416" lon="-2.31858">
        <ele>62.8</ele>
        <time>2021-07-27T17:22:31Z</time>
      </trkpt>
      <trkpt lat="48.67409" lon="-2.31859">
        <ele>62.8</ele>
        <time>2021-07-27T17:22:32Z</time>
      </trkpt>
      <trkpt lat="48.67404" lon="-2.3186">
        <ele>62.9</ele>
        <time>2021-07-27T17:22:33Z</time>
      </trkpt>
      <trkpt lat="48.67393" lon="-2.31862">
        <ele>62.9</ele>
        <time>2021-07-27T17:22:35Z</time>
      </trkpt>
      <trkpt lat="48.67382" lon="-2.31866">
        <ele>63</ele>
        <time>2021-07-27T17:22:37Z</time>
      </trkpt>
      <trkpt lat="48.6737" lon="-2.3187">
        <ele>63.1</ele>
        <time>2021-07-27T17:22:39Z</time>
      </trkpt>
      <trkpt lat="48.67358" lon="-2.31873">
        <ele>63.1</ele>
        <time>2021-07-27T17:22:41Z</time>
      </trkpt>
      <trkpt lat="48.67352" lon="-2.31874">
        <ele>63.1</ele>
        <time>2021-07-27T17:22:42Z</time>
      </trkpt>
      <trkpt lat="48.67339" lon="-2.31876">
        <ele>63.1</ele>
        <time>2021-07-27T17:22:44Z</time>
      </trkpt>
      <trkpt lat="48.67328" lon="-2.31879">
        <ele>63.1</ele>
        <time>2021-07-27T17:22:46Z</time>
      </trkpt>
      <trkpt lat="48.67322" lon="-2.3188">
        <ele>63.1</ele>
        <time>2021-07-27T17:22:47Z</time>
      </trkpt>
      <trkpt lat="48.67312" lon="-2.31883">
        <ele>63.1</ele>
        <time>2021-07-27T17:22:49Z</time>
      </trkpt>
      <trkpt lat="48.673" lon="-2.31885">
        <ele>63.2</ele>
        <time>2021-07-27T17:22:51Z</time>
      </trkpt>
      <trkpt lat="48.67289" lon="-2.31887">
        <ele>63.2</ele>
        <time>2021-07-27T17:22:53Z</time>
      </trkpt>
      <trkpt lat="48.67283" lon="-2.31888">
        <ele>63.2</ele>
        <time>2021-07-27T17:22:54Z</time>
      </trkpt>
      <trkpt lat="48.67278" lon="-2.31888">
        <ele>63.2</ele>
        <time>2021-07-27T17:22:55Z</time>
      </trkpt>
      <trkpt lat="48.67267" lon="-2.3189">
        <ele>63.2</ele>
        <time>2021-07-27T17:22:57Z</time>
      </trkpt>
      <trkpt lat="48.67256" lon="-2.31894">
        <ele>63.2</ele>
        <time>2021-07-27T17:22:59Z</time>
      </trkpt>
      <trkpt lat="48.67246" lon="-2.31897">
        <ele>63.2</ele>
        <time>2021-07-27T17:23:01Z</time>
      </trkpt>
      <trkpt lat="48.67241" lon="-2.31898">
        <ele>63.2</ele>
        <time>2021-07-27T17:23:02Z</time>
      </trkpt>
      <trkpt lat="48.67231" lon="-2.31901">
        <ele>63.2</ele>
        <time>2021-07-27T17:23:04Z</time>
      </trkpt>
      <trkpt lat="48.67225" lon="-2.31902">
        <ele>63.2</ele>
        <time>2021-07-27T17:23:05Z</time>
      </trkpt>
      <trkpt lat="48.67214" lon="-2.31904">
        <ele>63.3</ele>
        <time>2021-07-27T17:23:07Z</time>
      </trkpt>
      <trkpt lat="48.67209" lon="-2.31905">
        <ele>63.3</ele>
        <time>2021-07-27T17:23:08Z</time>
      </trkpt>
      <trkpt lat="48.67198" lon="-2.31908">
        <ele>63.3</ele>
        <time>2021-07-27T17:23:10Z</time>
      </trkpt>
      <trkpt lat="48.67193" lon="-2.3191">
        <ele>63.3</ele>
        <time>2021-07-27T17:23:11Z</time>
      </trkpt>
      <trkpt lat="48.67182" lon="-2.31913">
        <ele>63.4</ele>
        <time>2021-07-27T17:23:13Z</time>
      </trkpt>
      <trkpt lat="48.6717" lon="-2.31915">
        <ele>63.4</ele>
        <time>2021-07-27T17:23:15Z</time>
      </trkpt>
      <trkpt lat="48.67159" lon="-2.31918">
        <ele>63.4</ele>
        <time>2021-07-27T17:23:17Z</time>
      </trkpt>
      <trkpt lat="48.67152" lon="-2.31921">
        <ele>63.4</ele>
        <time>2021-07-27T17:23:18Z</time>
      </trkpt>
      <trkpt lat="48.67143" lon="-2.31923">
        <ele>63.5</ele>
        <time>2021-07-27T17:23:20Z</time>
      </trkpt>
      <trkpt lat="48.67131" lon="-2.31925">
        <ele>63.5</ele>
        <time>2021-07-27T17:23:22Z</time>
      </trkpt>
      <trkpt lat="48.6712" lon="-2.31927">
        <ele>63.5</ele>
        <time>2021-07-27T17:23:24Z</time>
      </trkpt>
      <trkpt lat="48.67115" lon="-2.31928">
        <ele>63.5</ele>
        <time>2021-07-27T17:23:25Z</time>
      </trkpt>
      <trkpt lat="48.67104" lon="-2.31931">
        <ele>63.4</ele>
        <time>2021-07-27T17:23:27Z</time>
      </trkpt>
      <trkpt lat="48.67098" lon="-2.31932">
        <ele>63.4</ele>
        <time>2021-07-27T17:23:28Z</time>
      </trkpt>
      <trkpt lat="48.67087" lon="-2.31936">
        <ele>63.4</ele>
        <time>2021-07-27T17:23:30Z</time>
      </trkpt>
      <trkpt lat="48.67076" lon="-2.3194">
        <ele>63.4</ele>
        <time>2021-07-27T17:23:32Z</time>
      </trkpt>
      <trkpt lat="48.67066" lon="-2.31942">
        <ele>63.5</ele>
        <time>2021-07-27T17:23:34Z</time>
      </trkpt>
      <trkpt lat="48.67055" lon="-2.31944">
        <ele>63.5</ele>
        <time>2021-07-27T17:23:36Z</time>
      </trkpt>
      <trkpt lat="48.67049" lon="-2.31945">
        <ele>63.5</ele>
        <time>2021-07-27T17:23:37Z</time>
      </trkpt>
      <trkpt lat="48.67043" lon="-2.31948">
        <ele>63.6</ele>
        <time>2021-07-27T17:23:38Z</time>
      </trkpt>
      <trkpt lat="48.67034" lon="-2.3195">
        <ele>63.6</ele>
        <time>2021-07-27T17:23:40Z</time>
      </trkpt>
      <trkpt lat="48.67028" lon="-2.3195">
        <ele>63.6</ele>
        <time>2021-07-27T17:23:41Z</time>
      </trkpt>
      <trkpt lat="48.67023" lon="-2.31951">
        <ele>63.6</ele>
        <time>2021-07-27T17:23:42Z</time>
      </trkpt>
      <trkpt lat="48.67012" lon="-2.31954">
        <ele>63.7</ele>
        <time>2021-07-27T17:23:44Z</time>
      </trkpt>
      <trkpt lat="48.67001" lon="-2.31957">
        <ele>63.7</ele>
        <time>2021-07-27T17:23:46Z</time>
      </trkpt>
      <trkpt lat="48.66995" lon="-2.31957">
        <ele>63.7</ele>
        <time>2021-07-27T17:23:47Z</time>
      </trkpt>
      <trkpt lat="48.66984" lon="-2.3196">
        <ele>63.6</ele>
        <time>2021-07-27T17:23:49Z</time>
      </trkpt>
      <trkpt lat="48.66978" lon="-2.31962">
        <ele>63.6</ele>
        <time>2021-07-27T17:23:50Z</time>
      </trkpt>
      <trkpt lat="48.66973" lon="-2.31963">
        <ele>63.6</ele>
        <time>2021-07-27T17:23:51Z</time>
      </trkpt>
      <trkpt lat="48.66961" lon="-2.31966">
        <ele>63.5</ele>
        <time>2021-07-27T17:23:53Z</time>
      </trkpt>
      <trkpt lat="48.66956" lon="-2.31967">
        <ele>63.4</ele>
        <time>2021-07-27T17:23:54Z</time>
      </trkpt>
      <trkpt lat="48.66944" lon="-2.31972">
        <ele>63.2</ele>
        <time>2021-07-27T17:23:56Z</time>
      </trkpt>
      <trkpt lat="48.66938" lon="-2.31973">
        <ele>63.1</ele>
        <time>2021-07-27T17:23:57Z</time>
      </trkpt>
      <trkpt lat="48.66932" lon="-2.31975">
        <ele>63</ele>
        <time>2021-07-27T17:23:58Z</time>
      </trkpt>
      <trkpt lat="48.66928" lon="-2.31976">
        <ele>63</ele>
        <time>2021-07-27T17:23:59Z</time>
      </trkpt>
      <trkpt lat="48.66917" lon="-2.31977">
        <ele>62.9</ele>
        <time>2021-07-27T17:24:01Z</time>
      </trkpt>
      <trkpt lat="48.66907" lon="-2.3198">
        <ele>62.8</ele>
        <time>2021-07-27T17:24:03Z</time>
      </trkpt>
      <trkpt lat="48.66896" lon="-2.31984">
        <ele>62.6</ele>
        <time>2021-07-27T17:24:05Z</time>
      </trkpt>
      <trkpt lat="48.6689" lon="-2.31985">
        <ele>62.6</ele>
        <time>2021-07-27T17:24:06Z</time>
      </trkpt>
      <trkpt lat="48.66885" lon="-2.31986">
        <ele>62.6</ele>
        <time>2021-07-27T17:24:07Z</time>
      </trkpt>
      <trkpt lat="48.66879" lon="-2.31987">
        <ele>62.5</ele>
        <time>2021-07-27T17:24:08Z</time>
      </trkpt>
      <trkpt lat="48.66868" lon="-2.31989">
        <ele>62.6</ele>
        <time>2021-07-27T17:24:10Z</time>
      </trkpt>
      <trkpt lat="48.6686" lon="-2.31981">
        <ele>62.7</ele>
        <time>2021-07-27T17:24:12Z</time>
      </trkpt>
      <trkpt lat="48.66857" lon="-2.31963">
        <ele>62.9</ele>
        <time>2021-07-27T17:24:14Z</time>
      </trkpt>
      <trkpt lat="48.66855" lon="-2.31955">
        <ele>62.9</ele>
        <time>2021-07-27T17:24:15Z</time>
      </trkpt>
      <trkpt lat="48.66852" lon="-2.3194">
        <ele>63.1</ele>
        <time>2021-07-27T17:24:17Z</time>
      </trkpt>
      <trkpt lat="48.66849" lon="-2.31924">
        <ele>63.4</ele>
        <time>2021-07-27T17:24:19Z</time>
      </trkpt>
      <trkpt lat="48.66848" lon="-2.31916">
        <ele>63.5</ele>
        <time>2021-07-27T17:24:20Z</time>
      </trkpt>
      <trkpt lat="48.66846" lon="-2.319">
        <ele>63.7</ele>
        <time>2021-07-27T17:24:22Z</time>
      </trkpt>
      <trkpt lat="48.66845" lon="-2.31891">
        <ele>63.8</ele>
        <time>2021-07-27T17:24:23Z</time>
      </trkpt>
      <trkpt lat="48.66844" lon="-2.31884">
        <ele>63.9</ele>
        <time>2021-07-27T17:24:24Z</time>
      </trkpt>
      <trkpt lat="48.66843" lon="-2.31868">
        <ele>64</ele>
        <time>2021-07-27T17:24:26Z</time>
      </trkpt>
      <trkpt lat="48.66842" lon="-2.31853">
        <ele>64.1</ele>
        <time>2021-07-27T17:24:28Z</time>
      </trkpt>
      <trkpt lat="48.66842" lon="-2.31845">
        <ele>64.1</ele>
        <time>2021-07-27T17:24:29Z</time>
      </trkpt>
      <trkpt lat="48.6684" lon="-2.31827">
        <ele>64.1</ele>
        <time>2021-07-27T17:24:31Z</time>
      </trkpt>
      <trkpt lat="48.66838" lon="-2.31808">
        <ele>64.2</ele>
        <time>2021-07-27T17:24:33Z</time>
      </trkpt>
      <trkpt lat="48.66837" lon="-2.31799">
        <ele>64.2</ele>
        <time>2021-07-27T17:24:34Z</time>
      </trkpt>
      <trkpt lat="48.66834" lon="-2.31781">
        <ele>64.3</ele>
        <time>2021-07-27T17:24:36Z</time>
      </trkpt>
      <trkpt lat="48.66832" lon="-2.31774">
        <ele>64.4</ele>
        <time>2021-07-27T17:24:37Z</time>
      </trkpt>
      <trkpt lat="48.66829" lon="-2.31757">
        <ele>64.6</ele>
        <time>2021-07-27T17:24:39Z</time>
      </trkpt>
      <trkpt lat="48.66828" lon="-2.31749">
        <ele>64.7</ele>
        <time>2021-07-27T17:24:40Z</time>
      </trkpt>
      <trkpt lat="48.66826" lon="-2.31731">
        <ele>65</ele>
        <time>2021-07-27T17:24:42Z</time>
      </trkpt>
      <trkpt lat="48.66824" lon="-2.31714">
        <ele>65.3</ele>
        <time>2021-07-27T17:24:44Z</time>
      </trkpt>
      <trkpt lat="48.66822" lon="-2.31696">
        <ele>65.7</ele>
        <time>2021-07-27T17:24:46Z</time>
      </trkpt>
      <trkpt lat="48.66822" lon="-2.31688">
        <ele>65.8</ele>
        <time>2021-07-27T17:24:47Z</time>
      </trkpt>
      <trkpt lat="48.66821" lon="-2.31674">
        <ele>66.2</ele>
        <time>2021-07-27T17:24:49Z</time>
      </trkpt>
      <trkpt lat="48.66819" lon="-2.31667">
        <ele>66.4</ele>
        <time>2021-07-27T17:24:50Z</time>
      </trkpt>
      <trkpt lat="48.66818" lon="-2.31653">
        <ele>66.8</ele>
        <time>2021-07-27T17:24:52Z</time>
      </trkpt>
      <trkpt lat="48.66815" lon="-2.31638">
        <ele>67.2</ele>
        <time>2021-07-27T17:24:54Z</time>
      </trkpt>
      <trkpt lat="48.66814" lon="-2.31632">
        <ele>67.4</ele>
        <time>2021-07-27T17:24:55Z</time>
      </trkpt>
      <trkpt lat="48.66811" lon="-2.31618">
        <ele>67.7</ele>
        <time>2021-07-27T17:24:57Z</time>
      </trkpt>
      <trkpt lat="48.6681" lon="-2.31608">
        <ele>68</ele>
        <time>2021-07-27T17:24:58Z</time>
      </trkpt>
      <trkpt lat="48.66808" lon="-2.31594">
        <ele>68.3</ele>
        <time>2021-07-27T17:25:00Z</time>
      </trkpt>
      <trkpt lat="48.66807" lon="-2.31584">
        <ele>68.5</ele>
        <time>2021-07-27T17:25:01Z</time>
      </trkpt>
      <trkpt lat="48.66807" lon="-2.31576">
        <ele>68.6</ele>
        <time>2021-07-27T17:25:02Z</time>
      </trkpt>
      <trkpt lat="48.66805" lon="-2.31561">
        <ele>68.8</ele>
        <time>2021-07-27T17:25:04Z</time>
      </trkpt>
      <trkpt lat="48.66805" lon="-2.31552">
        <ele>68.9</ele>
        <time>2021-07-27T17:25:05Z</time>
      </trkpt>
      <trkpt lat="48.66805" lon="-2.31543">
        <ele>68.9</ele>
        <time>2021-07-27T17:25:06Z</time>
      </trkpt>
      <trkpt lat="48.66805" lon="-2.31525">
        <ele>69.1</ele>
        <time>2021-07-27T17:25:08Z</time>
      </trkpt>
      <trkpt lat="48.66804" lon="-2.31509">
        <ele>69.2</ele>
        <time>2021-07-27T17:25:10Z</time>
      </trkpt>
      <trkpt lat="48.66803" lon="-2.31501">
        <ele>69.2</ele>
        <time>2021-07-27T17:25:11Z</time>
      </trkpt>
      <trkpt lat="48.66802" lon="-2.31492">
        <ele>69.3</ele>
        <time>2021-07-27T17:25:12Z</time>
      </trkpt>
      <trkpt lat="48.66801" lon="-2.31484">
        <ele>69.3</ele>
        <time>2021-07-27T17:25:13Z</time>
      </trkpt>
      <trkpt lat="48.66799" lon="-2.31469">
        <ele>69.4</ele>
        <time>2021-07-27T17:25:15Z</time>
      </trkpt>
      <trkpt lat="48.66797" lon="-2.31451">
        <ele>69.6</ele>
        <time>2021-07-27T17:25:17Z</time>
      </trkpt>
      <trkpt lat="48.66796" lon="-2.31433">
        <ele>69.8</ele>
        <time>2021-07-27T17:25:19Z</time>
      </trkpt>
      <trkpt lat="48.66795" lon="-2.31426">
        <ele>69.9</ele>
        <time>2021-07-27T17:25:20Z</time>
      </trkpt>
      <trkpt lat="48.66792" lon="-2.31409">
        <ele>70.1</ele>
        <time>2021-07-27T17:25:22Z</time>
      </trkpt>
      <trkpt lat="48.66792" lon="-2.314">
        <ele>70.2</ele>
        <time>2021-07-27T17:25:23Z</time>
      </trkpt>
      <trkpt lat="48.66791" lon="-2.31382">
        <ele>70.3</ele>
        <time>2021-07-27T17:25:25Z</time>
      </trkpt>
      <trkpt lat="48.66791" lon="-2.31372">
        <ele>70.3</ele>
        <time>2021-07-27T17:25:26Z</time>
      </trkpt>
      <trkpt lat="48.66788" lon="-2.31339">
        <ele>70.6</ele>
        <time>2021-07-27T17:25:30Z</time>
      </trkpt>
      <trkpt lat="48.66788" lon="-2.3133">
        <ele>70.7</ele>
        <time>2021-07-27T17:25:31Z</time>
      </trkpt>
      <trkpt lat="48.66788" lon="-2.31315">
        <ele>70.8</ele>
        <time>2021-07-27T17:25:33Z</time>
      </trkpt>
      <trkpt lat="48.66786" lon="-2.313">
        <ele>71</ele>
        <time>2021-07-27T17:25:35Z</time>
      </trkpt>
      <trkpt lat="48.66786" lon="-2.31291">
        <ele>71.1</ele>
        <time>2021-07-27T17:25:36Z</time>
      </trkpt>
      <trkpt lat="48.66783" lon="-2.31272">
        <ele>71.2</ele>
        <time>2021-07-27T17:25:38Z</time>
      </trkpt>
      <trkpt lat="48.66781" lon="-2.31257">
        <ele>71.4</ele>
        <time>2021-07-27T17:25:40Z</time>
      </trkpt>
      <trkpt lat="48.6678" lon="-2.31241">
        <ele>71.6</ele>
        <time>2021-07-27T17:25:42Z</time>
      </trkpt>
      <trkpt lat="48.66779" lon="-2.31227">
        <ele>71.8</ele>
        <time>2021-07-27T17:25:44Z</time>
      </trkpt>
      <trkpt lat="48.66778" lon="-2.31215">
        <ele>71.9</ele>
        <time>2021-07-27T17:25:46Z</time>
      </trkpt>
      <trkpt lat="48.66774" lon="-2.31204">
        <ele>72.1</ele>
        <time>2021-07-27T17:25:48Z</time>
      </trkpt>
      <trkpt lat="48.66764" lon="-2.31199">
        <ele>72.4</ele>
        <time>2021-07-27T17:25:50Z</time>
      </trkpt>
      <trkpt lat="48.66759" lon="-2.312">
        <ele>72.5</ele>
        <time>2021-07-27T17:25:51Z</time>
      </trkpt>
      <trkpt lat="48.66751" lon="-2.31203">
        <ele>72.6</ele>
        <time>2021-07-27T17:25:53Z</time>
      </trkpt>
      <trkpt lat="48.66748" lon="-2.31208">
        <ele>72.7</ele>
        <time>2021-07-27T17:25:54Z</time>
      </trkpt>
      <trkpt lat="48.66743" lon="-2.3121">
        <ele>72.9</ele>
        <time>2021-07-27T17:25:55Z</time>
      </trkpt>
      <trkpt lat="48.66737" lon="-2.31212">
        <ele>73.1</ele>
        <time>2021-07-27T17:25:56Z</time>
      </trkpt>
      <trkpt lat="48.66732" lon="-2.31214">
        <ele>73.2</ele>
        <time>2021-07-27T17:25:57Z</time>
      </trkpt>
      <trkpt lat="48.66723" lon="-2.31213">
        <ele>73.5</ele>
        <time>2021-07-27T17:25:59Z</time>
      </trkpt>
      <trkpt lat="48.66717" lon="-2.3121">
        <ele>73.7</ele>
        <time>2021-07-27T17:26:00Z</time>
      </trkpt>
      <trkpt lat="48.6671" lon="-2.31206">
        <ele>73.9</ele>
        <time>2021-07-27T17:26:02Z</time>
      </trkpt>
      <trkpt lat="48.66702" lon="-2.31198">
        <ele>74.2</ele>
        <time>2021-07-27T17:26:04Z</time>
      </trkpt>
      <trkpt lat="48.66694" lon="-2.31191">
        <ele>74.5</ele>
        <time>2021-07-27T17:26:06Z</time>
      </trkpt>
      <trkpt lat="48.66691" lon="-2.31188">
        <ele>74.6</ele>
        <time>2021-07-27T17:26:07Z</time>
      </trkpt>
      <trkpt lat="48.66687" lon="-2.31185">
        <ele>74.8</ele>
        <time>2021-07-27T17:26:08Z</time>
      </trkpt>
      <trkpt lat="48.66683" lon="-2.31182">
        <ele>74.9</ele>
        <time>2021-07-27T17:26:09Z</time>
      </trkpt>
      <trkpt lat="48.66679" lon="-2.31177">
        <ele>75.1</ele>
        <time>2021-07-27T17:26:10Z</time>
      </trkpt>
      <trkpt lat="48.66675" lon="-2.31173">
        <ele>75.3</ele>
        <time>2021-07-27T17:26:12Z</time>
      </trkpt>
      <trkpt lat="48.66671" lon="-2.3117">
        <ele>75.4</ele>
        <time>2021-07-27T17:26:13Z</time>
      </trkpt>
      <trkpt lat="48.66667" lon="-2.31167">
        <ele>75.6</ele>
        <time>2021-07-27T17:26:14Z</time>
      </trkpt>
      <trkpt lat="48.66662" lon="-2.3116">
        <ele>75.8</ele>
        <time>2021-07-27T17:26:15Z</time>
      </trkpt>
      <trkpt lat="48.66657" lon="-2.31154">
        <ele>76.1</ele>
        <time>2021-07-27T17:26:17Z</time>
      </trkpt>
      <trkpt lat="48.66654" lon="-2.3115">
        <ele>76.2</ele>
        <time>2021-07-27T17:26:18Z</time>
      </trkpt>
      <trkpt lat="48.66649" lon="-2.31147">
        <ele>76.3</ele>
        <time>2021-07-27T17:26:19Z</time>
      </trkpt>
      <trkpt lat="48.66645" lon="-2.31142">
        <ele>76.4</ele>
        <time>2021-07-27T17:26:20Z</time>
      </trkpt>
      <trkpt lat="48.6664" lon="-2.31138">
        <ele>76.4</ele>
        <time>2021-07-27T17:26:22Z</time>
      </trkpt>
      <trkpt lat="48.66636" lon="-2.31133">
        <ele>76.4</ele>
        <time>2021-07-27T17:26:23Z</time>
      </trkpt>
      <trkpt lat="48.66628" lon="-2.31124">
        <ele>76.4</ele>
        <time>2021-07-27T17:26:25Z</time>
      </trkpt>
      <trkpt lat="48.66625" lon="-2.31119">
        <ele>76.3</ele>
        <time>2021-07-27T17:26:26Z</time>
      </trkpt>
      <trkpt lat="48.66621" lon="-2.31116">
        <ele>76.3</ele>
        <time>2021-07-27T17:26:27Z</time>
      </trkpt>
      <trkpt lat="48.66617" lon="-2.31112">
        <ele>76.3</ele>
        <time>2021-07-27T17:26:28Z</time>
      </trkpt>
      <trkpt lat="48.66615" lon="-2.31108">
        <ele>76.3</ele>
        <time>2021-07-27T17:26:29Z</time>
      </trkpt>
      <trkpt lat="48.66611" lon="-2.31106">
        <ele>76.3</ele>
        <time>2021-07-27T17:26:31Z</time>
      </trkpt>
      <trkpt lat="48.66608" lon="-2.31104">
        <ele>76.3</ele>
        <time>2021-07-27T17:26:32Z</time>
      </trkpt>
      <trkpt lat="48.66604" lon="-2.31102">
        <ele>76.2</ele>
        <time>2021-07-27T17:26:34Z</time>
      </trkpt>
      <trkpt lat="48.66603" lon="-2.31101">
        <ele>76.2</ele>
        <time>2021-07-27T17:26:35Z</time>
      </trkpt>
      <trkpt lat="48.66601" lon="-2.31101">
        <ele>76.2</ele>
        <time>2021-07-27T17:26:36Z</time>
      </trkpt>
      <trkpt lat="48.666" lon="-2.311">
        <ele>76.2</ele>
        <time>2021-07-27T17:26:37Z</time>
      </trkpt>
      <trkpt lat="48.66598" lon="-2.31098">
        <ele>76.2</ele>
        <time>2021-07-27T17:26:38Z</time>
      </trkpt>
      <trkpt lat="48.66597" lon="-2.31097">
        <ele>76.2</ele>
        <time>2021-07-27T17:26:40Z</time>
      </trkpt>
      <trkpt lat="48.66596" lon="-2.31096">
        <ele>76.1</ele>
        <time>2021-07-27T17:26:41Z</time>
      </trkpt>
      <trkpt lat="48.66593" lon="-2.31094">
        <ele>76.1</ele>
        <time>2021-07-27T17:26:42Z</time>
      </trkpt>
      <trkpt lat="48.66584" lon="-2.31084">
        <ele>76</ele>
        <time>2021-07-27T17:26:44Z</time>
      </trkpt>
      <trkpt lat="48.66575" lon="-2.31076">
        <ele>75.8</ele>
        <time>2021-07-27T17:26:45Z</time>
      </trkpt>
      <trkpt lat="48.66561" lon="-2.31062">
        <ele>75.7</ele>
        <time>2021-07-27T17:26:47Z</time>
      </trkpt>
      <trkpt lat="48.66557" lon="-2.31058">
        <ele>75.7</ele>
        <time>2021-07-27T17:26:48Z</time>
      </trkpt>
      <trkpt lat="48.66552" lon="-2.31054">
        <ele>75.7</ele>
        <time>2021-07-27T17:26:50Z</time>
      </trkpt>
      <trkpt lat="48.66547" lon="-2.31049">
        <ele>75.6</ele>
        <time>2021-07-27T17:26:51Z</time>
      </trkpt>
      <trkpt lat="48.66544" lon="-2.31047">
        <ele>75.6</ele>
        <time>2021-07-27T17:26:52Z</time>
      </trkpt>
      <trkpt lat="48.66539" lon="-2.31047">
        <ele>75.6</ele>
        <time>2021-07-27T17:26:53Z</time>
      </trkpt>
      <trkpt lat="48.66535" lon="-2.31043">
        <ele>75.6</ele>
        <time>2021-07-27T17:26:54Z</time>
      </trkpt>
      <trkpt lat="48.66531" lon="-2.31036">
        <ele>75.6</ele>
        <time>2021-07-27T17:26:55Z</time>
      </trkpt>
      <trkpt lat="48.66527" lon="-2.31029">
        <ele>75.5</ele>
        <time>2021-07-27T17:26:57Z</time>
      </trkpt>
      <trkpt lat="48.66524" lon="-2.31023">
        <ele>75.5</ele>
        <time>2021-07-27T17:26:58Z</time>
      </trkpt>
      <trkpt lat="48.66519" lon="-2.31013">
        <ele>75.5</ele>
        <time>2021-07-27T17:26:59Z</time>
      </trkpt>
      <trkpt lat="48.66514" lon="-2.31002">
        <ele>75.5</ele>
        <time>2021-07-27T17:27:01Z</time>
      </trkpt>
      <trkpt lat="48.6651" lon="-2.30992">
        <ele>75.6</ele>
        <time>2021-07-27T17:27:02Z</time>
      </trkpt>
      <trkpt lat="48.66504" lon="-2.30982">
        <ele>75.7</ele>
        <time>2021-07-27T17:27:04Z</time>
      </trkpt>
      <trkpt lat="48.66494" lon="-2.30967">
        <ele>75.8</ele>
        <time>2021-07-27T17:27:06Z</time>
      </trkpt>
      <trkpt lat="48.66486" lon="-2.30956">
        <ele>75.9</ele>
        <time>2021-07-27T17:27:08Z</time>
      </trkpt>
      <trkpt lat="48.66482" lon="-2.30951">
        <ele>76</ele>
        <time>2021-07-27T17:27:09Z</time>
      </trkpt>
      <trkpt lat="48.66473" lon="-2.30946">
        <ele>76.2</ele>
        <time>2021-07-27T17:27:11Z</time>
      </trkpt>
      <trkpt lat="48.66467" lon="-2.30943">
        <ele>76.4</ele>
        <time>2021-07-27T17:27:12Z</time>
      </trkpt>
      <trkpt lat="48.66456" lon="-2.30938">
        <ele>76.9</ele>
        <time>2021-07-27T17:27:14Z</time>
      </trkpt>
      <trkpt lat="48.66451" lon="-2.30936">
        <ele>77.1</ele>
        <time>2021-07-27T17:27:15Z</time>
      </trkpt>
      <trkpt lat="48.66443" lon="-2.30934">
        <ele>77.2</ele>
        <time>2021-07-27T17:27:17Z</time>
      </trkpt>
      <trkpt lat="48.66436" lon="-2.30933">
        <ele>77.3</ele>
        <time>2021-07-27T17:27:19Z</time>
      </trkpt>
      <trkpt lat="48.6643" lon="-2.30931">
        <ele>77.3</ele>
        <time>2021-07-27T17:27:20Z</time>
      </trkpt>
      <trkpt lat="48.66427" lon="-2.30931">
        <ele>77.3</ele>
        <time>2021-07-27T17:27:21Z</time>
      </trkpt>
      <trkpt lat="48.66422" lon="-2.30931">
        <ele>77.3</ele>
        <time>2021-07-27T17:27:22Z</time>
      </trkpt>
      <trkpt lat="48.66417" lon="-2.30931">
        <ele>77.3</ele>
        <time>2021-07-27T17:27:24Z</time>
      </trkpt>
      <trkpt lat="48.66413" lon="-2.30931">
        <ele>77.3</ele>
        <time>2021-07-27T17:27:25Z</time>
      </trkpt>
      <trkpt lat="48.66408" lon="-2.3093">
        <ele>77.3</ele>
        <time>2021-07-27T17:27:26Z</time>
      </trkpt>
      <trkpt lat="48.66399" lon="-2.3093">
        <ele>77.3</ele>
        <time>2021-07-27T17:27:28Z</time>
      </trkpt>
      <trkpt lat="48.66385" lon="-2.30925">
        <ele>77.2</ele>
        <time>2021-07-27T17:27:30Z</time>
      </trkpt>
      <trkpt lat="48.66373" lon="-2.30918">
        <ele>77</ele>
        <time>2021-07-27T17:27:32Z</time>
      </trkpt>
      <trkpt lat="48.66368" lon="-2.30914">
        <ele>76.9</ele>
        <time>2021-07-27T17:27:33Z</time>
      </trkpt>
      <trkpt lat="48.6636" lon="-2.30908">
        <ele>76.8</ele>
        <time>2021-07-27T17:27:35Z</time>
      </trkpt>
      <trkpt lat="48.66356" lon="-2.30904">
        <ele>76.7</ele>
        <time>2021-07-27T17:27:36Z</time>
      </trkpt>
      <trkpt lat="48.6635" lon="-2.30896">
        <ele>76.7</ele>
        <time>2021-07-27T17:27:38Z</time>
      </trkpt>
      <trkpt lat="48.66343" lon="-2.30887">
        <ele>76.7</ele>
        <time>2021-07-27T17:27:40Z</time>
      </trkpt>
      <trkpt lat="48.66341" lon="-2.30883">
        <ele>76.7</ele>
        <time>2021-07-27T17:27:41Z</time>
      </trkpt>
      <trkpt lat="48.66335" lon="-2.30877">
        <ele>76.7</ele>
        <time>2021-07-27T17:27:42Z</time>
      </trkpt>
      <trkpt lat="48.66331" lon="-2.30876">
        <ele>76.6</ele>
        <time>2021-07-27T17:27:43Z</time>
      </trkpt>
      <trkpt lat="48.66326" lon="-2.30877">
        <ele>76.6</ele>
        <time>2021-07-27T17:27:45Z</time>
      </trkpt>
      <trkpt lat="48.66323" lon="-2.30878">
        <ele>76.6</ele>
        <time>2021-07-27T17:27:46Z</time>
      </trkpt>
      <trkpt lat="48.66319" lon="-2.30878">
        <ele>76.5</ele>
        <time>2021-07-27T17:27:48Z</time>
      </trkpt>
      <trkpt lat="48.66316" lon="-2.30876">
        <ele>76.5</ele>
        <time>2021-07-27T17:27:49Z</time>
      </trkpt>
      <trkpt lat="48.66314" lon="-2.30875">
        <ele>76.5</ele>
        <time>2021-07-27T17:27:50Z</time>
      </trkpt>
      <trkpt lat="48.66309" lon="-2.30875">
        <ele>76.4</ele>
        <time>2021-07-27T17:27:52Z</time>
      </trkpt>
      <trkpt lat="48.66307" lon="-2.30875">
        <ele>76.3</ele>
        <time>2021-07-27T17:27:53Z</time>
      </trkpt>
      <trkpt lat="48.66305" lon="-2.30874">
        <ele>76.2</ele>
        <time>2021-07-27T17:27:54Z</time>
      </trkpt>
      <trkpt lat="48.66303" lon="-2.30878">
        <ele>76.1</ele>
        <time>2021-07-27T17:27:56Z</time>
      </trkpt>
      <trkpt lat="48.66305" lon="-2.30883">
        <ele>75.9</ele>
        <time>2021-07-27T17:27:57Z</time>
      </trkpt>
      <trkpt lat="48.66306" lon="-2.30888">
        <ele>75.7</ele>
        <time>2021-07-27T17:27:58Z</time>
      </trkpt>
      <trkpt lat="48.66304" lon="-2.30893">
        <ele>75.2</ele>
        <time>2021-07-27T17:28:00Z</time>
      </trkpt>
      <trkpt lat="48.66303" lon="-2.30895">
        <ele>75.1</ele>
        <time>2021-07-27T17:28:01Z</time>
      </trkpt>
      <trkpt lat="48.66301" lon="-2.30902">
        <ele>74.4</ele>
        <time>2021-07-27T17:28:02Z</time>
      </trkpt>
      <trkpt lat="48.66299" lon="-2.30907">
        <ele>73</ele>
        <time>2021-07-27T17:28:04Z</time>
      </trkpt>
      <trkpt lat="48.66294" lon="-2.30911">
        <ele>72.8</ele>
        <time>2021-07-27T17:28:05Z</time>
      </trkpt>
      <trkpt lat="48.66284" lon="-2.30918">
        <ele>72.2</ele>
        <time>2021-07-27T17:28:07Z</time>
      </trkpt>
      <trkpt lat="48.66279" lon="-2.30921">
        <ele>71.8</ele>
        <time>2021-07-27T17:28:08Z</time>
      </trkpt>
      <trkpt lat="48.66268" lon="-2.30928">
        <ele>71.1</ele>
        <time>2021-07-27T17:28:10Z</time>
      </trkpt>
      <trkpt lat="48.66262" lon="-2.30931">
        <ele>70.8</ele>
        <time>2021-07-27T17:28:11Z</time>
      </trkpt>
      <trkpt lat="48.66256" lon="-2.30935">
        <ele>70.5</ele>
        <time>2021-07-27T17:28:12Z</time>
      </trkpt>
      <trkpt lat="48.66244" lon="-2.30944">
        <ele>69.7</ele>
        <time>2021-07-27T17:28:14Z</time>
      </trkpt>
      <trkpt lat="48.66237" lon="-2.30949">
        <ele>69.3</ele>
        <time>2021-07-27T17:28:15Z</time>
      </trkpt>
      <trkpt lat="48.66223" lon="-2.3096">
        <ele>68.6</ele>
        <time>2021-07-27T17:28:17Z</time>
      </trkpt>
      <trkpt lat="48.66216" lon="-2.30967">
        <ele>68.4</ele>
        <time>2021-07-27T17:28:18Z</time>
      </trkpt>
      <trkpt lat="48.66208" lon="-2.3098">
        <ele>68.2</ele>
        <time>2021-07-27T17:28:20Z</time>
      </trkpt>
      <trkpt lat="48.66201" lon="-2.30987">
        <ele>68</ele>
        <time>2021-07-27T17:28:22Z</time>
      </trkpt>
      <trkpt lat="48.66195" lon="-2.3099">
        <ele>67.8</ele>
        <time>2021-07-27T17:28:24Z</time>
      </trkpt>
      <trkpt lat="48.6619" lon="-2.30994">
        <ele>67.5</ele>
        <time>2021-07-27T17:28:25Z</time>
      </trkpt>
      <trkpt lat="48.66186" lon="-2.31001">
        <ele>67.2</ele>
        <time>2021-07-27T17:28:26Z</time>
      </trkpt>
      <trkpt lat="48.66177" lon="-2.31013">
        <ele>66.6</ele>
        <time>2021-07-27T17:28:28Z</time>
      </trkpt>
      <trkpt lat="48.66167" lon="-2.31025">
        <ele>66.1</ele>
        <time>2021-07-27T17:28:30Z</time>
      </trkpt>
      <trkpt lat="48.66162" lon="-2.31031">
        <ele>65.8</ele>
        <time>2021-07-27T17:28:31Z</time>
      </trkpt>
      <trkpt lat="48.66158" lon="-2.31037">
        <ele>65.6</ele>
        <time>2021-07-27T17:28:32Z</time>
      </trkpt>
      <trkpt lat="48.66149" lon="-2.31049">
        <ele>65.2</ele>
        <time>2021-07-27T17:28:34Z</time>
      </trkpt>
      <trkpt lat="48.66142" lon="-2.31061">
        <ele>64.9</ele>
        <time>2021-07-27T17:28:36Z</time>
      </trkpt>
      <trkpt lat="48.66134" lon="-2.31075">
        <ele>64.6</ele>
        <time>2021-07-27T17:28:38Z</time>
      </trkpt>
      <trkpt lat="48.6613" lon="-2.31081">
        <ele>64.5</ele>
        <time>2021-07-27T17:28:39Z</time>
      </trkpt>
      <trkpt lat="48.66126" lon="-2.31087">
        <ele>64.4</ele>
        <time>2021-07-27T17:28:40Z</time>
      </trkpt>
      <trkpt lat="48.66118" lon="-2.311">
        <ele>64.2</ele>
        <time>2021-07-27T17:28:42Z</time>
      </trkpt>
      <trkpt lat="48.66114" lon="-2.31106">
        <ele>64.1</ele>
        <time>2021-07-27T17:28:43Z</time>
      </trkpt>
      <trkpt lat="48.66106" lon="-2.31115">
        <ele>64</ele>
        <time>2021-07-27T17:28:45Z</time>
      </trkpt>
      <trkpt lat="48.66096" lon="-2.31122">
        <ele>64</ele>
        <time>2021-07-27T17:28:47Z</time>
      </trkpt>
      <trkpt lat="48.66086" lon="-2.31125">
        <ele>64</ele>
        <time>2021-07-27T17:28:49Z</time>
      </trkpt>
      <trkpt lat="48.66082" lon="-2.31127">
        <ele>64.1</ele>
        <time>2021-07-27T17:28:50Z</time>
      </trkpt>
      <trkpt lat="48.66074" lon="-2.31128">
        <ele>64.1</ele>
        <time>2021-07-27T17:28:52Z</time>
      </trkpt>
      <trkpt lat="48.66066" lon="-2.31127">
        <ele>64.1</ele>
        <time>2021-07-27T17:28:54Z</time>
      </trkpt>
      <trkpt lat="48.66062" lon="-2.31126">
        <ele>64.1</ele>
        <time>2021-07-27T17:28:55Z</time>
      </trkpt>
      <trkpt lat="48.66058" lon="-2.31125">
        <ele>64.1</ele>
        <time>2021-07-27T17:28:57Z</time>
      </trkpt>
      <trkpt lat="48.66059" lon="-2.31129">
        <ele>64.1</ele>
        <time>2021-07-27T17:28:58Z</time>
      </trkpt>
      <trkpt lat="48.6605" lon="-2.3112">
        <ele>64.2</ele>
        <time>2021-07-27T17:29:00Z</time>
      </trkpt>
      <trkpt lat="48.66041" lon="-2.31111">
        <ele>64.3</ele>
        <time>2021-07-27T17:29:01Z</time>
      </trkpt>
      <trkpt lat="48.66033" lon="-2.311">
        <ele>64.5</ele>
        <time>2021-07-27T17:29:03Z</time>
      </trkpt>
      <trkpt lat="48.66026" lon="-2.31093">
        <ele>64.6</ele>
        <time>2021-07-27T17:29:04Z</time>
      </trkpt>
      <trkpt lat="48.66022" lon="-2.3109">
        <ele>64.6</ele>
        <time>2021-07-27T17:29:06Z</time>
      </trkpt>
      <trkpt lat="48.66019" lon="-2.31087">
        <ele>64.7</ele>
        <time>2021-07-27T17:29:07Z</time>
      </trkpt>
      <trkpt lat="48.66015" lon="-2.31083">
        <ele>64.7</ele>
        <time>2021-07-27T17:29:08Z</time>
      </trkpt>
      <trkpt lat="48.66005" lon="-2.31074">
        <ele>64.9</ele>
        <time>2021-07-27T17:29:10Z</time>
      </trkpt>
      <trkpt lat="48.66001" lon="-2.31071">
        <ele>64.9</ele>
        <time>2021-07-27T17:29:11Z</time>
      </trkpt>
      <trkpt lat="48.65997" lon="-2.3107">
        <ele>65</ele>
        <time>2021-07-27T17:29:12Z</time>
      </trkpt>
      <trkpt lat="48.65993" lon="-2.31071">
        <ele>65</ele>
        <time>2021-07-27T17:29:13Z</time>
      </trkpt>
      <trkpt lat="48.65989" lon="-2.31075">
        <ele>65.1</ele>
        <time>2021-07-27T17:29:14Z</time>
      </trkpt>
      <trkpt lat="48.65989" lon="-2.31081">
        <ele>65.1</ele>
        <time>2021-07-27T17:29:16Z</time>
      </trkpt>
      <trkpt lat="48.65986" lon="-2.31085">
        <ele>65.1</ele>
        <time>2021-07-27T17:29:17Z</time>
      </trkpt>
      <trkpt lat="48.6598" lon="-2.31093">
        <ele>65.2</ele>
        <time>2021-07-27T17:29:18Z</time>
      </trkpt>
      <trkpt lat="48.65976" lon="-2.31099">
        <ele>65.2</ele>
        <time>2021-07-27T17:29:20Z</time>
      </trkpt>
      <trkpt lat="48.65969" lon="-2.31109">
        <ele>65.3</ele>
        <time>2021-07-27T17:29:22Z</time>
      </trkpt>
      <trkpt lat="48.65958" lon="-2.31122">
        <ele>65.5</ele>
        <time>2021-07-27T17:29:24Z</time>
      </trkpt>
      <trkpt lat="48.65958" lon="-2.31125">
        <ele>65.5</ele>
        <time>2021-07-27T17:29:25Z</time>
      </trkpt>
      <trkpt lat="48.6595" lon="-2.31132">
        <ele>65.6</ele>
        <time>2021-07-27T17:29:27Z</time>
      </trkpt>
      <trkpt lat="48.65939" lon="-2.3114">
        <ele>65.9</ele>
        <time>2021-07-27T17:29:29Z</time>
      </trkpt>
      <trkpt lat="48.6593" lon="-2.31149">
        <ele>66.2</ele>
        <time>2021-07-27T17:29:31Z</time>
      </trkpt>
      <trkpt lat="48.65922" lon="-2.31157">
        <ele>66.5</ele>
        <time>2021-07-27T17:29:33Z</time>
      </trkpt>
      <trkpt lat="48.65916" lon="-2.31165">
        <ele>66.7</ele>
        <time>2021-07-27T17:29:35Z</time>
      </trkpt>
      <trkpt lat="48.65912" lon="-2.31169">
        <ele>66.9</ele>
        <time>2021-07-27T17:29:36Z</time>
      </trkpt>
      <trkpt lat="48.65903" lon="-2.31175">
        <ele>67.2</ele>
        <time>2021-07-27T17:29:38Z</time>
      </trkpt>
      <trkpt lat="48.65901" lon="-2.31178">
        <ele>67.3</ele>
        <time>2021-07-27T17:29:39Z</time>
      </trkpt>
      <trkpt lat="48.65894" lon="-2.31184">
        <ele>67.5</ele>
        <time>2021-07-27T17:29:41Z</time>
      </trkpt>
      <trkpt lat="48.6589" lon="-2.31187">
        <ele>67.7</ele>
        <time>2021-07-27T17:29:42Z</time>
      </trkpt>
      <trkpt lat="48.65883" lon="-2.31195">
        <ele>68</ele>
        <time>2021-07-27T17:29:43Z</time>
      </trkpt>
      <trkpt lat="48.65876" lon="-2.31202">
        <ele>68.2</ele>
        <time>2021-07-27T17:29:45Z</time>
      </trkpt>
      <trkpt lat="48.65872" lon="-2.31212">
        <ele>68.3</ele>
        <time>2021-07-27T17:29:47Z</time>
      </trkpt>
      <trkpt lat="48.65869" lon="-2.31217">
        <ele>68.4</ele>
        <time>2021-07-27T17:29:48Z</time>
      </trkpt>
      <trkpt lat="48.65867" lon="-2.31221">
        <ele>68.4</ele>
        <time>2021-07-27T17:29:49Z</time>
      </trkpt>
      <trkpt lat="48.65863" lon="-2.31224">
        <ele>68.4</ele>
        <time>2021-07-27T17:29:50Z</time>
      </trkpt>
      <trkpt lat="48.6586" lon="-2.31225">
        <ele>68.5</ele>
        <time>2021-07-27T17:29:51Z</time>
      </trkpt>
      <trkpt lat="48.65855" lon="-2.31223">
        <ele>68.6</ele>
        <time>2021-07-27T17:29:53Z</time>
      </trkpt>
      <trkpt lat="48.65852" lon="-2.3122">
        <ele>68.6</ele>
        <time>2021-07-27T17:29:54Z</time>
      </trkpt>
      <trkpt lat="48.6585" lon="-2.31216">
        <ele>68.7</ele>
        <time>2021-07-27T17:29:55Z</time>
      </trkpt>
      <trkpt lat="48.65848" lon="-2.31215">
        <ele>68.7</ele>
        <time>2021-07-27T17:29:56Z</time>
      </trkpt>
      <trkpt lat="48.65846" lon="-2.31213">
        <ele>68.8</ele>
        <time>2021-07-27T17:29:57Z</time>
      </trkpt>
      <trkpt lat="48.65842" lon="-2.31209">
        <ele>69</ele>
        <time>2021-07-27T17:29:59Z</time>
      </trkpt>
      <trkpt lat="48.65838" lon="-2.31205">
        <ele>69</ele>
        <time>2021-07-27T17:30:01Z</time>
      </trkpt>
      <trkpt lat="48.65836" lon="-2.31198">
        <ele>69</ele>
        <time>2021-07-27T17:30:03Z</time>
      </trkpt>
      <trkpt lat="48.65836" lon="-2.31194">
        <ele>69</ele>
        <time>2021-07-27T17:30:04Z</time>
      </trkpt>
      <trkpt lat="48.65838" lon="-2.31193">
        <ele>69</ele>
        <time>2021-07-27T17:30:05Z</time>
      </trkpt>
      <trkpt lat="48.6584" lon="-2.31195">
        <ele>69</ele>
        <time>2021-07-27T17:30:06Z</time>
      </trkpt>
      <trkpt lat="48.65842" lon="-2.31205">
        <ele>69</ele>
        <time>2021-07-27T17:30:08Z</time>
      </trkpt>
      <trkpt lat="48.65841" lon="-2.31214">
        <ele>68.9</ele>
        <time>2021-07-27T17:30:10Z</time>
      </trkpt>
      <trkpt lat="48.65845" lon="-2.31219">
        <ele>68.7</ele>
        <time>2021-07-27T17:30:11Z</time>
      </trkpt>
      <trkpt lat="48.65846" lon="-2.31224">
        <ele>68.5</ele>
        <time>2021-07-27T17:30:12Z</time>
      </trkpt>
      <trkpt lat="48.65846" lon="-2.31237">
        <ele>68.1</ele>
        <time>2021-07-27T17:30:14Z</time>
      </trkpt>
      <trkpt lat="48.65846" lon="-2.31244">
        <ele>67.8</ele>
        <time>2021-07-27T17:30:15Z</time>
      </trkpt>
      <trkpt lat="48.65845" lon="-2.31261">
        <ele>67.1</ele>
        <time>2021-07-27T17:30:17Z</time>
      </trkpt>
      <trkpt lat="48.65844" lon="-2.3127">
        <ele>66.8</ele>
        <time>2021-07-27T17:30:18Z</time>
      </trkpt>
      <trkpt lat="48.65842" lon="-2.31286">
        <ele>66.1</ele>
        <time>2021-07-27T17:30:20Z</time>
      </trkpt>
      <trkpt lat="48.6584" lon="-2.31295">
        <ele>65.8</ele>
        <time>2021-07-27T17:30:21Z</time>
      </trkpt>
      <trkpt lat="48.65838" lon="-2.31311">
        <ele>65.2</ele>
        <time>2021-07-27T17:30:23Z</time>
      </trkpt>
      <trkpt lat="48.65837" lon="-2.3132">
        <ele>64.9</ele>
        <time>2021-07-27T17:30:24Z</time>
      </trkpt>
      <trkpt lat="48.65836" lon="-2.31328">
        <ele>64.7</ele>
        <time>2021-07-27T17:30:25Z</time>
      </trkpt>
      <trkpt lat="48.65831" lon="-2.31345">
        <ele>64.3</ele>
        <time>2021-07-27T17:30:27Z</time>
      </trkpt>
      <trkpt lat="48.65827" lon="-2.31353">
        <ele>64</ele>
        <time>2021-07-27T17:30:28Z</time>
      </trkpt>
      <trkpt lat="48.65823" lon="-2.31359">
        <ele>63.8</ele>
        <time>2021-07-27T17:30:29Z</time>
      </trkpt>
      <trkpt lat="48.65816" lon="-2.31373">
        <ele>63.3</ele>
        <time>2021-07-27T17:30:31Z</time>
      </trkpt>
      <trkpt lat="48.65813" lon="-2.3138">
        <ele>63</ele>
        <time>2021-07-27T17:30:32Z</time>
      </trkpt>
      <trkpt lat="48.65807" lon="-2.31396">
        <ele>62.5</ele>
        <time>2021-07-27T17:30:34Z</time>
      </trkpt>
      <trkpt lat="48.65802" lon="-2.31414">
        <ele>62</ele>
        <time>2021-07-27T17:30:36Z</time>
      </trkpt>
      <trkpt lat="48.658" lon="-2.31424">
        <ele>61.8</ele>
        <time>2021-07-27T17:30:37Z</time>
      </trkpt>
      <trkpt lat="48.65799" lon="-2.31434">
        <ele>61.7</ele>
        <time>2021-07-27T17:30:38Z</time>
      </trkpt>
      <trkpt lat="48.65797" lon="-2.31443">
        <ele>61.5</ele>
        <time>2021-07-27T17:30:39Z</time>
      </trkpt>
      <trkpt lat="48.65796" lon="-2.31452">
        <ele>61.4</ele>
        <time>2021-07-27T17:30:40Z</time>
      </trkpt>
      <trkpt lat="48.65795" lon="-2.31461">
        <ele>61.3</ele>
        <time>2021-07-27T17:30:41Z</time>
      </trkpt>
      <trkpt lat="48.65793" lon="-2.31469">
        <ele>61.2</ele>
        <time>2021-07-27T17:30:42Z</time>
      </trkpt>
      <trkpt lat="48.6579" lon="-2.31484">
        <ele>61</ele>
        <time>2021-07-27T17:30:44Z</time>
      </trkpt>
      <trkpt lat="48.65785" lon="-2.315">
        <ele>60.7</ele>
        <time>2021-07-27T17:30:46Z</time>
      </trkpt>
      <trkpt lat="48.65783" lon="-2.31508">
        <ele>60.5</ele>
        <time>2021-07-27T17:30:47Z</time>
      </trkpt>
      <trkpt lat="48.65781" lon="-2.31515">
        <ele>60.3</ele>
        <time>2021-07-27T17:30:48Z</time>
      </trkpt>
      <trkpt lat="48.6578" lon="-2.31522">
        <ele>60.1</ele>
        <time>2021-07-27T17:30:49Z</time>
      </trkpt>
      <trkpt lat="48.6578" lon="-2.31539">
        <ele>59.7</ele>
        <time>2021-07-27T17:30:51Z</time>
      </trkpt>
      <trkpt lat="48.6578" lon="-2.31558">
        <ele>59.1</ele>
        <time>2021-07-27T17:30:53Z</time>
      </trkpt>
      <trkpt lat="48.65781" lon="-2.31569">
        <ele>58.8</ele>
        <time>2021-07-27T17:30:54Z</time>
      </trkpt>
      <trkpt lat="48.65782" lon="-2.3158">
        <ele>58.5</ele>
        <time>2021-07-27T17:30:55Z</time>
      </trkpt>
      <trkpt lat="48.65784" lon="-2.31603">
        <ele>58</ele>
        <time>2021-07-27T17:30:57Z</time>
      </trkpt>
      <trkpt lat="48.65783" lon="-2.31621">
        <ele>57.5</ele>
        <time>2021-07-27T17:30:59Z</time>
      </trkpt>
      <trkpt lat="48.65783" lon="-2.31642">
        <ele>57.2</ele>
        <time>2021-07-27T17:31:01Z</time>
      </trkpt>
      <trkpt lat="48.65783" lon="-2.31652">
        <ele>57</ele>
        <time>2021-07-27T17:31:02Z</time>
      </trkpt>
      <trkpt lat="48.65783" lon="-2.31662">
        <ele>56.7</ele>
        <time>2021-07-27T17:31:03Z</time>
      </trkpt>
      <trkpt lat="48.65782" lon="-2.31683">
        <ele>56.3</ele>
        <time>2021-07-27T17:31:05Z</time>
      </trkpt>
      <trkpt lat="48.65782" lon="-2.31693">
        <ele>56.1</ele>
        <time>2021-07-27T17:31:06Z</time>
      </trkpt>
      <trkpt lat="48.65785" lon="-2.31713">
        <ele>55.8</ele>
        <time>2021-07-27T17:31:08Z</time>
      </trkpt>
      <trkpt lat="48.65789" lon="-2.31731">
        <ele>55.6</ele>
        <time>2021-07-27T17:31:10Z</time>
      </trkpt>
      <trkpt lat="48.65796" lon="-2.31747">
        <ele>55.4</ele>
        <time>2021-07-27T17:31:12Z</time>
      </trkpt>
      <trkpt lat="48.65798" lon="-2.31755">
        <ele>55.3</ele>
        <time>2021-07-27T17:31:13Z</time>
      </trkpt>
      <trkpt lat="48.65801" lon="-2.31773">
        <ele>55.1</ele>
        <time>2021-07-27T17:31:15Z</time>
      </trkpt>
      <trkpt lat="48.658" lon="-2.31782">
        <ele>55</ele>
        <time>2021-07-27T17:31:16Z</time>
      </trkpt>
      <trkpt lat="48.65799" lon="-2.31799">
        <ele>54.9</ele>
        <time>2021-07-27T17:31:18Z</time>
      </trkpt>
      <trkpt lat="48.65799" lon="-2.31806">
        <ele>54.9</ele>
        <time>2021-07-27T17:31:19Z</time>
      </trkpt>
      <trkpt lat="48.65799" lon="-2.31812">
        <ele>54.8</ele>
        <time>2021-07-27T17:31:20Z</time>
      </trkpt>
      <trkpt lat="48.65798" lon="-2.31819">
        <ele>54.8</ele>
        <time>2021-07-27T17:31:21Z</time>
      </trkpt>
      <trkpt lat="48.65797" lon="-2.31826">
        <ele>54.8</ele>
        <time>2021-07-27T17:31:22Z</time>
      </trkpt>
      <trkpt lat="48.65795" lon="-2.31836">
        <ele>54.7</ele>
        <time>2021-07-27T17:31:24Z</time>
      </trkpt>
      <trkpt lat="48.65794" lon="-2.31841">
        <ele>54.7</ele>
        <time>2021-07-27T17:31:25Z</time>
      </trkpt>
      <trkpt lat="48.6579" lon="-2.31856">
        <ele>54.6</ele>
        <time>2021-07-27T17:31:27Z</time>
      </trkpt>
      <trkpt lat="48.65786" lon="-2.31874">
        <ele>54.6</ele>
        <time>2021-07-27T17:31:29Z</time>
      </trkpt>
      <trkpt lat="48.65785" lon="-2.31882">
        <ele>54.6</ele>
        <time>2021-07-27T17:31:30Z</time>
      </trkpt>
      <trkpt lat="48.65782" lon="-2.3189">
        <ele>54.7</ele>
        <time>2021-07-27T17:31:31Z</time>
      </trkpt>
      <trkpt lat="48.65776" lon="-2.31903">
        <ele>54.7</ele>
        <time>2021-07-27T17:31:33Z</time>
      </trkpt>
      <trkpt lat="48.65769" lon="-2.31917">
        <ele>54.8</ele>
        <time>2021-07-27T17:31:35Z</time>
      </trkpt>
      <trkpt lat="48.65764" lon="-2.31922">
        <ele>54.8</ele>
        <time>2021-07-27T17:31:36Z</time>
      </trkpt>
      <trkpt lat="48.65759" lon="-2.31926">
        <ele>54.9</ele>
        <time>2021-07-27T17:31:37Z</time>
      </trkpt>
      <trkpt lat="48.65748" lon="-2.31931">
        <ele>54.9</ele>
        <time>2021-07-27T17:31:39Z</time>
      </trkpt>
      <trkpt lat="48.65737" lon="-2.31937">
        <ele>54.9</ele>
        <time>2021-07-27T17:31:41Z</time>
      </trkpt>
      <trkpt lat="48.65726" lon="-2.31943">
        <ele>55</ele>
        <time>2021-07-27T17:31:43Z</time>
      </trkpt>
      <trkpt lat="48.6572" lon="-2.31946">
        <ele>55</ele>
        <time>2021-07-27T17:31:44Z</time>
      </trkpt>
      <trkpt lat="48.6571" lon="-2.31951">
        <ele>55</ele>
        <time>2021-07-27T17:31:46Z</time>
      </trkpt>
      <trkpt lat="48.65701" lon="-2.31957">
        <ele>55.1</ele>
        <time>2021-07-27T17:31:48Z</time>
      </trkpt>
      <trkpt lat="48.65692" lon="-2.31961">
        <ele>55.2</ele>
        <time>2021-07-27T17:31:50Z</time>
      </trkpt>
      <trkpt lat="48.65684" lon="-2.31964">
        <ele>55.2</ele>
        <time>2021-07-27T17:31:52Z</time>
      </trkpt>
      <trkpt lat="48.65672" lon="-2.31965">
        <ele>55.3</ele>
        <time>2021-07-27T17:31:54Z</time>
      </trkpt>
      <trkpt lat="48.65666" lon="-2.31963">
        <ele>55.3</ele>
        <time>2021-07-27T17:31:55Z</time>
      </trkpt>
      <trkpt lat="48.65653" lon="-2.31959">
        <ele>55.3</ele>
        <time>2021-07-27T17:31:57Z</time>
      </trkpt>
      <trkpt lat="48.65641" lon="-2.31961">
        <ele>55.3</ele>
        <time>2021-07-27T17:31:59Z</time>
      </trkpt>
      <trkpt lat="48.6563" lon="-2.3197">
        <ele>55.3</ele>
        <time>2021-07-27T17:32:01Z</time>
      </trkpt>
      <trkpt lat="48.65626" lon="-2.31983">
        <ele>55.3</ele>
        <time>2021-07-27T17:32:03Z</time>
      </trkpt>
      <trkpt lat="48.65625" lon="-2.31998">
        <ele>55.3</ele>
        <time>2021-07-27T17:32:05Z</time>
      </trkpt>
      <trkpt lat="48.65625" lon="-2.32014">
        <ele>55.2</ele>
        <time>2021-07-27T17:32:07Z</time>
      </trkpt>
      <trkpt lat="48.65625" lon="-2.32022">
        <ele>55.3</ele>
        <time>2021-07-27T17:32:08Z</time>
      </trkpt>
      <trkpt lat="48.65627" lon="-2.32038">
        <ele>55.3</ele>
        <time>2021-07-27T17:32:10Z</time>
      </trkpt>
      <trkpt lat="48.65627" lon="-2.32053">
        <ele>55.3</ele>
        <time>2021-07-27T17:32:12Z</time>
      </trkpt>
      <trkpt lat="48.65624" lon="-2.32066">
        <ele>55.3</ele>
        <time>2021-07-27T17:32:14Z</time>
      </trkpt>
      <trkpt lat="48.65621" lon="-2.32071">
        <ele>55.3</ele>
        <time>2021-07-27T17:32:15Z</time>
      </trkpt>
      <trkpt lat="48.65616" lon="-2.32079">
        <ele>55.4</ele>
        <time>2021-07-27T17:32:17Z</time>
      </trkpt>
      <trkpt lat="48.65609" lon="-2.32091">
        <ele>55.5</ele>
        <time>2021-07-27T17:32:19Z</time>
      </trkpt>
      <trkpt lat="48.65603" lon="-2.32103">
        <ele>55.7</ele>
        <time>2021-07-27T17:32:21Z</time>
      </trkpt>
      <trkpt lat="48.656" lon="-2.32108">
        <ele>55.8</ele>
        <time>2021-07-27T17:32:22Z</time>
      </trkpt>
      <trkpt lat="48.65593" lon="-2.32119">
        <ele>56</ele>
        <time>2021-07-27T17:32:24Z</time>
      </trkpt>
      <trkpt lat="48.65587" lon="-2.32129">
        <ele>56.3</ele>
        <time>2021-07-27T17:32:26Z</time>
      </trkpt>
      <trkpt lat="48.65585" lon="-2.32133">
        <ele>56.4</ele>
        <time>2021-07-27T17:32:27Z</time>
      </trkpt>
      <trkpt lat="48.6558" lon="-2.3214">
        <ele>56.6</ele>
        <time>2021-07-27T17:32:29Z</time>
      </trkpt>
      <trkpt lat="48.65577" lon="-2.32145">
        <ele>56.7</ele>
        <time>2021-07-27T17:32:31Z</time>
      </trkpt>
      <trkpt lat="48.65574" lon="-2.3215">
        <ele>56.6</ele>
        <time>2021-07-27T17:32:33Z</time>
      </trkpt>
      <trkpt lat="48.65573" lon="-2.32155">
        <ele>56.5</ele>
        <time>2021-07-27T17:32:35Z</time>
      </trkpt>
      <trkpt lat="48.65573" lon="-2.32156">
        <ele>56.5</ele>
        <time>2021-07-27T17:32:36Z</time>
      </trkpt>
      <trkpt lat="48.65574" lon="-2.32156">
        <ele>56.5</ele>
        <time>2021-07-27T17:32:37Z</time>
      </trkpt>
      <trkpt lat="48.65574" lon="-2.32155">
        <ele>56.4</ele>
        <time>2021-07-27T17:32:39Z</time>
      </trkpt>
      <trkpt lat="48.65575" lon="-2.32153">
        <ele>56.4</ele>
        <time>2021-07-27T17:32:41Z</time>
      </trkpt>
      <trkpt lat="48.65576" lon="-2.32152">
        <ele>56.4</ele>
        <time>2021-07-27T17:32:42Z</time>
      </trkpt>
      <trkpt lat="48.65576" lon="-2.3215">
        <ele>56.3</ele>
        <time>2021-07-27T17:32:44Z</time>
      </trkpt>
      <trkpt lat="48.65577" lon="-2.32149">
        <ele>56.3</ele>
        <time>2021-07-27T17:32:45Z</time>
      </trkpt>
      <trkpt lat="48.65578" lon="-2.32147">
        <ele>56.3</ele>
        <time>2021-07-27T17:32:46Z</time>
      </trkpt>
      <trkpt lat="48.65578" lon="-2.32146">
        <ele>56.3</ele>
        <time>2021-07-27T17:32:47Z</time>
      </trkpt>
      <trkpt lat="48.65579" lon="-2.32144">
        <ele>56.2</ele>
        <time>2021-07-27T17:33:28Z</time>
      </trkpt>
      <trkpt lat="48.6558" lon="-2.32142">
        <ele>56.2</ele>
        <time>2021-07-27T17:33:29Z</time>
      </trkpt>
      <trkpt lat="48.6558" lon="-2.32141">
        <ele>56.2</ele>
        <time>2021-07-27T17:33:30Z</time>
      </trkpt>
      <trkpt lat="48.65583" lon="-2.32135">
        <ele>56.1</ele>
        <time>2021-07-27T17:33:31Z</time>
      </trkpt>
      <trkpt lat="48.65586" lon="-2.3213">
        <ele>55.9</ele>
        <time>2021-07-27T17:33:32Z</time>
      </trkpt>
      <trkpt lat="48.65592" lon="-2.32121">
        <ele>55.8</ele>
        <time>2021-07-27T17:33:34Z</time>
      </trkpt>
      <trkpt lat="48.65599" lon="-2.32109">
        <ele>55.6</ele>
        <time>2021-07-27T17:33:36Z</time>
      </trkpt>
      <trkpt lat="48.65606" lon="-2.32097">
        <ele>55.5</ele>
        <time>2021-07-27T17:33:38Z</time>
      </trkpt>
      <trkpt lat="48.6561" lon="-2.32091">
        <ele>55.4</ele>
        <time>2021-07-27T17:33:39Z</time>
      </trkpt>
      <trkpt lat="48.65614" lon="-2.32084">
        <ele>55.4</ele>
        <time>2021-07-27T17:33:40Z</time>
      </trkpt>
      <trkpt lat="48.65617" lon="-2.32078">
        <ele>55.3</ele>
        <time>2021-07-27T17:33:41Z</time>
      </trkpt>
      <trkpt lat="48.65623" lon="-2.32067">
        <ele>55.3</ele>
        <time>2021-07-27T17:33:43Z</time>
      </trkpt>
      <trkpt lat="48.65627" lon="-2.32053">
        <ele>55.3</ele>
        <time>2021-07-27T17:33:45Z</time>
      </trkpt>
      <trkpt lat="48.65627" lon="-2.32041">
        <ele>55.3</ele>
        <time>2021-07-27T17:33:47Z</time>
      </trkpt>
      <trkpt lat="48.65625" lon="-2.32039">
        <ele>55.2</ele>
        <time>2021-07-27T17:33:48Z</time>
      </trkpt>
      <trkpt lat="48.65618" lon="-2.32032">
        <ele>55.1</ele>
        <time>2021-07-27T17:33:50Z</time>
      </trkpt>
      <trkpt lat="48.65614" lon="-2.32028">
        <ele>55.1</ele>
        <time>2021-07-27T17:33:51Z</time>
      </trkpt>
      <trkpt lat="48.65607" lon="-2.32022">
        <ele>55</ele>
        <time>2021-07-27T17:33:53Z</time>
      </trkpt>
      <trkpt lat="48.65598" lon="-2.32021">
        <ele>55</ele>
        <time>2021-07-27T17:33:54Z</time>
      </trkpt>
      <trkpt lat="48.65595" lon="-2.32016">
        <ele>55.1</ele>
        <time>2021-07-27T17:33:55Z</time>
      </trkpt>
      <trkpt lat="48.65592" lon="-2.32011">
        <ele>55.2</ele>
        <time>2021-07-27T17:33:56Z</time>
      </trkpt>
      <trkpt lat="48.65589" lon="-2.32006">
        <ele>55.3</ele>
        <time>2021-07-27T17:33:57Z</time>
      </trkpt>
      <trkpt lat="48.65585" lon="-2.32002">
        <ele>55.5</ele>
        <time>2021-07-27T17:33:58Z</time>
      </trkpt>
      <trkpt lat="48.65579" lon="-2.31994">
        <ele>55.6</ele>
        <time>2021-07-27T17:34:00Z</time>
      </trkpt>
      <trkpt lat="48.65575" lon="-2.31989">
        <ele>55.7</ele>
        <time>2021-07-27T17:34:01Z</time>
      </trkpt>
      <trkpt lat="48.65571" lon="-2.31984">
        <ele>55.7</ele>
        <time>2021-07-27T17:34:03Z</time>
      </trkpt>
      <trkpt lat="48.65567" lon="-2.31979">
        <ele>55.7</ele>
        <time>2021-07-27T17:34:04Z</time>
      </trkpt>
      <trkpt lat="48.65561" lon="-2.31973">
        <ele>55.7</ele>
        <time>2021-07-27T17:34:05Z</time>
      </trkpt>
      <trkpt lat="48.65557" lon="-2.31968">
        <ele>55.7</ele>
        <time>2021-07-27T17:34:06Z</time>
      </trkpt>
      <trkpt lat="48.65553" lon="-2.31964">
        <ele>55.8</ele>
        <time>2021-07-27T17:34:08Z</time>
      </trkpt>
      <trkpt lat="48.6555" lon="-2.3196">
        <ele>55.9</ele>
        <time>2021-07-27T17:34:09Z</time>
      </trkpt>
      <trkpt lat="48.65545" lon="-2.31956">
        <ele>56.1</ele>
        <time>2021-07-27T17:34:10Z</time>
      </trkpt>
      <trkpt lat="48.65542" lon="-2.31952">
        <ele>56.3</ele>
        <time>2021-07-27T17:34:11Z</time>
      </trkpt>
      <trkpt lat="48.65538" lon="-2.31947">
        <ele>56.4</ele>
        <time>2021-07-27T17:34:12Z</time>
      </trkpt>
      <trkpt lat="48.65535" lon="-2.31942">
        <ele>56.5</ele>
        <time>2021-07-27T17:34:14Z</time>
      </trkpt>
      <trkpt lat="48.65532" lon="-2.31937">
        <ele>56.5</ele>
        <time>2021-07-27T17:34:15Z</time>
      </trkpt>
      <trkpt lat="48.65528" lon="-2.31927">
        <ele>56.6</ele>
        <time>2021-07-27T17:34:16Z</time>
      </trkpt>
      <trkpt lat="48.65525" lon="-2.31919">
        <ele>56.6</ele>
        <time>2021-07-27T17:34:18Z</time>
      </trkpt>
      <trkpt lat="48.65522" lon="-2.31909">
        <ele>56.6</ele>
        <time>2021-07-27T17:34:20Z</time>
      </trkpt>
      <trkpt lat="48.65519" lon="-2.31904">
        <ele>56.6</ele>
        <time>2021-07-27T17:34:21Z</time>
      </trkpt>
      <trkpt lat="48.65515" lon="-2.31899">
        <ele>56.6</ele>
        <time>2021-07-27T17:34:22Z</time>
      </trkpt>
      <trkpt lat="48.6551" lon="-2.31894">
        <ele>56.7</ele>
        <time>2021-07-27T17:34:24Z</time>
      </trkpt>
      <trkpt lat="48.65506" lon="-2.31891">
        <ele>56.8</ele>
        <time>2021-07-27T17:34:25Z</time>
      </trkpt>
      <trkpt lat="48.65503" lon="-2.31888">
        <ele>56.9</ele>
        <time>2021-07-27T17:34:26Z</time>
      </trkpt>
      <trkpt lat="48.65499" lon="-2.31883">
        <ele>57.1</ele>
        <time>2021-07-27T17:34:27Z</time>
      </trkpt>
      <trkpt lat="48.65496" lon="-2.31879">
        <ele>57.2</ele>
        <time>2021-07-27T17:34:28Z</time>
      </trkpt>
      <trkpt lat="48.65492" lon="-2.31875">
        <ele>57.2</ele>
        <time>2021-07-27T17:34:30Z</time>
      </trkpt>
      <trkpt lat="48.65489" lon="-2.31871">
        <ele>57.3</ele>
        <time>2021-07-27T17:34:31Z</time>
      </trkpt>
      <trkpt lat="48.65485" lon="-2.31867">
        <ele>57.3</ele>
        <time>2021-07-27T17:34:32Z</time>
      </trkpt>
      <trkpt lat="48.65482" lon="-2.31864">
        <ele>57.3</ele>
        <time>2021-07-27T17:34:33Z</time>
      </trkpt>
      <trkpt lat="48.65479" lon="-2.31861">
        <ele>57.3</ele>
        <time>2021-07-27T17:34:34Z</time>
      </trkpt>
      <trkpt lat="48.65476" lon="-2.31858">
        <ele>57.2</ele>
        <time>2021-07-27T17:34:36Z</time>
      </trkpt>
      <trkpt lat="48.65473" lon="-2.31855">
        <ele>57.2</ele>
        <time>2021-07-27T17:34:37Z</time>
      </trkpt>
      <trkpt lat="48.65469" lon="-2.31852">
        <ele>57.2</ele>
        <time>2021-07-27T17:34:38Z</time>
      </trkpt>
      <trkpt lat="48.65465" lon="-2.31849">
        <ele>57.2</ele>
        <time>2021-07-27T17:34:39Z</time>
      </trkpt>
      <trkpt lat="48.65461" lon="-2.31847">
        <ele>57.2</ele>
        <time>2021-07-27T17:34:40Z</time>
      </trkpt>
      <trkpt lat="48.65458" lon="-2.31844">
        <ele>57.2</ele>
        <time>2021-07-27T17:34:41Z</time>
      </trkpt>
      <trkpt lat="48.65455" lon="-2.31842">
        <ele>57.2</ele>
        <time>2021-07-27T17:34:42Z</time>
      </trkpt>
      <trkpt lat="48.6545" lon="-2.31838">
        <ele>57.3</ele>
        <time>2021-07-27T17:34:44Z</time>
      </trkpt>
      <trkpt lat="48.65446" lon="-2.31835">
        <ele>57.4</ele>
        <time>2021-07-27T17:34:45Z</time>
      </trkpt>
      <trkpt lat="48.65442" lon="-2.31833">
        <ele>57.4</ele>
        <time>2021-07-27T17:34:46Z</time>
      </trkpt>
      <trkpt lat="48.65437" lon="-2.31831">
        <ele>57.5</ele>
        <time>2021-07-27T17:34:47Z</time>
      </trkpt>
      <trkpt lat="48.65433" lon="-2.31829">
        <ele>57.5</ele>
        <time>2021-07-27T17:34:48Z</time>
      </trkpt>
      <trkpt lat="48.65429" lon="-2.31828">
        <ele>57.5</ele>
        <time>2021-07-27T17:34:49Z</time>
      </trkpt>
      <trkpt lat="48.65424" lon="-2.31828">
        <ele>57.5</ele>
        <time>2021-07-27T17:34:51Z</time>
      </trkpt>
      <trkpt lat="48.6542" lon="-2.31829">
        <ele>57.6</ele>
        <time>2021-07-27T17:34:52Z</time>
      </trkpt>
      <trkpt lat="48.65414" lon="-2.31829">
        <ele>57.7</ele>
        <time>2021-07-27T17:34:54Z</time>
      </trkpt>
      <trkpt lat="48.65409" lon="-2.3183">
        <ele>57.8</ele>
        <time>2021-07-27T17:34:55Z</time>
      </trkpt>
      <trkpt lat="48.65405" lon="-2.31832">
        <ele>57.9</ele>
        <time>2021-07-27T17:34:57Z</time>
      </trkpt>
      <trkpt lat="48.65402" lon="-2.31833">
        <ele>57.9</ele>
        <time>2021-07-27T17:34:58Z</time>
      </trkpt>
      <trkpt lat="48.65399" lon="-2.31833">
        <ele>58</ele>
        <time>2021-07-27T17:34:59Z</time>
      </trkpt>
      <trkpt lat="48.65399" lon="-2.31833">
        <ele>58</ele>
        <time>2021-07-27T17:35:01Z</time>
      </trkpt>
      <trkpt lat="48.654" lon="-2.31832">
        <ele>58</ele>
        <time>2021-07-27T17:35:02Z</time>
      </trkpt>
      <trkpt lat="48.65401" lon="-2.31831">
        <ele>58</ele>
        <time>2021-07-27T17:35:04Z</time>
      </trkpt>
      <trkpt lat="48.65401" lon="-2.31831">
        <ele>58</ele>
        <time>2021-07-27T17:35:06Z</time>
      </trkpt>
      <trkpt lat="48.65401" lon="-2.31831">
        <ele>58</ele>
        <time>2021-07-27T17:35:07Z</time>
      </trkpt>
      <trkpt lat="48.65401" lon="-2.31831">
        <ele>58</ele>
        <time>2021-07-27T17:35:09Z</time>
      </trkpt>
      <trkpt lat="48.65402" lon="-2.31832">
        <ele>58.1</ele>
        <time>2021-07-27T17:35:19Z</time>
      </trkpt>
      <trkpt lat="48.65399" lon="-2.31829">
        <ele>58.1</ele>
        <time>2021-07-27T17:35:20Z</time>
      </trkpt>
      <trkpt lat="48.65395" lon="-2.31821">
        <ele>58.2</ele>
        <time>2021-07-27T17:35:22Z</time>
      </trkpt>
      <trkpt lat="48.65393" lon="-2.31817">
        <ele>58.2</ele>
        <time>2021-07-27T17:35:23Z</time>
      </trkpt>
      <trkpt lat="48.65386" lon="-2.31809">
        <ele>58.2</ele>
        <time>2021-07-27T17:35:25Z</time>
      </trkpt>
      <trkpt lat="48.65381" lon="-2.31805">
        <ele>58.2</ele>
        <time>2021-07-27T17:35:26Z</time>
      </trkpt>
      <trkpt lat="48.65377" lon="-2.31801">
        <ele>58.3</ele>
        <time>2021-07-27T17:35:27Z</time>
      </trkpt>
      <trkpt lat="48.65367" lon="-2.31792">
        <ele>58.3</ele>
        <time>2021-07-27T17:35:29Z</time>
      </trkpt>
      <trkpt lat="48.65356" lon="-2.31784">
        <ele>58.3</ele>
        <time>2021-07-27T17:35:31Z</time>
      </trkpt>
      <trkpt lat="48.65345" lon="-2.31779">
        <ele>58.1</ele>
        <time>2021-07-27T17:35:33Z</time>
      </trkpt>
      <trkpt lat="48.6534" lon="-2.31776">
        <ele>58.1</ele>
        <time>2021-07-27T17:35:34Z</time>
      </trkpt>
      <trkpt lat="48.65331" lon="-2.3177">
        <ele>58.1</ele>
        <time>2021-07-27T17:35:36Z</time>
      </trkpt>
      <trkpt lat="48.65322" lon="-2.31764">
        <ele>58.1</ele>
        <time>2021-07-27T17:35:38Z</time>
      </trkpt>
      <trkpt lat="48.65313" lon="-2.31757">
        <ele>58.2</ele>
        <time>2021-07-27T17:35:40Z</time>
      </trkpt>
      <trkpt lat="48.65304" lon="-2.3175">
        <ele>58.3</ele>
        <time>2021-07-27T17:35:42Z</time>
      </trkpt>
      <trkpt lat="48.653" lon="-2.31747">
        <ele>58.3</ele>
        <time>2021-07-27T17:35:43Z</time>
      </trkpt>
      <trkpt lat="48.65291" lon="-2.3174">
        <ele>58.3</ele>
        <time>2021-07-27T17:35:45Z</time>
      </trkpt>
      <trkpt lat="48.65282" lon="-2.31733">
        <ele>58.3</ele>
        <time>2021-07-27T17:35:47Z</time>
      </trkpt>
      <trkpt lat="48.65278" lon="-2.31728">
        <ele>58.3</ele>
        <time>2021-07-27T17:35:48Z</time>
      </trkpt>
      <trkpt lat="48.65273" lon="-2.31723">
        <ele>58.3</ele>
        <time>2021-07-27T17:35:49Z</time>
      </trkpt>
      <trkpt lat="48.65264" lon="-2.31713">
        <ele>58.4</ele>
        <time>2021-07-27T17:35:51Z</time>
      </trkpt>
      <trkpt lat="48.65259" lon="-2.31708">
        <ele>58.5</ele>
        <time>2021-07-27T17:35:52Z</time>
      </trkpt>
      <trkpt lat="48.65256" lon="-2.31704">
        <ele>58.6</ele>
        <time>2021-07-27T17:35:53Z</time>
      </trkpt>
      <trkpt lat="48.65252" lon="-2.31699">
        <ele>58.7</ele>
        <time>2021-07-27T17:35:54Z</time>
      </trkpt>
      <trkpt lat="48.65245" lon="-2.31689">
        <ele>58.8</ele>
        <time>2021-07-27T17:35:56Z</time>
      </trkpt>
      <trkpt lat="48.6524" lon="-2.31684">
        <ele>58.9</ele>
        <time>2021-07-27T17:35:57Z</time>
      </trkpt>
      <trkpt lat="48.65233" lon="-2.31676">
        <ele>59</ele>
        <time>2021-07-27T17:35:59Z</time>
      </trkpt>
      <trkpt lat="48.65228" lon="-2.3167">
        <ele>59</ele>
        <time>2021-07-27T17:36:00Z</time>
      </trkpt>
      <trkpt lat="48.65224" lon="-2.31665">
        <ele>59.1</ele>
        <time>2021-07-27T17:36:01Z</time>
      </trkpt>
      <trkpt lat="48.65215" lon="-2.31654">
        <ele>59.2</ele>
        <time>2021-07-27T17:36:03Z</time>
      </trkpt>
      <trkpt lat="48.65205" lon="-2.31641">
        <ele>59.3</ele>
        <time>2021-07-27T17:36:05Z</time>
      </trkpt>
      <trkpt lat="48.65195" lon="-2.31628">
        <ele>59.4</ele>
        <time>2021-07-27T17:36:07Z</time>
      </trkpt>
      <trkpt lat="48.65187" lon="-2.31618">
        <ele>59.5</ele>
        <time>2021-07-27T17:36:09Z</time>
      </trkpt>
      <trkpt lat="48.65183" lon="-2.31614">
        <ele>59.5</ele>
        <time>2021-07-27T17:36:10Z</time>
      </trkpt>
      <trkpt lat="48.65178" lon="-2.31613">
        <ele>59.6</ele>
        <time>2021-07-27T17:36:11Z</time>
      </trkpt>
      <trkpt lat="48.65167" lon="-2.31619">
        <ele>59.6</ele>
        <time>2021-07-27T17:36:13Z</time>
      </trkpt>
      <trkpt lat="48.65157" lon="-2.3163">
        <ele>59.7</ele>
        <time>2021-07-27T17:36:15Z</time>
      </trkpt>
      <trkpt lat="48.65148" lon="-2.3164">
        <ele>59.7</ele>
        <time>2021-07-27T17:36:17Z</time>
      </trkpt>
      <trkpt lat="48.65139" lon="-2.31649">
        <ele>59.8</ele>
        <time>2021-07-27T17:36:19Z</time>
      </trkpt>
      <trkpt lat="48.65133" lon="-2.31654">
        <ele>59.8</ele>
        <time>2021-07-27T17:36:20Z</time>
      </trkpt>
      <trkpt lat="48.65122" lon="-2.31663">
        <ele>60</ele>
        <time>2021-07-27T17:36:22Z</time>
      </trkpt>
      <trkpt lat="48.65117" lon="-2.31667">
        <ele>60.2</ele>
        <time>2021-07-27T17:36:23Z</time>
      </trkpt>
      <trkpt lat="48.65107" lon="-2.31675">
        <ele>60.4</ele>
        <time>2021-07-27T17:36:25Z</time>
      </trkpt>
      <trkpt lat="48.65102" lon="-2.31679">
        <ele>60.5</ele>
        <time>2021-07-27T17:36:26Z</time>
      </trkpt>
      <trkpt lat="48.65092" lon="-2.31684">
        <ele>60.8</ele>
        <time>2021-07-27T17:36:28Z</time>
      </trkpt>
      <trkpt lat="48.65087" lon="-2.31685">
        <ele>60.9</ele>
        <time>2021-07-27T17:36:29Z</time>
      </trkpt>
      <trkpt lat="48.65083" lon="-2.31685">
        <ele>61.1</ele>
        <time>2021-07-27T17:36:30Z</time>
      </trkpt>
      <trkpt lat="48.65078" lon="-2.31682">
        <ele>61.3</ele>
        <time>2021-07-27T17:36:31Z</time>
      </trkpt>
      <trkpt lat="48.6507" lon="-2.31671">
        <ele>61.6</ele>
        <time>2021-07-27T17:36:33Z</time>
      </trkpt>
      <trkpt lat="48.65066" lon="-2.31665">
        <ele>61.7</ele>
        <time>2021-07-27T17:36:34Z</time>
      </trkpt>
      <trkpt lat="48.65057" lon="-2.31657">
        <ele>61.9</ele>
        <time>2021-07-27T17:36:36Z</time>
      </trkpt>
      <trkpt lat="48.65053" lon="-2.31655">
        <ele>62.1</ele>
        <time>2021-07-27T17:36:37Z</time>
      </trkpt>
      <trkpt lat="48.65048" lon="-2.31653">
        <ele>62.2</ele>
        <time>2021-07-27T17:36:38Z</time>
      </trkpt>
      <trkpt lat="48.65043" lon="-2.31652">
        <ele>62.3</ele>
        <time>2021-07-27T17:36:39Z</time>
      </trkpt>
      <trkpt lat="48.65034" lon="-2.3165">
        <ele>62.5</ele>
        <time>2021-07-27T17:36:41Z</time>
      </trkpt>
      <trkpt lat="48.65031" lon="-2.3165">
        <ele>62.5</ele>
        <time>2021-07-27T17:36:42Z</time>
      </trkpt>
      <trkpt lat="48.65023" lon="-2.31653">
        <ele>62.6</ele>
        <time>2021-07-27T17:36:44Z</time>
      </trkpt>
      <trkpt lat="48.65017" lon="-2.31661">
        <ele>62.5</ele>
        <time>2021-07-27T17:36:46Z</time>
      </trkpt>
      <trkpt lat="48.65014" lon="-2.31666">
        <ele>62.2</ele>
        <time>2021-07-27T17:36:47Z</time>
      </trkpt>
      <trkpt lat="48.65013" lon="-2.31668">
        <ele>62.2</ele>
        <time>2021-07-27T17:36:48Z</time>
      </trkpt>
      <trkpt lat="48.65014" lon="-2.31673">
        <ele>62</ele>
        <time>2021-07-27T17:36:49Z</time>
      </trkpt>
      <trkpt lat="48.6501" lon="-2.31676">
        <ele>61.7</ele>
        <time>2021-07-27T17:36:50Z</time>
      </trkpt>
      <trkpt lat="48.65002" lon="-2.31682">
        <ele>61.2</ele>
        <time>2021-07-27T17:36:52Z</time>
      </trkpt>
      <trkpt lat="48.64996" lon="-2.31689">
        <ele>60.9</ele>
        <time>2021-07-27T17:36:54Z</time>
      </trkpt>
      <trkpt lat="48.6499" lon="-2.31696">
        <ele>60.5</ele>
        <time>2021-07-27T17:36:55Z</time>
      </trkpt>
      <trkpt lat="48.64985" lon="-2.31704">
        <ele>60.3</ele>
        <time>2021-07-27T17:36:57Z</time>
      </trkpt>
      <trkpt lat="48.64982" lon="-2.31711">
        <ele>60.1</ele>
        <time>2021-07-27T17:36:58Z</time>
      </trkpt>
      <trkpt lat="48.64977" lon="-2.31721">
        <ele>59.9</ele>
        <time>2021-07-27T17:36:59Z</time>
      </trkpt>
      <trkpt lat="48.64974" lon="-2.31727">
        <ele>59.7</ele>
        <time>2021-07-27T17:37:00Z</time>
      </trkpt>
      <trkpt lat="48.64971" lon="-2.31734">
        <ele>59.6</ele>
        <time>2021-07-27T17:37:02Z</time>
      </trkpt>
      <trkpt lat="48.64968" lon="-2.31738">
        <ele>59.4</ele>
        <time>2021-07-27T17:37:03Z</time>
      </trkpt>
      <trkpt lat="48.64964" lon="-2.31744">
        <ele>59.3</ele>
        <time>2021-07-27T17:37:04Z</time>
      </trkpt>
      <trkpt lat="48.64959" lon="-2.31752">
        <ele>59.1</ele>
        <time>2021-07-27T17:37:05Z</time>
      </trkpt>
      <trkpt lat="48.64956" lon="-2.31756">
        <ele>58.9</ele>
        <time>2021-07-27T17:37:07Z</time>
      </trkpt>
      <trkpt lat="48.64953" lon="-2.31762">
        <ele>58.8</ele>
        <time>2021-07-27T17:37:08Z</time>
      </trkpt>
      <trkpt lat="48.6495" lon="-2.31766">
        <ele>58.7</ele>
        <time>2021-07-27T17:37:10Z</time>
      </trkpt>
      <trkpt lat="48.64949" lon="-2.31768">
        <ele>58.6</ele>
        <time>2021-07-27T17:37:11Z</time>
      </trkpt>
      <trkpt lat="48.64948" lon="-2.3177">
        <ele>58.6</ele>
        <time>2021-07-27T17:37:13Z</time>
      </trkpt>
      <trkpt lat="48.64947" lon="-2.31773">
        <ele>58.5</ele>
        <time>2021-07-27T17:37:14Z</time>
      </trkpt>
      <trkpt lat="48.64947" lon="-2.31774">
        <ele>58.5</ele>
        <time>2021-07-27T17:37:15Z</time>
      </trkpt>
      <trkpt lat="48.64946" lon="-2.31775">
        <ele>58.5</ele>
        <time>2021-07-27T17:37:16Z</time>
      </trkpt>
      <trkpt lat="48.64946" lon="-2.31776">
        <ele>58.5</ele>
        <time>2021-07-27T17:37:17Z</time>
      </trkpt>
      <trkpt lat="48.64942" lon="-2.31781">
        <ele>58.3</ele>
        <time>2021-07-27T17:37:19Z</time>
      </trkpt>
      <trkpt lat="48.6494" lon="-2.31785">
        <ele>58.3</ele>
        <time>2021-07-27T17:37:20Z</time>
      </trkpt>
      <trkpt lat="48.64937" lon="-2.3179">
        <ele>58.2</ele>
        <time>2021-07-27T17:37:21Z</time>
      </trkpt>
      <trkpt lat="48.64933" lon="-2.31796">
        <ele>58.1</ele>
        <time>2021-07-27T17:37:22Z</time>
      </trkpt>
      <trkpt lat="48.64931" lon="-2.31801">
        <ele>58</ele>
        <time>2021-07-27T17:37:24Z</time>
      </trkpt>
      <trkpt lat="48.64926" lon="-2.31809">
        <ele>57.9</ele>
        <time>2021-07-27T17:37:25Z</time>
      </trkpt>
      <trkpt lat="48.64923" lon="-2.31815">
        <ele>57.9</ele>
        <time>2021-07-27T17:37:26Z</time>
      </trkpt>
      <trkpt lat="48.6492" lon="-2.31822">
        <ele>57.8</ele>
        <time>2021-07-27T17:37:28Z</time>
      </trkpt>
      <trkpt lat="48.64918" lon="-2.31826">
        <ele>57.7</ele>
        <time>2021-07-27T17:37:29Z</time>
      </trkpt>
      <trkpt lat="48.64916" lon="-2.31829">
        <ele>57.7</ele>
        <time>2021-07-27T17:37:30Z</time>
      </trkpt>
      <trkpt lat="48.64913" lon="-2.31834">
        <ele>57.7</ele>
        <time>2021-07-27T17:37:32Z</time>
      </trkpt>
      <trkpt lat="48.64911" lon="-2.31838">
        <ele>57.6</ele>
        <time>2021-07-27T17:37:33Z</time>
      </trkpt>
      <trkpt lat="48.64909" lon="-2.31843">
        <ele>57.5</ele>
        <time>2021-07-27T17:37:34Z</time>
      </trkpt>
      <trkpt lat="48.64907" lon="-2.31846">
        <ele>57.5</ele>
        <time>2021-07-27T17:37:35Z</time>
      </trkpt>
      <trkpt lat="48.64905" lon="-2.3185">
        <ele>57.5</ele>
        <time>2021-07-27T17:37:36Z</time>
      </trkpt>
      <trkpt lat="48.64902" lon="-2.31854">
        <ele>57.4</ele>
        <time>2021-07-27T17:37:37Z</time>
      </trkpt>
      <trkpt lat="48.64899" lon="-2.31858">
        <ele>57.4</ele>
        <time>2021-07-27T17:37:39Z</time>
      </trkpt>
      <trkpt lat="48.64897" lon="-2.31861">
        <ele>57.3</ele>
        <time>2021-07-27T17:37:40Z</time>
      </trkpt>
      <trkpt lat="48.64895" lon="-2.31863">
        <ele>57.3</ele>
        <time>2021-07-27T17:37:42Z</time>
      </trkpt>
      <trkpt lat="48.64894" lon="-2.31865">
        <ele>57.3</ele>
        <time>2021-07-27T17:37:44Z</time>
      </trkpt>
      <trkpt lat="48.64894" lon="-2.31866">
        <ele>57.3</ele>
        <time>2021-07-27T17:37:45Z</time>
      </trkpt>
      <trkpt lat="48.64891" lon="-2.31868">
        <ele>57.2</ele>
        <time>2021-07-27T17:37:46Z</time>
      </trkpt>
      <trkpt lat="48.64888" lon="-2.31872">
        <ele>57.2</ele>
        <time>2021-07-27T17:37:48Z</time>
      </trkpt>
      <trkpt lat="48.64882" lon="-2.31878">
        <ele>57.2</ele>
        <time>2021-07-27T17:37:49Z</time>
      </trkpt>
      <trkpt lat="48.64878" lon="-2.31882">
        <ele>57.1</ele>
        <time>2021-07-27T17:37:51Z</time>
      </trkpt>
      <trkpt lat="48.64873" lon="-2.31887">
        <ele>57.1</ele>
        <time>2021-07-27T17:37:52Z</time>
      </trkpt>
      <trkpt lat="48.64867" lon="-2.31894">
        <ele>57.1</ele>
        <time>2021-07-27T17:37:53Z</time>
      </trkpt>
      <trkpt lat="48.64864" lon="-2.31897">
        <ele>57.1</ele>
        <time>2021-07-27T17:37:55Z</time>
      </trkpt>
      <trkpt lat="48.64861" lon="-2.31901">
        <ele>57</ele>
        <time>2021-07-27T17:37:56Z</time>
      </trkpt>
      <trkpt lat="48.64856" lon="-2.31905">
        <ele>57</ele>
        <time>2021-07-27T17:37:57Z</time>
      </trkpt>
      <trkpt lat="48.64853" lon="-2.31908">
        <ele>56.9</ele>
        <time>2021-07-27T17:37:58Z</time>
      </trkpt>
      <trkpt lat="48.64848" lon="-2.31912">
        <ele>56.9</ele>
        <time>2021-07-27T17:38:00Z</time>
      </trkpt>
      <trkpt lat="48.64841" lon="-2.31917">
        <ele>56.8</ele>
        <time>2021-07-27T17:38:01Z</time>
      </trkpt>
      <trkpt lat="48.64837" lon="-2.3192">
        <ele>56.8</ele>
        <time>2021-07-27T17:38:03Z</time>
      </trkpt>
      <trkpt lat="48.64833" lon="-2.31923">
        <ele>56.8</ele>
        <time>2021-07-27T17:38:04Z</time>
      </trkpt>
      <trkpt lat="48.64829" lon="-2.31926">
        <ele>56.7</ele>
        <time>2021-07-27T17:38:05Z</time>
      </trkpt>
      <trkpt lat="48.64825" lon="-2.31931">
        <ele>56.7</ele>
        <time>2021-07-27T17:38:06Z</time>
      </trkpt>
      <trkpt lat="48.6482" lon="-2.31935">
        <ele>56.8</ele>
        <time>2021-07-27T17:38:07Z</time>
      </trkpt>
      <trkpt lat="48.64815" lon="-2.31939">
        <ele>56.8</ele>
        <time>2021-07-27T17:38:09Z</time>
      </trkpt>
      <trkpt lat="48.6481" lon="-2.31943">
        <ele>56.9</ele>
        <time>2021-07-27T17:38:10Z</time>
      </trkpt>
      <trkpt lat="48.64803" lon="-2.31949">
        <ele>56.9</ele>
        <time>2021-07-27T17:38:11Z</time>
      </trkpt>
      <trkpt lat="48.64794" lon="-2.31957">
        <ele>57</ele>
        <time>2021-07-27T17:38:13Z</time>
      </trkpt>
      <trkpt lat="48.64789" lon="-2.31962">
        <ele>57</ele>
        <time>2021-07-27T17:38:14Z</time>
      </trkpt>
      <trkpt lat="48.64784" lon="-2.31967">
        <ele>57.1</ele>
        <time>2021-07-27T17:38:16Z</time>
      </trkpt>
      <trkpt lat="48.64775" lon="-2.31973">
        <ele>57.1</ele>
        <time>2021-07-27T17:38:17Z</time>
      </trkpt>
      <trkpt lat="48.64769" lon="-2.31978">
        <ele>57.1</ele>
        <time>2021-07-27T17:38:18Z</time>
      </trkpt>
      <trkpt lat="48.64763" lon="-2.31982">
        <ele>57.1</ele>
        <time>2021-07-27T17:38:19Z</time>
      </trkpt>
      <trkpt lat="48.64759" lon="-2.31986">
        <ele>57.1</ele>
        <time>2021-07-27T17:38:20Z</time>
      </trkpt>
      <trkpt lat="48.64754" lon="-2.31983">
        <ele>57.1</ele>
        <time>2021-07-27T17:38:21Z</time>
      </trkpt>
      <trkpt lat="48.64749" lon="-2.31984">
        <ele>57.1</ele>
        <time>2021-07-27T17:38:22Z</time>
      </trkpt>
      <trkpt lat="48.64744" lon="-2.31985">
        <ele>57.1</ele>
        <time>2021-07-27T17:38:24Z</time>
      </trkpt>
      <trkpt lat="48.64737" lon="-2.31995">
        <ele>57.2</ele>
        <time>2021-07-27T17:38:25Z</time>
      </trkpt>
      <trkpt lat="48.64733" lon="-2.31999">
        <ele>57.2</ele>
        <time>2021-07-27T17:38:26Z</time>
      </trkpt>
      <trkpt lat="48.64726" lon="-2.32006">
        <ele>57.3</ele>
        <time>2021-07-27T17:38:28Z</time>
      </trkpt>
      <trkpt lat="48.64722" lon="-2.32013">
        <ele>57.3</ele>
        <time>2021-07-27T17:38:29Z</time>
      </trkpt>
      <trkpt lat="48.64718" lon="-2.32017">
        <ele>57.4</ele>
        <time>2021-07-27T17:38:30Z</time>
      </trkpt>
      <trkpt lat="48.6471" lon="-2.32026">
        <ele>57.5</ele>
        <time>2021-07-27T17:38:32Z</time>
      </trkpt>
      <trkpt lat="48.64704" lon="-2.32036">
        <ele>57.6</ele>
        <time>2021-07-27T17:38:34Z</time>
      </trkpt>
      <trkpt lat="48.64697" lon="-2.32043">
        <ele>57.7</ele>
        <time>2021-07-27T17:38:36Z</time>
      </trkpt>
      <trkpt lat="48.64694" lon="-2.32046">
        <ele>57.7</ele>
        <time>2021-07-27T17:38:37Z</time>
      </trkpt>
      <trkpt lat="48.64692" lon="-2.32052">
        <ele>57.7</ele>
        <time>2021-07-27T17:38:38Z</time>
      </trkpt>
      <trkpt lat="48.6469" lon="-2.3206">
        <ele>57.6</ele>
        <time>2021-07-27T17:38:39Z</time>
      </trkpt>
      <trkpt lat="48.64687" lon="-2.32068">
        <ele>57.5</ele>
        <time>2021-07-27T17:38:41Z</time>
      </trkpt>
      <trkpt lat="48.64683" lon="-2.32073">
        <ele>57.4</ele>
        <time>2021-07-27T17:38:42Z</time>
      </trkpt>
      <trkpt lat="48.64679" lon="-2.3208">
        <ele>57.4</ele>
        <time>2021-07-27T17:38:43Z</time>
      </trkpt>
      <trkpt lat="48.64676" lon="-2.32086">
        <ele>57.3</ele>
        <time>2021-07-27T17:38:44Z</time>
      </trkpt>
      <trkpt lat="48.64669" lon="-2.32096">
        <ele>57.3</ele>
        <time>2021-07-27T17:38:46Z</time>
      </trkpt>
      <trkpt lat="48.64661" lon="-2.32106">
        <ele>57.2</ele>
        <time>2021-07-27T17:38:48Z</time>
      </trkpt>
      <trkpt lat="48.64658" lon="-2.32112">
        <ele>57.2</ele>
        <time>2021-07-27T17:38:49Z</time>
      </trkpt>
      <trkpt lat="48.64654" lon="-2.32117">
        <ele>57.2</ele>
        <time>2021-07-27T17:38:50Z</time>
      </trkpt>
      <trkpt lat="48.64647" lon="-2.32128">
        <ele>57.2</ele>
        <time>2021-07-27T17:38:52Z</time>
      </trkpt>
      <trkpt lat="48.64639" lon="-2.32139">
        <ele>57.2</ele>
        <time>2021-07-27T17:38:54Z</time>
      </trkpt>
      <trkpt lat="48.64635" lon="-2.32144">
        <ele>57.2</ele>
        <time>2021-07-27T17:38:55Z</time>
      </trkpt>
      <trkpt lat="48.64631" lon="-2.32149">
        <ele>57.2</ele>
        <time>2021-07-27T17:38:56Z</time>
      </trkpt>
      <trkpt lat="48.64624" lon="-2.3216">
        <ele>57.3</ele>
        <time>2021-07-27T17:38:58Z</time>
      </trkpt>
      <trkpt lat="48.6462" lon="-2.32166">
        <ele>57.3</ele>
        <time>2021-07-27T17:38:59Z</time>
      </trkpt>
      <trkpt lat="48.64613" lon="-2.32175">
        <ele>57.4</ele>
        <time>2021-07-27T17:39:01Z</time>
      </trkpt>
      <trkpt lat="48.64605" lon="-2.32185">
        <ele>57.4</ele>
        <time>2021-07-27T17:39:03Z</time>
      </trkpt>
      <trkpt lat="48.64601" lon="-2.32191">
        <ele>57.4</ele>
        <time>2021-07-27T17:39:04Z</time>
      </trkpt>
      <trkpt lat="48.64594" lon="-2.32203">
        <ele>57.5</ele>
        <time>2021-07-27T17:39:06Z</time>
      </trkpt>
      <trkpt lat="48.64591" lon="-2.3221">
        <ele>57.5</ele>
        <time>2021-07-27T17:39:07Z</time>
      </trkpt>
      <trkpt lat="48.64588" lon="-2.32216">
        <ele>57.5</ele>
        <time>2021-07-27T17:39:08Z</time>
      </trkpt>
      <trkpt lat="48.64585" lon="-2.32223">
        <ele>57.5</ele>
        <time>2021-07-27T17:39:09Z</time>
      </trkpt>
      <trkpt lat="48.64579" lon="-2.32236">
        <ele>57.4</ele>
        <time>2021-07-27T17:39:11Z</time>
      </trkpt>
      <trkpt lat="48.64576" lon="-2.32243">
        <ele>57.4</ele>
        <time>2021-07-27T17:39:12Z</time>
      </trkpt>
      <trkpt lat="48.64571" lon="-2.32255">
        <ele>57.4</ele>
        <time>2021-07-27T17:39:14Z</time>
      </trkpt>
      <trkpt lat="48.64569" lon="-2.3226">
        <ele>57.3</ele>
        <time>2021-07-27T17:39:15Z</time>
      </trkpt>
      <trkpt lat="48.64564" lon="-2.32271">
        <ele>57.3</ele>
        <time>2021-07-27T17:39:17Z</time>
      </trkpt>
      <trkpt lat="48.64563" lon="-2.32276">
        <ele>57.3</ele>
        <time>2021-07-27T17:39:18Z</time>
      </trkpt>
      <trkpt lat="48.64562" lon="-2.32282">
        <ele>57.3</ele>
        <time>2021-07-27T17:39:19Z</time>
      </trkpt>
      <trkpt lat="48.64559" lon="-2.32291">
        <ele>57.3</ele>
        <time>2021-07-27T17:39:21Z</time>
      </trkpt>
      <trkpt lat="48.64555" lon="-2.32299">
        <ele>57.3</ele>
        <time>2021-07-27T17:39:23Z</time>
      </trkpt>
      <trkpt lat="48.64553" lon="-2.32303">
        <ele>57.4</ele>
        <time>2021-07-27T17:39:24Z</time>
      </trkpt>
      <trkpt lat="48.64547" lon="-2.32312">
        <ele>57.4</ele>
        <time>2021-07-27T17:39:25Z</time>
      </trkpt>
      <trkpt lat="48.64543" lon="-2.3232">
        <ele>57.5</ele>
        <time>2021-07-27T17:39:28Z</time>
      </trkpt>
      <trkpt lat="48.6454" lon="-2.32325">
        <ele>57.5</ele>
        <time>2021-07-27T17:39:29Z</time>
      </trkpt>
      <trkpt lat="48.64538" lon="-2.32329">
        <ele>57.5</ele>
        <time>2021-07-27T17:39:30Z</time>
      </trkpt>
      <trkpt lat="48.64534" lon="-2.32341">
        <ele>57.7</ele>
        <time>2021-07-27T17:39:32Z</time>
      </trkpt>
      <trkpt lat="48.64533" lon="-2.32339">
        <ele>57.7</ele>
        <time>2021-07-27T17:39:33Z</time>
      </trkpt>
      <trkpt lat="48.64532" lon="-2.32336">
        <ele>57.7</ele>
        <time>2021-07-27T17:39:35Z</time>
      </trkpt>
      <trkpt lat="48.64532" lon="-2.32332">
        <ele>57.7</ele>
        <time>2021-07-27T17:39:36Z</time>
      </trkpt>
      <trkpt lat="48.64533" lon="-2.3233">
        <ele>57.7</ele>
        <time>2021-07-27T17:39:37Z</time>
      </trkpt>
      <trkpt lat="48.64534" lon="-2.32324">
        <ele>57.7</ele>
        <time>2021-07-27T17:39:39Z</time>
      </trkpt>
      <trkpt lat="48.64532" lon="-2.32319">
        <ele>57.7</ele>
        <time>2021-07-27T17:39:40Z</time>
      </trkpt>
      <trkpt lat="48.6453" lon="-2.32311">
        <ele>57.7</ele>
        <time>2021-07-27T17:39:42Z</time>
      </trkpt>
      <trkpt lat="48.64528" lon="-2.32307">
        <ele>57.7</ele>
        <time>2021-07-27T17:39:43Z</time>
      </trkpt>
      <trkpt lat="48.64522" lon="-2.32299">
        <ele>57.7</ele>
        <time>2021-07-27T17:39:45Z</time>
      </trkpt>
      <trkpt lat="48.64518" lon="-2.32295">
        <ele>57.7</ele>
        <time>2021-07-27T17:39:46Z</time>
      </trkpt>
      <trkpt lat="48.64508" lon="-2.32288">
        <ele>57.8</ele>
        <time>2021-07-27T17:39:48Z</time>
      </trkpt>
      <trkpt lat="48.64502" lon="-2.32272">
        <ele>57.8</ele>
        <time>2021-07-27T17:39:50Z</time>
      </trkpt>
      <trkpt lat="48.64496" lon="-2.32265">
        <ele>57.8</ele>
        <time>2021-07-27T17:39:52Z</time>
      </trkpt>
      <trkpt lat="48.64492" lon="-2.32263">
        <ele>57.9</ele>
        <time>2021-07-27T17:39:53Z</time>
      </trkpt>
      <trkpt lat="48.64488" lon="-2.32263">
        <ele>57.9</ele>
        <time>2021-07-27T17:39:54Z</time>
      </trkpt>
      <trkpt lat="48.64481" lon="-2.32259">
        <ele>57.9</ele>
        <time>2021-07-27T17:39:56Z</time>
      </trkpt>
      <trkpt lat="48.64478" lon="-2.32257">
        <ele>57.9</ele>
        <time>2021-07-27T17:39:57Z</time>
      </trkpt>
      <trkpt lat="48.64475" lon="-2.32255">
        <ele>57.9</ele>
        <time>2021-07-27T17:39:58Z</time>
      </trkpt>
      <trkpt lat="48.64471" lon="-2.32251">
        <ele>57.9</ele>
        <time>2021-07-27T17:39:59Z</time>
      </trkpt>
      <trkpt lat="48.64468" lon="-2.32248">
        <ele>57.9</ele>
        <time>2021-07-27T17:40:01Z</time>
      </trkpt>
      <trkpt lat="48.64466" lon="-2.32245">
        <ele>57.9</ele>
        <time>2021-07-27T17:40:02Z</time>
      </trkpt>
      <trkpt lat="48.64462" lon="-2.32239">
        <ele>57.9</ele>
        <time>2021-07-27T17:40:03Z</time>
      </trkpt>
      <trkpt lat="48.64458" lon="-2.32232">
        <ele>58</ele>
        <time>2021-07-27T17:40:05Z</time>
      </trkpt>
      <trkpt lat="48.64456" lon="-2.32227">
        <ele>58</ele>
        <time>2021-07-27T17:40:06Z</time>
      </trkpt>
      <trkpt lat="48.64454" lon="-2.32223">
        <ele>58</ele>
        <time>2021-07-27T17:40:07Z</time>
      </trkpt>
      <trkpt lat="48.64452" lon="-2.32219">
        <ele>58</ele>
        <time>2021-07-27T17:40:08Z</time>
      </trkpt>
      <trkpt lat="48.6445" lon="-2.32213">
        <ele>58</ele>
        <time>2021-07-27T17:40:09Z</time>
      </trkpt>
      <trkpt lat="48.64448" lon="-2.32207">
        <ele>58</ele>
        <time>2021-07-27T17:40:11Z</time>
      </trkpt>
      <trkpt lat="48.64445" lon="-2.32199">
        <ele>58</ele>
        <time>2021-07-27T17:40:12Z</time>
      </trkpt>
      <trkpt lat="48.64442" lon="-2.32189">
        <ele>58</ele>
        <time>2021-07-27T17:40:14Z</time>
      </trkpt>
      <trkpt lat="48.64437" lon="-2.32174">
        <ele>58.1</ele>
        <time>2021-07-27T17:40:16Z</time>
      </trkpt>
      <trkpt lat="48.64432" lon="-2.32159">
        <ele>58.1</ele>
        <time>2021-07-27T17:40:18Z</time>
      </trkpt>
      <trkpt lat="48.6443" lon="-2.32152">
        <ele>58.2</ele>
        <time>2021-07-27T17:40:19Z</time>
      </trkpt>
      <trkpt lat="48.64425" lon="-2.32138">
        <ele>58.2</ele>
        <time>2021-07-27T17:40:21Z</time>
      </trkpt>
      <trkpt lat="48.64419" lon="-2.32126">
        <ele>58.3</ele>
        <time>2021-07-27T17:40:23Z</time>
      </trkpt>
      <trkpt lat="48.64416" lon="-2.3212">
        <ele>58.3</ele>
        <time>2021-07-27T17:40:24Z</time>
      </trkpt>
      <trkpt lat="48.6441" lon="-2.32108">
        <ele>58.3</ele>
        <time>2021-07-27T17:40:26Z</time>
      </trkpt>
      <trkpt lat="48.64407" lon="-2.32102">
        <ele>58.4</ele>
        <time>2021-07-27T17:40:27Z</time>
      </trkpt>
      <trkpt lat="48.644" lon="-2.3209">
        <ele>58.4</ele>
        <time>2021-07-27T17:40:29Z</time>
      </trkpt>
      <trkpt lat="48.64394" lon="-2.32076">
        <ele>58.4</ele>
        <time>2021-07-27T17:40:31Z</time>
      </trkpt>
      <trkpt lat="48.6439" lon="-2.3207">
        <ele>58.5</ele>
        <time>2021-07-27T17:40:32Z</time>
      </trkpt>
      <trkpt lat="48.64384" lon="-2.32057">
        <ele>58.5</ele>
        <time>2021-07-27T17:40:34Z</time>
      </trkpt>
      <trkpt lat="48.6438" lon="-2.32049">
        <ele>58.5</ele>
        <time>2021-07-27T17:40:35Z</time>
      </trkpt>
      <trkpt lat="48.64373" lon="-2.32037">
        <ele>58.6</ele>
        <time>2021-07-27T17:40:37Z</time>
      </trkpt>
      <trkpt lat="48.64369" lon="-2.32032">
        <ele>58.6</ele>
        <time>2021-07-27T17:40:38Z</time>
      </trkpt>
      <trkpt lat="48.64365" lon="-2.32026">
        <ele>58.6</ele>
        <time>2021-07-27T17:40:39Z</time>
      </trkpt>
      <trkpt lat="48.6436" lon="-2.32018">
        <ele>58.7</ele>
        <time>2021-07-27T17:40:41Z</time>
      </trkpt>
      <trkpt lat="48.64354" lon="-2.3201">
        <ele>58.8</ele>
        <time>2021-07-27T17:40:43Z</time>
      </trkpt>
      <trkpt lat="48.64351" lon="-2.32008">
        <ele>58.8</ele>
        <time>2021-07-27T17:40:44Z</time>
      </trkpt>
      <trkpt lat="48.64344" lon="-2.32002">
        <ele>58.9</ele>
        <time>2021-07-27T17:40:46Z</time>
      </trkpt>
      <trkpt lat="48.64335" lon="-2.31996">
        <ele>58.9</ele>
        <time>2021-07-27T17:40:48Z</time>
      </trkpt>
      <trkpt lat="48.64326" lon="-2.31989">
        <ele>59</ele>
        <time>2021-07-27T17:40:50Z</time>
      </trkpt>
      <trkpt lat="48.64322" lon="-2.31986">
        <ele>59</ele>
        <time>2021-07-27T17:40:51Z</time>
      </trkpt>
      <trkpt lat="48.64313" lon="-2.31979">
        <ele>59.1</ele>
        <time>2021-07-27T17:40:53Z</time>
      </trkpt>
      <trkpt lat="48.64309" lon="-2.31975">
        <ele>59.1</ele>
        <time>2021-07-27T17:40:54Z</time>
      </trkpt>
      <trkpt lat="48.64306" lon="-2.31978">
        <ele>59.2</ele>
        <time>2021-07-27T17:40:55Z</time>
      </trkpt>
      <trkpt lat="48.643" lon="-2.31977">
        <ele>59.2</ele>
        <time>2021-07-27T17:40:56Z</time>
      </trkpt>
      <trkpt lat="48.64295" lon="-2.3197">
        <ele>59.3</ele>
        <time>2021-07-27T17:40:58Z</time>
      </trkpt>
      <trkpt lat="48.64292" lon="-2.31965">
        <ele>59.3</ele>
        <time>2021-07-27T17:40:59Z</time>
      </trkpt>
      <trkpt lat="48.64288" lon="-2.31961">
        <ele>59.4</ele>
        <time>2021-07-27T17:41:00Z</time>
      </trkpt>
      <trkpt lat="48.64285" lon="-2.31957">
        <ele>59.4</ele>
        <time>2021-07-27T17:41:01Z</time>
      </trkpt>
      <trkpt lat="48.64282" lon="-2.31952">
        <ele>59.4</ele>
        <time>2021-07-27T17:41:02Z</time>
      </trkpt>
      <trkpt lat="48.64278" lon="-2.31948">
        <ele>59.5</ele>
        <time>2021-07-27T17:41:03Z</time>
      </trkpt>
      <trkpt lat="48.64268" lon="-2.31937">
        <ele>59.5</ele>
        <time>2021-07-27T17:41:05Z</time>
      </trkpt>
      <trkpt lat="48.64263" lon="-2.31939">
        <ele>59.5</ele>
        <time>2021-07-27T17:41:06Z</time>
      </trkpt>
      <trkpt lat="48.64258" lon="-2.31935">
        <ele>59.5</ele>
        <time>2021-07-27T17:41:08Z</time>
      </trkpt>
      <trkpt lat="48.64254" lon="-2.31932">
        <ele>59.5</ele>
        <time>2021-07-27T17:41:09Z</time>
      </trkpt>
      <trkpt lat="48.64249" lon="-2.31929">
        <ele>59.5</ele>
        <time>2021-07-27T17:41:10Z</time>
      </trkpt>
      <trkpt lat="48.64239" lon="-2.31922">
        <ele>59.5</ele>
        <time>2021-07-27T17:41:12Z</time>
      </trkpt>
      <trkpt lat="48.64234" lon="-2.31917">
        <ele>59.5</ele>
        <time>2021-07-27T17:41:13Z</time>
      </trkpt>
      <trkpt lat="48.64227" lon="-2.31914">
        <ele>59.6</ele>
        <time>2021-07-27T17:41:15Z</time>
      </trkpt>
      <trkpt lat="48.64223" lon="-2.31913">
        <ele>59.6</ele>
        <time>2021-07-27T17:41:16Z</time>
      </trkpt>
      <trkpt lat="48.64219" lon="-2.3191">
        <ele>59.6</ele>
        <time>2021-07-27T17:41:17Z</time>
      </trkpt>
      <trkpt lat="48.64215" lon="-2.31908">
        <ele>59.6</ele>
        <time>2021-07-27T17:41:19Z</time>
      </trkpt>
      <trkpt lat="48.64209" lon="-2.31904">
        <ele>59.7</ele>
        <time>2021-07-27T17:41:20Z</time>
      </trkpt>
      <trkpt lat="48.64205" lon="-2.31899">
        <ele>59.7</ele>
        <time>2021-07-27T17:41:22Z</time>
      </trkpt>
      <trkpt lat="48.64202" lon="-2.31895">
        <ele>59.8</ele>
        <time>2021-07-27T17:41:23Z</time>
      </trkpt>
      <trkpt lat="48.64199" lon="-2.3189">
        <ele>59.8</ele>
        <time>2021-07-27T17:41:24Z</time>
      </trkpt>
      <trkpt lat="48.64195" lon="-2.31886">
        <ele>59.9</ele>
        <time>2021-07-27T17:41:25Z</time>
      </trkpt>
      <trkpt lat="48.6419" lon="-2.31878">
        <ele>60</ele>
        <time>2021-07-27T17:41:27Z</time>
      </trkpt>
      <trkpt lat="48.64188" lon="-2.31873">
        <ele>60.1</ele>
        <time>2021-07-27T17:41:28Z</time>
      </trkpt>
      <trkpt lat="48.64185" lon="-2.31868">
        <ele>60.2</ele>
        <time>2021-07-27T17:41:29Z</time>
      </trkpt>
      <trkpt lat="48.64181" lon="-2.3186">
        <ele>60.3</ele>
        <time>2021-07-27T17:41:30Z</time>
      </trkpt>
      <trkpt lat="48.64178" lon="-2.31853">
        <ele>60.4</ele>
        <time>2021-07-27T17:41:32Z</time>
      </trkpt>
      <trkpt lat="48.64177" lon="-2.31844">
        <ele>60.4</ele>
        <time>2021-07-27T17:41:34Z</time>
      </trkpt>
      <trkpt lat="48.64176" lon="-2.31837">
        <ele>60.5</ele>
        <time>2021-07-27T17:41:35Z</time>
      </trkpt>
      <trkpt lat="48.64174" lon="-2.31832">
        <ele>60.5</ele>
        <time>2021-07-27T17:41:36Z</time>
      </trkpt>
      <trkpt lat="48.6417" lon="-2.3183">
        <ele>60.5</ele>
        <time>2021-07-27T17:41:38Z</time>
      </trkpt>
      <trkpt lat="48.64167" lon="-2.31831">
        <ele>60.5</ele>
        <time>2021-07-27T17:41:39Z</time>
      </trkpt>
      <trkpt lat="48.64163" lon="-2.31831">
        <ele>60.4</ele>
        <time>2021-07-27T17:41:41Z</time>
      </trkpt>
      <trkpt lat="48.6416" lon="-2.31832">
        <ele>60.4</ele>
        <time>2021-07-27T17:41:42Z</time>
      </trkpt>
      <trkpt lat="48.64153" lon="-2.31831">
        <ele>60.3</ele>
        <time>2021-07-27T17:41:44Z</time>
      </trkpt>
      <trkpt lat="48.6415" lon="-2.3183">
        <ele>60.3</ele>
        <time>2021-07-27T17:41:45Z</time>
      </trkpt>
      <trkpt lat="48.64147" lon="-2.31828">
        <ele>60.3</ele>
        <time>2021-07-27T17:41:46Z</time>
      </trkpt>
      <trkpt lat="48.64143" lon="-2.31827">
        <ele>60.3</ele>
        <time>2021-07-27T17:41:48Z</time>
      </trkpt>
      <trkpt lat="48.6414" lon="-2.31825">
        <ele>60.3</ele>
        <time>2021-07-27T17:41:49Z</time>
      </trkpt>
      <trkpt lat="48.64135" lon="-2.31823">
        <ele>60.3</ele>
        <time>2021-07-27T17:41:51Z</time>
      </trkpt>
      <trkpt lat="48.64131" lon="-2.31822">
        <ele>60.3</ele>
        <time>2021-07-27T17:41:52Z</time>
      </trkpt>
      <trkpt lat="48.64127" lon="-2.3182">
        <ele>60.3</ele>
        <time>2021-07-27T17:41:53Z</time>
      </trkpt>
      <trkpt lat="48.64121" lon="-2.31816">
        <ele>60.3</ele>
        <time>2021-07-27T17:41:54Z</time>
      </trkpt>
      <trkpt lat="48.64117" lon="-2.31814">
        <ele>60.3</ele>
        <time>2021-07-27T17:41:56Z</time>
      </trkpt>
      <trkpt lat="48.6411" lon="-2.31811">
        <ele>60.4</ele>
        <time>2021-07-27T17:41:58Z</time>
      </trkpt>
      <trkpt lat="48.64105" lon="-2.31809">
        <ele>60.4</ele>
        <time>2021-07-27T17:41:59Z</time>
      </trkpt>
      <trkpt lat="48.64097" lon="-2.31809">
        <ele>60.5</ele>
        <time>2021-07-27T17:42:01Z</time>
      </trkpt>
      <trkpt lat="48.6409" lon="-2.31809">
        <ele>60.5</ele>
        <time>2021-07-27T17:42:02Z</time>
      </trkpt>
      <trkpt lat="48.64086" lon="-2.31811">
        <ele>60.6</ele>
        <time>2021-07-27T17:42:04Z</time>
      </trkpt>
      <trkpt lat="48.64079" lon="-2.31809">
        <ele>60.7</ele>
        <time>2021-07-27T17:42:06Z</time>
      </trkpt>
      <trkpt lat="48.64071" lon="-2.3181">
        <ele>60.8</ele>
        <time>2021-07-27T17:42:07Z</time>
      </trkpt>
      <trkpt lat="48.64066" lon="-2.31809">
        <ele>60.8</ele>
        <time>2021-07-27T17:42:09Z</time>
      </trkpt>
      <trkpt lat="48.64061" lon="-2.31807">
        <ele>60.9</ele>
        <time>2021-07-27T17:42:10Z</time>
      </trkpt>
      <trkpt lat="48.64057" lon="-2.31807">
        <ele>60.9</ele>
        <time>2021-07-27T17:42:11Z</time>
      </trkpt>
      <trkpt lat="48.6405" lon="-2.31807">
        <ele>61</ele>
        <time>2021-07-27T17:42:12Z</time>
      </trkpt>
      <trkpt lat="48.64045" lon="-2.31806">
        <ele>61.1</ele>
        <time>2021-07-27T17:42:14Z</time>
      </trkpt>
      <trkpt lat="48.64041" lon="-2.31806">
        <ele>61.1</ele>
        <time>2021-07-27T17:42:15Z</time>
      </trkpt>
      <trkpt lat="48.64035" lon="-2.31804">
        <ele>61.1</ele>
        <time>2021-07-27T17:42:16Z</time>
      </trkpt>
      <trkpt lat="48.64031" lon="-2.31802">
        <ele>61.1</ele>
        <time>2021-07-27T17:42:18Z</time>
      </trkpt>
      <trkpt lat="48.64023" lon="-2.318">
        <ele>61.1</ele>
        <time>2021-07-27T17:42:20Z</time>
      </trkpt>
      <trkpt lat="48.64019" lon="-2.31797">
        <ele>61.1</ele>
        <time>2021-07-27T17:42:21Z</time>
      </trkpt>
      <trkpt lat="48.64014" lon="-2.31794">
        <ele>61.2</ele>
        <time>2021-07-27T17:42:23Z</time>
      </trkpt>
      <trkpt lat="48.64009" lon="-2.31793">
        <ele>61.2</ele>
        <time>2021-07-27T17:42:24Z</time>
      </trkpt>
      <trkpt lat="48.64003" lon="-2.3179">
        <ele>61.3</ele>
        <time>2021-07-27T17:42:25Z</time>
      </trkpt>
      <trkpt lat="48.63997" lon="-2.31787">
        <ele>61.3</ele>
        <time>2021-07-27T17:42:27Z</time>
      </trkpt>
      <trkpt lat="48.63993" lon="-2.31784">
        <ele>61.4</ele>
        <time>2021-07-27T17:42:28Z</time>
      </trkpt>
      <trkpt lat="48.63989" lon="-2.31782">
        <ele>61.4</ele>
        <time>2021-07-27T17:42:29Z</time>
      </trkpt>
      <trkpt lat="48.63982" lon="-2.31778">
        <ele>61.5</ele>
        <time>2021-07-27T17:42:31Z</time>
      </trkpt>
      <trkpt lat="48.63975" lon="-2.31775">
        <ele>61.6</ele>
        <time>2021-07-27T17:42:33Z</time>
      </trkpt>
      <trkpt lat="48.63972" lon="-2.31774">
        <ele>61.6</ele>
        <time>2021-07-27T17:42:34Z</time>
      </trkpt>
      <trkpt lat="48.63969" lon="-2.31772">
        <ele>61.7</ele>
        <time>2021-07-27T17:42:35Z</time>
      </trkpt>
      <trkpt lat="48.63965" lon="-2.31767">
        <ele>61.8</ele>
        <time>2021-07-27T17:42:37Z</time>
      </trkpt>
      <trkpt lat="48.63963" lon="-2.31764">
        <ele>61.9</ele>
        <time>2021-07-27T17:42:38Z</time>
      </trkpt>
      <trkpt lat="48.63961" lon="-2.31762">
        <ele>61.9</ele>
        <time>2021-07-27T17:42:40Z</time>
      </trkpt>
      <trkpt lat="48.63961" lon="-2.31761">
        <ele>61.9</ele>
        <time>2021-07-27T17:42:42Z</time>
      </trkpt>
      <trkpt lat="48.63961" lon="-2.31761">
        <ele>61.9</ele>
        <time>2021-07-27T17:42:43Z</time>
      </trkpt>
      <trkpt lat="48.63961" lon="-2.31761">
        <ele>61.9</ele>
        <time>2021-07-27T17:42:45Z</time>
      </trkpt>
      <trkpt lat="48.63961" lon="-2.31761">
        <ele>61.9</ele>
        <time>2021-07-27T17:42:46Z</time>
      </trkpt>
      <trkpt lat="48.63961" lon="-2.31761">
        <ele>61.9</ele>
        <time>2021-07-27T17:42:47Z</time>
      </trkpt>
      <trkpt lat="48.63961" lon="-2.31761">
        <ele>61.9</ele>
        <time>2021-07-27T17:42:49Z</time>
      </trkpt>
      <trkpt lat="48.63961" lon="-2.31761">
        <ele>61.9</ele>
        <time>2021-07-27T17:42:51Z</time>
      </trkpt>
      <trkpt lat="48.63959" lon="-2.31765">
        <ele>61.8</ele>
        <time>2021-07-27T17:43:56Z</time>
      </trkpt>
      <trkpt lat="48.63959" lon="-2.31765">
        <ele>61.8</ele>
        <time>2021-07-27T17:43:58Z</time>
      </trkpt>
      <trkpt lat="48.63957" lon="-2.31768">
        <ele>61.8</ele>
        <time>2021-07-27T17:43:59Z</time>
      </trkpt>
      <trkpt lat="48.63956" lon="-2.31769">
        <ele>61.8</ele>
        <time>2021-07-27T17:44:00Z</time>
      </trkpt>
      <trkpt lat="48.63953" lon="-2.31771">
        <ele>61.8</ele>
        <time>2021-07-27T17:44:02Z</time>
      </trkpt>
      <trkpt lat="48.63948" lon="-2.31775">
        <ele>61.7</ele>
        <time>2021-07-27T17:44:03Z</time>
      </trkpt>
      <trkpt lat="48.63943" lon="-2.31777">
        <ele>61.7</ele>
        <time>2021-07-27T17:44:05Z</time>
      </trkpt>
      <trkpt lat="48.63938" lon="-2.3178">
        <ele>61.6</ele>
        <time>2021-07-27T17:44:06Z</time>
      </trkpt>
      <trkpt lat="48.63934" lon="-2.31783">
        <ele>61.6</ele>
        <time>2021-07-27T17:44:07Z</time>
      </trkpt>
      <trkpt lat="48.6393" lon="-2.31786">
        <ele>61.5</ele>
        <time>2021-07-27T17:44:09Z</time>
      </trkpt>
      <trkpt lat="48.63926" lon="-2.3179">
        <ele>61.4</ele>
        <time>2021-07-27T17:44:10Z</time>
      </trkpt>
      <trkpt lat="48.63921" lon="-2.31793">
        <ele>61.4</ele>
        <time>2021-07-27T17:44:11Z</time>
      </trkpt>
      <trkpt lat="48.63917" lon="-2.31796">
        <ele>61.4</ele>
        <time>2021-07-27T17:44:12Z</time>
      </trkpt>
      <trkpt lat="48.63913" lon="-2.31799">
        <ele>61.4</ele>
        <time>2021-07-27T17:44:13Z</time>
      </trkpt>
      <trkpt lat="48.63907" lon="-2.31802">
        <ele>61.4</ele>
        <time>2021-07-27T17:44:15Z</time>
      </trkpt>
      <trkpt lat="48.63899" lon="-2.31806">
        <ele>61.5</ele>
        <time>2021-07-27T17:44:16Z</time>
      </trkpt>
      <trkpt lat="48.63895" lon="-2.31808">
        <ele>61.6</ele>
        <time>2021-07-27T17:44:17Z</time>
      </trkpt>
      <trkpt lat="48.6389" lon="-2.31811">
        <ele>61.7</ele>
        <time>2021-07-27T17:44:19Z</time>
      </trkpt>
      <trkpt lat="48.63884" lon="-2.31817">
        <ele>61.8</ele>
        <time>2021-07-27T17:44:20Z</time>
      </trkpt>
      <trkpt lat="48.63879" lon="-2.31821">
        <ele>61.8</ele>
        <time>2021-07-27T17:44:21Z</time>
      </trkpt>
      <trkpt lat="48.63875" lon="-2.31825">
        <ele>61.8</ele>
        <time>2021-07-27T17:44:23Z</time>
      </trkpt>
      <trkpt lat="48.63871" lon="-2.31828">
        <ele>61.9</ele>
        <time>2021-07-27T17:44:24Z</time>
      </trkpt>
      <trkpt lat="48.63864" lon="-2.31833">
        <ele>61.9</ele>
        <time>2021-07-27T17:44:25Z</time>
      </trkpt>
      <trkpt lat="48.63857" lon="-2.31838">
        <ele>62</ele>
        <time>2021-07-27T17:44:27Z</time>
      </trkpt>
      <trkpt lat="48.63853" lon="-2.31842">
        <ele>62</ele>
        <time>2021-07-27T17:44:28Z</time>
      </trkpt>
      <trkpt lat="48.63848" lon="-2.31846">
        <ele>62.1</ele>
        <time>2021-07-27T17:44:29Z</time>
      </trkpt>
      <trkpt lat="48.63843" lon="-2.3185">
        <ele>62.1</ele>
        <time>2021-07-27T17:44:30Z</time>
      </trkpt>
      <trkpt lat="48.63834" lon="-2.31856">
        <ele>62.3</ele>
        <time>2021-07-27T17:44:32Z</time>
      </trkpt>
      <trkpt lat="48.6383" lon="-2.31859">
        <ele>62.3</ele>
        <time>2021-07-27T17:44:33Z</time>
      </trkpt>
      <trkpt lat="48.63826" lon="-2.31862">
        <ele>62.4</ele>
        <time>2021-07-27T17:44:34Z</time>
      </trkpt>
      <trkpt lat="48.63823" lon="-2.31864">
        <ele>62.4</ele>
        <time>2021-07-27T17:44:35Z</time>
      </trkpt>
      <trkpt lat="48.63814" lon="-2.31869">
        <ele>62.4</ele>
        <time>2021-07-27T17:44:37Z</time>
      </trkpt>
      <trkpt lat="48.6381" lon="-2.31873">
        <ele>62.4</ele>
        <time>2021-07-27T17:44:38Z</time>
      </trkpt>
      <trkpt lat="48.63805" lon="-2.31877">
        <ele>62.4</ele>
        <time>2021-07-27T17:44:39Z</time>
      </trkpt>
      <trkpt lat="48.638" lon="-2.31881">
        <ele>62.4</ele>
        <time>2021-07-27T17:44:40Z</time>
      </trkpt>
      <trkpt lat="48.63791" lon="-2.31888">
        <ele>62.3</ele>
        <time>2021-07-27T17:44:42Z</time>
      </trkpt>
      <trkpt lat="48.63786" lon="-2.31891">
        <ele>62.3</ele>
        <time>2021-07-27T17:44:43Z</time>
      </trkpt>
      <trkpt lat="48.63776" lon="-2.31897">
        <ele>62.2</ele>
        <time>2021-07-27T17:44:45Z</time>
      </trkpt>
      <trkpt lat="48.63771" lon="-2.31899">
        <ele>62.2</ele>
        <time>2021-07-27T17:44:46Z</time>
      </trkpt>
      <trkpt lat="48.63766" lon="-2.31902">
        <ele>62.1</ele>
        <time>2021-07-27T17:44:47Z</time>
      </trkpt>
      <trkpt lat="48.63756" lon="-2.31905">
        <ele>62.1</ele>
        <time>2021-07-27T17:44:49Z</time>
      </trkpt>
      <trkpt lat="48.63753" lon="-2.31906">
        <ele>62</ele>
        <time>2021-07-27T17:44:50Z</time>
      </trkpt>
      <trkpt lat="48.63743" lon="-2.31908">
        <ele>62</ele>
        <time>2021-07-27T17:44:52Z</time>
      </trkpt>
      <trkpt lat="48.63736" lon="-2.3191">
        <ele>61.9</ele>
        <time>2021-07-27T17:44:54Z</time>
      </trkpt>
      <trkpt lat="48.63731" lon="-2.31911">
        <ele>61.8</ele>
        <time>2021-07-27T17:44:56Z</time>
      </trkpt>
      <trkpt lat="48.63725" lon="-2.31909">
        <ele>61.7</ele>
        <time>2021-07-27T17:44:57Z</time>
      </trkpt>
      <trkpt lat="48.63713" lon="-2.3191">
        <ele>61.4</ele>
        <time>2021-07-27T17:44:59Z</time>
      </trkpt>
      <trkpt lat="48.63703" lon="-2.3191">
        <ele>61.2</ele>
        <time>2021-07-27T17:45:01Z</time>
      </trkpt>
      <trkpt lat="48.63693" lon="-2.3191">
        <ele>61</ele>
        <time>2021-07-27T17:45:03Z</time>
      </trkpt>
      <trkpt lat="48.63683" lon="-2.31911">
        <ele>60.8</ele>
        <time>2021-07-27T17:45:05Z</time>
      </trkpt>
      <trkpt lat="48.63673" lon="-2.31911">
        <ele>60.7</ele>
        <time>2021-07-27T17:45:07Z</time>
      </trkpt>
      <trkpt lat="48.63662" lon="-2.3191">
        <ele>60.5</ele>
        <time>2021-07-27T17:45:09Z</time>
      </trkpt>
      <trkpt lat="48.63656" lon="-2.31909">
        <ele>60.3</ele>
        <time>2021-07-27T17:45:10Z</time>
      </trkpt>
      <trkpt lat="48.6365" lon="-2.31909">
        <ele>60.1</ele>
        <time>2021-07-27T17:45:11Z</time>
      </trkpt>
      <trkpt lat="48.63639" lon="-2.31907">
        <ele>59.9</ele>
        <time>2021-07-27T17:45:13Z</time>
      </trkpt>
      <trkpt lat="48.63633" lon="-2.31907">
        <ele>59.8</ele>
        <time>2021-07-27T17:45:14Z</time>
      </trkpt>
      <trkpt lat="48.63622" lon="-2.31908">
        <ele>59.6</ele>
        <time>2021-07-27T17:45:16Z</time>
      </trkpt>
      <trkpt lat="48.63617" lon="-2.31908">
        <ele>59.6</ele>
        <time>2021-07-27T17:45:17Z</time>
      </trkpt>
      <trkpt lat="48.63612" lon="-2.31908">
        <ele>59.5</ele>
        <time>2021-07-27T17:45:18Z</time>
      </trkpt>
      <trkpt lat="48.63602" lon="-2.31911">
        <ele>59.5</ele>
        <time>2021-07-27T17:45:20Z</time>
      </trkpt>
      <trkpt lat="48.63599" lon="-2.31915">
        <ele>59.5</ele>
        <time>2021-07-27T17:45:21Z</time>
      </trkpt>
      <trkpt lat="48.63596" lon="-2.31918">
        <ele>59.5</ele>
        <time>2021-07-27T17:45:22Z</time>
      </trkpt>
      <trkpt lat="48.63592" lon="-2.31926">
        <ele>59.5</ele>
        <time>2021-07-27T17:45:24Z</time>
      </trkpt>
      <trkpt lat="48.6359" lon="-2.31936">
        <ele>59.5</ele>
        <time>2021-07-27T17:45:26Z</time>
      </trkpt>
      <trkpt lat="48.63589" lon="-2.31942">
        <ele>59.5</ele>
        <time>2021-07-27T17:45:27Z</time>
      </trkpt>
      <trkpt lat="48.63589" lon="-2.31949">
        <ele>59.5</ele>
        <time>2021-07-27T17:45:28Z</time>
      </trkpt>
      <trkpt lat="48.63587" lon="-2.31959">
        <ele>59.4</ele>
        <time>2021-07-27T17:45:30Z</time>
      </trkpt>
      <trkpt lat="48.63584" lon="-2.31968">
        <ele>59.4</ele>
        <time>2021-07-27T17:45:31Z</time>
      </trkpt>
      <trkpt lat="48.63577" lon="-2.31978">
        <ele>59.4</ele>
        <time>2021-07-27T17:45:33Z</time>
      </trkpt>
      <trkpt lat="48.63569" lon="-2.31984">
        <ele>59.2</ele>
        <time>2021-07-27T17:45:35Z</time>
      </trkpt>
      <trkpt lat="48.63565" lon="-2.31987">
        <ele>59.1</ele>
        <time>2021-07-27T17:45:36Z</time>
      </trkpt>
      <trkpt lat="48.6356" lon="-2.3199">
        <ele>59</ele>
        <time>2021-07-27T17:45:37Z</time>
      </trkpt>
      <trkpt lat="48.63556" lon="-2.31993">
        <ele>58.9</ele>
        <time>2021-07-27T17:45:38Z</time>
      </trkpt>
      <trkpt lat="48.63548" lon="-2.32001">
        <ele>58.6</ele>
        <time>2021-07-27T17:45:40Z</time>
      </trkpt>
      <trkpt lat="48.63543" lon="-2.32005">
        <ele>58.4</ele>
        <time>2021-07-27T17:45:41Z</time>
      </trkpt>
      <trkpt lat="48.63538" lon="-2.3201">
        <ele>58.3</ele>
        <time>2021-07-27T17:45:42Z</time>
      </trkpt>
      <trkpt lat="48.63528" lon="-2.32021">
        <ele>56.9</ele>
        <time>2021-07-27T17:45:44Z</time>
      </trkpt>
      <trkpt lat="48.63522" lon="-2.32026">
        <ele>56.4</ele>
        <time>2021-07-27T17:45:45Z</time>
      </trkpt>
      <trkpt lat="48.63516" lon="-2.32032">
        <ele>56</ele>
        <time>2021-07-27T17:45:46Z</time>
      </trkpt>
      <trkpt lat="48.6351" lon="-2.32039">
        <ele>55.5</ele>
        <time>2021-07-27T17:45:47Z</time>
      </trkpt>
      <trkpt lat="48.63497" lon="-2.32051">
        <ele>54.6</ele>
        <time>2021-07-27T17:45:49Z</time>
      </trkpt>
      <trkpt lat="48.63484" lon="-2.32063">
        <ele>53.9</ele>
        <time>2021-07-27T17:45:51Z</time>
      </trkpt>
      <trkpt lat="48.63478" lon="-2.32067">
        <ele>53.6</ele>
        <time>2021-07-27T17:45:52Z</time>
      </trkpt>
      <trkpt lat="48.63471" lon="-2.32072">
        <ele>53.3</ele>
        <time>2021-07-27T17:45:53Z</time>
      </trkpt>
      <trkpt lat="48.63458" lon="-2.32079">
        <ele>52.8</ele>
        <time>2021-07-27T17:45:55Z</time>
      </trkpt>
      <trkpt lat="48.63446" lon="-2.32087">
        <ele>52.3</ele>
        <time>2021-07-27T17:45:57Z</time>
      </trkpt>
      <trkpt lat="48.63434" lon="-2.32095">
        <ele>51.8</ele>
        <time>2021-07-27T17:45:59Z</time>
      </trkpt>
      <trkpt lat="48.63428" lon="-2.32099">
        <ele>51.6</ele>
        <time>2021-07-27T17:46:00Z</time>
      </trkpt>
      <trkpt lat="48.63418" lon="-2.32106">
        <ele>51.3</ele>
        <time>2021-07-27T17:46:02Z</time>
      </trkpt>
      <trkpt lat="48.6341" lon="-2.32109">
        <ele>51.1</ele>
        <time>2021-07-27T17:46:04Z</time>
      </trkpt>
      <trkpt lat="48.63406" lon="-2.32109">
        <ele>50.9</ele>
        <time>2021-07-27T17:46:05Z</time>
      </trkpt>
      <trkpt lat="48.63403" lon="-2.32109">
        <ele>50.8</ele>
        <time>2021-07-27T17:46:06Z</time>
      </trkpt>
      <trkpt lat="48.63395" lon="-2.32108">
        <ele>50.4</ele>
        <time>2021-07-27T17:46:08Z</time>
      </trkpt>
      <trkpt lat="48.6339" lon="-2.32106">
        <ele>50</ele>
        <time>2021-07-27T17:46:10Z</time>
      </trkpt>
      <trkpt lat="48.63383" lon="-2.32102">
        <ele>49.4</ele>
        <time>2021-07-27T17:46:11Z</time>
      </trkpt>
      <trkpt lat="48.63372" lon="-2.32095">
        <ele>48.3</ele>
        <time>2021-07-27T17:46:13Z</time>
      </trkpt>
      <trkpt lat="48.63367" lon="-2.3209">
        <ele>47.8</ele>
        <time>2021-07-27T17:46:14Z</time>
      </trkpt>
      <trkpt lat="48.63354" lon="-2.32084">
        <ele>46.6</ele>
        <time>2021-07-27T17:46:16Z</time>
      </trkpt>
      <trkpt lat="48.63339" lon="-2.32079">
        <ele>45.4</ele>
        <time>2021-07-27T17:46:18Z</time>
      </trkpt>
      <trkpt lat="48.63331" lon="-2.32077">
        <ele>44.7</ele>
        <time>2021-07-27T17:46:19Z</time>
      </trkpt>
      <trkpt lat="48.63317" lon="-2.32073">
        <ele>43.6</ele>
        <time>2021-07-27T17:46:21Z</time>
      </trkpt>
      <trkpt lat="48.6331" lon="-2.32072">
        <ele>43</ele>
        <time>2021-07-27T17:46:22Z</time>
      </trkpt>
      <trkpt lat="48.63303" lon="-2.32073">
        <ele>42.4</ele>
        <time>2021-07-27T17:46:23Z</time>
      </trkpt>
      <trkpt lat="48.6329" lon="-2.32074">
        <ele>41</ele>
        <time>2021-07-27T17:46:25Z</time>
      </trkpt>
      <trkpt lat="48.63284" lon="-2.32076">
        <ele>40.4</ele>
        <time>2021-07-27T17:46:26Z</time>
      </trkpt>
      <trkpt lat="48.63272" lon="-2.32081">
        <ele>38.8</ele>
        <time>2021-07-27T17:46:28Z</time>
      </trkpt>
      <trkpt lat="48.63255" lon="-2.32087">
        <ele>36.8</ele>
        <time>2021-07-27T17:46:30Z</time>
      </trkpt>
      <trkpt lat="48.63238" lon="-2.321">
        <ele>35</ele>
        <time>2021-07-27T17:46:32Z</time>
      </trkpt>
      <trkpt lat="48.63229" lon="-2.32108">
        <ele>34.1</ele>
        <time>2021-07-27T17:46:33Z</time>
      </trkpt>
      <trkpt lat="48.63215" lon="-2.32125">
        <ele>32.8</ele>
        <time>2021-07-27T17:46:35Z</time>
      </trkpt>
      <trkpt lat="48.63201" lon="-2.32136">
        <ele>31.8</ele>
        <time>2021-07-27T17:46:37Z</time>
      </trkpt>
      <trkpt lat="48.63194" lon="-2.32141">
        <ele>31.8</ele>
        <time>2021-07-27T17:46:38Z</time>
      </trkpt>
      <trkpt lat="48.6318" lon="-2.32152">
        <ele>30.7</ele>
        <time>2021-07-27T17:46:40Z</time>
      </trkpt>
      <trkpt lat="48.63173" lon="-2.32157">
        <ele>30.2</ele>
        <time>2021-07-27T17:46:41Z</time>
      </trkpt>
      <trkpt lat="48.63161" lon="-2.32165">
        <ele>28.9</ele>
        <time>2021-07-27T17:46:43Z</time>
      </trkpt>
      <trkpt lat="48.63155" lon="-2.32169">
        <ele>28.1</ele>
        <time>2021-07-27T17:46:44Z</time>
      </trkpt>
      <trkpt lat="48.63145" lon="-2.32177">
        <ele>26.7</ele>
        <time>2021-07-27T17:46:46Z</time>
      </trkpt>
      <trkpt lat="48.6314" lon="-2.32181">
        <ele>26.1</ele>
        <time>2021-07-27T17:46:47Z</time>
      </trkpt>
      <trkpt lat="48.6313" lon="-2.32191">
        <ele>25</ele>
        <time>2021-07-27T17:46:49Z</time>
      </trkpt>
      <trkpt lat="48.63125" lon="-2.32196">
        <ele>24.6</ele>
        <time>2021-07-27T17:46:50Z</time>
      </trkpt>
      <trkpt lat="48.63116" lon="-2.32206">
        <ele>24</ele>
        <time>2021-07-27T17:46:52Z</time>
      </trkpt>
      <trkpt lat="48.63113" lon="-2.3221">
        <ele>23.8</ele>
        <time>2021-07-27T17:46:53Z</time>
      </trkpt>
      <trkpt lat="48.63112" lon="-2.32212">
        <ele>23.7</ele>
        <time>2021-07-27T17:46:54Z</time>
      </trkpt>
      <trkpt lat="48.63109" lon="-2.32221">
        <ele>23.5</ele>
        <time>2021-07-27T17:46:56Z</time>
      </trkpt>
      <trkpt lat="48.63109" lon="-2.32224">
        <ele>23.5</ele>
        <time>2021-07-27T17:46:57Z</time>
      </trkpt>
      <trkpt lat="48.63112" lon="-2.32235">
        <ele>24.2</ele>
        <time>2021-07-27T17:46:59Z</time>
      </trkpt>
      <trkpt lat="48.63117" lon="-2.3224">
        <ele>24.6</ele>
        <time>2021-07-27T17:47:01Z</time>
      </trkpt>
      <trkpt lat="48.63119" lon="-2.32243">
        <ele>24.7</ele>
        <time>2021-07-27T17:47:02Z</time>
      </trkpt>
      <trkpt lat="48.63121" lon="-2.32251">
        <ele>25</ele>
        <time>2021-07-27T17:47:04Z</time>
      </trkpt>
      <trkpt lat="48.63123" lon="-2.32256">
        <ele>25.3</ele>
        <time>2021-07-27T17:47:05Z</time>
      </trkpt>
      <trkpt lat="48.63124" lon="-2.32259">
        <ele>25.5</ele>
        <time>2021-07-27T17:47:06Z</time>
      </trkpt>
      <trkpt lat="48.63126" lon="-2.32263">
        <ele>25.8</ele>
        <time>2021-07-27T17:47:08Z</time>
      </trkpt>
      <trkpt lat="48.63128" lon="-2.32268">
        <ele>26.2</ele>
        <time>2021-07-27T17:47:10Z</time>
      </trkpt>
      <trkpt lat="48.6313" lon="-2.32272">
        <ele>26.5</ele>
        <time>2021-07-27T17:47:12Z</time>
      </trkpt>
      <trkpt lat="48.63131" lon="-2.32274">
        <ele>26.7</ele>
        <time>2021-07-27T17:47:14Z</time>
      </trkpt>
      <trkpt lat="48.63131" lon="-2.32275">
        <ele>26.8</ele>
        <time>2021-07-27T17:47:15Z</time>
      </trkpt>
      <trkpt lat="48.63131" lon="-2.32276">
        <ele>26.9</ele>
        <time>2021-07-27T17:47:16Z</time>
      </trkpt>
      <trkpt lat="48.63131" lon="-2.32277">
        <ele>26.9</ele>
        <time>2021-07-27T17:47:17Z</time>
      </trkpt>
      <trkpt lat="48.63131" lon="-2.32278">
        <ele>27</ele>
        <time>2021-07-27T17:47:18Z</time>
      </trkpt>
      <trkpt lat="48.63131" lon="-2.32278">
        <ele>27</ele>
        <time>2021-07-27T17:47:20Z</time>
      </trkpt>
      <trkpt lat="48.63131" lon="-2.32279">
        <ele>27.1</ele>
        <time>2021-07-27T17:47:22Z</time>
      </trkpt>
      <trkpt lat="48.63132" lon="-2.32279">
        <ele>27.1</ele>
        <time>2021-07-27T17:47:24Z</time>
      </trkpt>
      <trkpt lat="48.63132" lon="-2.3228">
        <ele>27.2</ele>
        <time>2021-07-27T17:47:24Z</time>
      </trkpt>
      <trkpt lat="48.63132" lon="-2.32282">
        <ele>27.3</ele>
        <time>2021-07-27T17:47:25Z</time>
      </trkpt>
      <trkpt lat="48.63132" lon="-2.32282">
        <ele>27.4</ele>
        <time>2021-07-27T17:47:27Z</time>
      </trkpt>
      <trkpt lat="48.63132" lon="-2.32282">
        <ele>27.4</ele>
        <time>2021-07-27T17:47:28Z</time>
      </trkpt>
      <trkpt lat="48.63132" lon="-2.32282">
        <ele>27.4</ele>
        <time>2021-07-27T17:47:29Z</time>
      </trkpt>
      <trkpt lat="48.63132" lon="-2.32282">
        <ele>27.4</ele>
        <time>2021-07-27T17:47:31Z</time>
      </trkpt>
      <trkpt lat="48.63132" lon="-2.32282">
        <ele>27.4</ele>
        <time>2021-07-27T17:47:32Z</time>
      </trkpt>
      <trkpt lat="48.63134" lon="-2.32285">
        <ele>27.6</ele>
        <time>2021-07-27T17:47:34Z</time>
      </trkpt>
      <trkpt lat="48.63136" lon="-2.32289">
        <ele>28.1</ele>
        <time>2021-07-27T17:47:36Z</time>
      </trkpt>
      <trkpt lat="48.63137" lon="-2.3229">
        <ele>28.4</ele>
        <time>2021-07-27T17:47:37Z</time>
      </trkpt>
      <trkpt lat="48.63141" lon="-2.32293">
        <ele>28.9</ele>
        <time>2021-07-27T17:47:39Z</time>
      </trkpt>
      <trkpt lat="48.63143" lon="-2.32296">
        <ele>29.2</ele>
        <time>2021-07-27T17:47:40Z</time>
      </trkpt>
      <trkpt lat="48.63144" lon="-2.32297">
        <ele>29.4</ele>
        <time>2021-07-27T17:47:41Z</time>
      </trkpt>
      <trkpt lat="48.63146" lon="-2.32298">
        <ele>29.6</ele>
        <time>2021-07-27T17:47:42Z</time>
      </trkpt>
      <trkpt lat="48.6315" lon="-2.323">
        <ele>30.2</ele>
        <time>2021-07-27T17:47:44Z</time>
      </trkpt>
      <trkpt lat="48.63151" lon="-2.32301">
        <ele>30.3</ele>
        <time>2021-07-27T17:47:45Z</time>
      </trkpt>
      <trkpt lat="48.63152" lon="-2.32302">
        <ele>30.5</ele>
        <time>2021-07-27T17:47:46Z</time>
      </trkpt>
      <trkpt lat="48.63153" lon="-2.32303">
        <ele>30.6</ele>
        <time>2021-07-27T17:47:47Z</time>
      </trkpt>
      <trkpt lat="48.63156" lon="-2.32308">
        <ele>31.3</ele>
        <time>2021-07-27T17:47:49Z</time>
      </trkpt>
      <trkpt lat="48.63158" lon="-2.32311">
        <ele>31.6</ele>
        <time>2021-07-27T17:47:50Z</time>
      </trkpt>
      <trkpt lat="48.63161" lon="-2.32314">
        <ele>32</ele>
        <time>2021-07-27T17:47:52Z</time>
      </trkpt>
      <trkpt lat="48.63164" lon="-2.32317">
        <ele>32.4</ele>
        <time>2021-07-27T17:47:54Z</time>
      </trkpt>
      <trkpt lat="48.63166" lon="-2.32318">
        <ele>32.6</ele>
        <time>2021-07-27T17:47:55Z</time>
      </trkpt>
      <trkpt lat="48.63167" lon="-2.32319">
        <ele>32.8</ele>
        <time>2021-07-27T17:47:56Z</time>
      </trkpt>
      <trkpt lat="48.63169" lon="-2.32319">
        <ele>33</ele>
        <time>2021-07-27T17:47:58Z</time>
      </trkpt>
      <trkpt lat="48.6317" lon="-2.3232">
        <ele>33.2</ele>
        <time>2021-07-27T17:47:59Z</time>
      </trkpt>
      <trkpt lat="48.63174" lon="-2.32322">
        <ele>33.6</ele>
        <time>2021-07-27T17:48:00Z</time>
      </trkpt>
      <trkpt lat="48.63174" lon="-2.32324">
        <ele>33.8</ele>
        <time>2021-07-27T17:48:01Z</time>
      </trkpt>
      <trkpt lat="48.63176" lon="-2.32326">
        <ele>34.1</ele>
        <time>2021-07-27T17:48:03Z</time>
      </trkpt>
      <trkpt lat="48.63176" lon="-2.32327">
        <ele>34.1</ele>
        <time>2021-07-27T17:48:04Z</time>
      </trkpt>
      <trkpt lat="48.63179" lon="-2.32331">
        <ele>34.7</ele>
        <time>2021-07-27T17:48:06Z</time>
      </trkpt>
      <trkpt lat="48.6318" lon="-2.32333">
        <ele>34.8</ele>
        <time>2021-07-27T17:48:07Z</time>
      </trkpt>
      <trkpt lat="48.63182" lon="-2.32334">
        <ele>35.1</ele>
        <time>2021-07-27T17:48:09Z</time>
      </trkpt>
      <trkpt lat="48.63182" lon="-2.32336">
        <ele>35.3</ele>
        <time>2021-07-27T17:48:11Z</time>
      </trkpt>
      <trkpt lat="48.63184" lon="-2.32339">
        <ele>35.6</ele>
        <time>2021-07-27T17:48:12Z</time>
      </trkpt>
      <trkpt lat="48.63185" lon="-2.32344">
        <ele>36.1</ele>
        <time>2021-07-27T17:48:14Z</time>
      </trkpt>
      <trkpt lat="48.63185" lon="-2.32345">
        <ele>36.2</ele>
        <time>2021-07-27T17:48:15Z</time>
      </trkpt>
      <trkpt lat="48.63185" lon="-2.32345">
        <ele>36.2</ele>
        <time>2021-07-27T17:48:16Z</time>
      </trkpt>
      <trkpt lat="48.63186" lon="-2.32347">
        <ele>36.4</ele>
        <time>2021-07-27T17:48:17Z</time>
      </trkpt>
      <trkpt lat="48.63188" lon="-2.32353">
        <ele>37</ele>
        <time>2021-07-27T17:48:19Z</time>
      </trkpt>
      <trkpt lat="48.63189" lon="-2.32356">
        <ele>37.4</ele>
        <time>2021-07-27T17:48:21Z</time>
      </trkpt>
      <trkpt lat="48.63189" lon="-2.32357">
        <ele>37.4</ele>
        <time>2021-07-27T17:48:22Z</time>
      </trkpt>
      <trkpt lat="48.63191" lon="-2.32363">
        <ele>38.1</ele>
        <time>2021-07-27T17:48:24Z</time>
      </trkpt>
      <trkpt lat="48.63193" lon="-2.32368">
        <ele>38.6</ele>
        <time>2021-07-27T17:48:26Z</time>
      </trkpt>
      <trkpt lat="48.63194" lon="-2.32369">
        <ele>38.7</ele>
        <time>2021-07-27T17:48:27Z</time>
      </trkpt>
      <trkpt lat="48.63194" lon="-2.3237">
        <ele>38.8</ele>
        <time>2021-07-27T17:48:28Z</time>
      </trkpt>
      <trkpt lat="48.63195" lon="-2.32372">
        <ele>38.9</ele>
        <time>2021-07-27T17:48:30Z</time>
      </trkpt>
      <trkpt lat="48.63195" lon="-2.32373">
        <ele>39</ele>
        <time>2021-07-27T17:48:31Z</time>
      </trkpt>
      <trkpt lat="48.63196" lon="-2.32376">
        <ele>39.4</ele>
        <time>2021-07-27T17:48:32Z</time>
      </trkpt>
      <trkpt lat="48.63197" lon="-2.32378">
        <ele>39.6</ele>
        <time>2021-07-27T17:48:34Z</time>
      </trkpt>
      <trkpt lat="48.63199" lon="-2.32383">
        <ele>40</ele>
        <time>2021-07-27T17:48:35Z</time>
      </trkpt>
      <trkpt lat="48.63199" lon="-2.32384">
        <ele>40.2</ele>
        <time>2021-07-27T17:48:36Z</time>
      </trkpt>
      <trkpt lat="48.63201" lon="-2.32389">
        <ele>40.7</ele>
        <time>2021-07-27T17:48:38Z</time>
      </trkpt>
      <trkpt lat="48.63201" lon="-2.3239">
        <ele>40.8</ele>
        <time>2021-07-27T17:48:39Z</time>
      </trkpt>
      <trkpt lat="48.63202" lon="-2.32393">
        <ele>41.2</ele>
        <time>2021-07-27T17:48:41Z</time>
      </trkpt>
      <trkpt lat="48.63202" lon="-2.32395">
        <ele>41.3</ele>
        <time>2021-07-27T17:48:42Z</time>
      </trkpt>
      <trkpt lat="48.63204" lon="-2.32399">
        <ele>41.8</ele>
        <time>2021-07-27T17:48:44Z</time>
      </trkpt>
      <trkpt lat="48.63205" lon="-2.32403">
        <ele>42.3</ele>
        <time>2021-07-27T17:48:45Z</time>
      </trkpt>
      <trkpt lat="48.63205" lon="-2.32404">
        <ele>42.3</ele>
        <time>2021-07-27T17:48:46Z</time>
      </trkpt>
      <trkpt lat="48.63205" lon="-2.32405">
        <ele>42.4</ele>
        <time>2021-07-27T17:48:47Z</time>
      </trkpt>
      <trkpt lat="48.63206" lon="-2.32407">
        <ele>42.6</ele>
        <time>2021-07-27T17:48:48Z</time>
      </trkpt>
      <trkpt lat="48.63207" lon="-2.32411">
        <ele>43.1</ele>
        <time>2021-07-27T17:48:50Z</time>
      </trkpt>
      <trkpt lat="48.63208" lon="-2.32415">
        <ele>43.6</ele>
        <time>2021-07-27T17:48:51Z</time>
      </trkpt>
      <trkpt lat="48.63208" lon="-2.32416">
        <ele>43.7</ele>
        <time>2021-07-27T17:48:53Z</time>
      </trkpt>
      <trkpt lat="48.63209" lon="-2.32418">
        <ele>44</ele>
        <time>2021-07-27T17:48:54Z</time>
      </trkpt>
      <trkpt lat="48.63211" lon="-2.32426">
        <ele>44.9</ele>
        <time>2021-07-27T17:48:56Z</time>
      </trkpt>
      <trkpt lat="48.63212" lon="-2.32428">
        <ele>45.2</ele>
        <time>2021-07-27T17:48:58Z</time>
      </trkpt>
      <trkpt lat="48.63212" lon="-2.3243">
        <ele>45.4</ele>
        <time>2021-07-27T17:48:59Z</time>
      </trkpt>
      <trkpt lat="48.63213" lon="-2.32435">
        <ele>46</ele>
        <time>2021-07-27T17:49:00Z</time>
      </trkpt>
      <trkpt lat="48.63214" lon="-2.32437">
        <ele>46.3</ele>
        <time>2021-07-27T17:49:01Z</time>
      </trkpt>
      <trkpt lat="48.63214" lon="-2.32439">
        <ele>46.5</ele>
        <time>2021-07-27T17:49:02Z</time>
      </trkpt>
      <trkpt lat="48.63214" lon="-2.32441">
        <ele>46.8</ele>
        <time>2021-07-27T17:49:03Z</time>
      </trkpt>
      <trkpt lat="48.63214" lon="-2.32442">
        <ele>46.9</ele>
        <time>2021-07-27T17:49:04Z</time>
      </trkpt>
      <trkpt lat="48.63215" lon="-2.32447">
        <ele>47.6</ele>
        <time>2021-07-27T17:49:06Z</time>
      </trkpt>
      <trkpt lat="48.63215" lon="-2.32448">
        <ele>47.7</ele>
        <time>2021-07-27T17:49:07Z</time>
      </trkpt>
      <trkpt lat="48.63216" lon="-2.32454">
        <ele>48.6</ele>
        <time>2021-07-27T17:49:09Z</time>
      </trkpt>
      <trkpt lat="48.63217" lon="-2.32457">
        <ele>48.9</ele>
        <time>2021-07-27T17:49:10Z</time>
      </trkpt>
      <trkpt lat="48.63218" lon="-2.32463">
        <ele>49.8</ele>
        <time>2021-07-27T17:49:12Z</time>
      </trkpt>
      <trkpt lat="48.63219" lon="-2.32465">
        <ele>50.1</ele>
        <time>2021-07-27T17:49:13Z</time>
      </trkpt>
      <trkpt lat="48.63219" lon="-2.32468">
        <ele>50.4</ele>
        <time>2021-07-27T17:49:14Z</time>
      </trkpt>
      <trkpt lat="48.6322" lon="-2.32472">
        <ele>51</ele>
        <time>2021-07-27T17:49:16Z</time>
      </trkpt>
      <trkpt lat="48.63221" lon="-2.32476">
        <ele>51.5</ele>
        <time>2021-07-27T17:49:17Z</time>
      </trkpt>
      <trkpt lat="48.63223" lon="-2.32481">
        <ele>52.2</ele>
        <time>2021-07-27T17:49:19Z</time>
      </trkpt>
      <trkpt lat="48.63225" lon="-2.32486">
        <ele>52.8</ele>
        <time>2021-07-27T17:49:21Z</time>
      </trkpt>
      <trkpt lat="48.63226" lon="-2.32488">
        <ele>53.1</ele>
        <time>2021-07-27T17:49:22Z</time>
      </trkpt>
      <trkpt lat="48.63228" lon="-2.32491">
        <ele>53.6</ele>
        <time>2021-07-27T17:49:24Z</time>
      </trkpt>
      <trkpt lat="48.63229" lon="-2.32495">
        <ele>53.9</ele>
        <time>2021-07-27T17:49:25Z</time>
      </trkpt>
      <trkpt lat="48.6323" lon="-2.32498">
        <ele>54.4</ele>
        <time>2021-07-27T17:49:27Z</time>
      </trkpt>
      <trkpt lat="48.63231" lon="-2.325">
        <ele>54.5</ele>
        <time>2021-07-27T17:49:28Z</time>
      </trkpt>
      <trkpt lat="48.63233" lon="-2.32502">
        <ele>54.9</ele>
        <time>2021-07-27T17:49:30Z</time>
      </trkpt>
      <trkpt lat="48.63236" lon="-2.32505">
        <ele>55.2</ele>
        <time>2021-07-27T17:49:32Z</time>
      </trkpt>
      <trkpt lat="48.63237" lon="-2.32506">
        <ele>55.3</ele>
        <time>2021-07-27T17:49:33Z</time>
      </trkpt>
      <trkpt lat="48.6324" lon="-2.32511">
        <ele>55.7</ele>
        <time>2021-07-27T17:49:35Z</time>
      </trkpt>
      <trkpt lat="48.63241" lon="-2.32512">
        <ele>55.8</ele>
        <time>2021-07-27T17:49:36Z</time>
      </trkpt>
      <trkpt lat="48.63242" lon="-2.32513">
        <ele>55.9</ele>
        <time>2021-07-27T17:49:37Z</time>
      </trkpt>
      <trkpt lat="48.63244" lon="-2.32514">
        <ele>56</ele>
        <time>2021-07-27T17:49:38Z</time>
      </trkpt>
      <trkpt lat="48.63246" lon="-2.32517">
        <ele>56.2</ele>
        <time>2021-07-27T17:49:40Z</time>
      </trkpt>
      <trkpt lat="48.63249" lon="-2.3252">
        <ele>56.4</ele>
        <time>2021-07-27T17:49:41Z</time>
      </trkpt>
      <trkpt lat="48.6325" lon="-2.32521">
        <ele>56.5</ele>
        <time>2021-07-27T17:49:42Z</time>
      </trkpt>
      <trkpt lat="48.63251" lon="-2.32529">
        <ele>56.7</ele>
        <time>2021-07-27T17:49:44Z</time>
      </trkpt>
      <trkpt lat="48.63251" lon="-2.32532">
        <ele>56.7</ele>
        <time>2021-07-27T17:49:46Z</time>
      </trkpt>
      <trkpt lat="48.63251" lon="-2.32535">
        <ele>56.8</ele>
        <time>2021-07-27T17:49:47Z</time>
      </trkpt>
      <trkpt lat="48.63252" lon="-2.32538">
        <ele>56.9</ele>
        <time>2021-07-27T17:49:48Z</time>
      </trkpt>
      <trkpt lat="48.63252" lon="-2.32544">
        <ele>56.9</ele>
        <time>2021-07-27T17:49:50Z</time>
      </trkpt>
      <trkpt lat="48.63252" lon="-2.32548">
        <ele>57</ele>
        <time>2021-07-27T17:49:52Z</time>
      </trkpt>
      <trkpt lat="48.63253" lon="-2.32553">
        <ele>57</ele>
        <time>2021-07-27T17:49:54Z</time>
      </trkpt>
      <trkpt lat="48.63253" lon="-2.32557">
        <ele>57</ele>
        <time>2021-07-27T17:49:55Z</time>
      </trkpt>
      <trkpt lat="48.63254" lon="-2.32563">
        <ele>57.1</ele>
        <time>2021-07-27T17:49:57Z</time>
      </trkpt>
      <trkpt lat="48.63255" lon="-2.32569">
        <ele>57.1</ele>
        <time>2021-07-27T17:49:58Z</time>
      </trkpt>
      <trkpt lat="48.63256" lon="-2.32571">
        <ele>57.1</ele>
        <time>2021-07-27T17:49:59Z</time>
      </trkpt>
      <trkpt lat="48.63258" lon="-2.32575">
        <ele>57.1</ele>
        <time>2021-07-27T17:50:01Z</time>
      </trkpt>
      <trkpt lat="48.6326" lon="-2.32578">
        <ele>57.1</ele>
        <time>2021-07-27T17:50:02Z</time>
      </trkpt>
      <trkpt lat="48.63262" lon="-2.3258">
        <ele>57.1</ele>
        <time>2021-07-27T17:50:03Z</time>
      </trkpt>
      <trkpt lat="48.63266" lon="-2.3258">
        <ele>57.1</ele>
        <time>2021-07-27T17:50:04Z</time>
      </trkpt>
      <trkpt lat="48.63268" lon="-2.3258">
        <ele>57.1</ele>
        <time>2021-07-27T17:50:05Z</time>
      </trkpt>
      <trkpt lat="48.6327" lon="-2.32579">
        <ele>57.1</ele>
        <time>2021-07-27T17:50:06Z</time>
      </trkpt>
      <trkpt lat="48.63273" lon="-2.32579">
        <ele>57.1</ele>
        <time>2021-07-27T17:50:08Z</time>
      </trkpt>
      <trkpt lat="48.63276" lon="-2.32578">
        <ele>57.1</ele>
        <time>2021-07-27T17:50:09Z</time>
      </trkpt>
      <trkpt lat="48.6328" lon="-2.32578">
        <ele>57.1</ele>
        <time>2021-07-27T17:50:11Z</time>
      </trkpt>
      <trkpt lat="48.63284" lon="-2.32578">
        <ele>57.1</ele>
        <time>2021-07-27T17:50:12Z</time>
      </trkpt>
      <trkpt lat="48.63287" lon="-2.32577">
        <ele>57</ele>
        <time>2021-07-27T17:50:13Z</time>
      </trkpt>
      <trkpt lat="48.63291" lon="-2.32578">
        <ele>57</ele>
        <time>2021-07-27T17:50:15Z</time>
      </trkpt>
      <trkpt lat="48.63293" lon="-2.32579">
        <ele>57</ele>
        <time>2021-07-27T17:50:16Z</time>
      </trkpt>
      <trkpt lat="48.63295" lon="-2.32581">
        <ele>57</ele>
        <time>2021-07-27T17:50:17Z</time>
      </trkpt>
      <trkpt lat="48.63297" lon="-2.32586">
        <ele>57</ele>
        <time>2021-07-27T17:50:19Z</time>
      </trkpt>
      <trkpt lat="48.63297" lon="-2.3259">
        <ele>57</ele>
        <time>2021-07-27T17:50:20Z</time>
      </trkpt>
      <trkpt lat="48.63295" lon="-2.32596">
        <ele>56.9</ele>
        <time>2021-07-27T17:50:22Z</time>
      </trkpt>
      <trkpt lat="48.63295" lon="-2.32601">
        <ele>56.9</ele>
        <time>2021-07-27T17:50:23Z</time>
      </trkpt>
      <trkpt lat="48.63292" lon="-2.32608">
        <ele>56.8</ele>
        <time>2021-07-27T17:50:25Z</time>
      </trkpt>
      <trkpt lat="48.63291" lon="-2.32611">
        <ele>56.8</ele>
        <time>2021-07-27T17:50:26Z</time>
      </trkpt>
      <trkpt lat="48.63287" lon="-2.32618">
        <ele>56.7</ele>
        <time>2021-07-27T17:50:28Z</time>
      </trkpt>
      <trkpt lat="48.63286" lon="-2.32622">
        <ele>56.7</ele>
        <time>2021-07-27T17:50:29Z</time>
      </trkpt>
      <trkpt lat="48.63284" lon="-2.32626">
        <ele>56.7</ele>
        <time>2021-07-27T17:50:30Z</time>
      </trkpt>
      <trkpt lat="48.63283" lon="-2.3263">
        <ele>56.6</ele>
        <time>2021-07-27T17:50:31Z</time>
      </trkpt>
      <trkpt lat="48.63281" lon="-2.32635">
        <ele>56.6</ele>
        <time>2021-07-27T17:50:32Z</time>
      </trkpt>
      <trkpt lat="48.63279" lon="-2.32642">
        <ele>56.6</ele>
        <time>2021-07-27T17:50:34Z</time>
      </trkpt>
      <trkpt lat="48.63279" lon="-2.32645">
        <ele>56.6</ele>
        <time>2021-07-27T17:50:35Z</time>
      </trkpt>
      <trkpt lat="48.63277" lon="-2.32649">
        <ele>56.6</ele>
        <time>2021-07-27T17:50:37Z</time>
      </trkpt>
      <trkpt lat="48.63276" lon="-2.32649">
        <ele>56.6</ele>
        <time>2021-07-27T17:50:39Z</time>
      </trkpt>
      <trkpt lat="48.63276" lon="-2.32648">
        <ele>56.6</ele>
        <time>2021-07-27T17:50:41Z</time>
      </trkpt>
      <trkpt lat="48.63276" lon="-2.32648">
        <ele>56.6</ele>
        <time>2021-07-27T17:50:43Z</time>
      </trkpt>
      <trkpt lat="48.63276" lon="-2.32649">
        <ele>56.6</ele>
        <time>2021-07-27T17:50:44Z</time>
      </trkpt>
      <trkpt lat="48.63277" lon="-2.32648">
        <ele>56.7</ele>
        <time>2021-07-27T17:50:46Z</time>
      </trkpt>
      <trkpt lat="48.63277" lon="-2.32648">
        <ele>56.7</ele>
        <time>2021-07-27T17:50:47Z</time>
      </trkpt>
      <trkpt lat="48.63277" lon="-2.32648">
        <ele>56.7</ele>
        <time>2021-07-27T17:50:49Z</time>
      </trkpt>
      <trkpt lat="48.63272" lon="-2.32647">
        <ele>56.7</ele>
        <time>2021-07-27T17:50:54Z</time>
      </trkpt>
      <trkpt lat="48.63269" lon="-2.32642">
        <ele>56.8</ele>
        <time>2021-07-27T17:50:56Z</time>
      </trkpt>
      <trkpt lat="48.63267" lon="-2.32638">
        <ele>56.8</ele>
        <time>2021-07-27T17:50:57Z</time>
      </trkpt>
      <trkpt lat="48.63265" lon="-2.32634">
        <ele>56.9</ele>
        <time>2021-07-27T17:50:58Z</time>
      </trkpt>
      <trkpt lat="48.63264" lon="-2.32633">
        <ele>56.9</ele>
        <time>2021-07-27T17:50:59Z</time>
      </trkpt>
      <trkpt lat="48.63261" lon="-2.32633">
        <ele>56.9</ele>
        <time>2021-07-27T17:51:01Z</time>
      </trkpt>
      <trkpt lat="48.6326" lon="-2.32634">
        <ele>56.9</ele>
        <time>2021-07-27T17:51:02Z</time>
      </trkpt>
      <trkpt lat="48.63262" lon="-2.32639">
        <ele>56.9</ele>
        <time>2021-07-27T17:51:03Z</time>
      </trkpt>
      <trkpt lat="48.63263" lon="-2.32639">
        <ele>56.9</ele>
        <time>2021-07-27T17:51:04Z</time>
      </trkpt>
      <trkpt lat="48.63266" lon="-2.32638">
        <ele>56.9</ele>
        <time>2021-07-27T17:51:05Z</time>
      </trkpt>
      <trkpt lat="48.63267" lon="-2.32637">
        <ele>56.9</ele>
        <time>2021-07-27T17:51:06Z</time>
      </trkpt>
      <trkpt lat="48.63268" lon="-2.32635">
        <ele>56.9</ele>
        <time>2021-07-27T17:51:07Z</time>
      </trkpt>
      <trkpt lat="48.63269" lon="-2.32632">
        <ele>56.9</ele>
        <time>2021-07-27T17:51:09Z</time>
      </trkpt>
      <trkpt lat="48.63266" lon="-2.32631">
        <ele>56.9</ele>
        <time>2021-07-27T17:51:10Z</time>
      </trkpt>
      <trkpt lat="48.63264" lon="-2.32632">
        <ele>56.9</ele>
        <time>2021-07-27T17:51:11Z</time>
      </trkpt>
      <trkpt lat="48.63259" lon="-2.32633">
        <ele>56.9</ele>
        <time>2021-07-27T17:51:13Z</time>
      </trkpt>
      <trkpt lat="48.63254" lon="-2.32631">
        <ele>56.9</ele>
        <time>2021-07-27T17:51:15Z</time>
      </trkpt>
      <trkpt lat="48.63249" lon="-2.32629">
        <ele>56.9</ele>
        <time>2021-07-27T17:51:16Z</time>
      </trkpt>
      <trkpt lat="48.63245" lon="-2.32626">
        <ele>56.9</ele>
        <time>2021-07-27T17:51:17Z</time>
      </trkpt>
      <trkpt lat="48.63243" lon="-2.32624">
        <ele>56.9</ele>
        <time>2021-07-27T17:51:18Z</time>
      </trkpt>
      <trkpt lat="48.63237" lon="-2.32624">
        <ele>56.9</ele>
        <time>2021-07-27T17:51:19Z</time>
      </trkpt>
      <trkpt lat="48.63233" lon="-2.32624">
        <ele>56.9</ele>
        <time>2021-07-27T17:51:20Z</time>
      </trkpt>
      <trkpt lat="48.63227" lon="-2.32624">
        <ele>56.9</ele>
        <time>2021-07-27T17:51:22Z</time>
      </trkpt>
      <trkpt lat="48.6322" lon="-2.32624">
        <ele>56.9</ele>
        <time>2021-07-27T17:51:24Z</time>
      </trkpt>
      <trkpt lat="48.63214" lon="-2.32623">
        <ele>56.9</ele>
        <time>2021-07-27T17:51:26Z</time>
      </trkpt>
      <trkpt lat="48.63208" lon="-2.32621">
        <ele>56.9</ele>
        <time>2021-07-27T17:51:28Z</time>
      </trkpt>
      <trkpt lat="48.63203" lon="-2.32621">
        <ele>56.8</ele>
        <time>2021-07-27T17:51:30Z</time>
      </trkpt>
      <trkpt lat="48.632" lon="-2.32621">
        <ele>56.8</ele>
        <time>2021-07-27T17:51:31Z</time>
      </trkpt>
      <trkpt lat="48.63196" lon="-2.3262">
        <ele>56.7</ele>
        <time>2021-07-27T17:51:33Z</time>
      </trkpt>
      <trkpt lat="48.63193" lon="-2.32619">
        <ele>56.7</ele>
        <time>2021-07-27T17:51:34Z</time>
      </trkpt>
      <trkpt lat="48.63189" lon="-2.32618">
        <ele>56.5</ele>
        <time>2021-07-27T17:51:36Z</time>
      </trkpt>
      <trkpt lat="48.63186" lon="-2.32618">
        <ele>56.5</ele>
        <time>2021-07-27T17:51:37Z</time>
      </trkpt>
      <trkpt lat="48.63182" lon="-2.32617">
        <ele>56.3</ele>
        <time>2021-07-27T17:51:39Z</time>
      </trkpt>
      <trkpt lat="48.63176" lon="-2.32616">
        <ele>56.1</ele>
        <time>2021-07-27T17:51:40Z</time>
      </trkpt>
      <trkpt lat="48.63171" lon="-2.32615">
        <ele>56</ele>
        <time>2021-07-27T17:51:42Z</time>
      </trkpt>
      <trkpt lat="48.63162" lon="-2.32615">
        <ele>55.7</ele>
        <time>2021-07-27T17:51:43Z</time>
      </trkpt>
      <trkpt lat="48.63157" lon="-2.32615">
        <ele>55.5</ele>
        <time>2021-07-27T17:51:44Z</time>
      </trkpt>
      <trkpt lat="48.63147" lon="-2.32614">
        <ele>55.2</ele>
        <time>2021-07-27T17:51:46Z</time>
      </trkpt>
      <trkpt lat="48.63142" lon="-2.32613">
        <ele>55</ele>
        <time>2021-07-27T17:51:47Z</time>
      </trkpt>
      <trkpt lat="48.63132" lon="-2.32611">
        <ele>54.7</ele>
        <time>2021-07-27T17:51:49Z</time>
      </trkpt>
      <trkpt lat="48.63121" lon="-2.32608">
        <ele>54.3</ele>
        <time>2021-07-27T17:51:51Z</time>
      </trkpt>
      <trkpt lat="48.63109" lon="-2.32607">
        <ele>53.8</ele>
        <time>2021-07-27T17:51:53Z</time>
      </trkpt>
      <trkpt lat="48.63104" lon="-2.32607">
        <ele>53.6</ele>
        <time>2021-07-27T17:51:54Z</time>
      </trkpt>
      <trkpt lat="48.63098" lon="-2.32605">
        <ele>53.4</ele>
        <time>2021-07-27T17:51:56Z</time>
      </trkpt>
      <trkpt lat="48.63093" lon="-2.32604">
        <ele>53.3</ele>
        <time>2021-07-27T17:51:57Z</time>
      </trkpt>
      <trkpt lat="48.6309" lon="-2.32604">
        <ele>53.2</ele>
        <time>2021-07-27T17:51:59Z</time>
      </trkpt>
      <trkpt lat="48.63087" lon="-2.32603">
        <ele>53.2</ele>
        <time>2021-07-27T17:52:01Z</time>
      </trkpt>
      <trkpt lat="48.63085" lon="-2.32605">
        <ele>53.2</ele>
        <time>2021-07-27T17:52:03Z</time>
      </trkpt>
      <trkpt lat="48.63085" lon="-2.32604">
        <ele>53.2</ele>
        <time>2021-07-27T17:52:04Z</time>
      </trkpt>
      <trkpt lat="48.63084" lon="-2.32603">
        <ele>53.2</ele>
        <time>2021-07-27T17:52:05Z</time>
      </trkpt>
      <trkpt lat="48.63086" lon="-2.32597">
        <ele>53.2</ele>
        <time>2021-07-27T17:52:07Z</time>
      </trkpt>
      <trkpt lat="48.63088" lon="-2.32593">
        <ele>53.2</ele>
        <time>2021-07-27T17:52:08Z</time>
      </trkpt>
      <trkpt lat="48.63088" lon="-2.32594">
        <ele>53.2</ele>
        <time>2021-07-27T17:52:09Z</time>
      </trkpt>
      <trkpt lat="48.63088" lon="-2.32598">
        <ele>53.1</ele>
        <time>2021-07-27T17:52:10Z</time>
      </trkpt>
      <trkpt lat="48.63087" lon="-2.32603">
        <ele>53.1</ele>
        <time>2021-07-27T17:52:12Z</time>
      </trkpt>
      <trkpt lat="48.63086" lon="-2.32605">
        <ele>53.1</ele>
        <time>2021-07-27T17:52:13Z</time>
      </trkpt>
      <trkpt lat="48.63086" lon="-2.32609">
        <ele>53.1</ele>
        <time>2021-07-27T17:52:15Z</time>
      </trkpt>
      <trkpt lat="48.63086" lon="-2.32613">
        <ele>53.1</ele>
        <time>2021-07-27T17:52:17Z</time>
      </trkpt>
      <trkpt lat="48.63088" lon="-2.32615">
        <ele>53.1</ele>
        <time>2021-07-27T17:52:18Z</time>
      </trkpt>
      <trkpt lat="48.63089" lon="-2.32619">
        <ele>52.8</ele>
        <time>2021-07-27T17:52:20Z</time>
      </trkpt>
      <trkpt lat="48.63089" lon="-2.32624">
        <ele>52.5</ele>
        <time>2021-07-27T17:52:21Z</time>
      </trkpt>
      <trkpt lat="48.63089" lon="-2.32625">
        <ele>52.4</ele>
        <time>2021-07-27T17:52:22Z</time>
      </trkpt>
      <trkpt lat="48.63086" lon="-2.32626">
        <ele>52.2</ele>
        <time>2021-07-27T17:52:23Z</time>
      </trkpt>
      <trkpt lat="48.63083" lon="-2.32625">
        <ele>51.9</ele>
        <time>2021-07-27T17:52:24Z</time>
      </trkpt>
      <trkpt lat="48.63078" lon="-2.32625">
        <ele>51.4</ele>
        <time>2021-07-27T17:52:26Z</time>
      </trkpt>
      <trkpt lat="48.63073" lon="-2.32625">
        <ele>51.1</ele>
        <time>2021-07-27T17:52:27Z</time>
      </trkpt>
      <trkpt lat="48.63065" lon="-2.32628">
        <ele>50.5</ele>
        <time>2021-07-27T17:52:28Z</time>
      </trkpt>
      <trkpt lat="48.63051" lon="-2.32632">
        <ele>49.7</ele>
        <time>2021-07-27T17:52:30Z</time>
      </trkpt>
      <trkpt lat="48.63042" lon="-2.32633">
        <ele>49.4</ele>
        <time>2021-07-27T17:52:31Z</time>
      </trkpt>
      <trkpt lat="48.63036" lon="-2.32635">
        <ele>49.1</ele>
        <time>2021-07-27T17:52:32Z</time>
      </trkpt>
      <trkpt lat="48.63025" lon="-2.32637">
        <ele>48.7</ele>
        <time>2021-07-27T17:52:34Z</time>
      </trkpt>
      <trkpt lat="48.63019" lon="-2.32638">
        <ele>48.4</ele>
        <time>2021-07-27T17:52:35Z</time>
      </trkpt>
      <trkpt lat="48.63013" lon="-2.32639">
        <ele>48.2</ele>
        <time>2021-07-27T17:52:36Z</time>
      </trkpt>
      <trkpt lat="48.63" lon="-2.3264">
        <ele>47.6</ele>
        <time>2021-07-27T17:52:38Z</time>
      </trkpt>
      <trkpt lat="48.62994" lon="-2.32639">
        <ele>47.4</ele>
        <time>2021-07-27T17:52:39Z</time>
      </trkpt>
      <trkpt lat="48.6298" lon="-2.32638">
        <ele>46.7</ele>
        <time>2021-07-27T17:52:41Z</time>
      </trkpt>
      <trkpt lat="48.62969" lon="-2.32638">
        <ele>46</ele>
        <time>2021-07-27T17:52:43Z</time>
      </trkpt>
      <trkpt lat="48.62958" lon="-2.32639">
        <ele>45.2</ele>
        <time>2021-07-27T17:52:45Z</time>
      </trkpt>
      <trkpt lat="48.62952" lon="-2.32642">
        <ele>44.8</ele>
        <time>2021-07-27T17:52:46Z</time>
      </trkpt>
      <trkpt lat="48.62946" lon="-2.32645">
        <ele>44.4</ele>
        <time>2021-07-27T17:52:47Z</time>
      </trkpt>
      <trkpt lat="48.62935" lon="-2.3265">
        <ele>43.6</ele>
        <time>2021-07-27T17:52:49Z</time>
      </trkpt>
      <trkpt lat="48.6293" lon="-2.32653">
        <ele>43.1</ele>
        <time>2021-07-27T17:52:50Z</time>
      </trkpt>
      <trkpt lat="48.62924" lon="-2.32659">
        <ele>42.4</ele>
        <time>2021-07-27T17:52:52Z</time>
      </trkpt>
      <trkpt lat="48.62922" lon="-2.32663">
        <ele>42.2</ele>
        <time>2021-07-27T17:52:53Z</time>
      </trkpt>
      <trkpt lat="48.62922" lon="-2.32673">
        <ele>41.5</ele>
        <time>2021-07-27T17:52:55Z</time>
      </trkpt>
      <trkpt lat="48.62924" lon="-2.32687">
        <ele>40.7</ele>
        <time>2021-07-27T17:52:57Z</time>
      </trkpt>
      <trkpt lat="48.62926" lon="-2.32697">
        <ele>40.2</ele>
        <time>2021-07-27T17:52:58Z</time>
      </trkpt>
      <trkpt lat="48.62928" lon="-2.32708">
        <ele>39.8</ele>
        <time>2021-07-27T17:52:59Z</time>
      </trkpt>
      <trkpt lat="48.62928" lon="-2.32727">
        <ele>39.3</ele>
        <time>2021-07-27T17:53:01Z</time>
      </trkpt>
      <trkpt lat="48.62929" lon="-2.32745">
        <ele>38.8</ele>
        <time>2021-07-27T17:53:03Z</time>
      </trkpt>
      <trkpt lat="48.62931" lon="-2.32753">
        <ele>38.6</ele>
        <time>2021-07-27T17:53:04Z</time>
      </trkpt>
      <trkpt lat="48.62935" lon="-2.32763">
        <ele>38.3</ele>
        <time>2021-07-27T17:53:06Z</time>
      </trkpt>
      <trkpt lat="48.62936" lon="-2.32772">
        <ele>38.1</ele>
        <time>2021-07-27T17:53:07Z</time>
      </trkpt>
      <trkpt lat="48.62938" lon="-2.32782">
        <ele>37.9</ele>
        <time>2021-07-27T17:53:09Z</time>
      </trkpt>
      <trkpt lat="48.6294" lon="-2.32799">
        <ele>37.5</ele>
        <time>2021-07-27T17:53:10Z</time>
      </trkpt>
      <trkpt lat="48.62941" lon="-2.32811">
        <ele>37.1</ele>
        <time>2021-07-27T17:53:12Z</time>
      </trkpt>
      <trkpt lat="48.62941" lon="-2.32819">
        <ele>36.8</ele>
        <time>2021-07-27T17:53:13Z</time>
      </trkpt>
      <trkpt lat="48.62939" lon="-2.32824">
        <ele>36.6</ele>
        <time>2021-07-27T17:53:14Z</time>
      </trkpt>
      <trkpt lat="48.62936" lon="-2.32825">
        <ele>36.3</ele>
        <time>2021-07-27T17:53:15Z</time>
      </trkpt>
      <trkpt lat="48.62934" lon="-2.32824">
        <ele>36.1</ele>
        <time>2021-07-27T17:53:16Z</time>
      </trkpt>
      <trkpt lat="48.62932" lon="-2.32821">
        <ele>35.8</ele>
        <time>2021-07-27T17:53:18Z</time>
      </trkpt>
      <trkpt lat="48.6293" lon="-2.32817">
        <ele>35.5</ele>
        <time>2021-07-27T17:53:19Z</time>
      </trkpt>
      <trkpt lat="48.62929" lon="-2.32811">
        <ele>35</ele>
        <time>2021-07-27T17:53:21Z</time>
      </trkpt>
      <trkpt lat="48.62928" lon="-2.32808">
        <ele>34.8</ele>
        <time>2021-07-27T17:53:22Z</time>
      </trkpt>
      <trkpt lat="48.62925" lon="-2.32802">
        <ele>34.2</ele>
        <time>2021-07-27T17:53:23Z</time>
      </trkpt>
      <trkpt lat="48.62922" lon="-2.32798">
        <ele>33.7</ele>
        <time>2021-07-27T17:53:24Z</time>
      </trkpt>
      <trkpt lat="48.6292" lon="-2.32796">
        <ele>33.4</ele>
        <time>2021-07-27T17:53:25Z</time>
      </trkpt>
      <trkpt lat="48.62915" lon="-2.32791">
        <ele>32.6</ele>
        <time>2021-07-27T17:53:27Z</time>
      </trkpt>
      <trkpt lat="48.62913" lon="-2.32789">
        <ele>32.4</ele>
        <time>2021-07-27T17:53:28Z</time>
      </trkpt>
      <trkpt lat="48.62912" lon="-2.32788">
        <ele>32.2</ele>
        <time>2021-07-27T17:53:30Z</time>
      </trkpt>
      <trkpt lat="48.62912" lon="-2.32788">
        <ele>32.2</ele>
        <time>2021-07-27T17:53:31Z</time>
      </trkpt>
      <trkpt lat="48.62912" lon="-2.32788">
        <ele>32.2</ele>
        <time>2021-07-27T17:53:33Z</time>
      </trkpt>
      <trkpt lat="48.62912" lon="-2.32788">
        <ele>32.2</ele>
        <time>2021-07-27T17:53:35Z</time>
      </trkpt>
      <trkpt lat="48.62912" lon="-2.32788">
        <ele>32.2</ele>
        <time>2021-07-27T17:53:36Z</time>
      </trkpt>
      <trkpt lat="48.62912" lon="-2.32789">
        <ele>32.1</ele>
        <time>2021-07-27T17:53:37Z</time>
      </trkpt>
      <trkpt lat="48.62908" lon="-2.32783">
        <ele>31.4</ele>
        <time>2021-07-27T17:53:51Z</time>
      </trkpt>
      <trkpt lat="48.62905" lon="-2.3278">
        <ele>30.8</ele>
        <time>2021-07-27T17:53:53Z</time>
      </trkpt>
      <trkpt lat="48.62902" lon="-2.32775">
        <ele>30.1</ele>
        <time>2021-07-27T17:53:54Z</time>
      </trkpt>
      <trkpt lat="48.62899" lon="-2.32771">
        <ele>29.4</ele>
        <time>2021-07-27T17:53:55Z</time>
      </trkpt>
      <trkpt lat="48.62896" lon="-2.32767">
        <ele>28.7</ele>
        <time>2021-07-27T17:53:56Z</time>
      </trkpt>
      <trkpt lat="48.6289" lon="-2.32758">
        <ele>27.3</ele>
        <time>2021-07-27T17:53:58Z</time>
      </trkpt>
      <trkpt lat="48.62881" lon="-2.32741">
        <ele>25.1</ele>
        <time>2021-07-27T17:53:59Z</time>
      </trkpt>
      <trkpt lat="48.62879" lon="-2.32736">
        <ele>24.6</ele>
        <time>2021-07-27T17:54:00Z</time>
      </trkpt>
      <trkpt lat="48.62877" lon="-2.32728">
        <ele>23.9</ele>
        <time>2021-07-27T17:54:02Z</time>
      </trkpt>
      <trkpt lat="48.62875" lon="-2.32723">
        <ele>23.3</ele>
        <time>2021-07-27T17:54:03Z</time>
      </trkpt>
      <trkpt lat="48.62872" lon="-2.32719">
        <ele>22.9</ele>
        <time>2021-07-27T17:54:04Z</time>
      </trkpt>
      <trkpt lat="48.62867" lon="-2.32714">
        <ele>22.2</ele>
        <time>2021-07-27T17:54:06Z</time>
      </trkpt>
      <trkpt lat="48.62864" lon="-2.32712">
        <ele>21.9</ele>
        <time>2021-07-27T17:54:07Z</time>
      </trkpt>
      <trkpt lat="48.62862" lon="-2.3271">
        <ele>21.6</ele>
        <time>2021-07-27T17:54:08Z</time>
      </trkpt>
      <trkpt lat="48.62859" lon="-2.32707">
        <ele>21.3</ele>
        <time>2021-07-27T17:54:10Z</time>
      </trkpt>
      <trkpt lat="48.62857" lon="-2.32707">
        <ele>21.1</ele>
        <time>2021-07-27T17:54:11Z</time>
      </trkpt>
      <trkpt lat="48.62857" lon="-2.32708">
        <ele>21.1</ele>
        <time>2021-07-27T17:54:12Z</time>
      </trkpt>
      <trkpt lat="48.62857" lon="-2.32709">
        <ele>21</ele>
        <time>2021-07-27T17:54:13Z</time>
      </trkpt>
      <trkpt lat="48.62856" lon="-2.32709">
        <ele>21</ele>
        <time>2021-07-27T17:54:15Z</time>
      </trkpt>
      <trkpt lat="48.62856" lon="-2.3271">
        <ele>20.9</ele>
        <time>2021-07-27T17:54:17Z</time>
      </trkpt>
      <trkpt lat="48.62855" lon="-2.3271">
        <ele>20.9</ele>
        <time>2021-07-27T17:54:18Z</time>
      </trkpt>
      <trkpt lat="48.62855" lon="-2.32711">
        <ele>20.8</ele>
        <time>2021-07-27T17:54:20Z</time>
      </trkpt>
      <trkpt lat="48.62855" lon="-2.32711">
        <ele>20.8</ele>
        <time>2021-07-27T17:54:22Z</time>
      </trkpt>
      <trkpt lat="48.62854" lon="-2.32712">
        <ele>20.8</ele>
        <time>2021-07-27T17:54:22Z</time>
      </trkpt>
      <trkpt lat="48.62854" lon="-2.32714">
        <ele>20.6</ele>
        <time>2021-07-27T17:54:23Z</time>
      </trkpt>
      <trkpt lat="48.62851" lon="-2.32718">
        <ele>20.5</ele>
        <time>2021-07-27T17:54:25Z</time>
      </trkpt>
      <trkpt lat="48.62849" lon="-2.3272">
        <ele>20.4</ele>
        <time>2021-07-27T17:54:26Z</time>
      </trkpt>
      <trkpt lat="48.62848" lon="-2.32721">
        <ele>20.3</ele>
        <time>2021-07-27T17:54:27Z</time>
      </trkpt>
      <trkpt lat="48.62847" lon="-2.32722">
        <ele>20.3</ele>
        <time>2021-07-27T17:54:28Z</time>
      </trkpt>
      <trkpt lat="48.62846" lon="-2.32723">
        <ele>20.3</ele>
        <time>2021-07-27T17:54:30Z</time>
      </trkpt>
      <trkpt lat="48.62845" lon="-2.32724">
        <ele>20.3</ele>
        <time>2021-07-27T17:54:32Z</time>
      </trkpt>
      <trkpt lat="48.62842" lon="-2.32727">
        <ele>20.3</ele>
        <time>2021-07-27T17:54:33Z</time>
      </trkpt>
      <trkpt lat="48.6284" lon="-2.3273">
        <ele>20.4</ele>
        <time>2021-07-27T17:54:34Z</time>
      </trkpt>
      <trkpt lat="48.62839" lon="-2.32733">
        <ele>20.6</ele>
        <time>2021-07-27T17:54:37Z</time>
      </trkpt>
      <trkpt lat="48.62837" lon="-2.32735">
        <ele>20.7</ele>
        <time>2021-07-27T17:54:38Z</time>
      </trkpt>
      <trkpt lat="48.62835" lon="-2.32738">
        <ele>20.9</ele>
        <time>2021-07-27T17:54:40Z</time>
      </trkpt>
      <trkpt lat="48.62833" lon="-2.32741">
        <ele>21.2</ele>
        <time>2021-07-27T17:56:04Z</time>
      </trkpt>
      <trkpt lat="48.62831" lon="-2.32743">
        <ele>21.4</ele>
        <time>2021-07-27T17:56:06Z</time>
      </trkpt>
      <trkpt lat="48.62829" lon="-2.32746">
        <ele>21.7</ele>
        <time>2021-07-27T17:56:08Z</time>
      </trkpt>
      <trkpt lat="48.62827" lon="-2.32749">
        <ele>21.9</ele>
        <time>2021-07-27T17:56:09Z</time>
      </trkpt>
      <trkpt lat="48.62827" lon="-2.32751">
        <ele>22.1</ele>
        <time>2021-07-27T17:56:10Z</time>
      </trkpt>
      <trkpt lat="48.62827" lon="-2.32751">
        <ele>22.1</ele>
        <time>2021-07-27T17:56:11Z</time>
      </trkpt>
      <trkpt lat="48.62826" lon="-2.32754">
        <ele>22.3</ele>
        <time>2021-07-27T17:56:13Z</time>
      </trkpt>
      <trkpt lat="48.62826" lon="-2.32756">
        <ele>22.4</ele>
        <time>2021-07-27T17:56:14Z</time>
      </trkpt>
      <trkpt lat="48.62826" lon="-2.32758">
        <ele>22.5</ele>
        <time>2021-07-27T17:56:16Z</time>
      </trkpt>
      <trkpt lat="48.62825" lon="-2.32763">
        <ele>22.9</ele>
        <time>2021-07-27T17:56:18Z</time>
      </trkpt>
      <trkpt lat="48.62824" lon="-2.32769">
        <ele>23.3</ele>
        <time>2021-07-27T17:56:20Z</time>
      </trkpt>
      <trkpt lat="48.62823" lon="-2.32772">
        <ele>23.4</ele>
        <time>2021-07-27T17:56:21Z</time>
      </trkpt>
      <trkpt lat="48.62822" lon="-2.32774">
        <ele>23.6</ele>
        <time>2021-07-27T17:56:22Z</time>
      </trkpt>
      <trkpt lat="48.62821" lon="-2.32779">
        <ele>23.9</ele>
        <time>2021-07-27T17:56:23Z</time>
      </trkpt>
      <trkpt lat="48.62819" lon="-2.32783">
        <ele>24.1</ele>
        <time>2021-07-27T17:56:25Z</time>
      </trkpt>
      <trkpt lat="48.62819" lon="-2.32785">
        <ele>24.2</ele>
        <time>2021-07-27T17:56:26Z</time>
      </trkpt>
      <trkpt lat="48.62817" lon="-2.32789">
        <ele>24.5</ele>
        <time>2021-07-27T17:56:28Z</time>
      </trkpt>
      <trkpt lat="48.62815" lon="-2.32794">
        <ele>24.8</ele>
        <time>2021-07-27T17:56:30Z</time>
      </trkpt>
      <trkpt lat="48.62815" lon="-2.32796">
        <ele>24.9</ele>
        <time>2021-07-27T17:56:31Z</time>
      </trkpt>
      <trkpt lat="48.62814" lon="-2.328">
        <ele>25.2</ele>
        <time>2021-07-27T17:56:33Z</time>
      </trkpt>
      <trkpt lat="48.62813" lon="-2.32805">
        <ele>25.4</ele>
        <time>2021-07-27T17:56:34Z</time>
      </trkpt>
      <trkpt lat="48.62812" lon="-2.32807">
        <ele>25.6</ele>
        <time>2021-07-27T17:56:35Z</time>
      </trkpt>
      <trkpt lat="48.62811" lon="-2.32811">
        <ele>25.8</ele>
        <time>2021-07-27T17:56:37Z</time>
      </trkpt>
      <trkpt lat="48.62809" lon="-2.32816">
        <ele>26.1</ele>
        <time>2021-07-27T17:56:38Z</time>
      </trkpt>
      <trkpt lat="48.62808" lon="-2.32818">
        <ele>26.2</ele>
        <time>2021-07-27T17:56:39Z</time>
      </trkpt>
      <trkpt lat="48.62806" lon="-2.32824">
        <ele>26.6</ele>
        <time>2021-07-27T17:56:41Z</time>
      </trkpt>
      <trkpt lat="48.62805" lon="-2.32826">
        <ele>26.7</ele>
        <time>2021-07-27T17:56:42Z</time>
      </trkpt>
      <trkpt lat="48.62805" lon="-2.32828">
        <ele>26.9</ele>
        <time>2021-07-27T17:56:43Z</time>
      </trkpt>
      <trkpt lat="48.62803" lon="-2.32832">
        <ele>27.1</ele>
        <time>2021-07-27T17:56:44Z</time>
      </trkpt>
      <trkpt lat="48.62803" lon="-2.32835">
        <ele>27.2</ele>
        <time>2021-07-27T17:56:45Z</time>
      </trkpt>
      <trkpt lat="48.62801" lon="-2.32839">
        <ele>27.4</ele>
        <time>2021-07-27T17:56:47Z</time>
      </trkpt>
      <trkpt lat="48.628" lon="-2.32842">
        <ele>27.6</ele>
        <time>2021-07-27T17:56:48Z</time>
      </trkpt>
      <trkpt lat="48.62798" lon="-2.3285">
        <ele>27.9</ele>
        <time>2021-07-27T17:56:50Z</time>
      </trkpt>
      <trkpt lat="48.62798" lon="-2.32854">
        <ele>28.1</ele>
        <time>2021-07-27T17:56:51Z</time>
      </trkpt>
      <trkpt lat="48.62797" lon="-2.32858">
        <ele>28.2</ele>
        <time>2021-07-27T17:56:53Z</time>
      </trkpt>
      <trkpt lat="48.62796" lon="-2.32863">
        <ele>28.4</ele>
        <time>2021-07-27T17:56:54Z</time>
      </trkpt>
      <trkpt lat="48.62796" lon="-2.32865">
        <ele>28.5</ele>
        <time>2021-07-27T17:56:55Z</time>
      </trkpt>
      <trkpt lat="48.62795" lon="-2.32871">
        <ele>28.6</ele>
        <time>2021-07-27T17:56:56Z</time>
      </trkpt>
      <trkpt lat="48.62794" lon="-2.32877">
        <ele>28.8</ele>
        <time>2021-07-27T17:56:58Z</time>
      </trkpt>
      <trkpt lat="48.62794" lon="-2.32879">
        <ele>28.9</ele>
        <time>2021-07-27T17:56:59Z</time>
      </trkpt>
      <trkpt lat="48.62793" lon="-2.32883">
        <ele>29</ele>
        <time>2021-07-27T17:57:01Z</time>
      </trkpt>
      <trkpt lat="48.62792" lon="-2.32886">
        <ele>29.1</ele>
        <time>2021-07-27T17:57:02Z</time>
      </trkpt>
      <trkpt lat="48.62789" lon="-2.32892">
        <ele>29.2</ele>
        <time>2021-07-27T17:57:04Z</time>
      </trkpt>
      <trkpt lat="48.62787" lon="-2.32897">
        <ele>29.3</ele>
        <time>2021-07-27T17:57:05Z</time>
      </trkpt>
      <trkpt lat="48.62787" lon="-2.32898">
        <ele>29.3</ele>
        <time>2021-07-27T17:57:06Z</time>
      </trkpt>
      <trkpt lat="48.62785" lon="-2.32903">
        <ele>29.4</ele>
        <time>2021-07-27T17:57:08Z</time>
      </trkpt>
      <trkpt lat="48.62784" lon="-2.32905">
        <ele>29.5</ele>
        <time>2021-07-27T17:57:09Z</time>
      </trkpt>
      <trkpt lat="48.62784" lon="-2.32908">
        <ele>29.5</ele>
        <time>2021-07-27T17:57:10Z</time>
      </trkpt>
      <trkpt lat="48.62783" lon="-2.32917">
        <ele>29.7</ele>
        <time>2021-07-27T17:57:12Z</time>
      </trkpt>
      <trkpt lat="48.62783" lon="-2.3292">
        <ele>29.7</ele>
        <time>2021-07-27T17:57:13Z</time>
      </trkpt>
      <trkpt lat="48.62783" lon="-2.32924">
        <ele>29.8</ele>
        <time>2021-07-27T17:57:15Z</time>
      </trkpt>
      <trkpt lat="48.62782" lon="-2.32928">
        <ele>29.9</ele>
        <time>2021-07-27T17:57:16Z</time>
      </trkpt>
      <trkpt lat="48.62782" lon="-2.32929">
        <ele>29.9</ele>
        <time>2021-07-27T17:57:17Z</time>
      </trkpt>
      <trkpt lat="48.62781" lon="-2.32934">
        <ele>30</ele>
        <time>2021-07-27T17:57:19Z</time>
      </trkpt>
      <trkpt lat="48.62781" lon="-2.32939">
        <ele>30.2</ele>
        <time>2021-07-27T17:57:20Z</time>
      </trkpt>
      <trkpt lat="48.6278" lon="-2.32944">
        <ele>30.3</ele>
        <time>2021-07-27T17:57:21Z</time>
      </trkpt>
      <trkpt lat="48.62779" lon="-2.3295">
        <ele>30.5</ele>
        <time>2021-07-27T17:57:23Z</time>
      </trkpt>
      <trkpt lat="48.62778" lon="-2.32954">
        <ele>30.7</ele>
        <time>2021-07-27T17:57:24Z</time>
      </trkpt>
      <trkpt lat="48.62777" lon="-2.32962">
        <ele>31</ele>
        <time>2021-07-27T17:57:26Z</time>
      </trkpt>
      <trkpt lat="48.62776" lon="-2.32968">
        <ele>31.3</ele>
        <time>2021-07-27T17:57:28Z</time>
      </trkpt>
      <trkpt lat="48.62775" lon="-2.32973">
        <ele>31.5</ele>
        <time>2021-07-27T17:57:29Z</time>
      </trkpt>
      <trkpt lat="48.62774" lon="-2.32979">
        <ele>31.8</ele>
        <time>2021-07-27T17:57:31Z</time>
      </trkpt>
      <trkpt lat="48.62772" lon="-2.32984">
        <ele>32</ele>
        <time>2021-07-27T17:57:32Z</time>
      </trkpt>
      <trkpt lat="48.62771" lon="-2.32988">
        <ele>32.2</ele>
        <time>2021-07-27T17:57:33Z</time>
      </trkpt>
      <trkpt lat="48.62771" lon="-2.32991">
        <ele>32.4</ele>
        <time>2021-07-27T17:57:34Z</time>
      </trkpt>
      <trkpt lat="48.62771" lon="-2.32996">
        <ele>32.6</ele>
        <time>2021-07-27T17:57:36Z</time>
      </trkpt>
      <trkpt lat="48.6277" lon="-2.32999">
        <ele>32.8</ele>
        <time>2021-07-27T17:57:37Z</time>
      </trkpt>
      <trkpt lat="48.6277" lon="-2.33005">
        <ele>33.1</ele>
        <time>2021-07-27T17:57:39Z</time>
      </trkpt>
      <trkpt lat="48.6277" lon="-2.33012">
        <ele>33.4</ele>
        <time>2021-07-27T17:57:40Z</time>
      </trkpt>
      <trkpt lat="48.6277" lon="-2.33015">
        <ele>33.5</ele>
        <time>2021-07-27T17:57:41Z</time>
      </trkpt>
      <trkpt lat="48.62771" lon="-2.33021">
        <ele>33.9</ele>
        <time>2021-07-27T17:57:43Z</time>
      </trkpt>
      <trkpt lat="48.62771" lon="-2.33025">
        <ele>34.1</ele>
        <time>2021-07-27T17:57:45Z</time>
      </trkpt>
      <trkpt lat="48.62771" lon="-2.3303">
        <ele>34.3</ele>
        <time>2021-07-27T17:57:46Z</time>
      </trkpt>
      <trkpt lat="48.62771" lon="-2.33037">
        <ele>34.7</ele>
        <time>2021-07-27T17:57:48Z</time>
      </trkpt>
      <trkpt lat="48.62771" lon="-2.33042">
        <ele>35</ele>
        <time>2021-07-27T17:57:49Z</time>
      </trkpt>
      <trkpt lat="48.62772" lon="-2.33048">
        <ele>35.3</ele>
        <time>2021-07-27T17:57:51Z</time>
      </trkpt>
      <trkpt lat="48.62772" lon="-2.33054">
        <ele>35.6</ele>
        <time>2021-07-27T17:57:52Z</time>
      </trkpt>
      <trkpt lat="48.62772" lon="-2.33056">
        <ele>35.7</ele>
        <time>2021-07-27T17:57:53Z</time>
      </trkpt>
      <trkpt lat="48.62772" lon="-2.33061">
        <ele>35.9</ele>
        <time>2021-07-27T17:57:54Z</time>
      </trkpt>
      <trkpt lat="48.62772" lon="-2.33068">
        <ele>36.3</ele>
        <time>2021-07-27T17:57:56Z</time>
      </trkpt>
      <trkpt lat="48.62771" lon="-2.3307">
        <ele>36.5</ele>
        <time>2021-07-27T17:57:58Z</time>
      </trkpt>
      <trkpt lat="48.62771" lon="-2.33073">
        <ele>36.6</ele>
        <time>2021-07-27T17:57:59Z</time>
      </trkpt>
      <trkpt lat="48.6277" lon="-2.33076">
        <ele>36.8</ele>
        <time>2021-07-27T17:58:00Z</time>
      </trkpt>
      <trkpt lat="48.62769" lon="-2.33079">
        <ele>37</ele>
        <time>2021-07-27T17:58:01Z</time>
      </trkpt>
      <trkpt lat="48.62766" lon="-2.33083">
        <ele>37.4</ele>
        <time>2021-07-27T17:58:03Z</time>
      </trkpt>
      <trkpt lat="48.62763" lon="-2.33084">
        <ele>37.8</ele>
        <time>2021-07-27T17:58:04Z</time>
      </trkpt>
      <trkpt lat="48.62762" lon="-2.33084">
        <ele>38.2</ele>
        <time>2021-07-27T17:58:05Z</time>
      </trkpt>
      <trkpt lat="48.6276" lon="-2.33082">
        <ele>38.6</ele>
        <time>2021-07-27T17:58:07Z</time>
      </trkpt>
      <trkpt lat="48.62759" lon="-2.33082">
        <ele>38.9</ele>
        <time>2021-07-27T17:58:08Z</time>
      </trkpt>
      <trkpt lat="48.62758" lon="-2.3308">
        <ele>39.3</ele>
        <time>2021-07-27T17:58:09Z</time>
      </trkpt>
      <trkpt lat="48.62757" lon="-2.33079">
        <ele>39.8</ele>
        <time>2021-07-27T17:58:11Z</time>
      </trkpt>
      <trkpt lat="48.62756" lon="-2.33078">
        <ele>40.2</ele>
        <time>2021-07-27T17:58:12Z</time>
      </trkpt>
      <trkpt lat="48.62756" lon="-2.33079">
        <ele>40.7</ele>
        <time>2021-07-27T17:58:13Z</time>
      </trkpt>
      <trkpt lat="48.62756" lon="-2.33079">
        <ele>41.1</ele>
        <time>2021-07-27T17:58:14Z</time>
      </trkpt>
      <trkpt lat="48.62754" lon="-2.33076">
        <ele>41.4</ele>
        <time>2021-07-27T17:58:16Z</time>
      </trkpt>
      <trkpt lat="48.62754" lon="-2.33074">
        <ele>41.9</ele>
        <time>2021-07-27T17:58:17Z</time>
      </trkpt>
      <trkpt lat="48.62753" lon="-2.33072">
        <ele>42.2</ele>
        <time>2021-07-27T17:58:18Z</time>
      </trkpt>
      <trkpt lat="48.62751" lon="-2.33068">
        <ele>42.5</ele>
        <time>2021-07-27T17:58:19Z</time>
      </trkpt>
      <trkpt lat="48.62751" lon="-2.33066">
        <ele>42.9</ele>
        <time>2021-07-27T17:58:21Z</time>
      </trkpt>
      <trkpt lat="48.62751" lon="-2.33064">
        <ele>43.2</ele>
        <time>2021-07-27T17:58:22Z</time>
      </trkpt>
      <trkpt lat="48.62751" lon="-2.33064">
        <ele>43.7</ele>
        <time>2021-07-27T17:58:23Z</time>
      </trkpt>
      <trkpt lat="48.62751" lon="-2.33063">
        <ele>44.1</ele>
        <time>2021-07-27T17:58:24Z</time>
      </trkpt>
      <trkpt lat="48.62751" lon="-2.33059">
        <ele>44.4</ele>
        <time>2021-07-27T17:58:26Z</time>
      </trkpt>
      <trkpt lat="48.6275" lon="-2.33053">
        <ele>44.7</ele>
        <time>2021-07-27T17:58:28Z</time>
      </trkpt>
      <trkpt lat="48.62749" lon="-2.33046">
        <ele>44.8</ele>
        <time>2021-07-27T17:58:30Z</time>
      </trkpt>
      <trkpt lat="48.62749" lon="-2.33044">
        <ele>45.3</ele>
        <time>2021-07-27T17:58:31Z</time>
      </trkpt>
      <trkpt lat="48.62748" lon="-2.33042">
        <ele>45.5</ele>
        <time>2021-07-27T17:58:32Z</time>
      </trkpt>
      <trkpt lat="48.62747" lon="-2.33034">
        <ele>45.6</ele>
        <time>2021-07-27T17:58:34Z</time>
      </trkpt>
      <trkpt lat="48.62745" lon="-2.33029">
        <ele>45.9</ele>
        <time>2021-07-27T17:58:36Z</time>
      </trkpt>
      <trkpt lat="48.62744" lon="-2.33023">
        <ele>46.2</ele>
        <time>2021-07-27T17:58:38Z</time>
      </trkpt>
      <trkpt lat="48.62742" lon="-2.33018">
        <ele>46.5</ele>
        <time>2021-07-27T17:58:40Z</time>
      </trkpt>
      <trkpt lat="48.62741" lon="-2.33013">
        <ele>46.7</ele>
        <time>2021-07-27T17:58:41Z</time>
      </trkpt>
      <trkpt lat="48.6274" lon="-2.33011">
        <ele>46.8</ele>
        <time>2021-07-27T17:58:42Z</time>
      </trkpt>
      <trkpt lat="48.6274" lon="-2.33005">
        <ele>47.1</ele>
        <time>2021-07-27T17:58:44Z</time>
      </trkpt>
      <trkpt lat="48.62738" lon="-2.32999">
        <ele>47.5</ele>
        <time>2021-07-27T17:58:45Z</time>
      </trkpt>
      <trkpt lat="48.62738" lon="-2.32997">
        <ele>47.6</ele>
        <time>2021-07-27T17:58:46Z</time>
      </trkpt>
      <trkpt lat="48.62737" lon="-2.32993">
        <ele>47.8</ele>
        <time>2021-07-27T17:58:48Z</time>
      </trkpt>
      <trkpt lat="48.62736" lon="-2.32988">
        <ele>48.1</ele>
        <time>2021-07-27T17:58:49Z</time>
      </trkpt>
      <trkpt lat="48.62735" lon="-2.32982">
        <ele>48.5</ele>
        <time>2021-07-27T17:58:51Z</time>
      </trkpt>
      <trkpt lat="48.62734" lon="-2.32978">
        <ele>48.7</ele>
        <time>2021-07-27T17:58:52Z</time>
      </trkpt>
      <trkpt lat="48.62732" lon="-2.32973">
        <ele>49.1</ele>
        <time>2021-07-27T17:58:54Z</time>
      </trkpt>
      <trkpt lat="48.62731" lon="-2.32969">
        <ele>49.3</ele>
        <time>2021-07-27T17:58:55Z</time>
      </trkpt>
      <trkpt lat="48.6273" lon="-2.32965">
        <ele>49.5</ele>
        <time>2021-07-27T17:58:56Z</time>
      </trkpt>
      <trkpt lat="48.62729" lon="-2.3296">
        <ele>49.8</ele>
        <time>2021-07-27T17:58:57Z</time>
      </trkpt>
      <trkpt lat="48.62726" lon="-2.32956">
        <ele>50.1</ele>
        <time>2021-07-27T17:58:59Z</time>
      </trkpt>
      <trkpt lat="48.62724" lon="-2.32954">
        <ele>50.2</ele>
        <time>2021-07-27T17:59:00Z</time>
      </trkpt>
      <trkpt lat="48.62721" lon="-2.3295">
        <ele>50.5</ele>
        <time>2021-07-27T17:59:02Z</time>
      </trkpt>
      <trkpt lat="48.62719" lon="-2.32946">
        <ele>51</ele>
        <time>2021-07-27T17:59:03Z</time>
      </trkpt>
      <trkpt lat="48.62718" lon="-2.32944">
        <ele>50.9</ele>
        <time>2021-07-27T17:59:04Z</time>
      </trkpt>
      <trkpt lat="48.62719" lon="-2.32943">
        <ele>50.8</ele>
        <time>2021-07-27T17:59:05Z</time>
      </trkpt>
      <trkpt lat="48.62719" lon="-2.32941">
        <ele>50.8</ele>
        <time>2021-07-27T17:59:07Z</time>
      </trkpt>
      <trkpt lat="48.62719" lon="-2.3294">
        <ele>50.7</ele>
        <time>2021-07-27T17:59:08Z</time>
      </trkpt>
      <trkpt lat="48.62719" lon="-2.32939">
        <ele>50.6</ele>
        <time>2021-07-27T17:59:10Z</time>
      </trkpt>
      <trkpt lat="48.6272" lon="-2.32937">
        <ele>50.6</ele>
        <time>2021-07-27T17:59:11Z</time>
      </trkpt>
      <trkpt lat="48.6272" lon="-2.32936">
        <ele>50.5</ele>
        <time>2021-07-27T17:59:13Z</time>
      </trkpt>
      <trkpt lat="48.6272" lon="-2.32935">
        <ele>50.4</ele>
        <time>2021-07-27T17:59:29Z</time>
      </trkpt>
      <trkpt lat="48.6272" lon="-2.32933">
        <ele>50.4</ele>
        <time>2021-07-27T17:59:30Z</time>
      </trkpt>
      <trkpt lat="48.62721" lon="-2.32932">
        <ele>50.3</ele>
        <time>2021-07-27T17:59:31Z</time>
      </trkpt>
      <trkpt lat="48.62723" lon="-2.32928">
        <ele>50.1</ele>
        <time>2021-07-27T17:59:32Z</time>
      </trkpt>
      <trkpt lat="48.62727" lon="-2.3292">
        <ele>49.6</ele>
        <time>2021-07-27T17:59:34Z</time>
      </trkpt>
      <trkpt lat="48.6273" lon="-2.32916">
        <ele>49.3</ele>
        <time>2021-07-27T17:59:35Z</time>
      </trkpt>
      <trkpt lat="48.62735" lon="-2.32905">
        <ele>48.7</ele>
        <time>2021-07-27T17:59:37Z</time>
      </trkpt>
      <trkpt lat="48.62737" lon="-2.32892">
        <ele>48</ele>
        <time>2021-07-27T17:59:38Z</time>
      </trkpt>
      <trkpt lat="48.62739" lon="-2.32873">
        <ele>46.9</ele>
        <time>2021-07-27T17:59:40Z</time>
      </trkpt>
      <trkpt lat="48.62739" lon="-2.32862">
        <ele>46.4</ele>
        <time>2021-07-27T17:59:41Z</time>
      </trkpt>
      <trkpt lat="48.62738" lon="-2.32851">
        <ele>45.9</ele>
        <time>2021-07-27T17:59:42Z</time>
      </trkpt>
      <trkpt lat="48.62733" lon="-2.3283">
        <ele>44.8</ele>
        <time>2021-07-27T17:59:44Z</time>
      </trkpt>
      <trkpt lat="48.62726" lon="-2.3281">
        <ele>43.7</ele>
        <time>2021-07-27T17:59:46Z</time>
      </trkpt>
      <trkpt lat="48.62723" lon="-2.32801">
        <ele>43.2</ele>
        <time>2021-07-27T17:59:47Z</time>
      </trkpt>
      <trkpt lat="48.6272" lon="-2.32793">
        <ele>42.8</ele>
        <time>2021-07-27T17:59:48Z</time>
      </trkpt>
      <trkpt lat="48.62716" lon="-2.32786">
        <ele>42.5</ele>
        <time>2021-07-27T17:59:49Z</time>
      </trkpt>
      <trkpt lat="48.62714" lon="-2.3278">
        <ele>42.2</ele>
        <time>2021-07-27T17:59:50Z</time>
      </trkpt>
      <trkpt lat="48.62712" lon="-2.32777">
        <ele>42.1</ele>
        <time>2021-07-27T17:59:51Z</time>
      </trkpt>
      <trkpt lat="48.6271" lon="-2.32774">
        <ele>41.9</ele>
        <time>2021-07-27T17:59:52Z</time>
      </trkpt>
      <trkpt lat="48.62708" lon="-2.32773">
        <ele>41.8</ele>
        <time>2021-07-27T17:59:53Z</time>
      </trkpt>
      <trkpt lat="48.62702" lon="-2.32775">
        <ele>41.6</ele>
        <time>2021-07-27T17:59:55Z</time>
      </trkpt>
      <trkpt lat="48.62705" lon="-2.32775">
        <ele>41.6</ele>
        <time>2021-07-27T17:59:56Z</time>
      </trkpt>
      <trkpt lat="48.62707" lon="-2.32775">
        <ele>41.5</ele>
        <time>2021-07-27T17:59:57Z</time>
      </trkpt>
      <trkpt lat="48.62699" lon="-2.32782">
        <ele>41.4</ele>
        <time>2021-07-27T17:59:59Z</time>
      </trkpt>
      <trkpt lat="48.62689" lon="-2.32788">
        <ele>41.2</ele>
        <time>2021-07-27T18:00:01Z</time>
      </trkpt>
      <trkpt lat="48.62685" lon="-2.32792">
        <ele>41.1</ele>
        <time>2021-07-27T18:00:02Z</time>
      </trkpt>
      <trkpt lat="48.62681" lon="-2.32795">
        <ele>41.1</ele>
        <time>2021-07-27T18:00:03Z</time>
      </trkpt>
      <trkpt lat="48.62677" lon="-2.32801">
        <ele>41</ele>
        <time>2021-07-27T18:00:05Z</time>
      </trkpt>
      <trkpt lat="48.62673" lon="-2.32805">
        <ele>40.9</ele>
        <time>2021-07-27T18:00:06Z</time>
      </trkpt>
      <trkpt lat="48.6267" lon="-2.3281">
        <ele>40.9</ele>
        <time>2021-07-27T18:00:08Z</time>
      </trkpt>
      <trkpt lat="48.62665" lon="-2.32816">
        <ele>40.7</ele>
        <time>2021-07-27T18:00:09Z</time>
      </trkpt>
      <trkpt lat="48.62661" lon="-2.32821">
        <ele>40.5</ele>
        <time>2021-07-27T18:00:10Z</time>
      </trkpt>
      <trkpt lat="48.62658" lon="-2.32824">
        <ele>40.3</ele>
        <time>2021-07-27T18:00:11Z</time>
      </trkpt>
      <trkpt lat="48.62654" lon="-2.32829">
        <ele>40.1</ele>
        <time>2021-07-27T18:00:13Z</time>
      </trkpt>
      <trkpt lat="48.6265" lon="-2.32833">
        <ele>39.8</ele>
        <time>2021-07-27T18:00:14Z</time>
      </trkpt>
      <trkpt lat="48.6264" lon="-2.32848">
        <ele>39.1</ele>
        <time>2021-07-27T18:00:15Z</time>
      </trkpt>
      <trkpt lat="48.62627" lon="-2.32866">
        <ele>38.3</ele>
        <time>2021-07-27T18:00:17Z</time>
      </trkpt>
      <trkpt lat="48.62621" lon="-2.32873">
        <ele>38</ele>
        <time>2021-07-27T18:00:18Z</time>
      </trkpt>
      <trkpt lat="48.6261" lon="-2.32886">
        <ele>37.5</ele>
        <time>2021-07-27T18:00:20Z</time>
      </trkpt>
      <trkpt lat="48.62604" lon="-2.32892">
        <ele>37.2</ele>
        <time>2021-07-27T18:00:21Z</time>
      </trkpt>
      <trkpt lat="48.626" lon="-2.32898">
        <ele>37</ele>
        <time>2021-07-27T18:00:22Z</time>
      </trkpt>
      <trkpt lat="48.62595" lon="-2.32904">
        <ele>36.8</ele>
        <time>2021-07-27T18:00:23Z</time>
      </trkpt>
      <trkpt lat="48.62588" lon="-2.32914">
        <ele>36.4</ele>
        <time>2021-07-27T18:00:25Z</time>
      </trkpt>
      <trkpt lat="48.62584" lon="-2.32915">
        <ele>36.3</ele>
        <time>2021-07-27T18:00:27Z</time>
      </trkpt>
      <trkpt lat="48.62583" lon="-2.32915">
        <ele>36.2</ele>
        <time>2021-07-27T18:00:28Z</time>
      </trkpt>
      <trkpt lat="48.62581" lon="-2.32915">
        <ele>36.2</ele>
        <time>2021-07-27T18:00:30Z</time>
      </trkpt>
      <trkpt lat="48.62581" lon="-2.32915">
        <ele>36.2</ele>
        <time>2021-07-27T18:00:33Z</time>
      </trkpt>
      <trkpt lat="48.6258" lon="-2.32915">
        <ele>36.1</ele>
        <time>2021-07-27T18:00:34Z</time>
      </trkpt>
      <trkpt lat="48.6258" lon="-2.32915">
        <ele>36.1</ele>
        <time>2021-07-27T18:00:36Z</time>
      </trkpt>
      <trkpt lat="48.6258" lon="-2.32915">
        <ele>36.1</ele>
        <time>2021-07-27T18:00:37Z</time>
      </trkpt>
      <trkpt lat="48.6258" lon="-2.32915">
        <ele>36.1</ele>
        <time>2021-07-27T18:00:39Z</time>
      </trkpt>
      <trkpt lat="48.6258" lon="-2.32914">
        <ele>36.1</ele>
        <time>2021-07-27T18:00:40Z</time>
      </trkpt>
      <trkpt lat="48.6258" lon="-2.32914">
        <ele>36.1</ele>
        <time>2021-07-27T18:00:41Z</time>
      </trkpt>
      <trkpt lat="48.6258" lon="-2.32914">
        <ele>36.1</ele>
        <time>2021-07-27T18:00:43Z</time>
      </trkpt>
      <trkpt lat="48.62581" lon="-2.32915">
        <ele>36.1</ele>
        <time>2021-07-27T18:00:44Z</time>
      </trkpt>
      <trkpt lat="48.62581" lon="-2.32915">
        <ele>36.1</ele>
        <time>2021-07-27T18:00:46Z</time>
      </trkpt>
      <trkpt lat="48.62581" lon="-2.32915">
        <ele>36.1</ele>
        <time>2021-07-27T18:00:48Z</time>
      </trkpt>
      <trkpt lat="48.62581" lon="-2.32916">
        <ele>36</ele>
        <time>2021-07-27T18:00:50Z</time>
      </trkpt>
      <trkpt lat="48.6258" lon="-2.32922">
        <ele>35.9</ele>
        <time>2021-07-27T18:01:04Z</time>
      </trkpt>
      <trkpt lat="48.62578" lon="-2.32926">
        <ele>35.8</ele>
        <time>2021-07-27T18:01:05Z</time>
      </trkpt>
      <trkpt lat="48.62576" lon="-2.32929">
        <ele>35.7</ele>
        <time>2021-07-27T18:01:06Z</time>
      </trkpt>
      <trkpt lat="48.62571" lon="-2.32937">
        <ele>35.4</ele>
        <time>2021-07-27T18:01:08Z</time>
      </trkpt>
      <trkpt lat="48.62569" lon="-2.32942">
        <ele>35.2</ele>
        <time>2021-07-27T18:01:09Z</time>
      </trkpt>
      <trkpt lat="48.62566" lon="-2.32946">
        <ele>35.1</ele>
        <time>2021-07-27T18:01:10Z</time>
      </trkpt>
      <trkpt lat="48.62562" lon="-2.32954">
        <ele>34.8</ele>
        <time>2021-07-27T18:01:12Z</time>
      </trkpt>
      <trkpt lat="48.62559" lon="-2.32959">
        <ele>34.6</ele>
        <time>2021-07-27T18:01:13Z</time>
      </trkpt>
      <trkpt lat="48.62556" lon="-2.32964">
        <ele>34.4</ele>
        <time>2021-07-27T18:01:14Z</time>
      </trkpt>
      <trkpt lat="48.62552" lon="-2.32971">
        <ele>34.2</ele>
        <time>2021-07-27T18:01:15Z</time>
      </trkpt>
      <trkpt lat="48.62548" lon="-2.32976">
        <ele>34</ele>
        <time>2021-07-27T18:01:16Z</time>
      </trkpt>
      <trkpt lat="48.62541" lon="-2.32987">
        <ele>33.6</ele>
        <time>2021-07-27T18:01:18Z</time>
      </trkpt>
      <trkpt lat="48.62534" lon="-2.32997">
        <ele>33.1</ele>
        <time>2021-07-27T18:01:20Z</time>
      </trkpt>
      <trkpt lat="48.62526" lon="-2.33008">
        <ele>32.7</ele>
        <time>2021-07-27T18:01:22Z</time>
      </trkpt>
      <trkpt lat="48.62523" lon="-2.33013">
        <ele>32.5</ele>
        <time>2021-07-27T18:01:23Z</time>
      </trkpt>
      <trkpt lat="48.62519" lon="-2.33018">
        <ele>32.4</ele>
        <time>2021-07-27T18:01:24Z</time>
      </trkpt>
      <trkpt lat="48.62516" lon="-2.33024">
        <ele>32.2</ele>
        <time>2021-07-27T18:01:25Z</time>
      </trkpt>
      <trkpt lat="48.62512" lon="-2.33029">
        <ele>32</ele>
        <time>2021-07-27T18:01:26Z</time>
      </trkpt>
      <trkpt lat="48.62508" lon="-2.33034">
        <ele>31.8</ele>
        <time>2021-07-27T18:01:27Z</time>
      </trkpt>
      <trkpt lat="48.625" lon="-2.33045">
        <ele>31.4</ele>
        <time>2021-07-27T18:01:29Z</time>
      </trkpt>
      <trkpt lat="48.62492" lon="-2.33055">
        <ele>31</ele>
        <time>2021-07-27T18:01:31Z</time>
      </trkpt>
      <trkpt lat="48.62488" lon="-2.3306">
        <ele>30.8</ele>
        <time>2021-07-27T18:01:32Z</time>
      </trkpt>
      <trkpt lat="48.6248" lon="-2.33071">
        <ele>30.3</ele>
        <time>2021-07-27T18:01:34Z</time>
      </trkpt>
      <trkpt lat="48.62472" lon="-2.33084">
        <ele>29.9</ele>
        <time>2021-07-27T18:01:36Z</time>
      </trkpt>
      <trkpt lat="48.62464" lon="-2.33095">
        <ele>29.5</ele>
        <time>2021-07-27T18:01:38Z</time>
      </trkpt>
      <trkpt lat="48.62459" lon="-2.33102">
        <ele>29.3</ele>
        <time>2021-07-27T18:01:39Z</time>
      </trkpt>
      <trkpt lat="48.62455" lon="-2.33108">
        <ele>29.1</ele>
        <time>2021-07-27T18:01:40Z</time>
      </trkpt>
      <trkpt lat="48.6245" lon="-2.33114">
        <ele>28.8</ele>
        <time>2021-07-27T18:01:41Z</time>
      </trkpt>
      <trkpt lat="48.62442" lon="-2.33127">
        <ele>28.4</ele>
        <time>2021-07-27T18:01:43Z</time>
      </trkpt>
      <trkpt lat="48.62433" lon="-2.33141">
        <ele>27.9</ele>
        <time>2021-07-27T18:01:45Z</time>
      </trkpt>
      <trkpt lat="48.62426" lon="-2.33153">
        <ele>27.5</ele>
        <time>2021-07-27T18:01:47Z</time>
      </trkpt>
      <trkpt lat="48.62422" lon="-2.33159">
        <ele>27.2</ele>
        <time>2021-07-27T18:01:48Z</time>
      </trkpt>
      <trkpt lat="48.62414" lon="-2.33172">
        <ele>26.7</ele>
        <time>2021-07-27T18:01:50Z</time>
      </trkpt>
      <trkpt lat="48.6241" lon="-2.33178">
        <ele>26.5</ele>
        <time>2021-07-27T18:01:51Z</time>
      </trkpt>
      <trkpt lat="48.62407" lon="-2.33185">
        <ele>26.3</ele>
        <time>2021-07-27T18:01:52Z</time>
      </trkpt>
      <trkpt lat="48.62404" lon="-2.33191">
        <ele>26.1</ele>
        <time>2021-07-27T18:01:53Z</time>
      </trkpt>
      <trkpt lat="48.62397" lon="-2.33205">
        <ele>25.7</ele>
        <time>2021-07-27T18:01:55Z</time>
      </trkpt>
      <trkpt lat="48.62391" lon="-2.33219">
        <ele>25.2</ele>
        <time>2021-07-27T18:01:57Z</time>
      </trkpt>
      <trkpt lat="48.62388" lon="-2.33226">
        <ele>25</ele>
        <time>2021-07-27T18:01:58Z</time>
      </trkpt>
      <trkpt lat="48.62385" lon="-2.33234">
        <ele>24.8</ele>
        <time>2021-07-27T18:01:59Z</time>
      </trkpt>
      <trkpt lat="48.62382" lon="-2.33241">
        <ele>24.5</ele>
        <time>2021-07-27T18:02:00Z</time>
      </trkpt>
      <trkpt lat="48.62379" lon="-2.33249">
        <ele>24.3</ele>
        <time>2021-07-27T18:02:01Z</time>
      </trkpt>
      <trkpt lat="48.62372" lon="-2.33264">
        <ele>23.9</ele>
        <time>2021-07-27T18:02:03Z</time>
      </trkpt>
      <trkpt lat="48.62365" lon="-2.33279">
        <ele>23.5</ele>
        <time>2021-07-27T18:02:05Z</time>
      </trkpt>
      <trkpt lat="48.62359" lon="-2.33294">
        <ele>23</ele>
        <time>2021-07-27T18:02:07Z</time>
      </trkpt>
      <trkpt lat="48.62353" lon="-2.3331">
        <ele>22.5</ele>
        <time>2021-07-27T18:02:09Z</time>
      </trkpt>
      <trkpt lat="48.6235" lon="-2.33318">
        <ele>22.3</ele>
        <time>2021-07-27T18:02:10Z</time>
      </trkpt>
      <trkpt lat="48.62346" lon="-2.33326">
        <ele>22.1</ele>
        <time>2021-07-27T18:02:11Z</time>
      </trkpt>
      <trkpt lat="48.6234" lon="-2.33341">
        <ele>21.6</ele>
        <time>2021-07-27T18:02:13Z</time>
      </trkpt>
      <trkpt lat="48.62333" lon="-2.33356">
        <ele>21.2</ele>
        <time>2021-07-27T18:02:15Z</time>
      </trkpt>
      <trkpt lat="48.62325" lon="-2.33372">
        <ele>20.8</ele>
        <time>2021-07-27T18:02:17Z</time>
      </trkpt>
      <trkpt lat="48.62318" lon="-2.33386">
        <ele>20.3</ele>
        <time>2021-07-27T18:02:19Z</time>
      </trkpt>
      <trkpt lat="48.6231" lon="-2.33401">
        <ele>19.9</ele>
        <time>2021-07-27T18:02:21Z</time>
      </trkpt>
      <trkpt lat="48.62302" lon="-2.33416">
        <ele>19.5</ele>
        <time>2021-07-27T18:02:23Z</time>
      </trkpt>
      <trkpt lat="48.62292" lon="-2.33429">
        <ele>19</ele>
        <time>2021-07-27T18:02:25Z</time>
      </trkpt>
      <trkpt lat="48.62282" lon="-2.33442">
        <ele>18.6</ele>
        <time>2021-07-27T18:02:27Z</time>
      </trkpt>
      <trkpt lat="48.62277" lon="-2.33448">
        <ele>18.3</ele>
        <time>2021-07-27T18:02:28Z</time>
      </trkpt>
      <trkpt lat="48.62265" lon="-2.33459">
        <ele>17.9</ele>
        <time>2021-07-27T18:02:30Z</time>
      </trkpt>
      <trkpt lat="48.62254" lon="-2.33469">
        <ele>17.4</ele>
        <time>2021-07-27T18:02:32Z</time>
      </trkpt>
      <trkpt lat="48.62243" lon="-2.33476">
        <ele>17</ele>
        <time>2021-07-27T18:02:34Z</time>
      </trkpt>
      <trkpt lat="48.62232" lon="-2.33484">
        <ele>16.6</ele>
        <time>2021-07-27T18:02:36Z</time>
      </trkpt>
      <trkpt lat="48.62226" lon="-2.33488">
        <ele>16.3</ele>
        <time>2021-07-27T18:02:37Z</time>
      </trkpt>
      <trkpt lat="48.62221" lon="-2.33493">
        <ele>16.1</ele>
        <time>2021-07-27T18:02:38Z</time>
      </trkpt>
      <trkpt lat="48.62209" lon="-2.33504">
        <ele>15.6</ele>
        <time>2021-07-27T18:02:40Z</time>
      </trkpt>
      <trkpt lat="48.62205" lon="-2.3351">
        <ele>15.4</ele>
        <time>2021-07-27T18:02:41Z</time>
      </trkpt>
      <trkpt lat="48.62196" lon="-2.33523">
        <ele>14.9</ele>
        <time>2021-07-27T18:02:43Z</time>
      </trkpt>
      <trkpt lat="48.62191" lon="-2.3353">
        <ele>14.7</ele>
        <time>2021-07-27T18:02:44Z</time>
      </trkpt>
      <trkpt lat="48.62182" lon="-2.33543">
        <ele>14.2</ele>
        <time>2021-07-27T18:02:46Z</time>
      </trkpt>
      <trkpt lat="48.62173" lon="-2.33557">
        <ele>13.6</ele>
        <time>2021-07-27T18:02:48Z</time>
      </trkpt>
      <trkpt lat="48.62169" lon="-2.33564">
        <ele>13.4</ele>
        <time>2021-07-27T18:02:49Z</time>
      </trkpt>
      <trkpt lat="48.6216" lon="-2.33578">
        <ele>12.9</ele>
        <time>2021-07-27T18:02:51Z</time>
      </trkpt>
      <trkpt lat="48.62155" lon="-2.33585">
        <ele>12.6</ele>
        <time>2021-07-27T18:02:52Z</time>
      </trkpt>
      <trkpt lat="48.62146" lon="-2.336">
        <ele>12</ele>
        <time>2021-07-27T18:02:54Z</time>
      </trkpt>
      <trkpt lat="48.62141" lon="-2.33608">
        <ele>11.7</ele>
        <time>2021-07-27T18:02:55Z</time>
      </trkpt>
      <trkpt lat="48.62132" lon="-2.33622">
        <ele>11.2</ele>
        <time>2021-07-27T18:02:57Z</time>
      </trkpt>
      <trkpt lat="48.62122" lon="-2.33638">
        <ele>10.5</ele>
        <time>2021-07-27T18:02:59Z</time>
      </trkpt>
      <trkpt lat="48.62119" lon="-2.33647">
        <ele>10.2</ele>
        <time>2021-07-27T18:03:00Z</time>
      </trkpt>
      <trkpt lat="48.6211" lon="-2.33663">
        <ele>9.7</ele>
        <time>2021-07-27T18:03:02Z</time>
      </trkpt>
      <trkpt lat="48.62106" lon="-2.33671">
        <ele>9.5</ele>
        <time>2021-07-27T18:03:03Z</time>
      </trkpt>
      <trkpt lat="48.62098" lon="-2.33687">
        <ele>9.1</ele>
        <time>2021-07-27T18:03:05Z</time>
      </trkpt>
      <trkpt lat="48.62095" lon="-2.33695">
        <ele>8.9</ele>
        <time>2021-07-27T18:03:06Z</time>
      </trkpt>
      <trkpt lat="48.62086" lon="-2.3371">
        <ele>8.4</ele>
        <time>2021-07-27T18:03:08Z</time>
      </trkpt>
      <trkpt lat="48.62077" lon="-2.33726">
        <ele>8</ele>
        <time>2021-07-27T18:03:10Z</time>
      </trkpt>
      <trkpt lat="48.62071" lon="-2.33735">
        <ele>7.9</ele>
        <time>2021-07-27T18:03:11Z</time>
      </trkpt>
      <trkpt lat="48.62062" lon="-2.33753">
        <ele>7.9</ele>
        <time>2021-07-27T18:03:13Z</time>
      </trkpt>
      <trkpt lat="48.62059" lon="-2.3376">
        <ele>7.9</ele>
        <time>2021-07-27T18:03:14Z</time>
      </trkpt>
      <trkpt lat="48.62053" lon="-2.33771">
        <ele>8</ele>
        <time>2021-07-27T18:03:16Z</time>
      </trkpt>
      <trkpt lat="48.6205" lon="-2.33776">
        <ele>8.1</ele>
        <time>2021-07-27T18:03:17Z</time>
      </trkpt>
      <trkpt lat="48.62044" lon="-2.33786">
        <ele>8.2</ele>
        <time>2021-07-27T18:03:19Z</time>
      </trkpt>
      <trkpt lat="48.62037" lon="-2.33795">
        <ele>8.3</ele>
        <time>2021-07-27T18:03:21Z</time>
      </trkpt>
      <trkpt lat="48.62031" lon="-2.33804">
        <ele>8.5</ele>
        <time>2021-07-27T18:03:23Z</time>
      </trkpt>
      <trkpt lat="48.62027" lon="-2.33811">
        <ele>8.6</ele>
        <time>2021-07-27T18:03:25Z</time>
      </trkpt>
      <trkpt lat="48.62023" lon="-2.33814">
        <ele>8.7</ele>
        <time>2021-07-27T18:03:26Z</time>
      </trkpt>
      <trkpt lat="48.62026" lon="-2.33813">
        <ele>8.8</ele>
        <time>2021-07-27T18:03:28Z</time>
      </trkpt>
      <trkpt lat="48.62021" lon="-2.33809">
        <ele>8.9</ele>
        <time>2021-07-27T18:03:30Z</time>
      </trkpt>
      <trkpt lat="48.62015" lon="-2.33807">
        <ele>9.4</ele>
        <time>2021-07-27T18:03:31Z</time>
      </trkpt>
      <trkpt lat="48.62008" lon="-2.33804">
        <ele>9.4</ele>
        <time>2021-07-27T18:03:32Z</time>
      </trkpt>
      <trkpt lat="48.62003" lon="-2.33799">
        <ele>9.3</ele>
        <time>2021-07-27T18:03:34Z</time>
      </trkpt>
      <trkpt lat="48.61999" lon="-2.33794">
        <ele>9.2</ele>
        <time>2021-07-27T18:03:35Z</time>
      </trkpt>
      <trkpt lat="48.61995" lon="-2.33787">
        <ele>9.2</ele>
        <time>2021-07-27T18:03:36Z</time>
      </trkpt>
      <trkpt lat="48.6199" lon="-2.33781">
        <ele>9.2</ele>
        <time>2021-07-27T18:03:38Z</time>
      </trkpt>
      <trkpt lat="48.61985" lon="-2.33776">
        <ele>9.1</ele>
        <time>2021-07-27T18:03:39Z</time>
      </trkpt>
      <trkpt lat="48.6198" lon="-2.33772">
        <ele>9.1</ele>
        <time>2021-07-27T18:03:41Z</time>
      </trkpt>
      <trkpt lat="48.61975" lon="-2.33766">
        <ele>9.1</ele>
        <time>2021-07-27T18:03:42Z</time>
      </trkpt>
      <trkpt lat="48.61972" lon="-2.33762">
        <ele>9.1</ele>
        <time>2021-07-27T18:03:43Z</time>
      </trkpt>
      <trkpt lat="48.61967" lon="-2.33755">
        <ele>9.1</ele>
        <time>2021-07-27T18:03:45Z</time>
      </trkpt>
      <trkpt lat="48.61964" lon="-2.33751">
        <ele>9.1</ele>
        <time>2021-07-27T18:03:46Z</time>
      </trkpt>
      <trkpt lat="48.61961" lon="-2.33748">
        <ele>9.1</ele>
        <time>2021-07-27T18:03:47Z</time>
      </trkpt>
      <trkpt lat="48.61956" lon="-2.33742">
        <ele>9.1</ele>
        <time>2021-07-27T18:03:49Z</time>
      </trkpt>
      <trkpt lat="48.61952" lon="-2.33737">
        <ele>9</ele>
        <time>2021-07-27T18:03:50Z</time>
      </trkpt>
      <trkpt lat="48.61948" lon="-2.33731">
        <ele>9</ele>
        <time>2021-07-27T18:03:51Z</time>
      </trkpt>
      <trkpt lat="48.61944" lon="-2.33726">
        <ele>9</ele>
        <time>2021-07-27T18:03:53Z</time>
      </trkpt>
      <trkpt lat="48.6194" lon="-2.33721">
        <ele>8.9</ele>
        <time>2021-07-27T18:03:54Z</time>
      </trkpt>
      <trkpt lat="48.61936" lon="-2.33715">
        <ele>8.8</ele>
        <time>2021-07-27T18:03:55Z</time>
      </trkpt>
      <trkpt lat="48.61929" lon="-2.33707">
        <ele>8.7</ele>
        <time>2021-07-27T18:03:57Z</time>
      </trkpt>
      <trkpt lat="48.61926" lon="-2.33703">
        <ele>8.6</ele>
        <time>2021-07-27T18:03:58Z</time>
      </trkpt>
      <trkpt lat="48.6192" lon="-2.33695">
        <ele>8.5</ele>
        <time>2021-07-27T18:04:00Z</time>
      </trkpt>
      <trkpt lat="48.61917" lon="-2.33691">
        <ele>8.4</ele>
        <time>2021-07-27T18:04:01Z</time>
      </trkpt>
      <trkpt lat="48.61911" lon="-2.33683">
        <ele>8.3</ele>
        <time>2021-07-27T18:04:03Z</time>
      </trkpt>
      <trkpt lat="48.61907" lon="-2.33678">
        <ele>8.2</ele>
        <time>2021-07-27T18:04:04Z</time>
      </trkpt>
      <trkpt lat="48.61903" lon="-2.33674">
        <ele>8.1</ele>
        <time>2021-07-27T18:04:06Z</time>
      </trkpt>
      <trkpt lat="48.619" lon="-2.33671">
        <ele>8</ele>
        <time>2021-07-27T18:04:07Z</time>
      </trkpt>
      <trkpt lat="48.61897" lon="-2.33668">
        <ele>8</ele>
        <time>2021-07-27T18:04:08Z</time>
      </trkpt>
      <trkpt lat="48.61894" lon="-2.33664">
        <ele>7.9</ele>
        <time>2021-07-27T18:04:09Z</time>
      </trkpt>
      <trkpt lat="48.61888" lon="-2.33659">
        <ele>7.8</ele>
        <time>2021-07-27T18:04:11Z</time>
      </trkpt>
      <trkpt lat="48.61882" lon="-2.33651">
        <ele>7.7</ele>
        <time>2021-07-27T18:04:13Z</time>
      </trkpt>
      <trkpt lat="48.61879" lon="-2.33646">
        <ele>7.6</ele>
        <time>2021-07-27T18:04:14Z</time>
      </trkpt>
      <trkpt lat="48.61876" lon="-2.33641">
        <ele>7.6</ele>
        <time>2021-07-27T18:04:15Z</time>
      </trkpt>
      <trkpt lat="48.61873" lon="-2.33635">
        <ele>7.6</ele>
        <time>2021-07-27T18:04:16Z</time>
      </trkpt>
      <trkpt lat="48.6187" lon="-2.3363">
        <ele>7.6</ele>
        <time>2021-07-27T18:04:17Z</time>
      </trkpt>
      <trkpt lat="48.61866" lon="-2.33624">
        <ele>7.5</ele>
        <time>2021-07-27T18:04:18Z</time>
      </trkpt>
      <trkpt lat="48.61861" lon="-2.33616">
        <ele>7.5</ele>
        <time>2021-07-27T18:04:20Z</time>
      </trkpt>
      <trkpt lat="48.61856" lon="-2.33611">
        <ele>7.5</ele>
        <time>2021-07-27T18:04:21Z</time>
      </trkpt>
      <trkpt lat="48.61851" lon="-2.33606">
        <ele>7.5</ele>
        <time>2021-07-27T18:04:23Z</time>
      </trkpt>
      <trkpt lat="48.61846" lon="-2.336">
        <ele>7.5</ele>
        <time>2021-07-27T18:04:24Z</time>
      </trkpt>
      <trkpt lat="48.61841" lon="-2.33593">
        <ele>7.5</ele>
        <time>2021-07-27T18:04:26Z</time>
      </trkpt>
      <trkpt lat="48.61838" lon="-2.33588">
        <ele>7.6</ele>
        <time>2021-07-27T18:04:27Z</time>
      </trkpt>
      <trkpt lat="48.61836" lon="-2.33581">
        <ele>7.6</ele>
        <time>2021-07-27T18:04:29Z</time>
      </trkpt>
      <trkpt lat="48.61827" lon="-2.33571">
        <ele>7.8</ele>
        <time>2021-07-27T18:04:31Z</time>
      </trkpt>
      <trkpt lat="48.61817" lon="-2.33564">
        <ele>7.8</ele>
        <time>2021-07-27T18:04:33Z</time>
      </trkpt>
      <trkpt lat="48.61809" lon="-2.33557">
        <ele>8</ele>
        <time>2021-07-27T18:04:35Z</time>
      </trkpt>
      <trkpt lat="48.61806" lon="-2.33554">
        <ele>8.1</ele>
        <time>2021-07-27T18:04:36Z</time>
      </trkpt>
      <trkpt lat="48.61797" lon="-2.33547">
        <ele>8.4</ele>
        <time>2021-07-27T18:04:38Z</time>
      </trkpt>
      <trkpt lat="48.61788" lon="-2.33541">
        <ele>8.8</ele>
        <time>2021-07-27T18:04:40Z</time>
      </trkpt>
      <trkpt lat="48.61779" lon="-2.33532">
        <ele>9.4</ele>
        <time>2021-07-27T18:04:42Z</time>
      </trkpt>
      <trkpt lat="48.6177" lon="-2.33522">
        <ele>10.2</ele>
        <time>2021-07-27T18:04:44Z</time>
      </trkpt>
      <trkpt lat="48.61767" lon="-2.33517">
        <ele>10.6</ele>
        <time>2021-07-27T18:04:45Z</time>
      </trkpt>
      <trkpt lat="48.61761" lon="-2.3351">
        <ele>11.4</ele>
        <time>2021-07-27T18:04:47Z</time>
      </trkpt>
      <trkpt lat="48.61759" lon="-2.33506">
        <ele>11.8</ele>
        <time>2021-07-27T18:04:48Z</time>
      </trkpt>
      <trkpt lat="48.61758" lon="-2.33498">
        <ele>12.4</ele>
        <time>2021-07-27T18:04:50Z</time>
      </trkpt>
      <trkpt lat="48.61754" lon="-2.33492">
        <ele>13</ele>
        <time>2021-07-27T18:04:52Z</time>
      </trkpt>
      <trkpt lat="48.61751" lon="-2.33489">
        <ele>13.4</ele>
        <time>2021-07-27T18:04:53Z</time>
      </trkpt>
      <trkpt lat="48.61748" lon="-2.33487">
        <ele>13.9</ele>
        <time>2021-07-27T18:04:54Z</time>
      </trkpt>
      <trkpt lat="48.61745" lon="-2.33482">
        <ele>14.4</ele>
        <time>2021-07-27T18:04:56Z</time>
      </trkpt>
      <trkpt lat="48.61742" lon="-2.33478">
        <ele>15</ele>
        <time>2021-07-27T18:04:58Z</time>
      </trkpt>
      <trkpt lat="48.6174" lon="-2.33472">
        <ele>15.6</ele>
        <time>2021-07-27T18:05:00Z</time>
      </trkpt>
      <trkpt lat="48.61738" lon="-2.33467">
        <ele>16.1</ele>
        <time>2021-07-27T18:05:02Z</time>
      </trkpt>
      <trkpt lat="48.61737" lon="-2.33464">
        <ele>16.5</ele>
        <time>2021-07-27T18:05:03Z</time>
      </trkpt>
      <trkpt lat="48.61736" lon="-2.33459">
        <ele>17</ele>
        <time>2021-07-27T18:05:05Z</time>
      </trkpt>
      <trkpt lat="48.61735" lon="-2.33456">
        <ele>17.3</ele>
        <time>2021-07-27T18:05:06Z</time>
      </trkpt>
      <trkpt lat="48.61733" lon="-2.3345">
        <ele>18</ele>
        <time>2021-07-27T18:05:08Z</time>
      </trkpt>
      <trkpt lat="48.61732" lon="-2.33447">
        <ele>18.3</ele>
        <time>2021-07-27T18:05:09Z</time>
      </trkpt>
      <trkpt lat="48.61732" lon="-2.33445">
        <ele>18.5</ele>
        <time>2021-07-27T18:05:10Z</time>
      </trkpt>
      <trkpt lat="48.6173" lon="-2.33442">
        <ele>19</ele>
        <time>2021-07-27T18:05:12Z</time>
      </trkpt>
      <trkpt lat="48.61727" lon="-2.33436">
        <ele>19.7</ele>
        <time>2021-07-27T18:05:14Z</time>
      </trkpt>
      <trkpt lat="48.61725" lon="-2.33432">
        <ele>20.2</ele>
        <time>2021-07-27T18:05:16Z</time>
      </trkpt>
      <trkpt lat="48.61724" lon="-2.33429">
        <ele>20.6</ele>
        <time>2021-07-27T18:05:17Z</time>
      </trkpt>
      <trkpt lat="48.61722" lon="-2.33423">
        <ele>21.3</ele>
        <time>2021-07-27T18:05:19Z</time>
      </trkpt>
      <trkpt lat="48.61721" lon="-2.33421">
        <ele>21.6</ele>
        <time>2021-07-27T18:05:20Z</time>
      </trkpt>
      <trkpt lat="48.61719" lon="-2.33417">
        <ele>22.1</ele>
        <time>2021-07-27T18:05:22Z</time>
      </trkpt>
      <trkpt lat="48.61715" lon="-2.33411">
        <ele>23</ele>
        <time>2021-07-27T18:05:24Z</time>
      </trkpt>
      <trkpt lat="48.61714" lon="-2.33408">
        <ele>23.5</ele>
        <time>2021-07-27T18:05:26Z</time>
      </trkpt>
      <trkpt lat="48.61711" lon="-2.33401">
        <ele>24.3</ele>
        <time>2021-07-27T18:05:29Z</time>
      </trkpt>
      <trkpt lat="48.6171" lon="-2.33399">
        <ele>24.6</ele>
        <time>2021-07-27T18:05:30Z</time>
      </trkpt>
      <trkpt lat="48.61708" lon="-2.33395">
        <ele>25.1</ele>
        <time>2021-07-27T18:05:32Z</time>
      </trkpt>
      <trkpt lat="48.61707" lon="-2.3339">
        <ele>25.6</ele>
        <time>2021-07-27T18:05:34Z</time>
      </trkpt>
      <trkpt lat="48.61706" lon="-2.33389">
        <ele>25.8</ele>
        <time>2021-07-27T18:05:36Z</time>
      </trkpt>
      <trkpt lat="48.61706" lon="-2.33387">
        <ele>26</ele>
        <time>2021-07-27T18:05:37Z</time>
      </trkpt>
      <trkpt lat="48.61705" lon="-2.33385">
        <ele>26.2</ele>
        <time>2021-07-27T18:05:38Z</time>
      </trkpt>
      <trkpt lat="48.61703" lon="-2.3338">
        <ele>26.9</ele>
        <time>2021-07-27T18:05:40Z</time>
      </trkpt>
      <trkpt lat="48.61702" lon="-2.33377">
        <ele>27.1</ele>
        <time>2021-07-27T18:05:41Z</time>
      </trkpt>
      <trkpt lat="48.61702" lon="-2.33375">
        <ele>27.4</ele>
        <time>2021-07-27T18:05:42Z</time>
      </trkpt>
      <trkpt lat="48.617" lon="-2.33367">
        <ele>28.2</ele>
        <time>2021-07-27T18:05:44Z</time>
      </trkpt>
      <trkpt lat="48.61699" lon="-2.33362">
        <ele>28.6</ele>
        <time>2021-07-27T18:05:46Z</time>
      </trkpt>
      <trkpt lat="48.61698" lon="-2.33361">
        <ele>28.7</ele>
        <time>2021-07-27T18:05:47Z</time>
      </trkpt>
      <trkpt lat="48.61697" lon="-2.3336">
        <ele>28.9</ele>
        <time>2021-07-27T18:05:49Z</time>
      </trkpt>
      <trkpt lat="48.61695" lon="-2.33355">
        <ele>29.3</ele>
        <time>2021-07-27T18:05:51Z</time>
      </trkpt>
      <trkpt lat="48.61693" lon="-2.33351">
        <ele>29.6</ele>
        <time>2021-07-27T18:05:52Z</time>
      </trkpt>
      <trkpt lat="48.61693" lon="-2.3335">
        <ele>29.7</ele>
        <time>2021-07-27T18:05:53Z</time>
      </trkpt>
      <trkpt lat="48.6169" lon="-2.33343">
        <ele>30.2</ele>
        <time>2021-07-27T18:05:55Z</time>
      </trkpt>
      <trkpt lat="48.61687" lon="-2.33337">
        <ele>30.5</ele>
        <time>2021-07-27T18:05:57Z</time>
      </trkpt>
      <trkpt lat="48.61686" lon="-2.33336">
        <ele>30.6</ele>
        <time>2021-07-27T18:05:58Z</time>
      </trkpt>
      <trkpt lat="48.61686" lon="-2.33334">
        <ele>30.7</ele>
        <time>2021-07-27T18:05:59Z</time>
      </trkpt>
      <trkpt lat="48.61685" lon="-2.33332">
        <ele>30.9</ele>
        <time>2021-07-27T18:06:00Z</time>
      </trkpt>
      <trkpt lat="48.61683" lon="-2.33327">
        <ele>31.1</ele>
        <time>2021-07-27T18:06:02Z</time>
      </trkpt>
      <trkpt lat="48.61682" lon="-2.33323">
        <ele>31.3</ele>
        <time>2021-07-27T18:06:03Z</time>
      </trkpt>
      <trkpt lat="48.6168" lon="-2.33317">
        <ele>31.7</ele>
        <time>2021-07-27T18:06:05Z</time>
      </trkpt>
      <trkpt lat="48.61678" lon="-2.3331">
        <ele>32.1</ele>
        <time>2021-07-27T18:06:07Z</time>
      </trkpt>
      <trkpt lat="48.61676" lon="-2.33305">
        <ele>32.4</ele>
        <time>2021-07-27T18:06:09Z</time>
      </trkpt>
      <trkpt lat="48.61674" lon="-2.33299">
        <ele>32.7</ele>
        <time>2021-07-27T18:06:11Z</time>
      </trkpt>
      <trkpt lat="48.61673" lon="-2.33295">
        <ele>32.9</ele>
        <time>2021-07-27T18:06:12Z</time>
      </trkpt>
      <trkpt lat="48.61672" lon="-2.33291">
        <ele>33.1</ele>
        <time>2021-07-27T18:06:14Z</time>
      </trkpt>
      <trkpt lat="48.61671" lon="-2.33288">
        <ele>33.3</ele>
        <time>2021-07-27T18:06:15Z</time>
      </trkpt>
      <trkpt lat="48.6167" lon="-2.33282">
        <ele>33.6</ele>
        <time>2021-07-27T18:06:17Z</time>
      </trkpt>
      <trkpt lat="48.61669" lon="-2.33278">
        <ele>33.8</ele>
        <time>2021-07-27T18:06:18Z</time>
      </trkpt>
      <trkpt lat="48.61668" lon="-2.33277">
        <ele>33.9</ele>
        <time>2021-07-27T18:06:19Z</time>
      </trkpt>
      <trkpt lat="48.61667" lon="-2.33271">
        <ele>34.3</ele>
        <time>2021-07-27T18:06:21Z</time>
      </trkpt>
      <trkpt lat="48.61667" lon="-2.33268">
        <ele>34.4</ele>
        <time>2021-07-27T18:06:22Z</time>
      </trkpt>
      <trkpt lat="48.61666" lon="-2.33266">
        <ele>34.5</ele>
        <time>2021-07-27T18:06:23Z</time>
      </trkpt>
      <trkpt lat="48.61665" lon="-2.33261">
        <ele>34.9</ele>
        <time>2021-07-27T18:06:25Z</time>
      </trkpt>
      <trkpt lat="48.61664" lon="-2.33255">
        <ele>35.2</ele>
        <time>2021-07-27T18:06:27Z</time>
      </trkpt>
      <trkpt lat="48.61663" lon="-2.33251">
        <ele>35.5</ele>
        <time>2021-07-27T18:06:28Z</time>
      </trkpt>
      <trkpt lat="48.61662" lon="-2.33249">
        <ele>35.5</ele>
        <time>2021-07-27T18:06:29Z</time>
      </trkpt>
      <trkpt lat="48.61662" lon="-2.33247">
        <ele>35.7</ele>
        <time>2021-07-27T18:06:30Z</time>
      </trkpt>
      <trkpt lat="48.61661" lon="-2.33241">
        <ele>36</ele>
        <time>2021-07-27T18:06:32Z</time>
      </trkpt>
      <trkpt lat="48.61661" lon="-2.33235">
        <ele>36.3</ele>
        <time>2021-07-27T18:06:34Z</time>
      </trkpt>
      <trkpt lat="48.61659" lon="-2.3323">
        <ele>36.6</ele>
        <time>2021-07-27T18:06:35Z</time>
      </trkpt>
      <trkpt lat="48.61659" lon="-2.33229">
        <ele>36.7</ele>
        <time>2021-07-27T18:06:36Z</time>
      </trkpt>
      <trkpt lat="48.61659" lon="-2.33226">
        <ele>36.8</ele>
        <time>2021-07-27T18:06:37Z</time>
      </trkpt>
      <trkpt lat="48.61658" lon="-2.3322">
        <ele>37.2</ele>
        <time>2021-07-27T18:06:39Z</time>
      </trkpt>
      <trkpt lat="48.61657" lon="-2.33216">
        <ele>37.4</ele>
        <time>2021-07-27T18:06:40Z</time>
      </trkpt>
      <trkpt lat="48.61657" lon="-2.33214">
        <ele>37.5</ele>
        <time>2021-07-27T18:06:41Z</time>
      </trkpt>
      <trkpt lat="48.61656" lon="-2.33209">
        <ele>37.8</ele>
        <time>2021-07-27T18:06:43Z</time>
      </trkpt>
      <trkpt lat="48.61655" lon="-2.33203">
        <ele>38.1</ele>
        <time>2021-07-27T18:06:45Z</time>
      </trkpt>
      <trkpt lat="48.61654" lon="-2.332">
        <ele>38.3</ele>
        <time>2021-07-27T18:06:46Z</time>
      </trkpt>
      <trkpt lat="48.61654" lon="-2.33194">
        <ele>38.5</ele>
        <time>2021-07-27T18:06:48Z</time>
      </trkpt>
      <trkpt lat="48.61653" lon="-2.3319">
        <ele>38.7</ele>
        <time>2021-07-27T18:06:49Z</time>
      </trkpt>
      <trkpt lat="48.61652" lon="-2.33183">
        <ele>39</ele>
        <time>2021-07-27T18:06:51Z</time>
      </trkpt>
      <trkpt lat="48.61652" lon="-2.33179">
        <ele>39.2</ele>
        <time>2021-07-27T18:06:52Z</time>
      </trkpt>
      <trkpt lat="48.61652" lon="-2.33173">
        <ele>39.5</ele>
        <time>2021-07-27T18:06:54Z</time>
      </trkpt>
      <trkpt lat="48.61651" lon="-2.33167">
        <ele>39.7</ele>
        <time>2021-07-27T18:06:56Z</time>
      </trkpt>
      <trkpt lat="48.61651" lon="-2.33161">
        <ele>40</ele>
        <time>2021-07-27T18:06:58Z</time>
      </trkpt>
      <trkpt lat="48.6165" lon="-2.33156">
        <ele>40.2</ele>
        <time>2021-07-27T18:06:59Z</time>
      </trkpt>
      <trkpt lat="48.6165" lon="-2.33154">
        <ele>40.3</ele>
        <time>2021-07-27T18:07:00Z</time>
      </trkpt>
      <trkpt lat="48.61649" lon="-2.33151">
        <ele>40.4</ele>
        <time>2021-07-27T18:07:01Z</time>
      </trkpt>
      <trkpt lat="48.61648" lon="-2.33145">
        <ele>40.6</ele>
        <time>2021-07-27T18:07:03Z</time>
      </trkpt>
      <trkpt lat="48.61647" lon="-2.33139">
        <ele>40.9</ele>
        <time>2021-07-27T18:07:05Z</time>
      </trkpt>
      <trkpt lat="48.61647" lon="-2.33136">
        <ele>41</ele>
        <time>2021-07-27T18:07:06Z</time>
      </trkpt>
      <trkpt lat="48.61646" lon="-2.3313">
        <ele>41.2</ele>
        <time>2021-07-27T18:07:08Z</time>
      </trkpt>
      <trkpt lat="48.61646" lon="-2.33125">
        <ele>41.4</ele>
        <time>2021-07-27T18:07:10Z</time>
      </trkpt>
      <trkpt lat="48.61645" lon="-2.33121">
        <ele>41.5</ele>
        <time>2021-07-27T18:07:11Z</time>
      </trkpt>
      <trkpt lat="48.61644" lon="-2.33115">
        <ele>41.7</ele>
        <time>2021-07-27T18:07:13Z</time>
      </trkpt>
      <trkpt lat="48.61644" lon="-2.33112">
        <ele>41.8</ele>
        <time>2021-07-27T18:07:14Z</time>
      </trkpt>
      <trkpt lat="48.61644" lon="-2.33106">
        <ele>42</ele>
        <time>2021-07-27T18:07:16Z</time>
      </trkpt>
      <trkpt lat="48.61643" lon="-2.331">
        <ele>42.1</ele>
        <time>2021-07-27T18:07:18Z</time>
      </trkpt>
      <trkpt lat="48.61643" lon="-2.33092">
        <ele>42.3</ele>
        <time>2021-07-27T18:07:20Z</time>
      </trkpt>
      <trkpt lat="48.61642" lon="-2.33087">
        <ele>42.3</ele>
        <time>2021-07-27T18:07:21Z</time>
      </trkpt>
      <trkpt lat="48.61642" lon="-2.33085">
        <ele>42.3</ele>
        <time>2021-07-27T18:07:22Z</time>
      </trkpt>
      <trkpt lat="48.6164" lon="-2.33078">
        <ele>42.4</ele>
        <time>2021-07-27T18:07:24Z</time>
      </trkpt>
      <trkpt lat="48.61638" lon="-2.33075">
        <ele>42.4</ele>
        <time>2021-07-27T18:07:25Z</time>
      </trkpt>
      <trkpt lat="48.61633" lon="-2.33072">
        <ele>42.3</ele>
        <time>2021-07-27T18:07:27Z</time>
      </trkpt>
      <trkpt lat="48.61626" lon="-2.33074">
        <ele>42.2</ele>
        <time>2021-07-27T18:07:29Z</time>
      </trkpt>
      <trkpt lat="48.61619" lon="-2.33078">
        <ele>42.1</ele>
        <time>2021-07-27T18:07:31Z</time>
      </trkpt>
      <trkpt lat="48.61617" lon="-2.3308">
        <ele>42.1</ele>
        <time>2021-07-27T18:07:32Z</time>
      </trkpt>
      <trkpt lat="48.61613" lon="-2.33084">
        <ele>42</ele>
        <time>2021-07-27T18:07:34Z</time>
      </trkpt>
      <trkpt lat="48.6161" lon="-2.33088">
        <ele>41.9</ele>
        <time>2021-07-27T18:07:35Z</time>
      </trkpt>
      <trkpt lat="48.61608" lon="-2.33091">
        <ele>41.8</ele>
        <time>2021-07-27T18:07:36Z</time>
      </trkpt>
      <trkpt lat="48.61603" lon="-2.33096">
        <ele>41.7</ele>
        <time>2021-07-27T18:07:38Z</time>
      </trkpt>
      <trkpt lat="48.61596" lon="-2.33103">
        <ele>41.6</ele>
        <time>2021-07-27T18:07:40Z</time>
      </trkpt>
      <trkpt lat="48.61588" lon="-2.33106">
        <ele>41.5</ele>
        <time>2021-07-27T18:07:42Z</time>
      </trkpt>
      <trkpt lat="48.61583" lon="-2.33106">
        <ele>41.5</ele>
        <time>2021-07-27T18:07:43Z</time>
      </trkpt>
      <trkpt lat="48.61575" lon="-2.33103">
        <ele>41.5</ele>
        <time>2021-07-27T18:07:45Z</time>
      </trkpt>
      <trkpt lat="48.6157" lon="-2.33098">
        <ele>41.5</ele>
        <time>2021-07-27T18:07:47Z</time>
      </trkpt>
      <trkpt lat="48.61567" lon="-2.33091">
        <ele>41.4</ele>
        <time>2021-07-27T18:07:48Z</time>
      </trkpt>
      <trkpt lat="48.61564" lon="-2.33085">
        <ele>41.4</ele>
        <time>2021-07-27T18:07:49Z</time>
      </trkpt>
      <trkpt lat="48.6156" lon="-2.33076">
        <ele>41.2</ele>
        <time>2021-07-27T18:07:51Z</time>
      </trkpt>
      <trkpt lat="48.61557" lon="-2.33067">
        <ele>41.1</ele>
        <time>2021-07-27T18:07:52Z</time>
      </trkpt>
      <trkpt lat="48.61554" lon="-2.33057">
        <ele>40.9</ele>
        <time>2021-07-27T18:07:54Z</time>
      </trkpt>
      <trkpt lat="48.61552" lon="-2.3305">
        <ele>40.8</ele>
        <time>2021-07-27T18:07:55Z</time>
      </trkpt>
      <trkpt lat="48.61551" lon="-2.33043">
        <ele>40.6</ele>
        <time>2021-07-27T18:07:56Z</time>
      </trkpt>
      <trkpt lat="48.61548" lon="-2.33031">
        <ele>40.3</ele>
        <time>2021-07-27T18:07:58Z</time>
      </trkpt>
      <trkpt lat="48.61546" lon="-2.33023">
        <ele>40</ele>
        <time>2021-07-27T18:07:59Z</time>
      </trkpt>
      <trkpt lat="48.61543" lon="-2.33016">
        <ele>39.7</ele>
        <time>2021-07-27T18:08:00Z</time>
      </trkpt>
      <trkpt lat="48.61538" lon="-2.33">
        <ele>39.1</ele>
        <time>2021-07-27T18:08:02Z</time>
      </trkpt>
      <trkpt lat="48.61535" lon="-2.32993">
        <ele>38.8</ele>
        <time>2021-07-27T18:08:03Z</time>
      </trkpt>
      <trkpt lat="48.61528" lon="-2.32977">
        <ele>38.3</ele>
        <time>2021-07-27T18:08:05Z</time>
      </trkpt>
      <trkpt lat="48.61525" lon="-2.32969">
        <ele>37.9</ele>
        <time>2021-07-27T18:08:06Z</time>
      </trkpt>
      <trkpt lat="48.61521" lon="-2.3295">
        <ele>37.3</ele>
        <time>2021-07-27T18:08:08Z</time>
      </trkpt>
      <trkpt lat="48.6152" lon="-2.32939">
        <ele>37</ele>
        <time>2021-07-27T18:08:09Z</time>
      </trkpt>
      <trkpt lat="48.6152" lon="-2.32916">
        <ele>36.5</ele>
        <time>2021-07-27T18:08:11Z</time>
      </trkpt>
      <trkpt lat="48.6152" lon="-2.32892">
        <ele>36.4</ele>
        <time>2021-07-27T18:08:13Z</time>
      </trkpt>
      <trkpt lat="48.61526" lon="-2.32872">
        <ele>37</ele>
        <time>2021-07-27T18:08:15Z</time>
      </trkpt>
      <trkpt lat="48.61531" lon="-2.32866">
        <ele>37.8</ele>
        <time>2021-07-27T18:08:16Z</time>
      </trkpt>
      <trkpt lat="48.61537" lon="-2.32861">
        <ele>38.5</ele>
        <time>2021-07-27T18:08:17Z</time>
      </trkpt>
      <trkpt lat="48.61542" lon="-2.32859">
        <ele>39.2</ele>
        <time>2021-07-27T18:08:18Z</time>
      </trkpt>
      <trkpt lat="48.61552" lon="-2.32854">
        <ele>40.6</ele>
        <time>2021-07-27T18:08:20Z</time>
      </trkpt>
      <trkpt lat="48.61556" lon="-2.32851">
        <ele>40.7</ele>
        <time>2021-07-27T18:08:21Z</time>
      </trkpt>
      <trkpt lat="48.61561" lon="-2.32842">
        <ele>40.9</ele>
        <time>2021-07-27T18:08:23Z</time>
      </trkpt>
      <trkpt lat="48.61562" lon="-2.32835">
        <ele>40.9</ele>
        <time>2021-07-27T18:08:24Z</time>
      </trkpt>
      <trkpt lat="48.61563" lon="-2.32819">
        <ele>41.2</ele>
        <time>2021-07-27T18:08:26Z</time>
      </trkpt>
      <trkpt lat="48.61564" lon="-2.32811">
        <ele>41.3</ele>
        <time>2021-07-27T18:08:27Z</time>
      </trkpt>
      <trkpt lat="48.61565" lon="-2.32795">
        <ele>41.6</ele>
        <time>2021-07-27T18:08:29Z</time>
      </trkpt>
      <trkpt lat="48.61566" lon="-2.32788">
        <ele>41.8</ele>
        <time>2021-07-27T18:08:30Z</time>
      </trkpt>
      <trkpt lat="48.61567" lon="-2.3278">
        <ele>42</ele>
        <time>2021-07-27T18:08:31Z</time>
      </trkpt>
      <trkpt lat="48.61568" lon="-2.32765">
        <ele>42.4</ele>
        <time>2021-07-27T18:08:33Z</time>
      </trkpt>
      <trkpt lat="48.61568" lon="-2.32758">
        <ele>42.6</ele>
        <time>2021-07-27T18:08:34Z</time>
      </trkpt>
      <trkpt lat="48.61569" lon="-2.32751">
        <ele>42.8</ele>
        <time>2021-07-27T18:08:35Z</time>
      </trkpt>
      <trkpt lat="48.6157" lon="-2.32736">
        <ele>43.3</ele>
        <time>2021-07-27T18:08:37Z</time>
      </trkpt>
      <trkpt lat="48.61571" lon="-2.32722">
        <ele>43.9</ele>
        <time>2021-07-27T18:08:39Z</time>
      </trkpt>
      <trkpt lat="48.61573" lon="-2.32707">
        <ele>44.7</ele>
        <time>2021-07-27T18:08:41Z</time>
      </trkpt>
      <trkpt lat="48.61576" lon="-2.32693">
        <ele>45.4</ele>
        <time>2021-07-27T18:08:43Z</time>
      </trkpt>
      <trkpt lat="48.61578" lon="-2.32681">
        <ele>46.1</ele>
        <time>2021-07-27T18:08:45Z</time>
      </trkpt>
      <trkpt lat="48.61582" lon="-2.32668">
        <ele>46.8</ele>
        <time>2021-07-27T18:08:47Z</time>
      </trkpt>
      <trkpt lat="48.61586" lon="-2.32659">
        <ele>47.3</ele>
        <time>2021-07-27T18:08:49Z</time>
      </trkpt>
      <trkpt lat="48.61588" lon="-2.32654">
        <ele>47.6</ele>
        <time>2021-07-27T18:08:50Z</time>
      </trkpt>
      <trkpt lat="48.61593" lon="-2.32643">
        <ele>48.1</ele>
        <time>2021-07-27T18:08:52Z</time>
      </trkpt>
      <trkpt lat="48.61595" lon="-2.32638">
        <ele>48.4</ele>
        <time>2021-07-27T18:08:53Z</time>
      </trkpt>
      <trkpt lat="48.61596" lon="-2.32634">
        <ele>48.5</ele>
        <time>2021-07-27T18:08:54Z</time>
      </trkpt>
      <trkpt lat="48.61599" lon="-2.32626">
        <ele>48.8</ele>
        <time>2021-07-27T18:08:56Z</time>
      </trkpt>
      <trkpt lat="48.61601" lon="-2.32621">
        <ele>48.9</ele>
        <time>2021-07-27T18:08:57Z</time>
      </trkpt>
      <trkpt lat="48.61602" lon="-2.32616">
        <ele>49</ele>
        <time>2021-07-27T18:08:58Z</time>
      </trkpt>
      <trkpt lat="48.61603" lon="-2.32612">
        <ele>49.1</ele>
        <time>2021-07-27T18:08:59Z</time>
      </trkpt>
      <trkpt lat="48.61606" lon="-2.32604">
        <ele>49.2</ele>
        <time>2021-07-27T18:09:01Z</time>
      </trkpt>
      <trkpt lat="48.61608" lon="-2.32598">
        <ele>49.2</ele>
        <time>2021-07-27T18:09:02Z</time>
      </trkpt>
      <trkpt lat="48.61609" lon="-2.32594">
        <ele>49.2</ele>
        <time>2021-07-27T18:09:03Z</time>
      </trkpt>
      <trkpt lat="48.61611" lon="-2.32589">
        <ele>49.1</ele>
        <time>2021-07-27T18:09:04Z</time>
      </trkpt>
      <trkpt lat="48.61613" lon="-2.32583">
        <ele>49</ele>
        <time>2021-07-27T18:09:05Z</time>
      </trkpt>
      <trkpt lat="48.61615" lon="-2.32578">
        <ele>48.9</ele>
        <time>2021-07-27T18:09:07Z</time>
      </trkpt>
      <trkpt lat="48.61617" lon="-2.32573">
        <ele>48.8</ele>
        <time>2021-07-27T18:09:08Z</time>
      </trkpt>
      <trkpt lat="48.61619" lon="-2.32568">
        <ele>48.7</ele>
        <time>2021-07-27T18:09:09Z</time>
      </trkpt>
      <trkpt lat="48.61621" lon="-2.32561">
        <ele>48.4</ele>
        <time>2021-07-27T18:09:10Z</time>
      </trkpt>
      <trkpt lat="48.61623" lon="-2.32553">
        <ele>48.2</ele>
        <time>2021-07-27T18:09:12Z</time>
      </trkpt>
      <trkpt lat="48.61625" lon="-2.32545">
        <ele>48</ele>
        <time>2021-07-27T18:09:13Z</time>
      </trkpt>
      <trkpt lat="48.6163" lon="-2.32531">
        <ele>47.4</ele>
        <time>2021-07-27T18:09:15Z</time>
      </trkpt>
      <trkpt lat="48.61632" lon="-2.32523">
        <ele>47.1</ele>
        <time>2021-07-27T18:09:16Z</time>
      </trkpt>
      <trkpt lat="48.61635" lon="-2.32515">
        <ele>46.7</ele>
        <time>2021-07-27T18:09:17Z</time>
      </trkpt>
      <trkpt lat="48.61641" lon="-2.32499">
        <ele>45.8</ele>
        <time>2021-07-27T18:09:19Z</time>
      </trkpt>
      <trkpt lat="48.61648" lon="-2.32481">
        <ele>44.7</ele>
        <time>2021-07-27T18:09:21Z</time>
      </trkpt>
      <trkpt lat="48.61651" lon="-2.32471">
        <ele>44.1</ele>
        <time>2021-07-27T18:09:22Z</time>
      </trkpt>
      <trkpt lat="48.61654" lon="-2.3246">
        <ele>43.5</ele>
        <time>2021-07-27T18:09:23Z</time>
      </trkpt>
      <trkpt lat="48.61657" lon="-2.32449">
        <ele>43</ele>
        <time>2021-07-27T18:09:24Z</time>
      </trkpt>
      <trkpt lat="48.6166" lon="-2.32437">
        <ele>42.4</ele>
        <time>2021-07-27T18:09:25Z</time>
      </trkpt>
      <trkpt lat="48.61662" lon="-2.32411">
        <ele>41.2</ele>
        <time>2021-07-27T18:09:27Z</time>
      </trkpt>
      <trkpt lat="48.61663" lon="-2.32383">
        <ele>39.9</ele>
        <time>2021-07-27T18:09:29Z</time>
      </trkpt>
      <trkpt lat="48.61665" lon="-2.32369">
        <ele>39.2</ele>
        <time>2021-07-27T18:09:30Z</time>
      </trkpt>
      <trkpt lat="48.61668" lon="-2.32339">
        <ele>37.5</ele>
        <time>2021-07-27T18:09:32Z</time>
      </trkpt>
      <trkpt lat="48.61666" lon="-2.32311">
        <ele>36</ele>
        <time>2021-07-27T18:09:34Z</time>
      </trkpt>
      <trkpt lat="48.61662" lon="-2.32298">
        <ele>35.4</ele>
        <time>2021-07-27T18:09:35Z</time>
      </trkpt>
      <trkpt lat="48.61656" lon="-2.32286">
        <ele>34.7</ele>
        <time>2021-07-27T18:09:36Z</time>
      </trkpt>
      <trkpt lat="48.61644" lon="-2.32262">
        <ele>33.4</ele>
        <time>2021-07-27T18:09:38Z</time>
      </trkpt>
      <trkpt lat="48.61638" lon="-2.32249">
        <ele>32.8</ele>
        <time>2021-07-27T18:09:39Z</time>
      </trkpt>
      <trkpt lat="48.61624" lon="-2.32224">
        <ele>31.5</ele>
        <time>2021-07-27T18:09:41Z</time>
      </trkpt>
      <trkpt lat="48.61616" lon="-2.32213">
        <ele>31</ele>
        <time>2021-07-27T18:09:42Z</time>
      </trkpt>
      <trkpt lat="48.61598" lon="-2.32197">
        <ele>30.2</ele>
        <time>2021-07-27T18:09:44Z</time>
      </trkpt>
      <trkpt lat="48.61589" lon="-2.32191">
        <ele>30</ele>
        <time>2021-07-27T18:09:45Z</time>
      </trkpt>
      <trkpt lat="48.61569" lon="-2.32184">
        <ele>29.7</ele>
        <time>2021-07-27T18:09:47Z</time>
      </trkpt>
      <trkpt lat="48.61551" lon="-2.32183">
        <ele>29.2</ele>
        <time>2021-07-27T18:09:49Z</time>
      </trkpt>
      <trkpt lat="48.61543" lon="-2.32182">
        <ele>29</ele>
        <time>2021-07-27T18:09:50Z</time>
      </trkpt>
      <trkpt lat="48.61534" lon="-2.32181">
        <ele>28.8</ele>
        <time>2021-07-27T18:09:51Z</time>
      </trkpt>
      <trkpt lat="48.61518" lon="-2.3218">
        <ele>28.3</ele>
        <time>2021-07-27T18:09:53Z</time>
      </trkpt>
      <trkpt lat="48.61501" lon="-2.32177">
        <ele>27.3</ele>
        <time>2021-07-27T18:09:55Z</time>
      </trkpt>
      <trkpt lat="48.61484" lon="-2.32174">
        <ele>25.9</ele>
        <time>2021-07-27T18:09:57Z</time>
      </trkpt>
      <trkpt lat="48.61475" lon="-2.32173">
        <ele>25</ele>
        <time>2021-07-27T18:09:58Z</time>
      </trkpt>
      <trkpt lat="48.61456" lon="-2.32175">
        <ele>22.8</ele>
        <time>2021-07-27T18:10:00Z</time>
      </trkpt>
      <trkpt lat="48.61435" lon="-2.32182">
        <ele>20.2</ele>
        <time>2021-07-27T18:10:02Z</time>
      </trkpt>
      <trkpt lat="48.61413" lon="-2.32193">
        <ele>17.7</ele>
        <time>2021-07-27T18:10:04Z</time>
      </trkpt>
      <trkpt lat="48.61402" lon="-2.32201">
        <ele>16.5</ele>
        <time>2021-07-27T18:10:05Z</time>
      </trkpt>
      <trkpt lat="48.61392" lon="-2.3221">
        <ele>15.4</ele>
        <time>2021-07-27T18:10:06Z</time>
      </trkpt>
      <trkpt lat="48.61372" lon="-2.32229">
        <ele>13.4</ele>
        <time>2021-07-27T18:10:08Z</time>
      </trkpt>
      <trkpt lat="48.61356" lon="-2.32243">
        <ele>11.9</ele>
        <time>2021-07-27T18:10:10Z</time>
      </trkpt>
      <trkpt lat="48.61351" lon="-2.32248">
        <ele>11.4</ele>
        <time>2021-07-27T18:10:11Z</time>
      </trkpt>
      <trkpt lat="48.61347" lon="-2.32251">
        <ele>11</ele>
        <time>2021-07-27T18:10:12Z</time>
      </trkpt>
      <trkpt lat="48.61344" lon="-2.3225">
        <ele>10.3</ele>
        <time>2021-07-27T18:10:14Z</time>
      </trkpt>
      <trkpt lat="48.61343" lon="-2.32246">
        <ele>10.3</ele>
        <time>2021-07-27T18:10:15Z</time>
      </trkpt>
      <trkpt lat="48.61339" lon="-2.32235">
        <ele>10.2</ele>
        <time>2021-07-27T18:10:17Z</time>
      </trkpt>
      <trkpt lat="48.61339" lon="-2.32218">
        <ele>9.8</ele>
        <time>2021-07-27T18:10:19Z</time>
      </trkpt>
      <trkpt lat="48.6134" lon="-2.3221">
        <ele>9.6</ele>
        <time>2021-07-27T18:10:20Z</time>
      </trkpt>
      <trkpt lat="48.61341" lon="-2.32202">
        <ele>9.5</ele>
        <time>2021-07-27T18:10:21Z</time>
      </trkpt>
      <trkpt lat="48.61341" lon="-2.32184">
        <ele>9.2</ele>
        <time>2021-07-27T18:10:23Z</time>
      </trkpt>
      <trkpt lat="48.61342" lon="-2.32165">
        <ele>8.8</ele>
        <time>2021-07-27T18:10:25Z</time>
      </trkpt>
      <trkpt lat="48.61342" lon="-2.32154">
        <ele>8.7</ele>
        <time>2021-07-27T18:10:26Z</time>
      </trkpt>
      <trkpt lat="48.61342" lon="-2.32144">
        <ele>8.5</ele>
        <time>2021-07-27T18:10:27Z</time>
      </trkpt>
      <trkpt lat="48.61343" lon="-2.32123">
        <ele>8.2</ele>
        <time>2021-07-27T18:10:29Z</time>
      </trkpt>
      <trkpt lat="48.61344" lon="-2.32112">
        <ele>8.1</ele>
        <time>2021-07-27T18:10:30Z</time>
      </trkpt>
      <trkpt lat="48.61345" lon="-2.3209">
        <ele>8</ele>
        <time>2021-07-27T18:10:32Z</time>
      </trkpt>
      <trkpt lat="48.61346" lon="-2.32079">
        <ele>8</ele>
        <time>2021-07-27T18:10:33Z</time>
      </trkpt>
      <trkpt lat="48.61346" lon="-2.32057">
        <ele>7.9</ele>
        <time>2021-07-27T18:10:35Z</time>
      </trkpt>
      <trkpt lat="48.61343" lon="-2.32035">
        <ele>7.8</ele>
        <time>2021-07-27T18:10:37Z</time>
      </trkpt>
      <trkpt lat="48.61339" lon="-2.32015">
        <ele>7.7</ele>
        <time>2021-07-27T18:10:39Z</time>
      </trkpt>
      <trkpt lat="48.61336" lon="-2.32006">
        <ele>7.7</ele>
        <time>2021-07-27T18:10:40Z</time>
      </trkpt>
      <trkpt lat="48.61333" lon="-2.31997">
        <ele>7.7</ele>
        <time>2021-07-27T18:10:41Z</time>
      </trkpt>
      <trkpt lat="48.61325" lon="-2.31981">
        <ele>7.6</ele>
        <time>2021-07-27T18:10:43Z</time>
      </trkpt>
      <trkpt lat="48.6132" lon="-2.31973">
        <ele>7.6</ele>
        <time>2021-07-27T18:10:44Z</time>
      </trkpt>
      <trkpt lat="48.61309" lon="-2.31958">
        <ele>7.5</ele>
        <time>2021-07-27T18:10:46Z</time>
      </trkpt>
      <trkpt lat="48.61303" lon="-2.31952">
        <ele>7.5</ele>
        <time>2021-07-27T18:10:47Z</time>
      </trkpt>
      <trkpt lat="48.61291" lon="-2.31941">
        <ele>7.5</ele>
        <time>2021-07-27T18:10:49Z</time>
      </trkpt>
      <trkpt lat="48.61279" lon="-2.3193">
        <ele>7.4</ele>
        <time>2021-07-27T18:10:51Z</time>
      </trkpt>
      <trkpt lat="48.61268" lon="-2.31918">
        <ele>7.3</ele>
        <time>2021-07-27T18:10:53Z</time>
      </trkpt>
      <trkpt lat="48.61257" lon="-2.31906">
        <ele>7.3</ele>
        <time>2021-07-27T18:10:55Z</time>
      </trkpt>
      <trkpt lat="48.61246" lon="-2.31894">
        <ele>7.3</ele>
        <time>2021-07-27T18:10:57Z</time>
      </trkpt>
      <trkpt lat="48.61235" lon="-2.31883">
        <ele>7.3</ele>
        <time>2021-07-27T18:10:59Z</time>
      </trkpt>
      <trkpt lat="48.61229" lon="-2.31877">
        <ele>7.3</ele>
        <time>2021-07-27T18:11:00Z</time>
      </trkpt>
      <trkpt lat="48.61223" lon="-2.31871">
        <ele>7.3</ele>
        <time>2021-07-27T18:11:01Z</time>
      </trkpt>
      <trkpt lat="48.61212" lon="-2.31859">
        <ele>7.3</ele>
        <time>2021-07-27T18:11:03Z</time>
      </trkpt>
      <trkpt lat="48.61206" lon="-2.31852">
        <ele>7.3</ele>
        <time>2021-07-27T18:11:04Z</time>
      </trkpt>
      <trkpt lat="48.612" lon="-2.31847">
        <ele>7.3</ele>
        <time>2021-07-27T18:11:05Z</time>
      </trkpt>
      <trkpt lat="48.61188" lon="-2.31835">
        <ele>7.2</ele>
        <time>2021-07-27T18:11:07Z</time>
      </trkpt>
      <trkpt lat="48.61182" lon="-2.3183">
        <ele>7.2</ele>
        <time>2021-07-27T18:11:08Z</time>
      </trkpt>
      <trkpt lat="48.61176" lon="-2.31824">
        <ele>7.2</ele>
        <time>2021-07-27T18:11:09Z</time>
      </trkpt>
      <trkpt lat="48.6117" lon="-2.31819">
        <ele>7.1</ele>
        <time>2021-07-27T18:11:10Z</time>
      </trkpt>
      <trkpt lat="48.61159" lon="-2.31807">
        <ele>7.1</ele>
        <time>2021-07-27T18:11:12Z</time>
      </trkpt>
      <trkpt lat="48.61148" lon="-2.31795">
        <ele>7</ele>
        <time>2021-07-27T18:11:14Z</time>
      </trkpt>
      <trkpt lat="48.61142" lon="-2.31788">
        <ele>7</ele>
        <time>2021-07-27T18:11:15Z</time>
      </trkpt>
      <trkpt lat="48.61137" lon="-2.31782">
        <ele>7</ele>
        <time>2021-07-27T18:11:16Z</time>
      </trkpt>
      <trkpt lat="48.61131" lon="-2.31776">
        <ele>7</ele>
        <time>2021-07-27T18:11:17Z</time>
      </trkpt>
      <trkpt lat="48.61119" lon="-2.31763">
        <ele>6.9</ele>
        <time>2021-07-27T18:11:19Z</time>
      </trkpt>
      <trkpt lat="48.61108" lon="-2.31751">
        <ele>6.9</ele>
        <time>2021-07-27T18:11:21Z</time>
      </trkpt>
      <trkpt lat="48.61096" lon="-2.3174">
        <ele>6.9</ele>
        <time>2021-07-27T18:11:23Z</time>
      </trkpt>
      <trkpt lat="48.6109" lon="-2.31734">
        <ele>6.9</ele>
        <time>2021-07-27T18:11:24Z</time>
      </trkpt>
      <trkpt lat="48.61084" lon="-2.31728">
        <ele>6.9</ele>
        <time>2021-07-27T18:11:25Z</time>
      </trkpt>
      <trkpt lat="48.61073" lon="-2.31718">
        <ele>7</ele>
        <time>2021-07-27T18:11:27Z</time>
      </trkpt>
      <trkpt lat="48.61062" lon="-2.31707">
        <ele>7</ele>
        <time>2021-07-27T18:11:29Z</time>
      </trkpt>
      <trkpt lat="48.61051" lon="-2.31696">
        <ele>7.1</ele>
        <time>2021-07-27T18:11:31Z</time>
      </trkpt>
      <trkpt lat="48.6104" lon="-2.31684">
        <ele>7.3</ele>
        <time>2021-07-27T18:11:33Z</time>
      </trkpt>
      <trkpt lat="48.61029" lon="-2.3167">
        <ele>7.6</ele>
        <time>2021-07-27T18:11:35Z</time>
      </trkpt>
      <trkpt lat="48.61022" lon="-2.31655">
        <ele>8</ele>
        <time>2021-07-27T18:11:37Z</time>
      </trkpt>
      <trkpt lat="48.61018" lon="-2.31648">
        <ele>8.1</ele>
        <time>2021-07-27T18:11:38Z</time>
      </trkpt>
      <trkpt lat="48.61011" lon="-2.31633">
        <ele>8.7</ele>
        <time>2021-07-27T18:11:40Z</time>
      </trkpt>
      <trkpt lat="48.61007" lon="-2.31625">
        <ele>8.9</ele>
        <time>2021-07-27T18:11:41Z</time>
      </trkpt>
      <trkpt lat="48.61001" lon="-2.3161">
        <ele>9.1</ele>
        <time>2021-07-27T18:11:43Z</time>
      </trkpt>
      <trkpt lat="48.60997" lon="-2.31596">
        <ele>9.4</ele>
        <time>2021-07-27T18:11:45Z</time>
      </trkpt>
      <trkpt lat="48.60994" lon="-2.31583">
        <ele>9.9</ele>
        <time>2021-07-27T18:11:47Z</time>
      </trkpt>
      <trkpt lat="48.60993" lon="-2.31576">
        <ele>10.2</ele>
        <time>2021-07-27T18:11:48Z</time>
      </trkpt>
      <trkpt lat="48.6099" lon="-2.31562">
        <ele>10.7</ele>
        <time>2021-07-27T18:11:50Z</time>
      </trkpt>
      <trkpt lat="48.60989" lon="-2.3155">
        <ele>11.1</ele>
        <time>2021-07-27T18:11:52Z</time>
      </trkpt>
      <trkpt lat="48.60987" lon="-2.31537">
        <ele>11.7</ele>
        <time>2021-07-27T18:11:54Z</time>
      </trkpt>
      <trkpt lat="48.60985" lon="-2.31523">
        <ele>12.2</ele>
        <time>2021-07-27T18:11:56Z</time>
      </trkpt>
      <trkpt lat="48.60982" lon="-2.31509">
        <ele>12.8</ele>
        <time>2021-07-27T18:11:58Z</time>
      </trkpt>
      <trkpt lat="48.60981" lon="-2.31503">
        <ele>13</ele>
        <time>2021-07-27T18:11:59Z</time>
      </trkpt>
      <trkpt lat="48.6098" lon="-2.31497">
        <ele>13.3</ele>
        <time>2021-07-27T18:12:00Z</time>
      </trkpt>
      <trkpt lat="48.60978" lon="-2.31484">
        <ele>13.8</ele>
        <time>2021-07-27T18:12:02Z</time>
      </trkpt>
      <trkpt lat="48.60977" lon="-2.31472">
        <ele>14.3</ele>
        <time>2021-07-27T18:12:04Z</time>
      </trkpt>
      <trkpt lat="48.60975" lon="-2.3146">
        <ele>14.8</ele>
        <time>2021-07-27T18:12:06Z</time>
      </trkpt>
      <trkpt lat="48.60973" lon="-2.31449">
        <ele>15.3</ele>
        <time>2021-07-27T18:12:08Z</time>
      </trkpt>
      <trkpt lat="48.60972" lon="-2.31443">
        <ele>15.5</ele>
        <time>2021-07-27T18:12:09Z</time>
      </trkpt>
      <trkpt lat="48.6097" lon="-2.31432">
        <ele>15.9</ele>
        <time>2021-07-27T18:12:11Z</time>
      </trkpt>
      <trkpt lat="48.60968" lon="-2.31423">
        <ele>16.4</ele>
        <time>2021-07-27T18:12:13Z</time>
      </trkpt>
      <trkpt lat="48.60968" lon="-2.31418">
        <ele>16.6</ele>
        <time>2021-07-27T18:12:14Z</time>
      </trkpt>
      <trkpt lat="48.60967" lon="-2.31413">
        <ele>16.8</ele>
        <time>2021-07-27T18:12:15Z</time>
      </trkpt>
      <trkpt lat="48.60966" lon="-2.31409">
        <ele>17</ele>
        <time>2021-07-27T18:12:16Z</time>
      </trkpt>
      <trkpt lat="48.60964" lon="-2.31404">
        <ele>17.2</ele>
        <time>2021-07-27T18:12:18Z</time>
      </trkpt>
      <trkpt lat="48.60963" lon="-2.31397">
        <ele>17.5</ele>
        <time>2021-07-27T18:12:19Z</time>
      </trkpt>
      <trkpt lat="48.60962" lon="-2.31393">
        <ele>17.7</ele>
        <time>2021-07-27T18:12:20Z</time>
      </trkpt>
      <trkpt lat="48.6096" lon="-2.31385">
        <ele>18</ele>
        <time>2021-07-27T18:12:22Z</time>
      </trkpt>
      <trkpt lat="48.60958" lon="-2.31377">
        <ele>18.4</ele>
        <time>2021-07-27T18:12:24Z</time>
      </trkpt>
      <trkpt lat="48.60956" lon="-2.31368">
        <ele>18.8</ele>
        <time>2021-07-27T18:12:26Z</time>
      </trkpt>
      <trkpt lat="48.60954" lon="-2.3136">
        <ele>19.2</ele>
        <time>2021-07-27T18:12:28Z</time>
      </trkpt>
      <trkpt lat="48.60952" lon="-2.31352">
        <ele>19.6</ele>
        <time>2021-07-27T18:12:30Z</time>
      </trkpt>
      <trkpt lat="48.6095" lon="-2.31344">
        <ele>19.9</ele>
        <time>2021-07-27T18:12:32Z</time>
      </trkpt>
      <trkpt lat="48.6095" lon="-2.3134">
        <ele>20.1</ele>
        <time>2021-07-27T18:12:33Z</time>
      </trkpt>
      <trkpt lat="48.6095" lon="-2.31335">
        <ele>20.3</ele>
        <time>2021-07-27T18:12:34Z</time>
      </trkpt>
      <trkpt lat="48.60948" lon="-2.31327">
        <ele>20.7</ele>
        <time>2021-07-27T18:12:36Z</time>
      </trkpt>
      <trkpt lat="48.60947" lon="-2.31323">
        <ele>20.9</ele>
        <time>2021-07-27T18:12:37Z</time>
      </trkpt>
      <trkpt lat="48.60944" lon="-2.31315">
        <ele>21.2</ele>
        <time>2021-07-27T18:12:39Z</time>
      </trkpt>
      <trkpt lat="48.60943" lon="-2.31311">
        <ele>21.4</ele>
        <time>2021-07-27T18:12:40Z</time>
      </trkpt>
      <trkpt lat="48.60942" lon="-2.31305">
        <ele>21.7</ele>
        <time>2021-07-27T18:12:42Z</time>
      </trkpt>
      <trkpt lat="48.60941" lon="-2.31299">
        <ele>22</ele>
        <time>2021-07-27T18:12:43Z</time>
      </trkpt>
      <trkpt lat="48.6094" lon="-2.31295">
        <ele>22.1</ele>
        <time>2021-07-27T18:12:44Z</time>
      </trkpt>
      <trkpt lat="48.60938" lon="-2.31287">
        <ele>22.5</ele>
        <time>2021-07-27T18:12:46Z</time>
      </trkpt>
      <trkpt lat="48.60937" lon="-2.31279">
        <ele>22.8</ele>
        <time>2021-07-27T18:12:48Z</time>
      </trkpt>
      <trkpt lat="48.60935" lon="-2.3127">
        <ele>23.2</ele>
        <time>2021-07-27T18:12:50Z</time>
      </trkpt>
      <trkpt lat="48.60934" lon="-2.31262">
        <ele>23.6</ele>
        <time>2021-07-27T18:12:52Z</time>
      </trkpt>
      <trkpt lat="48.60933" lon="-2.31258">
        <ele>23.8</ele>
        <time>2021-07-27T18:12:53Z</time>
      </trkpt>
      <trkpt lat="48.60932" lon="-2.31254">
        <ele>24</ele>
        <time>2021-07-27T18:12:54Z</time>
      </trkpt>
      <trkpt lat="48.60929" lon="-2.31246">
        <ele>24.3</ele>
        <time>2021-07-27T18:12:56Z</time>
      </trkpt>
      <trkpt lat="48.60928" lon="-2.31242">
        <ele>24.5</ele>
        <time>2021-07-27T18:12:57Z</time>
      </trkpt>
      <trkpt lat="48.60927" lon="-2.31235">
        <ele>24.8</ele>
        <time>2021-07-27T18:12:59Z</time>
      </trkpt>
      <trkpt lat="48.60926" lon="-2.3123">
        <ele>25</ele>
        <time>2021-07-27T18:13:00Z</time>
      </trkpt>
      <trkpt lat="48.60924" lon="-2.31222">
        <ele>25.4</ele>
        <time>2021-07-27T18:13:02Z</time>
      </trkpt>
      <trkpt lat="48.60922" lon="-2.31213">
        <ele>25.7</ele>
        <time>2021-07-27T18:13:04Z</time>
      </trkpt>
      <trkpt lat="48.60921" lon="-2.31209">
        <ele>25.9</ele>
        <time>2021-07-27T18:13:05Z</time>
      </trkpt>
      <trkpt lat="48.60919" lon="-2.31201">
        <ele>26.3</ele>
        <time>2021-07-27T18:13:07Z</time>
      </trkpt>
      <trkpt lat="48.60918" lon="-2.31197">
        <ele>26.5</ele>
        <time>2021-07-27T18:13:08Z</time>
      </trkpt>
      <trkpt lat="48.60917" lon="-2.31193">
        <ele>26.6</ele>
        <time>2021-07-27T18:13:09Z</time>
      </trkpt>
      <trkpt lat="48.60915" lon="-2.31184">
        <ele>27</ele>
        <time>2021-07-27T18:13:11Z</time>
      </trkpt>
      <trkpt lat="48.60914" lon="-2.31175">
        <ele>27.4</ele>
        <time>2021-07-27T18:13:13Z</time>
      </trkpt>
      <trkpt lat="48.60913" lon="-2.31171">
        <ele>27.6</ele>
        <time>2021-07-27T18:13:14Z</time>
      </trkpt>
      <trkpt lat="48.60912" lon="-2.31163">
        <ele>27.9</ele>
        <time>2021-07-27T18:13:16Z</time>
      </trkpt>
      <trkpt lat="48.6091" lon="-2.31155">
        <ele>28.3</ele>
        <time>2021-07-27T18:13:18Z</time>
      </trkpt>
      <trkpt lat="48.60909" lon="-2.31151">
        <ele>28.5</ele>
        <time>2021-07-27T18:13:19Z</time>
      </trkpt>
      <trkpt lat="48.60908" lon="-2.31144">
        <ele>28.8</ele>
        <time>2021-07-27T18:13:21Z</time>
      </trkpt>
      <trkpt lat="48.60907" lon="-2.3114">
        <ele>29</ele>
        <time>2021-07-27T18:13:22Z</time>
      </trkpt>
      <trkpt lat="48.60907" lon="-2.31137">
        <ele>29.2</ele>
        <time>2021-07-27T18:13:23Z</time>
      </trkpt>
      <trkpt lat="48.60907" lon="-2.31131">
        <ele>29.4</ele>
        <time>2021-07-27T18:13:25Z</time>
      </trkpt>
      <trkpt lat="48.60909" lon="-2.31127">
        <ele>30</ele>
        <time>2021-07-27T18:13:26Z</time>
      </trkpt>
      <trkpt lat="48.6091" lon="-2.31126">
        <ele>30.2</ele>
        <time>2021-07-27T18:13:27Z</time>
      </trkpt>
      <trkpt lat="48.60913" lon="-2.31124">
        <ele>30.6</ele>
        <time>2021-07-27T18:13:28Z</time>
      </trkpt>
      <trkpt lat="48.60917" lon="-2.31122">
        <ele>31</ele>
        <time>2021-07-27T18:13:30Z</time>
      </trkpt>
      <trkpt lat="48.60921" lon="-2.3112">
        <ele>31.3</ele>
        <time>2021-07-27T18:13:32Z</time>
      </trkpt>
      <trkpt lat="48.60926" lon="-2.31117">
        <ele>31.7</ele>
        <time>2021-07-27T18:13:34Z</time>
      </trkpt>
      <trkpt lat="48.60928" lon="-2.31115">
        <ele>31.8</ele>
        <time>2021-07-27T18:13:35Z</time>
      </trkpt>
      <trkpt lat="48.6093" lon="-2.31112">
        <ele>32</ele>
        <time>2021-07-27T18:13:37Z</time>
      </trkpt>
      <trkpt lat="48.60932" lon="-2.31107">
        <ele>32.2</ele>
        <time>2021-07-27T18:13:39Z</time>
      </trkpt>
      <trkpt lat="48.60935" lon="-2.31102">
        <ele>32.5</ele>
        <time>2021-07-27T18:13:41Z</time>
      </trkpt>
      <trkpt lat="48.60938" lon="-2.31097">
        <ele>32.7</ele>
        <time>2021-07-27T18:13:43Z</time>
      </trkpt>
      <trkpt lat="48.6094" lon="-2.31092">
        <ele>32.9</ele>
        <time>2021-07-27T18:13:45Z</time>
      </trkpt>
      <trkpt lat="48.60941" lon="-2.31088">
        <ele>33.1</ele>
        <time>2021-07-27T18:13:46Z</time>
      </trkpt>
      <trkpt lat="48.60943" lon="-2.31083">
        <ele>33.3</ele>
        <time>2021-07-27T18:13:47Z</time>
      </trkpt>
      <trkpt lat="48.60944" lon="-2.31081">
        <ele>33.3</ele>
        <time>2021-07-27T18:13:48Z</time>
      </trkpt>
      <trkpt lat="48.60945" lon="-2.31078">
        <ele>33.4</ele>
        <time>2021-07-27T18:13:49Z</time>
      </trkpt>
      <trkpt lat="48.60947" lon="-2.31074">
        <ele>33.6</ele>
        <time>2021-07-27T18:13:51Z</time>
      </trkpt>
      <trkpt lat="48.60949" lon="-2.31069">
        <ele>33.8</ele>
        <time>2021-07-27T18:13:52Z</time>
      </trkpt>
      <trkpt lat="48.6095" lon="-2.31065">
        <ele>33.9</ele>
        <time>2021-07-27T18:13:54Z</time>
      </trkpt>
      <trkpt lat="48.60952" lon="-2.31061">
        <ele>34.1</ele>
        <time>2021-07-27T18:13:55Z</time>
      </trkpt>
      <trkpt lat="48.60953" lon="-2.31058">
        <ele>34.2</ele>
        <time>2021-07-27T18:13:56Z</time>
      </trkpt>
      <trkpt lat="48.60955" lon="-2.31052">
        <ele>34.4</ele>
        <time>2021-07-27T18:13:58Z</time>
      </trkpt>
      <trkpt lat="48.60957" lon="-2.31047">
        <ele>34.6</ele>
        <time>2021-07-27T18:13:59Z</time>
      </trkpt>
      <trkpt lat="48.60957" lon="-2.31045">
        <ele>34.6</ele>
        <time>2021-07-27T18:14:00Z</time>
      </trkpt>
      <trkpt lat="48.60959" lon="-2.3104">
        <ele>34.8</ele>
        <time>2021-07-27T18:14:01Z</time>
      </trkpt>
      <trkpt lat="48.6096" lon="-2.31038">
        <ele>34.9</ele>
        <time>2021-07-27T18:14:02Z</time>
      </trkpt>
      <trkpt lat="48.60963" lon="-2.31033">
        <ele>35.1</ele>
        <time>2021-07-27T18:14:04Z</time>
      </trkpt>
      <trkpt lat="48.60965" lon="-2.31028">
        <ele>35.3</ele>
        <time>2021-07-27T18:14:05Z</time>
      </trkpt>
      <trkpt lat="48.60967" lon="-2.31022">
        <ele>35.5</ele>
        <time>2021-07-27T18:14:07Z</time>
      </trkpt>
      <trkpt lat="48.60968" lon="-2.31018">
        <ele>35.7</ele>
        <time>2021-07-27T18:14:08Z</time>
      </trkpt>
      <trkpt lat="48.6097" lon="-2.31013">
        <ele>35.8</ele>
        <time>2021-07-27T18:14:10Z</time>
      </trkpt>
      <trkpt lat="48.60971" lon="-2.31009">
        <ele>35.9</ele>
        <time>2021-07-27T18:14:11Z</time>
      </trkpt>
      <trkpt lat="48.60973" lon="-2.31003">
        <ele>36.1</ele>
        <time>2021-07-27T18:14:12Z</time>
      </trkpt>
      <trkpt lat="48.60975" lon="-2.31001">
        <ele>36.2</ele>
        <time>2021-07-27T18:14:13Z</time>
      </trkpt>
      <trkpt lat="48.60977" lon="-2.30996">
        <ele>36.4</ele>
        <time>2021-07-27T18:14:15Z</time>
      </trkpt>
      <trkpt lat="48.60978" lon="-2.30992">
        <ele>36.5</ele>
        <time>2021-07-27T18:14:16Z</time>
      </trkpt>
      <trkpt lat="48.6098" lon="-2.30986">
        <ele>36.7</ele>
        <time>2021-07-27T18:14:18Z</time>
      </trkpt>
      <trkpt lat="48.60982" lon="-2.30982">
        <ele>36.9</ele>
        <time>2021-07-27T18:14:19Z</time>
      </trkpt>
      <trkpt lat="48.60985" lon="-2.30976">
        <ele>37.1</ele>
        <time>2021-07-27T18:14:21Z</time>
      </trkpt>
      <trkpt lat="48.60987" lon="-2.30972">
        <ele>37.2</ele>
        <time>2021-07-27T18:14:22Z</time>
      </trkpt>
      <trkpt lat="48.60989" lon="-2.30966">
        <ele>37.4</ele>
        <time>2021-07-27T18:14:23Z</time>
      </trkpt>
      <trkpt lat="48.60992" lon="-2.30961">
        <ele>37.5</ele>
        <time>2021-07-27T18:14:25Z</time>
      </trkpt>
      <trkpt lat="48.60993" lon="-2.30957">
        <ele>37.6</ele>
        <time>2021-07-27T18:14:26Z</time>
      </trkpt>
      <trkpt lat="48.60996" lon="-2.3095">
        <ele>37.9</ele>
        <time>2021-07-27T18:14:28Z</time>
      </trkpt>
      <trkpt lat="48.60998" lon="-2.30946">
        <ele>38</ele>
        <time>2021-07-27T18:14:29Z</time>
      </trkpt>
      <trkpt lat="48.61001" lon="-2.30941">
        <ele>38.1</ele>
        <time>2021-07-27T18:14:31Z</time>
      </trkpt>
      <trkpt lat="48.61004" lon="-2.30935">
        <ele>38.3</ele>
        <time>2021-07-27T18:14:32Z</time>
      </trkpt>
      <trkpt lat="48.61006" lon="-2.30931">
        <ele>38.4</ele>
        <time>2021-07-27T18:14:34Z</time>
      </trkpt>
      <trkpt lat="48.61008" lon="-2.30926">
        <ele>38.5</ele>
        <time>2021-07-27T18:14:35Z</time>
      </trkpt>
      <trkpt lat="48.6101" lon="-2.30921">
        <ele>38.6</ele>
        <time>2021-07-27T18:14:36Z</time>
      </trkpt>
      <trkpt lat="48.61013" lon="-2.30915">
        <ele>38.7</ele>
        <time>2021-07-27T18:14:37Z</time>
      </trkpt>
      <trkpt lat="48.61017" lon="-2.3091">
        <ele>38.8</ele>
        <time>2021-07-27T18:14:39Z</time>
      </trkpt>
      <trkpt lat="48.6102" lon="-2.30906">
        <ele>38.9</ele>
        <time>2021-07-27T18:14:40Z</time>
      </trkpt>
      <trkpt lat="48.61024" lon="-2.30899">
        <ele>39</ele>
        <time>2021-07-27T18:14:42Z</time>
      </trkpt>
      <trkpt lat="48.61029" lon="-2.30893">
        <ele>39.1</ele>
        <time>2021-07-27T18:14:43Z</time>
      </trkpt>
      <trkpt lat="48.61035" lon="-2.30883">
        <ele>39.3</ele>
        <time>2021-07-27T18:14:45Z</time>
      </trkpt>
      <trkpt lat="48.6104" lon="-2.30877">
        <ele>39.5</ele>
        <time>2021-07-27T18:14:46Z</time>
      </trkpt>
      <trkpt lat="48.61044" lon="-2.30872">
        <ele>39.6</ele>
        <time>2021-07-27T18:14:48Z</time>
      </trkpt>
      <trkpt lat="48.61047" lon="-2.30867">
        <ele>39.7</ele>
        <time>2021-07-27T18:14:49Z</time>
      </trkpt>
      <trkpt lat="48.61051" lon="-2.30861">
        <ele>39.8</ele>
        <time>2021-07-27T18:14:50Z</time>
      </trkpt>
      <trkpt lat="48.61055" lon="-2.30854">
        <ele>39.9</ele>
        <time>2021-07-27T18:14:52Z</time>
      </trkpt>
      <trkpt lat="48.61059" lon="-2.30849">
        <ele>40</ele>
        <time>2021-07-27T18:14:53Z</time>
      </trkpt>
      <trkpt lat="48.61063" lon="-2.30843">
        <ele>40.1</ele>
        <time>2021-07-27T18:14:54Z</time>
      </trkpt>
      <trkpt lat="48.61069" lon="-2.30836">
        <ele>40.3</ele>
        <time>2021-07-27T18:14:56Z</time>
      </trkpt>
      <trkpt lat="48.61073" lon="-2.3083">
        <ele>40.4</ele>
        <time>2021-07-27T18:14:57Z</time>
      </trkpt>
      <trkpt lat="48.61076" lon="-2.30826">
        <ele>40.5</ele>
        <time>2021-07-27T18:14:58Z</time>
      </trkpt>
      <trkpt lat="48.61082" lon="-2.30818">
        <ele>40.7</ele>
        <time>2021-07-27T18:15:00Z</time>
      </trkpt>
      <trkpt lat="48.61086" lon="-2.30812">
        <ele>40.8</ele>
        <time>2021-07-27T18:15:01Z</time>
      </trkpt>
      <trkpt lat="48.61091" lon="-2.30804">
        <ele>41</ele>
        <time>2021-07-27T18:15:03Z</time>
      </trkpt>
      <trkpt lat="48.61096" lon="-2.30795">
        <ele>41.1</ele>
        <time>2021-07-27T18:15:05Z</time>
      </trkpt>
      <trkpt lat="48.611" lon="-2.30788">
        <ele>41.3</ele>
        <time>2021-07-27T18:15:06Z</time>
      </trkpt>
      <trkpt lat="48.61103" lon="-2.30784">
        <ele>41.4</ele>
        <time>2021-07-27T18:15:08Z</time>
      </trkpt>
      <trkpt lat="48.61106" lon="-2.30778">
        <ele>41.6</ele>
        <time>2021-07-27T18:15:09Z</time>
      </trkpt>
      <trkpt lat="48.61111" lon="-2.30772">
        <ele>41.8</ele>
        <time>2021-07-27T18:15:11Z</time>
      </trkpt>
      <trkpt lat="48.61116" lon="-2.30766">
        <ele>42</ele>
        <time>2021-07-27T18:15:12Z</time>
      </trkpt>
      <trkpt lat="48.61119" lon="-2.30762">
        <ele>42.1</ele>
        <time>2021-07-27T18:15:13Z</time>
      </trkpt>
      <trkpt lat="48.61123" lon="-2.30757">
        <ele>42.3</ele>
        <time>2021-07-27T18:15:15Z</time>
      </trkpt>
      <trkpt lat="48.61128" lon="-2.30752">
        <ele>42.5</ele>
        <time>2021-07-27T18:15:16Z</time>
      </trkpt>
      <trkpt lat="48.61134" lon="-2.30748">
        <ele>42.8</ele>
        <time>2021-07-27T18:15:18Z</time>
      </trkpt>
      <trkpt lat="48.61139" lon="-2.30745">
        <ele>43</ele>
        <time>2021-07-27T18:15:19Z</time>
      </trkpt>
      <trkpt lat="48.61143" lon="-2.30743">
        <ele>43.1</ele>
        <time>2021-07-27T18:15:20Z</time>
      </trkpt>
      <trkpt lat="48.6115" lon="-2.30739">
        <ele>43.5</ele>
        <time>2021-07-27T18:15:22Z</time>
      </trkpt>
      <trkpt lat="48.61155" lon="-2.30735">
        <ele>43.7</ele>
        <time>2021-07-27T18:15:23Z</time>
      </trkpt>
      <trkpt lat="48.6116" lon="-2.30732">
        <ele>44</ele>
        <time>2021-07-27T18:15:25Z</time>
      </trkpt>
      <trkpt lat="48.61165" lon="-2.3073">
        <ele>44.3</ele>
        <time>2021-07-27T18:15:26Z</time>
      </trkpt>
      <trkpt lat="48.61169" lon="-2.30729">
        <ele>44.5</ele>
        <time>2021-07-27T18:15:27Z</time>
      </trkpt>
      <trkpt lat="48.61174" lon="-2.30726">
        <ele>44.8</ele>
        <time>2021-07-27T18:15:28Z</time>
      </trkpt>
      <trkpt lat="48.61179" lon="-2.30724">
        <ele>45</ele>
        <time>2021-07-27T18:15:30Z</time>
      </trkpt>
      <trkpt lat="48.61184" lon="-2.30721">
        <ele>45.2</ele>
        <time>2021-07-27T18:15:31Z</time>
      </trkpt>
      <trkpt lat="48.61189" lon="-2.30719">
        <ele>45.5</ele>
        <time>2021-07-27T18:15:32Z</time>
      </trkpt>
      <trkpt lat="48.61193" lon="-2.30718">
        <ele>45.6</ele>
        <time>2021-07-27T18:15:34Z</time>
      </trkpt>
      <trkpt lat="48.61196" lon="-2.30716">
        <ele>45.8</ele>
        <time>2021-07-27T18:15:35Z</time>
      </trkpt>
      <trkpt lat="48.61197" lon="-2.30712">
        <ele>45.9</ele>
        <time>2021-07-27T18:15:36Z</time>
      </trkpt>
      <trkpt lat="48.61196" lon="-2.30707">
        <ele>46.2</ele>
        <time>2021-07-27T18:15:38Z</time>
      </trkpt>
      <trkpt lat="48.61195" lon="-2.30704">
        <ele>46.3</ele>
        <time>2021-07-27T18:15:39Z</time>
      </trkpt>
      <trkpt lat="48.61194" lon="-2.30701">
        <ele>46.3</ele>
        <time>2021-07-27T18:15:41Z</time>
      </trkpt>
      <trkpt lat="48.61194" lon="-2.30697">
        <ele>46.4</ele>
        <time>2021-07-27T18:15:42Z</time>
      </trkpt>
      <trkpt lat="48.61194" lon="-2.30695">
        <ele>46.4</ele>
        <time>2021-07-27T18:15:43Z</time>
      </trkpt>
      <trkpt lat="48.61194" lon="-2.3069">
        <ele>46.5</ele>
        <time>2021-07-27T18:15:45Z</time>
      </trkpt>
      <trkpt lat="48.61194" lon="-2.30687">
        <ele>46.6</ele>
        <time>2021-07-27T18:15:46Z</time>
      </trkpt>
      <trkpt lat="48.61194" lon="-2.30682">
        <ele>46.6</ele>
        <time>2021-07-27T18:15:48Z</time>
      </trkpt>
      <trkpt lat="48.61195" lon="-2.30677">
        <ele>46.7</ele>
        <time>2021-07-27T18:15:49Z</time>
      </trkpt>
      <trkpt lat="48.61195" lon="-2.30673">
        <ele>46.7</ele>
        <time>2021-07-27T18:15:50Z</time>
      </trkpt>
      <trkpt lat="48.61196" lon="-2.30668">
        <ele>46.8</ele>
        <time>2021-07-27T18:15:51Z</time>
      </trkpt>
      <trkpt lat="48.61197" lon="-2.30664">
        <ele>46.8</ele>
        <time>2021-07-27T18:15:52Z</time>
      </trkpt>
      <trkpt lat="48.61198" lon="-2.30661">
        <ele>46.9</ele>
        <time>2021-07-27T18:15:53Z</time>
      </trkpt>
      <trkpt lat="48.61201" lon="-2.30655">
        <ele>47</ele>
        <time>2021-07-27T18:15:55Z</time>
      </trkpt>
      <trkpt lat="48.61203" lon="-2.3065">
        <ele>47.1</ele>
        <time>2021-07-27T18:15:56Z</time>
      </trkpt>
      <trkpt lat="48.61205" lon="-2.30645">
        <ele>47.2</ele>
        <time>2021-07-27T18:15:57Z</time>
      </trkpt>
      <trkpt lat="48.61206" lon="-2.30641">
        <ele>47.3</ele>
        <time>2021-07-27T18:15:58Z</time>
      </trkpt>
      <trkpt lat="48.61208" lon="-2.30634">
        <ele>47.4</ele>
        <time>2021-07-27T18:15:59Z</time>
      </trkpt>
      <trkpt lat="48.6121" lon="-2.30628">
        <ele>47.6</ele>
        <time>2021-07-27T18:16:01Z</time>
      </trkpt>
      <trkpt lat="48.61213" lon="-2.3062">
        <ele>47.7</ele>
        <time>2021-07-27T18:16:02Z</time>
      </trkpt>
      <trkpt lat="48.61216" lon="-2.30614">
        <ele>47.8</ele>
        <time>2021-07-27T18:16:04Z</time>
      </trkpt>
      <trkpt lat="48.61219" lon="-2.30609">
        <ele>47.9</ele>
        <time>2021-07-27T18:16:05Z</time>
      </trkpt>
      <trkpt lat="48.61221" lon="-2.30604">
        <ele>48</ele>
        <time>2021-07-27T18:16:06Z</time>
      </trkpt>
      <trkpt lat="48.61224" lon="-2.30599">
        <ele>48.1</ele>
        <time>2021-07-27T18:16:07Z</time>
      </trkpt>
      <trkpt lat="48.61228" lon="-2.30593">
        <ele>48.2</ele>
        <time>2021-07-27T18:16:09Z</time>
      </trkpt>
      <trkpt lat="48.61232" lon="-2.30587">
        <ele>48.3</ele>
        <time>2021-07-27T18:16:10Z</time>
      </trkpt>
      <trkpt lat="48.61236" lon="-2.30579">
        <ele>48.4</ele>
        <time>2021-07-27T18:16:12Z</time>
      </trkpt>
      <trkpt lat="48.61239" lon="-2.30574">
        <ele>48.5</ele>
        <time>2021-07-27T18:16:13Z</time>
      </trkpt>
      <trkpt lat="48.61241" lon="-2.3057">
        <ele>48.5</ele>
        <time>2021-07-27T18:16:14Z</time>
      </trkpt>
      <trkpt lat="48.61245" lon="-2.30563">
        <ele>48.6</ele>
        <time>2021-07-27T18:16:16Z</time>
      </trkpt>
      <trkpt lat="48.61249" lon="-2.30559">
        <ele>48.6</ele>
        <time>2021-07-27T18:16:17Z</time>
      </trkpt>
      <trkpt lat="48.61252" lon="-2.30553">
        <ele>48.7</ele>
        <time>2021-07-27T18:16:18Z</time>
      </trkpt>
      <trkpt lat="48.61255" lon="-2.30544">
        <ele>48.8</ele>
        <time>2021-07-27T18:16:20Z</time>
      </trkpt>
      <trkpt lat="48.61255" lon="-2.30537">
        <ele>48.8</ele>
        <time>2021-07-27T18:16:21Z</time>
      </trkpt>
      <trkpt lat="48.61254" lon="-2.3053">
        <ele>48.8</ele>
        <time>2021-07-27T18:16:23Z</time>
      </trkpt>
      <trkpt lat="48.61255" lon="-2.30523">
        <ele>48.9</ele>
        <time>2021-07-27T18:16:24Z</time>
      </trkpt>
      <trkpt lat="48.61255" lon="-2.30517">
        <ele>48.9</ele>
        <time>2021-07-27T18:16:25Z</time>
      </trkpt>
      <trkpt lat="48.61256" lon="-2.30506">
        <ele>49</ele>
        <time>2021-07-27T18:16:27Z</time>
      </trkpt>
      <trkpt lat="48.61256" lon="-2.30498">
        <ele>49.1</ele>
        <time>2021-07-27T18:16:28Z</time>
      </trkpt>
      <trkpt lat="48.61256" lon="-2.30491">
        <ele>49.1</ele>
        <time>2021-07-27T18:16:29Z</time>
      </trkpt>
      <trkpt lat="48.61257" lon="-2.30485">
        <ele>49.2</ele>
        <time>2021-07-27T18:16:30Z</time>
      </trkpt>
      <trkpt lat="48.61257" lon="-2.30477">
        <ele>49.3</ele>
        <time>2021-07-27T18:16:32Z</time>
      </trkpt>
      <trkpt lat="48.61257" lon="-2.30469">
        <ele>49.3</ele>
        <time>2021-07-27T18:16:33Z</time>
      </trkpt>
      <trkpt lat="48.61257" lon="-2.3046">
        <ele>49.4</ele>
        <time>2021-07-27T18:16:35Z</time>
      </trkpt>
      <trkpt lat="48.61256" lon="-2.3045">
        <ele>49.4</ele>
        <time>2021-07-27T18:16:36Z</time>
      </trkpt>
      <trkpt lat="48.61256" lon="-2.30443">
        <ele>49.5</ele>
        <time>2021-07-27T18:16:38Z</time>
      </trkpt>
      <trkpt lat="48.61256" lon="-2.30435">
        <ele>49.6</ele>
        <time>2021-07-27T18:16:39Z</time>
      </trkpt>
      <trkpt lat="48.61256" lon="-2.30424">
        <ele>49.7</ele>
        <time>2021-07-27T18:16:41Z</time>
      </trkpt>
      <trkpt lat="48.61256" lon="-2.30416">
        <ele>49.8</ele>
        <time>2021-07-27T18:16:42Z</time>
      </trkpt>
      <trkpt lat="48.61256" lon="-2.30406">
        <ele>50</ele>
        <time>2021-07-27T18:16:44Z</time>
      </trkpt>
      <trkpt lat="48.61256" lon="-2.30401">
        <ele>50</ele>
        <time>2021-07-27T18:16:45Z</time>
      </trkpt>
      <trkpt lat="48.61252" lon="-2.30395">
        <ele>50</ele>
        <time>2021-07-27T18:16:46Z</time>
      </trkpt>
      <trkpt lat="48.61248" lon="-2.30393">
        <ele>50</ele>
        <time>2021-07-27T18:16:47Z</time>
      </trkpt>
      <trkpt lat="48.61242" lon="-2.30394">
        <ele>50.1</ele>
        <time>2021-07-27T18:16:48Z</time>
      </trkpt>
      <trkpt lat="48.61235" lon="-2.30394">
        <ele>50.1</ele>
        <time>2021-07-27T18:16:50Z</time>
      </trkpt>
      <trkpt lat="48.61228" lon="-2.30394">
        <ele>50.1</ele>
        <time>2021-07-27T18:16:52Z</time>
      </trkpt>
      <trkpt lat="48.61226" lon="-2.30391">
        <ele>50.2</ele>
        <time>2021-07-27T18:16:53Z</time>
      </trkpt>
      <trkpt lat="48.61226" lon="-2.30385">
        <ele>50.1</ele>
        <time>2021-07-27T18:16:54Z</time>
      </trkpt>
      <trkpt lat="48.61227" lon="-2.30377">
        <ele>50.1</ele>
        <time>2021-07-27T18:16:56Z</time>
      </trkpt>
      <trkpt lat="48.61228" lon="-2.3037">
        <ele>50</ele>
        <time>2021-07-27T18:16:57Z</time>
      </trkpt>
      <trkpt lat="48.6123" lon="-2.30362">
        <ele>50</ele>
        <time>2021-07-27T18:16:59Z</time>
      </trkpt>
      <trkpt lat="48.61231" lon="-2.30354">
        <ele>49.9</ele>
        <time>2021-07-27T18:17:00Z</time>
      </trkpt>
      <trkpt lat="48.61232" lon="-2.30348">
        <ele>49.9</ele>
        <time>2021-07-27T18:17:01Z</time>
      </trkpt>
      <trkpt lat="48.61233" lon="-2.30341">
        <ele>49.9</ele>
        <time>2021-07-27T18:17:02Z</time>
      </trkpt>
      <trkpt lat="48.61233" lon="-2.30336">
        <ele>49.9</ele>
        <time>2021-07-27T18:17:03Z</time>
      </trkpt>
      <trkpt lat="48.61235" lon="-2.30329">
        <ele>49.8</ele>
        <time>2021-07-27T18:17:05Z</time>
      </trkpt>
      <trkpt lat="48.61235" lon="-2.30321">
        <ele>49.8</ele>
        <time>2021-07-27T18:17:06Z</time>
      </trkpt>
      <trkpt lat="48.61236" lon="-2.30313">
        <ele>49.8</ele>
        <time>2021-07-27T18:17:08Z</time>
      </trkpt>
      <trkpt lat="48.61236" lon="-2.30309">
        <ele>49.8</ele>
        <time>2021-07-27T18:17:09Z</time>
      </trkpt>
      <trkpt lat="48.61236" lon="-2.30299">
        <ele>49.8</ele>
        <time>2021-07-27T18:17:11Z</time>
      </trkpt>
      <trkpt lat="48.61236" lon="-2.30291">
        <ele>49.8</ele>
        <time>2021-07-27T18:17:13Z</time>
      </trkpt>
      <trkpt lat="48.61236" lon="-2.30282">
        <ele>49.8</ele>
        <time>2021-07-27T18:17:14Z</time>
      </trkpt>
      <trkpt lat="48.61236" lon="-2.30273">
        <ele>49.8</ele>
        <time>2021-07-27T18:17:15Z</time>
      </trkpt>
      <trkpt lat="48.61237" lon="-2.30261">
        <ele>49.9</ele>
        <time>2021-07-27T18:17:17Z</time>
      </trkpt>
      <trkpt lat="48.61238" lon="-2.30254">
        <ele>49.9</ele>
        <time>2021-07-27T18:17:18Z</time>
      </trkpt>
      <trkpt lat="48.61239" lon="-2.30246">
        <ele>49.9</ele>
        <time>2021-07-27T18:17:19Z</time>
      </trkpt>
      <trkpt lat="48.61241" lon="-2.30238">
        <ele>50</ele>
        <time>2021-07-27T18:17:21Z</time>
      </trkpt>
      <trkpt lat="48.61242" lon="-2.3023">
        <ele>50</ele>
        <time>2021-07-27T18:17:22Z</time>
      </trkpt>
      <trkpt lat="48.61244" lon="-2.3022">
        <ele>50</ele>
        <time>2021-07-27T18:17:24Z</time>
      </trkpt>
      <trkpt lat="48.61245" lon="-2.3021">
        <ele>49.9</ele>
        <time>2021-07-27T18:17:25Z</time>
      </trkpt>
      <trkpt lat="48.61246" lon="-2.302">
        <ele>49.9</ele>
        <time>2021-07-27T18:17:26Z</time>
      </trkpt>
      <trkpt lat="48.61247" lon="-2.30189">
        <ele>50</ele>
        <time>2021-07-27T18:17:28Z</time>
      </trkpt>
      <trkpt lat="48.61248" lon="-2.30182">
        <ele>50</ele>
        <time>2021-07-27T18:17:29Z</time>
      </trkpt>
      <trkpt lat="48.61248" lon="-2.30173">
        <ele>50</ele>
        <time>2021-07-27T18:17:30Z</time>
      </trkpt>
      <trkpt lat="48.61249" lon="-2.30163">
        <ele>50</ele>
        <time>2021-07-27T18:17:31Z</time>
      </trkpt>
      <trkpt lat="48.61249" lon="-2.30153">
        <ele>50</ele>
        <time>2021-07-27T18:17:32Z</time>
      </trkpt>
      <trkpt lat="48.61249" lon="-2.3014">
        <ele>50.1</ele>
        <time>2021-07-27T18:17:34Z</time>
      </trkpt>
      <trkpt lat="48.61249" lon="-2.30131">
        <ele>50.1</ele>
        <time>2021-07-27T18:17:35Z</time>
      </trkpt>
      <trkpt lat="48.6125" lon="-2.30122">
        <ele>50.2</ele>
        <time>2021-07-27T18:17:36Z</time>
      </trkpt>
      <trkpt lat="48.61251" lon="-2.30113">
        <ele>50.2</ele>
        <time>2021-07-27T18:17:37Z</time>
      </trkpt>
      <trkpt lat="48.61253" lon="-2.30103">
        <ele>50.3</ele>
        <time>2021-07-27T18:17:38Z</time>
      </trkpt>
      <trkpt lat="48.61256" lon="-2.30088">
        <ele>50.3</ele>
        <time>2021-07-27T18:17:40Z</time>
      </trkpt>
      <trkpt lat="48.61259" lon="-2.30069">
        <ele>50.3</ele>
        <time>2021-07-27T18:17:41Z</time>
      </trkpt>
      <trkpt lat="48.6126" lon="-2.30063">
        <ele>50.2</ele>
        <time>2021-07-27T18:17:42Z</time>
      </trkpt>
      <trkpt lat="48.61261" lon="-2.30058">
        <ele>50.2</ele>
        <time>2021-07-27T18:17:43Z</time>
      </trkpt>
      <trkpt lat="48.61263" lon="-2.30043">
        <ele>50.1</ele>
        <time>2021-07-27T18:17:45Z</time>
      </trkpt>
      <trkpt lat="48.61265" lon="-2.3003">
        <ele>50</ele>
        <time>2021-07-27T18:17:46Z</time>
      </trkpt>
      <trkpt lat="48.61268" lon="-2.30017">
        <ele>49.8</ele>
        <time>2021-07-27T18:17:48Z</time>
      </trkpt>
      <trkpt lat="48.6127" lon="-2.3">
        <ele>49.6</ele>
        <time>2021-07-27T18:17:49Z</time>
      </trkpt>
      <trkpt lat="48.61271" lon="-2.29994">
        <ele>49.5</ele>
        <time>2021-07-27T18:17:50Z</time>
      </trkpt>
      <trkpt lat="48.61274" lon="-2.29984">
        <ele>49.3</ele>
        <time>2021-07-27T18:17:52Z</time>
      </trkpt>
      <trkpt lat="48.61273" lon="-2.29971">
        <ele>49.1</ele>
        <time>2021-07-27T18:17:53Z</time>
      </trkpt>
      <trkpt lat="48.61273" lon="-2.2996">
        <ele>48.9</ele>
        <time>2021-07-27T18:17:55Z</time>
      </trkpt>
      <trkpt lat="48.61274" lon="-2.29949">
        <ele>48.6</ele>
        <time>2021-07-27T18:17:56Z</time>
      </trkpt>
      <trkpt lat="48.61273" lon="-2.29926">
        <ele>48.1</ele>
        <time>2021-07-27T18:17:58Z</time>
      </trkpt>
      <trkpt lat="48.61275" lon="-2.29907">
        <ele>47.5</ele>
        <time>2021-07-27T18:18:00Z</time>
      </trkpt>
      <trkpt lat="48.61278" lon="-2.2989">
        <ele>46.8</ele>
        <time>2021-07-27T18:18:02Z</time>
      </trkpt>
      <trkpt lat="48.61279" lon="-2.29878">
        <ele>46.2</ele>
        <time>2021-07-27T18:18:04Z</time>
      </trkpt>
      <trkpt lat="48.6128" lon="-2.29874">
        <ele>46</ele>
        <time>2021-07-27T18:18:05Z</time>
      </trkpt>
      <trkpt lat="48.6128" lon="-2.29869">
        <ele>45.7</ele>
        <time>2021-07-27T18:18:06Z</time>
      </trkpt>
      <trkpt lat="48.6128" lon="-2.29868">
        <ele>45.6</ele>
        <time>2021-07-27T18:18:07Z</time>
      </trkpt>
      <trkpt lat="48.61278" lon="-2.2986">
        <ele>44.8</ele>
        <time>2021-07-27T18:18:09Z</time>
      </trkpt>
      <trkpt lat="48.61275" lon="-2.29857">
        <ele>44.6</ele>
        <time>2021-07-27T18:18:10Z</time>
      </trkpt>
      <trkpt lat="48.61272" lon="-2.29856">
        <ele>44.4</ele>
        <time>2021-07-27T18:18:11Z</time>
      </trkpt>
      <trkpt lat="48.61263" lon="-2.29853">
        <ele>43.9</ele>
        <time>2021-07-27T18:18:13Z</time>
      </trkpt>
      <trkpt lat="48.61256" lon="-2.29849">
        <ele>43.4</ele>
        <time>2021-07-27T18:18:15Z</time>
      </trkpt>
      <trkpt lat="48.6125" lon="-2.2984">
        <ele>42.8</ele>
        <time>2021-07-27T18:18:16Z</time>
      </trkpt>
      <trkpt lat="48.61241" lon="-2.29829">
        <ele>41.8</ele>
        <time>2021-07-27T18:18:18Z</time>
      </trkpt>
      <trkpt lat="48.61236" lon="-2.29823">
        <ele>41.2</ele>
        <time>2021-07-27T18:18:19Z</time>
      </trkpt>
      <trkpt lat="48.6123" lon="-2.29817">
        <ele>40.6</ele>
        <time>2021-07-27T18:18:20Z</time>
      </trkpt>
      <trkpt lat="48.61216" lon="-2.29803">
        <ele>39.3</ele>
        <time>2021-07-27T18:18:22Z</time>
      </trkpt>
      <trkpt lat="48.61209" lon="-2.29796">
        <ele>38.7</ele>
        <time>2021-07-27T18:18:23Z</time>
      </trkpt>
      <trkpt lat="48.61194" lon="-2.29781">
        <ele>37.4</ele>
        <time>2021-07-27T18:18:25Z</time>
      </trkpt>
      <trkpt lat="48.61185" lon="-2.29775">
        <ele>36.8</ele>
        <time>2021-07-27T18:18:26Z</time>
      </trkpt>
      <trkpt lat="48.61176" lon="-2.29769">
        <ele>36.1</ele>
        <time>2021-07-27T18:18:27Z</time>
      </trkpt>
      <trkpt lat="48.6116" lon="-2.29755">
        <ele>34.8</ele>
        <time>2021-07-27T18:18:29Z</time>
      </trkpt>
      <trkpt lat="48.61151" lon="-2.29737">
        <ele>33.9</ele>
        <time>2021-07-27T18:18:31Z</time>
      </trkpt>
      <trkpt lat="48.61143" lon="-2.2972">
        <ele>32.9</ele>
        <time>2021-07-27T18:18:33Z</time>
      </trkpt>
      <trkpt lat="48.61139" lon="-2.29711">
        <ele>32.5</ele>
        <time>2021-07-27T18:18:34Z</time>
      </trkpt>
      <trkpt lat="48.61131" lon="-2.29701">
        <ele>31.9</ele>
        <time>2021-07-27T18:18:36Z</time>
      </trkpt>
      <trkpt lat="48.61127" lon="-2.29697">
        <ele>31.6</ele>
        <time>2021-07-27T18:18:37Z</time>
      </trkpt>
      <trkpt lat="48.61124" lon="-2.29696">
        <ele>31.5</ele>
        <time>2021-07-27T18:18:38Z</time>
      </trkpt>
      <trkpt lat="48.61115" lon="-2.29694">
        <ele>30.9</ele>
        <time>2021-07-27T18:18:40Z</time>
      </trkpt>
      <trkpt lat="48.61104" lon="-2.29694">
        <ele>30.3</ele>
        <time>2021-07-27T18:18:42Z</time>
      </trkpt>
      <trkpt lat="48.61099" lon="-2.29693">
        <ele>30.2</ele>
        <time>2021-07-27T18:18:43Z</time>
      </trkpt>
      <trkpt lat="48.61093" lon="-2.29693">
        <ele>29.9</ele>
        <time>2021-07-27T18:18:44Z</time>
      </trkpt>
      <trkpt lat="48.61089" lon="-2.29694">
        <ele>29.8</ele>
        <time>2021-07-27T18:18:45Z</time>
      </trkpt>
      <trkpt lat="48.61082" lon="-2.29695">
        <ele>29.5</ele>
        <time>2021-07-27T18:18:46Z</time>
      </trkpt>
      <trkpt lat="48.61077" lon="-2.29695">
        <ele>29.3</ele>
        <time>2021-07-27T18:18:47Z</time>
      </trkpt>
      <trkpt lat="48.61067" lon="-2.29696">
        <ele>28.9</ele>
        <time>2021-07-27T18:18:49Z</time>
      </trkpt>
      <trkpt lat="48.61061" lon="-2.29696">
        <ele>28.6</ele>
        <time>2021-07-27T18:18:50Z</time>
      </trkpt>
      <trkpt lat="48.61049" lon="-2.29697">
        <ele>28.1</ele>
        <time>2021-07-27T18:18:52Z</time>
      </trkpt>
      <trkpt lat="48.61038" lon="-2.29698">
        <ele>27.6</ele>
        <time>2021-07-27T18:18:54Z</time>
      </trkpt>
      <trkpt lat="48.61028" lon="-2.29699">
        <ele>27.3</ele>
        <time>2021-07-27T18:18:56Z</time>
      </trkpt>
      <trkpt lat="48.61024" lon="-2.29692">
        <ele>27.2</ele>
        <time>2021-07-27T18:18:58Z</time>
      </trkpt>
      <trkpt lat="48.61019" lon="-2.29694">
        <ele>27.1</ele>
        <time>2021-07-27T18:18:59Z</time>
      </trkpt>
      <trkpt lat="48.61016" lon="-2.29695">
        <ele>27</ele>
        <time>2021-07-27T18:19:00Z</time>
      </trkpt>
      <trkpt lat="48.61009" lon="-2.29697">
        <ele>26.9</ele>
        <time>2021-07-27T18:19:02Z</time>
      </trkpt>
      <trkpt lat="48.61005" lon="-2.29698">
        <ele>26.8</ele>
        <time>2021-07-27T18:19:03Z</time>
      </trkpt>
      <trkpt lat="48.60997" lon="-2.29699">
        <ele>26.6</ele>
        <time>2021-07-27T18:19:05Z</time>
      </trkpt>
      <trkpt lat="48.60993" lon="-2.29697">
        <ele>26.6</ele>
        <time>2021-07-27T18:19:06Z</time>
      </trkpt>
      <trkpt lat="48.60987" lon="-2.29691">
        <ele>26.6</ele>
        <time>2021-07-27T18:19:08Z</time>
      </trkpt>
      <trkpt lat="48.60984" lon="-2.29683">
        <ele>26.5</ele>
        <time>2021-07-27T18:19:09Z</time>
      </trkpt>
      <trkpt lat="48.60981" lon="-2.2967">
        <ele>26.1</ele>
        <time>2021-07-27T18:19:11Z</time>
      </trkpt>
      <trkpt lat="48.60979" lon="-2.29663">
        <ele>25.9</ele>
        <time>2021-07-27T18:19:12Z</time>
      </trkpt>
      <trkpt lat="48.60977" lon="-2.29655">
        <ele>25.8</ele>
        <time>2021-07-27T18:19:14Z</time>
      </trkpt>
      <trkpt lat="48.60976" lon="-2.29648">
        <ele>25.7</ele>
        <time>2021-07-27T18:19:15Z</time>
      </trkpt>
      <trkpt lat="48.60974" lon="-2.2964">
        <ele>25.5</ele>
        <time>2021-07-27T18:19:16Z</time>
      </trkpt>
      <trkpt lat="48.60974" lon="-2.2963">
        <ele>25.4</ele>
        <time>2021-07-27T18:19:17Z</time>
      </trkpt>
      <trkpt lat="48.60971" lon="-2.29615">
        <ele>25.2</ele>
        <time>2021-07-27T18:19:19Z</time>
      </trkpt>
      <trkpt lat="48.6097" lon="-2.29607">
        <ele>25.1</ele>
        <time>2021-07-27T18:19:20Z</time>
      </trkpt>
      <trkpt lat="48.60968" lon="-2.29593">
        <ele>24.9</ele>
        <time>2021-07-27T18:19:22Z</time>
      </trkpt>
      <trkpt lat="48.60968" lon="-2.29587">
        <ele>24.9</ele>
        <time>2021-07-27T18:19:23Z</time>
      </trkpt>
      <trkpt lat="48.60967" lon="-2.29579">
        <ele>24.8</ele>
        <time>2021-07-27T18:19:24Z</time>
      </trkpt>
      <trkpt lat="48.60966" lon="-2.29572">
        <ele>24.7</ele>
        <time>2021-07-27T18:19:25Z</time>
      </trkpt>
      <trkpt lat="48.60965" lon="-2.29563">
        <ele>24.7</ele>
        <time>2021-07-27T18:19:27Z</time>
      </trkpt>
      <trkpt lat="48.60964" lon="-2.29556">
        <ele>24.7</ele>
        <time>2021-07-27T18:19:28Z</time>
      </trkpt>
      <trkpt lat="48.60962" lon="-2.29547">
        <ele>24.7</ele>
        <time>2021-07-27T18:19:29Z</time>
      </trkpt>
      <trkpt lat="48.60961" lon="-2.29538">
        <ele>24.7</ele>
        <time>2021-07-27T18:19:30Z</time>
      </trkpt>
      <trkpt lat="48.6096" lon="-2.2953">
        <ele>24.6</ele>
        <time>2021-07-27T18:19:32Z</time>
      </trkpt>
      <trkpt lat="48.6096" lon="-2.29523">
        <ele>24.5</ele>
        <time>2021-07-27T18:19:33Z</time>
      </trkpt>
      <trkpt lat="48.6096" lon="-2.29518">
        <ele>24.5</ele>
        <time>2021-07-27T18:19:34Z</time>
      </trkpt>
      <trkpt lat="48.60959" lon="-2.29512">
        <ele>24.4</ele>
        <time>2021-07-27T18:19:35Z</time>
      </trkpt>
      <trkpt lat="48.60957" lon="-2.29502">
        <ele>24.3</ele>
        <time>2021-07-27T18:19:37Z</time>
      </trkpt>
      <trkpt lat="48.60955" lon="-2.29491">
        <ele>24.2</ele>
        <time>2021-07-27T18:19:39Z</time>
      </trkpt>
      <trkpt lat="48.60955" lon="-2.2948">
        <ele>24.1</ele>
        <time>2021-07-27T18:19:40Z</time>
      </trkpt>
      <trkpt lat="48.60956" lon="-2.29465">
        <ele>24.1</ele>
        <time>2021-07-27T18:19:42Z</time>
      </trkpt>
      <trkpt lat="48.60957" lon="-2.29454">
        <ele>24.1</ele>
        <time>2021-07-27T18:19:43Z</time>
      </trkpt>
      <trkpt lat="48.60957" lon="-2.29445">
        <ele>24.2</ele>
        <time>2021-07-27T18:19:44Z</time>
      </trkpt>
      <trkpt lat="48.60958" lon="-2.29435">
        <ele>24.2</ele>
        <time>2021-07-27T18:19:45Z</time>
      </trkpt>
      <trkpt lat="48.6096" lon="-2.29425">
        <ele>24.3</ele>
        <time>2021-07-27T18:19:46Z</time>
      </trkpt>
      <trkpt lat="48.60961" lon="-2.29415">
        <ele>24.3</ele>
        <time>2021-07-27T18:19:48Z</time>
      </trkpt>
      <trkpt lat="48.60962" lon="-2.29407">
        <ele>24.3</ele>
        <time>2021-07-27T18:19:49Z</time>
      </trkpt>
      <trkpt lat="48.60962" lon="-2.29401">
        <ele>24.3</ele>
        <time>2021-07-27T18:19:50Z</time>
      </trkpt>
      <trkpt lat="48.60963" lon="-2.29393">
        <ele>24.4</ele>
        <time>2021-07-27T18:19:52Z</time>
      </trkpt>
      <trkpt lat="48.60965" lon="-2.29388">
        <ele>24.4</ele>
        <time>2021-07-27T18:19:53Z</time>
      </trkpt>
      <trkpt lat="48.60967" lon="-2.2938">
        <ele>24.4</ele>
        <time>2021-07-27T18:19:54Z</time>
      </trkpt>
      <trkpt lat="48.60968" lon="-2.29373">
        <ele>24.5</ele>
        <time>2021-07-27T18:19:56Z</time>
      </trkpt>
      <trkpt lat="48.6097" lon="-2.29368">
        <ele>24.5</ele>
        <time>2021-07-27T18:19:57Z</time>
      </trkpt>
      <trkpt lat="48.60971" lon="-2.29362">
        <ele>24.5</ele>
        <time>2021-07-27T18:19:58Z</time>
      </trkpt>
      <trkpt lat="48.60973" lon="-2.29351">
        <ele>24.5</ele>
        <time>2021-07-27T18:20:00Z</time>
      </trkpt>
      <trkpt lat="48.60974" lon="-2.29344">
        <ele>24.5</ele>
        <time>2021-07-27T18:20:01Z</time>
      </trkpt>
      <trkpt lat="48.60975" lon="-2.29339">
        <ele>24.5</ele>
        <time>2021-07-27T18:20:02Z</time>
      </trkpt>
      <trkpt lat="48.60978" lon="-2.29334">
        <ele>24.5</ele>
        <time>2021-07-27T18:20:03Z</time>
      </trkpt>
      <trkpt lat="48.6098" lon="-2.29329">
        <ele>24.6</ele>
        <time>2021-07-27T18:20:05Z</time>
      </trkpt>
      <trkpt lat="48.60981" lon="-2.29326">
        <ele>24.6</ele>
        <time>2021-07-27T18:20:06Z</time>
      </trkpt>
      <trkpt lat="48.60983" lon="-2.29322">
        <ele>24.6</ele>
        <time>2021-07-27T18:20:08Z</time>
      </trkpt>
      <trkpt lat="48.60983" lon="-2.29316">
        <ele>24.6</ele>
        <time>2021-07-27T18:20:09Z</time>
      </trkpt>
      <trkpt lat="48.60982" lon="-2.29314">
        <ele>24.6</ele>
        <time>2021-07-27T18:20:10Z</time>
      </trkpt>
      <trkpt lat="48.60981" lon="-2.2931">
        <ele>24.8</ele>
        <time>2021-07-27T18:20:12Z</time>
      </trkpt>
      <trkpt lat="48.60981" lon="-2.29309">
        <ele>24.9</ele>
        <time>2021-07-27T18:20:13Z</time>
      </trkpt>
      <trkpt lat="48.60982" lon="-2.29306">
        <ele>24.9</ele>
        <time>2021-07-27T18:20:15Z</time>
      </trkpt>
      <trkpt lat="48.60982" lon="-2.29305">
        <ele>24.9</ele>
        <time>2021-07-27T18:20:16Z</time>
      </trkpt>
      <trkpt lat="48.60982" lon="-2.29304">
        <ele>24.9</ele>
        <time>2021-07-27T18:20:18Z</time>
      </trkpt>
      <trkpt lat="48.60982" lon="-2.293">
        <ele>25</ele>
        <time>2021-07-27T18:20:19Z</time>
      </trkpt>
      <trkpt lat="48.60984" lon="-2.29296">
        <ele>25.1</ele>
        <time>2021-07-27T18:20:20Z</time>
      </trkpt>
      <trkpt lat="48.60984" lon="-2.29294">
        <ele>25.1</ele>
        <time>2021-07-27T18:20:21Z</time>
      </trkpt>
      <trkpt lat="48.60986" lon="-2.2929">
        <ele>25.1</ele>
        <time>2021-07-27T18:20:22Z</time>
      </trkpt>
      <trkpt lat="48.60987" lon="-2.29283">
        <ele>25.2</ele>
        <time>2021-07-27T18:20:24Z</time>
      </trkpt>
      <trkpt lat="48.60988" lon="-2.29279">
        <ele>25.3</ele>
        <time>2021-07-27T18:20:25Z</time>
      </trkpt>
      <trkpt lat="48.6099" lon="-2.29271">
        <ele>25.3</ele>
        <time>2021-07-27T18:20:27Z</time>
      </trkpt>
      <trkpt lat="48.6099" lon="-2.29266">
        <ele>25.5</ele>
        <time>2021-07-27T18:20:28Z</time>
      </trkpt>
      <trkpt lat="48.60991" lon="-2.2926">
        <ele>25.6</ele>
        <time>2021-07-27T18:20:29Z</time>
      </trkpt>
      <trkpt lat="48.60992" lon="-2.29255">
        <ele>25.7</ele>
        <time>2021-07-27T18:20:30Z</time>
      </trkpt>
      <trkpt lat="48.60993" lon="-2.2925">
        <ele>25.9</ele>
        <time>2021-07-27T18:20:32Z</time>
      </trkpt>
      <trkpt lat="48.60994" lon="-2.29246">
        <ele>26</ele>
        <time>2021-07-27T18:20:33Z</time>
      </trkpt>
      <trkpt lat="48.60996" lon="-2.2924">
        <ele>26.3</ele>
        <time>2021-07-27T18:20:34Z</time>
      </trkpt>
      <trkpt lat="48.60997" lon="-2.29235">
        <ele>26.4</ele>
        <time>2021-07-27T18:20:35Z</time>
      </trkpt>
      <trkpt lat="48.60998" lon="-2.29227">
        <ele>26.7</ele>
        <time>2021-07-27T18:20:37Z</time>
      </trkpt>
      <trkpt lat="48.60999" lon="-2.29223">
        <ele>26.8</ele>
        <time>2021-07-27T18:20:38Z</time>
      </trkpt>
      <trkpt lat="48.60999" lon="-2.29218">
        <ele>27</ele>
        <time>2021-07-27T18:20:39Z</time>
      </trkpt>
      <trkpt lat="48.61" lon="-2.29214">
        <ele>27.2</ele>
        <time>2021-07-27T18:20:41Z</time>
      </trkpt>
      <trkpt lat="48.61" lon="-2.29213">
        <ele>27.2</ele>
        <time>2021-07-27T18:20:42Z</time>
      </trkpt>
      <trkpt lat="48.61001" lon="-2.2921">
        <ele>27.4</ele>
        <time>2021-07-27T18:20:43Z</time>
      </trkpt>
      <trkpt lat="48.61001" lon="-2.29208">
        <ele>27.4</ele>
        <time>2021-07-27T18:20:45Z</time>
      </trkpt>
      <trkpt lat="48.61001" lon="-2.29207">
        <ele>27.4</ele>
        <time>2021-07-27T18:20:46Z</time>
      </trkpt>
      <trkpt lat="48.61001" lon="-2.29206">
        <ele>27.7</ele>
        <time>2021-07-27T18:20:47Z</time>
      </trkpt>
      <trkpt lat="48.61002" lon="-2.29198">
        <ele>27.8</ele>
        <time>2021-07-27T18:20:50Z</time>
      </trkpt>
      <trkpt lat="48.61003" lon="-2.29194">
        <ele>28</ele>
        <time>2021-07-27T18:20:51Z</time>
      </trkpt>
      <trkpt lat="48.61004" lon="-2.29193">
        <ele>28.3</ele>
        <time>2021-07-27T18:20:52Z</time>
      </trkpt>
      <trkpt lat="48.61005" lon="-2.2919">
        <ele>28.2</ele>
        <time>2021-07-27T18:20:53Z</time>
      </trkpt>
      <trkpt lat="48.61005" lon="-2.29187">
        <ele>28.4</ele>
        <time>2021-07-27T18:20:55Z</time>
      </trkpt>
      <trkpt lat="48.61005" lon="-2.29186">
        <ele>28.4</ele>
        <time>2021-07-27T18:20:56Z</time>
      </trkpt>
      <trkpt lat="48.61005" lon="-2.29184">
        <ele>28.7</ele>
        <time>2021-07-27T18:20:57Z</time>
      </trkpt>
      <trkpt lat="48.61004" lon="-2.29183">
        <ele>28.7</ele>
        <time>2021-07-27T18:20:58Z</time>
      </trkpt>
      <trkpt lat="48.61004" lon="-2.29182">
        <ele>28.8</ele>
        <time>2021-07-27T18:20:59Z</time>
      </trkpt>
      <trkpt lat="48.61004" lon="-2.2918">
        <ele>29</ele>
        <time>2021-07-27T18:21:00Z</time>
      </trkpt>
      <trkpt lat="48.61005" lon="-2.29178">
        <ele>29</ele>
        <time>2021-07-27T18:21:02Z</time>
      </trkpt>
      <trkpt lat="48.61005" lon="-2.29177">
        <ele>29.2</ele>
        <time>2021-07-27T18:21:03Z</time>
      </trkpt>
      <trkpt lat="48.61005" lon="-2.29174">
        <ele>29.2</ele>
        <time>2021-07-27T18:21:05Z</time>
      </trkpt>
      <trkpt lat="48.61006" lon="-2.2917">
        <ele>29.6</ele>
        <time>2021-07-27T18:21:06Z</time>
      </trkpt>
      <trkpt lat="48.61006" lon="-2.29166">
        <ele>29.9</ele>
        <time>2021-07-27T18:21:08Z</time>
      </trkpt>
      <trkpt lat="48.61007" lon="-2.29163">
        <ele>30.2</ele>
        <time>2021-07-27T18:21:09Z</time>
      </trkpt>
      <trkpt lat="48.61007" lon="-2.29162">
        <ele>30.1</ele>
        <time>2021-07-27T18:21:11Z</time>
      </trkpt>
      <trkpt lat="48.61008" lon="-2.29161">
        <ele>30.1</ele>
        <time>2021-07-27T18:21:12Z</time>
      </trkpt>
      <trkpt lat="48.61008" lon="-2.29157">
        <ele>30.5</ele>
        <time>2021-07-27T18:21:13Z</time>
      </trkpt>
      <trkpt lat="48.6101" lon="-2.29152">
        <ele>30.8</ele>
        <time>2021-07-27T18:21:14Z</time>
      </trkpt>
      <trkpt lat="48.6101" lon="-2.29149">
        <ele>31</ele>
        <time>2021-07-27T18:21:15Z</time>
      </trkpt>
      <trkpt lat="48.61011" lon="-2.29146">
        <ele>31.3</ele>
        <time>2021-07-27T18:21:17Z</time>
      </trkpt>
      <trkpt lat="48.61012" lon="-2.29143">
        <ele>31.3</ele>
        <time>2021-07-27T18:21:18Z</time>
      </trkpt>
      <trkpt lat="48.61012" lon="-2.29141">
        <ele>31.6</ele>
        <time>2021-07-27T18:21:20Z</time>
      </trkpt>
      <trkpt lat="48.61012" lon="-2.29139">
        <ele>31.6</ele>
        <time>2021-07-27T18:21:21Z</time>
      </trkpt>
      <trkpt lat="48.61013" lon="-2.29133">
        <ele>32.1</ele>
        <time>2021-07-27T18:21:23Z</time>
      </trkpt>
      <trkpt lat="48.61014" lon="-2.29128">
        <ele>32.4</ele>
        <time>2021-07-27T18:21:24Z</time>
      </trkpt>
      <trkpt lat="48.61014" lon="-2.29127">
        <ele>32.4</ele>
        <time>2021-07-27T18:21:25Z</time>
      </trkpt>
      <trkpt lat="48.61014" lon="-2.29126">
        <ele>32.4</ele>
        <time>2021-07-27T18:21:26Z</time>
      </trkpt>
      <trkpt lat="48.61015" lon="-2.29124">
        <ele>32.6</ele>
        <time>2021-07-27T18:21:27Z</time>
      </trkpt>
      <trkpt lat="48.61015" lon="-2.29118">
        <ele>32.9</ele>
        <time>2021-07-27T18:21:29Z</time>
      </trkpt>
      <trkpt lat="48.61017" lon="-2.29113">
        <ele>33.1</ele>
        <time>2021-07-27T18:21:30Z</time>
      </trkpt>
      <trkpt lat="48.61017" lon="-2.29112">
        <ele>33.1</ele>
        <time>2021-07-27T18:21:31Z</time>
      </trkpt>
      <trkpt lat="48.61018" lon="-2.29108">
        <ele>33.5</ele>
        <time>2021-07-27T18:21:32Z</time>
      </trkpt>
      <trkpt lat="48.61018" lon="-2.29106">
        <ele>33.5</ele>
        <time>2021-07-27T18:21:33Z</time>
      </trkpt>
      <trkpt lat="48.61019" lon="-2.29102">
        <ele>33.7</ele>
        <time>2021-07-27T18:21:34Z</time>
      </trkpt>
      <trkpt lat="48.61019" lon="-2.29099">
        <ele>33.7</ele>
        <time>2021-07-27T18:21:35Z</time>
      </trkpt>
      <trkpt lat="48.61019" lon="-2.29097">
        <ele>34</ele>
        <time>2021-07-27T18:21:37Z</time>
      </trkpt>
      <trkpt lat="48.61019" lon="-2.29096">
        <ele>34</ele>
        <time>2021-07-27T18:21:38Z</time>
      </trkpt>
      <trkpt lat="48.6102" lon="-2.2909">
        <ele>34.6</ele>
        <time>2021-07-27T18:21:40Z</time>
      </trkpt>
      <trkpt lat="48.61021" lon="-2.29087">
        <ele>34.6</ele>
        <time>2021-07-27T18:21:41Z</time>
      </trkpt>
      <trkpt lat="48.61021" lon="-2.29086">
        <ele>35</ele>
        <time>2021-07-27T18:21:43Z</time>
      </trkpt>
      <trkpt lat="48.61021" lon="-2.29083">
        <ele>35</ele>
        <time>2021-07-27T18:21:44Z</time>
      </trkpt>
      <trkpt lat="48.61022" lon="-2.29081">
        <ele>35.4</ele>
        <time>2021-07-27T18:21:45Z</time>
      </trkpt>
      <trkpt lat="48.61023" lon="-2.29078">
        <ele>35.8</ele>
        <time>2021-07-27T18:21:46Z</time>
      </trkpt>
      <trkpt lat="48.61024" lon="-2.29075">
        <ele>35.8</ele>
        <time>2021-07-27T18:21:48Z</time>
      </trkpt>
      <trkpt lat="48.61025" lon="-2.29072">
        <ele>36.2</ele>
        <time>2021-07-27T18:21:49Z</time>
      </trkpt>
      <trkpt lat="48.61026" lon="-2.29071">
        <ele>36.2</ele>
        <time>2021-07-27T18:21:51Z</time>
      </trkpt>
      <trkpt lat="48.61026" lon="-2.29069">
        <ele>36.5</ele>
        <time>2021-07-27T18:21:52Z</time>
      </trkpt>
      <trkpt lat="48.61027" lon="-2.29064">
        <ele>36.8</ele>
        <time>2021-07-27T18:21:54Z</time>
      </trkpt>
      <trkpt lat="48.61028" lon="-2.29061">
        <ele>36.8</ele>
        <time>2021-07-27T18:21:55Z</time>
      </trkpt>
      <trkpt lat="48.61029" lon="-2.29059">
        <ele>37</ele>
        <time>2021-07-27T18:21:57Z</time>
      </trkpt>
      <trkpt lat="48.61029" lon="-2.29058">
        <ele>37</ele>
        <time>2021-07-27T18:21:58Z</time>
      </trkpt>
      <trkpt lat="48.6103" lon="-2.29054">
        <ele>37.3</ele>
        <time>2021-07-27T18:21:59Z</time>
      </trkpt>
      <trkpt lat="48.6103" lon="-2.29053">
        <ele>37.3</ele>
        <time>2021-07-27T18:22:01Z</time>
      </trkpt>
      <trkpt lat="48.61031" lon="-2.29051">
        <ele>37.5</ele>
        <time>2021-07-27T18:22:02Z</time>
      </trkpt>
      <trkpt lat="48.61032" lon="-2.29048">
        <ele>37.5</ele>
        <time>2021-07-27T18:22:04Z</time>
      </trkpt>
      <trkpt lat="48.61033" lon="-2.29045">
        <ele>37.8</ele>
        <time>2021-07-27T18:22:05Z</time>
      </trkpt>
      <trkpt lat="48.61034" lon="-2.29042">
        <ele>38</ele>
        <time>2021-07-27T18:22:07Z</time>
      </trkpt>
      <trkpt lat="48.61035" lon="-2.2904">
        <ele>38</ele>
        <time>2021-07-27T18:22:08Z</time>
      </trkpt>
      <trkpt lat="48.61036" lon="-2.29038">
        <ele>38.3</ele>
        <time>2021-07-27T18:22:09Z</time>
      </trkpt>
      <trkpt lat="48.61037" lon="-2.29035">
        <ele>38.3</ele>
        <time>2021-07-27T18:22:11Z</time>
      </trkpt>
      <trkpt lat="48.61038" lon="-2.29034">
        <ele>38.5</ele>
        <time>2021-07-27T18:22:12Z</time>
      </trkpt>
      <trkpt lat="48.61039" lon="-2.29031">
        <ele>38.6</ele>
        <time>2021-07-27T18:22:13Z</time>
      </trkpt>
      <trkpt lat="48.6104" lon="-2.29029">
        <ele>38.8</ele>
        <time>2021-07-27T18:22:15Z</time>
      </trkpt>
      <trkpt lat="48.61041" lon="-2.29028">
        <ele>38.8</ele>
        <time>2021-07-27T18:22:16Z</time>
      </trkpt>
      <trkpt lat="48.61042" lon="-2.29025">
        <ele>39.1</ele>
        <time>2021-07-27T18:22:17Z</time>
      </trkpt>
      <trkpt lat="48.61044" lon="-2.29023">
        <ele>39.1</ele>
        <time>2021-07-27T18:22:19Z</time>
      </trkpt>
      <trkpt lat="48.61045" lon="-2.29022">
        <ele>39.4</ele>
        <time>2021-07-27T18:22:20Z</time>
      </trkpt>
      <trkpt lat="48.61047" lon="-2.29017">
        <ele>39.6</ele>
        <time>2021-07-27T18:22:22Z</time>
      </trkpt>
      <trkpt lat="48.61049" lon="-2.29015">
        <ele>39.7</ele>
        <time>2021-07-27T18:22:23Z</time>
      </trkpt>
      <trkpt lat="48.6105" lon="-2.29013">
        <ele>39.9</ele>
        <time>2021-07-27T18:22:25Z</time>
      </trkpt>
      <trkpt lat="48.61051" lon="-2.29012">
        <ele>39.9</ele>
        <time>2021-07-27T18:22:26Z</time>
      </trkpt>
      <trkpt lat="48.61052" lon="-2.2901">
        <ele>39.9</ele>
        <time>2021-07-27T18:22:27Z</time>
      </trkpt>
      <trkpt lat="48.61056" lon="-2.29006">
        <ele>40.2</ele>
        <time>2021-07-27T18:22:29Z</time>
      </trkpt>
      <trkpt lat="48.61058" lon="-2.29004">
        <ele>40.4</ele>
        <time>2021-07-27T18:22:30Z</time>
      </trkpt>
      <trkpt lat="48.61058" lon="-2.29003">
        <ele>40.4</ele>
        <time>2021-07-27T18:22:32Z</time>
      </trkpt>
      <trkpt lat="48.6106" lon="-2.29001">
        <ele>40.4</ele>
        <time>2021-07-27T18:22:33Z</time>
      </trkpt>
      <trkpt lat="48.61064" lon="-2.28995">
        <ele>40.8</ele>
        <time>2021-07-27T18:22:35Z</time>
      </trkpt>
      <trkpt lat="48.61066" lon="-2.28992">
        <ele>41</ele>
        <time>2021-07-27T18:22:36Z</time>
      </trkpt>
      <trkpt lat="48.61067" lon="-2.28991">
        <ele>41</ele>
        <time>2021-07-27T18:22:37Z</time>
      </trkpt>
      <trkpt lat="48.61071" lon="-2.28987">
        <ele>41.1</ele>
        <time>2021-07-27T18:22:38Z</time>
      </trkpt>
      <trkpt lat="48.61073" lon="-2.28985">
        <ele>41</ele>
        <time>2021-07-27T18:22:39Z</time>
      </trkpt>
      <trkpt lat="48.61075" lon="-2.28983">
        <ele>41.2</ele>
        <time>2021-07-27T18:22:41Z</time>
      </trkpt>
      <trkpt lat="48.61077" lon="-2.2898">
        <ele>41.2</ele>
        <time>2021-07-27T18:22:43Z</time>
      </trkpt>
      <trkpt lat="48.61078" lon="-2.28977">
        <ele>41.3</ele>
        <time>2021-07-27T18:22:44Z</time>
      </trkpt>
      <trkpt lat="48.61079" lon="-2.28976">
        <ele>41.2</ele>
        <time>2021-07-27T18:22:45Z</time>
      </trkpt>
      <trkpt lat="48.61079" lon="-2.28975">
        <ele>41.3</ele>
        <time>2021-07-27T18:22:46Z</time>
      </trkpt>
      <trkpt lat="48.61081" lon="-2.28972">
        <ele>41.3</ele>
        <time>2021-07-27T18:22:48Z</time>
      </trkpt>
      <trkpt lat="48.61084" lon="-2.28967">
        <ele>41.4</ele>
        <time>2021-07-27T18:22:50Z</time>
      </trkpt>
      <trkpt lat="48.61085" lon="-2.28965">
        <ele>41.6</ele>
        <time>2021-07-27T18:22:51Z</time>
      </trkpt>
      <trkpt lat="48.61087" lon="-2.28964">
        <ele>41.5</ele>
        <time>2021-07-27T18:22:52Z</time>
      </trkpt>
      <trkpt lat="48.61089" lon="-2.28961">
        <ele>41.7</ele>
        <time>2021-07-27T18:22:54Z</time>
      </trkpt>
      <trkpt lat="48.61091" lon="-2.28957">
        <ele>41.8</ele>
        <time>2021-07-27T18:22:55Z</time>
      </trkpt>
      <trkpt lat="48.61092" lon="-2.28955">
        <ele>41.8</ele>
        <time>2021-07-27T18:22:56Z</time>
      </trkpt>
      <trkpt lat="48.61093" lon="-2.28953">
        <ele>41.9</ele>
        <time>2021-07-27T18:22:57Z</time>
      </trkpt>
      <trkpt lat="48.61094" lon="-2.28949">
        <ele>42.1</ele>
        <time>2021-07-27T18:22:59Z</time>
      </trkpt>
      <trkpt lat="48.61096" lon="-2.28945">
        <ele>42.1</ele>
        <time>2021-07-27T18:23:00Z</time>
      </trkpt>
      <trkpt lat="48.61096" lon="-2.28943">
        <ele>42.3</ele>
        <time>2021-07-27T18:23:01Z</time>
      </trkpt>
      <trkpt lat="48.61097" lon="-2.2894">
        <ele>42.5</ele>
        <time>2021-07-27T18:23:02Z</time>
      </trkpt>
      <trkpt lat="48.61099" lon="-2.28934">
        <ele>42.6</ele>
        <time>2021-07-27T18:23:04Z</time>
      </trkpt>
      <trkpt lat="48.61099" lon="-2.28931">
        <ele>42.7</ele>
        <time>2021-07-27T18:23:05Z</time>
      </trkpt>
      <trkpt lat="48.611" lon="-2.28928">
        <ele>42.7</ele>
        <time>2021-07-27T18:23:06Z</time>
      </trkpt>
      <trkpt lat="48.611" lon="-2.28923">
        <ele>43.1</ele>
        <time>2021-07-27T18:23:07Z</time>
      </trkpt>
      <trkpt lat="48.61101" lon="-2.28921">
        <ele>43.1</ele>
        <time>2021-07-27T18:23:08Z</time>
      </trkpt>
      <trkpt lat="48.61101" lon="-2.28919">
        <ele>43.2</ele>
        <time>2021-07-27T18:23:09Z</time>
      </trkpt>
      <trkpt lat="48.61102" lon="-2.28914">
        <ele>43.4</ele>
        <time>2021-07-27T18:23:11Z</time>
      </trkpt>
      <trkpt lat="48.61104" lon="-2.28909">
        <ele>43.5</ele>
        <time>2021-07-27T18:23:12Z</time>
      </trkpt>
      <trkpt lat="48.61104" lon="-2.28908">
        <ele>43.5</ele>
        <time>2021-07-27T18:23:13Z</time>
      </trkpt>
      <trkpt lat="48.61106" lon="-2.28903">
        <ele>43.8</ele>
        <time>2021-07-27T18:23:15Z</time>
      </trkpt>
      <trkpt lat="48.61108" lon="-2.28899">
        <ele>44</ele>
        <time>2021-07-27T18:23:16Z</time>
      </trkpt>
      <trkpt lat="48.6111" lon="-2.28895">
        <ele>44.2</ele>
        <time>2021-07-27T18:23:17Z</time>
      </trkpt>
      <trkpt lat="48.6111" lon="-2.28893">
        <ele>44.2</ele>
        <time>2021-07-27T18:23:18Z</time>
      </trkpt>
      <trkpt lat="48.6111" lon="-2.2889">
        <ele>44.5</ele>
        <time>2021-07-27T18:23:19Z</time>
      </trkpt>
      <trkpt lat="48.6111" lon="-2.28885">
        <ele>44.7</ele>
        <time>2021-07-27T18:23:21Z</time>
      </trkpt>
      <trkpt lat="48.61111" lon="-2.28879">
        <ele>45.3</ele>
        <time>2021-07-27T18:23:22Z</time>
      </trkpt>
      <trkpt lat="48.61111" lon="-2.28876">
        <ele>45.3</ele>
        <time>2021-07-27T18:23:23Z</time>
      </trkpt>
      <trkpt lat="48.61111" lon="-2.28872">
        <ele>45.5</ele>
        <time>2021-07-27T18:23:25Z</time>
      </trkpt>
      <trkpt lat="48.61112" lon="-2.28867">
        <ele>46</ele>
        <time>2021-07-27T18:23:26Z</time>
      </trkpt>
      <trkpt lat="48.61112" lon="-2.28865">
        <ele>45.8</ele>
        <time>2021-07-27T18:23:27Z</time>
      </trkpt>
      <trkpt lat="48.61112" lon="-2.28861">
        <ele>46.2</ele>
        <time>2021-07-27T18:23:29Z</time>
      </trkpt>
      <trkpt lat="48.61111" lon="-2.28856">
        <ele>46.4</ele>
        <time>2021-07-27T18:23:30Z</time>
      </trkpt>
      <trkpt lat="48.61111" lon="-2.28854">
        <ele>46.6</ele>
        <time>2021-07-27T18:23:31Z</time>
      </trkpt>
      <trkpt lat="48.6111" lon="-2.2885">
        <ele>46.7</ele>
        <time>2021-07-27T18:23:32Z</time>
      </trkpt>
      <trkpt lat="48.6111" lon="-2.28848">
        <ele>46.8</ele>
        <time>2021-07-27T18:23:34Z</time>
      </trkpt>
      <trkpt lat="48.6111" lon="-2.28846">
        <ele>46.9</ele>
        <time>2021-07-27T18:23:35Z</time>
      </trkpt>
      <trkpt lat="48.61109" lon="-2.28844">
        <ele>47</ele>
        <time>2021-07-27T18:23:36Z</time>
      </trkpt>
      <trkpt lat="48.61109" lon="-2.2884">
        <ele>47.1</ele>
        <time>2021-07-27T18:23:38Z</time>
      </trkpt>
      <trkpt lat="48.61109" lon="-2.28838">
        <ele>47.1</ele>
        <time>2021-07-27T18:23:39Z</time>
      </trkpt>
      <trkpt lat="48.61109" lon="-2.28837">
        <ele>47.2</ele>
        <time>2021-07-27T18:23:40Z</time>
      </trkpt>
      <trkpt lat="48.61109" lon="-2.28835">
        <ele>47.2</ele>
        <time>2021-07-27T18:23:42Z</time>
      </trkpt>
      <trkpt lat="48.61108" lon="-2.28832">
        <ele>47.3</ele>
        <time>2021-07-27T18:23:43Z</time>
      </trkpt>
      <trkpt lat="48.61108" lon="-2.28832">
        <ele>47.3</ele>
        <time>2021-07-27T18:23:44Z</time>
      </trkpt>
      <trkpt lat="48.61108" lon="-2.2883">
        <ele>47.3</ele>
        <time>2021-07-27T18:23:45Z</time>
      </trkpt>
      <trkpt lat="48.61108" lon="-2.28825">
        <ele>47.4</ele>
        <time>2021-07-27T18:23:47Z</time>
      </trkpt>
      <trkpt lat="48.61107" lon="-2.28823">
        <ele>47.4</ele>
        <time>2021-07-27T18:23:48Z</time>
      </trkpt>
      <trkpt lat="48.61106" lon="-2.28821">
        <ele>47.6</ele>
        <time>2021-07-27T18:23:50Z</time>
      </trkpt>
      <trkpt lat="48.61106" lon="-2.28819">
        <ele>47.6</ele>
        <time>2021-07-27T18:23:52Z</time>
      </trkpt>
      <trkpt lat="48.61106" lon="-2.28818">
        <ele>47.6</ele>
        <time>2021-07-27T18:23:54Z</time>
      </trkpt>
      <trkpt lat="48.61106" lon="-2.28818">
        <ele>47.6</ele>
        <time>2021-07-27T18:23:55Z</time>
      </trkpt>
      <trkpt lat="48.61105" lon="-2.28817">
        <ele>47.7</ele>
        <time>2021-07-27T18:23:58Z</time>
      </trkpt>
      <trkpt lat="48.61103" lon="-2.28814">
        <ele>47.8</ele>
        <time>2021-07-27T18:24:59Z</time>
      </trkpt>
      <trkpt lat="48.61101" lon="-2.28812">
        <ele>47.8</ele>
        <time>2021-07-27T18:25:01Z</time>
      </trkpt>
      <trkpt lat="48.61101" lon="-2.28811">
        <ele>48</ele>
        <time>2021-07-27T18:25:03Z</time>
      </trkpt>
      <trkpt lat="48.611" lon="-2.28812">
        <ele>48</ele>
        <time>2021-07-27T18:25:04Z</time>
      </trkpt>
      <trkpt lat="48.611" lon="-2.28812">
        <ele>47.9</ele>
        <time>2021-07-27T18:25:05Z</time>
      </trkpt>
      <trkpt lat="48.611" lon="-2.28811">
        <ele>48</ele>
        <time>2021-07-27T18:25:06Z</time>
      </trkpt>
      <trkpt lat="48.611" lon="-2.28811">
        <ele>48</ele>
        <time>2021-07-27T18:25:07Z</time>
      </trkpt>
      <trkpt lat="48.611" lon="-2.28811">
        <ele>48</ele>
        <time>2021-07-27T18:25:09Z</time>
      </trkpt>
      <trkpt lat="48.611" lon="-2.28811">
        <ele>48</ele>
        <time>2021-07-27T18:25:11Z</time>
      </trkpt>
      <trkpt lat="48.611" lon="-2.28811">
        <ele>48</ele>
        <time>2021-07-27T18:25:12Z</time>
      </trkpt>
      <trkpt lat="48.611" lon="-2.28811">
        <ele>48</ele>
        <time>2021-07-27T18:25:13Z</time>
      </trkpt>
      <trkpt lat="48.611" lon="-2.28811">
        <ele>48</ele>
        <time>2021-07-27T18:25:14Z</time>
      </trkpt>
      <trkpt lat="48.611" lon="-2.28811">
        <ele>48</ele>
        <time>2021-07-27T18:25:15Z</time>
      </trkpt>
      <trkpt lat="48.61101" lon="-2.28806">
        <ele>48.1</ele>
        <time>2021-07-27T18:25:21Z</time>
      </trkpt>
      <trkpt lat="48.61101" lon="-2.28804">
        <ele>48.1</ele>
        <time>2021-07-27T18:25:22Z</time>
      </trkpt>
      <trkpt lat="48.61102" lon="-2.28797">
        <ele>48.2</ele>
        <time>2021-07-27T18:25:24Z</time>
      </trkpt>
      <trkpt lat="48.61101" lon="-2.28792">
        <ele>48.4</ele>
        <time>2021-07-27T18:25:25Z</time>
      </trkpt>
      <trkpt lat="48.611" lon="-2.28791">
        <ele>48.4</ele>
        <time>2021-07-27T18:25:26Z</time>
      </trkpt>
      <trkpt lat="48.61099" lon="-2.28786">
        <ele>48.5</ele>
        <time>2021-07-27T18:25:28Z</time>
      </trkpt>
      <trkpt lat="48.61098" lon="-2.28784">
        <ele>48.5</ele>
        <time>2021-07-27T18:25:29Z</time>
      </trkpt>
      <trkpt lat="48.61097" lon="-2.28781">
        <ele>48.6</ele>
        <time>2021-07-27T18:25:31Z</time>
      </trkpt>
      <trkpt lat="48.61096" lon="-2.28777">
        <ele>48.7</ele>
        <time>2021-07-27T18:25:32Z</time>
      </trkpt>
      <trkpt lat="48.61095" lon="-2.28775">
        <ele>48.7</ele>
        <time>2021-07-27T18:25:33Z</time>
      </trkpt>
      <trkpt lat="48.61093" lon="-2.28769">
        <ele>48.9</ele>
        <time>2021-07-27T18:25:35Z</time>
      </trkpt>
      <trkpt lat="48.61092" lon="-2.28767">
        <ele>49</ele>
        <time>2021-07-27T18:25:37Z</time>
      </trkpt>
      <trkpt lat="48.61092" lon="-2.28765">
        <ele>49.1</ele>
        <time>2021-07-27T18:25:38Z</time>
      </trkpt>
      <trkpt lat="48.61091" lon="-2.28761">
        <ele>49.1</ele>
        <time>2021-07-27T18:25:39Z</time>
      </trkpt>
      <trkpt lat="48.6109" lon="-2.28757">
        <ele>49.2</ele>
        <time>2021-07-27T18:25:41Z</time>
      </trkpt>
      <trkpt lat="48.61089" lon="-2.28752">
        <ele>49.3</ele>
        <time>2021-07-27T18:25:42Z</time>
      </trkpt>
      <trkpt lat="48.61089" lon="-2.28751">
        <ele>49.4</ele>
        <time>2021-07-27T18:25:43Z</time>
      </trkpt>
      <trkpt lat="48.61089" lon="-2.28748">
        <ele>49.4</ele>
        <time>2021-07-27T18:25:44Z</time>
      </trkpt>
      <trkpt lat="48.61088" lon="-2.28743">
        <ele>49.6</ele>
        <time>2021-07-27T18:25:46Z</time>
      </trkpt>
      <trkpt lat="48.61087" lon="-2.28738">
        <ele>49.7</ele>
        <time>2021-07-27T18:25:47Z</time>
      </trkpt>
      <trkpt lat="48.61087" lon="-2.28736">
        <ele>49.7</ele>
        <time>2021-07-27T18:25:48Z</time>
      </trkpt>
      <trkpt lat="48.61087" lon="-2.28733">
        <ele>49.8</ele>
        <time>2021-07-27T18:25:49Z</time>
      </trkpt>
      <trkpt lat="48.61086" lon="-2.28729">
        <ele>49.9</ele>
        <time>2021-07-27T18:25:51Z</time>
      </trkpt>
      <trkpt lat="48.61086" lon="-2.28725">
        <ele>49.9</ele>
        <time>2021-07-27T18:25:52Z</time>
      </trkpt>
      <trkpt lat="48.61085" lon="-2.28719">
        <ele>50</ele>
        <time>2021-07-27T18:25:53Z</time>
      </trkpt>
      <trkpt lat="48.61084" lon="-2.28716">
        <ele>50.1</ele>
        <time>2021-07-27T18:25:55Z</time>
      </trkpt>
      <trkpt lat="48.61082" lon="-2.28713">
        <ele>50.1</ele>
        <time>2021-07-27T18:25:56Z</time>
      </trkpt>
      <trkpt lat="48.61079" lon="-2.28707">
        <ele>50.2</ele>
        <time>2021-07-27T18:25:58Z</time>
      </trkpt>
      <trkpt lat="48.61079" lon="-2.28701">
        <ele>50.2</ele>
        <time>2021-07-27T18:25:59Z</time>
      </trkpt>
      <trkpt lat="48.6108" lon="-2.28699">
        <ele>50.3</ele>
        <time>2021-07-27T18:26:00Z</time>
      </trkpt>
      <trkpt lat="48.6108" lon="-2.28692">
        <ele>50.3</ele>
        <time>2021-07-27T18:26:01Z</time>
      </trkpt>
      <trkpt lat="48.6108" lon="-2.28684">
        <ele>50.4</ele>
        <time>2021-07-27T18:26:03Z</time>
      </trkpt>
      <trkpt lat="48.6108" lon="-2.28677">
        <ele>50.5</ele>
        <time>2021-07-27T18:26:04Z</time>
      </trkpt>
      <trkpt lat="48.61079" lon="-2.2867">
        <ele>50.7</ele>
        <time>2021-07-27T18:26:05Z</time>
      </trkpt>
      <trkpt lat="48.61079" lon="-2.2866">
        <ele>50.8</ele>
        <time>2021-07-27T18:26:07Z</time>
      </trkpt>
      <trkpt lat="48.61079" lon="-2.28652">
        <ele>50.9</ele>
        <time>2021-07-27T18:26:08Z</time>
      </trkpt>
      <trkpt lat="48.6108" lon="-2.28641">
        <ele>51</ele>
        <time>2021-07-27T18:26:10Z</time>
      </trkpt>
      <trkpt lat="48.6108" lon="-2.28632">
        <ele>51.1</ele>
        <time>2021-07-27T18:26:12Z</time>
      </trkpt>
      <trkpt lat="48.6108" lon="-2.28625">
        <ele>51.3</ele>
        <time>2021-07-27T18:26:14Z</time>
      </trkpt>
      <trkpt lat="48.61081" lon="-2.2862">
        <ele>51.3</ele>
        <time>2021-07-27T18:26:15Z</time>
      </trkpt>
      <trkpt lat="48.61086" lon="-2.28615">
        <ele>51.3</ele>
        <time>2021-07-27T18:26:17Z</time>
      </trkpt>
      <trkpt lat="48.6109" lon="-2.28615">
        <ele>51.4</ele>
        <time>2021-07-27T18:26:18Z</time>
      </trkpt>
      <trkpt lat="48.61093" lon="-2.28615">
        <ele>51.4</ele>
        <time>2021-07-27T18:26:19Z</time>
      </trkpt>
      <trkpt lat="48.61098" lon="-2.28613">
        <ele>51.5</ele>
        <time>2021-07-27T18:26:20Z</time>
      </trkpt>
      <trkpt lat="48.61102" lon="-2.28611">
        <ele>51.5</ele>
        <time>2021-07-27T18:26:22Z</time>
      </trkpt>
      <trkpt lat="48.61105" lon="-2.2861">
        <ele>51.5</ele>
        <time>2021-07-27T18:26:23Z</time>
      </trkpt>
      <trkpt lat="48.61108" lon="-2.2861">
        <ele>51.6</ele>
        <time>2021-07-27T18:26:24Z</time>
      </trkpt>
      <trkpt lat="48.61112" lon="-2.2861">
        <ele>51.6</ele>
        <time>2021-07-27T18:26:26Z</time>
      </trkpt>
      <trkpt lat="48.61115" lon="-2.28609">
        <ele>51.6</ele>
        <time>2021-07-27T18:26:27Z</time>
      </trkpt>
      <trkpt lat="48.61118" lon="-2.28609">
        <ele>51.7</ele>
        <time>2021-07-27T18:26:29Z</time>
      </trkpt>
      <trkpt lat="48.61121" lon="-2.28609">
        <ele>51.7</ele>
        <time>2021-07-27T18:26:30Z</time>
      </trkpt>
      <trkpt lat="48.61123" lon="-2.28608">
        <ele>51.7</ele>
        <time>2021-07-27T18:26:31Z</time>
      </trkpt>
      <trkpt lat="48.61128" lon="-2.28605">
        <ele>51.6</ele>
        <time>2021-07-27T18:26:33Z</time>
      </trkpt>
      <trkpt lat="48.61131" lon="-2.28605">
        <ele>51.6</ele>
        <time>2021-07-27T18:26:35Z</time>
      </trkpt>
      <trkpt lat="48.61131" lon="-2.28606">
        <ele>51.6</ele>
        <time>2021-07-27T18:26:36Z</time>
      </trkpt>
      <trkpt lat="48.61129" lon="-2.28607">
        <ele>51.6</ele>
        <time>2021-07-27T18:26:38Z</time>
      </trkpt>
      <trkpt lat="48.61128" lon="-2.28607">
        <ele>51.6</ele>
        <time>2021-07-27T18:26:39Z</time>
      </trkpt>
      <trkpt lat="48.61128" lon="-2.28607">
        <ele>51.6</ele>
        <time>2021-07-27T18:26:40Z</time>
      </trkpt>
      <trkpt lat="48.61128" lon="-2.28607">
        <ele>51.6</ele>
        <time>2021-07-27T18:26:42Z</time>
      </trkpt>
      <trkpt lat="48.61128" lon="-2.28608">
        <ele>51.6</ele>
        <time>2021-07-27T18:26:43Z</time>
      </trkpt>
      <trkpt lat="48.61128" lon="-2.28608">
        <ele>51.6</ele>
        <time>2021-07-27T18:26:44Z</time>
      </trkpt>
      <trkpt lat="48.61128" lon="-2.28608">
        <ele>51.6</ele>
        <time>2021-07-27T18:26:46Z</time>
      </trkpt>
      <trkpt lat="48.61125" lon="-2.28605">
        <ele>51.6</ele>
        <time>2021-07-27T18:26:55Z</time>
      </trkpt>
      <trkpt lat="48.61121" lon="-2.28605">
        <ele>51.6</ele>
        <time>2021-07-27T18:26:57Z</time>
      </trkpt>
      <trkpt lat="48.61116" lon="-2.28607">
        <ele>51.5</ele>
        <time>2021-07-27T18:26:58Z</time>
      </trkpt>
      <trkpt lat="48.61112" lon="-2.28609">
        <ele>51.5</ele>
        <time>2021-07-27T18:26:59Z</time>
      </trkpt>
      <trkpt lat="48.61104" lon="-2.28612">
        <ele>51.4</ele>
        <time>2021-07-27T18:27:01Z</time>
      </trkpt>
      <trkpt lat="48.611" lon="-2.28612">
        <ele>51.4</ele>
        <time>2021-07-27T18:27:02Z</time>
      </trkpt>
      <trkpt lat="48.61096" lon="-2.28613">
        <ele>51.4</ele>
        <time>2021-07-27T18:27:03Z</time>
      </trkpt>
      <trkpt lat="48.61088" lon="-2.28617">
        <ele>51.3</ele>
        <time>2021-07-27T18:27:05Z</time>
      </trkpt>
      <trkpt lat="48.61084" lon="-2.28618">
        <ele>51.3</ele>
        <time>2021-07-27T18:27:06Z</time>
      </trkpt>
      <trkpt lat="48.61078" lon="-2.28608">
        <ele>51.3</ele>
        <time>2021-07-27T18:27:08Z</time>
      </trkpt>
      <trkpt lat="48.61076" lon="-2.286">
        <ele>51.2</ele>
        <time>2021-07-27T18:27:09Z</time>
      </trkpt>
      <trkpt lat="48.61075" lon="-2.28584">
        <ele>51.2</ele>
        <time>2021-07-27T18:27:11Z</time>
      </trkpt>
      <trkpt lat="48.61075" lon="-2.28567">
        <ele>51.2</ele>
        <time>2021-07-27T18:27:13Z</time>
      </trkpt>
      <trkpt lat="48.61074" lon="-2.28559">
        <ele>51.2</ele>
        <time>2021-07-27T18:27:14Z</time>
      </trkpt>
      <trkpt lat="48.61074" lon="-2.28542">
        <ele>51.2</ele>
        <time>2021-07-27T18:27:16Z</time>
      </trkpt>
      <trkpt lat="48.61074" lon="-2.28534">
        <ele>51.2</ele>
        <time>2021-07-27T18:27:17Z</time>
      </trkpt>
      <trkpt lat="48.61074" lon="-2.28525">
        <ele>51.3</ele>
        <time>2021-07-27T18:27:18Z</time>
      </trkpt>
      <trkpt lat="48.61074" lon="-2.28517">
        <ele>51.3</ele>
        <time>2021-07-27T18:27:19Z</time>
      </trkpt>
      <trkpt lat="48.61074" lon="-2.28509">
        <ele>51.4</ele>
        <time>2021-07-27T18:27:20Z</time>
      </trkpt>
      <trkpt lat="48.61074" lon="-2.28492">
        <ele>51.5</ele>
        <time>2021-07-27T18:27:22Z</time>
      </trkpt>
      <trkpt lat="48.61074" lon="-2.28484">
        <ele>51.6</ele>
        <time>2021-07-27T18:27:23Z</time>
      </trkpt>
      <trkpt lat="48.61074" lon="-2.28475">
        <ele>51.6</ele>
        <time>2021-07-27T18:27:24Z</time>
      </trkpt>
      <trkpt lat="48.61075" lon="-2.28457">
        <ele>51.7</ele>
        <time>2021-07-27T18:27:26Z</time>
      </trkpt>
      <trkpt lat="48.61075" lon="-2.28448">
        <ele>51.7</ele>
        <time>2021-07-27T18:27:27Z</time>
      </trkpt>
      <trkpt lat="48.61075" lon="-2.28429">
        <ele>51.6</ele>
        <time>2021-07-27T18:27:29Z</time>
      </trkpt>
      <trkpt lat="48.61076" lon="-2.28409">
        <ele>51.5</ele>
        <time>2021-07-27T18:27:31Z</time>
      </trkpt>
      <trkpt lat="48.61076" lon="-2.28399">
        <ele>51.5</ele>
        <time>2021-07-27T18:27:32Z</time>
      </trkpt>
      <trkpt lat="48.61076" lon="-2.28389">
        <ele>51.4</ele>
        <time>2021-07-27T18:27:33Z</time>
      </trkpt>
      <trkpt lat="48.61076" lon="-2.2838">
        <ele>51.3</ele>
        <time>2021-07-27T18:27:34Z</time>
      </trkpt>
      <trkpt lat="48.61077" lon="-2.28363">
        <ele>51.1</ele>
        <time>2021-07-27T18:27:36Z</time>
      </trkpt>
      <trkpt lat="48.61078" lon="-2.28347">
        <ele>51</ele>
        <time>2021-07-27T18:27:38Z</time>
      </trkpt>
      <trkpt lat="48.61078" lon="-2.28338">
        <ele>51</ele>
        <time>2021-07-27T18:27:39Z</time>
      </trkpt>
      <trkpt lat="48.6108" lon="-2.2832">
        <ele>51</ele>
        <time>2021-07-27T18:27:41Z</time>
      </trkpt>
      <trkpt lat="48.6108" lon="-2.283">
        <ele>51</ele>
        <time>2021-07-27T18:27:43Z</time>
      </trkpt>
      <trkpt lat="48.61081" lon="-2.28281">
        <ele>51.2</ele>
        <time>2021-07-27T18:27:45Z</time>
      </trkpt>
      <trkpt lat="48.61082" lon="-2.28271">
        <ele>51.2</ele>
        <time>2021-07-27T18:27:46Z</time>
      </trkpt>
      <trkpt lat="48.61083" lon="-2.28253">
        <ele>51.3</ele>
        <time>2021-07-27T18:27:48Z</time>
      </trkpt>
      <trkpt lat="48.61084" lon="-2.28243">
        <ele>51.4</ele>
        <time>2021-07-27T18:27:49Z</time>
      </trkpt>
      <trkpt lat="48.61084" lon="-2.28225">
        <ele>51.4</ele>
        <time>2021-07-27T18:27:51Z</time>
      </trkpt>
      <trkpt lat="48.61084" lon="-2.28216">
        <ele>51.4</ele>
        <time>2021-07-27T18:27:52Z</time>
      </trkpt>
      <trkpt lat="48.61085" lon="-2.28207">
        <ele>51.5</ele>
        <time>2021-07-27T18:27:53Z</time>
      </trkpt>
      <trkpt lat="48.61085" lon="-2.28189">
        <ele>51.5</ele>
        <time>2021-07-27T18:27:55Z</time>
      </trkpt>
      <trkpt lat="48.61086" lon="-2.28171">
        <ele>51.6</ele>
        <time>2021-07-27T18:27:57Z</time>
      </trkpt>
      <trkpt lat="48.61087" lon="-2.28154">
        <ele>51.7</ele>
        <time>2021-07-27T18:27:59Z</time>
      </trkpt>
      <trkpt lat="48.61089" lon="-2.28138">
        <ele>51.8</ele>
        <time>2021-07-27T18:28:01Z</time>
      </trkpt>
      <trkpt lat="48.61091" lon="-2.28122">
        <ele>51.9</ele>
        <time>2021-07-27T18:28:03Z</time>
      </trkpt>
      <trkpt lat="48.61093" lon="-2.28114">
        <ele>51.9</ele>
        <time>2021-07-27T18:28:04Z</time>
      </trkpt>
      <trkpt lat="48.61094" lon="-2.28106">
        <ele>52</ele>
        <time>2021-07-27T18:28:05Z</time>
      </trkpt>
      <trkpt lat="48.61095" lon="-2.28097">
        <ele>52.1</ele>
        <time>2021-07-27T18:28:06Z</time>
      </trkpt>
      <trkpt lat="48.61095" lon="-2.28078">
        <ele>52.2</ele>
        <time>2021-07-27T18:28:08Z</time>
      </trkpt>
      <trkpt lat="48.61094" lon="-2.2807">
        <ele>52.2</ele>
        <time>2021-07-27T18:28:09Z</time>
      </trkpt>
      <trkpt lat="48.61092" lon="-2.28062">
        <ele>52.3</ele>
        <time>2021-07-27T18:28:10Z</time>
      </trkpt>
      <trkpt lat="48.6109" lon="-2.28055">
        <ele>52.3</ele>
        <time>2021-07-27T18:28:11Z</time>
      </trkpt>
      <trkpt lat="48.61085" lon="-2.2804">
        <ele>52.4</ele>
        <time>2021-07-27T18:28:13Z</time>
      </trkpt>
      <trkpt lat="48.6108" lon="-2.28025">
        <ele>52.5</ele>
        <time>2021-07-27T18:28:15Z</time>
      </trkpt>
      <trkpt lat="48.61075" lon="-2.28009">
        <ele>52.5</ele>
        <time>2021-07-27T18:28:17Z</time>
      </trkpt>
      <trkpt lat="48.6107" lon="-2.27994">
        <ele>52.6</ele>
        <time>2021-07-27T18:28:19Z</time>
      </trkpt>
      <trkpt lat="48.61067" lon="-2.27985">
        <ele>52.6</ele>
        <time>2021-07-27T18:28:20Z</time>
      </trkpt>
      <trkpt lat="48.61065" lon="-2.27977">
        <ele>52.6</ele>
        <time>2021-07-27T18:28:21Z</time>
      </trkpt>
      <trkpt lat="48.61063" lon="-2.27969">
        <ele>52.7</ele>
        <time>2021-07-27T18:28:22Z</time>
      </trkpt>
      <trkpt lat="48.61058" lon="-2.27952">
        <ele>52.7</ele>
        <time>2021-07-27T18:28:24Z</time>
      </trkpt>
      <trkpt lat="48.61053" lon="-2.27935">
        <ele>52.7</ele>
        <time>2021-07-27T18:28:26Z</time>
      </trkpt>
      <trkpt lat="48.61049" lon="-2.27917">
        <ele>52.7</ele>
        <time>2021-07-27T18:28:28Z</time>
      </trkpt>
      <trkpt lat="48.61044" lon="-2.279">
        <ele>52.7</ele>
        <time>2021-07-27T18:28:30Z</time>
      </trkpt>
      <trkpt lat="48.61038" lon="-2.27882">
        <ele>52.7</ele>
        <time>2021-07-27T18:28:32Z</time>
      </trkpt>
      <trkpt lat="48.61034" lon="-2.27873">
        <ele>52.6</ele>
        <time>2021-07-27T18:28:33Z</time>
      </trkpt>
      <trkpt lat="48.61026" lon="-2.27856">
        <ele>52.6</ele>
        <time>2021-07-27T18:28:35Z</time>
      </trkpt>
      <trkpt lat="48.61022" lon="-2.27848">
        <ele>52.5</ele>
        <time>2021-07-27T18:28:36Z</time>
      </trkpt>
      <trkpt lat="48.61018" lon="-2.27839">
        <ele>52.5</ele>
        <time>2021-07-27T18:28:37Z</time>
      </trkpt>
      <trkpt lat="48.61011" lon="-2.27821">
        <ele>52.4</ele>
        <time>2021-07-27T18:28:39Z</time>
      </trkpt>
      <trkpt lat="48.61009" lon="-2.27812">
        <ele>52.4</ele>
        <time>2021-07-27T18:28:40Z</time>
      </trkpt>
      <trkpt lat="48.61006" lon="-2.27803">
        <ele>52.3</ele>
        <time>2021-07-27T18:28:41Z</time>
      </trkpt>
      <trkpt lat="48.61003" lon="-2.27783">
        <ele>52.2</ele>
        <time>2021-07-27T18:28:43Z</time>
      </trkpt>
      <trkpt lat="48.61001" lon="-2.27773">
        <ele>52.2</ele>
        <time>2021-07-27T18:28:44Z</time>
      </trkpt>
      <trkpt lat="48.61001" lon="-2.27763">
        <ele>52.1</ele>
        <time>2021-07-27T18:28:45Z</time>
      </trkpt>
      <trkpt lat="48.61" lon="-2.27744">
        <ele>52</ele>
        <time>2021-07-27T18:28:47Z</time>
      </trkpt>
      <trkpt lat="48.60999" lon="-2.27734">
        <ele>52</ele>
        <time>2021-07-27T18:28:48Z</time>
      </trkpt>
      <trkpt lat="48.60998" lon="-2.27724">
        <ele>52</ele>
        <time>2021-07-27T18:28:49Z</time>
      </trkpt>
      <trkpt lat="48.60998" lon="-2.27714">
        <ele>52</ele>
        <time>2021-07-27T18:28:50Z</time>
      </trkpt>
      <trkpt lat="48.60996" lon="-2.27695">
        <ele>51.9</ele>
        <time>2021-07-27T18:28:52Z</time>
      </trkpt>
      <trkpt lat="48.60995" lon="-2.27676">
        <ele>51.9</ele>
        <time>2021-07-27T18:28:54Z</time>
      </trkpt>
      <trkpt lat="48.60994" lon="-2.27668">
        <ele>52</ele>
        <time>2021-07-27T18:28:55Z</time>
      </trkpt>
      <trkpt lat="48.60994" lon="-2.27658">
        <ele>52</ele>
        <time>2021-07-27T18:28:56Z</time>
      </trkpt>
      <trkpt lat="48.60992" lon="-2.27641">
        <ele>52.2</ele>
        <time>2021-07-27T18:28:58Z</time>
      </trkpt>
      <trkpt lat="48.60988" lon="-2.27626">
        <ele>52.3</ele>
        <time>2021-07-27T18:29:00Z</time>
      </trkpt>
      <trkpt lat="48.60984" lon="-2.27619">
        <ele>52.4</ele>
        <time>2021-07-27T18:29:01Z</time>
      </trkpt>
      <trkpt lat="48.60976" lon="-2.27609">
        <ele>52.4</ele>
        <time>2021-07-27T18:29:03Z</time>
      </trkpt>
      <trkpt lat="48.60971" lon="-2.27605">
        <ele>52.5</ele>
        <time>2021-07-27T18:29:04Z</time>
      </trkpt>
      <trkpt lat="48.60967" lon="-2.276">
        <ele>52.5</ele>
        <time>2021-07-27T18:29:05Z</time>
      </trkpt>
      <trkpt lat="48.60964" lon="-2.27595">
        <ele>52.6</ele>
        <time>2021-07-27T18:29:06Z</time>
      </trkpt>
      <trkpt lat="48.6096" lon="-2.27588">
        <ele>52.7</ele>
        <time>2021-07-27T18:29:07Z</time>
      </trkpt>
      <trkpt lat="48.60955" lon="-2.27573">
        <ele>52.8</ele>
        <time>2021-07-27T18:29:09Z</time>
      </trkpt>
      <trkpt lat="48.60953" lon="-2.27566">
        <ele>52.9</ele>
        <time>2021-07-27T18:29:10Z</time>
      </trkpt>
      <trkpt lat="48.60952" lon="-2.27558">
        <ele>53</ele>
        <time>2021-07-27T18:29:11Z</time>
      </trkpt>
      <trkpt lat="48.60953" lon="-2.27551">
        <ele>53</ele>
        <time>2021-07-27T18:29:12Z</time>
      </trkpt>
      <trkpt lat="48.6096" lon="-2.27541">
        <ele>52.9</ele>
        <time>2021-07-27T18:29:14Z</time>
      </trkpt>
      <trkpt lat="48.60964" lon="-2.27535">
        <ele>52.9</ele>
        <time>2021-07-27T18:29:15Z</time>
      </trkpt>
      <trkpt lat="48.60968" lon="-2.27529">
        <ele>52.9</ele>
        <time>2021-07-27T18:29:16Z</time>
      </trkpt>
      <trkpt lat="48.60971" lon="-2.27523">
        <ele>52.8</ele>
        <time>2021-07-27T18:29:17Z</time>
      </trkpt>
      <trkpt lat="48.60974" lon="-2.27517">
        <ele>52.8</ele>
        <time>2021-07-27T18:29:18Z</time>
      </trkpt>
      <trkpt lat="48.6098" lon="-2.27506">
        <ele>52.7</ele>
        <time>2021-07-27T18:29:20Z</time>
      </trkpt>
      <trkpt lat="48.60986" lon="-2.27495">
        <ele>52.6</ele>
        <time>2021-07-27T18:29:22Z</time>
      </trkpt>
      <trkpt lat="48.60992" lon="-2.27483">
        <ele>52.6</ele>
        <time>2021-07-27T18:29:24Z</time>
      </trkpt>
      <trkpt lat="48.60995" lon="-2.27477">
        <ele>52.5</ele>
        <time>2021-07-27T18:29:25Z</time>
      </trkpt>
      <trkpt lat="48.61001" lon="-2.27467">
        <ele>52.5</ele>
        <time>2021-07-27T18:29:27Z</time>
      </trkpt>
      <trkpt lat="48.61004" lon="-2.27463">
        <ele>52.4</ele>
        <time>2021-07-27T18:29:28Z</time>
      </trkpt>
      <trkpt lat="48.61012" lon="-2.27453">
        <ele>52.3</ele>
        <time>2021-07-27T18:29:30Z</time>
      </trkpt>
      <trkpt lat="48.61016" lon="-2.27448">
        <ele>52.3</ele>
        <time>2021-07-27T18:29:31Z</time>
      </trkpt>
      <trkpt lat="48.61024" lon="-2.27438">
        <ele>52.2</ele>
        <time>2021-07-27T18:29:33Z</time>
      </trkpt>
      <trkpt lat="48.61028" lon="-2.27433">
        <ele>52.2</ele>
        <time>2021-07-27T18:29:34Z</time>
      </trkpt>
      <trkpt lat="48.61033" lon="-2.27428">
        <ele>52.1</ele>
        <time>2021-07-27T18:29:35Z</time>
      </trkpt>
      <trkpt lat="48.6104" lon="-2.27419">
        <ele>52</ele>
        <time>2021-07-27T18:29:37Z</time>
      </trkpt>
      <trkpt lat="48.61045" lon="-2.2741">
        <ele>52</ele>
        <time>2021-07-27T18:29:39Z</time>
      </trkpt>
      <trkpt lat="48.61051" lon="-2.27403">
        <ele>51.9</ele>
        <time>2021-07-27T18:29:41Z</time>
      </trkpt>
      <trkpt lat="48.61059" lon="-2.27394">
        <ele>51.8</ele>
        <time>2021-07-27T18:29:43Z</time>
      </trkpt>
      <trkpt lat="48.61066" lon="-2.27379">
        <ele>51.7</ele>
        <time>2021-07-27T18:29:45Z</time>
      </trkpt>
      <trkpt lat="48.61071" lon="-2.27371">
        <ele>51.7</ele>
        <time>2021-07-27T18:29:47Z</time>
      </trkpt>
      <trkpt lat="48.61075" lon="-2.27365">
        <ele>51.6</ele>
        <time>2021-07-27T18:29:48Z</time>
      </trkpt>
      <trkpt lat="48.61084" lon="-2.27355">
        <ele>51.5</ele>
        <time>2021-07-27T18:29:50Z</time>
      </trkpt>
      <trkpt lat="48.61092" lon="-2.27344">
        <ele>51.5</ele>
        <time>2021-07-27T18:29:52Z</time>
      </trkpt>
      <trkpt lat="48.611" lon="-2.27335">
        <ele>51.5</ele>
        <time>2021-07-27T18:29:54Z</time>
      </trkpt>
      <trkpt lat="48.61105" lon="-2.27327">
        <ele>51.5</ele>
        <time>2021-07-27T18:29:56Z</time>
      </trkpt>
      <trkpt lat="48.6111" lon="-2.27319">
        <ele>51.5</ele>
        <time>2021-07-27T18:29:58Z</time>
      </trkpt>
      <trkpt lat="48.61112" lon="-2.27313">
        <ele>51.5</ele>
        <time>2021-07-27T18:29:59Z</time>
      </trkpt>
      <trkpt lat="48.61114" lon="-2.27308">
        <ele>51.5</ele>
        <time>2021-07-27T18:30:00Z</time>
      </trkpt>
      <trkpt lat="48.61119" lon="-2.27301">
        <ele>51.5</ele>
        <time>2021-07-27T18:30:02Z</time>
      </trkpt>
      <trkpt lat="48.61129" lon="-2.273">
        <ele>51.5</ele>
        <time>2021-07-27T18:30:04Z</time>
      </trkpt>
      <trkpt lat="48.61138" lon="-2.27306">
        <ele>51.4</ele>
        <time>2021-07-27T18:30:06Z</time>
      </trkpt>
      <trkpt lat="48.6115" lon="-2.27311">
        <ele>51.3</ele>
        <time>2021-07-27T18:30:08Z</time>
      </trkpt>
      <trkpt lat="48.61161" lon="-2.27317">
        <ele>51.3</ele>
        <time>2021-07-27T18:30:10Z</time>
      </trkpt>
      <trkpt lat="48.61172" lon="-2.27324">
        <ele>51.2</ele>
        <time>2021-07-27T18:30:12Z</time>
      </trkpt>
      <trkpt lat="48.61178" lon="-2.27328">
        <ele>51.1</ele>
        <time>2021-07-27T18:30:13Z</time>
      </trkpt>
      <trkpt lat="48.61183" lon="-2.27331">
        <ele>51.1</ele>
        <time>2021-07-27T18:30:14Z</time>
      </trkpt>
      <trkpt lat="48.61187" lon="-2.27335">
        <ele>51</ele>
        <time>2021-07-27T18:30:15Z</time>
      </trkpt>
      <trkpt lat="48.61194" lon="-2.27345">
        <ele>51</ele>
        <time>2021-07-27T18:30:17Z</time>
      </trkpt>
      <trkpt lat="48.61202" lon="-2.27354">
        <ele>51</ele>
        <time>2021-07-27T18:30:19Z</time>
      </trkpt>
      <trkpt lat="48.61209" lon="-2.27362">
        <ele>51</ele>
        <time>2021-07-27T18:30:21Z</time>
      </trkpt>
      <trkpt lat="48.61212" lon="-2.27368">
        <ele>50.9</ele>
        <time>2021-07-27T18:30:22Z</time>
      </trkpt>
      <trkpt lat="48.61216" lon="-2.27373">
        <ele>50.9</ele>
        <time>2021-07-27T18:30:24Z</time>
      </trkpt>
      <trkpt lat="48.61222" lon="-2.2738">
        <ele>50.9</ele>
        <time>2021-07-27T18:30:26Z</time>
      </trkpt>
      <trkpt lat="48.61224" lon="-2.27396">
        <ele>50.9</ele>
        <time>2021-07-27T18:30:28Z</time>
      </trkpt>
      <trkpt lat="48.61229" lon="-2.27398">
        <ele>50.9</ele>
        <time>2021-07-27T18:30:29Z</time>
      </trkpt>
      <trkpt lat="48.61237" lon="-2.27402">
        <ele>50.9</ele>
        <time>2021-07-27T18:30:30Z</time>
      </trkpt>
      <trkpt lat="48.61243" lon="-2.27405">
        <ele>50.9</ele>
        <time>2021-07-27T18:30:32Z</time>
      </trkpt>
      <trkpt lat="48.61248" lon="-2.27408">
        <ele>51</ele>
        <time>2021-07-27T18:30:33Z</time>
      </trkpt>
      <trkpt lat="48.61252" lon="-2.2741">
        <ele>51</ele>
        <time>2021-07-27T18:30:34Z</time>
      </trkpt>
      <trkpt lat="48.61257" lon="-2.27413">
        <ele>51</ele>
        <time>2021-07-27T18:30:36Z</time>
      </trkpt>
      <trkpt lat="48.61263" lon="-2.27416">
        <ele>51.1</ele>
        <time>2021-07-27T18:30:37Z</time>
      </trkpt>
      <trkpt lat="48.61269" lon="-2.27419">
        <ele>51</ele>
        <time>2021-07-27T18:30:38Z</time>
      </trkpt>
      <trkpt lat="48.61275" lon="-2.27422">
        <ele>51</ele>
        <time>2021-07-27T18:30:39Z</time>
      </trkpt>
      <trkpt lat="48.61281" lon="-2.27426">
        <ele>51</ele>
        <time>2021-07-27T18:30:41Z</time>
      </trkpt>
      <trkpt lat="48.61289" lon="-2.27431">
        <ele>51</ele>
        <time>2021-07-27T18:30:43Z</time>
      </trkpt>
      <trkpt lat="48.61296" lon="-2.27436">
        <ele>51</ele>
        <time>2021-07-27T18:30:44Z</time>
      </trkpt>
      <trkpt lat="48.61303" lon="-2.2744">
        <ele>50.9</ele>
        <time>2021-07-27T18:30:45Z</time>
      </trkpt>
      <trkpt lat="48.61308" lon="-2.27443">
        <ele>50.8</ele>
        <time>2021-07-27T18:30:47Z</time>
      </trkpt>
      <trkpt lat="48.61315" lon="-2.27447">
        <ele>50.8</ele>
        <time>2021-07-27T18:30:48Z</time>
      </trkpt>
      <trkpt lat="48.61321" lon="-2.27451">
        <ele>50.7</ele>
        <time>2021-07-27T18:30:50Z</time>
      </trkpt>
      <trkpt lat="48.61325" lon="-2.27454">
        <ele>50.6</ele>
        <time>2021-07-27T18:30:51Z</time>
      </trkpt>
      <trkpt lat="48.6133" lon="-2.27458">
        <ele>50.4</ele>
        <time>2021-07-27T18:30:52Z</time>
      </trkpt>
      <trkpt lat="48.61335" lon="-2.27463">
        <ele>50.3</ele>
        <time>2021-07-27T18:30:54Z</time>
      </trkpt>
      <trkpt lat="48.6134" lon="-2.27467">
        <ele>50.2</ele>
        <time>2021-07-27T18:30:55Z</time>
      </trkpt>
      <trkpt lat="48.61344" lon="-2.27473">
        <ele>49.9</ele>
        <time>2021-07-27T18:30:56Z</time>
      </trkpt>
      <trkpt lat="48.61349" lon="-2.27479">
        <ele>49.8</ele>
        <time>2021-07-27T18:30:57Z</time>
      </trkpt>
      <trkpt lat="48.61354" lon="-2.27485">
        <ele>49.7</ele>
        <time>2021-07-27T18:30:58Z</time>
      </trkpt>
      <trkpt lat="48.61359" lon="-2.2749">
        <ele>49.6</ele>
        <time>2021-07-27T18:31:00Z</time>
      </trkpt>
      <trkpt lat="48.61365" lon="-2.27496">
        <ele>49.5</ele>
        <time>2021-07-27T18:31:02Z</time>
      </trkpt>
      <trkpt lat="48.61371" lon="-2.27502">
        <ele>49.4</ele>
        <time>2021-07-27T18:31:03Z</time>
      </trkpt>
      <trkpt lat="48.61376" lon="-2.27508">
        <ele>49.2</ele>
        <time>2021-07-27T18:31:04Z</time>
      </trkpt>
      <trkpt lat="48.61383" lon="-2.27511">
        <ele>49.2</ele>
        <time>2021-07-27T18:31:06Z</time>
      </trkpt>
      <trkpt lat="48.6139" lon="-2.27514">
        <ele>49.1</ele>
        <time>2021-07-27T18:31:07Z</time>
      </trkpt>
      <trkpt lat="48.61397" lon="-2.27515">
        <ele>49</ele>
        <time>2021-07-27T18:31:08Z</time>
      </trkpt>
      <trkpt lat="48.61403" lon="-2.27517">
        <ele>48.8</ele>
        <time>2021-07-27T18:31:10Z</time>
      </trkpt>
      <trkpt lat="48.61409" lon="-2.27518">
        <ele>48.8</ele>
        <time>2021-07-27T18:31:11Z</time>
      </trkpt>
      <trkpt lat="48.61415" lon="-2.2752">
        <ele>48.7</ele>
        <time>2021-07-27T18:31:12Z</time>
      </trkpt>
      <trkpt lat="48.61422" lon="-2.2752">
        <ele>48.6</ele>
        <time>2021-07-27T18:31:14Z</time>
      </trkpt>
      <trkpt lat="48.61427" lon="-2.27517">
        <ele>48.6</ele>
        <time>2021-07-27T18:31:15Z</time>
      </trkpt>
      <trkpt lat="48.61432" lon="-2.2751">
        <ele>48.8</ele>
        <time>2021-07-27T18:31:16Z</time>
      </trkpt>
      <trkpt lat="48.61435" lon="-2.27503">
        <ele>48.9</ele>
        <time>2021-07-27T18:31:17Z</time>
      </trkpt>
      <trkpt lat="48.61441" lon="-2.27489">
        <ele>49.2</ele>
        <time>2021-07-27T18:31:19Z</time>
      </trkpt>
      <trkpt lat="48.61444" lon="-2.27483">
        <ele>49.2</ele>
        <time>2021-07-27T18:31:20Z</time>
      </trkpt>
      <trkpt lat="48.61446" lon="-2.27473">
        <ele>49.3</ele>
        <time>2021-07-27T18:31:22Z</time>
      </trkpt>
      <trkpt lat="48.61447" lon="-2.27466">
        <ele>49.3</ele>
        <time>2021-07-27T18:31:23Z</time>
      </trkpt>
      <trkpt lat="48.61448" lon="-2.27463">
        <ele>49.3</ele>
        <time>2021-07-27T18:31:24Z</time>
      </trkpt>
      <trkpt lat="48.61452" lon="-2.27456">
        <ele>49.2</ele>
        <time>2021-07-27T18:31:25Z</time>
      </trkpt>
      <trkpt lat="48.61455" lon="-2.2745">
        <ele>49.2</ele>
        <time>2021-07-27T18:31:26Z</time>
      </trkpt>
      <trkpt lat="48.61458" lon="-2.27444">
        <ele>49.1</ele>
        <time>2021-07-27T18:31:28Z</time>
      </trkpt>
      <trkpt lat="48.61461" lon="-2.27436">
        <ele>49.1</ele>
        <time>2021-07-27T18:31:29Z</time>
      </trkpt>
      <trkpt lat="48.61463" lon="-2.2743">
        <ele>49</ele>
        <time>2021-07-27T18:31:30Z</time>
      </trkpt>
      <trkpt lat="48.61466" lon="-2.27425">
        <ele>48.9</ele>
        <time>2021-07-27T18:31:31Z</time>
      </trkpt>
      <trkpt lat="48.61469" lon="-2.27418">
        <ele>48.8</ele>
        <time>2021-07-27T18:31:33Z</time>
      </trkpt>
      <trkpt lat="48.61473" lon="-2.27414">
        <ele>48.8</ele>
        <time>2021-07-27T18:31:34Z</time>
      </trkpt>
      <trkpt lat="48.61477" lon="-2.27412">
        <ele>48.6</ele>
        <time>2021-07-27T18:31:35Z</time>
      </trkpt>
      <trkpt lat="48.61481" lon="-2.27411">
        <ele>48.5</ele>
        <time>2021-07-27T18:31:36Z</time>
      </trkpt>
      <trkpt lat="48.61487" lon="-2.27412">
        <ele>48.3</ele>
        <time>2021-07-27T18:31:38Z</time>
      </trkpt>
      <trkpt lat="48.61492" lon="-2.27412">
        <ele>48.2</ele>
        <time>2021-07-27T18:31:39Z</time>
      </trkpt>
      <trkpt lat="48.61497" lon="-2.27411">
        <ele>48</ele>
        <time>2021-07-27T18:31:41Z</time>
      </trkpt>
      <trkpt lat="48.61499" lon="-2.27412">
        <ele>47.9</ele>
        <time>2021-07-27T18:31:42Z</time>
      </trkpt>
      <trkpt lat="48.615" lon="-2.27413">
        <ele>47.9</ele>
        <time>2021-07-27T18:31:43Z</time>
      </trkpt>
      <trkpt lat="48.61501" lon="-2.27415">
        <ele>47.8</ele>
        <time>2021-07-27T18:31:44Z</time>
      </trkpt>
      <trkpt lat="48.61503" lon="-2.27416">
        <ele>47.7</ele>
        <time>2021-07-27T18:31:46Z</time>
      </trkpt>
      <trkpt lat="48.61506" lon="-2.27416">
        <ele>47.6</ele>
        <time>2021-07-27T18:31:47Z</time>
      </trkpt>
      <trkpt lat="48.61509" lon="-2.27415">
        <ele>47.5</ele>
        <time>2021-07-27T18:31:48Z</time>
      </trkpt>
      <trkpt lat="48.61513" lon="-2.27413">
        <ele>47.4</ele>
        <time>2021-07-27T18:31:50Z</time>
      </trkpt>
      <trkpt lat="48.61514" lon="-2.27412">
        <ele>47.4</ele>
        <time>2021-07-27T18:31:51Z</time>
      </trkpt>
      <trkpt lat="48.61518" lon="-2.27413">
        <ele>47.3</ele>
        <time>2021-07-27T18:31:52Z</time>
      </trkpt>
      <trkpt lat="48.61521" lon="-2.27415">
        <ele>47.2</ele>
        <time>2021-07-27T18:31:54Z</time>
      </trkpt>
      <trkpt lat="48.61521" lon="-2.27416">
        <ele>47.1</ele>
        <time>2021-07-27T18:31:55Z</time>
      </trkpt>
      <trkpt lat="48.61527" lon="-2.27418">
        <ele>46.9</ele>
        <time>2021-07-27T18:31:58Z</time>
      </trkpt>
      <trkpt lat="48.61529" lon="-2.27417">
        <ele>46.9</ele>
        <time>2021-07-27T18:31:59Z</time>
      </trkpt>
      <trkpt lat="48.61532" lon="-2.27413">
        <ele>46.8</ele>
        <time>2021-07-27T18:32:01Z</time>
      </trkpt>
      <trkpt lat="48.61533" lon="-2.2741">
        <ele>46.7</ele>
        <time>2021-07-27T18:32:02Z</time>
      </trkpt>
      <trkpt lat="48.61535" lon="-2.27405">
        <ele>46.6</ele>
        <time>2021-07-27T18:32:04Z</time>
      </trkpt>
      <trkpt lat="48.61537" lon="-2.27402">
        <ele>46.6</ele>
        <time>2021-07-27T18:32:05Z</time>
      </trkpt>
      <trkpt lat="48.61539" lon="-2.274">
        <ele>46.5</ele>
        <time>2021-07-27T18:32:06Z</time>
      </trkpt>
      <trkpt lat="48.61543" lon="-2.27399">
        <ele>46.4</ele>
        <time>2021-07-27T18:32:08Z</time>
      </trkpt>
      <trkpt lat="48.61546" lon="-2.27399">
        <ele>46.3</ele>
        <time>2021-07-27T18:32:10Z</time>
      </trkpt>
      <trkpt lat="48.61548" lon="-2.274">
        <ele>46.3</ele>
        <time>2021-07-27T18:32:12Z</time>
      </trkpt>
      <trkpt lat="48.61548" lon="-2.274">
        <ele>46.2</ele>
        <time>2021-07-27T18:32:14Z</time>
      </trkpt>
      <trkpt lat="48.61547" lon="-2.274">
        <ele>46.2</ele>
        <time>2021-07-27T18:32:16Z</time>
      </trkpt>
      <trkpt lat="48.61548" lon="-2.274">
        <ele>46.2</ele>
        <time>2021-07-27T18:32:18Z</time>
      </trkpt>
      <trkpt lat="48.61548" lon="-2.274">
        <ele>46.2</ele>
        <time>2021-07-27T18:32:19Z</time>
      </trkpt>
      <trkpt lat="48.61548" lon="-2.274">
        <ele>46.1</ele>
        <time>2021-07-27T18:32:21Z</time>
      </trkpt>
      <trkpt lat="48.6155" lon="-2.274">
        <ele>46.1</ele>
        <time>2021-07-27T18:32:28Z</time>
      </trkpt>
      <trkpt lat="48.61552" lon="-2.274">
        <ele>46</ele>
        <time>2021-07-27T18:32:29Z</time>
      </trkpt>
      <trkpt lat="48.61556" lon="-2.27399">
        <ele>45.9</ele>
        <time>2021-07-27T18:32:31Z</time>
      </trkpt>
      <trkpt lat="48.61559" lon="-2.274">
        <ele>45.9</ele>
        <time>2021-07-27T18:32:32Z</time>
      </trkpt>
      <trkpt lat="48.61564" lon="-2.27401">
        <ele>45.8</ele>
        <time>2021-07-27T18:32:33Z</time>
      </trkpt>
      <trkpt lat="48.61566" lon="-2.27402">
        <ele>45.8</ele>
        <time>2021-07-27T18:32:34Z</time>
      </trkpt>
      <trkpt lat="48.61571" lon="-2.27404">
        <ele>45.7</ele>
        <time>2021-07-27T18:32:36Z</time>
      </trkpt>
      <trkpt lat="48.61575" lon="-2.27405">
        <ele>45.7</ele>
        <time>2021-07-27T18:32:37Z</time>
      </trkpt>
      <trkpt lat="48.61579" lon="-2.27407">
        <ele>45.7</ele>
        <time>2021-07-27T18:32:38Z</time>
      </trkpt>
      <trkpt lat="48.61584" lon="-2.27408">
        <ele>45.7</ele>
        <time>2021-07-27T18:32:39Z</time>
      </trkpt>
      <trkpt lat="48.61591" lon="-2.27409">
        <ele>45.8</ele>
        <time>2021-07-27T18:32:41Z</time>
      </trkpt>
      <trkpt lat="48.61598" lon="-2.27406">
        <ele>45.9</ele>
        <time>2021-07-27T18:32:43Z</time>
      </trkpt>
      <trkpt lat="48.61603" lon="-2.27406">
        <ele>45.9</ele>
        <time>2021-07-27T18:32:44Z</time>
      </trkpt>
      <trkpt lat="48.61606" lon="-2.27407">
        <ele>46</ele>
        <time>2021-07-27T18:32:45Z</time>
      </trkpt>
      <trkpt lat="48.61609" lon="-2.2741">
        <ele>46.1</ele>
        <time>2021-07-27T18:32:46Z</time>
      </trkpt>
      <trkpt lat="48.61612" lon="-2.27412">
        <ele>46.1</ele>
        <time>2021-07-27T18:32:47Z</time>
      </trkpt>
      <trkpt lat="48.61618" lon="-2.27416">
        <ele>46.2</ele>
        <time>2021-07-27T18:32:49Z</time>
      </trkpt>
      <trkpt lat="48.61622" lon="-2.27419">
        <ele>46.1</ele>
        <time>2021-07-27T18:32:50Z</time>
      </trkpt>
      <trkpt lat="48.61625" lon="-2.27421">
        <ele>46.2</ele>
        <time>2021-07-27T18:32:51Z</time>
      </trkpt>
      <trkpt lat="48.61628" lon="-2.27426">
        <ele>46.1</ele>
        <time>2021-07-27T18:32:52Z</time>
      </trkpt>
      <trkpt lat="48.6163" lon="-2.2743">
        <ele>46.2</ele>
        <time>2021-07-27T18:32:54Z</time>
      </trkpt>
      <trkpt lat="48.61633" lon="-2.27433">
        <ele>46.2</ele>
        <time>2021-07-27T18:32:55Z</time>
      </trkpt>
      <trkpt lat="48.61637" lon="-2.27437">
        <ele>46.2</ele>
        <time>2021-07-27T18:32:56Z</time>
      </trkpt>
      <trkpt lat="48.61641" lon="-2.2744">
        <ele>46.2</ele>
        <time>2021-07-27T18:32:58Z</time>
      </trkpt>
      <trkpt lat="48.61644" lon="-2.27443">
        <ele>46.2</ele>
        <time>2021-07-27T18:32:59Z</time>
      </trkpt>
      <trkpt lat="48.61648" lon="-2.27446">
        <ele>46.2</ele>
        <time>2021-07-27T18:33:00Z</time>
      </trkpt>
      <trkpt lat="48.61651" lon="-2.27447">
        <ele>46.1</ele>
        <time>2021-07-27T18:33:01Z</time>
      </trkpt>
      <trkpt lat="48.61655" lon="-2.27449">
        <ele>46.1</ele>
        <time>2021-07-27T18:33:03Z</time>
      </trkpt>
      <trkpt lat="48.61661" lon="-2.27452">
        <ele>46</ele>
        <time>2021-07-27T18:33:05Z</time>
      </trkpt>
      <trkpt lat="48.61665" lon="-2.27454">
        <ele>45.9</ele>
        <time>2021-07-27T18:33:06Z</time>
      </trkpt>
      <trkpt lat="48.61668" lon="-2.27456">
        <ele>45.7</ele>
        <time>2021-07-27T18:33:07Z</time>
      </trkpt>
      <trkpt lat="48.61673" lon="-2.27459">
        <ele>45.6</ele>
        <time>2021-07-27T18:33:09Z</time>
      </trkpt>
      <trkpt lat="48.61677" lon="-2.27461">
        <ele>45.2</ele>
        <time>2021-07-27T18:33:10Z</time>
      </trkpt>
      <trkpt lat="48.61681" lon="-2.27462">
        <ele>45.1</ele>
        <time>2021-07-27T18:33:12Z</time>
      </trkpt>
      <trkpt lat="48.61687" lon="-2.27466">
        <ele>44.7</ele>
        <time>2021-07-27T18:33:13Z</time>
      </trkpt>
      <trkpt lat="48.6169" lon="-2.2747">
        <ele>44.3</ele>
        <time>2021-07-27T18:33:15Z</time>
      </trkpt>
      <trkpt lat="48.61695" lon="-2.27473">
        <ele>44.1</ele>
        <time>2021-07-27T18:33:16Z</time>
      </trkpt>
      <trkpt lat="48.617" lon="-2.27476">
        <ele>43.6</ele>
        <time>2021-07-27T18:33:17Z</time>
      </trkpt>
      <trkpt lat="48.61705" lon="-2.27479">
        <ele>43.2</ele>
        <time>2021-07-27T18:33:19Z</time>
      </trkpt>
      <trkpt lat="48.61709" lon="-2.27482">
        <ele>42.8</ele>
        <time>2021-07-27T18:33:20Z</time>
      </trkpt>
      <trkpt lat="48.61713" lon="-2.27484">
        <ele>42.6</ele>
        <time>2021-07-27T18:33:21Z</time>
      </trkpt>
      <trkpt lat="48.61718" lon="-2.27486">
        <ele>42.2</ele>
        <time>2021-07-27T18:33:22Z</time>
      </trkpt>
      <trkpt lat="48.61722" lon="-2.27488">
        <ele>42.1</ele>
        <time>2021-07-27T18:33:24Z</time>
      </trkpt>
      <trkpt lat="48.61727" lon="-2.27487">
        <ele>41.8</ele>
        <time>2021-07-27T18:33:25Z</time>
      </trkpt>
      <trkpt lat="48.61731" lon="-2.27484">
        <ele>41.8</ele>
        <time>2021-07-27T18:33:26Z</time>
      </trkpt>
      <trkpt lat="48.61735" lon="-2.2748">
        <ele>41.9</ele>
        <time>2021-07-27T18:33:28Z</time>
      </trkpt>
      <trkpt lat="48.61739" lon="-2.27479">
        <ele>41.7</ele>
        <time>2021-07-27T18:33:29Z</time>
      </trkpt>
      <trkpt lat="48.61743" lon="-2.27478">
        <ele>41.5</ele>
        <time>2021-07-27T18:33:30Z</time>
      </trkpt>
      <trkpt lat="48.61747" lon="-2.2748">
        <ele>41.3</ele>
        <time>2021-07-27T18:33:32Z</time>
      </trkpt>
      <trkpt lat="48.61751" lon="-2.27481">
        <ele>41</ele>
        <time>2021-07-27T18:33:33Z</time>
      </trkpt>
      <trkpt lat="48.61756" lon="-2.27483">
        <ele>40.7</ele>
        <time>2021-07-27T18:33:34Z</time>
      </trkpt>
      <trkpt lat="48.6176" lon="-2.27484">
        <ele>40.5</ele>
        <time>2021-07-27T18:33:36Z</time>
      </trkpt>
      <trkpt lat="48.61767" lon="-2.27485">
        <ele>40.4</ele>
        <time>2021-07-27T18:33:37Z</time>
      </trkpt>
      <trkpt lat="48.61772" lon="-2.27485">
        <ele>40.2</ele>
        <time>2021-07-27T18:33:38Z</time>
      </trkpt>
      <trkpt lat="48.61779" lon="-2.27485">
        <ele>40.1</ele>
        <time>2021-07-27T18:33:40Z</time>
      </trkpt>
      <trkpt lat="48.61783" lon="-2.27485">
        <ele>40.1</ele>
        <time>2021-07-27T18:33:41Z</time>
      </trkpt>
      <trkpt lat="48.61787" lon="-2.27486">
        <ele>40</ele>
        <time>2021-07-27T18:33:42Z</time>
      </trkpt>
      <trkpt lat="48.61794" lon="-2.27487">
        <ele>39.8</ele>
        <time>2021-07-27T18:33:44Z</time>
      </trkpt>
      <trkpt lat="48.61799" lon="-2.27486">
        <ele>39.8</ele>
        <time>2021-07-27T18:33:45Z</time>
      </trkpt>
      <trkpt lat="48.61807" lon="-2.27484">
        <ele>39.7</ele>
        <time>2021-07-27T18:33:46Z</time>
      </trkpt>
      <trkpt lat="48.61812" lon="-2.27482">
        <ele>39.5</ele>
        <time>2021-07-27T18:33:47Z</time>
      </trkpt>
      <trkpt lat="48.61819" lon="-2.27478">
        <ele>39.5</ele>
        <time>2021-07-27T18:33:49Z</time>
      </trkpt>
      <trkpt lat="48.61822" lon="-2.27474">
        <ele>39.4</ele>
        <time>2021-07-27T18:33:50Z</time>
      </trkpt>
      <trkpt lat="48.61828" lon="-2.27471">
        <ele>39.3</ele>
        <time>2021-07-27T18:33:51Z</time>
      </trkpt>
      <trkpt lat="48.61831" lon="-2.27467">
        <ele>39.3</ele>
        <time>2021-07-27T18:33:52Z</time>
      </trkpt>
      <trkpt lat="48.61838" lon="-2.27463">
        <ele>39.1</ele>
        <time>2021-07-27T18:33:54Z</time>
      </trkpt>
      <trkpt lat="48.61843" lon="-2.27458">
        <ele>39</ele>
        <time>2021-07-27T18:33:55Z</time>
      </trkpt>
      <trkpt lat="48.61846" lon="-2.27455">
        <ele>39</ele>
        <time>2021-07-27T18:33:56Z</time>
      </trkpt>
      <trkpt lat="48.61849" lon="-2.27451">
        <ele>39</ele>
        <time>2021-07-27T18:33:57Z</time>
      </trkpt>
      <trkpt lat="48.61855" lon="-2.27444">
        <ele>38.9</ele>
        <time>2021-07-27T18:33:59Z</time>
      </trkpt>
      <trkpt lat="48.61859" lon="-2.27438">
        <ele>39</ele>
        <time>2021-07-27T18:34:01Z</time>
      </trkpt>
      <trkpt lat="48.61864" lon="-2.27433">
        <ele>39.1</ele>
        <time>2021-07-27T18:34:02Z</time>
      </trkpt>
      <trkpt lat="48.61867" lon="-2.27429">
        <ele>39.1</ele>
        <time>2021-07-27T18:34:03Z</time>
      </trkpt>
      <trkpt lat="48.6187" lon="-2.27425">
        <ele>39.2</ele>
        <time>2021-07-27T18:34:04Z</time>
      </trkpt>
      <trkpt lat="48.61873" lon="-2.27421">
        <ele>39.2</ele>
        <time>2021-07-27T18:34:05Z</time>
      </trkpt>
      <trkpt lat="48.61876" lon="-2.27417">
        <ele>39.3</ele>
        <time>2021-07-27T18:34:06Z</time>
      </trkpt>
      <trkpt lat="48.6188" lon="-2.27413">
        <ele>39.6</ele>
        <time>2021-07-27T18:34:07Z</time>
      </trkpt>
      <trkpt lat="48.61883" lon="-2.27408">
        <ele>39.7</ele>
        <time>2021-07-27T18:34:09Z</time>
      </trkpt>
      <trkpt lat="48.61887" lon="-2.27403">
        <ele>39.8</ele>
        <time>2021-07-27T18:34:10Z</time>
      </trkpt>
      <trkpt lat="48.6189" lon="-2.274">
        <ele>39.9</ele>
        <time>2021-07-27T18:34:11Z</time>
      </trkpt>
      <trkpt lat="48.61895" lon="-2.27395">
        <ele>40.1</ele>
        <time>2021-07-27T18:34:13Z</time>
      </trkpt>
      <trkpt lat="48.61897" lon="-2.27391">
        <ele>40.2</ele>
        <time>2021-07-27T18:34:14Z</time>
      </trkpt>
      <trkpt lat="48.61901" lon="-2.27387">
        <ele>40.5</ele>
        <time>2021-07-27T18:34:15Z</time>
      </trkpt>
      <trkpt lat="48.61908" lon="-2.27379">
        <ele>40.7</ele>
        <time>2021-07-27T18:34:17Z</time>
      </trkpt>
      <trkpt lat="48.61911" lon="-2.27375">
        <ele>40.8</ele>
        <time>2021-07-27T18:34:18Z</time>
      </trkpt>
      <trkpt lat="48.61915" lon="-2.27371">
        <ele>41</ele>
        <time>2021-07-27T18:34:19Z</time>
      </trkpt>
      <trkpt lat="48.61921" lon="-2.27364">
        <ele>41.2</ele>
        <time>2021-07-27T18:34:21Z</time>
      </trkpt>
      <trkpt lat="48.61925" lon="-2.27358">
        <ele>41.4</ele>
        <time>2021-07-27T18:34:22Z</time>
      </trkpt>
      <trkpt lat="48.61931" lon="-2.27352">
        <ele>41.6</ele>
        <time>2021-07-27T18:34:23Z</time>
      </trkpt>
      <trkpt lat="48.61935" lon="-2.27347">
        <ele>41.7</ele>
        <time>2021-07-27T18:34:24Z</time>
      </trkpt>
      <trkpt lat="48.61939" lon="-2.27343">
        <ele>41.8</ele>
        <time>2021-07-27T18:34:25Z</time>
      </trkpt>
      <trkpt lat="48.61943" lon="-2.27338">
        <ele>41.9</ele>
        <time>2021-07-27T18:34:26Z</time>
      </trkpt>
      <trkpt lat="48.61946" lon="-2.27333">
        <ele>42</ele>
        <time>2021-07-27T18:34:27Z</time>
      </trkpt>
      <trkpt lat="48.61954" lon="-2.27324">
        <ele>42.1</ele>
        <time>2021-07-27T18:34:29Z</time>
      </trkpt>
      <trkpt lat="48.61957" lon="-2.2732">
        <ele>42.2</ele>
        <time>2021-07-27T18:34:30Z</time>
      </trkpt>
      <trkpt lat="48.61963" lon="-2.27321">
        <ele>42.3</ele>
        <time>2021-07-27T18:34:32Z</time>
      </trkpt>
      <trkpt lat="48.61966" lon="-2.27318">
        <ele>42.4</ele>
        <time>2021-07-27T18:34:33Z</time>
      </trkpt>
      <trkpt lat="48.61971" lon="-2.27309">
        <ele>42.6</ele>
        <time>2021-07-27T18:34:34Z</time>
      </trkpt>
      <trkpt lat="48.61974" lon="-2.27306">
        <ele>42.6</ele>
        <time>2021-07-27T18:34:35Z</time>
      </trkpt>
      <trkpt lat="48.61976" lon="-2.27299">
        <ele>42.8</ele>
        <time>2021-07-27T18:34:36Z</time>
      </trkpt>
      <trkpt lat="48.6198" lon="-2.27292">
        <ele>42.9</ele>
        <time>2021-07-27T18:34:38Z</time>
      </trkpt>
      <trkpt lat="48.6199" lon="-2.27281">
        <ele>43.2</ele>
        <time>2021-07-27T18:34:39Z</time>
      </trkpt>
      <trkpt lat="48.61995" lon="-2.27273">
        <ele>43.3</ele>
        <time>2021-07-27T18:34:41Z</time>
      </trkpt>
      <trkpt lat="48.61997" lon="-2.27268">
        <ele>43.4</ele>
        <time>2021-07-27T18:34:42Z</time>
      </trkpt>
      <trkpt lat="48.62002" lon="-2.27263">
        <ele>43.6</ele>
        <time>2021-07-27T18:34:43Z</time>
      </trkpt>
      <trkpt lat="48.62011" lon="-2.27254">
        <ele>43.8</ele>
        <time>2021-07-27T18:34:45Z</time>
      </trkpt>
      <trkpt lat="48.62018" lon="-2.27245">
        <ele>44</ele>
        <time>2021-07-27T18:34:47Z</time>
      </trkpt>
      <trkpt lat="48.62022" lon="-2.27241">
        <ele>44.1</ele>
        <time>2021-07-27T18:34:48Z</time>
      </trkpt>
      <trkpt lat="48.62029" lon="-2.27232">
        <ele>44.3</ele>
        <time>2021-07-27T18:34:50Z</time>
      </trkpt>
      <trkpt lat="48.62032" lon="-2.27227">
        <ele>44.4</ele>
        <time>2021-07-27T18:34:51Z</time>
      </trkpt>
      <trkpt lat="48.62034" lon="-2.27224">
        <ele>44.5</ele>
        <time>2021-07-27T18:34:52Z</time>
      </trkpt>
      <trkpt lat="48.6204" lon="-2.27219">
        <ele>44.7</ele>
        <time>2021-07-27T18:34:54Z</time>
      </trkpt>
      <trkpt lat="48.62045" lon="-2.27215">
        <ele>44.9</ele>
        <time>2021-07-27T18:34:55Z</time>
      </trkpt>
      <trkpt lat="48.6205" lon="-2.27212">
        <ele>45.1</ele>
        <time>2021-07-27T18:34:56Z</time>
      </trkpt>
      <trkpt lat="48.62055" lon="-2.27214">
        <ele>44.8</ele>
        <time>2021-07-27T18:34:57Z</time>
      </trkpt>
      <trkpt lat="48.62062" lon="-2.27225">
        <ele>44.6</ele>
        <time>2021-07-27T18:34:59Z</time>
      </trkpt>
      <trkpt lat="48.62068" lon="-2.27239">
        <ele>44.4</ele>
        <time>2021-07-27T18:35:01Z</time>
      </trkpt>
      <trkpt lat="48.62071" lon="-2.27246">
        <ele>44.3</ele>
        <time>2021-07-27T18:35:02Z</time>
      </trkpt>
      <trkpt lat="48.62078" lon="-2.27259">
        <ele>44.1</ele>
        <time>2021-07-27T18:35:04Z</time>
      </trkpt>
      <trkpt lat="48.62081" lon="-2.27265">
        <ele>44</ele>
        <time>2021-07-27T18:35:05Z</time>
      </trkpt>
      <trkpt lat="48.62084" lon="-2.27272">
        <ele>43.9</ele>
        <time>2021-07-27T18:35:06Z</time>
      </trkpt>
      <trkpt lat="48.62089" lon="-2.27288">
        <ele>43.7</ele>
        <time>2021-07-27T18:35:08Z</time>
      </trkpt>
      <trkpt lat="48.62092" lon="-2.27295">
        <ele>43.6</ele>
        <time>2021-07-27T18:35:09Z</time>
      </trkpt>
      <trkpt lat="48.62096" lon="-2.27309">
        <ele>43.4</ele>
        <time>2021-07-27T18:35:11Z</time>
      </trkpt>
      <trkpt lat="48.621" lon="-2.27322">
        <ele>43.2</ele>
        <time>2021-07-27T18:35:13Z</time>
      </trkpt>
      <trkpt lat="48.62103" lon="-2.27335">
        <ele>43</ele>
        <time>2021-07-27T18:35:15Z</time>
      </trkpt>
      <trkpt lat="48.62104" lon="-2.27344">
        <ele>42.8</ele>
        <time>2021-07-27T18:35:16Z</time>
      </trkpt>
      <trkpt lat="48.62106" lon="-2.27357">
        <ele>42.6</ele>
        <time>2021-07-27T18:35:18Z</time>
      </trkpt>
      <trkpt lat="48.62106" lon="-2.27373">
        <ele>42.4</ele>
        <time>2021-07-27T18:35:20Z</time>
      </trkpt>
      <trkpt lat="48.62108" lon="-2.27389">
        <ele>42.3</ele>
        <time>2021-07-27T18:35:22Z</time>
      </trkpt>
      <trkpt lat="48.62108" lon="-2.27396">
        <ele>42.2</ele>
        <time>2021-07-27T18:35:23Z</time>
      </trkpt>
      <trkpt lat="48.62109" lon="-2.27412">
        <ele>42</ele>
        <time>2021-07-27T18:35:25Z</time>
      </trkpt>
      <trkpt lat="48.62108" lon="-2.27427">
        <ele>41.9</ele>
        <time>2021-07-27T18:35:27Z</time>
      </trkpt>
      <trkpt lat="48.62108" lon="-2.27436">
        <ele>41.9</ele>
        <time>2021-07-27T18:35:28Z</time>
      </trkpt>
      <trkpt lat="48.62108" lon="-2.27444">
        <ele>41.9</ele>
        <time>2021-07-27T18:35:29Z</time>
      </trkpt>
      <trkpt lat="48.62107" lon="-2.2746">
        <ele>41.9</ele>
        <time>2021-07-27T18:35:31Z</time>
      </trkpt>
      <trkpt lat="48.62107" lon="-2.27468">
        <ele>41.9</ele>
        <time>2021-07-27T18:35:32Z</time>
      </trkpt>
      <trkpt lat="48.62107" lon="-2.27476">
        <ele>41.8</ele>
        <time>2021-07-27T18:35:33Z</time>
      </trkpt>
      <trkpt lat="48.62105" lon="-2.27491">
        <ele>41.8</ele>
        <time>2021-07-27T18:35:35Z</time>
      </trkpt>
      <trkpt lat="48.62103" lon="-2.27506">
        <ele>41.8</ele>
        <time>2021-07-27T18:35:37Z</time>
      </trkpt>
      <trkpt lat="48.62102" lon="-2.27514">
        <ele>41.8</ele>
        <time>2021-07-27T18:35:38Z</time>
      </trkpt>
      <trkpt lat="48.62101" lon="-2.27531">
        <ele>41.8</ele>
        <time>2021-07-27T18:35:40Z</time>
      </trkpt>
      <trkpt lat="48.621" lon="-2.27547">
        <ele>41.8</ele>
        <time>2021-07-27T18:35:42Z</time>
      </trkpt>
      <trkpt lat="48.621" lon="-2.27555">
        <ele>41.7</ele>
        <time>2021-07-27T18:35:43Z</time>
      </trkpt>
      <trkpt lat="48.62101" lon="-2.27563">
        <ele>41.6</ele>
        <time>2021-07-27T18:35:44Z</time>
      </trkpt>
      <trkpt lat="48.62102" lon="-2.27578">
        <ele>41.5</ele>
        <time>2021-07-27T18:35:46Z</time>
      </trkpt>
      <trkpt lat="48.62105" lon="-2.27585">
        <ele>41.4</ele>
        <time>2021-07-27T18:35:47Z</time>
      </trkpt>
      <trkpt lat="48.62114" lon="-2.27591">
        <ele>41.2</ele>
        <time>2021-07-27T18:35:49Z</time>
      </trkpt>
      <trkpt lat="48.62125" lon="-2.27585">
        <ele>41.5</ele>
        <time>2021-07-27T18:35:51Z</time>
      </trkpt>
      <trkpt lat="48.62133" lon="-2.27572">
        <ele>41.8</ele>
        <time>2021-07-27T18:35:53Z</time>
      </trkpt>
      <trkpt lat="48.62136" lon="-2.27566">
        <ele>41.9</ele>
        <time>2021-07-27T18:35:54Z</time>
      </trkpt>
      <trkpt lat="48.62143" lon="-2.27555">
        <ele>42.1</ele>
        <time>2021-07-27T18:35:56Z</time>
      </trkpt>
      <trkpt lat="48.62152" lon="-2.27546">
        <ele>42.3</ele>
        <time>2021-07-27T18:35:58Z</time>
      </trkpt>
      <trkpt lat="48.62156" lon="-2.27541">
        <ele>42.5</ele>
        <time>2021-07-27T18:35:59Z</time>
      </trkpt>
      <trkpt lat="48.62166" lon="-2.27532">
        <ele>42.7</ele>
        <time>2021-07-27T18:36:01Z</time>
      </trkpt>
      <trkpt lat="48.62175" lon="-2.27524">
        <ele>43</ele>
        <time>2021-07-27T18:36:03Z</time>
      </trkpt>
      <trkpt lat="48.6218" lon="-2.27519">
        <ele>43.2</ele>
        <time>2021-07-27T18:36:04Z</time>
      </trkpt>
      <trkpt lat="48.62189" lon="-2.2751">
        <ele>43.5</ele>
        <time>2021-07-27T18:36:06Z</time>
      </trkpt>
      <trkpt lat="48.62194" lon="-2.27505">
        <ele>43.6</ele>
        <time>2021-07-27T18:36:07Z</time>
      </trkpt>
      <trkpt lat="48.62198" lon="-2.275">
        <ele>43.7</ele>
        <time>2021-07-27T18:36:08Z</time>
      </trkpt>
      <trkpt lat="48.62208" lon="-2.27491">
        <ele>44</ele>
        <time>2021-07-27T18:36:10Z</time>
      </trkpt>
      <trkpt lat="48.62218" lon="-2.27482">
        <ele>44.4</ele>
        <time>2021-07-27T18:36:12Z</time>
      </trkpt>
      <trkpt lat="48.62223" lon="-2.27477">
        <ele>44.5</ele>
        <time>2021-07-27T18:36:13Z</time>
      </trkpt>
      <trkpt lat="48.62232" lon="-2.27467">
        <ele>44.8</ele>
        <time>2021-07-27T18:36:15Z</time>
      </trkpt>
      <trkpt lat="48.62237" lon="-2.27462">
        <ele>44.9</ele>
        <time>2021-07-27T18:36:16Z</time>
      </trkpt>
      <trkpt lat="48.62241" lon="-2.27457">
        <ele>45</ele>
        <time>2021-07-27T18:36:17Z</time>
      </trkpt>
      <trkpt lat="48.62245" lon="-2.27452">
        <ele>45.2</ele>
        <time>2021-07-27T18:36:18Z</time>
      </trkpt>
      <trkpt lat="48.62254" lon="-2.27443">
        <ele>45.4</ele>
        <time>2021-07-27T18:36:20Z</time>
      </trkpt>
      <trkpt lat="48.62263" lon="-2.27435">
        <ele>45.6</ele>
        <time>2021-07-27T18:36:22Z</time>
      </trkpt>
      <trkpt lat="48.62268" lon="-2.2743">
        <ele>45.7</ele>
        <time>2021-07-27T18:36:23Z</time>
      </trkpt>
      <trkpt lat="48.62273" lon="-2.27426">
        <ele>45.8</ele>
        <time>2021-07-27T18:36:24Z</time>
      </trkpt>
      <trkpt lat="48.62277" lon="-2.27421">
        <ele>45.9</ele>
        <time>2021-07-27T18:36:25Z</time>
      </trkpt>
      <trkpt lat="48.62286" lon="-2.27411">
        <ele>46.1</ele>
        <time>2021-07-27T18:36:27Z</time>
      </trkpt>
      <trkpt lat="48.62291" lon="-2.27407">
        <ele>46.2</ele>
        <time>2021-07-27T18:36:28Z</time>
      </trkpt>
      <trkpt lat="48.62296" lon="-2.27404">
        <ele>46.3</ele>
        <time>2021-07-27T18:36:29Z</time>
      </trkpt>
      <trkpt lat="48.62306" lon="-2.27406">
        <ele>46.5</ele>
        <time>2021-07-27T18:36:31Z</time>
      </trkpt>
      <trkpt lat="48.62315" lon="-2.27415">
        <ele>46.5</ele>
        <time>2021-07-27T18:36:33Z</time>
      </trkpt>
      <trkpt lat="48.62319" lon="-2.27421">
        <ele>46.5</ele>
        <time>2021-07-27T18:36:34Z</time>
      </trkpt>
      <trkpt lat="48.62327" lon="-2.27432">
        <ele>46.4</ele>
        <time>2021-07-27T18:36:36Z</time>
      </trkpt>
      <trkpt lat="48.62335" lon="-2.27443">
        <ele>46.3</ele>
        <time>2021-07-27T18:36:38Z</time>
      </trkpt>
      <trkpt lat="48.62343" lon="-2.27454">
        <ele>46.2</ele>
        <time>2021-07-27T18:36:40Z</time>
      </trkpt>
      <trkpt lat="48.62347" lon="-2.2746">
        <ele>46.2</ele>
        <time>2021-07-27T18:36:41Z</time>
      </trkpt>
      <trkpt lat="48.62351" lon="-2.27466">
        <ele>46.2</ele>
        <time>2021-07-27T18:36:42Z</time>
      </trkpt>
      <trkpt lat="48.6236" lon="-2.27477">
        <ele>46.1</ele>
        <time>2021-07-27T18:36:44Z</time>
      </trkpt>
      <trkpt lat="48.62369" lon="-2.27488">
        <ele>46</ele>
        <time>2021-07-27T18:36:46Z</time>
      </trkpt>
      <trkpt lat="48.62374" lon="-2.27494">
        <ele>45.9</ele>
        <time>2021-07-27T18:36:47Z</time>
      </trkpt>
      <trkpt lat="48.62382" lon="-2.27505">
        <ele>45.8</ele>
        <time>2021-07-27T18:36:49Z</time>
      </trkpt>
      <trkpt lat="48.62387" lon="-2.27511">
        <ele>45.7</ele>
        <time>2021-07-27T18:36:50Z</time>
      </trkpt>
      <trkpt lat="48.62396" lon="-2.27524">
        <ele>45.5</ele>
        <time>2021-07-27T18:36:52Z</time>
      </trkpt>
      <trkpt lat="48.624" lon="-2.2753">
        <ele>45.3</ele>
        <time>2021-07-27T18:36:53Z</time>
      </trkpt>
      <trkpt lat="48.62405" lon="-2.27536">
        <ele>45.2</ele>
        <time>2021-07-27T18:36:54Z</time>
      </trkpt>
      <trkpt lat="48.62413" lon="-2.27549">
        <ele>44.9</ele>
        <time>2021-07-27T18:36:56Z</time>
      </trkpt>
      <trkpt lat="48.62421" lon="-2.27563">
        <ele>44.7</ele>
        <time>2021-07-27T18:36:58Z</time>
      </trkpt>
      <trkpt lat="48.6243" lon="-2.27576">
        <ele>44.4</ele>
        <time>2021-07-27T18:37:00Z</time>
      </trkpt>
      <trkpt lat="48.62438" lon="-2.27588">
        <ele>44.2</ele>
        <time>2021-07-27T18:37:02Z</time>
      </trkpt>
      <trkpt lat="48.62446" lon="-2.276">
        <ele>44.1</ele>
        <time>2021-07-27T18:37:04Z</time>
      </trkpt>
      <trkpt lat="48.62451" lon="-2.27607">
        <ele>44.1</ele>
        <time>2021-07-27T18:37:05Z</time>
      </trkpt>
      <trkpt lat="48.62454" lon="-2.27614">
        <ele>44.2</ele>
        <time>2021-07-27T18:37:06Z</time>
      </trkpt>
      <trkpt lat="48.62458" lon="-2.27621">
        <ele>44.2</ele>
        <time>2021-07-27T18:37:07Z</time>
      </trkpt>
      <trkpt lat="48.62468" lon="-2.27628">
        <ele>44.3</ele>
        <time>2021-07-27T18:37:09Z</time>
      </trkpt>
      <trkpt lat="48.62474" lon="-2.27628">
        <ele>44.2</ele>
        <time>2021-07-27T18:37:10Z</time>
      </trkpt>
      <trkpt lat="48.62485" lon="-2.27621">
        <ele>44</ele>
        <time>2021-07-27T18:37:12Z</time>
      </trkpt>
      <trkpt lat="48.62494" lon="-2.27611">
        <ele>44</ele>
        <time>2021-07-27T18:37:14Z</time>
      </trkpt>
      <trkpt lat="48.62499" lon="-2.27606">
        <ele>44</ele>
        <time>2021-07-27T18:37:15Z</time>
      </trkpt>
      <trkpt lat="48.62509" lon="-2.27597">
        <ele>44.3</ele>
        <time>2021-07-27T18:37:17Z</time>
      </trkpt>
      <trkpt lat="48.62514" lon="-2.27594">
        <ele>44.5</ele>
        <time>2021-07-27T18:37:18Z</time>
      </trkpt>
      <trkpt lat="48.62524" lon="-2.27587">
        <ele>44.9</ele>
        <time>2021-07-27T18:37:20Z</time>
      </trkpt>
      <trkpt lat="48.62529" lon="-2.27584">
        <ele>45</ele>
        <time>2021-07-27T18:37:21Z</time>
      </trkpt>
      <trkpt lat="48.62534" lon="-2.27581">
        <ele>45.2</ele>
        <time>2021-07-27T18:37:22Z</time>
      </trkpt>
      <trkpt lat="48.62539" lon="-2.27578">
        <ele>45.4</ele>
        <time>2021-07-27T18:37:23Z</time>
      </trkpt>
      <trkpt lat="48.62544" lon="-2.27576">
        <ele>45.5</ele>
        <time>2021-07-27T18:37:24Z</time>
      </trkpt>
      <trkpt lat="48.62549" lon="-2.27574">
        <ele>45.6</ele>
        <time>2021-07-27T18:37:25Z</time>
      </trkpt>
      <trkpt lat="48.6256" lon="-2.2757">
        <ele>45.8</ele>
        <time>2021-07-27T18:37:27Z</time>
      </trkpt>
      <trkpt lat="48.62565" lon="-2.27569">
        <ele>45.9</ele>
        <time>2021-07-27T18:37:28Z</time>
      </trkpt>
      <trkpt lat="48.6257" lon="-2.27567">
        <ele>46</ele>
        <time>2021-07-27T18:37:29Z</time>
      </trkpt>
      <trkpt lat="48.6258" lon="-2.27564">
        <ele>46.2</ele>
        <time>2021-07-27T18:37:31Z</time>
      </trkpt>
      <trkpt lat="48.62591" lon="-2.27561">
        <ele>46.3</ele>
        <time>2021-07-27T18:37:33Z</time>
      </trkpt>
      <trkpt lat="48.62602" lon="-2.27557">
        <ele>46.3</ele>
        <time>2021-07-27T18:37:35Z</time>
      </trkpt>
      <trkpt lat="48.62607" lon="-2.27554">
        <ele>46.4</ele>
        <time>2021-07-27T18:37:36Z</time>
      </trkpt>
      <trkpt lat="48.62613" lon="-2.27552">
        <ele>46.4</ele>
        <time>2021-07-27T18:37:37Z</time>
      </trkpt>
      <trkpt lat="48.62624" lon="-2.27548">
        <ele>46.5</ele>
        <time>2021-07-27T18:37:39Z</time>
      </trkpt>
      <trkpt lat="48.62629" lon="-2.27546">
        <ele>46.5</ele>
        <time>2021-07-27T18:37:40Z</time>
      </trkpt>
      <trkpt lat="48.6264" lon="-2.27543">
        <ele>46.5</ele>
        <time>2021-07-27T18:37:42Z</time>
      </trkpt>
      <trkpt lat="48.62651" lon="-2.2754">
        <ele>46.5</ele>
        <time>2021-07-27T18:37:44Z</time>
      </trkpt>
      <trkpt lat="48.62661" lon="-2.27538">
        <ele>46.4</ele>
        <time>2021-07-27T18:37:46Z</time>
      </trkpt>
      <trkpt lat="48.62671" lon="-2.27537">
        <ele>46.4</ele>
        <time>2021-07-27T18:37:48Z</time>
      </trkpt>
      <trkpt lat="48.62681" lon="-2.27536">
        <ele>46.3</ele>
        <time>2021-07-27T18:37:50Z</time>
      </trkpt>
      <trkpt lat="48.62689" lon="-2.27542">
        <ele>46</ele>
        <time>2021-07-27T18:37:52Z</time>
      </trkpt>
      <trkpt lat="48.62692" lon="-2.27549">
        <ele>45.8</ele>
        <time>2021-07-27T18:37:53Z</time>
      </trkpt>
      <trkpt lat="48.62697" lon="-2.27566">
        <ele>45.6</ele>
        <time>2021-07-27T18:37:55Z</time>
      </trkpt>
      <trkpt lat="48.627" lon="-2.27574">
        <ele>45.4</ele>
        <time>2021-07-27T18:37:56Z</time>
      </trkpt>
      <trkpt lat="48.62705" lon="-2.2759">
        <ele>45.2</ele>
        <time>2021-07-27T18:37:58Z</time>
      </trkpt>
      <trkpt lat="48.62708" lon="-2.27598">
        <ele>45.1</ele>
        <time>2021-07-27T18:37:59Z</time>
      </trkpt>
      <trkpt lat="48.62712" lon="-2.27615">
        <ele>44.8</ele>
        <time>2021-07-27T18:38:01Z</time>
      </trkpt>
      <trkpt lat="48.62715" lon="-2.27623">
        <ele>44.7</ele>
        <time>2021-07-27T18:38:02Z</time>
      </trkpt>
      <trkpt lat="48.62718" lon="-2.27632">
        <ele>44.5</ele>
        <time>2021-07-27T18:38:03Z</time>
      </trkpt>
      <trkpt lat="48.6272" lon="-2.2764">
        <ele>44.4</ele>
        <time>2021-07-27T18:38:04Z</time>
      </trkpt>
      <trkpt lat="48.62723" lon="-2.27648">
        <ele>44.2</ele>
        <time>2021-07-27T18:38:05Z</time>
      </trkpt>
      <trkpt lat="48.62728" lon="-2.27666">
        <ele>43.9</ele>
        <time>2021-07-27T18:38:07Z</time>
      </trkpt>
      <trkpt lat="48.62731" lon="-2.27674">
        <ele>43.8</ele>
        <time>2021-07-27T18:38:08Z</time>
      </trkpt>
      <trkpt lat="48.62734" lon="-2.27683">
        <ele>43.8</ele>
        <time>2021-07-27T18:38:09Z</time>
      </trkpt>
      <trkpt lat="48.6274" lon="-2.277">
        <ele>43.6</ele>
        <time>2021-07-27T18:38:11Z</time>
      </trkpt>
      <trkpt lat="48.62743" lon="-2.27709">
        <ele>43.6</ele>
        <time>2021-07-27T18:38:12Z</time>
      </trkpt>
      <trkpt lat="48.62746" lon="-2.27718">
        <ele>43.5</ele>
        <time>2021-07-27T18:38:13Z</time>
      </trkpt>
      <trkpt lat="48.62751" lon="-2.27736">
        <ele>43.4</ele>
        <time>2021-07-27T18:38:15Z</time>
      </trkpt>
      <trkpt lat="48.62757" lon="-2.27754">
        <ele>43.3</ele>
        <time>2021-07-27T18:38:17Z</time>
      </trkpt>
      <trkpt lat="48.62763" lon="-2.27771">
        <ele>43.2</ele>
        <time>2021-07-27T18:38:19Z</time>
      </trkpt>
      <trkpt lat="48.62766" lon="-2.27779">
        <ele>43.1</ele>
        <time>2021-07-27T18:38:20Z</time>
      </trkpt>
      <trkpt lat="48.6277" lon="-2.27787">
        <ele>43.1</ele>
        <time>2021-07-27T18:38:21Z</time>
      </trkpt>
      <trkpt lat="48.6278" lon="-2.27799">
        <ele>43</ele>
        <time>2021-07-27T18:38:23Z</time>
      </trkpt>
      <trkpt lat="48.62793" lon="-2.27806">
        <ele>42.9</ele>
        <time>2021-07-27T18:38:25Z</time>
      </trkpt>
      <trkpt lat="48.62808" lon="-2.27806">
        <ele>42.9</ele>
        <time>2021-07-27T18:38:27Z</time>
      </trkpt>
      <trkpt lat="48.62822" lon="-2.27805">
        <ele>43</ele>
        <time>2021-07-27T18:38:29Z</time>
      </trkpt>
      <trkpt lat="48.62835" lon="-2.27799">
        <ele>43.2</ele>
        <time>2021-07-27T18:38:31Z</time>
      </trkpt>
      <trkpt lat="48.6284" lon="-2.27793">
        <ele>43.3</ele>
        <time>2021-07-27T18:38:32Z</time>
      </trkpt>
      <trkpt lat="48.62849" lon="-2.27779">
        <ele>43.6</ele>
        <time>2021-07-27T18:38:34Z</time>
      </trkpt>
      <trkpt lat="48.62857" lon="-2.27764">
        <ele>43.9</ele>
        <time>2021-07-27T18:38:36Z</time>
      </trkpt>
      <trkpt lat="48.62861" lon="-2.27757">
        <ele>44</ele>
        <time>2021-07-27T18:38:37Z</time>
      </trkpt>
      <trkpt lat="48.62868" lon="-2.27743">
        <ele>44.5</ele>
        <time>2021-07-27T18:38:39Z</time>
      </trkpt>
      <trkpt lat="48.62876" lon="-2.27729">
        <ele>44.9</ele>
        <time>2021-07-27T18:38:41Z</time>
      </trkpt>
      <trkpt lat="48.62884" lon="-2.27716">
        <ele>45.3</ele>
        <time>2021-07-27T18:38:43Z</time>
      </trkpt>
      <trkpt lat="48.62887" lon="-2.2771">
        <ele>45.4</ele>
        <time>2021-07-27T18:38:44Z</time>
      </trkpt>
      <trkpt lat="48.62895" lon="-2.27696">
        <ele>45.7</ele>
        <time>2021-07-27T18:38:46Z</time>
      </trkpt>
      <trkpt lat="48.62899" lon="-2.27688">
        <ele>45.8</ele>
        <time>2021-07-27T18:38:47Z</time>
      </trkpt>
      <trkpt lat="48.62906" lon="-2.27675">
        <ele>45.9</ele>
        <time>2021-07-27T18:38:49Z</time>
      </trkpt>
      <trkpt lat="48.6291" lon="-2.27668">
        <ele>45.9</ele>
        <time>2021-07-27T18:38:50Z</time>
      </trkpt>
      <trkpt lat="48.62914" lon="-2.27662">
        <ele>45.8</ele>
        <time>2021-07-27T18:38:51Z</time>
      </trkpt>
      <trkpt lat="48.62918" lon="-2.27655">
        <ele>45.6</ele>
        <time>2021-07-27T18:38:52Z</time>
      </trkpt>
      <trkpt lat="48.62927" lon="-2.27642">
        <ele>45.3</ele>
        <time>2021-07-27T18:38:54Z</time>
      </trkpt>
      <trkpt lat="48.62932" lon="-2.27635">
        <ele>45.2</ele>
        <time>2021-07-27T18:38:55Z</time>
      </trkpt>
      <trkpt lat="48.62942" lon="-2.2762">
        <ele>44.8</ele>
        <time>2021-07-27T18:38:57Z</time>
      </trkpt>
      <trkpt lat="48.62946" lon="-2.27612">
        <ele>44.7</ele>
        <time>2021-07-27T18:38:58Z</time>
      </trkpt>
      <trkpt lat="48.62951" lon="-2.27605">
        <ele>44.6</ele>
        <time>2021-07-27T18:38:59Z</time>
      </trkpt>
      <trkpt lat="48.62956" lon="-2.27597">
        <ele>44.5</ele>
        <time>2021-07-27T18:39:00Z</time>
      </trkpt>
      <trkpt lat="48.62962" lon="-2.27589">
        <ele>44.4</ele>
        <time>2021-07-27T18:39:01Z</time>
      </trkpt>
      <trkpt lat="48.62967" lon="-2.27581">
        <ele>44.4</ele>
        <time>2021-07-27T18:39:02Z</time>
      </trkpt>
      <trkpt lat="48.62978" lon="-2.27565">
        <ele>44.3</ele>
        <time>2021-07-27T18:39:04Z</time>
      </trkpt>
      <trkpt lat="48.62983" lon="-2.27558">
        <ele>44.3</ele>
        <time>2021-07-27T18:39:05Z</time>
      </trkpt>
      <trkpt lat="48.62992" lon="-2.27541">
        <ele>44.3</ele>
        <time>2021-07-27T18:39:07Z</time>
      </trkpt>
      <trkpt lat="48.62996" lon="-2.27533">
        <ele>44.3</ele>
        <time>2021-07-27T18:39:08Z</time>
      </trkpt>
      <trkpt lat="48.63" lon="-2.27524">
        <ele>44.3</ele>
        <time>2021-07-27T18:39:09Z</time>
      </trkpt>
      <trkpt lat="48.63007" lon="-2.27507">
        <ele>44.3</ele>
        <time>2021-07-27T18:39:11Z</time>
      </trkpt>
      <trkpt lat="48.63015" lon="-2.2749">
        <ele>44.3</ele>
        <time>2021-07-27T18:39:13Z</time>
      </trkpt>
      <trkpt lat="48.63022" lon="-2.27473">
        <ele>44.3</ele>
        <time>2021-07-27T18:39:15Z</time>
      </trkpt>
      <trkpt lat="48.63025" lon="-2.27464">
        <ele>44.3</ele>
        <time>2021-07-27T18:39:16Z</time>
      </trkpt>
      <trkpt lat="48.63032" lon="-2.27447">
        <ele>44.4</ele>
        <time>2021-07-27T18:39:18Z</time>
      </trkpt>
      <trkpt lat="48.63037" lon="-2.2744">
        <ele>44.2</ele>
        <time>2021-07-27T18:39:19Z</time>
      </trkpt>
      <trkpt lat="48.6305" lon="-2.27433">
        <ele>43.9</ele>
        <time>2021-07-27T18:39:21Z</time>
      </trkpt>
      <trkpt lat="48.63057" lon="-2.27432">
        <ele>43.7</ele>
        <time>2021-07-27T18:39:22Z</time>
      </trkpt>
      <trkpt lat="48.63065" lon="-2.27432">
        <ele>43.6</ele>
        <time>2021-07-27T18:39:23Z</time>
      </trkpt>
      <trkpt lat="48.6308" lon="-2.27429">
        <ele>43.4</ele>
        <time>2021-07-27T18:39:25Z</time>
      </trkpt>
      <trkpt lat="48.63087" lon="-2.27427">
        <ele>43.3</ele>
        <time>2021-07-27T18:39:26Z</time>
      </trkpt>
      <trkpt lat="48.63094" lon="-2.27425">
        <ele>43.3</ele>
        <time>2021-07-27T18:39:27Z</time>
      </trkpt>
      <trkpt lat="48.63108" lon="-2.2742">
        <ele>43.1</ele>
        <time>2021-07-27T18:39:29Z</time>
      </trkpt>
      <trkpt lat="48.63115" lon="-2.27418">
        <ele>43.1</ele>
        <time>2021-07-27T18:39:30Z</time>
      </trkpt>
      <trkpt lat="48.63128" lon="-2.27412">
        <ele>42.9</ele>
        <time>2021-07-27T18:39:32Z</time>
      </trkpt>
      <trkpt lat="48.63142" lon="-2.27408">
        <ele>42.8</ele>
        <time>2021-07-27T18:39:34Z</time>
      </trkpt>
      <trkpt lat="48.63157" lon="-2.27405">
        <ele>42.7</ele>
        <time>2021-07-27T18:39:36Z</time>
      </trkpt>
      <trkpt lat="48.63171" lon="-2.27403">
        <ele>42.6</ele>
        <time>2021-07-27T18:39:38Z</time>
      </trkpt>
      <trkpt lat="48.63178" lon="-2.27401">
        <ele>42.6</ele>
        <time>2021-07-27T18:39:39Z</time>
      </trkpt>
      <trkpt lat="48.63185" lon="-2.27397">
        <ele>42.6</ele>
        <time>2021-07-27T18:39:40Z</time>
      </trkpt>
      <trkpt lat="48.63196" lon="-2.27385">
        <ele>42.6</ele>
        <time>2021-07-27T18:39:42Z</time>
      </trkpt>
      <trkpt lat="48.63199" lon="-2.27376">
        <ele>42.6</ele>
        <time>2021-07-27T18:39:43Z</time>
      </trkpt>
      <trkpt lat="48.63205" lon="-2.2736">
        <ele>42.7</ele>
        <time>2021-07-27T18:39:45Z</time>
      </trkpt>
      <trkpt lat="48.63216" lon="-2.27351">
        <ele>42.5</ele>
        <time>2021-07-27T18:39:47Z</time>
      </trkpt>
      <trkpt lat="48.63228" lon="-2.27354">
        <ele>42.2</ele>
        <time>2021-07-27T18:39:49Z</time>
      </trkpt>
      <trkpt lat="48.63238" lon="-2.27365">
        <ele>41.9</ele>
        <time>2021-07-27T18:39:51Z</time>
      </trkpt>
      <trkpt lat="48.63246" lon="-2.27375">
        <ele>41.7</ele>
        <time>2021-07-27T18:39:53Z</time>
      </trkpt>
      <trkpt lat="48.63251" lon="-2.27381">
        <ele>41.6</ele>
        <time>2021-07-27T18:39:54Z</time>
      </trkpt>
      <trkpt lat="48.63255" lon="-2.27386">
        <ele>41.5</ele>
        <time>2021-07-27T18:39:55Z</time>
      </trkpt>
      <trkpt lat="48.63263" lon="-2.27397">
        <ele>41.3</ele>
        <time>2021-07-27T18:39:57Z</time>
      </trkpt>
      <trkpt lat="48.63267" lon="-2.27402">
        <ele>41.3</ele>
        <time>2021-07-27T18:39:58Z</time>
      </trkpt>
      <trkpt lat="48.63271" lon="-2.27407">
        <ele>41.2</ele>
        <time>2021-07-27T18:39:59Z</time>
      </trkpt>
      <trkpt lat="48.63278" lon="-2.27418">
        <ele>41.2</ele>
        <time>2021-07-27T18:40:01Z</time>
      </trkpt>
      <trkpt lat="48.63285" lon="-2.27428">
        <ele>41.1</ele>
        <time>2021-07-27T18:40:03Z</time>
      </trkpt>
      <trkpt lat="48.63289" lon="-2.27433">
        <ele>41.2</ele>
        <time>2021-07-27T18:40:04Z</time>
      </trkpt>
      <trkpt lat="48.63294" lon="-2.27441">
        <ele>41.2</ele>
        <time>2021-07-27T18:40:06Z</time>
      </trkpt>
      <trkpt lat="48.63302" lon="-2.27452">
        <ele>41.4</ele>
        <time>2021-07-27T18:40:08Z</time>
      </trkpt>
      <trkpt lat="48.63308" lon="-2.27464">
        <ele>41.6</ele>
        <time>2021-07-27T18:40:10Z</time>
      </trkpt>
      <trkpt lat="48.63312" lon="-2.27469">
        <ele>41.6</ele>
        <time>2021-07-27T18:40:11Z</time>
      </trkpt>
      <trkpt lat="48.63315" lon="-2.27484">
        <ele>41.7</ele>
        <time>2021-07-27T18:40:13Z</time>
      </trkpt>
      <trkpt lat="48.63315" lon="-2.27492">
        <ele>41.7</ele>
        <time>2021-07-27T18:40:14Z</time>
      </trkpt>
      <trkpt lat="48.63313" lon="-2.27506">
        <ele>41.7</ele>
        <time>2021-07-27T18:40:16Z</time>
      </trkpt>
      <trkpt lat="48.6331" lon="-2.27513">
        <ele>41.8</ele>
        <time>2021-07-27T18:40:17Z</time>
      </trkpt>
      <trkpt lat="48.63308" lon="-2.2752">
        <ele>41.8</ele>
        <time>2021-07-27T18:40:18Z</time>
      </trkpt>
      <trkpt lat="48.63303" lon="-2.27534">
        <ele>41.9</ele>
        <time>2021-07-27T18:40:20Z</time>
      </trkpt>
      <trkpt lat="48.63299" lon="-2.2755">
        <ele>42.2</ele>
        <time>2021-07-27T18:40:22Z</time>
      </trkpt>
      <trkpt lat="48.63295" lon="-2.27563">
        <ele>42.4</ele>
        <time>2021-07-27T18:40:24Z</time>
      </trkpt>
      <trkpt lat="48.6329" lon="-2.27576">
        <ele>42.7</ele>
        <time>2021-07-27T18:40:26Z</time>
      </trkpt>
      <trkpt lat="48.63285" lon="-2.27589">
        <ele>42.9</ele>
        <time>2021-07-27T18:40:28Z</time>
      </trkpt>
      <trkpt lat="48.63279" lon="-2.27602">
        <ele>43.2</ele>
        <time>2021-07-27T18:40:30Z</time>
      </trkpt>
      <trkpt lat="48.63277" lon="-2.27609">
        <ele>43.3</ele>
        <time>2021-07-27T18:40:31Z</time>
      </trkpt>
      <trkpt lat="48.63276" lon="-2.27616">
        <ele>43.4</ele>
        <time>2021-07-27T18:40:32Z</time>
      </trkpt>
      <trkpt lat="48.63276" lon="-2.27632">
        <ele>43.7</ele>
        <time>2021-07-27T18:40:34Z</time>
      </trkpt>
      <trkpt lat="48.63276" lon="-2.27639">
        <ele>43.8</ele>
        <time>2021-07-27T18:40:35Z</time>
      </trkpt>
      <trkpt lat="48.63277" lon="-2.27655">
        <ele>44</ele>
        <time>2021-07-27T18:40:37Z</time>
      </trkpt>
      <trkpt lat="48.63277" lon="-2.27663">
        <ele>44</ele>
        <time>2021-07-27T18:40:38Z</time>
      </trkpt>
      <trkpt lat="48.63278" lon="-2.27671">
        <ele>44.1</ele>
        <time>2021-07-27T18:40:39Z</time>
      </trkpt>
      <trkpt lat="48.63281" lon="-2.27685">
        <ele>44.2</ele>
        <time>2021-07-27T18:40:41Z</time>
      </trkpt>
      <trkpt lat="48.63283" lon="-2.27692">
        <ele>44.2</ele>
        <time>2021-07-27T18:40:42Z</time>
      </trkpt>
      <trkpt lat="48.63284" lon="-2.277">
        <ele>44.3</ele>
        <time>2021-07-27T18:40:43Z</time>
      </trkpt>
      <trkpt lat="48.63287" lon="-2.27714">
        <ele>44.3</ele>
        <time>2021-07-27T18:40:45Z</time>
      </trkpt>
      <trkpt lat="48.63289" lon="-2.27721">
        <ele>44.4</ele>
        <time>2021-07-27T18:40:46Z</time>
      </trkpt>
      <trkpt lat="48.63291" lon="-2.27735">
        <ele>44.5</ele>
        <time>2021-07-27T18:40:48Z</time>
      </trkpt>
      <trkpt lat="48.63292" lon="-2.27742">
        <ele>44.5</ele>
        <time>2021-07-27T18:40:49Z</time>
      </trkpt>
      <trkpt lat="48.63293" lon="-2.27749">
        <ele>44.6</ele>
        <time>2021-07-27T18:40:50Z</time>
      </trkpt>
      <trkpt lat="48.63293" lon="-2.27763">
        <ele>44.6</ele>
        <time>2021-07-27T18:40:52Z</time>
      </trkpt>
      <trkpt lat="48.63295" lon="-2.2777">
        <ele>44.4</ele>
        <time>2021-07-27T18:40:53Z</time>
      </trkpt>
      <trkpt lat="48.63303" lon="-2.27778">
        <ele>43.3</ele>
        <time>2021-07-27T18:40:55Z</time>
      </trkpt>
      <trkpt lat="48.63313" lon="-2.27778">
        <ele>42.3</ele>
        <time>2021-07-27T18:40:57Z</time>
      </trkpt>
      <trkpt lat="48.63318" lon="-2.27777">
        <ele>41.7</ele>
        <time>2021-07-27T18:40:58Z</time>
      </trkpt>
      <trkpt lat="48.63328" lon="-2.27774">
        <ele>40.5</ele>
        <time>2021-07-27T18:41:00Z</time>
      </trkpt>
      <trkpt lat="48.63334" lon="-2.27773">
        <ele>39.8</ele>
        <time>2021-07-27T18:41:01Z</time>
      </trkpt>
      <trkpt lat="48.63339" lon="-2.27772">
        <ele>39.2</ele>
        <time>2021-07-27T18:41:02Z</time>
      </trkpt>
      <trkpt lat="48.63348" lon="-2.27772">
        <ele>37.8</ele>
        <time>2021-07-27T18:41:04Z</time>
      </trkpt>
      <trkpt lat="48.63353" lon="-2.27773">
        <ele>37.1</ele>
        <time>2021-07-27T18:41:05Z</time>
      </trkpt>
      <trkpt lat="48.63364" lon="-2.27774">
        <ele>35.5</ele>
        <time>2021-07-27T18:41:07Z</time>
      </trkpt>
      <trkpt lat="48.63371" lon="-2.27774">
        <ele>34.6</ele>
        <time>2021-07-27T18:41:08Z</time>
      </trkpt>
      <trkpt lat="48.63383" lon="-2.27776">
        <ele>32.8</ele>
        <time>2021-07-27T18:41:10Z</time>
      </trkpt>
      <trkpt lat="48.63389" lon="-2.27779">
        <ele>32</ele>
        <time>2021-07-27T18:41:11Z</time>
      </trkpt>
      <trkpt lat="48.63394" lon="-2.27784">
        <ele>31.2</ele>
        <time>2021-07-27T18:41:12Z</time>
      </trkpt>
      <trkpt lat="48.63399" lon="-2.2779">
        <ele>30.5</ele>
        <time>2021-07-27T18:41:13Z</time>
      </trkpt>
      <trkpt lat="48.63405" lon="-2.27803">
        <ele>29.2</ele>
        <time>2021-07-27T18:41:15Z</time>
      </trkpt>
      <trkpt lat="48.63406" lon="-2.2781">
        <ele>28.9</ele>
        <time>2021-07-27T18:41:16Z</time>
      </trkpt>
      <trkpt lat="48.63407" lon="-2.27818">
        <ele>28.6</ele>
        <time>2021-07-27T18:41:17Z</time>
      </trkpt>
      <trkpt lat="48.63409" lon="-2.27824">
        <ele>28</ele>
        <time>2021-07-27T18:41:18Z</time>
      </trkpt>
      <trkpt lat="48.63412" lon="-2.27829">
        <ele>27.2</ele>
        <time>2021-07-27T18:41:19Z</time>
      </trkpt>
      <trkpt lat="48.63414" lon="-2.27832">
        <ele>26.7</ele>
        <time>2021-07-27T18:41:20Z</time>
      </trkpt>
      <trkpt lat="48.63418" lon="-2.27844">
        <ele>25.7</ele>
        <time>2021-07-27T18:41:22Z</time>
      </trkpt>
      <trkpt lat="48.63417" lon="-2.27851">
        <ele>25.3</ele>
        <time>2021-07-27T18:41:23Z</time>
      </trkpt>
      <trkpt lat="48.63414" lon="-2.27857">
        <ele>25.7</ele>
        <time>2021-07-27T18:41:24Z</time>
      </trkpt>
      <trkpt lat="48.63404" lon="-2.27867">
        <ele>28.2</ele>
        <time>2021-07-27T18:41:26Z</time>
      </trkpt>
      <trkpt lat="48.63401" lon="-2.27873">
        <ele>28.7</ele>
        <time>2021-07-27T18:41:27Z</time>
      </trkpt>
      <trkpt lat="48.63397" lon="-2.27879">
        <ele>29.2</ele>
        <time>2021-07-27T18:41:28Z</time>
      </trkpt>
      <trkpt lat="48.63393" lon="-2.27881">
        <ele>29.5</ele>
        <time>2021-07-27T18:41:29Z</time>
      </trkpt>
      <trkpt lat="48.63391" lon="-2.27887">
        <ele>29.9</ele>
        <time>2021-07-27T18:41:30Z</time>
      </trkpt>
      <trkpt lat="48.63387" lon="-2.27892">
        <ele>30.2</ele>
        <time>2021-07-27T18:41:31Z</time>
      </trkpt>
      <trkpt lat="48.63382" lon="-2.27897">
        <ele>31.1</ele>
        <time>2021-07-27T18:41:33Z</time>
      </trkpt>
      <trkpt lat="48.63379" lon="-2.27902">
        <ele>31.2</ele>
        <time>2021-07-27T18:41:34Z</time>
      </trkpt>
      <trkpt lat="48.63375" lon="-2.27911">
        <ele>32.2</ele>
        <time>2021-07-27T18:41:36Z</time>
      </trkpt>
      <trkpt lat="48.63374" lon="-2.27917">
        <ele>32.3</ele>
        <time>2021-07-27T18:41:37Z</time>
      </trkpt>
      <trkpt lat="48.63374" lon="-2.27926">
        <ele>32.3</ele>
        <time>2021-07-27T18:41:39Z</time>
      </trkpt>
      <trkpt lat="48.63377" lon="-2.2793">
        <ele>31.8</ele>
        <time>2021-07-27T18:41:40Z</time>
      </trkpt>
      <trkpt lat="48.63382" lon="-2.27934">
        <ele>30.9</ele>
        <time>2021-07-27T18:41:42Z</time>
      </trkpt>
      <trkpt lat="48.63384" lon="-2.27938">
        <ele>31.2</ele>
        <time>2021-07-27T18:41:43Z</time>
      </trkpt>
      <trkpt lat="48.63385" lon="-2.27944">
        <ele>31.2</ele>
        <time>2021-07-27T18:41:44Z</time>
      </trkpt>
      <trkpt lat="48.63383" lon="-2.27949">
        <ele>32.1</ele>
        <time>2021-07-27T18:41:45Z</time>
      </trkpt>
      <trkpt lat="48.63382" lon="-2.27954">
        <ele>32</ele>
        <time>2021-07-27T18:41:46Z</time>
      </trkpt>
      <trkpt lat="48.63383" lon="-2.27956">
        <ele>32.2</ele>
        <time>2021-07-27T18:41:47Z</time>
      </trkpt>
      <trkpt lat="48.63385" lon="-2.27956">
        <ele>32.3</ele>
        <time>2021-07-27T18:41:49Z</time>
      </trkpt>
      <trkpt lat="48.63387" lon="-2.27956">
        <ele>32.3</ele>
        <time>2021-07-27T18:41:50Z</time>
      </trkpt>
      <trkpt lat="48.63387" lon="-2.27953">
        <ele>32</ele>
        <time>2021-07-27T18:41:52Z</time>
      </trkpt>
      <trkpt lat="48.63386" lon="-2.27953">
        <ele>32</ele>
        <time>2021-07-27T18:41:54Z</time>
      </trkpt>
      <trkpt lat="48.63386" lon="-2.27953">
        <ele>32</ele>
        <time>2021-07-27T18:41:55Z</time>
      </trkpt>
      <trkpt lat="48.63386" lon="-2.27954">
        <ele>32.3</ele>
        <time>2021-07-27T18:41:56Z</time>
      </trkpt>
      <trkpt lat="48.63386" lon="-2.27954">
        <ele>32.3</ele>
        <time>2021-07-27T18:41:58Z</time>
      </trkpt>
      <trkpt lat="48.63386" lon="-2.27954">
        <ele>32.3</ele>
        <time>2021-07-27T18:42:00Z</time>
      </trkpt>
    </trkseg>
  </trk>
</gpx>